
Distance (Route):
Temperature : 7.9°C
Humidity : 86.8%
Pressure : 0hPa| Receiver | Frames | First received | Last received |
|---|---|---|---|
| DO3MHA-11 | 469 | 2026-09-01 23:23:50 | 2026-09-02 01:26:24 |
| 9A1FER-3 | 468 | 2026-09-01 23:33:28 | 2026-09-02 02:07:08 |
| OE8JPQ-2 | 407 | 2026-09-01 23:15:51 | 2026-09-02 01:50:22 |
| 9A1FER-10 | 365 | 2026-09-01 23:26:37 | 2026-09-02 02:09:38 |
| DO3MHA-12 | 255 | 2026-09-01 23:32:15 | 2026-09-02 01:23:38 |
| IN3HCDX | 225 | 2026-09-01 23:03:03 | 2026-09-02 01:12:21 |
| OE5DRO-10 | 222 | 2026-09-01 23:31:27 | 2026-09-02 01:33:35 |
| OE5DXL-15 | 200 | 2026-09-01 23:30:49 | 2026-09-02 01:30:17 |
| OE5MMP-10 | 179 | 2026-09-02 00:19:50 | 2026-09-02 00:55:41 |
| IN3HCDX1 | 172 | 2026-09-01 23:27:49 | 2026-09-02 01:15:30 |
| PETON7-10 | 153 | 2026-09-02 00:09:18 | 2026-09-02 01:01:36 |
| IV3AMH | 148 | 2026-09-01 23:20:20 | 2026-09-02 01:49:29 |
| SOBLACK | 137 | 2026-09-01 23:29:11 | 2026-09-02 01:14:47 |
| PG1ADW-2 | 130 | 2026-09-02 00:08:41 | 2026-09-02 01:35:39 |
| OE5WHR-10 | 128 | 2026-09-02 00:05:11 | 2026-09-02 01:09:20 |
| OE3JTB-15 | 94 | 2026-09-01 23:50:47 | 2026-09-02 01:28:31 |
| DG1MFX-10 | 75 | 2026-09-01 23:56:05 | 2026-09-02 01:26:07 |
| NBG1-10 | 68 | 2026-09-01 23:57:34 | 2026-09-02 01:07:29 |
| DB0UT-7 | 53 | 2026-09-02 00:20:00 | 2026-09-02 00:54:30 |
| OM5KV | 24 | 2026-09-02 00:45:26 | 2026-09-02 01:39:43 |
| Receiver | Date | Latitude | Longitude | Direction | Speed | Altitude | Climb | Temperature | Humidity | Pressure | Voltage | Killtimer | Uptime | BKT | XDATA |
|---|---|---|---|---|---|---|---|---|---|---|---|---|---|---|---|
| 9A1FER-10 | 2026-09-02 02:09:38 | 46.09397 | 14.86119 | 68° | 33km/h | 2554m | -2.0m/s | 7.9°C | 86.8% | 0hPa | 2.7V | 00:00:00 | 03:45:08 | 00:00:00 | |
| 9A1FER-3 | 2026-09-02 02:07:08 | 46.09396 | 14.84823 | 120° | 29km/h | 2878m | -2.2m/s | 5.2°C | 94.8% | 0hPa | 2.7V | 00:00:00 | 03:42:38 | 00:00:00 | |
| 9A1FER-3 | 2026-09-02 02:06:49 | 46.09440 | 14.84610 | 95° | 27km/h | 2922m | -1.7m/s | 4.9°C | 94.0% | 0hPa | 2.7V | 00:00:00 | 03:42:19 | 00:00:00 | |
| 9A1FER-3 | 2026-09-02 02:06:39 | 46.09469 | 14.84520 | 116° | 33km/h | 2941m | -2.0m/s | 4.7°C | 95.8% | 0hPa | 2.7V | 00:00:00 | 03:42:09 | 00:00:00 | |
| 9A1FER-3 | 2026-09-02 02:06:29 | 46.09485 | 14.84406 | 94° | 26km/h | 2961m | -1.8m/s | 4.5°C | 96.6% | 0hPa | 2.7V | 00:00:00 | 03:41:59 | 00:00:00 | |
| 9A1FER-3 | 2026-09-02 02:06:19 | 46.09512 | 14.84318 | 120° | 38km/h | 2981m | -2.1m/s | 4.3°C | 97.6% | 0hPa | 2.7V | 00:00:00 | 03:41:49 | 00:00:00 | |
| 9A1FER-3 | 2026-09-02 02:06:09 | 46.09545 | 14.84186 | 97° | 31km/h | 3004m | -2.3m/s | 4.2°C | 97.6% | 0hPa | 2.7V | 00:00:00 | 03:41:39 | 00:00:00 | |
| 9A1FER-3 | 2026-09-02 02:05:54 | 46.09590 | 14.84026 | 112° | 35km/h | 3038m | -2.2m/s | 4.2°C | 93.2% | 0hPa | 2.7V | 00:00:00 | 03:41:24 | 00:00:00 | |
| 9A1FER-3 | 2026-09-02 02:05:39 | 46.09615 | 14.83844 | 119° | 37km/h | 3071m | -1.9m/s | 4.0°C | 92.4% | 0hPa | 2.7V | 07:13:00 | 03:41:09 | 00:00:00 | |
| 9A1FER-3 | 2026-09-02 02:05:24 | 46.09643 | 14.83650 | 89° | 31km/h | 3102m | -2.1m/s | 3.7°C | 93.4% | 0hPa | 2.7V | 00:00:00 | 03:40:54 | 00:00:00 | |
| 9A1FER-3 | 2026-09-02 02:05:08 | 46.09680 | 14.83468 | 98° | 33km/h | 3137m | -2.2m/s | 3.5°C | 92.3% | 0hPa | 2.7V | 00:00:00 | 03:40:38 | 00:00:00 | |
| 9A1FER-10 | 2026-09-02 02:05:01 | 46.09680 | 14.83375 | 86° | 33km/h | 3153m | -2.3m/s | 3.4°C | 89.7% | 0hPa | 2.7V | 00:00:00 | 03:40:31 | 00:00:00 | |
| 9A1FER-3 | 2026-09-02 02:04:53 | 46.09692 | 14.83297 | 113° | 38km/h | 3172m | -2.2m/s | 3.2°C | 89.3% | 0hPa | 2.7V | 00:00:00 | 03:40:23 | 00:00:00 | |
| 9A1FER-10 | 2026-09-02 02:04:46 | 46.09710 | 14.83202 | 99° | 33km/h | 3189m | -2.6m/s | 3.1°C | 88.5% | 0hPa | 2.7V | 00:00:00 | 03:40:16 | 00:00:00 | |
| 9A1FER-3 | 2026-09-02 02:04:38 | 46.09708 | 14.83092 | 81° | 33km/h | 3208m | -2.5m/s | 3.0°C | 88.4% | 0hPa | 2.7V | 00:00:00 | 03:40:08 | 00:00:00 | |
| 9A1FER-10 | 2026-09-02 02:04:31 | 46.09704 | 14.83023 | 100° | 40km/h | 3227m | -2.8m/s | 3.1°C | 82.9% | 0hPa | 2.7V | 07:14:00 | 03:40:01 | 00:00:00 | |
| 9A1FER-3 | 2026-09-02 02:04:23 | 46.09714 | 14.82913 | 92° | 38km/h | 3250m | -3.0m/s | 2.9°C | 81.9% | 0hPa | 2.7V | 00:00:00 | 03:39:53 | 00:00:00 | |
| 9A1FER-10 | 2026-09-02 02:04:16 | 46.09706 | 14.82807 | 76° | 40km/h | 3271m | -2.7m/s | 2.9°C | 76.9% | 0hPa | 2.7V | 00:00:00 | 03:39:46 | 00:00:00 | |
| 9A1FER-3 | 2026-09-02 02:04:08 | 46.09688 | 14.82714 | 84° | 38km/h | 3292m | -3.1m/s | 2.7°C | 77.7% | 0hPa | 2.7V | 00:00:00 | 03:39:38 | 00:00:00 | |
| 9A1FER-3 | 2026-09-02 02:03:53 | 46.09671 | 14.82507 | 68° | 35km/h | 3334m | -3.2m/s | 2.5°C | 74.0% | 0hPa | 2.7V | 00:00:00 | 03:39:23 | 00:00:00 | |
| 9A1FER-10 | 2026-09-02 02:03:50 | 46.09662 | 14.82474 | 74° | 37km/h | 3342m | -2.9m/s | 2.4°C | 74.5% | 0hPa | 2.7V | 00:00:00 | 03:39:20 | 00:00:00 | |
| 9A1FER-3 | 2026-09-02 02:03:38 | 46.09658 | 14.82319 | 82° | 35km/h | 3376m | -3.0m/s | 2.1°C | 79.7% | 0hPa | 2.7V | 07:15:00 | 03:39:08 | 00:00:00 | |
| 9A1FER-10 | 2026-09-02 02:03:35 | 46.09649 | 14.82273 | 71° | 42km/h | 3384m | -3.4m/s | 2.1°C | 81.0% | 0hPa | 2.7V | 00:00:00 | 03:39:05 | 00:00:00 | |
| 9A1FER-3 | 2026-09-02 02:03:23 | 46.09621 | 14.82141 | 92° | 35km/h | 3420m | -3.2m/s | 1.8°C | 84.5% | 0hPa | 2.6V | 00:00:00 | 03:38:53 | 00:00:00 | |
| 9A1FER-10 | 2026-09-02 02:02:58 | 46.09571 | 14.81810 | 69° | 35km/h | 3495m | -3.2m/s | 1.3°C | 86.4% | 0hPa | 2.7V | 00:00:00 | 03:38:28 | 00:00:00 | |
| 9A1FER-10 | 2026-09-02 02:02:43 | 46.09523 | 14.81640 | 86° | 40km/h | 3542m | -3.7m/s | 0.9°C | 91.1% | 0hPa | 2.7V | 00:00:00 | 03:38:13 | 00:00:00 | |
| 9A1FER-10 | 2026-09-02 02:02:28 | 46.09467 | 14.81442 | 65° | 35km/h | 3590m | -2.7m/s | 0.6°C | 88.1% | 0hPa | 2.7V | 00:00:00 | 03:37:58 | 00:00:00 | |
| 9A1FER-10 | 2026-09-02 02:02:13 | 46.09426 | 14.81243 | 61° | 35km/h | 3636m | -2.8m/s | 0.2°C | 88.1% | 0hPa | 2.7V | 00:00:00 | 03:37:43 | 00:00:00 | |
| 9A1FER-10 | 2026-09-02 02:01:56 | 46.09364 | 14.81045 | 77° | 38km/h | 3687m | -3.5m/s | -0.0°C | 90.0% | 0hPa | 2.7V | 07:17:00 | 03:37:26 | 00:00:00 | |
| 9A1FER-3 | 2026-09-02 02:01:15 | 46.09214 | 14.80550 | 83° | 40km/h | 3812m | -3.0m/s | -1.0°C | 85.9% | 0hPa | 2.7V | 00:00:00 | 03:36:45 | 00:00:00 | |
| 9A1FER-3 | 2026-09-02 02:00:46 | 46.09140 | 14.80177 | 65° | 33km/h | 3899m | -3.3m/s | -1.7°C | 84.4% | 0hPa | 2.7V | 00:00:00 | 03:36:16 | 00:00:00 | |
| 9A1FER-10 | 2026-09-02 02:00:37 | 46.09116 | 14.80080 | 86° | 40km/h | 3926m | -3.4m/s | -1.9°C | 84.3% | 0hPa | 2.7V | 00:00:00 | 03:36:07 | 00:00:00 | |
| 9A1FER-3 | 2026-09-02 02:00:31 | 46.09116 | 14.80006 | 88° | 40km/h | 3943m | -2.9m/s | -2.0°C | 82.4% | 0hPa | 2.6V | 00:00:00 | 03:36:01 | 00:00:00 | |
| 9A1FER-10 | 2026-09-02 02:00:22 | 46.09108 | 14.79863 | 77° | 40km/h | 3969m | -3.2m/s | -2.1°C | 77.9% | 0hPa | 2.7V | 00:00:00 | 03:35:52 | 00:00:00 | |
| 9A1FER-10 | 2026-09-02 01:59:50 | 46.09063 | 14.79410 | 93° | 44km/h | 4057m | -2.7m/s | -2.3°C | 62.9% | 0hPa | 2.7V | 00:00:00 | 03:35:20 | 00:00:00 | |
| 9A1FER-10 | 2026-09-02 01:59:35 | 46.09047 | 14.79175 | 77° | 46km/h | 4097m | -2.8m/s | -2.6°C | 63.8% | 0hPa | 2.7V | 00:00:00 | 03:35:05 | 00:00:00 | |
| 9A1FER-3 | 2026-09-02 01:58:07 | 46.09136 | 14.77819 | 92° | 40km/h | 4325m | -2.6m/s | -4.5°C | 85.4% | 0hPa | 2.7V | 00:00:00 | 03:33:37 | 00:00:00 | |
| 9A1FER-3 | 2026-09-02 01:57:52 | 46.09177 | 14.77601 | 111° | 47km/h | 4366m | -3.1m/s | -4.8°C | 87.1% | 0hPa | 2.7V | 00:00:00 | 03:33:22 | 00:00:00 | |
| 9A1FER-3 | 2026-09-02 01:57:37 | 46.09215 | 14.77356 | 119° | 53km/h | 4400m | -3.2m/s | -5.1°C | 88.1% | 0hPa | 2.6V | 07:21:00 | 03:33:07 | 00:00:00 | |
| 9A1FER-3 | 2026-09-02 01:57:22 | 46.09277 | 14.77081 | 96° | 46km/h | 4447m | -2.8m/s | -5.5°C | 92.8% | 0hPa | 2.6V | 00:00:00 | 03:32:52 | 00:00:00 | |
| 9A1FER-3 | 2026-09-02 01:57:07 | 46.09338 | 14.76847 | 101° | 44km/h | 4483m | -2.5m/s | -5.9°C | 95.0% | 0hPa | 2.6V | 00:00:00 | 03:32:37 | 00:00:00 | |
| 9A1FER-3 | 2026-09-02 01:56:52 | 46.09376 | 14.76615 | 116° | 47km/h | 4518m | -2.3m/s | -6.3°C | 97.6% | 0hPa | 2.7V | 00:00:00 | 03:32:22 | 00:00:00 | |
| 9A1FER-3 | 2026-09-02 01:56:37 | 46.09415 | 14.76362 | 97° | 46km/h | 4559m | -2.7m/s | -6.6°C | 0% | 0hPa | 2.7V | 00:00:00 | 03:32:07 | 00:00:00 | |
| 9A1FER-3 | 2026-09-02 01:56:22 | 46.09463 | 14.76125 | 95° | 42km/h | 4604m | -3.3m/s | -7.0°C | 0% | 0hPa | 2.7V | 00:00:00 | 03:31:52 | 00:00:00 | |
| 9A1FER-3 | 2026-09-02 01:56:07 | 46.09508 | 14.75910 | 111° | 46km/h | 4659m | -3.9m/s | -7.5°C | 0% | 0hPa | 2.7V | 00:00:00 | 03:31:37 | 00:00:00 | |
| 9A1FER-3 | 2026-09-02 01:55:52 | 46.09551 | 14.75676 | 116° | 49km/h | 4710m | -2.9m/s | -7.7°C | 0% | 0hPa | 2.7V | 00:00:00 | 03:31:22 | 00:00:00 | |
| 9A1FER-3 | 2026-09-02 01:55:37 | 46.09611 | 14.75416 | 99° | 49km/h | 4759m | -3.2m/s | -6.9°C | 76.7% | 0hPa | 2.7V | 07:23:00 | 03:31:07 | 00:00:00 | |
| 9A1FER-3 | 2026-09-02 01:55:13 | 46.09674 | 14.75012 | 98° | 55km/h | 4840m | -3.4m/s | -6.2°C | 37.3% | 0hPa | 2.7V | 00:00:00 | 03:30:43 | 00:00:00 | |
| 9A1FER-3 | 2026-09-02 01:54:14 | 46.09777 | 14.73906 | 106° | 55km/h | 5032m | -3.4m/s | -6.7°C | 8.0% | 0hPa | 2.7V | 00:00:00 | 03:29:44 | 00:00:00 | |
| 9A1FER-3 | 2026-09-02 01:53:57 | 46.09791 | 14.73558 | 98° | 57km/h | 5088m | -3.2m/s | -7.2°C | 5.8% | 0hPa | 2.7V | 00:00:00 | 03:29:27 | 00:00:00 | |
| 9A1FER-10 | 2026-09-02 01:53:52 | 46.09805 | 14.73466 | 103° | 60km/h | 5104m | -3.3m/s | -7.3°C | 6.1% | 0hPa | 2.7V | 00:00:00 | 03:29:22 | 00:00:00 | |
| 9A1FER-3 | 2026-09-02 01:53:42 | 46.09813 | 14.73240 | 84° | 55km/h | 5138m | -3.4m/s | -7.6°C | 7.8% | 0hPa | 2.7V | 00:00:00 | 03:29:12 | 00:00:00 | |
| 9A1FER-10 | 2026-09-02 01:53:37 | 46.09805 | 14.73143 | 88° | 64km/h | 5154m | -3.1m/s | -7.7°C | 8.0% | 0hPa | 2.7V | 00:00:00 | 03:29:07 | 00:00:00 | |
| 9A1FER-3 | 2026-09-02 01:53:27 | 46.09825 | 14.72942 | 97° | 60km/h | 5187m | -3.4m/s | -7.9°C | 7.7% | 0hPa | 2.7V | 00:00:00 | 03:28:57 | 00:00:00 | |
| 9A1FER-10 | 2026-09-02 01:53:20 | 46.09825 | 14.72773 | 83° | 57km/h | 5210m | -3.3m/s | -8.1°C | 7.3% | 0hPa | 2.7V | 00:00:00 | 03:28:50 | 00:00:00 | |
| 9A1FER-3 | 2026-09-02 01:53:12 | 46.09818 | 14.72619 | 97° | 62km/h | 5236m | -3.2m/s | -8.2°C | 6.9% | 0hPa | 2.6V | 00:00:00 | 03:28:42 | 00:00:00 | |
| 9A1FER-10 | 2026-09-02 01:53:05 | 46.09833 | 14.72469 | 95° | 60km/h | 5259m | -3.4m/s | -8.4°C | 5.8% | 0hPa | 2.6V | 07:25:00 | 03:28:35 | 00:00:00 | |
| 9A1FER-3 | 2026-09-02 01:52:57 | 46.09826 | 14.72277 | 82° | 57km/h | 5286m | -3.2m/s | -8.6°C | 5.7% | 0hPa | 2.6V | 00:00:00 | 03:28:27 | 00:00:00 | |
| 9A1FER-10 | 2026-09-02 01:52:50 | 46.09821 | 14.72145 | 97° | 64km/h | 5309m | -3.3m/s | -8.8°C | 5.7% | 0hPa | 2.6V | 00:00:00 | 03:28:20 | 00:00:00 | |
| 9A1FER-3 | 2026-09-02 01:52:42 | 46.09839 | 14.71969 | 96° | 60km/h | 5336m | -3.4m/s | -9.0°C | 5.7% | 0hPa | 2.6V | 07:26:00 | 03:28:12 | 00:00:00 | |
| 9A1FER-3 | 2026-09-02 01:52:27 | 46.09836 | 14.71640 | 101° | 64km/h | 5385m | -3.5m/s | -9.5°C | 6.3% | 0hPa | 2.6V | 00:00:00 | 03:27:57 | 00:00:00 | |
| 9A1FER-3 | 2026-09-02 01:52:12 | 46.09837 | 14.71295 | 87° | 60km/h | 5434m | -3.1m/s | -9.9°C | 7.1% | 0hPa | 2.6V | 00:00:00 | 03:27:42 | 00:00:00 | |
| 9A1FER-10 | 2026-09-02 01:51:51 | 46.09843 | 14.70819 | 82° | 64km/h | 5503m | -3.2m/s | -10.5°C | 6.3% | 0hPa | 2.6V | 00:00:00 | 03:27:21 | 00:00:00 | |
| 9A1FER-10 | 2026-09-02 01:51:13 | 46.09856 | 14.69950 | 86° | 68km/h | 5623m | -3.2m/s | -11.3°C | 6.0% | 0hPa | 2.6V | 00:00:00 | 03:26:43 | 00:00:00 | |
| 9A1FER-3 | 2026-09-02 01:51:01 | 46.09852 | 14.69684 | 100° | 62km/h | 5660m | -3.2m/s | -11.7°C | 6.0% | 0hPa | 2.6V | 00:00:00 | 03:26:31 | 00:00:00 | |
| 9A1FER-10 | 2026-09-02 01:50:36 | 46.09868 | 14.69092 | 96° | 62km/h | 5738m | -3.1m/s | -12.3°C | 6.1% | 0hPa | 2.6V | 00:00:00 | 03:26:06 | 00:00:00 | |
| OE8JPQ-2 | 2026-09-02 01:50:22 | 46.09857 | 14.68756 | 93° | 66km/h | 5782m | -3.0m/s | -12.7°C | 6.1% | 0hPa | 2.6V | 00:00:00 | 03:25:52 | 00:00:00 | |
| OE8JPQ-2 | 2026-09-02 01:50:02 | 46.09860 | 14.68275 | 87° | 66km/h | 5844m | -3.0m/s | -13.2°C | 5.9% | 0hPa | 2.6V | 00:00:00 | 00:00:00 | 00:00:00 | |
| OE8JPQ-2 | 2026-09-02 01:49:42 | 46.09865 | 14.67803 | 84° | 64km/h | 5906m | -3.1m/s | -13.7°C | 7.0% | 0hPa | 2.6V | 00:00:00 | 00:00:00 | 00:00:00 | |
| 9A1FER-3 | 2026-09-02 01:49:34 | 46.09869 | 14.67642 | 100° | 66km/h | 5930m | -3.0m/s | -14.0°C | 8.5% | 0hPa | 2.6V | 00:00:00 | 03:25:04 | 00:00:00 | |
| IV3AMH | 2026-09-02 01:49:29 | 46.09880 | 14.67549 | 98° | 69km/h | 5943m | -3.2m/s | -14.1°C | 8.7% | 0hPa | 2.6V | 00:00:00 | 00:00:00 | 00:00:00 | |
| OE8JPQ-2 | 2026-09-02 01:49:22 | 46.09874 | 14.67347 | 82° | 62km/h | 5969m | -3.3m/s | -14.3°C | 9.4% | 0hPa | 2.6V | 00:00:00 | 03:24:52 | 00:00:00 | |
| 9A1FER-3 | 2026-09-02 01:49:19 | 46.09867 | 14.67282 | 83° | 66km/h | 5978m | -3.3m/s | -14.3°C | 8.6% | 0hPa | 2.6V | 00:00:00 | 03:24:49 | 00:00:00 | |
| 9A1FER-3 | 2026-09-02 01:49:02 | 46.09879 | 14.66892 | 86° | 62km/h | 6033m | -3.2m/s | -14.6°C | 11.2% | 0hPa | 2.6V | 00:00:00 | 03:24:32 | 00:00:00 | |
| IV3AMH | 2026-09-02 01:48:58 | 46.09872 | 14.66816 | 82° | 68km/h | 6042m | -3.1m/s | -14.7°C | 10.4% | 0hPa | 2.6V | 00:00:00 | 00:00:00 | 00:00:00 | |
| 9A1FER-3 | 2026-09-02 01:48:47 | 46.09852 | 14.66562 | 95° | 57km/h | 6080m | -3.3m/s | -14.8°C | 9.8% | 0hPa | 2.6V | 00:00:00 | 03:24:17 | 00:00:00 | |
| 9A1FER-10 | 2026-09-02 01:48:45 | 46.09855 | 14.66520 | 97° | 66km/h | 6087m | -3.2m/s | -14.8°C | 9.7% | 0hPa | 2.6V | 00:00:00 | 03:24:15 | 00:00:00 | |
| OE8JPQ-2 | 2026-09-02 01:48:42 | 46.09860 | 14.66448 | 94° | 62km/h | 6096m | -3.1m/s | -14.9°C | 9.8% | 0hPa | 2.5V | 00:00:00 | 00:00:00 | 00:00:00 | |
| OE8JPQ-2 | 2026-09-02 01:48:22 | 46.09824 | 14.66009 | 96° | 58km/h | 6161m | -3.0m/s | -15.2°C | 8.6% | 0hPa | 2.5V | 00:00:00 | 03:23:52 | 00:00:00 | |
| OE8JPQ-2 | 2026-09-02 01:48:02 | 46.09796 | 14.65587 | 95° | 57km/h | 6227m | -3.2m/s | -15.6°C | 6.0% | 0hPa | 2.5V | 07:30:00 | 00:00:00 | 00:00:00 | |
| OE8JPQ-2 | 2026-09-02 01:47:42 | 46.09775 | 14.65178 | 96° | 57km/h | 6295m | -3.5m/s | -15.9°C | 4.4% | 0hPa | 2.5V | 00:00:00 | 00:00:00 | 00:00:00 | |
| 9A1FER-10 | 2026-09-02 01:47:34 | 46.09773 | 14.64992 | 80° | 57km/h | 6323m | -3.4m/s | -16.0°C | 4.8% | 0hPa | 2.5V | 00:00:00 | 03:23:04 | 00:00:00 | |
| OE8JPQ-2 | 2026-09-02 01:47:02 | 46.09728 | 14.64349 | 93° | 58km/h | 6437m | -3.6m/s | -16.9°C | 5.4% | 0hPa | 2.5V | 00:00:00 | 00:00:00 | 00:00:00 | |
| IV3AMH | 2026-09-02 01:46:49 | 46.09729 | 14.64081 | 81° | 66km/h | 6480m | -3.7m/s | -17.3°C | 4.9% | 0hPa | 2.6V | 00:00:00 | 00:00:00 | 00:00:00 | |
| 9A1FER-10 | 2026-09-02 01:46:42 | 46.09706 | 14.63925 | 85° | 60km/h | 6510m | -3.6m/s | -17.4°C | 5.3% | 0hPa | 2.6V | 00:00:00 | 03:22:12 | 00:00:00 | |
| 9A1FER-10 | 2026-09-02 01:46:27 | 46.09706 | 14.63594 | 83° | 68km/h | 6566m | -3.8m/s | -17.8°C | 5.5% | 0hPa | 2.6V | 07:32:00 | 03:21:57 | 00:00:00 | |
| OE8JPQ-2 | 2026-09-02 01:46:22 | 46.09688 | 14.63480 | 75° | 60km/h | 6585m | -3.9m/s | -18.0°C | 5.6% | 0hPa | 2.6V | 00:00:00 | 03:21:52 | 00:00:00 | |
| IV3AMH | 2026-09-02 01:46:12 | 46.09671 | 14.63310 | 94° | 57km/h | 6618m | -3.7m/s | -18.3°C | 5.2% | 0hPa | 2.6V | 00:00:00 | 00:00:00 | 00:00:00 | |
| 9A1FER-3 | 2026-09-02 01:46:10 | 46.09673 | 14.63243 | 92° | 62km/h | 6629m | -3.6m/s | -18.4°C | 5.8% | 0hPa | 2.6V | 07:32:00 | 03:21:40 | 00:00:00 | |
| 9A1FER-3 | 2026-09-02 01:45:50 | 46.09635 | 14.62782 | 94° | 68km/h | 6703m | -3.8m/s | -18.8°C | 5.5% | 0hPa | 2.6V | 00:00:00 | 03:21:20 | 00:00:00 | |
| OE8JPQ-2 | 2026-09-02 01:45:42 | 46.09634 | 14.62579 | 83° | 66km/h | 6734m | -3.8m/s | -19.0°C | 6.2% | 0hPa | 2.6V | 00:00:00 | 00:00:00 | 00:00:00 | |
| 9A1FER-3 | 2026-09-02 01:45:35 | 46.09611 | 14.62415 | 84° | 68km/h | 6759m | -3.5m/s | -19.1°C | 6.5% | 0hPa | 2.6V | 00:00:00 | 03:21:05 | 00:00:00 | |
| IV3AMH | 2026-09-02 01:45:34 | 46.09612 | 14.62415 | 84° | 55km/h | 6759m | -3.6m/s | -19.1°C | 5.9% | 0hPa | 2.5V | 07:33:00 | 00:00:00 | 00:00:00 | |
| OE8JPQ-2 | 2026-09-02 01:45:22 | 46.09616 | 14.62098 | 84° | 66km/h | 6807m | -3.6m/s | -19.4°C | 6.7% | 0hPa | 2.5V | 07:33:00 | 03:20:52 | 00:00:00 | |
| 9A1FER-3 | 2026-09-02 01:45:20 | 46.09610 | 14.62045 | 80° | 62km/h | 6814m | -3.5m/s | -19.5°C | 6.8% | 0hPa | 2.5V | 00:00:00 | 03:20:50 | 00:00:00 | |
| 9A1FER-3 | 2026-09-02 01:45:05 | 46.09604 | 14.61709 | 97° | 69km/h | 6871m | -3.8m/s | -19.9°C | 7.6% | 0hPa | 2.5V | 00:00:00 | 03:20:35 | 00:00:00 | |
| OE8JPQ-2 | 2026-09-02 01:45:02 | 46.09608 | 14.61627 | 92° | 68km/h | 6882m | -3.8m/s | -20.0°C | 7.6% | 0hPa | 2.5V | 00:00:00 | 00:00:00 | 00:00:00 | |
| IV3AMH | 2026-09-02 01:44:56 | 46.09601 | 14.61489 | 82° | 71km/h | 6901m | -3.6m/s | -20.2°C | 6.9% | 0hPa | 2.5V | 07:34:00 | 00:00:00 | 00:00:00 | |
| 9A1FER-3 | 2026-09-02 01:44:50 | 46.09588 | 14.61330 | 92° | 69km/h | 6927m | -3.5m/s | -20.4°C | 7.2% | 0hPa | 2.5V | 00:00:00 | 03:20:20 | 00:00:00 | |
| OE8JPQ-2 | 2026-09-02 01:44:42 | 46.09605 | 14.61144 | 97° | 71km/h | 6956m | -3.6m/s | -20.6°C | 7.8% | 0hPa | 2.5V | 00:00:00 | 00:00:00 | 00:00:00 | |
| 9A1FER-3 | 2026-09-02 01:44:35 | 46.09605 | 14.60947 | 85° | 68km/h | 6983m | -3.8m/s | -20.8°C | 7.6% | 0hPa | 2.5V | 00:00:00 | 03:20:05 | 00:00:00 | |
| 9A1FER-10 | 2026-09-02 01:44:26 | 46.09580 | 14.60716 | 81° | 69km/h | 7018m | -3.8m/s | -21.0°C | 10.4% | 0hPa | 2.5V | 00:00:00 | 03:19:56 | 00:00:00 | |
| OE8JPQ-2 | 2026-09-02 01:44:22 | 46.09576 | 14.60630 | 94° | 71km/h | 7032m | -3.6m/s | -21.1°C | 10.2% | 0hPa | 2.5V | 00:00:00 | 03:19:52 | 00:00:00 | |
| 9A1FER-3 | 2026-09-02 01:44:20 | 46.09579 | 14.60584 | 96° | 73km/h | 7040m | -3.7m/s | -21.2°C | 9.8% | 0hPa | 2.5V | 00:00:00 | 03:19:50 | 00:00:00 | |
| IV3AMH | 2026-09-02 01:44:14 | 46.09584 | 14.60450 | 89° | 78km/h | 7058m | -3.8m/s | -21.3°C | 8.9% | 0hPa | 2.5V | 07:34:00 | 00:00:00 | 00:00:00 | |
| 9A1FER-10 | 2026-09-02 01:44:11 | 46.09576 | 14.60338 | 81° | 64km/h | 7073m | -3.7m/s | -21.4°C | 10.8% | 0hPa | 2.5V | 00:00:00 | 03:19:41 | 00:00:00 | |
| 9A1FER-3 | 2026-09-02 01:44:05 | 46.09553 | 14.60188 | 77° | 64km/h | 7096m | -3.9m/s | -21.6°C | 10.4% | 0hPa | 2.5V | 07:34:00 | 03:19:35 | 00:00:00 | |
| OE8JPQ-2 | 2026-09-02 01:44:02 | 46.09543 | 14.60124 | 81° | 66km/h | 7108m | -3.5m/s | -21.7°C | 10.0% | 0hPa | 2.6V | 00:00:00 | 00:00:00 | 00:00:00 | |
| 9A1FER-10 | 2026-09-02 01:43:56 | 46.09540 | 14.59999 | 94° | 71km/h | 7130m | -3.7m/s | -21.8°C | 8.2% | 0hPa | 2.6V | 00:00:00 | 03:19:26 | 00:00:00 | |
| 9A1FER-3 | 2026-09-02 01:43:50 | 46.09541 | 14.59843 | 86° | 66km/h | 7153m | -4.0m/s | -21.9°C | 7.0% | 0hPa | 2.6V | 00:00:00 | 03:19:20 | 00:00:00 | |
| OE8JPQ-2 | 2026-09-02 01:43:42 | 46.09511 | 14.59640 | 75° | 64km/h | 7184m | -3.6m/s | -22.2°C | 5.3% | 0hPa | 2.6V | 00:00:00 | 00:00:00 | 00:00:00 | |
| 9A1FER-10 | 2026-09-02 01:43:41 | 46.09507 | 14.59619 | 76° | 64km/h | 7187m | -3.8m/s | -22.2°C | 5.2% | 0hPa | 2.6V | 00:00:00 | 03:19:11 | 00:00:00 | |
| 9A1FER-3 | 2026-09-02 01:43:35 | 46.09498 | 14.59499 | 92° | 68km/h | 7210m | -3.8m/s | -22.4°C | 5.2% | 0hPa | 2.6V | 00:00:00 | 03:19:05 | 00:00:00 | |
| IV3AMH | 2026-09-02 01:43:27 | 46.09497 | 14.59325 | 82° | 73km/h | 7236m | -3.6m/s | -22.7°C | 4.7% | 0hPa | 2.6V | 07:35:00 | 00:00:00 | 00:00:00 | |
| 9A1FER-10 | 2026-09-02 01:43:26 | 46.09489 | 14.59274 | 76° | 60km/h | 7243m | -3.6m/s | -22.7°C | 5.5% | 0hPa | 2.6V | 00:00:00 | 03:18:56 | 00:00:00 | |
| OE8JPQ-2 | 2026-09-02 01:43:22 | 46.09471 | 14.59181 | 73° | 64km/h | 7258m | -3.7m/s | -22.8°C | 5.5% | 0hPa | 2.6V | 00:00:00 | 03:18:52 | 00:00:00 | |
| 9A1FER-3 | 2026-09-02 01:43:20 | 46.09462 | 14.59139 | 74° | 62km/h | 7266m | -3.7m/s | -22.9°C | 5.6% | 0hPa | 2.6V | 00:00:00 | 03:18:50 | 00:00:00 | |
| 9A1FER-10 | 2026-09-02 01:43:11 | 46.09447 | 14.58953 | 92° | 69km/h | 7298m | -3.7m/s | -23.2°C | 5.9% | 0hPa | 2.6V | 00:00:00 | 03:18:41 | 00:00:00 | |
| IV3AMH | 2026-09-02 01:43:06 | 46.09445 | 14.58850 | 86° | 75km/h | 7313m | -3.8m/s | -23.3°C | 5.4% | 0hPa | 2.5V | 00:00:00 | 00:00:00 | 00:00:00 | |
| 9A1FER-3 | 2026-09-02 01:43:05 | 46.09441 | 14.58795 | 81° | 62km/h | 7320m | -3.8m/s | -23.3°C | 6.1% | 0hPa | 2.5V | 00:00:00 | 03:18:35 | 00:00:00 | |
| OE8JPQ-2 | 2026-09-02 01:43:02 | 46.09429 | 14.58717 | 76° | 64km/h | 7332m | -3.6m/s | -23.5°C | 6.3% | 0hPa | 2.5V | 00:00:00 | 00:00:00 | 00:00:00 | |
| 9A1FER-10 | 2026-09-02 01:42:56 | 46.09402 | 14.58584 | 77° | 66km/h | 7354m | -3.6m/s | -23.6°C | 9.0% | 0hPa | 2.6V | 00:00:00 | 03:18:26 | 00:00:00 | |
| 9A1FER-3 | 2026-09-02 01:42:50 | 46.09395 | 14.58463 | 92° | 60km/h | 7376m | -3.8m/s | -23.9°C | 12.5% | 0hPa | 2.6V | 00:00:00 | 03:18:20 | 00:00:00 | |
| OE8JPQ-2 | 2026-09-02 01:42:42 | 46.09388 | 14.58254 | 79° | 66km/h | 7406m | -3.5m/s | -24.1°C | 14.6% | 0hPa | 2.6V | 07:36:00 | 00:00:00 | 00:00:00 | |
| 9A1FER-10 | 2026-09-02 01:42:41 | 46.09384 | 14.58228 | 77° | 60km/h | 7409m | -3.7m/s | -24.2°C | 15.0% | 0hPa | 2.6V | 07:36:00 | 03:18:11 | 00:00:00 | |
| IV3AMH | 2026-09-02 01:42:33 | 46.09354 | 14.58074 | 78° | 55km/h | 7435m | -3.7m/s | -24.5°C | 15.0% | 0hPa | 2.6V | 00:00:00 | 00:00:00 | 00:00:00 | |
| 9A1FER-3 | 2026-09-02 01:42:30 | 46.09347 | 14.57995 | 88° | 69km/h | 7449m | -3.7m/s | -24.6°C | 17.9% | 0hPa | 2.6V | 00:00:00 | 03:18:00 | 00:00:00 | |
| 9A1FER-10 | 2026-09-02 01:42:26 | 46.09348 | 14.57909 | 93° | 73km/h | 7464m | -3.5m/s | -24.7°C | 19.8% | 0hPa | 2.5V | 00:00:00 | 03:17:56 | 00:00:00 | |
| OE8JPQ-2 | 2026-09-02 01:42:17 | 46.09340 | 14.57672 | 81° | 66km/h | 7497m | -3.8m/s | -25.0°C | 20.3% | 0hPa | 2.6V | 00:00:00 | 03:17:47 | 00:00:00 | |
| 9A1FER-3 | 2026-09-02 01:42:15 | 46.09333 | 14.57618 | 78° | 64km/h | 7505m | -4.0m/s | -25.1°C | 20.5% | 0hPa | 2.6V | 00:00:00 | 03:17:45 | 00:00:00 | |
| 9A1FER-10 | 2026-09-02 01:42:11 | 46.09314 | 14.57517 | 74° | 64km/h | 7520m | -3.9m/s | -25.2°C | 21.6% | 0hPa | 2.6V | 00:00:00 | 03:17:41 | 00:00:00 | |
| 9A1FER-3 | 2026-09-02 01:42:00 | 46.09292 | 14.57277 | 93° | 64km/h | 7561m | -4.0m/s | -25.5°C | 24.2% | 0hPa | 2.6V | 07:37:00 | 03:17:30 | 00:00:00 | |
| OE8JPQ-2 | 2026-09-02 01:41:57 | 46.09294 | 14.57200 | 91° | 71km/h | 7573m | -3.9m/s | -25.6°C | 23.8% | 0hPa | 2.6V | 00:00:00 | 00:00:00 | 00:00:00 | |
| 9A1FER-10 | 2026-09-02 01:41:56 | 46.09294 | 14.57173 | 90° | 77km/h | 7576m | -3.9m/s | -25.7°C | 23.8% | 0hPa | 2.6V | 00:00:00 | 03:17:26 | 00:00:00 | |
| OE8JPQ-2 | 2026-09-02 01:41:37 | 46.09255 | 14.56687 | 93° | 77km/h | 7647m | -3.9m/s | -26.1°C | 17.5% | 0hPa | 2.6V | 00:00:00 | 00:00:00 | 00:00:00 | |
| 9A1FER-3 | 2026-09-02 01:41:36 | 46.09255 | 14.56659 | 92° | 77km/h | 7651m | -3.7m/s | -26.1°C | 17.4% | 0hPa | 2.6V | 00:00:00 | 03:17:06 | 00:00:00 | |
| 9A1FER-3 | 2026-09-02 01:41:20 | 46.09208 | 14.56205 | 77° | 71km/h | 7711m | -3.6m/s | -26.4°C | 13.3% | 0hPa | 2.5V | 00:00:00 | 03:16:50 | 00:00:00 | |
| OE8JPQ-2 | 2026-09-02 01:41:17 | 46.09199 | 14.56136 | 83° | 73km/h | 7722m | -3.7m/s | -26.5°C | 13.3% | 0hPa | 2.5V | 00:00:00 | 03:16:47 | 00:00:00 | |
| 9A1FER-10 | 2026-09-02 01:41:05 | 46.09186 | 14.55807 | 79° | 68km/h | 7765m | -3.7m/s | -26.8°C | 14.3% | 0hPa | 2.5V | 00:00:00 | 03:16:35 | 00:00:00 | |
| IV3AMH | 2026-09-02 01:40:58 | 46.09158 | 14.55651 | 77° | 66km/h | 7787m | -3.7m/s | -27.1°C | 13.2% | 0hPa | 2.5V | 00:00:00 | 00:00:00 | 00:00:00 | |
| OE8JPQ-2 | 2026-09-02 01:40:57 | 46.09151 | 14.55606 | 80° | 73km/h | 7794m | -3.4m/s | -27.1°C | 14.7% | 0hPa | 2.5V | 00:00:00 | 00:00:00 | 00:00:00 | |
| 9A1FER-10 | 2026-09-02 01:40:50 | 46.09145 | 14.55447 | 92° | 77km/h | 7820m | -3.7m/s | -27.3°C | 15.1% | 0hPa | 2.5V | 00:00:00 | 03:16:20 | 00:00:00 | |
| OE8JPQ-2 | 2026-09-02 01:40:37 | 46.09117 | 14.55080 | 76° | 73km/h | 7867m | -3.5m/s | -27.7°C | 15.6% | 0hPa | 2.5V | 00:00:00 | 00:00:00 | 00:00:00 | |
| 9A1FER-10 | 2026-09-02 01:40:35 | 46.09110 | 14.55034 | 80° | 64km/h | 7874m | -3.5m/s | -27.8°C | 15.7% | 0hPa | 2.5V | 07:38:00 | 03:16:05 | 00:00:00 | |
| IV3AMH | 2026-09-02 01:40:19 | 46.09106 | 14.54642 | 83° | 84km/h | 7929m | -3.8m/s | -28.3°C | 14.0% | 0hPa | 2.5V | 00:00:00 | 00:00:00 | 00:00:00 | |
| OE8JPQ-2 | 2026-09-02 01:40:17 | 46.09095 | 14.54555 | 77° | 75km/h | 7940m | -3.7m/s | -28.3°C | 15.3% | 0hPa | 2.5V | 00:00:00 | 03:15:47 | 00:00:00 | |
| 9A1FER-3 | 2026-09-02 01:40:10 | 46.09079 | 14.54386 | 93° | 78km/h | 7965m | -3.7m/s | -28.5°C | 14.3% | 0hPa | 2.5V | 00:00:00 | 03:15:40 | 00:00:00 | |
| 9A1FER-10 | 2026-09-02 01:40:08 | 46.09081 | 14.54337 | 95° | 78km/h | 7973m | -3.8m/s | -28.5°C | 14.6% | 0hPa | 2.5V | 00:00:00 | 03:15:38 | 00:00:00 | |
| OE8JPQ-2 | 2026-09-02 01:39:57 | 46.09079 | 14.54015 | 80° | 73km/h | 8013m | -3.7m/s | -28.8°C | 16.3% | 0hPa | 2.5V | 07:39:00 | 00:00:00 | 00:00:00 | |
| 9A1FER-3 | 2026-09-02 01:39:55 | 46.09071 | 14.53960 | 78° | 69km/h | 8021m | -3.7m/s | -28.9°C | 16.8% | 0hPa | 2.6V | 00:00:00 | 03:15:25 | 00:00:00 | |
| 9A1FER-10 | 2026-09-02 01:39:53 | 46.09064 | 14.53908 | 79° | 71km/h | 8028m | -3.6m/s | -29.0°C | 17.1% | 0hPa | 2.5V | 00:00:00 | 03:15:23 | 00:00:00 | |
| OM5KV | 2026-09-02 01:39:43 | 46.09058 | 14.53693 | 97° | 71km/h | 8062m | -3.7m/s | -29.3°C | 14.1% | 0hPa | 2.6V | 00:00:00 | 00:00:00 | 00:00:00 | |
| IV3AMH | 2026-09-02 01:39:42 | 46.09060 | 14.53667 | 97° | 75km/h | 8065m | -3.8m/s | -29.3°C | 14.0% | 0hPa | 2.6V | 07:39:00 | 00:00:00 | 00:00:00 | |
| 9A1FER-3 | 2026-09-02 01:39:40 | 46.09064 | 14.53580 | 92° | 75km/h | 8076m | -3.5m/s | -29.3°C | 15.6% | 0hPa | 2.6V | 00:00:00 | 03:15:10 | 00:00:00 | |
| 9A1FER-10 | 2026-09-02 01:39:38 | 46.09064 | 14.53519 | 88° | 80km/h | 8083m | -3.6m/s | -29.4°C | 15.4% | 0hPa | 2.6V | 00:00:00 | 03:15:08 | 00:00:00 | |
| OE8JPQ-2 | 2026-09-02 01:39:37 | 46.09063 | 14.53488 | 87° | 71km/h | 8087m | -3.7m/s | -29.4°C | 15.3% | 0hPa | 2.6V | 00:00:00 | 00:00:00 | 00:00:00 | |
| OM5KV | 2026-09-02 01:39:27 | 46.09036 | 14.53242 | 83° | 64km/h | 8120m | -3.9m/s | -29.7°C | 12.9% | 0hPa | 2.6V | 00:00:00 | 00:00:00 | 00:00:00 | |
| 9A1FER-3 | 2026-09-02 01:39:25 | 46.09032 | 14.53175 | 89° | 73km/h | 8131m | -3.6m/s | -29.7°C | 11.7% | 0hPa | 2.6V | 00:00:00 | 03:14:55 | 00:00:00 | |
| OE8JPQ-2 | 2026-09-02 01:39:17 | 46.09045 | 14.52978 | 96° | 71km/h | 8161m | -3.6m/s | -29.9°C | 9.0% | 0hPa | 2.6V | 00:00:00 | 03:14:47 | 00:00:00 | |
| 9A1FER-3 | 2026-09-02 01:39:10 | 46.09042 | 14.52770 | 82° | 68km/h | 8187m | -3.8m/s | -30.1°C | 9.6% | 0hPa | 2.6V | 00:00:00 | 03:14:40 | 00:00:00 | |
| IV3AMH | 2026-09-02 01:39:05 | 46.09029 | 14.52664 | 80° | 68km/h | 8202m | -3.9m/s | -30.3°C | 8.5% | 0hPa | 2.6V | 00:00:00 | 00:00:00 | 00:00:00 | |
| OE8JPQ-2 | 2026-09-02 01:38:57 | 46.09028 | 14.52460 | 98° | 71km/h | 8236m | -3.6m/s | -30.5°C | 10.0% | 0hPa | 2.6V | 00:00:00 | 00:00:00 | 00:00:00 | |
| 9A1FER-3 | 2026-09-02 01:38:55 | 46.09032 | 14.52407 | 96° | 75km/h | 8243m | -3.6m/s | -30.5°C | 10.0% | 0hPa | 2.5V | 07:40:00 | 03:14:25 | 00:00:00 | |
| 9A1FER-3 | 2026-09-02 01:38:40 | 46.09005 | 14.52010 | 87° | 71km/h | 8300m | -3.7m/s | -31.1°C | 9.8% | 0hPa | 2.5V | 00:00:00 | 03:14:10 | 00:00:00 | |
| OE8JPQ-2 | 2026-09-02 01:38:37 | 46.09006 | 14.51945 | 96° | 71km/h | 8311m | -3.4m/s | -31.2°C | 10.0% | 0hPa | 2.5V | 00:00:00 | 00:00:00 | 00:00:00 | |
| IV3AMH | 2026-09-02 01:38:28 | 46.09018 | 14.51730 | 89° | 82km/h | 8342m | -3.9m/s | -31.5°C | 9.9% | 0hPa | 2.5V | 00:00:00 | 00:00:00 | 00:00:00 | |
| 9A1FER-3 | 2026-09-02 01:38:25 | 46.09009 | 14.51615 | 79° | 64km/h | 8357m | -3.8m/s | -31.5°C | 12.4% | 0hPa | 2.5V | 00:00:00 | 03:13:55 | 00:00:00 | |
| 9A1FER-10 | 2026-09-02 01:38:21 | 46.08994 | 14.51518 | 80° | 60km/h | 8373m | -3.8m/s | -31.6°C | 12.4% | 0hPa | 2.6V | 00:00:00 | 03:13:51 | 00:00:00 | |
| OE8JPQ-2 | 2026-09-02 01:38:17 | 46.08990 | 14.51434 | 93° | 68km/h | 8388m | -3.7m/s | -31.7°C | 12.2% | 0hPa | 2.6V | 00:00:00 | 03:13:47 | 00:00:00 | |
| 9A1FER-3 | 2026-09-02 01:38:10 | 46.09003 | 14.51267 | 95° | 68km/h | 8415m | -3.8m/s | -31.9°C | 12.1% | 0hPa | 2.6V | 00:00:00 | 03:13:40 | 00:00:00 | |
| 9A1FER-10 | 2026-09-02 01:38:06 | 46.09001 | 14.51153 | 83° | 75km/h | 8430m | -3.8m/s | -32.0°C | 12.4% | 0hPa | 2.6V | 00:00:00 | 03:13:36 | 00:00:00 | |
| OE8JPQ-2 | 2026-09-02 01:37:57 | 46.08975 | 14.50943 | 88° | 68km/h | 8465m | -3.8m/s | -32.3°C | 12.2% | 0hPa | 2.5V | 00:00:00 | 00:00:00 | 00:00:00 | |
| 9A1FER-3 | 2026-09-02 01:37:55 | 46.08975 | 14.50902 | 95° | 71km/h | 8472m | -3.6m/s | -32.4°C | 12.1% | 0hPa | 2.5V | 00:00:00 | 03:13:25 | 00:00:00 | |
| IV3AMH | 2026-09-02 01:37:51 | 46.08981 | 14.50834 | 99° | 68km/h | 8484m | -4.0m/s | -32.5°C | 10.4% | 0hPa | 2.5V | 00:00:00 | 00:00:00 | 00:00:00 | |
| 9A1FER-3 | 2026-09-02 01:37:40 | 46.08966 | 14.50522 | 80° | 66km/h | 8530m | -4.0m/s | -32.8°C | 11.9% | 0hPa | 2.5V | 00:00:00 | 03:13:10 | 00:00:00 | |
| OE8JPQ-2 | 2026-09-02 01:37:37 | 46.08960 | 14.50462 | 88° | 68km/h | 8541m | -3.9m/s | -32.9°C | 11.8% | 0hPa | 2.5V | 00:00:00 | 00:00:00 | 00:00:00 | |
| OE8JPQ-2 | 2026-09-02 01:37:17 | 46.08955 | 14.49969 | 80° | 68km/h | 8620m | -3.7m/s | -33.4°C | 11.6% | 0hPa | 2.5V | 07:41:00 | 03:12:47 | 00:00:00 | |
| IV3AMH | 2026-09-02 01:37:14 | 46.08951 | 14.49929 | 86° | 55km/h | 8628m | -4.1m/s | -33.5°C | 9.8% | 0hPa | 2.5V | 07:42:00 | 00:00:00 | 00:00:00 | |
| OE8JPQ-2 | 2026-09-02 01:36:57 | 46.08957 | 14.49479 | 80° | 71km/h | 8702m | -3.8m/s | -33.8°C | 11.7% | 0hPa | 2.5V | 00:00:00 | 00:00:00 | 00:00:00 | |
| 9A1FER-3 | 2026-09-02 01:36:50 | 46.08951 | 14.49323 | 97° | 77km/h | 8729m | -4.0m/s | -33.8°C | 10.4% | 0hPa | 2.5V | 00:00:00 | 03:12:20 | 00:00:00 | |
| OE8JPQ-2 | 2026-09-02 01:36:37 | 46.08956 | 14.48960 | 83° | 71km/h | 8782m | -4.1m/s | -33.8°C | 8.3% | 0hPa | 2.5V | 00:00:00 | 00:00:00 | 00:00:00 | |
| 9A1FER-3 | 2026-09-02 01:36:35 | 46.08949 | 14.48902 | 79° | 68km/h | 8790m | -4.3m/s | -33.7°C | 7.8% | 0hPa | 2.5V | 00:00:00 | 03:12:05 | 00:00:00 | |
| 9A1FER-3 | 2026-09-02 01:36:20 | 46.08918 | 14.48541 | 85° | 77km/h | 8850m | -3.8m/s | -33.7°C | 6.8% | 0hPa | 2.5V | 07:42:00 | 03:11:50 | 00:00:00 | |
| OE8JPQ-2 | 2026-09-02 01:36:17 | 46.08909 | 14.48453 | 80° | 69km/h | 8862m | -4.2m/s | -33.8°C | 6.8% | 0hPa | 2.5V | 00:00:00 | 03:11:47 | 00:00:00 | |
| 9A1FER-10 | 2026-09-02 01:36:05 | 46.08843 | 14.48145 | 73° | 66km/h | 8911m | -3.9m/s | -34.0°C | 6.7% | 0hPa | 2.5V | 00:00:00 | 03:11:35 | 00:00:00 | |
| OE8JPQ-2 | 2026-09-02 01:35:57 | 46.08829 | 14.47974 | 91° | 69km/h | 8943m | -4.1m/s | -34.0°C | 6.5% | 0hPa | 2.5V | 00:00:00 | 00:00:00 | 00:00:00 | |
| 9A1FER-3 | 2026-09-02 01:35:50 | 46.08820 | 14.47781 | 80° | 66km/h | 8973m | -3.8m/s | -34.0°C | 7.4% | 0hPa | 2.5V | 00:00:00 | 03:11:20 | 00:00:00 | |
| PG1ADW-2 | 2026-09-02 01:35:39 | 46.08777 | 14.47527 | 89° | 69km/h | 9017m | -4.3m/s | -34.1°C | 7.7% | 0hPa | 2.5V | 00:00:00 | 00:00:00 | 00:00:00 | |
| OE8JPQ-2 | 2026-09-02 01:35:37 | 46.08778 | 14.47483 | 93° | 69km/h | 9025m | -3.9m/s | -34.2°C | 7.6% | 0hPa | 2.5V | 00:00:00 | 00:00:00 | 00:00:00 | |
| 9A1FER-3 | 2026-09-02 01:35:35 | 46.08780 | 14.47435 | 95° | 71km/h | 9034m | -3.9m/s | -34.3°C | 7.5% | 0hPa | 2.5V | 00:00:00 | 03:11:05 | 00:00:00 | |
| 9A1FER-3 | 2026-09-02 01:35:20 | 46.08754 | 14.47054 | 91° | 75km/h | 9093m | -3.8m/s | -34.7°C | 8.8% | 0hPa | 2.5V | 00:00:00 | 03:10:50 | 00:00:00 | |
| PG1ADW-2 | 2026-09-02 01:35:19 | 46.08754 | 14.47032 | 94° | 71km/h | 9097m | -4.0m/s | -34.8°C | 9.0% | 0hPa | 2.5V | 07:43:00 | 00:00:00 | 00:00:00 | |
| OE8JPQ-2 | 2026-09-02 01:35:17 | 46.08757 | 14.46987 | 96° | 73km/h | 9105m | -4.1m/s | -34.9°C | 9.8% | 0hPa | 2.5V | 00:00:00 | 03:10:47 | 00:00:00 | |
| 9A1FER-3 | 2026-09-02 01:35:05 | 46.08755 | 14.46648 | 79° | 68km/h | 9155m | -3.7m/s | -35.2°C | 20.6% | 0hPa | 2.5V | 00:00:00 | 03:10:35 | 00:00:00 | |
| PG1ADW-2 | 2026-09-02 01:34:59 | 46.08742 | 14.46507 | 92° | 80km/h | 9178m | -3.7m/s | -35.5°C | 26.6% | 0hPa | 2.5V | 00:00:00 | 00:00:00 | 00:00:00 | |
| OE8JPQ-2 | 2026-09-02 01:34:57 | 46.08744 | 14.46462 | 97° | 78km/h | 9185m | -3.9m/s | -35.5°C | 33.1% | 0hPa | 2.5V | 00:00:00 | 00:00:00 | 00:00:00 | |
| IV3AMH | 2026-09-02 01:34:53 | 46.08751 | 14.46389 | 100° | 71km/h | 9198m | -4.2m/s | -35.6°C | 34.7% | 0hPa | 2.4V | 07:44:00 | 00:00:00 | 00:00:00 | |
| 9A1FER-3 | 2026-09-02 01:34:50 | 46.08762 | 14.46281 | 99° | 82km/h | 9214m | -4.2m/s | -35.7°C | 39.1% | 0hPa | 2.4V | 00:00:00 | 03:10:20 | 00:00:00 | |
| OE8JPQ-2 | 2026-09-02 01:34:37 | 46.08762 | 14.45890 | 87° | 82km/h | 9266m | -3.6m/s | -36.1°C | 38.7% | 0hPa | 2.5V | 07:44:00 | 00:00:00 | 00:00:00 | |
| 9A1FER-3 | 2026-09-02 01:34:35 | 46.08761 | 14.45842 | 93° | 84km/h | 9273m | -3.8m/s | -36.1°C | 40.4% | 0hPa | 2.5V | 00:00:00 | 03:10:05 | 00:00:00 | |
| IV3AMH | 2026-09-02 01:34:33 | 46.08763 | 14.45818 | 97° | 68km/h | 9277m | -4.3m/s | -36.1°C | 37.2% | 0hPa | 2.5V | 07:44:00 | 00:00:00 | 00:00:00 | |
| 9A1FER-3 | 2026-09-02 01:34:20 | 46.08782 | 14.45384 | 84° | 78km/h | 9334m | -4.0m/s | -36.4°C | 40.1% | 0hPa | 2.5V | 07:44:00 | 03:09:50 | 00:00:00 | |
| OE8JPQ-2 | 2026-09-02 01:34:17 | 46.08773 | 14.45293 | 82° | 82km/h | 9346m | -4.0m/s | -36.5°C | 35.3% | 0hPa | 2.5V | 00:00:00 | 03:09:47 | 00:00:00 | |
| OE8JPQ-2 | 2026-09-02 01:33:57 | 46.08768 | 14.44692 | 80° | 82km/h | 9426m | -4.2m/s | -37.0°C | 21.1% | 0hPa | 2.5V | 00:00:00 | 00:00:00 | 00:00:00 | |
| IV3AMH | 2026-09-02 01:33:56 | 46.08768 | 14.44692 | 80° | 82km/h | 9426m | -4.2m/s | -37.1°C | 18.3% | 0hPa | 2.5V | 00:00:00 | 00:00:00 | 00:00:00 | |
| 9A1FER-3 | 2026-09-02 01:33:50 | 46.08755 | 14.44509 | 95° | 89km/h | 9454m | -3.4m/s | -37.3°C | 20.8% | 0hPa | 2.5V | 00:00:00 | 03:09:20 | 00:00:00 | |
| 9A1FER-10 | 2026-09-02 01:33:46 | 46.08764 | 14.44393 | 96° | 91km/h | 9469m | -3.9m/s | -37.4°C | 21.2% | 0hPa | 2.5V | 00:00:00 | 03:09:16 | 00:00:00 | |
| OE8JPQ-2 | 2026-09-02 01:33:37 | 46.08763 | 14.44089 | 84° | 84km/h | 9506m | -4.1m/s | -37.7°C | 23.3% | 0hPa | 2.5V | 00:00:00 | 00:00:00 | 00:00:00 | |
| OE5DRO-10 | 2026-09-02 01:33:35 | 46.08756 | 14.44021 | 81° | 84km/h | 9514m | -4.1m/s | -37.8°C | 25.5% | 0hPa | 2.5V | 00:00:00 | 00:00:00 | 00:00:00 | |
| 9A1FER-10 | 2026-09-02 01:33:31 | 46.08739 | 14.43900 | 78° | 82km/h | 9530m | -3.9m/s | -37.9°C | 31.6% | 0hPa | 2.5V | 00:00:00 | 03:09:01 | 00:00:00 | |
| IV3AMH | 2026-09-02 01:33:19 | 46.08734 | 14.43587 | 91° | 93km/h | 9573m | -3.9m/s | -38.2°C | 26.3% | 0hPa | 2.5V | 00:00:00 | 00:00:00 | 00:00:00 | |
| OE8JPQ-2 | 2026-09-02 01:33:17 | 46.08730 | 14.43482 | 84° | 86km/h | 9585m | -4.2m/s | -38.3°C | 29.4% | 0hPa | 2.5V | 00:00:00 | 03:08:47 | 00:00:00 | |
| OE5DRO-10 | 2026-09-02 01:33:16 | 46.08727 | 14.43448 | 82° | 84km/h | 9589m | -4.2m/s | -38.3°C | 29.2% | 0hPa | 2.5V | 00:00:00 | 00:00:00 | 00:00:00 | |
| 9A1FER-10 | 2026-09-02 01:33:01 | 46.08681 | 14.43006 | 92° | 93km/h | 9649m | -3.9m/s | -38.8°C | 35.9% | 0hPa | 2.5V | 00:00:00 | 03:08:31 | 00:00:00 | |
| OE8JPQ-2 | 2026-09-02 01:32:57 | 46.08680 | 14.42870 | 87° | 86km/h | 9665m | -4.0m/s | -38.9°C | 40.7% | 0hPa | 2.4V | 00:00:00 | 00:00:00 | 00:00:00 | |
| 9A1FER-3 | 2026-09-02 01:32:54 | 46.08672 | 14.42762 | 81° | 84km/h | 9677m | -4.2m/s | -39.0°C | 46.2% | 0hPa | 2.5V | 00:00:00 | 03:08:24 | 00:00:00 | |
| IV3AMH | 2026-09-02 01:32:42 | 46.08623 | 14.42434 | 88° | 75km/h | 9721m | -4.0m/s | -39.5°C | 41.4% | 0hPa | 2.5V | 00:00:00 | 00:00:00 | 00:00:00 | |
| 9A1FER-3 | 2026-09-02 01:32:39 | 46.08624 | 14.42318 | 92° | 93km/h | 9737m | -4.0m/s | -39.6°C | 47.2% | 0hPa | 2.5V | 00:00:00 | 03:08:09 | 00:00:00 | |
| OE5DRO-10 | 2026-09-02 01:32:38 | 46.08624 | 14.42286 | 91° | 88km/h | 9742m | -3.8m/s | -39.6°C | 47.9% | 0hPa | 2.5V | 00:00:00 | 00:00:00 | 00:00:00 | |
| OE8JPQ-2 | 2026-09-02 01:32:37 | 46.08624 | 14.42253 | 90° | 88km/h | 9745m | -3.7m/s | -39.7°C | 48.2% | 0hPa | 2.5V | 00:00:00 | 00:00:00 | 00:00:00 | |
| OM5KV | 2026-09-02 01:32:30 | 46.08610 | 14.42040 | 79° | 97km/h | 9769m | -4.1m/s | -40.0°C | 44.0% | 0hPa | 2.5V | 07:46:00 | 00:00:00 | 00:00:00 | |
| 9A1FER-3 | 2026-09-02 01:32:24 | 46.08569 | 14.41823 | 77° | 86km/h | 9798m | -3.8m/s | -40.2°C | 49.3% | 0hPa | 2.5V | 00:00:00 | 03:07:54 | 00:00:00 | |
| OM5KV | 2026-09-02 01:32:20 | 46.08559 | 14.41743 | 86° | 75km/h | 9809m | -3.8m/s | -40.4°C | 44.8% | 0hPa | 2.5V | 07:46:00 | 00:00:00 | 00:00:00 | |
| OE5DRO-10 | 2026-09-02 01:32:19 | 46.08558 | 14.41688 | 90° | 93km/h | 9817m | -4.0m/s | -40.4°C | 50.9% | 0hPa | 2.5V | 00:00:00 | 00:00:00 | 00:00:00 | |
| OE8JPQ-2 | 2026-09-02 01:32:17 | 46.08558 | 14.41627 | 91° | 91km/h | 9825m | -3.7m/s | -40.5°C | 51.9% | 0hPa | 2.5V | 00:00:00 | 03:07:47 | 00:00:00 | |
| 9A1FER-3 | 2026-09-02 01:32:09 | 46.08542 | 14.41349 | 81° | 86km/h | 9857m | -4.0m/s | -40.8°C | 53.7% | 0hPa | 2.5V | 00:00:00 | 03:07:39 | 00:00:00 | |
| PG1ADW-2 | 2026-09-02 01:32:05 | 46.08520 | 14.41210 | 75° | 89km/h | 9873m | -3.9m/s | -40.9°C | 54.0% | 0hPa | 2.5V | 00:00:00 | 03:07:35 | 00:00:00 | |
| IV3AMH | 2026-09-02 01:32:03 | 46.08514 | 14.41178 | 74° | 91km/h | 9877m | -4.1m/s | -41.0°C | 48.4% | 0hPa | 2.5V | 07:47:00 | 00:00:00 | 00:00:00 | |
| 9A1FER-10 | 2026-09-02 01:32:01 | 46.08494 | 14.41088 | 73° | 93km/h | 9889m | -3.9m/s | -41.0°C | 54.6% | 0hPa | 2.5V | 00:00:00 | 03:07:31 | 00:00:00 | |
| OE5DRO-10 | 2026-09-02 01:32:00 | 46.08488 | 14.41061 | 75° | 88km/h | 9893m | -4.1m/s | -41.1°C | 54.7% | 0hPa | 2.5V | 07:47:00 | 00:00:00 | 00:00:00 | |
| OE8JPQ-2 | 2026-09-02 01:31:57 | 46.08477 | 14.40982 | 83° | 88km/h | 9905m | -4.0m/s | -41.2°C | 55.1% | 0hPa | 2.5V | 07:47:00 | 00:00:00 | 00:00:00 | |
| 9A1FER-3 | 2026-09-02 01:31:54 | 46.08472 | 14.40899 | 89° | 91km/h | 9917m | -4.0m/s | -41.3°C | 56.7% | 0hPa | 2.4V | 07:47:00 | 03:07:24 | 00:00:00 | |
| OM5KV | 2026-09-02 01:31:50 | 46.08471 | 14.40807 | 90° | 91km/h | 9929m | -4.3m/s | -41.5°C | 53.4% | 0hPa | 2.4V | 00:00:00 | 00:00:00 | 00:00:00 | |
| OE5DRO-10 | 2026-09-02 01:31:41 | 46.08429 | 14.40464 | 72° | 88km/h | 9970m | -4.0m/s | -41.7°C | 67.3% | 0hPa | 2.4V | 00:00:00 | 00:00:00 | 00:00:00 | |
| OM5KV | 2026-09-02 01:31:40 | 46.08429 | 14.40464 | 72° | 88km/h | 9970m | -4.0m/s | -41.8°C | 60.5% | 0hPa | 2.4V | 00:00:00 | 00:00:00 | 00:00:00 | |
| 9A1FER-3 | 2026-09-02 01:31:39 | 46.08415 | 14.40406 | 71° | 75km/h | 9979m | -3.7m/s | -41.8°C | 67.4% | 0hPa | 2.4V | 00:00:00 | 03:07:09 | 00:00:00 | |
| OE8JPQ-2 | 2026-09-02 01:31:37 | 46.08403 | 14.40353 | 75° | 88km/h | 9986m | -4.1m/s | -41.8°C | 67.9% | 0hPa | 2.4V | 00:00:00 | 00:00:00 | 00:00:00 | |
| PG1ADW-2 | 2026-09-02 01:31:34 | 46.08393 | 14.40274 | 85° | 86km/h | 9999m | -4.0m/s | -42.0°C | 69.6% | 0hPa | 2.4V | 00:00:00 | 00:00:00 | 00:00:00 | |
| IV3AMH | 2026-09-02 01:31:25 | 46.08379 | 14.40014 | 82° | 100km/h | 10031m | -4.1m/s | -42.3°C | 60.4% | 0hPa | 2.4V | 00:00:00 | 00:00:00 | 00:00:00 | |
| 9A1FER-3 | 2026-09-02 01:31:24 | 46.08369 | 14.39942 | 76° | 82km/h | 10040m | -3.9m/s | -42.3°C | 67.1% | 0hPa | 2.4V | 00:00:00 | 03:06:54 | 00:00:00 | |
| OE5DRO-10 | 2026-09-02 01:31:22 | 46.08355 | 14.39875 | 72° | 88km/h | 10047m | -3.6m/s | -42.4°C | 66.9% | 0hPa | 2.5V | 00:00:00 | 00:00:00 | 00:00:00 | |
| OE8JPQ-2 | 2026-09-02 01:31:17 | 46.08320 | 14.39730 | 75° | 91km/h | 10067m | -4.0m/s | -42.6°C | 68.4% | 0hPa | 2.5V | 00:00:00 | 03:06:47 | 00:00:00 | |
| OM5KV | 2026-09-02 01:31:13 | 46.08310 | 14.39650 | 84° | 77km/h | 10079m | -4.2m/s | -42.8°C | 62.6% | 0hPa | 2.5V | 00:00:00 | 00:00:00 | 00:00:00 | |
| 9A1FER-3 | 2026-09-02 01:31:09 | 46.08303 | 14.39497 | 88° | 95km/h | 10100m | -4.2m/s | -42.9°C | 70.4% | 0hPa | 2.5V | 00:00:00 | 03:06:39 | 00:00:00 | |
| OM5KV | 2026-09-02 01:31:07 | 46.08302 | 14.39464 | 88° | 95km/h | 10104m | -4.4m/s | -43.0°C | 63.0% | 0hPa | 2.5V | 00:00:00 | 00:00:00 | 00:00:00 | |
| OE5DRO-10 | 2026-09-02 01:31:03 | 46.08287 | 14.39284 | 79° | 89km/h | 10126m | -4.3m/s | -43.2°C | 70.6% | 0hPa | 2.5V | 00:00:00 | 00:00:00 | 00:00:00 | |
| OM5KV | 2026-09-02 01:31:02 | 46.08287 | 14.39284 | 80° | 102km/h | 10126m | -4.3m/s | -43.2°C | 63.3% | 0hPa | 2.5V | 00:00:00 | 00:00:00 | 00:00:00 | |
| OE8JPQ-2 | 2026-09-02 01:30:57 | 46.08246 | 14.39081 | 72° | 93km/h | 10151m | -4.1m/s | -43.4°C | 74.1% | 0hPa | 2.5V | 00:00:00 | 00:00:00 | 00:00:00 | |
| 9A1FER-3 | 2026-09-02 01:30:54 | 46.08230 | 14.38997 | 78° | 78km/h | 10164m | -4.1m/s | -43.6°C | 74.7% | 0hPa | 2.5V | 00:00:00 | 03:06:24 | 00:00:00 | |
| IV3AMH | 2026-09-02 01:30:48 | 46.08219 | 14.38851 | 89° | 88km/h | 10185m | -4.4m/s | -43.8°C | 65.9% | 0hPa | 2.5V | 00:00:00 | 00:00:00 | 00:00:00 | |
| OE5DRO-10 | 2026-09-02 01:30:44 | 46.08213 | 14.38675 | 84° | 93km/h | 10206m | -4.3m/s | -43.9°C | 72.6% | 0hPa | 2.5V | 00:00:00 | 00:00:00 | 00:00:00 | |
| OM5KV | 2026-09-02 01:30:41 | 46.08205 | 14.38600 | 81° | 106km/h | 10215m | -4.4m/s | -44.0°C | 65.3% | 0hPa | 2.5V | 00:00:00 | 00:00:00 | 00:00:00 | |
| 9A1FER-3 | 2026-09-02 01:30:39 | 46.08188 | 14.38488 | 76° | 88km/h | 10228m | -4.3m/s | -44.0°C | 72.9% | 0hPa | 2.5V | 00:00:00 | 03:06:09 | 00:00:00 | |
| OE8JPQ-2 | 2026-09-02 01:30:37 | 46.08174 | 14.38418 | 73° | 91km/h | 10236m | -4.2m/s | -44.1°C | 72.9% | 0hPa | 2.4V | 00:00:00 | 00:00:00 | 00:00:00 | |
| OM5KV | 2026-09-02 01:30:28 | 46.08132 | 14.38180 | 86° | 80km/h | 10271m | -4.3m/s | -44.5°C | 65.8% | 0hPa | 2.4V | 00:00:00 | 00:00:00 | 00:00:00 | |
| OE5DRO-10 | 2026-09-02 01:30:25 | 46.08129 | 14.38053 | 90° | 95km/h | 10288m | -4.4m/s | -44.5°C | 72.3% | 0hPa | 2.4V | 00:00:00 | 00:00:00 | 00:00:00 | |
| 9A1FER-3 | 2026-09-02 01:30:24 | 46.08128 | 14.38019 | 89° | 99km/h | 10292m | -4.2m/s | -44.6°C | 72.2% | 0hPa | 2.4V | 00:00:00 | 03:05:54 | 00:00:00 | |
| OM5KV | 2026-09-02 01:30:21 | 46.08127 | 14.37947 | 88° | 102km/h | 10301m | -4.4m/s | -44.7°C | 64.7% | 0hPa | 2.4V | 00:00:00 | 00:00:00 | 00:00:00 | |
| OE8JPQ-2 | 2026-09-02 01:30:18 | 46.08111 | 14.37756 | 79° | 93km/h | 10323m | -4.2m/s | -44.8°C | 73.5% | 0hPa | 2.4V | 00:00:00 | 03:05:47 | 00:00:00 | |
| OE5DXL-15 | 2026-09-02 01:30:17 | 46.08105 | 14.37719 | 77° | 93km/h | 10327m | -4.1m/s | -44.9°C | 73.9% | 0hPa | 2.4V | 00:00:00 | 00:00:00 | 00:00:00 | |
| IV3AMH | 2026-09-02 01:30:11 | 46.08077 | 14.37582 | 74° | 89km/h | 10345m | -4.1m/s | -45.1°C | 66.2% | 0hPa | 2.4V | 00:00:00 | 00:00:00 | 00:00:00 | |
| 9A1FER-10 | 2026-09-02 01:30:10 | 46.08065 | 14.37523 | 76° | 88km/h | 10353m | -4.1m/s | -45.1°C | 73.5% | 0hPa | 2.4V | 07:48:00 | 03:05:40 | 00:00:00 | |
| 9A1FER-3 | 2026-09-02 01:30:09 | 46.08060 | 14.37493 | 78° | 93km/h | 10357m | -4.4m/s | -45.2°C | 73.1% | 0hPa | 2.4V | 00:00:00 | 03:05:39 | 00:00:00 | |
| OE5DRO-10 | 2026-09-02 01:30:06 | 46.08052 | 14.37407 | 86° | 97km/h | 10371m | -4.3m/s | -45.3°C | 71.8% | 0hPa | 2.4V | 00:00:00 | 00:00:00 | 00:00:00 | |
| OE8JPQ-2 | 2026-09-02 01:29:57 | 46.08038 | 14.37095 | 80° | 89km/h | 10410m | -4.1m/s | -45.6°C | 75.4% | 0hPa | 2.4V | 00:00:00 | 00:00:00 | 00:00:00 | |
| 9A1FER-3 | 2026-09-02 01:29:54 | 46.08020 | 14.36984 | 75° | 88km/h | 10422m | -4.3m/s | -45.7°C | 75.7% | 0hPa | 2.5V | 07:49:00 | 03:05:24 | 00:00:00 | |
| OE5DRO-10 | 2026-09-02 01:29:47 | 46.07969 | 14.36757 | 73° | 91km/h | 10454m | -4.5m/s | -46.0°C | 75.3% | 0hPa | 2.4V | 00:00:00 | 00:00:00 | 00:00:00 | |
| OE5DXL-15 | 2026-09-02 01:29:45 | 46.07958 | 14.36700 | 77° | 84km/h | 10463m | -4.4m/s | -46.1°C | 75.2% | 0hPa | 2.5V | 00:00:00 | 00:00:00 | 00:00:00 | |
| 9A1FER-3 | 2026-09-02 01:29:39 | 46.07946 | 14.36527 | 90° | 93km/h | 10489m | -4.5m/s | -46.3°C | 73.2% | 0hPa | 2.5V | 00:00:00 | 03:05:09 | 00:00:00 | |
| OE8JPQ-2 | 2026-09-02 01:29:37 | 46.07945 | 14.36460 | 89° | 89km/h | 10498m | -4.2m/s | -46.4°C | 72.4% | 0hPa | 2.5V | 00:00:00 | 00:00:00 | 00:00:00 | |
| IV3AMH | 2026-09-02 01:29:33 | 46.07940 | 14.36350 | 84° | 104km/h | 10511m | -4.3m/s | -46.5°C | 64.2% | 0hPa | 2.5V | 07:50:00 | 00:00:00 | 00:00:00 | |
| OM5KV | 2026-09-02 01:29:32 | 46.07936 | 14.36312 | 81° | 104km/h | 10515m | -4.2m/s | -46.5°C | 64.2% | 0hPa | 2.5V | 00:00:00 | 00:00:00 | 00:00:00 | |
| OE5DRO-10 | 2026-09-02 01:29:28 | 46.07906 | 14.36142 | 74° | 89km/h | 10536m | -4.0m/s | -46.7°C | 72.7% | 0hPa | 2.5V | 07:49:00 | 00:00:00 | 00:00:00 | |
| 9A1FER-3 | 2026-09-02 01:29:24 | 46.07888 | 14.36030 | 82° | 88km/h | 10553m | -4.4m/s | -46.8°C | 70.5% | 0hPa | 2.5V | 00:00:00 | 03:04:54 | 00:00:00 | |
| OE8JPQ-2 | 2026-09-02 01:29:17 | 46.07884 | 14.35822 | 92° | 89km/h | 10585m | -4.7m/s | -47.0°C | 66.7% | 0hPa | 2.5V | 07:49:00 | 03:04:47 | 00:00:00 | |
| OE5DXL-15 | 2026-09-02 01:29:15 | 46.07884 | 14.35752 | 89° | 89km/h | 10594m | -4.6m/s | -47.0°C | 65.7% | 0hPa | 2.5V | 07:49:00 | 00:00:00 | 00:00:00 | |
| OE5DRO-10 | 2026-09-02 01:29:09 | 46.07862 | 14.35533 | 76° | 88km/h | 10620m | -4.2m/s | -47.2°C | 63.8% | 0hPa | 2.5V | 00:00:00 | 00:00:00 | 00:00:00 | |
| OE8JPQ-2 | 2026-09-02 01:28:57 | 46.07827 | 14.35182 | 93° | 93km/h | 10675m | -4.4m/s | -47.7°C | 65.5% | 0hPa | 2.5V | 00:00:00 | 00:00:00 | 00:00:00 | |
| IV3AMH | 2026-09-02 01:28:56 | 46.07827 | 14.35182 | 93° | 88km/h | 10675m | -4.4m/s | -47.7°C | 57.5% | 0hPa | 2.5V | 07:50:00 | 00:00:00 | 00:00:00 | |
| OE5DRO-10 | 2026-09-02 01:28:50 | 46.07819 | 14.34928 | 81° | 93km/h | 10706m | -4.6m/s | -47.8°C | 63.3% | 0hPa | 2.5V | 00:00:00 | 00:00:00 | 00:00:00 | |
| OE5DXL-15 | 2026-09-02 01:28:43 | 46.07779 | 14.34696 | 78° | 91km/h | 10738m | -4.2m/s | -47.9°C | 62.4% | 0hPa | 2.4V | 00:00:00 | 00:00:00 | 00:00:00 | |
| 9A1FER-10 | 2026-09-02 01:28:41 | 46.07773 | 14.34639 | 85° | 99km/h | 10747m | -4.4m/s | -48.0°C | 63.2% | 0hPa | 2.4V | 00:00:00 | 03:04:11 | 00:00:00 | |
| 9A1FER-3 | 2026-09-02 01:28:40 | 46.07772 | 14.34610 | 89° | 100km/h | 10751m | -4.3m/s | -48.0°C | 63.2% | 0hPa | 2.4V | 00:00:00 | 03:04:10 | 00:00:00 | |
| PG1ADW-2 | 2026-09-02 01:28:39 | 46.07771 | 14.34581 | 91° | 99km/h | 10756m | -4.3m/s | -48.0°C | 63.4% | 0hPa | 2.4V | 00:00:00 | 00:00:00 | 00:00:00 | |
| OE8JPQ-2 | 2026-09-02 01:28:37 | 46.07772 | 14.34517 | 92° | 99km/h | 10765m | -4.4m/s | -48.1°C | 63.3% | 0hPa | 2.4V | 00:00:00 | 00:00:00 | 00:00:00 | |
| OE3JTB-15 | 2026-09-02 01:28:31 | 46.07767 | 14.34296 | 85° | 95km/h | 10792m | -4.5m/s | -48.3°C | 58.2% | 0hPa | 2.4V | 00:00:00 | 03:04:01 | 00:00:00 | |
| 9A1FER-10 | 2026-09-02 01:28:26 | 46.07745 | 14.34104 | 77° | 91km/h | 10815m | -4.6m/s | -48.4°C | 51.0% | 0hPa | 2.4V | 00:00:00 | 03:03:56 | 00:00:00 | |
| 9A1FER-3 | 2026-09-02 01:28:25 | 46.07738 | 14.34067 | 76° | 91km/h | 10819m | -4.4m/s | -48.5°C | 49.3% | 0hPa | 2.4V | 00:00:00 | 03:03:55 | 00:00:00 | |
| PG1ADW-2 | 2026-09-02 01:28:19 | 46.07697 | 14.33869 | 75° | 64km/h | 10847m | -4.6m/s | -48.6°C | 40.5% | 0hPa | 2.4V | 00:00:00 | 00:00:00 | 00:00:00 | |
| IV3AMH | 2026-09-02 01:28:18 | 46.07697 | 14.33869 | 76° | 84km/h | 10847m | -4.7m/s | -48.6°C | 34.5% | 0hPa | 2.4V | 00:00:00 | 00:00:00 | 00:00:00 | |
| OE8JPQ-2 | 2026-09-02 01:28:17 | 46.07688 | 14.33811 | 81° | 97km/h | 10856m | -4.6m/s | -48.7°C | 38.2% | 0hPa | 2.4V | 00:00:00 | 03:03:47 | 00:00:00 | |
| OE5DXL-15 | 2026-09-02 01:28:13 | 46.07681 | 14.33691 | 89° | 97km/h | 10874m | -4.5m/s | -48.8°C | 35.9% | 0hPa | 2.4V | 00:00:00 | 00:00:00 | 00:00:00 | |
| OE5DRO-10 | 2026-09-02 01:28:12 | 46.07680 | 14.33657 | 89° | 97km/h | 10878m | -4.3m/s | -48.8°C | 35.9% | 0hPa | 2.4V | 00:00:00 | 00:00:00 | 00:00:00 | |
| 9A1FER-10 | 2026-09-02 01:28:11 | 46.07680 | 14.33622 | 88° | 99km/h | 10883m | -4.1m/s | -48.9°C | 36.0% | 0hPa | 2.4V | 00:00:00 | 03:03:41 | 00:00:00 | |
| 9A1FER-3 | 2026-09-02 01:28:10 | 46.07679 | 14.33585 | 87° | 99km/h | 10887m | -4.2m/s | -48.9°C | 36.1% | 0hPa | 2.4V | 00:00:00 | 03:03:40 | 00:00:00 | |
| OE3JTB-15 | 2026-09-02 01:28:00 | 46.07621 | 14.33219 | 71° | 91km/h | 10932m | -4.6m/s | -49.3°C | 37.0% | 0hPa | 2.4V | 00:00:00 | 00:00:00 | 00:00:00 | |
| OE8JPQ-2 | 2026-09-02 01:27:57 | 46.07601 | 14.33129 | 75° | 95km/h | 10945m | -4.5m/s | -49.4°C | 37.2% | 0hPa | 2.4V | 00:00:00 | 00:00:00 | 00:00:00 | |
| 9A1FER-10 | 2026-09-02 01:27:56 | 46.07596 | 14.33100 | 77° | 95km/h | 10950m | -4.4m/s | -49.5°C | 37.3% | 0hPa | 2.4V | 00:00:00 | 03:03:26 | 00:00:00 | |
| 9A1FER-3 | 2026-09-02 01:27:55 | 46.07592 | 14.33072 | 79° | 97km/h | 10955m | -4.6m/s | -49.5°C | 37.4% | 0hPa | 2.4V | 00:00:00 | 03:03:25 | 00:00:00 | |
| OE5DRO-10 | 2026-09-02 01:27:53 | 46.07586 | 14.33014 | 85° | 95km/h | 10963m | -4.5m/s | -49.6°C | 37.4% | 0hPa | 2.5V | 00:00:00 | 00:00:00 | 00:00:00 | |
| 9A1FER-10 | 2026-09-02 01:27:41 | 46.07548 | 14.32582 | 73° | 95km/h | 11018m | -4.2m/s | -50.1°C | 35.0% | 0hPa | 2.4V | 00:00:00 | 03:03:11 | 00:00:00 | |
| 9A1FER-3 | 2026-09-02 01:27:40 | 46.07540 | 14.32548 | 71° | 91km/h | 11022m | -4.4m/s | -50.1°C | 34.9% | 0hPa | 2.4V | 00:00:00 | 03:03:10 | 00:00:00 | |
| OE5DXL-15 | 2026-09-02 01:27:39 | 46.07532 | 14.32515 | 71° | 89km/h | 11026m | -4.5m/s | -50.2°C | 34.5% | 0hPa | 2.4V | 00:00:00 | 00:00:00 | 00:00:00 | |
| OE8JPQ-2 | 2026-09-02 01:27:37 | 46.07517 | 14.32454 | 73° | 97km/h | 11036m | -4.4m/s | -50.2°C | 34.1% | 0hPa | 2.4V | 00:00:00 | 00:00:00 | 00:00:00 | |
| OE5DRO-10 | 2026-09-02 01:27:34 | 46.07503 | 14.32368 | 82° | 97km/h | 11049m | -4.5m/s | -50.4°C | 33.9% | 0hPa | 2.4V | 00:00:00 | 00:00:00 | 00:00:00 | |
| 9A1FER-3 | 2026-09-02 01:27:25 | 46.07484 | 14.32055 | 80° | 95km/h | 11090m | -4.4m/s | -50.7°C | 35.5% | 0hPa | 2.4V | 07:51:00 | 03:02:55 | 00:00:00 | |
| OE3JTB-15 | 2026-09-02 01:27:23 | 46.07472 | 14.31977 | 76° | 91km/h | 11098m | -4.5m/s | -50.8°C | 36.1% | 0hPa | 2.4V | 00:00:00 | 00:00:00 | 00:00:00 | |
| OE5DRO-10 | 2026-09-02 01:27:15 | 46.07411 | 14.31712 | 75° | 97km/h | 11135m | -4.5m/s | -51.1°C | 37.4% | 0hPa | 2.4V | 00:00:00 | 00:00:00 | 00:00:00 | |
| 9A1FER-3 | 2026-09-02 01:27:10 | 46.07396 | 14.31562 | 88° | 91km/h | 11157m | -4.4m/s | -51.4°C | 37.6% | 0hPa | 2.4V | 00:00:00 | 03:02:40 | 00:00:00 | |
| IV3AMH | 2026-09-02 01:27:04 | 46.07389 | 14.31382 | 85° | 108km/h | 11180m | -4.8m/s | -51.6°C | 31.1% | 0hPa | 2.4V | 00:00:00 | 00:00:00 | 00:00:00 | |
| OE8JPQ-2 | 2026-09-02 01:26:57 | 46.07337 | 14.31086 | 70° | 97km/h | 11216m | -4.5m/s | -51.9°C | 36.2% | 0hPa | 2.4V | 00:00:00 | 00:00:00 | 00:00:00 | |
| OE5DRO-10 | 2026-09-02 01:26:56 | 46.07329 | 14.31055 | 71° | 97km/h | 11221m | -4.6m/s | -52.0°C | 36.0% | 0hPa | 2.4V | 07:52:00 | 00:00:00 | 00:00:00 | |
| OE5DRO-10 | 2026-09-02 01:26:37 | 46.07242 | 14.30399 | 71° | 91km/h | 11305m | -4.6m/s | -52.6°C | 45.3% | 0hPa | 2.5V | 00:00:00 | 00:00:00 | 00:00:00 | |
| IV3AMH | 2026-09-02 01:26:27 | 46.07186 | 14.30132 | 84° | 82km/h | 11346m | -4.4m/s | -53.0°C | 40.6% | 0hPa | 2.5V | 00:00:00 | 00:00:00 | 00:00:00 | |
| DO3MHA-11 | 2026-09-02 01:26:24 | 46.07180 | 14.30003 | 87° | 100km/h | 11363m | -4.7m/s | -53.2°C | 49.7% | 0hPa | 2.5V | 00:00:00 | 03:01:54 | 00:00:00 | |
| OE5DRO-10 | 2026-09-02 01:26:18 | 46.07158 | 14.29779 | 77° | 93km/h | 11390m | -4.3m/s | -53.4°C | 49.8% | 0hPa | 2.5V | 00:00:00 | 00:00:00 | 00:00:00 | |
| OE8JPQ-2 | 2026-09-02 01:26:17 | 46.07151 | 14.29741 | 75° | 93km/h | 11395m | -4.6m/s | -53.4°C | 49.8% | 0hPa | 2.5V | 00:00:00 | 03:01:47 | 00:00:00 | |
| 9A1FER-10 | 2026-09-02 01:26:13 | 46.07117 | 14.29603 | 69° | 82km/h | 11412m | -4.4m/s | -53.5°C | 51.0% | 0hPa | 2.5V | 00:00:00 | 03:01:43 | 00:00:00 | |
| DG1MFX-10 | 2026-09-02 01:26:07 | 46.07084 | 14.29459 | 79° | 78km/h | 11435m | -4.6m/s | -53.8°C | 42.7% | 0hPa | 2.5V | 00:00:00 | 00:00:00 | 00:00:00 | |
| 9A1FER-3 | 2026-09-02 01:26:04 | 46.07074 | 14.29338 | 87° | 100km/h | 11453m | -4.5m/s | -53.8°C | 52.8% | 0hPa | 2.5V | 00:00:00 | 03:01:34 | 00:00:00 | |
| OE5DRO-10 | 2026-09-02 01:25:59 | 46.07063 | 14.29156 | 82° | 93km/h | 11476m | -4.6m/s | -54.0°C | 53.3% | 0hPa | 2.5V | 00:00:00 | 00:00:00 | 00:00:00 | |
| 9A1FER-10 | 2026-09-02 01:25:58 | 46.07059 | 14.29117 | 80° | 93km/h | 11481m | -4.6m/s | -54.1°C | 53.5% | 0hPa | 2.5V | 00:00:00 | 03:01:28 | 00:00:00 | |
| OE8JPQ-2 | 2026-09-02 01:25:57 | 46.07053 | 14.29078 | 78° | 93km/h | 11485m | -4.4m/s | -54.1°C | 53.4% | 0hPa | 2.4V | 00:00:00 | 00:00:00 | 00:00:00 | |
| OE5DXL-15 | 2026-09-02 01:25:55 | 46.07039 | 14.29003 | 73° | 95km/h | 11494m | -4.6m/s | -54.2°C | 53.6% | 0hPa | 2.4V | 00:00:00 | 00:00:00 | 00:00:00 | |
| 9A1FER-3 | 2026-09-02 01:25:49 | 46.06992 | 14.28813 | 75° | 95km/h | 11520m | -4.6m/s | -54.4°C | 54.3% | 0hPa | 2.5V | 00:00:00 | 03:01:19 | 00:00:00 | |
| 9A1FER-10 | 2026-09-02 01:25:43 | 46.06975 | 14.28634 | 88° | 89km/h | 11548m | -4.5m/s | -54.6°C | 55.2% | 0hPa | 2.5V | 07:53:00 | 03:01:13 | 00:00:00 | |
| OE5DRO-10 | 2026-09-02 01:25:40 | 46.06971 | 14.28529 | 86° | 95km/h | 11561m | -4.5m/s | -54.7°C | 55.5% | 0hPa | 2.5V | 00:00:00 | 00:00:00 | 00:00:00 | |
| DO3MHA-11 | 2026-09-02 01:25:39 | 46.06969 | 14.28491 | 84° | 91km/h | 11566m | -4.6m/s | -54.8°C | 55.4% | 0hPa | 2.5V | 00:00:00 | 03:01:09 | 00:00:00 | |
| OE8JPQ-2 | 2026-09-02 01:25:37 | 46.06961 | 14.28413 | 80° | 95km/h | 11575m | -4.5m/s | -54.8°C | 55.6% | 0hPa | 2.4V | 00:00:00 | 00:00:00 | 00:00:00 | |
| 9A1FER-3 | 2026-09-02 01:25:34 | 46.06941 | 14.28298 | 73° | 91km/h | 11588m | -4.4m/s | -55.0°C | 56.3% | 0hPa | 2.4V | 00:00:00 | 03:01:04 | 00:00:00 | |
| DO3MHA-11 | 2026-09-02 01:25:25 | 46.06877 | 14.28016 | 81° | 97km/h | 11628m | -4.5m/s | -55.3°C | 56.6% | 0hPa | 2.5V | 00:00:00 | 03:00:55 | 00:00:00 | |
| OE3JTB-15 | 2026-09-02 01:25:22 | 46.06871 | 14.27923 | 87° | 100km/h | 11642m | -4.1m/s | -55.5°C | 55.9% | 0hPa | 2.5V | 00:00:00 | 03:00:52 | 00:00:00 | |
| OE5DRO-10 | 2026-09-02 01:25:21 | 46.06869 | 14.27889 | 88° | 99km/h | 11646m | -4.3m/s | -55.5°C | 55.7% | 0hPa | 2.5V | 00:00:00 | 00:00:00 | 00:00:00 | |
| 9A1FER-3 | 2026-09-02 01:25:19 | 46.06866 | 14.27816 | 86° | 102km/h | 11655m | -4.7m/s | -55.6°C | 54.5% | 0hPa | 2.5V | 00:00:00 | 03:00:49 | 00:00:00 | |
| OE8JPQ-2 | 2026-09-02 01:25:17 | 46.06860 | 14.27738 | 83° | 97km/h | 11664m | -4.5m/s | -55.7°C | 54.2% | 0hPa | 2.5V | 00:00:00 | 03:00:47 | 00:00:00 | |
| DO3MHA-11 | 2026-09-02 01:25:15 | 46.06851 | 14.27658 | 78° | 100km/h | 11673m | -4.4m/s | -55.7°C | 53.9% | 0hPa | 2.5V | 00:00:00 | 03:00:45 | 00:00:00 | |
| IV3AMH | 2026-09-02 01:25:11 | 46.06828 | 14.27542 | 72° | 106km/h | 11686m | -4.2m/s | -55.8°C | 44.7% | 0hPa | 2.5V | 07:54:00 | 00:00:00 | 00:00:00 | |
| DO3MHA-11 | 2026-09-02 01:25:05 | 46.06773 | 14.27317 | 77° | 93km/h | 11717m | -4.4m/s | -56.0°C | 52.9% | 0hPa | 2.5V | 00:00:00 | 03:00:35 | 00:00:00 | |
| 9A1FER-3 | 2026-09-02 01:25:04 | 46.06769 | 14.27287 | 80° | 86km/h | 11722m | -4.4m/s | -56.1°C | 52.4% | 0hPa | 2.4V | 00:00:00 | 03:00:34 | 00:00:00 | |
| OE5DRO-10 | 2026-09-02 01:25:02 | 46.06763 | 14.27225 | 85° | 100km/h | 11731m | -4.5m/s | -56.2°C | 51.9% | 0hPa | 2.4V | 00:00:00 | 00:00:00 | 00:00:00 | |
| OE8JPQ-2 | 2026-09-02 01:24:57 | 46.06757 | 14.27051 | 88° | 99km/h | 11753m | -4.6m/s | -56.4°C | 51.6% | 0hPa | 2.5V | 00:00:00 | 00:00:00 | 00:00:00 | |
| DO3MHA-11 | 2026-09-02 01:24:55 | 46.06753 | 14.26973 | 85° | 106km/h | 11763m | -4.6m/s | -56.4°C | 52.2% | 0hPa | 2.4V | 07:54:00 | 03:00:25 | 00:00:00 | |
| OE3JTB-15 | 2026-09-02 01:24:50 | 46.06725 | 14.26773 | 73° | 99km/h | 11784m | -4.2m/s | -56.6°C | 55.9% | 0hPa | 2.4V | 00:00:00 | 00:00:00 | 00:00:00 | |
| DO3MHA-11 | 2026-09-02 01:24:45 | 46.06687 | 14.26607 | 74° | 89km/h | 11806m | -4.4m/s | -56.8°C | 57.9% | 0hPa | 2.4V | 00:00:00 | 03:00:15 | 00:00:00 | |
| OE5DRO-10 | 2026-09-02 01:24:43 | 46.06676 | 14.26547 | 78° | 100km/h | 11815m | -4.3m/s | -56.9°C | 57.6% | 0hPa | 2.4V | 00:00:00 | 00:00:00 | 00:00:00 | |
| DO3MHA-11 | 2026-09-02 01:24:35 | 46.06665 | 14.26280 | 88° | 110km/h | 11850m | -4.3m/s | -57.1°C | 59.0% | 0hPa | 2.4V | 00:00:00 | 03:00:05 | 00:00:00 | |
| IV3AMH | 2026-09-02 01:24:33 | 46.06664 | 14.26240 | 87° | 110km/h | 11854m | -4.2m/s | -57.2°C | 49.5% | 0hPa | 2.5V | 00:00:00 | 00:00:00 | 00:00:00 | |
| DO3MHA-11 | 2026-09-02 01:24:25 | 46.06612 | 14.25896 | 73° | 88km/h | 11894m | -4.4m/s | -57.5°C | 59.1% | 0hPa | 2.5V | 00:00:00 | 02:59:55 | 00:00:00 | |
| OE5DRO-10 | 2026-09-02 01:24:24 | 46.06605 | 14.25864 | 74° | 99km/h | 11898m | -4.4m/s | -57.5°C | 59.1% | 0hPa | 2.5V | 07:54:00 | 00:00:00 | 00:00:00 | |
| OE5DXL-15 | 2026-09-02 01:24:19 | 46.06586 | 14.25714 | 87° | 95km/h | 11920m | -4.2m/s | -57.7°C | 59.1% | 0hPa | 2.5V | 00:00:00 | 00:00:00 | 00:00:00 | |
| OE8JPQ-2 | 2026-09-02 01:24:17 | 46.06585 | 14.25649 | 90° | 99km/h | 11929m | -4.3m/s | -57.8°C | 59.5% | 0hPa | 2.5V | 00:00:00 | 02:59:47 | 00:00:00 | |
| DO3MHA-11 | 2026-09-02 01:24:15 | 46.06585 | 14.25579 | 90° | 110km/h | 11938m | -4.4m/s | -57.8°C | 60.2% | 0hPa | 2.5V | 00:00:00 | 02:59:45 | 00:00:00 | |
| DO3MHA-11 | 2026-09-02 01:24:05 | 46.06536 | 14.25192 | 72° | 86km/h | 11981m | -4.3m/s | -58.2°C | 59.7% | 0hPa | 2.5V | 00:00:00 | 02:59:35 | 00:00:00 | |
| 9A1FER-3 | 2026-09-02 01:23:59 | 46.06495 | 14.25006 | 78° | 99km/h | 12008m | -4.2m/s | -58.4°C | 60.8% | 0hPa | 2.4V | 00:00:00 | 02:59:29 | 00:00:00 | |
| OE8JPQ-2 | 2026-09-02 01:23:57 | 46.06488 | 14.24948 | 84° | 97km/h | 12016m | -4.3m/s | -58.4°C | 60.7% | 0hPa | 2.5V | 07:55:00 | 00:00:00 | 00:00:00 | |
| IV3AMH | 2026-09-02 01:23:56 | 46.06488 | 14.24948 | 85° | 82km/h | 12016m | -4.3m/s | -58.4°C | 50.3% | 0hPa | 2.5V | 00:00:00 | 00:00:00 | 00:00:00 | |
| DO3MHA-11 | 2026-09-02 01:23:54 | 46.06484 | 14.24853 | 89° | 93km/h | 12030m | -4.6m/s | -58.5°C | 59.8% | 0hPa | 2.5V | 00:00:00 | 02:59:24 | 00:00:00 | |
| 9A1FER-10 | 2026-09-02 01:23:52 | 46.06483 | 14.24783 | 88° | 99km/h | 12039m | -4.7m/s | -58.6°C | 58.9% | 0hPa | 2.5V | 00:00:00 | 02:59:22 | 00:00:00 | |
| OE5DXL-15 | 2026-09-02 01:23:49 | 46.06476 | 14.24668 | 83° | 99km/h | 12052m | -4.6m/s | -58.7°C | 58.0% | 0hPa | 2.5V | 00:00:00 | 00:00:00 | 00:00:00 | |
| OE5DRO-10 | 2026-09-02 01:23:46 | 46.06460 | 14.24549 | 76° | 91km/h | 12066m | -4.4m/s | -58.8°C | 58.9% | 0hPa | 2.5V | 00:00:00 | 00:00:00 | 00:00:00 | |
| 9A1FER-3 | 2026-09-02 01:23:44 | 46.06444 | 14.24475 | 72° | 88km/h | 12075m | -4.4m/s | -58.9°C | 60.4% | 0hPa | 2.5V | 07:55:00 | 02:59:14 | 00:00:00 | |
| DO3MHA-11 | 2026-09-02 01:23:41 | 46.06422 | 14.24379 | 74° | 84km/h | 12087m | -4.2m/s | -59.0°C | 61.2% | 0hPa | 2.5V | 00:00:00 | 02:59:11 | 00:00:00 | |
| DO3MHA-12 | 2026-09-02 01:23:38 | 46.06408 | 14.24292 | 82° | 93km/h | 12100m | -4.5m/s | -59.1°C | 59.6% | 0hPa | 2.5V | 00:00:00 | 02:59:08 | 00:00:00 | |
| OE8JPQ-2 | 2026-09-02 01:23:37 | 46.06406 | 14.24263 | 84° | 97km/h | 12105m | -4.6m/s | -59.2°C | 58.9% | 0hPa | 2.5V | 00:00:00 | 00:00:00 | 00:00:00 | |
| DO3MHA-11 | 2026-09-02 01:23:31 | 46.06401 | 14.24075 | 91° | 106km/h | 12134m | -4.6m/s | -59.3°C | 54.3% | 0hPa | 2.5V | 07:55:00 | 02:59:01 | 00:00:00 | |
| 9A1FER-3 | 2026-09-02 01:23:29 | 46.06401 | 14.24001 | 90° | 91km/h | 12143m | -4.6m/s | -59.3°C | 53.6% | 0hPa | 2.5V | 00:00:00 | 02:58:59 | 00:00:00 | |
| OE5DRO-10 | 2026-09-02 01:23:27 | 46.06400 | 14.23923 | 87° | 97km/h | 12153m | -4.7m/s | -59.3°C | 53.7% | 0hPa | 2.5V | 00:00:00 | 00:00:00 | 00:00:00 | |
| 9A1FER-10 | 2026-09-02 01:23:22 | 46.06377 | 14.23726 | 75° | 93km/h | 12174m | -4.1m/s | -59.4°C | 53.7% | 0hPa | 2.5V | 00:00:00 | 02:58:52 | 00:00:00 | |
| DO3MHA-11 | 2026-09-02 01:23:21 | 46.06370 | 14.23691 | 74° | 88km/h | 12179m | -4.5m/s | -59.5°C | 53.7% | 0hPa | 2.5V | 00:00:00 | 02:58:51 | 00:00:00 | |
| OE5DXL-15 | 2026-09-02 01:23:19 | 46.06356 | 14.23625 | 75° | 95km/h | 12188m | -4.6m/s | -59.6°C | 53.1% | 0hPa | 2.5V | 00:00:00 | 00:00:00 | 00:00:00 | |
| IV3AMH | 2026-09-02 01:23:18 | 46.06357 | 14.23625 | 75° | 89km/h | 12188m | -4.6m/s | -59.6°C | 43.2% | 0hPa | 2.4V | 00:00:00 | 00:00:00 | 00:00:00 | |
| OE8JPQ-2 | 2026-09-02 01:23:17 | 46.06346 | 14.23564 | 79° | 99km/h | 12197m | -4.5m/s | -59.6°C | 52.9% | 0hPa | 2.4V | 00:00:00 | 02:58:47 | 00:00:00 | |
| DO3MHA-11 | 2026-09-02 01:23:11 | 46.06342 | 14.23376 | 93° | 106km/h | 12222m | -4.4m/s | -59.9°C | 51.6% | 0hPa | 2.4V | 00:00:00 | 02:58:41 | 00:00:00 | |
| 9A1FER-3 | 2026-09-02 01:23:08 | 46.06344 | 14.23263 | 91° | 100km/h | 12237m | -4.7m/s | -60.0°C | 50.6% | 0hPa | 2.4V | 00:00:00 | 02:58:38 | 00:00:00 | |
| OE8JPQ-2 | 2026-09-02 01:22:57 | 46.06295 | 14.22848 | 76° | 100km/h | 12286m | -4.7m/s | -60.5°C | 45.5% | 0hPa | 2.4V | 00:00:00 | 00:00:00 | 00:00:00 | |
| 9A1FER-10 | 2026-09-02 01:22:54 | 46.06281 | 14.22759 | 82° | 97km/h | 12301m | -4.6m/s | -60.5°C | 44.1% | 0hPa | 2.4V | 00:00:00 | 02:58:24 | 00:00:00 | |
| 9A1FER-3 | 2026-09-02 01:22:53 | 46.06279 | 14.22729 | 85° | 104km/h | 12305m | -4.6m/s | -60.6°C | 44.1% | 0hPa | 2.4V | 00:00:00 | 02:58:23 | 00:00:00 | |
| OE5DXL-15 | 2026-09-02 01:22:49 | 46.06276 | 14.22597 | 90° | 106km/h | 12321m | -3.7m/s | -60.8°C | 43.1% | 0hPa | 2.4V | 07:56:00 | 00:00:00 | 00:00:00 | |
| DO3MHA-11 | 2026-09-02 01:22:41 | 46.06252 | 14.22277 | 76° | 95km/h | 12358m | -4.6m/s | -60.3°C | 34.0% | 0hPa | 2.4V | 00:00:00 | 02:58:11 | 00:00:00 | |
| 9A1FER-3 | 2026-09-02 01:22:38 | 46.06228 | 14.22167 | 71° | 99km/h | 12372m | -4.4m/s | -59.9°C | 32.4% | 0hPa | 2.4V | 00:00:00 | 02:58:08 | 00:00:00 | |
| OE8JPQ-2 | 2026-09-02 01:22:37 | 46.06220 | 14.22133 | 71° | 104km/h | 12376m | -4.3m/s | -59.6°C | 31.6% | 0hPa | 2.4V | 00:00:00 | 00:00:00 | 00:00:00 | |
| DO3MHA-11 | 2026-09-02 01:22:31 | 46.06196 | 14.21942 | 89° | 110km/h | 12401m | -4.3m/s | -59.1°C | 27.7% | 0hPa | 2.4V | 00:00:00 | 02:58:01 | 00:00:00 | |
| OE5DRO-10 | 2026-09-02 01:22:30 | 46.06196 | 14.21907 | 90° | 106km/h | 12406m | -4.7m/s | -59.1°C | 27.1% | 0hPa | 2.4V | 00:00:00 | 00:00:00 | 00:00:00 | |
| 9A1FER-3 | 2026-09-02 01:22:23 | 46.06191 | 14.21629 | 85° | 104km/h | 12440m | -4.1m/s | -59.1°C | 25.2% | 0hPa | 2.4V | 00:00:00 | 02:57:53 | 00:00:00 | |
| DO3MHA-11 | 2026-09-02 01:22:21 | 46.06182 | 14.21543 | 79° | 102km/h | 12448m | -4.0m/s | -59.2°C | 25.1% | 0hPa | 2.4V | 00:00:00 | 02:57:51 | 00:00:00 | |
| OE5DXL-15 | 2026-09-02 01:22:19 | 46.06169 | 14.21462 | 76° | 108km/h | 12457m | -4.3m/s | -59.2°C | 24.8% | 0hPa | 2.4V | 00:00:00 | 00:00:00 | 00:00:00 | |
| DO3MHA-11 | 2026-09-02 01:22:11 | 46.06139 | 14.21184 | 91° | 108km/h | 12493m | -4.6m/s | -59.0°C | 22.9% | 0hPa | 2.4V | 00:00:00 | 02:57:41 | 00:00:00 | |
| 9A1FER-3 | 2026-09-02 01:22:08 | 46.06142 | 14.21077 | 95° | 115km/h | 12507m | -4.9m/s | -59.1°C | 21.8% | 0hPa | 2.4V | 00:00:00 | 02:57:38 | 00:00:00 | |
| IV3AMH | 2026-09-02 01:22:04 | 46.06150 | 14.20960 | 97° | 113km/h | 12521m | -5.0m/s | -59.2°C | 15.2% | 0hPa | 2.4V | 00:00:00 | 00:00:00 | 00:00:00 | |
| DO3MHA-11 | 2026-09-02 01:22:01 | 46.06160 | 14.20787 | 93° | 113km/h | 12541m | -4.6m/s | -59.3°C | 20.5% | 0hPa | 2.4V | 00:00:00 | 02:57:31 | 00:00:00 | |
| OE8JPQ-2 | 2026-09-02 01:21:57 | 46.06160 | 14.20608 | 87° | 99km/h | 12559m | -4.1m/s | -59.4°C | 21.1% | 0hPa | 2.4V | 00:00:00 | 00:00:00 | 00:00:00 | |
| 9A1FER-3 | 2026-09-02 01:21:53 | 46.06150 | 14.20450 | 85° | 95km/h | 12576m | -4.8m/s | -59.3°C | 20.5% | 0hPa | 2.4V | 00:00:00 | 02:57:23 | 00:00:00 | |
| OE5DRO-10 | 2026-09-02 01:21:52 | 46.06147 | 14.20413 | 85° | 99km/h | 12581m | -4.9m/s | -59.2°C | 20.4% | 0hPa | 2.4V | 07:57:00 | 00:00:00 | 00:00:00 | |
| DO3MHA-11 | 2026-09-02 01:21:51 | 46.06145 | 14.20376 | 85° | 93km/h | 12586m | -5.4m/s | -59.1°C | 20.0% | 0hPa | 2.4V | 07:57:00 | 02:57:21 | 00:00:00 | |
| OE5DXL-15 | 2026-09-02 01:21:49 | 46.06140 | 14.20304 | 85° | 99km/h | 12597m | -5.2m/s | -59.0°C | 19.0% | 0hPa | 2.4V | 00:00:00 | 00:00:00 | 00:00:00 | |
| DO3MHA-11 | 2026-09-02 01:21:38 | 46.06151 | 14.19932 | 101° | 111km/h | 12653m | -4.7m/s | -57.8°C | 15.4% | 0hPa | 2.4V | 00:00:00 | 02:57:08 | 00:00:00 | |
| OE8JPQ-2 | 2026-09-02 01:21:37 | 46.06156 | 14.19893 | 100° | 99km/h | 12658m | -4.7m/s | -57.8°C | 15.4% | 0hPa | 2.5V | 00:00:00 | 00:00:00 | 00:00:00 | |
| OE5DRO-10 | 2026-09-02 01:21:33 | 46.06165 | 14.19728 | 90° | 95km/h | 12677m | -4.8m/s | -57.7°C | 15.2% | 0hPa | 2.5V | 00:00:00 | 00:00:00 | 00:00:00 | |
| DO3MHA-11 | 2026-09-02 01:21:28 | 46.06153 | 14.19526 | 82° | 89km/h | 12702m | -5.5m/s | -57.6°C | 13.9% | 0hPa | 2.5V | 00:00:00 | 02:56:58 | 00:00:00 | |
| IV3AMH | 2026-09-02 01:21:27 | 46.06153 | 14.19526 | 82° | 104km/h | 12702m | -5.5m/s | -57.6°C | 9.4% | 0hPa | 2.5V | 00:00:00 | 00:00:00 | 00:00:00 | |
| 9A1FER-3 | 2026-09-02 01:21:23 | 46.06132 | 14.19356 | 80° | 91km/h | 12729m | -5.3m/s | -57.6°C | 12.8% | 0hPa | 2.5V | 00:00:00 | 02:56:53 | 00:00:00 | |
| OE5DXL-15 | 2026-09-02 01:21:19 | 46.06120 | 14.19240 | 86° | 95km/h | 12751m | -5.4m/s | -57.5°C | 12.4% | 0hPa | 2.5V | 00:00:00 | 02:56:49 | 00:00:00 | |
| DO3MHA-11 | 2026-09-02 01:21:18 | 46.06119 | 14.19212 | 89° | 97km/h | 12756m | -5.0m/s | -57.5°C | 12.4% | 0hPa | 2.5V | 00:00:00 | 02:56:48 | 00:00:00 | |
| OE8JPQ-2 | 2026-09-02 01:21:17 | 46.06119 | 14.19183 | 92° | 99km/h | 12761m | -4.7m/s | -57.5°C | 12.4% | 0hPa | 2.5V | 07:57:00 | 02:56:47 | 00:00:00 | |
| OE5DRO-10 | 2026-09-02 01:21:14 | 46.06123 | 14.19086 | 94° | 99km/h | 12775m | -4.4m/s | -57.5°C | 12.3% | 0hPa | 2.5V | 00:00:00 | 00:00:00 | 00:00:00 | |
| DO3MHA-11 | 2026-09-02 01:20:58 | 46.06056 | 14.18507 | 81° | 82km/h | 12858m | -4.6m/s | -56.4°C | 9.8% | 0hPa | 2.4V | 00:00:00 | 02:56:28 | 00:00:00 | |
| OE8JPQ-2 | 2026-09-02 01:20:57 | 46.06053 | 14.18477 | 84° | 104km/h | 12863m | -5.0m/s | -56.3°C | 9.7% | 0hPa | 2.4V | 00:00:00 | 00:00:00 | 00:00:00 | |
| OE5DRO-10 | 2026-09-02 01:20:55 | 46.06050 | 14.18416 | 88° | 106km/h | 12873m | -5.4m/s | -56.3°C | 9.6% | 0hPa | 2.4V | 00:00:00 | 00:00:00 | 00:00:00 | |
| 9A1FER-10 | 2026-09-02 01:20:53 | 46.06049 | 14.18351 | 91° | 110km/h | 12884m | -5.2m/s | -56.1°C | 9.4% | 0hPa | 2.4V | 00:00:00 | 02:56:23 | 00:00:00 | |
| IV3AMH | 2026-09-02 01:20:50 | 46.06049 | 14.18280 | 92° | 100km/h | 12895m | -5.7m/s | -55.9°C | 5.3% | 0hPa | 2.4V | 00:00:00 | 00:00:00 | 00:00:00 | |
| OE5DXL-15 | 2026-09-02 01:20:49 | 46.06049 | 14.18205 | 90° | 104km/h | 12907m | -5.6m/s | -55.5°C | 8.4% | 0hPa | 2.4V | 00:00:00 | 00:00:00 | 00:00:00 | |
| DO3MHA-11 | 2026-09-02 01:20:47 | 46.06048 | 14.18123 | 87° | 99km/h | 12918m | -5.4m/s | -55.4°C | 8.2% | 0hPa | 2.4V | 00:00:00 | 02:56:17 | 00:00:00 | |
| 9A1FER-10 | 2026-09-02 01:20:38 | 46.05993 | 14.17767 | 73° | 97km/h | 12964m | -5.5m/s | -54.8°C | 7.5% | 0hPa | 2.4V | 00:00:00 | 02:56:08 | 00:00:00 | |
| OE8JPQ-2 | 2026-09-02 01:20:37 | 46.05986 | 14.17733 | 74° | 100km/h | 12970m | -5.6m/s | -54.6°C | 7.2% | 0hPa | 2.4V | 00:00:00 | 00:00:00 | 00:00:00 | |
| OE5DRO-10 | 2026-09-02 01:20:36 | 46.05980 | 14.17701 | 75° | 100km/h | 12975m | -5.5m/s | -54.5°C | 7.1% | 0hPa | 2.4V | 00:00:00 | 00:00:00 | 00:00:00 | |
| DO3MHA-11 | 2026-09-02 01:20:32 | 46.05963 | 14.17579 | 86° | 102km/h | 12998m | -5.5m/s | -54.4°C | 6.9% | 0hPa | 2.4V | 00:00:00 | 02:56:02 | 00:00:00 | |
| 9A1FER-10 | 2026-09-02 01:20:23 | 46.05957 | 14.17244 | 81° | 99km/h | 13045m | -5.1m/s | -54.8°C | 7.0% | 0hPa | 2.5V | 07:58:00 | 02:55:53 | 00:00:00 | |
| DO3MHA-11 | 2026-09-02 01:20:22 | 46.05952 | 14.17203 | 78° | 99km/h | 13050m | -5.3m/s | -54.8°C | 7.0% | 0hPa | 2.4V | 07:58:00 | 02:55:52 | 00:00:00 | |
| OE5DXL-15 | 2026-09-02 01:20:19 | 46.05930 | 14.17086 | 74° | 102km/h | 13067m | -5.8m/s | -54.9°C | 6.8% | 0hPa | 2.4V | 00:00:00 | 00:00:00 | 00:00:00 | |
| OE8JPQ-2 | 2026-09-02 01:20:17 | 46.05915 | 14.17016 | 73° | 104km/h | 13079m | -5.6m/s | -55.0°C | 6.8% | 0hPa | 2.4V | 00:00:00 | 02:55:47 | 00:00:00 | |
| IV3AMH | 2026-09-02 01:20:13 | 46.05898 | 14.16923 | 81° | 82km/h | 13095m | -5.1m/s | -55.1°C | 3.8% | 0hPa | 2.4V | 07:59:00 | 00:00:00 | 00:00:00 | |
| DO3MHA-11 | 2026-09-02 01:20:12 | 46.05893 | 14.16862 | 89° | 104km/h | 13105m | -4.9m/s | 0°C | 0% | 0hPa | 2.4V | 00:00:00 | 02:55:42 | 00:00:00 | |
| 9A1FER-3 | 2026-09-02 01:20:11 | 46.05893 | 14.16830 | 91° | 111km/h | 13110m | -5.2m/s | -55.0°C | 6.8% | 0hPa | 2.4V | 00:00:00 | 02:55:41 | 00:00:00 | |
| 9A1FER-10 | 2026-09-02 01:20:08 | 46.05895 | 14.16724 | 91° | 111km/h | 13126m | -5.3m/s | -54.8°C | 6.8% | 0hPa | 2.4V | 00:00:00 | 02:55:38 | 00:00:00 | |
| DO3MHA-12 | 2026-09-02 01:20:06 | 46.05894 | 14.16644 | 88° | 104km/h | 13137m | -5.5m/s | -54.8°C | 6.6% | 0hPa | 2.4V | 00:00:00 | 02:55:36 | 00:00:00 | |
| DO3MHA-11 | 2026-09-02 01:20:02 | 46.05881 | 14.16476 | 79° | 110km/h | 13159m | -5.8m/s | -54.9°C | 6.4% | 0hPa | 2.4V | 00:00:00 | 02:55:32 | 00:00:00 | |
| OE5DRO-10 | 2026-09-02 01:19:58 | 46.05850 | 14.16312 | 72° | 106km/h | 13182m | -5.6m/s | -55.0°C | 6.3% | 0hPa | 2.5V | 00:00:00 | 00:00:00 | 00:00:00 | |
| OE8JPQ-2 | 2026-09-02 01:19:57 | 46.05841 | 14.16274 | 70° | 108km/h | 13188m | -5.8m/s | -55.0°C | 6.4% | 0hPa | 2.5V | 00:00:00 | 00:00:00 | 00:00:00 | |
| 9A1FER-3 | 2026-09-02 01:19:56 | 46.05831 | 14.16237 | 69° | 102km/h | 13193m | -5.5m/s | -55.0°C | 6.3% | 0hPa | 2.5V | 00:00:00 | 02:55:26 | 00:00:00 | |
| 9A1FER-10 | 2026-09-02 01:19:53 | 46.05805 | 14.16136 | 72° | 106km/h | 13210m | -5.3m/s | -55.0°C | 6.3% | 0hPa | 2.5V | 00:00:00 | 02:55:23 | 00:00:00 | |
| DO3MHA-11 | 2026-09-02 01:19:52 | 46.05798 | 14.16105 | 76° | 102km/h | 13215m | -4.8m/s | -55.0°C | 6.4% | 0hPa | 2.5V | 00:00:00 | 02:55:22 | 00:00:00 | |
| DO3MHA-12 | 2026-09-02 01:19:51 | 46.05793 | 14.16074 | 80° | 97km/h | 13220m | -4.8m/s | -55.0°C | 6.3% | 0hPa | 2.5V | 00:00:00 | 02:55:21 | 00:00:00 | |
| OE5DXL-15 | 2026-09-02 01:19:49 | 46.05788 | 14.16009 | 86° | 106km/h | 13230m | -5.4m/s | -55.0°C | 6.3% | 0hPa | 2.5V | 00:00:00 | 00:00:00 | 00:00:00 | |
| DO3MHA-11 | 2026-09-02 01:19:42 | 46.05774 | 14.15730 | 82° | 113km/h | 13269m | -5.5m/s | -55.1°C | 6.0% | 0hPa | 2.5V | 00:00:00 | 02:55:12 | 00:00:00 | |
| 9A1FER-3 | 2026-09-02 01:19:41 | 46.05769 | 14.15686 | 80° | 102km/h | 13275m | -5.4m/s | -55.1°C | 6.0% | 0hPa | 2.5V | 00:00:00 | 02:55:11 | 00:00:00 | |
| OE5DRO-10 | 2026-09-02 01:19:39 | 46.05755 | 14.15599 | 74° | 102km/h | 13285m | -4.9m/s | -55.2°C | 6.1% | 0hPa | 2.5V | 00:00:00 | 00:00:00 | 00:00:00 | |
| 9A1FER-10 | 2026-09-02 01:19:38 | 46.05745 | 14.15557 | 72° | 106km/h | 13290m | -4.9m/s | -55.2°C | 6.2% | 0hPa | 2.5V | 00:00:00 | 02:55:08 | 00:00:00 | |
| OE8JPQ-2 | 2026-09-02 01:19:37 | 46.05736 | 14.15517 | 70° | 102km/h | 13295m | -5.3m/s | -55.3°C | 6.3% | 0hPa | 2.5V | 00:00:00 | 00:00:00 | 00:00:00 | |
| IV3AMH | 2026-09-02 01:19:35 | 46.05726 | 14.15479 | 70° | 110km/h | 13301m | -5.3m/s | -55.3°C | 3.2% | 0hPa | 2.5V | 07:59:00 | 00:00:00 | 00:00:00 | |
| DO3MHA-11 | 2026-09-02 01:19:32 | 46.05692 | 14.15343 | 74° | 93km/h | 13323m | -5.6m/s | -55.4°C | 6.1% | 0hPa | 2.5V | 00:00:00 | 02:55:02 | 00:00:00 | |
| DO3MHA-12 | 2026-09-02 01:19:29 | 46.05676 | 14.15248 | 81° | 89km/h | 13340m | -5.9m/s | -55.3°C | 5.8% | 0hPa | 2.5V | 00:00:00 | 02:54:59 | 00:00:00 | |
| 9A1FER-3 | 2026-09-02 01:19:26 | 46.05670 | 14.15151 | 88° | 108km/h | 13357m | -5.8m/s | -55.2°C | 5.7% | 0hPa | 2.5V | 07:59:00 | 02:54:56 | 00:00:00 | |
| DO3MHA-11 | 2026-09-02 01:19:22 | 46.05668 | 14.15002 | 88° | 113km/h | 13379m | -5.1m/s | -55.2°C | 5.7% | 0hPa | 2.5V | 00:00:00 | 02:54:52 | 00:00:00 | |
| OE5DRO-10 | 2026-09-02 01:19:20 | 46.05663 | 14.14917 | 83° | 99km/h | 13390m | -4.8m/s | -55.2°C | 5.7% | 0hPa | 2.5V | 07:59:00 | 00:00:00 | 00:00:00 | |
| OE5DXL-15 | 2026-09-02 01:19:19 | 46.05658 | 14.14874 | 80° | 104km/h | 13394m | -5.3m/s | -55.2°C | 5.7% | 0hPa | 2.5V | 00:00:00 | 00:00:00 | 00:00:00 | |
| OE8JPQ-2 | 2026-09-02 01:19:17 | 46.05644 | 14.14790 | 75° | 99km/h | 13405m | -5.2m/s | -55.3°C | 5.7% | 0hPa | 2.5V | 00:00:00 | 02:54:47 | 00:00:00 | |
| DO3MHA-11 | 2026-09-02 01:19:12 | 46.05602 | 14.14611 | 72° | 89km/h | 13433m | -5.7m/s | -55.3°C | 5.7% | 0hPa | 2.5V | 00:00:00 | 02:54:42 | 00:00:00 | |
| 9A1FER-3 | 2026-09-02 01:19:11 | 46.05595 | 14.14580 | 74° | 99km/h | 13439m | -5.4m/s | -55.3°C | 5.6% | 0hPa | 2.5V | 00:00:00 | 02:54:41 | 00:00:00 | |
| DO3MHA-12 | 2026-09-02 01:19:09 | 46.05585 | 14.14520 | 81° | 88km/h | 13450m | -5.3m/s | -55.4°C | 5.7% | 0hPa | 2.4V | 07:59:00 | 02:54:39 | 00:00:00 | |
| DO3MHA-11 | 2026-09-02 01:19:02 | 46.05582 | 14.14288 | 92° | 113km/h | 13488m | -5.3m/s | -55.4°C | 5.6% | 0hPa | 2.4V | 07:59:00 | 02:54:32 | 00:00:00 | |
| OE5DRO-10 | 2026-09-02 01:19:01 | 46.05582 | 14.14250 | 90° | 100km/h | 13493m | -5.6m/s | -55.5°C | 5.6% | 0hPa | 2.4V | 00:00:00 | 00:00:00 | 00:00:00 | |
| DO3MHA-12 | 2026-09-02 01:18:58 | 46.05578 | 14.14127 | 85° | 102km/h | 13510m | -5.6m/s | -55.5°C | 5.5% | 0hPa | 2.4V | 00:00:00 | 02:54:28 | 00:00:00 | |
| OE8JPQ-2 | 2026-09-02 01:18:57 | 46.05574 | 14.14085 | 82° | 99km/h | 13516m | -5.4m/s | -55.5°C | 5.5% | 0hPa | 2.4V | 08:00:00 | 00:00:00 | 00:00:00 | |
| 9A1FER-3 | 2026-09-02 01:18:56 | 46.05569 | 14.14043 | 80° | 97km/h | 13522m | -5.5m/s | -55.4°C | 5.5% | 0hPa | 2.4V | 00:00:00 | 02:54:26 | 00:00:00 | |
| DO3MHA-11 | 2026-09-02 01:18:52 | 46.05540 | 14.13885 | 72° | 89km/h | 13544m | -5.7m/s | -55.4°C | 5.4% | 0hPa | 2.4V | 00:00:00 | 02:54:22 | 00:00:00 | |
| OE5DXL-15 | 2026-09-02 01:18:49 | 46.05516 | 14.13782 | 72° | 93km/h | 13561m | -5.5m/s | -55.4°C | 5.4% | 0hPa | 2.4V | 08:00:00 | 00:00:00 | 00:00:00 | |
| DO3MHA-12 | 2026-09-02 01:18:48 | 46.05509 | 14.13751 | 74° | 86km/h | 13567m | -5.5m/s | -55.4°C | 5.5% | 0hPa | 2.5V | 00:00:00 | 02:54:18 | 00:00:00 | |
| OE3JTB-15 | 2026-09-02 01:18:46 | 46.05499 | 14.13692 | 81° | 99km/h | 13578m | -5.5m/s | -55.3°C | 5.3% | 0hPa | 2.5V | 00:00:00 | 02:54:16 | 00:00:00 | |
| DO3MHA-11 | 2026-09-02 01:18:42 | 46.05495 | 14.13570 | 92° | 108km/h | 13600m | -5.8m/s | -55.3°C | 5.3% | 0hPa | 2.5V | 00:00:00 | 02:54:12 | 00:00:00 | |
| 9A1FER-3 | 2026-09-02 01:18:41 | 46.05496 | 14.13536 | 93° | 100km/h | 13606m | -5.8m/s | -55.2°C | 5.3% | 0hPa | 2.5V | 00:00:00 | 02:54:11 | 00:00:00 | |
| DO3MHA-12 | 2026-09-02 01:18:38 | 46.05498 | 14.13422 | 90° | 97km/h | 13624m | -5.5m/s | -55.1°C | 5.3% | 0hPa | 2.5V | 00:00:00 | 02:54:08 | 00:00:00 | |
| OE8JPQ-2 | 2026-09-02 01:18:37 | 46.05497 | 14.13381 | 87° | 95km/h | 13629m | -5.2m/s | -55.1°C | 5.3% | 0hPa | 2.5V | 00:00:00 | 00:00:00 | 00:00:00 | |
| DO3MHA-11 | 2026-09-02 01:18:32 | 46.05470 | 14.13185 | 73° | 84km/h | 13655m | -5.6m/s | -55.2°C | 5.4% | 0hPa | 2.5V | 08:00:00 | 02:54:02 | 00:00:00 | |
| DO3MHA-12 | 2026-09-02 01:18:27 | 46.05440 | 14.13030 | 80° | 88km/h | 13684m | -5.5m/s | -55.0°C | 5.2% | 0hPa | 2.5V | 00:00:00 | 02:53:57 | 00:00:00 | |
| 9A1FER-3 | 2026-09-02 01:18:26 | 46.05437 | 14.13003 | 85° | 97km/h | 13689m | -5.5m/s | -54.9°C | 5.2% | 0hPa | 2.5V | 08:00:00 | 02:53:56 | 00:00:00 | |
| OE5DRO-10 | 2026-09-02 01:18:23 | 46.05437 | 14.12917 | 94° | 99km/h | 13706m | -5.6m/s | -54.9°C | 5.2% | 0hPa | 2.5V | 00:00:00 | 00:00:00 | 00:00:00 | |
| DO3MHA-11 | 2026-09-02 01:18:22 | 46.05438 | 14.12886 | 96° | 102km/h | 13712m | -5.8m/s | -54.9°C | 5.2% | 0hPa | 2.5V | 00:00:00 | 02:53:52 | 00:00:00 | |
| OE5DXL-15 | 2026-09-02 01:18:19 | 46.05446 | 14.12786 | 96° | 102km/h | 13729m | -5.6m/s | -54.9°C | 5.3% | 0hPa | 2.5V | 00:00:00 | 00:00:00 | 00:00:00 | |
| DO3MHA-12 | 2026-09-02 01:18:17 | 46.05448 | 14.12710 | 91° | 104km/h | 13740m | -5.5m/s | -54.8°C | 5.2% | 0hPa | 2.5V | 00:00:00 | 02:53:47 | 00:00:00 | |
| 9A1FER-10 | 2026-09-02 01:18:14 | 46.05441 | 14.12590 | 81° | 93km/h | 13757m | -5.2m/s | -54.8°C | 5.2% | 0hPa | 2.5V | 08:00:00 | 02:53:44 | 00:00:00 | |
| DO3MHA-11 | 2026-09-02 01:18:12 | 46.05430 | 14.12513 | 76° | 91km/h | 13768m | -5.5m/s | -54.7°C | 5.0% | 0hPa | 2.5V | 00:00:00 | 02:53:42 | 00:00:00 | |
| 9A1FER-3 | 2026-09-02 01:18:11 | 46.05423 | 14.12476 | 74° | 93km/h | 13773m | -5.7m/s | -54.7°C | 5.1% | 0hPa | 2.5V | 00:00:00 | 02:53:41 | 00:00:00 | |
| OE5DRO-10 | 2026-09-02 01:18:04 | 46.05375 | 14.12256 | 80° | 100km/h | 13815m | -5.5m/s | -54.9°C | 5.2% | 0hPa | 2.5V | 00:00:00 | 00:00:00 | 00:00:00 | |
| DO3MHA-11 | 2026-09-02 01:18:02 | 46.05371 | 14.12199 | 90° | 104km/h | 13825m | -5.0m/s | -55.0°C | 5.2% | 0hPa | 2.5V | 00:00:00 | 02:53:32 | 00:00:00 | |
| 9A1FER-10 | 2026-09-02 01:17:59 | 46.05373 | 14.12099 | 92° | 106km/h | 13841m | -5.8m/s | -55.1°C | 5.2% | 0hPa | 2.5V | 00:00:00 | 02:53:29 | 00:00:00 | |
| OE8JPQ-2 | 2026-09-02 01:17:57 | 46.05373 | 14.12022 | 88° | 102km/h | 13853m | -5.7m/s | -55.2°C | 5.2% | 0hPa | 2.5V | 00:00:00 | 00:00:00 | 00:00:00 | |
| 9A1FER-3 | 2026-09-02 01:17:56 | 46.05371 | 14.11981 | 86° | 100km/h | 13859m | -5.6m/s | -55.2°C | 5.2% | 0hPa | 2.5V | 00:00:00 | 02:53:26 | 00:00:00 | |
| DO3MHA-11 | 2026-09-02 01:17:52 | 46.05352 | 14.11816 | 76° | 95km/h | 13882m | -5.6m/s | -55.4°C | 5.2% | 0hPa | 2.5V | 00:00:00 | 02:53:22 | 00:00:00 | |
| OE5DXL-15 | 2026-09-02 01:17:49 | 46.05325 | 14.11701 | 69° | 99km/h | 13898m | -5.6m/s | -55.6°C | 5.3% | 0hPa | 2.5V | 00:00:00 | 00:00:00 | 00:00:00 | |
| OE5DRO-10 | 2026-09-02 01:17:45 | 46.05291 | 14.11575 | 75° | 104km/h | 13920m | -5.1m/s | -55.7°C | 5.5% | 0hPa | 2.5V | 00:00:00 | 00:00:00 | 00:00:00 | |
| 9A1FER-10 | 2026-09-02 01:17:44 | 46.05286 | 14.11546 | 80° | 106km/h | 13925m | -5.0m/s | -55.8°C | 5.5% | 0hPa | 2.5V | 00:00:00 | 02:53:14 | 00:00:00 | |
| DO3MHA-11 | 2026-09-02 01:17:42 | 46.05282 | 14.11486 | 88° | 95km/h | 13936m | -5.8m/s | -55.8°C | 5.4% | 0hPa | 2.5V | 00:00:00 | 02:53:12 | 00:00:00 | |
| 9A1FER-3 | 2026-09-02 01:17:41 | 46.05281 | 14.11453 | 90° | 110km/h | 13942m | -6.0m/s | -55.9°C | 5.4% | 0hPa | 2.5V | 00:00:00 | 02:53:11 | 00:00:00 | |
| OE8JPQ-2 | 2026-09-02 01:17:37 | 46.05280 | 14.11304 | 89° | 102km/h | 13967m | -6.1m/s | -56.0°C | 5.2% | 0hPa | 2.5V | 00:00:00 | 00:00:00 | 00:00:00 | |
| 9A1FER-10 | 2026-09-02 01:17:29 | 46.05236 | 14.10972 | 72° | 95km/h | 14010m | -5.2m/s | -56.0°C | 5.6% | 0hPa | 2.5V | 00:00:00 | 02:52:59 | 00:00:00 | |
| 9A1FER-3 | 2026-09-02 01:17:26 | 46.05214 | 14.10872 | 75° | 100km/h | 14026m | -5.7m/s | -56.0°C | 5.5% | 0hPa | 2.5V | 00:00:00 | 02:52:56 | 00:00:00 | |
| OE5DXL-15 | 2026-09-02 01:17:19 | 46.05202 | 14.10649 | 95° | 102km/h | 14066m | -5.7m/s | -55.8°C | 5.2% | 0hPa | 2.5V | 00:00:00 | 00:00:00 | 00:00:00 | |
| OE8JPQ-2 | 2026-09-02 01:17:17 | 46.05207 | 14.10577 | 97° | 100km/h | 14078m | -6.1m/s | -55.8°C | 5.2% | 0hPa | 2.5V | 00:00:00 | 02:52:47 | 00:00:00 | |
| OE3JTB-15 | 2026-09-02 01:17:15 | 46.05212 | 14.10499 | 95° | 100km/h | 14090m | -5.8m/s | -55.7°C | 5.2% | 0hPa | 2.5V | 00:00:00 | 00:00:00 | 00:00:00 | |
| 9A1FER-10 | 2026-09-02 01:17:14 | 46.05214 | 14.10456 | 92° | 99km/h | 14095m | -5.6m/s | -55.8°C | 5.2% | 0hPa | 2.5V | 00:00:00 | 02:52:44 | 00:00:00 | |
| 9A1FER-3 | 2026-09-02 01:17:11 | 46.05210 | 14.10325 | 84° | 93km/h | 14112m | -5.4m/s | -55.8°C | 5.4% | 0hPa | 2.5V | 00:00:00 | 02:52:41 | 00:00:00 | |
| OE5DRO-10 | 2026-09-02 01:17:07 | 46.05189 | 14.10171 | 78° | 95km/h | 14133m | -5.6m/s | -55.9°C | 5.5% | 0hPa | 2.5V | 00:00:00 | 00:00:00 | 00:00:00 | |
| IV3AMH | 2026-09-02 01:17:04 | 46.05182 | 14.10108 | 84° | 84km/h | 14145m | -5.8m/s | -55.8°C | 2.4% | 0hPa | 2.5V | 00:00:00 | 00:00:00 | 00:00:00 | |
| 9A1FER-10 | 2026-09-02 01:16:59 | 46.05189 | 14.09929 | 102° | 97km/h | 14181m | -6.0m/s | -55.5°C | 5.1% | 0hPa | 2.5V | 00:00:00 | 02:52:29 | 00:00:00 | |
| DO3MHA-11 | 2026-09-02 01:16:58 | 46.05194 | 14.09895 | 103° | 91km/h | 14187m | -5.8m/s | -55.4°C | 5.1% | 0hPa | 2.5V | 00:00:00 | 02:52:28 | 00:00:00 | |
| OE8JPQ-2 | 2026-09-02 01:16:57 | 46.05200 | 14.09860 | 103° | 89km/h | 14193m | -5.4m/s | -55.3°C | 5.1% | 0hPa | 2.5V | 00:00:00 | 00:00:00 | 00:00:00 | |
| 9A1FER-3 | 2026-09-02 01:16:56 | 46.05205 | 14.09823 | 101° | 91km/h | 14198m | -5.4m/s | -55.3°C | 5.1% | 0hPa | 2.5V | 00:00:00 | 02:52:26 | 00:00:00 | |
| OE5DXL-15 | 2026-09-02 01:16:49 | 46.05202 | 14.09553 | 80° | 82km/h | 14237m | -5.8m/s | -55.4°C | 5.1% | 0hPa | 2.5V | 00:00:00 | 00:00:00 | 00:00:00 | |
| OE5DRO-10 | 2026-09-02 01:16:48 | 46.05197 | 14.09519 | 80° | 86km/h | 14242m | -5.8m/s | -55.3°C | 5.0% | 0hPa | 2.5V | 00:00:00 | 00:00:00 | 00:00:00 | |
| OE3JTB-15 | 2026-09-02 01:16:46 | 46.05190 | 14.09459 | 80° | 80km/h | 14254m | -5.6m/s | -55.3°C | 4.9% | 0hPa | 2.5V | 00:00:00 | 02:52:16 | 00:00:00 | |
| DO3MHA-11 | 2026-09-02 01:16:45 | 46.05187 | 14.09432 | 83° | 77km/h | 14260m | -5.6m/s | -55.3°C | 4.9% | 0hPa | 2.5V | 00:00:00 | 02:52:15 | 00:00:00 | |
| 9A1FER-10 | 2026-09-02 01:16:44 | 46.05185 | 14.09407 | 87° | 86km/h | 14266m | -5.9m/s | -55.3°C | 4.9% | 0hPa | 2.5V | 00:00:00 | 02:52:14 | 00:00:00 | |
| 9A1FER-3 | 2026-09-02 01:16:41 | 46.05188 | 14.09333 | 101° | 91km/h | 14283m | -5.6m/s | -55.3°C | 4.9% | 0hPa | 2.5V | 00:00:00 | 02:52:11 | 00:00:00 | |
| DO3MHA-12 | 2026-09-02 01:16:40 | 46.05192 | 14.09308 | 103° | 77km/h | 14289m | -5.9m/s | -55.3°C | 4.9% | 0hPa | 2.5V | 08:02:00 | 02:52:10 | 00:00:00 | |
| OE8JPQ-2 | 2026-09-02 01:16:37 | 46.05206 | 14.09220 | 102° | 82km/h | 14306m | -5.5m/s | -55.4°C | 5.0% | 0hPa | 2.5V | 00:00:00 | 00:00:00 | 00:00:00 | |
| DO3MHA-11 | 2026-09-02 01:16:35 | 46.05214 | 14.09151 | 96° | 93km/h | 14317m | -5.6m/s | -55.4°C | 5.1% | 0hPa | 2.5V | 00:00:00 | 02:52:05 | 00:00:00 | |
| 9A1FER-10 | 2026-09-02 01:16:29 | 46.05204 | 14.08937 | 78° | 71km/h | 14352m | -5.8m/s | -55.6°C | 5.0% | 0hPa | 2.5V | 00:00:00 | 02:51:59 | 00:00:00 | |
| IV3AMH | 2026-09-02 01:16:27 | 46.05199 | 14.08905 | 77° | 88km/h | 14357m | -5.8m/s | -55.7°C | 2.2% | 0hPa | 2.5V | 00:00:00 | 00:00:00 | 00:00:00 | |
| 9A1FER-3 | 2026-09-02 01:16:26 | 46.05188 | 14.08847 | 74° | 73km/h | 14369m | -6.1m/s | -55.7°C | 5.0% | 0hPa | 2.5V | 00:00:00 | 02:51:56 | 00:00:00 | |
| OE5DXL-15 | 2026-09-02 01:16:19 | 46.05168 | 14.08688 | 94° | 80km/h | 14411m | -5.9m/s | -55.9°C | 5.2% | 0hPa | 2.5V | 00:00:00 | 00:00:00 | 00:00:00 | |
| OE3JTB-15 | 2026-09-02 01:16:17 | 46.05172 | 14.08640 | 100° | 88km/h | 14423m | -5.8m/s | -56.0°C | 5.2% | 0hPa | 2.5V | 00:00:00 | 00:00:00 | 00:00:00 | |
| DO3MHA-11 | 2026-09-02 01:16:15 | 46.05178 | 14.08585 | 98° | 89km/h | 14434m | -5.6m/s | -56.0°C | 5.3% | 0hPa | 2.5V | 00:00:00 | 02:51:45 | 00:00:00 | |
| 9A1FER-10 | 2026-09-02 01:16:14 | 46.05180 | 14.08554 | 95° | 78km/h | 14440m | -5.6m/s | -56.0°C | 5.3% | 0hPa | 2.5V | 00:00:00 | 02:51:44 | 00:00:00 | |
| 9A1FER-3 | 2026-09-02 01:16:11 | 46.05180 | 14.08451 | 85° | 75km/h | 14458m | -5.9m/s | -55.9°C | 5.2% | 0hPa | 2.5V | 08:02:00 | 02:51:41 | 00:00:00 | |
| OE5DRO-10 | 2026-09-02 01:16:10 | 46.05177 | 14.08416 | 82° | 78km/h | 14464m | -6.2m/s | -55.9°C | 5.2% | 0hPa | 2.5V | 00:00:00 | 00:00:00 | 00:00:00 | |
| DO3MHA-11 | 2026-09-02 01:16:05 | 46.05147 | 14.08263 | 71° | 68km/h | 14492m | -5.0m/s | -55.6°C | 5.2% | 0hPa | 2.5V | 00:00:00 | 02:51:35 | 00:00:00 | |
| 9A1FER-10 | 2026-09-02 01:15:59 | 46.05139 | 14.08135 | 99° | 86km/h | 14527m | -6.2m/s | -55.1°C | 4.8% | 0hPa | 2.5V | 08:03:00 | 02:51:29 | 00:00:00 | |
| OE8JPQ-2 | 2026-09-02 01:15:57 | 46.05145 | 14.08083 | 100° | 80km/h | 14539m | -5.7m/s | -55.0°C | 4.9% | 0hPa | 2.5V | 08:03:00 | 00:00:00 | 00:00:00 | |
| 9A1FER-3 | 2026-09-02 01:15:56 | 46.05149 | 14.08053 | 98° | 82km/h | 14545m | -5.5m/s | -55.0°C | 4.8% | 0hPa | 2.5V | 00:00:00 | 02:51:26 | 00:00:00 | |
| DO3MHA-11 | 2026-09-02 01:15:55 | 46.05151 | 14.08021 | 96° | 91km/h | 14551m | -5.6m/s | -55.0°C | 4.9% | 0hPa | 2.5V | 00:00:00 | 02:51:25 | 00:00:00 | |
| DO3MHA-12 | 2026-09-02 01:15:54 | 46.05153 | 14.07986 | 93° | 75km/h | 14556m | -5.5m/s | -55.0°C | 4.8% | 0hPa | 2.5V | 00:00:00 | 02:51:24 | 00:00:00 | |
| OE5DRO-10 | 2026-09-02 01:15:51 | 46.05148 | 14.07879 | 82° | 80km/h | 14574m | -6.4m/s | -54.9°C | 4.8% | 0hPa | 2.5V | 00:00:00 | 00:00:00 | 00:00:00 | |
| OE5DXL-15 | 2026-09-02 01:15:49 | 46.05138 | 14.07811 | 75° | 75km/h | 14587m | -6.0m/s | -54.7°C | 4.6% | 0hPa | 2.5V | 00:00:00 | 00:00:00 | 00:00:00 | |
| OE3JTB-15 | 2026-09-02 01:15:47 | 46.05125 | 14.07752 | 71° | 73km/h | 14599m | -5.6m/s | -54.8°C | 4.6% | 0hPa | 2.5V | 00:00:00 | 00:00:00 | 00:00:00 | |
| DO3MHA-11 | 2026-09-02 01:15:45 | 46.05113 | 14.07703 | 73° | 71km/h | 14610m | -5.8m/s | -54.8°C | 4.6% | 0hPa | 2.5V | 00:00:00 | 02:51:15 | 00:00:00 | |
| 9A1FER-10 | 2026-09-02 01:15:44 | 46.05109 | 14.07681 | 77° | 80km/h | 14616m | -6.1m/s | -54.9°C | 4.6% | 0hPa | 2.5V | 00:00:00 | 02:51:14 | 00:00:00 | |
| 9A1FER-3 | 2026-09-02 01:15:41 | 46.05106 | 14.07619 | 96° | 82km/h | 14635m | -5.8m/s | -55.0°C | 4.7% | 0hPa | 2.5V | 00:00:00 | 02:51:11 | 00:00:00 | |
| DO3MHA-12 | 2026-09-02 01:15:40 | 46.05108 | 14.07596 | 99° | 66km/h | 14640m | -5.7m/s | -55.0°C | 4.7% | 0hPa | 2.5V | 00:00:00 | 02:51:10 | 00:00:00 | |
| OE8JPQ-2 | 2026-09-02 01:15:37 | 46.05116 | 14.07511 | 94° | 77km/h | 14657m | -5.3m/s | -55.1°C | 4.9% | 0hPa | 2.5V | 00:00:00 | 00:00:00 | 00:00:00 | |
| DO3MHA-11 | 2026-09-02 01:15:35 | 46.05114 | 14.07444 | 84° | 82km/h | 14668m | -5.5m/s | -55.0°C | 4.7% | 0hPa | 2.5V | 00:00:00 | 02:51:05 | 00:00:00 | |
| OE5DRO-10 | 2026-09-02 01:15:32 | 46.05099 | 14.07343 | 74° | 75km/h | 14686m | -6.3m/s | -54.9°C | 4.6% | 0hPa | 2.5V | 00:00:00 | 00:00:00 | 00:00:00 | |
| IN3HCDX1 | 2026-09-02 01:15:30 | 46.05092 | 14.07312 | 72° | 89km/h | 14692m | -6.5m/s | -55.0°C | 1.9% | 0hPa | 2.5V | 00:00:00 | 00:00:00 | 00:00:00 | |
| 9A1FER-10 | 2026-09-02 01:15:29 | 46.05077 | 14.07254 | 68° | 71km/h | 14705m | -6.0m/s | -55.1°C | 4.7% | 0hPa | 2.5V | 00:00:00 | 02:50:59 | 00:00:00 | |
| 9A1FER-3 | 2026-09-02 01:15:26 | 46.05057 | 14.07185 | 71° | 75km/h | 14722m | -5.5m/s | -55.0°C | 4.7% | 0hPa | 2.5V | 00:00:00 | 02:50:56 | 00:00:00 | |
| DO3MHA-11 | 2026-09-02 01:15:25 | 46.05053 | 14.07164 | 77° | 69km/h | 14727m | -5.3m/s | -55.0°C | 4.7% | 0hPa | 2.5V | 00:00:00 | 02:50:55 | 00:00:00 | |
| DO3MHA-12 | 2026-09-02 01:15:23 | 46.05049 | 14.07125 | 89° | 60km/h | 14739m | -6.0m/s | -55.0°C | 4.7% | 0hPa | 2.5V | 00:00:00 | 02:50:53 | 00:00:00 | |
| OE5DXL-15 | 2026-09-02 01:15:19 | 46.05053 | 14.07032 | 96° | 78km/h | 14764m | -6.3m/s | -55.1°C | 4.7% | 0hPa | 2.5V | 00:00:00 | 00:00:00 | 00:00:00 | |
| OE3JTB-15 | 2026-09-02 01:15:18 | 46.05055 | 14.07004 | 95° | 66km/h | 14770m | -6.1m/s | -55.2°C | 4.7% | 0hPa | 2.5V | 00:00:00 | 02:50:48 | 00:00:00 | |
| OE8JPQ-2 | 2026-09-02 01:15:17 | 46.05056 | 14.06974 | 93° | 73km/h | 14776m | -5.8m/s | -55.2°C | 4.8% | 0hPa | 2.5V | 00:00:00 | 02:50:47 | 00:00:00 | |
| DO3MHA-11 | 2026-09-02 01:15:15 | 46.05056 | 14.06909 | 86° | 82km/h | 14787m | -5.2m/s | -55.2°C | 4.8% | 0hPa | 2.5V | 00:00:00 | 02:50:45 | 00:00:00 | |
| 9A1FER-10 | 2026-09-02 01:15:14 | 46.05053 | 14.06875 | 81° | 71km/h | 14793m | -5.6m/s | -55.2°C | 4.8% | 0hPa | 2.5V | 00:00:00 | 02:50:44 | 00:00:00 | |
| OE5DRO-10 | 2026-09-02 01:15:13 | 46.05048 | 14.06840 | 78° | 71km/h | 14798m | -5.7m/s | -55.2°C | 4.9% | 0hPa | 2.5V | 00:00:00 | 00:00:00 | 00:00:00 | |
| 9A1FER-3 | 2026-09-02 01:15:11 | 46.05035 | 14.06775 | 71° | 68km/h | 14811m | -6.2m/s | -55.2°C | 5.0% | 0hPa | 2.5V | 00:00:00 | 02:50:41 | 00:00:00 | |
| DO3MHA-11 | 2026-09-02 01:15:05 | 46.04997 | 14.06632 | 79° | 64km/h | 14846m | -5.9m/s | -54.7°C | 4.6% | 0hPa | 2.5V | 00:00:00 | 02:50:35 | 00:00:00 | |
| DO3MHA-12 | 2026-09-02 01:15:00 | 46.04999 | 14.06532 | 101° | 57km/h | 14876m | -6.3m/s | -54.6°C | 4.5% | 0hPa | 2.5V | 00:00:00 | 02:50:30 | 00:00:00 | |
| 9A1FER-10 | 2026-09-02 01:14:59 | 46.05002 | 14.06508 | 102° | 80km/h | 14882m | -6.4m/s | -54.6°C | 4.5% | 0hPa | 2.5V | 00:00:00 | 02:50:29 | 00:00:00 | |
| IN3HCDX1 | 2026-09-02 01:14:58 | 46.05002 | 14.06508 | 103° | 69km/h | 14882m | -6.5m/s | -54.7°C | 1.7% | 0hPa | 2.5V | 08:04:00 | 00:00:00 | 00:00:00 | |
| OE8JPQ-2 | 2026-09-02 01:14:57 | 46.05010 | 14.06455 | 101° | 73km/h | 14895m | -6.3m/s | -54.7°C | 4.5% | 0hPa | 2.5V | 00:00:00 | 00:00:00 | 00:00:00 | |
| 9A1FER-3 | 2026-09-02 01:14:56 | 46.05013 | 14.06426 | 99° | 77km/h | 14901m | -6.3m/s | -54.8°C | 4.5% | 0hPa | 2.5V | 00:00:00 | 02:50:26 | 00:00:00 | |
| DO3MHA-11 | 2026-09-02 01:14:55 | 46.05016 | 14.06395 | 97° | 88km/h | 14907m | -6.1m/s | -54.8°C | 4.5% | 0hPa | 2.5V | 08:04:00 | 02:50:25 | 00:00:00 | |
| OE5DRO-10 | 2026-09-02 01:14:54 | 46.05018 | 14.06362 | 94° | 71km/h | 14914m | -6.0m/s | -54.8°C | 4.6% | 0hPa | 2.5V | 00:00:00 | 00:00:00 | 00:00:00 | |
| OE5DXL-15 | 2026-09-02 01:14:49 | 46.05005 | 14.06198 | 75° | 64km/h | 14941m | -5.3m/s | -54.8°C | 4.7% | 0hPa | 2.5V | 00:00:00 | 00:00:00 | 00:00:00 | |
| SOBLACK | 2026-09-02 01:14:47 | 46.04995 | 14.06146 | 75° | 69km/h | 14952m | -5.6m/s | -54.9°C | 1.8% | 0hPa | 2.5V | 00:00:00 | 00:00:00 | 00:00:00 | |
| DO3MHA-11 | 2026-09-02 01:14:45 | 46.04987 | 14.06102 | 80° | 62km/h | 14964m | -5.9m/s | -54.7°C | 4.6% | 0hPa | 2.5V | 00:00:00 | 02:50:15 | 00:00:00 | |
| 9A1FER-10 | 2026-09-02 01:14:44 | 46.04985 | 14.06082 | 84° | 69km/h | 14970m | -6.3m/s | -54.7°C | 4.5% | 0hPa | 2.5V | 00:00:00 | 02:50:14 | 00:00:00 | |
| 9A1FER-3 | 2026-09-02 01:14:41 | 46.04987 | 14.06024 | 102° | 73km/h | 14989m | -6.4m/s | -54.6°C | 4.4% | 0hPa | 2.5V | 00:00:00 | 02:50:11 | 00:00:00 | |
| IN3HCDX1 | 2026-09-02 01:14:38 | 46.04995 | 14.05984 | 111° | 64km/h | 15001m | -6.0m/s | -54.7°C | 1.7% | 0hPa | 2.5V | 08:04:00 | 00:00:00 | 00:00:00 | |
| OE8JPQ-2 | 2026-09-02 01:14:37 | 46.05008 | 14.05936 | 111° | 62km/h | 15013m | -5.8m/s | -54.7°C | 4.6% | 0hPa | 2.5V | 00:00:00 | 00:00:00 | 00:00:00 | |
| DO3MHA-11 | 2026-09-02 01:14:35 | 46.05019 | 14.05880 | 103° | 75km/h | 15025m | -5.4m/s | -54.7°C | 4.7% | 0hPa | 2.5V | 00:00:00 | 02:50:05 | 00:00:00 | |
| IV3AMH | 2026-09-02 01:14:34 | 46.05019 | 14.05880 | 104° | 84km/h | 15025m | -5.4m/s | -54.8°C | 1.8% | 0hPa | 2.5V | 00:00:00 | 00:00:00 | 00:00:00 | |
| 9A1FER-10 | 2026-09-02 01:14:29 | 46.05015 | 14.05706 | 77° | 53km/h | 15056m | -6.0m/s | -54.5°C | 4.5% | 0hPa | 2.5V | 00:00:00 | 02:49:59 | 00:00:00 | |
| 9A1FER-3 | 2026-09-02 01:14:26 | 46.05001 | 14.05640 | 73° | 55km/h | 15075m | -6.4m/s | -54.5°C | 4.4% | 0hPa | 2.5V | 00:00:00 | 02:49:56 | 00:00:00 | |
| SOBLACK | 2026-09-02 01:14:25 | 46.05001 | 14.05640 | 73° | 57km/h | 15075m | -6.5m/s | -54.5°C | 1.7% | 0hPa | 2.5V | 08:05:00 | 00:00:00 | 00:00:00 | |
| OE5DXL-15 | 2026-09-02 01:14:19 | 46.04996 | 14.05534 | 110° | 60km/h | 15117m | -5.6m/s | -54.3°C | 4.4% | 0hPa | 2.5V | 08:04:00 | 00:00:00 | 00:00:00 | |
| OE8JPQ-2 | 2026-09-02 01:14:17 | 46.05005 | 14.05498 | 107° | 58km/h | 15128m | -5.4m/s | -54.2°C | 4.4% | 0hPa | 2.5V | 00:00:00 | 02:49:47 | 00:00:00 | |
| OE5DRO-10 | 2026-09-02 01:14:16 | 46.05009 | 14.05477 | 103° | 58km/h | 15134m | -5.5m/s | -54.3°C | 4.4% | 0hPa | 2.5V | 00:00:00 | 00:00:00 | 00:00:00 | |
| OE3JTB-15 | 2026-09-02 01:14:15 | 46.05012 | 14.05453 | 99° | 53km/h | 15139m | -5.2m/s | -54.2°C | 4.4% | 0hPa | 2.5V | 08:04:00 | 00:00:00 | 00:00:00 | |
| 9A1FER-10 | 2026-09-02 01:14:14 | 46.05014 | 14.05427 | 95° | 60km/h | 15144m | -5.1m/s | -54.2°C | 4.4% | 0hPa | 2.5V | 00:00:00 | 02:49:44 | 00:00:00 | |
| 9A1FER-3 | 2026-09-02 01:14:11 | 46.05013 | 14.05347 | 86° | 53km/h | 15162m | -6.5m/s | -54.2°C | 4.3% | 0hPa | 2.5V | 00:00:00 | 02:49:41 | 00:00:00 | |
| DO3MHA-11 | 2026-09-02 01:14:05 | 46.04984 | 14.05203 | 62° | 51km/h | 15199m | -5.9m/s | -54.3°C | 4.3% | 0hPa | 2.5V | 00:00:00 | 02:49:35 | 00:00:00 | |
| 9A1FER-10 | 2026-09-02 01:13:59 | 46.04966 | 14.05124 | 102° | 64km/h | 15234m | -5.7m/s | -54.4°C | 4.4% | 0hPa | 2.5V | 00:00:00 | 02:49:29 | 00:00:00 | |
| OE8JPQ-2 | 2026-09-02 01:13:57 | 46.04971 | 14.05094 | 108° | 58km/h | 15246m | -5.9m/s | -54.5°C | 4.5% | 0hPa | 2.5V | 00:00:00 | 00:00:00 | 00:00:00 | |
| 9A1FER-3 | 2026-09-02 01:13:56 | 46.04975 | 14.05075 | 107° | 64km/h | 15252m | -5.9m/s | -54.6°C | 4.5% | 0hPa | 2.5V | 08:05:00 | 02:49:26 | 00:00:00 | |
| DO3MHA-11 | 2026-09-02 01:13:54 | 46.04983 | 14.05030 | 100° | 71km/h | 15263m | -5.7m/s | -54.7°C | 4.5% | 0hPa | 2.5V | 00:00:00 | 02:49:24 | 00:00:00 | |
| OE5DXL-15 | 2026-09-02 01:13:49 | 46.04980 | 14.04895 | 77° | 57km/h | 15294m | -6.4m/s | -54.8°C | 4.5% | 0hPa | 2.5V | 00:00:00 | 00:00:00 | 00:00:00 | |
| SOBLACK | 2026-09-02 01:13:45 | 46.04963 | 14.04823 | 65° | 64km/h | 15313m | -6.1m/s | -54.9°C | 1.7% | 0hPa | 2.5V | 08:05:00 | 00:00:00 | 00:00:00 | |
| DO3MHA-11 | 2026-09-02 01:13:44 | 46.04949 | 14.04787 | 61° | 47km/h | 15325m | -5.9m/s | -54.9°C | 4.4% | 0hPa | 2.5V | 00:00:00 | 02:49:14 | 00:00:00 | |
| 9A1FER-3 | 2026-09-02 01:13:41 | 46.04938 | 14.04748 | 84° | 62km/h | 15342m | -6.0m/s | -54.9°C | 4.5% | 0hPa | 2.5V | 00:00:00 | 02:49:11 | 00:00:00 | |
| DO3MHA-12 | 2026-09-02 01:13:38 | 46.04943 | 14.04706 | 107° | 53km/h | 15360m | -5.8m/s | -54.8°C | 4.5% | 0hPa | 2.5V | 00:00:00 | 02:49:08 | 00:00:00 | |
| OE8JPQ-2 | 2026-09-02 01:13:37 | 46.04947 | 14.04687 | 105° | 57km/h | 15366m | -5.8m/s | -54.9°C | 4.5% | 0hPa | 2.5V | 00:00:00 | 00:00:00 | 00:00:00 | |
| IN3HCDX1 | 2026-09-02 01:13:36 | 46.04947 | 14.04687 | 106° | 58km/h | 15366m | -5.9m/s | -54.9°C | 1.7% | 0hPa | 2.5V | 08:06:00 | 00:00:00 | 00:00:00 | |
| DO3MHA-11 | 2026-09-02 01:13:34 | 46.04955 | 14.04615 | 93° | 68km/h | 15383m | -5.9m/s | -54.9°C | 4.6% | 0hPa | 2.5V | 00:00:00 | 02:49:04 | 00:00:00 | |
| 9A1FER-10 | 2026-09-02 01:13:29 | 46.04940 | 14.04483 | 69° | 47km/h | 15413m | -5.7m/s | -55.1°C | 4.7% | 0hPa | 2.5V | 00:00:00 | 02:48:59 | 00:00:00 | |
| 9A1FER-3 | 2026-09-02 01:13:26 | 46.04918 | 14.04421 | 58° | 46km/h | 15430m | -6.4m/s | -55.2°C | 4.6% | 0hPa | 2.5V | 00:00:00 | 02:48:56 | 00:00:00 | |
| DO3MHA-11 | 2026-09-02 01:13:24 | 46.04902 | 14.04389 | 55° | 40km/h | 15443m | -6.6m/s | -55.3°C | 4.6% | 0hPa | 2.5V | 08:05:00 | 02:48:54 | 00:00:00 | |
| DO3MHA-12 | 2026-09-02 01:13:22 | 46.04889 | 14.04363 | 55° | 40km/h | 15456m | -6.3m/s | -55.3°C | 4.7% | 0hPa | 2.5V | 00:00:00 | 02:48:52 | 00:00:00 | |
| OE5DXL-15 | 2026-09-02 01:13:19 | 46.04879 | 14.04332 | 84° | 53km/h | 15474m | -5.7m/s | -55.2°C | 4.6% | 0hPa | 2.5V | 00:00:00 | 00:00:00 | 00:00:00 | |
| OE8JPQ-2 | 2026-09-02 01:13:17 | 46.04880 | 14.04308 | 103° | 55km/h | 15486m | -5.6m/s | -55.0°C | 4.6% | 0hPa | 2.5V | 00:00:00 | 02:48:47 | 00:00:00 | |
| IN3HCDX1 | 2026-09-02 01:13:15 | 46.04883 | 14.04293 | 104° | 46km/h | 15491m | -5.9m/s | -55.1°C | 1.7% | 0hPa | 2.5V | 08:06:00 | 00:00:00 | 00:00:00 | |
| 9A1FER-10 | 2026-09-02 01:13:14 | 46.04888 | 14.04255 | 98° | 60km/h | 15504m | -6.4m/s | -55.1°C | 4.6% | 0hPa | 2.5V | 00:00:00 | 02:48:44 | 00:00:00 | |
| DO3MHA-12 | 2026-09-02 01:13:11 | 46.04888 | 14.04186 | 84° | 64km/h | 15522m | -5.8m/s | -55.2°C | 4.6% | 0hPa | 2.5V | 00:00:00 | 02:48:41 | 00:00:00 | |
| DO3MHA-11 | 2026-09-02 01:13:04 | 46.04843 | 14.04027 | 55° | 40km/h | 15566m | -6.7m/s | -55.2°C | 4.6% | 0hPa | 2.5V | 00:00:00 | 02:48:34 | 00:00:00 | |
| SOBLACK | 2026-09-02 01:13:03 | 46.04843 | 14.04027 | 55° | 60km/h | 15566m | -6.7m/s | -55.2°C | 1.7% | 0hPa | 2.5V | 08:06:00 | 00:00:00 | 00:00:00 | |
| DO3MHA-12 | 2026-09-02 01:13:01 | 46.04819 | 14.03983 | 52° | 40km/h | 15585m | -5.8m/s | -55.0°C | 4.6% | 0hPa | 2.5V | 08:05:00 | 02:48:31 | 00:00:00 | |
| OE5DRO-10 | 2026-09-02 01:13:00 | 46.04813 | 14.03973 | 56° | 57km/h | 15591m | -5.5m/s | -55.0°C | 4.6% | 0hPa | 2.5V | 00:00:00 | 00:00:00 | 00:00:00 | |
| 9A1FER-10 | 2026-09-02 01:12:59 | 46.04809 | 14.03963 | 69° | 57km/h | 15597m | -6.0m/s | -55.0°C | 4.5% | 0hPa | 2.5V | 00:00:00 | 02:48:29 | 00:00:00 | |
| OE8JPQ-2 | 2026-09-02 01:12:57 | 46.04808 | 14.03943 | 96° | 55km/h | 15609m | -6.5m/s | -55.0°C | 4.5% | 0hPa | 2.6V | 08:06:00 | 00:00:00 | 00:00:00 | |
| 9A1FER-3 | 2026-09-02 01:12:56 | 46.04809 | 14.03930 | 101° | 62km/h | 15615m | -6.3m/s | -55.0°C | 4.5% | 0hPa | 2.5V | 00:00:00 | 02:48:26 | 00:00:00 | |
| IN3HCDX1 | 2026-09-02 01:12:55 | 46.04809 | 14.03930 | 101° | 38km/h | 15615m | -6.4m/s | -55.1°C | 1.7% | 0hPa | 2.5V | 08:06:00 | 00:00:00 | 00:00:00 | |
| DO3MHA-11 | 2026-09-02 01:12:54 | 46.04813 | 14.03898 | 100° | 69km/h | 15628m | -5.8m/s | -55.1°C | 4.6% | 0hPa | 2.5V | 00:00:00 | 02:48:24 | 00:00:00 | |
| DO3MHA-12 | 2026-09-02 01:12:51 | 46.04815 | 14.03829 | 86° | 53km/h | 15645m | -6.0m/s | -55.2°C | 4.6% | 0hPa | 2.5V | 00:00:00 | 02:48:21 | 00:00:00 | |
| OE5DXL-15 | 2026-09-02 01:12:49 | 46.04808 | 14.03776 | 75° | 58km/h | 15657m | -6.1m/s | -55.2°C | 4.6% | 0hPa | 2.5V | 00:00:00 | 00:00:00 | 00:00:00 | |
| DO3MHA-11 | 2026-09-02 01:12:44 | 46.04769 | 14.03662 | 52° | 44km/h | 15689m | -6.0m/s | -55.2°C | 4.5% | 0hPa | 2.5V | 00:00:00 | 02:48:14 | 00:00:00 | |
| SOBLACK | 2026-09-02 01:12:43 | 46.04769 | 14.03662 | 52° | 62km/h | 15689m | -6.1m/s | -55.3°C | 1.7% | 0hPa | 2.5V | 08:07:00 | 00:00:00 | 00:00:00 | |
| 9A1FER-3 | 2026-09-02 01:12:41 | 46.04742 | 14.03619 | 47° | 57km/h | 15708m | -6.5m/s | -55.3°C | 4.5% | 0hPa | 2.5V | 00:00:00 | 02:48:11 | 00:00:00 | |
| OE8JPQ-2 | 2026-09-02 01:12:37 | 46.04727 | 14.03576 | 89° | 58km/h | 15732m | -5.6m/s | -55.3°C | 4.5% | 0hPa | 2.5V | 00:00:00 | 00:00:00 | 00:00:00 | |
| IN3HCDX1 | 2026-09-02 01:12:35 | 46.04728 | 14.03562 | 95° | 44km/h | 15738m | -5.9m/s | -55.3°C | 1.7% | 0hPa | 2.5V | 08:07:00 | 00:00:00 | 00:00:00 | |
| DO3MHA-11 | 2026-09-02 01:12:34 | 46.04729 | 14.03524 | 92° | 71km/h | 15750m | -6.0m/s | -55.3°C | 4.6% | 0hPa | 2.5V | 00:00:00 | 02:48:04 | 00:00:00 | |
| 9A1FER-10 | 2026-09-02 01:12:29 | 46.04714 | 14.03397 | 69° | 57km/h | 15782m | -6.3m/s | -55.5°C | 4.6% | 0hPa | 2.5V | 00:00:00 | 02:47:59 | 00:00:00 | |
| 9A1FER-3 | 2026-09-02 01:12:26 | 46.04685 | 14.03324 | 52° | 57km/h | 15801m | -6.2m/s | -55.6°C | 4.6% | 0hPa | 2.5V | 00:00:00 | 02:47:56 | 00:00:00 | |
| DO3MHA-11 | 2026-09-02 01:12:24 | 46.04662 | 14.03288 | 44° | 49km/h | 15814m | -6.1m/s | -55.7°C | 4.7% | 0hPa | 2.5V | 00:00:00 | 02:47:54 | 00:00:00 | |
| OE5DRO-10 | 2026-09-02 01:12:22 | 46.04643 | 14.03262 | 46° | 60km/h | 15826m | -5.8m/s | -55.8°C | 4.7% | 0hPa | 2.5V | 00:00:00 | 00:00:00 | 00:00:00 | |
| IN3HCDX | 2026-09-02 01:12:21 | 46.04643 | 14.03262 | 46° | 44km/h | 15826m | -5.8m/s | -55.8°C | 1.7% | 0hPa | 2.5V | 08:07:00 | 00:00:00 | 00:00:00 | |
| OE5DXL-15 | 2026-09-02 01:12:19 | 46.04630 | 14.03227 | 83° | 64km/h | 15843m | -5.9m/s | -55.9°C | 4.7% | 0hPa | 2.5V | 00:00:00 | 00:00:00 | 00:00:00 | |
| OE8JPQ-2 | 2026-09-02 01:12:17 | 46.04630 | 14.03195 | 94° | 60km/h | 15855m | -6.4m/s | -56.0°C | 4.7% | 0hPa | 2.5V | 00:00:00 | 02:47:47 | 00:00:00 | |
| 9A1FER-10 | 2026-09-02 01:12:14 | 46.04631 | 14.03127 | 88° | 62km/h | 15876m | -7.0m/s | -56.0°C | 4.7% | 0hPa | 2.5V | 00:00:00 | 02:47:44 | 00:00:00 | |
| 9A1FER-3 | 2026-09-02 01:12:11 | 46.04621 | 14.03044 | 73° | 58km/h | 15895m | -6.0m/s | -55.9°C | 4.8% | 0hPa | 2.5V | 00:00:00 | 02:47:41 | 00:00:00 | |
| DO3MHA-11 | 2026-09-02 01:12:04 | 46.04556 | 14.02902 | 52° | 51km/h | 15938m | -6.4m/s | -55.8°C | 4.7% | 0hPa | 2.5V | 00:00:00 | 02:47:34 | 00:00:00 | |
| DO3MHA-12 | 2026-09-02 01:12:03 | 46.04550 | 14.02890 | 61° | 55km/h | 15945m | -6.4m/s | -55.8°C | 4.7% | 0hPa | 2.5V | 00:00:00 | 02:47:33 | 00:00:00 | |
| SOBLACK | 2026-09-02 01:12:01 | 46.04546 | 14.02877 | 72° | 37km/h | 15951m | -6.3m/s | -55.9°C | 1.7% | 0hPa | 2.5V | 08:07:00 | 00:00:00 | 00:00:00 | |
| 9A1FER-10 | 2026-09-02 01:11:59 | 46.04544 | 14.02832 | 97° | 69km/h | 15969m | -5.8m/s | -55.8°C | 4.7% | 0hPa | 2.5V | 00:00:00 | 02:47:29 | 00:00:00 | |
| OE8JPQ-2 | 2026-09-02 01:11:57 | 46.04547 | 14.02790 | 97° | 64km/h | 15982m | -6.4m/s | -55.8°C | 4.7% | 0hPa | 2.5V | 00:00:00 | 00:00:00 | 00:00:00 | |
| 9A1FER-3 | 2026-09-02 01:11:56 | 46.04549 | 14.02766 | 94° | 68km/h | 15989m | -6.8m/s | -55.8°C | 4.6% | 0hPa | 2.5V | 00:00:00 | 02:47:26 | 00:00:00 | |
| DO3MHA-11 | 2026-09-02 01:11:54 | 46.04549 | 14.02712 | 88° | 73km/h | 16002m | -6.8m/s | -55.9°C | 4.7% | 0hPa | 2.5V | 08:07:00 | 02:47:24 | 00:00:00 | |
| DO3MHA-12 | 2026-09-02 01:11:53 | 46.04548 | 14.02683 | 83° | 68km/h | 16009m | -6.9m/s | -55.9°C | 4.7% | 0hPa | 2.6V | 00:00:00 | 02:47:23 | 00:00:00 | |
| OE5DXL-15 | 2026-09-02 01:11:49 | 46.04523 | 14.02569 | 62° | 64km/h | 16035m | -5.8m/s | -56.1°C | 4.8% | 0hPa | 2.5V | 00:00:00 | 00:00:00 | 00:00:00 | |
| DO3MHA-11 | 2026-09-02 01:11:44 | 46.04479 | 14.02477 | 61° | 58km/h | 16066m | -6.3m/s | -56.0°C | 4.7% | 0hPa | 2.5V | 00:00:00 | 02:47:14 | 00:00:00 | |
| DO3MHA-12 | 2026-09-02 01:11:43 | 46.04475 | 14.02462 | 71° | 62km/h | 16072m | -6.4m/s | -55.9°C | 4.7% | 0hPa | 2.5V | 00:00:00 | 02:47:13 | 00:00:00 | |
| IN3HCDX | 2026-09-02 01:11:41 | 46.04471 | 14.02433 | 91° | 44km/h | 16085m | -6.3m/s | -56.0°C | 1.7% | 0hPa | 2.5V | 00:00:00 | 00:00:00 | 00:00:00 | |
| SOBLACK | 2026-09-02 01:11:40 | 46.04471 | 14.02433 | 91° | 44km/h | 16085m | -6.3m/s | -56.0°C | 1.7% | 0hPa | 2.5V | 08:07:00 | 00:00:00 | 00:00:00 | |
| OE8JPQ-2 | 2026-09-02 01:11:37 | 46.04478 | 14.02349 | 95° | 68km/h | 16110m | -6.1m/s | -56.2°C | 4.6% | 0hPa | 2.5V | 00:00:00 | 00:00:00 | 00:00:00 | |
| DO3MHA-11 | 2026-09-02 01:11:34 | 46.04477 | 14.02261 | 84° | 77km/h | 16128m | -6.1m/s | -56.3°C | 4.7% | 0hPa | 2.5V | 00:00:00 | 02:47:04 | 00:00:00 | |
| DO3MHA-12 | 2026-09-02 01:11:33 | 46.04474 | 14.02229 | 80° | 73km/h | 16134m | -6.0m/s | -56.3°C | 4.7% | 0hPa | 2.5V | 00:00:00 | 02:47:03 | 00:00:00 | |
| 9A1FER-10 | 2026-09-02 01:11:29 | 46.04451 | 14.02108 | 71° | 53km/h | 16159m | -5.9m/s | -56.4°C | 4.9% | 0hPa | 2.5V | 08:07:00 | 02:46:59 | 00:00:00 | |
| IV3AMH | 2026-09-02 01:11:27 | 46.04438 | 14.02059 | 72° | 66km/h | 16170m | -4.9m/s | -56.6°C | 1.9% | 0hPa | 2.5V | 00:00:00 | 00:00:00 | 00:00:00 | |
| OE5DRO-10 | 2026-09-02 01:11:25 | 46.04429 | 14.02018 | 75° | 60km/h | 16180m | -5.6m/s | -56.7°C | 5.0% | 0hPa | 2.5V | 00:00:00 | 00:00:00 | 00:00:00 | |
| DO3MHA-11 | 2026-09-02 01:11:24 | 46.04425 | 14.01999 | 76° | 47km/h | 16185m | -5.6m/s | -56.7°C | 5.0% | 0hPa | 2.5V | 00:00:00 | 02:46:54 | 00:00:00 | |
| DO3MHA-12 | 2026-09-02 01:11:23 | 46.04422 | 14.01981 | 73° | 49km/h | 16191m | -5.9m/s | -56.7°C | 5.0% | 0hPa | 2.5V | 00:00:00 | 02:46:53 | 00:00:00 | |
| OE5DXL-15 | 2026-09-02 01:11:19 | 46.04405 | 14.01916 | 70° | 58km/h | 16217m | -7.3m/s | -56.7°C | 4.8% | 0hPa | 2.5V | 00:00:00 | 00:00:00 | 00:00:00 | |
| OE8JPQ-2 | 2026-09-02 01:11:17 | 46.04399 | 14.01886 | 83° | 62km/h | 16232m | -6.8m/s | -56.8°C | 4.9% | 0hPa | 2.5V | 00:00:00 | 02:46:47 | 00:00:00 | |
| 9A1FER-10 | 2026-09-02 01:11:14 | 46.04402 | 14.01834 | 104° | 69km/h | 16252m | -6.1m/s | -56.6°C | 4.8% | 0hPa | 2.5V | 00:00:00 | 02:46:44 | 00:00:00 | |
| IN3HCDX1 | 2026-09-02 01:11:13 | 46.04403 | 14.01834 | 104° | 57km/h | 16252m | -6.2m/s | -56.6°C | 1.8% | 0hPa | 2.5V | 08:07:00 | 00:00:00 | 00:00:00 | |
| DO3MHA-12 | 2026-09-02 01:11:12 | 46.04410 | 14.01789 | 102° | 75km/h | 16264m | -6.3m/s | -56.6°C | 4.8% | 0hPa | 2.5V | 00:00:00 | 02:46:42 | 00:00:00 | |
| 9A1FER-3 | 2026-09-02 01:11:11 | 46.04413 | 14.01761 | 100° | 62km/h | 16271m | -6.2m/s | -56.6°C | 4.8% | 0hPa | 2.5V | 00:00:00 | 02:46:41 | 00:00:00 | |
| OE5DRO-10 | 2026-09-02 01:11:06 | 46.04410 | 14.01607 | 77° | 57km/h | 16303m | -5.8m/s | -56.7°C | 4.9% | 0hPa | 2.5V | 00:00:00 | 00:00:00 | 00:00:00 | |
| DO3MHA-11 | 2026-09-02 01:11:04 | 46.04398 | 14.01556 | 68° | 44km/h | 16316m | -6.6m/s | -56.8°C | 4.9% | 0hPa | 2.5V | 00:00:00 | 02:46:34 | 00:00:00 | |
| DO3MHA-12 | 2026-09-02 01:11:02 | 46.04386 | 14.01517 | 66° | 42km/h | 16329m | -6.4m/s | -56.9°C | 4.9% | 0hPa | 2.5V | 00:00:00 | 02:46:32 | 00:00:00 | |
| 9A1FER-10 | 2026-09-02 01:10:59 | 46.04376 | 14.01475 | 86° | 58km/h | 16348m | -6.8m/s | -57.0°C | 4.9% | 0hPa | 2.5V | 00:00:00 | 02:46:29 | 00:00:00 | |
| SOBLACK | 2026-09-02 01:10:58 | 46.04377 | 14.01475 | 86° | 33km/h | 16348m | -6.8m/s | -57.1°C | 1.8% | 0hPa | 2.5V | 08:08:00 | 00:00:00 | 00:00:00 | |
| OE8JPQ-2 | 2026-09-02 01:10:57 | 46.04378 | 14.01451 | 106° | 57km/h | 16362m | -7.3m/s | -57.1°C | 4.9% | 0hPa | 2.5V | 00:00:00 | 00:00:00 | 00:00:00 | |
| DO3MHA-11 | 2026-09-02 01:10:54 | 46.04391 | 14.01409 | 116° | 69km/h | 16383m | -6.7m/s | -57.2°C | 5.1% | 0hPa | 2.5V | 00:00:00 | 02:46:24 | 00:00:00 | |
| DO3MHA-12 | 2026-09-02 01:10:52 | 46.04402 | 14.01370 | 108° | 73km/h | 16396m | -5.9m/s | -57.2°C | 5.1% | 0hPa | 2.5V | 08:08:00 | 02:46:22 | 00:00:00 | |
| OE5DXL-15 | 2026-09-02 01:10:49 | 46.04410 | 14.01292 | 91° | 57km/h | 16413m | -6.1m/s | -57.2°C | 5.1% | 0hPa | 2.5V | 00:00:00 | 00:00:00 | 00:00:00 | |
| IV3AMH | 2026-09-02 01:10:48 | 46.04410 | 14.01292 | 91° | 77km/h | 16413m | -6.1m/s | -57.2°C | 1.9% | 0hPa | 2.5V | 08:08:00 | 00:00:00 | 00:00:00 | |
| OE5DRO-10 | 2026-09-02 01:10:47 | 46.04407 | 14.01236 | 81° | 57km/h | 16426m | -7.0m/s | -57.2°C | 5.0% | 0hPa | 2.5V | 00:00:00 | 00:00:00 | 00:00:00 | |
| 9A1FER-10 | 2026-09-02 01:10:44 | 46.04392 | 14.01160 | 68° | 51km/h | 16448m | -7.4m/s | -57.3°C | 5.0% | 0hPa | 2.5V | 00:00:00 | 02:46:14 | 00:00:00 | |
| DO3MHA-12 | 2026-09-02 01:10:42 | 46.04378 | 14.01120 | 60° | 44km/h | 16462m | -6.2m/s | -57.3°C | 5.1% | 0hPa | 2.6V | 00:00:00 | 02:46:12 | 00:00:00 | |
| SOBLACK | 2026-09-02 01:10:38 | 46.04363 | 14.01069 | 93° | 29km/h | 16486m | -6.0m/s | -57.2°C | 1.8% | 0hPa | 2.6V | 08:08:00 | 00:00:00 | 00:00:00 | |
| OE8JPQ-2 | 2026-09-02 01:10:37 | 46.04364 | 14.01058 | 105° | 53km/h | 16492m | -6.3m/s | -57.2°C | 5.0% | 0hPa | 2.6V | 00:00:00 | 00:00:00 | 00:00:00 | |
| DO3MHA-11 | 2026-09-02 01:10:34 | 46.04375 | 14.01016 | 112° | 68km/h | 16513m | -7.0m/s | -57.1°C | 5.0% | 0hPa | 2.6V | 00:00:00 | 02:46:04 | 00:00:00 | |
| DO3MHA-12 | 2026-09-02 01:10:32 | 46.04384 | 14.00976 | 107° | 68km/h | 16527m | -6.8m/s | -57.1°C | 5.0% | 0hPa | 2.6V | 00:00:00 | 02:46:02 | 00:00:00 | |
| IN3HCDX1 | 2026-09-02 01:10:31 | 46.04384 | 14.00976 | 108° | 64km/h | 16527m | -6.9m/s | -57.2°C | 1.8% | 0hPa | 2.6V | 08:08:00 | 00:00:00 | 00:00:00 | |
| 9A1FER-10 | 2026-09-02 01:10:29 | 46.04392 | 14.00899 | 90° | 49km/h | 16547m | -5.9m/s | -57.0°C | 5.0% | 0hPa | 2.6V | 00:00:00 | 02:45:59 | 00:00:00 | |
| OE5DRO-10 | 2026-09-02 01:10:28 | 46.04390 | 14.00872 | 83° | 55km/h | 16553m | -6.1m/s | -57.0°C | 5.0% | 0hPa | 2.6V | 00:00:00 | 00:00:00 | 00:00:00 | |
| 9A1FER-3 | 2026-09-02 01:10:26 | 46.04382 | 14.00821 | 70° | 49km/h | 16565m | -6.5m/s | -57.0°C | 4.9% | 0hPa | 2.6V | 00:00:00 | 02:45:56 | 00:00:00 | |
| DO3MHA-11 | 2026-09-02 01:10:24 | 46.04368 | 14.00780 | 60° | 40km/h | 16578m | -6.8m/s | -56.9°C | 4.8% | 0hPa | 2.6V | 08:08:00 | 02:45:54 | 00:00:00 | |
| OE5DXL-15 | 2026-09-02 01:10:19 | 46.04343 | 14.00719 | 80° | 58km/h | 16615m | -7.0m/s | -57.0°C | 4.9% | 0hPa | 2.6V | 00:00:00 | 00:00:00 | 00:00:00 | |
| IN3HCDX | 2026-09-02 01:10:17 | 46.04345 | 14.00700 | 112° | 33km/h | 16628m | -6.1m/s | -56.9°C | 1.7% | 0hPa | 2.6V | 08:08:00 | 00:00:00 | 00:00:00 | |
| DO3MHA-11 | 2026-09-02 01:10:14 | 46.04358 | 14.00651 | 107° | 71km/h | 16646m | -6.3m/s | -56.9°C | 4.9% | 0hPa | 2.6V | 00:00:00 | 02:45:44 | 00:00:00 | |
| DO3MHA-12 | 2026-09-02 01:10:12 | 46.04364 | 14.00602 | 95° | 68km/h | 16660m | -7.2m/s | -56.9°C | 4.9% | 0hPa | 2.6V | 00:00:00 | 02:45:42 | 00:00:00 | |
| 9A1FER-3 | 2026-09-02 01:10:11 | 46.04365 | 14.00575 | 90° | 57km/h | 16667m | -7.2m/s | -56.9°C | 4.8% | 0hPa | 2.6V | 00:00:00 | 02:45:41 | 00:00:00 | |
| IV3AMH | 2026-09-02 01:10:10 | 46.04365 | 14.00575 | 91° | 75km/h | 16667m | -7.3m/s | -57.0°C | 1.7% | 0hPa | 2.6V | 00:00:00 | 00:00:00 | 00:00:00 | |
| OE5DRO-10 | 2026-09-02 01:10:09 | 46.04360 | 14.00520 | 78° | 58km/h | 16681m | -7.2m/s | -56.9°C | 4.8% | 0hPa | 2.6V | 00:00:00 | 00:00:00 | 00:00:00 | |
| DO3MHA-11 | 2026-09-02 01:10:04 | 46.04323 | 14.00408 | 52° | 46km/h | 16716m | -6.5m/s | -56.8°C | 4.7% | 0hPa | 2.6V | 00:00:00 | 02:45:34 | 00:00:00 | |
| DO3MHA-12 | 2026-09-02 01:10:02 | 46.04308 | 14.00381 | 54° | 49km/h | 16730m | -6.6m/s | -56.8°C | 4.7% | 0hPa | 2.6V | 00:00:00 | 02:45:32 | 00:00:00 | |
| 9A1FER-10 | 2026-09-02 01:09:59 | 46.04301 | 14.00348 | 94° | 68km/h | 16750m | -6.4m/s | -56.9°C | 4.7% | 0hPa | 2.6V | 00:00:00 | 02:45:29 | 00:00:00 | |
| OE8JPQ-2 | 2026-09-02 01:09:57 | 46.04304 | 14.00318 | 104° | 62km/h | 16763m | -6.6m/s | -57.0°C | 4.7% | 0hPa | 2.5V | 08:09:00 | 00:00:00 | 00:00:00 | |
| 9A1FER-3 | 2026-09-02 01:09:56 | 46.04307 | 14.00299 | 103° | 68km/h | 16770m | -6.9m/s | -57.0°C | 4.7% | 0hPa | 2.5V | 00:00:00 | 02:45:26 | 00:00:00 | |
| IN3HCDX | 2026-09-02 01:09:55 | 46.04307 | 14.00299 | 103° | 58km/h | 16770m | -6.9m/s | -57.1°C | 1.6% | 0hPa | 2.5V | 00:00:00 | 00:00:00 | 00:00:00 | |
| DO3MHA-11 | 2026-09-02 01:09:54 | 46.04312 | 14.00252 | 95° | 77km/h | 16784m | -6.9m/s | -57.1°C | 4.6% | 0hPa | 2.5V | 00:00:00 | 02:45:24 | 00:00:00 | |
| DO3MHA-12 | 2026-09-02 01:09:52 | 46.04312 | 14.00196 | 86° | 69km/h | 16798m | -7.1m/s | -57.2°C | 4.7% | 0hPa | 2.6V | 00:00:00 | 02:45:22 | 00:00:00 | |
| OE3JTB-15 | 2026-09-02 01:09:51 | 46.04310 | 14.00166 | 81° | 68km/h | 16805m | -7.0m/s | -57.3°C | 4.8% | 0hPa | 2.5V | 00:00:00 | 00:00:00 | 00:00:00 | |
| OE5DRO-10 | 2026-09-02 01:09:50 | 46.04305 | 14.00136 | 76° | 64km/h | 16812m | -7.5m/s | -57.4°C | 4.8% | 0hPa | 2.5V | 00:00:00 | 00:00:00 | 00:00:00 | |
| OE5DXL-15 | 2026-09-02 01:09:49 | 46.04299 | 14.00107 | 71° | 64km/h | 16819m | -6.9m/s | -57.4°C | 4.9% | 0hPa | 2.5V | 08:09:00 | 00:00:00 | 00:00:00 | |
| DO3MHA-11 | 2026-09-02 01:09:44 | 46.04260 | 13.99996 | 65° | 51km/h | 16851m | -6.1m/s | -57.8°C | 5.1% | 0hPa | 2.5V | 00:00:00 | 02:45:14 | 00:00:00 | |
| DO3MHA-12 | 2026-09-02 01:09:42 | 46.04253 | 13.99966 | 80° | 58km/h | 16864m | -6.6m/s | -57.8°C | 5.1% | 0hPa | 2.5V | 00:00:00 | 02:45:12 | 00:00:00 | |
| 9A1FER-3 | 2026-09-02 01:09:41 | 46.04252 | 13.99952 | 87° | 71km/h | 16871m | -7.0m/s | -57.8°C | 5.1% | 0hPa | 2.5V | 00:00:00 | 02:45:11 | 00:00:00 | |
| OE8JPQ-2 | 2026-09-02 01:09:37 | 46.04259 | 13.99882 | 106° | 68km/h | 16900m | -7.5m/s | -57.8°C | 4.9% | 0hPa | 2.5V | 00:00:00 | 00:00:00 | 00:00:00 | |
| SOBLACK | 2026-09-02 01:09:36 | 46.04259 | 13.99882 | 106° | 60km/h | 16900m | -7.6m/s | -57.8°C | 1.7% | 0hPa | 2.5V | 08:09:00 | 00:00:00 | 00:00:00 | |
| DO3MHA-11 | 2026-09-02 01:09:34 | 46.04272 | 13.99809 | 102° | 82km/h | 16923m | -7.3m/s | -57.6°C | 4.9% | 0hPa | 2.5V | 00:00:00 | 02:45:04 | 00:00:00 | |
| IV3AMH | 2026-09-02 01:09:33 | 46.04272 | 13.99809 | 103° | 78km/h | 16923m | -7.4m/s | -57.6°C | 1.7% | 0hPa | 2.5V | 00:00:00 | 00:00:00 | 00:00:00 | |
| DO3MHA-12 | 2026-09-02 01:09:32 | 46.04279 | 13.99749 | 95° | 78km/h | 16937m | -6.7m/s | -57.6°C | 4.9% | 0hPa | 2.5V | 00:00:00 | 02:45:02 | 00:00:00 | |
| OE5DRO-10 | 2026-09-02 01:09:31 | 46.04279 | 13.99717 | 90° | 62km/h | 16944m | -6.7m/s | -57.6°C | 5.0% | 0hPa | 2.5V | 00:00:00 | 00:00:00 | 00:00:00 | |
| 9A1FER-10 | 2026-09-02 01:09:29 | 46.04275 | 13.99653 | 79° | 57km/h | 16957m | -6.0m/s | -57.6°C | 5.1% | 0hPa | 2.5V | 00:00:00 | 02:44:59 | 00:00:00 | |
| 9A1FER-3 | 2026-09-02 01:09:26 | 46.04257 | 13.99568 | 69° | 55km/h | 16977m | -7.4m/s | -57.6°C | 5.0% | 0hPa | 2.5V | 08:09:00 | 02:44:56 | 00:00:00 | |
| DO3MHA-11 | 2026-09-02 01:09:24 | 46.04243 | 13.99522 | 65° | 46km/h | 16991m | -7.0m/s | -57.6°C | 4.9% | 0hPa | 2.5V | 00:00:00 | 02:44:54 | 00:00:00 | |
| DO3MHA-12 | 2026-09-02 01:09:22 | 46.04231 | 13.99486 | 67° | 47km/h | 17006m | -7.1m/s | -57.6°C | 4.9% | 0hPa | 2.6V | 08:09:00 | 02:44:52 | 00:00:00 | |
| OE5WHR-10 | 2026-09-02 01:09:20 | 46.04225 | 13.99457 | 81° | 53km/h | 17020m | -6.9m/s | -57.7°C | 4.9% | 0hPa | 2.6V | 00:00:00 | 00:00:00 | 00:00:00 | |
| OE5DXL-15 | 2026-09-02 01:09:19 | 46.04224 | 13.99444 | 91° | 60km/h | 17027m | -7.1m/s | -57.7°C | 5.0% | 0hPa | 2.6V | 00:00:00 | 00:00:00 | 00:00:00 | |
| OE8JPQ-2 | 2026-09-02 01:09:17 | 46.04227 | 13.99416 | 108° | 62km/h | 17042m | -7.5m/s | -57.7°C | 5.0% | 0hPa | 2.6V | 00:00:00 | 02:44:47 | 00:00:00 | |
| SOBLACK | 2026-09-02 01:09:16 | 46.04227 | 13.99416 | 108° | 42km/h | 17042m | -7.5m/s | -57.7°C | 1.7% | 0hPa | 2.6V | 08:10:00 | 00:00:00 | 00:00:00 | |
| DO3MHA-11 | 2026-09-02 01:09:14 | 46.04241 | 13.99363 | 110° | 77km/h | 17064m | -7.0m/s | -57.6°C | 5.1% | 0hPa | 2.6V | 00:00:00 | 02:44:44 | 00:00:00 | |
| IN3HCDX | 2026-09-02 01:09:13 | 46.04241 | 13.99363 | 110° | 64km/h | 17064m | -7.0m/s | -57.6°C | 1.7% | 0hPa | 2.6V | 08:10:00 | 00:00:00 | 00:00:00 | |
| DO3MHA-12 | 2026-09-02 01:09:12 | 46.04250 | 13.99314 | 101° | 77km/h | 17077m | -6.6m/s | -57.5°C | 5.2% | 0hPa | 2.6V | 00:00:00 | 02:44:42 | 00:00:00 | |
| 9A1FER-3 | 2026-09-02 01:09:11 | 46.04253 | 13.99286 | 95° | 62km/h | 17084m | -6.7m/s | -57.4°C | 5.2% | 0hPa | 2.6V | 00:00:00 | 02:44:41 | 00:00:00 | |
| IN3HCDX1 | 2026-09-02 01:09:09 | 46.04254 | 13.99256 | 90° | 82km/h | 17091m | -6.6m/s | -57.4°C | 1.7% | 0hPa | 2.6V | 08:10:00 | 00:00:00 | 00:00:00 | |
| DO3MHA-11 | 2026-09-02 01:09:04 | 46.04223 | 13.99092 | 62° | 46km/h | 17134m | -7.5m/s | -57.0°C | 4.9% | 0hPa | 2.6V | 00:00:00 | 02:44:34 | 00:00:00 | |
| DO3MHA-12 | 2026-09-02 01:09:02 | 46.04207 | 13.99054 | 58° | 47km/h | 17149m | -7.4m/s | -57.0°C | 4.9% | 0hPa | 2.6V | 00:00:00 | 02:44:32 | 00:00:00 | |
| 9A1FER-10 | 2026-09-02 01:08:59 | 46.04192 | 13.99015 | 76° | 66km/h | 17171m | -7.4m/s | -56.0°C | 4.5% | 0hPa | 2.6V | 00:00:00 | 02:44:29 | 00:00:00 | |
| OE5WHR-10 | 2026-09-02 01:08:58 | 46.04192 | 13.99003 | 91° | 46km/h | 17178m | -7.3m/s | -56.0°C | 4.5% | 0hPa | 2.6V | 00:00:00 | 02:44:28 | 00:00:00 | |
| OE8JPQ-2 | 2026-09-02 01:08:57 | 46.04192 | 13.98991 | 102° | 64km/h | 17186m | -7.5m/s | -55.9°C | 4.5% | 0hPa | 2.6V | 00:00:00 | 00:00:00 | 00:00:00 | |
| 9A1FER-3 | 2026-09-02 01:08:56 | 46.04195 | 13.98976 | 107° | 71km/h | 17193m | -7.1m/s | -55.9°C | 4.5% | 0hPa | 2.5V | 00:00:00 | 02:44:26 | 00:00:00 | |
| DO3MHA-11 | 2026-09-02 01:08:54 | 46.04203 | 13.98938 | 106° | 80km/h | 17207m | -6.7m/s | -55.9°C | 4.5% | 0hPa | 2.5V | 08:10:00 | 02:44:24 | 00:00:00 | |
| OE5DRO-10 | 2026-09-02 01:08:53 | 46.04207 | 13.98915 | 102° | 64km/h | 17214m | -7.0m/s | -55.9°C | 4.5% | 0hPa | 2.5V | 08:10:00 | 00:00:00 | 00:00:00 | |
| DO3MHA-12 | 2026-09-02 01:08:52 | 46.04210 | 13.98888 | 98° | 78km/h | 17221m | -6.9m/s | -55.9°C | 4.5% | 0hPa | 2.5V | 00:00:00 | 02:44:22 | 00:00:00 | |
| OE3JTB-15 | 2026-09-02 01:08:51 | 46.04212 | 13.98860 | 94° | 71km/h | 17228m | -7.1m/s | -55.9°C | 4.5% | 0hPa | 2.5V | 00:00:00 | 00:00:00 | 00:00:00 | |
| IN3HCDX1 | 2026-09-02 01:08:50 | 46.04212 | 13.98829 | 90° | 86km/h | 17235m | -7.4m/s | -56.0°C | 1.5% | 0hPa | 2.5V | 08:10:00 | 00:00:00 | 00:00:00 | |
| OE5DXL-15 | 2026-09-02 01:08:49 | 46.04211 | 13.98798 | 85° | 66km/h | 17243m | -7.9m/s | -55.9°C | 4.5% | 0hPa | 2.5V | 00:00:00 | 00:00:00 | 00:00:00 | |
| DO3MHA-11 | 2026-09-02 01:08:44 | 46.04184 | 13.98656 | 64° | 49km/h | 17280m | -6.5m/s | -56.0°C | 4.7% | 0hPa | 2.5V | 00:00:00 | 02:44:14 | 00:00:00 | |
| DO3MHA-12 | 2026-09-02 01:08:42 | 46.04170 | 13.98618 | 62° | 51km/h | 17294m | -6.9m/s | -56.0°C | 4.7% | 0hPa | 2.5V | 00:00:00 | 02:44:12 | 00:00:00 | |
| 9A1FER-3 | 2026-09-02 01:08:41 | 46.04165 | 13.98603 | 67° | 66km/h | 17301m | -7.0m/s | -56.0°C | 4.7% | 0hPa | 2.5V | 00:00:00 | 02:44:11 | 00:00:00 | |
| OE5WHR-10 | 2026-09-02 01:08:37 | 46.04164 | 13.98548 | 110° | 55km/h | 17332m | -7.5m/s | -55.9°C | 4.5% | 0hPa | 2.6V | 08:10:00 | 00:00:00 | 00:00:00 | |
| SOBLACK | 2026-09-02 01:08:35 | 46.04169 | 13.98532 | 114° | 53km/h | 17339m | -7.4m/s | -55.8°C | 1.5% | 0hPa | 2.5V | 08:10:00 | 00:00:00 | 00:00:00 | |
| DO3MHA-11 | 2026-09-02 01:08:34 | 46.04181 | 13.98490 | 112° | 82km/h | 17354m | -7.4m/s | -55.4°C | 4.3% | 0hPa | 2.5V | 00:00:00 | 02:44:04 | 00:00:00 | |
| IN3HCDX | 2026-09-02 01:08:33 | 46.04188 | 13.98464 | 110° | 78km/h | 17362m | -7.3m/s | -55.3°C | 1.4% | 0hPa | 2.5V | 08:10:00 | 00:00:00 | 00:00:00 | |
| DO3MHA-12 | 2026-09-02 01:08:32 | 46.04194 | 13.98436 | 105° | 62km/h | 17369m | -7.6m/s | -55.2°C | 4.2% | 0hPa | 2.5V | 00:00:00 | 02:44:02 | 00:00:00 | |
| 9A1FER-10 | 2026-09-02 01:08:29 | 46.04203 | 13.98338 | 91° | 60km/h | 17392m | -7.4m/s | -55.3°C | 4.3% | 0hPa | 2.5V | 00:00:00 | 02:43:59 | 00:00:00 | |
| IN3HCDX1 | 2026-09-02 01:08:28 | 46.04203 | 13.98338 | 91° | 91km/h | 17392m | -7.5m/s | -55.3°C | 1.4% | 0hPa | 2.6V | 08:11:00 | 00:00:00 | 00:00:00 | |
| 9A1FER-3 | 2026-09-02 01:08:26 | 46.04195 | 13.98246 | 76° | 58km/h | 17413m | -6.6m/s | -55.3°C | 4.4% | 0hPa | 2.6V | 00:00:00 | 02:43:56 | 00:00:00 | |
| DO3MHA-11 | 2026-09-02 01:08:24 | 46.04184 | 13.98199 | 71° | 49km/h | 17427m | -7.2m/s | -55.4°C | 4.4% | 0hPa | 2.6V | 00:00:00 | 02:43:54 | 00:00:00 | |
| OE3JTB-15 | 2026-09-02 01:08:22 | 46.04176 | 13.98163 | 76° | 51km/h | 17442m | -7.8m/s | -55.4°C | 4.4% | 0hPa | 2.5V | 00:00:00 | 00:00:00 | 00:00:00 | |
| DO3MHA-12 | 2026-09-02 01:08:20 | 46.04174 | 13.98134 | 94° | 60km/h | 17458m | -8.0m/s | -55.4°C | 4.3% | 0hPa | 2.5V | 00:00:00 | 02:43:50 | 00:00:00 | |
| OE5DXL-15 | 2026-09-02 01:08:19 | 46.04175 | 13.98121 | 106° | 60km/h | 17466m | -7.8m/s | -55.4°C | 4.4% | 0hPa | 2.6V | 00:00:00 | 00:00:00 | 00:00:00 | |
| OE8JPQ-2 | 2026-09-02 01:08:17 | 46.04184 | 13.98093 | 123° | 60km/h | 17481m | -7.4m/s | -55.4°C | 4.3% | 0hPa | 2.5V | 00:00:00 | 02:43:47 | 00:00:00 | |
| OE5DRO-10 | 2026-09-02 01:08:15 | 46.04201 | 13.98058 | 124° | 60km/h | 17496m | -7.1m/s | -55.5°C | 4.4% | 0hPa | 2.5V | 00:00:00 | 00:00:00 | 00:00:00 | |
| 9A1FER-10 | 2026-09-02 01:08:14 | 46.04210 | 13.98037 | 121° | 62km/h | 17503m | -7.2m/s | -55.5°C | 4.4% | 0hPa | 2.5V | 00:00:00 | 02:43:44 | 00:00:00 | |
| 9A1FER-3 | 2026-09-02 01:08:11 | 46.04233 | 13.97956 | 105° | 55km/h | 17524m | -7.0m/s | -55.3°C | 4.4% | 0hPa | 2.5V | 00:00:00 | 02:43:41 | 00:00:00 | |
| DO3MHA-12 | 2026-09-02 01:08:10 | 46.04238 | 13.97926 | 100° | 58km/h | 17531m | -7.4m/s | -55.2°C | 4.4% | 0hPa | 2.5V | 00:00:00 | 02:43:40 | 00:00:00 | |
| IN3HCDX1 | 2026-09-02 01:08:08 | 46.04240 | 13.97895 | 95° | 84km/h | 17539m | -7.2m/s | -55.3°C | 1.4% | 0hPa | 2.5V | 08:11:00 | 00:00:00 | 00:00:00 | |
| DO3MHA-11 | 2026-09-02 01:08:04 | 46.04230 | 13.97774 | 77° | 51km/h | 17576m | -7.1m/s | -55.2°C | 4.4% | 0hPa | 2.5V | 00:00:00 | 02:43:34 | 00:00:00 | |
| OE5WHR-10 | 2026-09-02 01:08:01 | 46.04227 | 13.97734 | 100° | 53km/h | 17598m | -7.5m/s | -55.1°C | 4.3% | 0hPa | 2.5V | 00:00:00 | 00:00:00 | 00:00:00 | |
| DO3MHA-12 | 2026-09-02 01:08:00 | 46.04230 | 13.97724 | 115° | 35km/h | 17605m | -7.6m/s | -55.2°C | 4.3% | 0hPa | 2.5V | 00:00:00 | 02:43:30 | 00:00:00 | |
| 9A1FER-10 | 2026-09-02 01:07:59 | 46.04234 | 13.97714 | 127° | 60km/h | 17613m | -7.4m/s | -55.2°C | 4.3% | 0hPa | 2.5V | 00:00:00 | 02:43:29 | 00:00:00 | |
| OE8JPQ-2 | 2026-09-02 01:07:57 | 46.04248 | 13.97692 | 136° | 51km/h | 17628m | -7.7m/s | -55.2°C | 4.2% | 0hPa | 2.5V | 00:00:00 | 00:00:00 | 00:00:00 | |
| 9A1FER-3 | 2026-09-02 01:07:56 | 46.04258 | 13.97678 | 134° | 57km/h | 17636m | -7.9m/s | -55.3°C | 4.2% | 0hPa | 2.5V | 00:00:00 | 02:43:26 | 00:00:00 | |
| SOBLACK | 2026-09-02 01:07:54 | 46.04268 | 13.97661 | 131° | 66km/h | 17644m | -8.1m/s | -55.4°C | 1.4% | 0hPa | 2.5V | 08:11:00 | 00:00:00 | 00:00:00 | |
| OE3JTB-15 | 2026-09-02 01:07:53 | 46.04289 | 13.97619 | 121° | 53km/h | 17660m | -7.8m/s | -55.3°C | 4.3% | 0hPa | 2.5V | 00:00:00 | 02:43:23 | 00:00:00 | |
| DO3MHA-11 | 2026-09-02 01:07:52 | 46.04298 | 13.97595 | 116° | 57km/h | 17667m | -7.2m/s | -55.3°C | 4.3% | 0hPa | 2.5V | 00:00:00 | 02:43:22 | 00:00:00 | |
| IN3HCDX | 2026-09-02 01:07:51 | 46.04298 | 13.97595 | 116° | 77km/h | 17667m | -7.2m/s | -55.4°C | 1.4% | 0hPa | 2.5V | 08:11:00 | 00:00:00 | 00:00:00 | |
| OE5DXL-15 | 2026-09-02 01:07:49 | 46.04312 | 13.97533 | 95° | 46km/h | 17688m | -7.1m/s | -55.2°C | 4.3% | 0hPa | 2.5V | 00:00:00 | 00:00:00 | 00:00:00 | |
| IN3HCDX1 | 2026-09-02 01:07:47 | 46.04313 | 13.97492 | 90° | 64km/h | 17695m | -7.4m/s | -55.2°C | 1.4% | 0hPa | 2.5V | 08:11:00 | 00:00:00 | 00:00:00 | |
| 9A1FER-10 | 2026-09-02 01:07:44 | 46.04308 | 13.97422 | 84° | 47km/h | 17726m | -7.5m/s | -55.1°C | 4.2% | 0hPa | 2.5V | 00:00:00 | 02:43:14 | 00:00:00 | |
| DO3MHA-11 | 2026-09-02 01:07:42 | 46.04308 | 13.97403 | 109° | 44km/h | 17741m | -7.5m/s | -55.2°C | 4.2% | 0hPa | 2.6V | 00:00:00 | 02:43:12 | 00:00:00 | |
| 9A1FER-3 | 2026-09-02 01:07:41 | 46.04311 | 13.97396 | 131° | 55km/h | 17749m | -7.6m/s | -55.2°C | 4.2% | 0hPa | 2.6V | 00:00:00 | 02:43:11 | 00:00:00 | |
| OE5WHR-10 | 2026-09-02 01:07:40 | 46.04316 | 13.97391 | 148° | 46km/h | 17757m | -7.6m/s | -55.3°C | 4.2% | 0hPa | 2.6V | 00:00:00 | 02:43:10 | 00:00:00 | |
| OE8JPQ-2 | 2026-09-02 01:07:37 | 46.04341 | 13.97373 | 154° | 47km/h | 17780m | -7.9m/s | -55.5°C | 4.3% | 0hPa | 2.6V | 00:00:00 | 00:00:00 | 00:00:00 | |
| SOBLACK | 2026-09-02 01:07:34 | 46.04364 | 13.97353 | 146° | 60km/h | 17796m | -7.8m/s | -55.6°C | 1.4% | 0hPa | 2.6V | 08:12:00 | 00:00:00 | 00:00:00 | |
| DO3MHA-11 | 2026-09-02 01:07:32 | 46.04399 | 13.97301 | 123° | 53km/h | 17819m | -7.0m/s | -55.8°C | 4.3% | 0hPa | 2.6V | 00:00:00 | 02:43:02 | 00:00:00 | |
| IN3HCDX | 2026-09-02 01:07:30 | 46.04408 | 13.97278 | 115° | 71km/h | 17826m | -7.3m/s | -55.8°C | 1.4% | 0hPa | 2.6V | 08:12:00 | 00:00:00 | 00:00:00 | |
| NBG1-10 | 2026-09-02 01:07:29 | 46.04418 | 13.97231 | 101° | 44km/h | 17841m | -7.8m/s | -55.9°C | 4.3% | 0hPa | 2.6V | 00:00:00 | 02:42:59 | 00:00:00 | |
| IN3HCDX1 | 2026-09-02 01:07:27 | 46.04420 | 13.97208 | 95° | 60km/h | 17849m | -8.0m/s | -56.0°C | 1.4% | 0hPa | 2.6V | 08:12:00 | 00:00:00 | 00:00:00 | |
| 9A1FER-3 | 2026-09-02 01:07:26 | 46.04419 | 13.97170 | 83° | 44km/h | 17865m | -8.0m/s | -56.1°C | 4.4% | 0hPa | 2.6V | 00:00:00 | 02:42:56 | 00:00:00 | |
| OE3JTB-15 | 2026-09-02 01:07:24 | 46.04416 | 13.97143 | 80° | 40km/h | 17880m | -7.5m/s | -56.2°C | 4.4% | 0hPa | 2.6V | 00:00:00 | 00:00:00 | 00:00:00 | |
| DO3MHA-11 | 2026-09-02 01:07:22 | 46.04416 | 13.97128 | 117° | 46km/h | 17895m | -7.4m/s | -56.3°C | 4.4% | 0hPa | 2.5V | 08:11:00 | 02:42:52 | 00:00:00 | |
| OE5DXL-15 | 2026-09-02 01:07:19 | 46.04432 | 13.97117 | 161° | 46km/h | 17919m | -7.7m/s | -56.5°C | 4.5% | 0hPa | 2.6V | 00:00:00 | 00:00:00 | 00:00:00 | |
| OE5DRO-10 | 2026-09-02 01:07:18 | 46.04441 | 13.97112 | 157° | 44km/h | 17927m | -8.1m/s | -56.5°C | 4.5% | 0hPa | 2.6V | 00:00:00 | 00:00:00 | 00:00:00 | |
| OE5WHR-10 | 2026-09-02 01:07:17 | 46.04452 | 13.97104 | 153° | 46km/h | 17934m | -7.4m/s | -56.6°C | 4.5% | 0hPa | 2.6V | 00:00:00 | 00:00:00 | 00:00:00 | |
| 9A1FER-10 | 2026-09-02 01:07:14 | 46.04488 | 13.97063 | 132° | 42km/h | 17958m | -7.8m/s | -56.7°C | 4.7% | 0hPa | 2.6V | 00:00:00 | 02:42:44 | 00:00:00 | |
| SOBLACK | 2026-09-02 01:07:13 | 46.04489 | 13.97063 | 132° | 68km/h | 17958m | -7.8m/s | -56.8°C | 1.5% | 0hPa | 2.6V | 08:12:00 | 00:00:00 | 00:00:00 | |
| 9A1FER-3 | 2026-09-02 01:07:11 | 46.04514 | 13.96999 | 108° | 38km/h | 17980m | -7.2m/s | -56.9°C | 4.9% | 0hPa | 2.6V | 08:11:00 | 02:42:41 | 00:00:00 | |
| IN3HCDX1 | 2026-09-02 01:07:06 | 46.04518 | 13.96921 | 84° | 38km/h | 18010m | -7.9m/s | -57.0°C | 1.6% | 0hPa | 2.6V | 08:12:00 | 00:00:00 | 00:00:00 | |
| IV3AMH | 2026-09-02 01:07:04 | 46.04517 | 13.96893 | 104° | 15km/h | 18033m | -8.1m/s | -56.8°C | 1.5% | 0hPa | 2.6V | 00:00:00 | 00:00:00 | 00:00:00 | |
| DO3MHA-11 | 2026-09-02 01:07:02 | 46.04521 | 13.96887 | 168° | 46km/h | 18050m | -8.7m/s | -56.8°C | 4.8% | 0hPa | 2.6V | 00:00:00 | 02:42:32 | 00:00:00 | |
| 9A1FER-10 | 2026-09-02 01:06:59 | 46.04543 | 13.96886 | 176° | 42km/h | 18075m | -8.0m/s | -57.0°C | 5.0% | 0hPa | 2.6V | 08:12:00 | 02:42:29 | 00:00:00 | |
| OE8JPQ-2 | 2026-09-02 01:06:57 | 46.04567 | 13.96879 | 164° | 35km/h | 18091m | -7.8m/s | -56.9°C | 5.0% | 0hPa | 2.5V | 08:12:00 | 00:00:00 | 00:00:00 | |
| 9A1FER-3 | 2026-09-02 01:06:56 | 46.04580 | 13.96871 | 155° | 33km/h | 18099m | -7.0m/s | -56.7°C | 4.9% | 0hPa | 2.6V | 00:00:00 | 02:42:26 | 00:00:00 | |
| NBG1-10 | 2026-09-02 01:06:55 | 46.04592 | 13.96860 | 145° | 35km/h | 18106m | -7.2m/s | -56.4°C | 4.8% | 0hPa | 2.6V | 00:00:00 | 02:42:25 | 00:00:00 | |
| DO3MHA-11 | 2026-09-02 01:06:52 | 46.04619 | 13.96814 | 116° | 33km/h | 18128m | -7.7m/s | -55.8°C | 4.5% | 0hPa | 2.6V | 00:00:00 | 02:42:22 | 00:00:00 | |
| OE5DXL-15 | 2026-09-02 01:06:49 | 46.04627 | 13.96770 | 89° | 29km/h | 18151m | -7.9m/s | -55.7°C | 4.3% | 0hPa | 2.5V | 00:00:00 | 00:00:00 | 00:00:00 | |
| SOBLACK | 2026-09-02 01:06:48 | 46.04626 | 13.96770 | 89° | 35km/h | 18151m | -8.0m/s | -55.7°C | 1.4% | 0hPa | 2.5V | 08:13:00 | 00:00:00 | 00:00:00 | |
| OE5WHR-10 | 2026-09-02 01:06:46 | 46.04622 | 13.96743 | 58° | 27km/h | 18176m | -7.7m/s | -55.6°C | 4.2% | 0hPa | 2.5V | 00:00:00 | 00:00:00 | 00:00:00 | |
| IN3HCDX1 | 2026-09-02 01:06:45 | 46.04622 | 13.96743 | 59° | 16km/h | 18176m | -7.8m/s | -55.7°C | 1.3% | 0hPa | 2.5V | 08:13:00 | 00:00:00 | 00:00:00 | |
| 9A1FER-10 | 2026-09-02 01:06:44 | 46.04619 | 13.96740 | 312° | 37km/h | 18192m | -8.0m/s | -55.7°C | 4.3% | 0hPa | 2.5V | 00:00:00 | 02:42:14 | 00:00:00 | |
| DO3MHA-11 | 2026-09-02 01:06:42 | 46.04622 | 13.96744 | 216° | 38km/h | 18207m | -7.7m/s | -55.7°C | 4.3% | 0hPa | 2.5V | 00:00:00 | 02:42:12 | 00:00:00 | |
| 9A1FER-3 | 2026-09-02 01:06:41 | 46.04626 | 13.96747 | 200° | 42km/h | 18215m | -7.3m/s | -55.8°C | 4.4% | 0hPa | 2.5V | 00:00:00 | 02:42:11 | 00:00:00 | |
| OE5DRO-10 | 2026-09-02 01:06:40 | 46.04633 | 13.96749 | 189° | 35km/h | 18222m | -7.1m/s | -55.8°C | 4.4% | 0hPa | 2.5V | 00:00:00 | 00:00:00 | 00:00:00 | |
| OE8JPQ-2 | 2026-09-02 01:06:37 | 46.04662 | 13.96745 | 162° | 33km/h | 18244m | -8.0m/s | -56.0°C | 4.4% | 0hPa | 2.5V | 00:00:00 | 00:00:00 | 00:00:00 | |
| DO3MHA-11 | 2026-09-02 01:06:32 | 46.04705 | 13.96687 | 110° | 37km/h | 18284m | -7.9m/s | -56.2°C | 4.4% | 0hPa | 2.5V | 00:00:00 | 02:42:02 | 00:00:00 | |
| 9A1FER-10 | 2026-09-02 01:06:29 | 46.04707 | 13.96640 | 74° | 26km/h | 18308m | -7.8m/s | -56.4°C | 4.4% | 0hPa | 2.5V | 00:00:00 | 02:41:59 | 00:00:00 | |
| SOBLACK | 2026-09-02 01:06:27 | 46.04703 | 13.96628 | 62° | 37km/h | 18316m | -7.4m/s | -56.5°C | 1.4% | 0hPa | 2.5V | 08:13:00 | 00:00:00 | 00:00:00 | |
| 9A1FER-3 | 2026-09-02 01:06:26 | 46.04693 | 13.96611 | 34° | 27km/h | 18331m | -7.9m/s | -56.5°C | 4.4% | 0hPa | 2.5V | 00:00:00 | 02:41:56 | 00:00:00 | |
| OE5WHR-10 | 2026-09-02 01:06:25 | 46.04688 | 13.96607 | 19° | 29km/h | 18339m | -8.0m/s | -56.5°C | 4.4% | 0hPa | 2.5V | 00:00:00 | 02:41:55 | 00:00:00 | |
| IN3HCDX1 | 2026-09-02 01:06:24 | 46.04688 | 13.96607 | 20° | 22km/h | 18339m | -8.0m/s | -56.5°C | 1.4% | 0hPa | 2.5V | 08:13:00 | 00:00:00 | 00:00:00 | |
| OE5DRO-10 | 2026-09-02 01:06:21 | 46.04680 | 13.96612 | 226° | 38km/h | 18371m | -8.1m/s | -56.6°C | 4.6% | 0hPa | 2.5V | 00:00:00 | 00:00:00 | 00:00:00 | |
| OE5DXL-15 | 2026-09-02 01:06:19 | 46.04688 | 13.96615 | 176° | 40km/h | 18387m | -8.3m/s | -56.7°C | 4.6% | 0hPa | 2.5V | 00:00:00 | 00:00:00 | 00:00:00 | |
| OE8JPQ-2 | 2026-09-02 01:06:17 | 46.04701 | 13.96608 | 147° | 37km/h | 18403m | -7.7m/s | -56.9°C | 4.7% | 0hPa | 2.5V | 00:00:00 | 02:41:47 | 00:00:00 | |
| 9A1FER-10 | 2026-09-02 01:06:14 | 46.04720 | 13.96575 | 116° | 38km/h | 18426m | -7.8m/s | -57.0°C | 4.6% | 0hPa | 2.5V | 00:00:00 | 02:41:44 | 00:00:00 | |
| 9A1FER-3 | 2026-09-02 01:06:11 | 46.04728 | 13.96523 | 93° | 33km/h | 18451m | -8.3m/s | -57.2°C | 4.7% | 0hPa | 2.5V | 00:00:00 | 02:41:41 | 00:00:00 | |
| IN3HCDX | 2026-09-02 01:06:06 | 46.04706 | 13.96443 | 42° | 42km/h | 18490m | -7.9m/s | -57.4°C | 1.5% | 0hPa | 2.5V | 08:13:00 | 00:00:00 | 00:00:00 | |
| IN3HCDX1 | 2026-09-02 01:06:04 | 46.04690 | 13.96428 | 23° | 33km/h | 18506m | -8.3m/s | -57.2°C | 1.5% | 0hPa | 2.5V | 08:13:00 | 00:00:00 | 00:00:00 | |
| OE5DRO-10 | 2026-09-02 01:06:02 | 46.04677 | 13.96423 | 11° | 42km/h | 18522m | -8.0m/s | -57.0°C | 4.8% | 0hPa | 2.5V | 08:12:00 | 00:00:00 | 00:00:00 | |
| NBG1-10 | 2026-09-02 01:05:59 | 46.04675 | 13.96417 | 133° | 31km/h | 18545m | -7.7m/s | -57.1°C | 4.9% | 0hPa | 2.6V | 08:13:00 | 02:41:29 | 00:00:00 | |
| 9A1FER-3 | 2026-09-02 01:05:56 | 46.04688 | 13.96394 | 123° | 47km/h | 18569m | -8.4m/s | -57.2°C | 4.8% | 0hPa | 2.6V | 00:00:00 | 02:41:26 | 00:00:00 | |
| IV3AMH | 2026-09-02 01:05:49 | 46.04701 | 13.96253 | 74° | 66km/h | 18628m | -7.8m/s | -56.7°C | 1.5% | 0hPa | 2.6V | 00:00:00 | 00:00:00 | 00:00:00 | |
| SOBLACK | 2026-09-02 01:05:45 | 46.04680 | 13.96200 | 48° | 46km/h | 18652m | -8.3m/s | -56.4°C | 1.4% | 0hPa | 2.6V | 08:13:00 | 00:00:00 | 00:00:00 | |
| 9A1FER-10 | 2026-09-02 01:05:44 | 46.04666 | 13.96182 | 33° | 37km/h | 18669m | -8.5m/s | -56.3°C | 4.6% | 0hPa | 2.6V | 00:00:00 | 02:41:14 | 00:00:00 | |
| OE5WHR-10 | 2026-09-02 01:05:43 | 46.04660 | 13.96178 | 28° | 33km/h | 18677m | -8.3m/s | -56.3°C | 4.5% | 0hPa | 2.6V | 00:00:00 | 00:00:00 | 00:00:00 | |
| 9A1FER-3 | 2026-09-02 01:05:41 | 46.04657 | 13.96175 | 137° | 42km/h | 18693m | -8.2m/s | -56.2°C | 4.5% | 0hPa | 2.6V | 00:00:00 | 02:41:11 | 00:00:00 | |
| PG1ADW-2 | 2026-09-02 01:05:39 | 46.04664 | 13.96171 | 159° | 31km/h | 18710m | -8.3m/s | -56.2°C | 4.5% | 0hPa | 2.6V | 00:00:00 | 02:41:09 | 00:00:00 | |
| OE8JPQ-2 | 2026-09-02 01:05:38 | 46.04678 | 13.96159 | 144° | 38km/h | 18727m | -8.2m/s | -56.2°C | 4.5% | 0hPa | 2.6V | 00:00:00 | 00:00:00 | 00:00:00 | |
| OE3JTB-15 | 2026-09-02 01:05:33 | 46.04704 | 13.96101 | 106° | 38km/h | 18759m | -8.2m/s | -56.2°C | 4.5% | 0hPa | 2.6V | 00:00:00 | 02:41:03 | 00:00:00 | |
| 9A1FER-10 | 2026-09-02 01:05:29 | 46.04701 | 13.96019 | 68° | 31km/h | 18793m | -8.8m/s | -56.3°C | 4.6% | 0hPa | 2.6V | 00:00:00 | 02:40:59 | 00:00:00 | |
| 9A1FER-3 | 2026-09-02 01:05:26 | 46.04680 | 13.95980 | 35° | 31km/h | 18818m | -8.4m/s | -56.2°C | 4.6% | 0hPa | 2.5V | 00:00:00 | 02:40:56 | 00:00:00 | |
| OE5DRO-10 | 2026-09-02 01:05:24 | 46.04668 | 13.95972 | 9° | 35km/h | 18835m | -8.1m/s | -56.2°C | 4.7% | 0hPa | 2.5V | 00:00:00 | 00:00:00 | 00:00:00 | |
| IN3HCDX | 2026-09-02 01:05:23 | 46.04668 | 13.95972 | 9° | 20km/h | 18835m | -8.1m/s | -56.3°C | 1.4% | 0hPa | 2.5V | 08:13:00 | 00:00:00 | 00:00:00 | |
| OE5WHR-10 | 2026-09-02 01:05:22 | 46.04662 | 13.95973 | 265° | 33km/h | 18851m | -7.9m/s | -56.3°C | 4.7% | 0hPa | 2.5V | 00:00:00 | 02:40:52 | 00:00:00 | |
| OE5DXL-15 | 2026-09-02 01:05:19 | 46.04674 | 13.95975 | 171° | 37km/h | 18875m | -8.6m/s | -56.3°C | 4.6% | 0hPa | 2.5V | 08:13:00 | 00:00:00 | 00:00:00 | |
| PG1ADW-2 | 2026-09-02 01:05:17 | 46.04689 | 13.95967 | 150° | 35km/h | 18894m | -9.4m/s | -56.3°C | 4.8% | 0hPa | 2.6V | 08:13:00 | 00:00:00 | 00:00:00 | |
| 9A1FER-10 | 2026-09-02 01:05:14 | 46.04712 | 13.95930 | 116° | 35km/h | 18920m | -8.0m/s | -55.9°C | 4.7% | 0hPa | 2.6V | 00:00:00 | 02:40:44 | 00:00:00 | |
| 9A1FER-3 | 2026-09-02 01:05:11 | 46.04717 | 13.95876 | 81° | 27km/h | 18943m | -8.1m/s | -55.4°C | 4.4% | 0hPa | 2.6V | 00:00:00 | 02:40:41 | 00:00:00 | |
| IV3AMH | 2026-09-02 01:05:10 | 46.04717 | 13.95876 | 81° | 49km/h | 18943m | -8.1m/s | -55.5°C | 1.3% | 0hPa | 2.6V | 00:00:00 | 00:00:00 | 00:00:00 | |
| OE5DRO-10 | 2026-09-02 01:05:05 | 46.04683 | 13.95814 | 8° | 33km/h | 18995m | -8.2m/s | -54.9°C | 4.1% | 0hPa | 2.6V | 00:00:00 | 00:00:00 | 00:00:00 | |
| OE3JTB-15 | 2026-09-02 01:05:04 | 46.04677 | 13.95814 | 349° | 29km/h | 19003m | -8.8m/s | -54.8°C | 4.1% | 0hPa | 2.6V | 08:13:00 | 00:00:00 | 00:00:00 | |
| SOBLACK | 2026-09-02 01:05:03 | 46.04677 | 13.95814 | 350° | 24km/h | 19003m | -8.8m/s | -54.8°C | 1.2% | 0hPa | 2.5V | 08:14:00 | 00:00:00 | 00:00:00 | |
| IN3HCDX1 | 2026-09-02 01:05:02 | 46.04671 | 13.95817 | 330° | 20km/h | 19012m | -8.9m/s | -54.8°C | 1.2% | 0hPa | 2.5V | 08:14:00 | 00:00:00 | 00:00:00 | |
| OE5WHR-10 | 2026-09-02 01:05:01 | 46.04666 | 13.95827 | 281° | 27km/h | 19030m | -9.0m/s | -54.6°C | 4.1% | 0hPa | 2.5V | 08:13:00 | 00:00:00 | 00:00:00 | |
| 9A1FER-10 | 2026-09-02 01:04:59 | 46.04669 | 13.95835 | 206° | 38km/h | 19048m | -8.4m/s | -54.7°C | 4.1% | 0hPa | 2.5V | 00:00:00 | 02:40:29 | 00:00:00 | |
| OE8JPQ-2 | 2026-09-02 01:04:57 | 46.04679 | 13.95834 | 154° | 33km/h | 19065m | -8.4m/s | -54.8°C | 4.1% | 0hPa | 2.5V | 00:00:00 | 00:00:00 | 00:00:00 | |
| 9A1FER-3 | 2026-09-02 01:04:56 | 46.04685 | 13.95827 | 135° | 38km/h | 19073m | -8.5m/s | -54.9°C | 4.1% | 0hPa | 2.5V | 08:14:00 | 02:40:26 | 00:00:00 | |
| OE5DXL-15 | 2026-09-02 01:04:49 | 46.04677 | 13.95725 | 49° | 35km/h | 19134m | -9.1m/s | -55.1°C | 4.2% | 0hPa | 2.5V | 00:00:00 | 00:00:00 | 00:00:00 | |
| PG1ADW-2 | 2026-09-02 01:04:48 | 46.04669 | 13.95714 | 39° | 33km/h | 19143m | -8.8m/s | -55.1°C | 4.2% | 0hPa | 2.5V | 00:00:00 | 00:00:00 | 00:00:00 | |
| OE5DRO-10 | 2026-09-02 01:04:46 | 46.04649 | 13.95699 | 16° | 33km/h | 19160m | -8.4m/s | -55.2°C | 4.2% | 0hPa | 2.5V | 00:00:00 | 00:00:00 | 00:00:00 | |
| 9A1FER-10 | 2026-09-02 01:04:44 | 46.04632 | 13.95697 | 352° | 29km/h | 19176m | -8.3m/s | -55.3°C | 4.2% | 0hPa | 2.5V | 08:14:00 | 02:40:14 | 00:00:00 | |
| SOBLACK | 2026-09-02 01:04:43 | 46.04632 | 13.95697 | 352° | 29km/h | 19176m | -8.4m/s | -55.3°C | 1.3% | 0hPa | 2.6V | 08:14:00 | 00:00:00 | 00:00:00 | |
| NBG1-10 | 2026-09-02 01:04:42 | 46.04621 | 13.95703 | 323° | 31km/h | 19194m | -8.7m/s | -55.4°C | 4.3% | 0hPa | 2.6V | 00:00:00 | 02:40:12 | 00:00:00 | |
| 9A1FER-3 | 2026-09-02 01:04:41 | 46.04618 | 13.95707 | 299° | 37km/h | 19202m | -9.3m/s | -55.4°C | 4.3% | 0hPa | 2.6V | 00:00:00 | 02:40:11 | 00:00:00 | |
| OE5WHR-10 | 2026-09-02 01:04:40 | 46.04617 | 13.95710 | 264° | 31km/h | 19212m | -9.2m/s | -55.4°C | 4.2% | 0hPa | 2.6V | 00:00:00 | 00:00:00 | 00:00:00 | |
| OE8JPQ-2 | 2026-09-02 01:04:37 | 46.04625 | 13.95708 | 141° | 35km/h | 19238m | -8.6m/s | -55.5°C | 4.3% | 0hPa | 2.6V | 00:00:00 | 00:00:00 | 00:00:00 | |
| OE3JTB-15 | 2026-09-02 01:04:35 | 46.04634 | 13.95692 | 119° | 38km/h | 19255m | -8.7m/s | -55.6°C | 4.3% | 0hPa | 2.6V | 00:00:00 | 00:00:00 | 00:00:00 | |
| IV3AMH | 2026-09-02 01:04:34 | 46.04638 | 13.95679 | 112° | 42km/h | 19264m | -8.7m/s | -55.8°C | 1.3% | 0hPa | 2.6V | 00:00:00 | 00:00:00 | 00:00:00 | |
| 9A1FER-10 | 2026-09-02 01:04:29 | 46.04641 | 13.95589 | 77° | 31km/h | 19308m | -9.3m/s | -55.8°C | 4.5% | 0hPa | 2.6V | 00:00:00 | 02:39:59 | 00:00:00 | |
| PG1ADW-2 | 2026-09-02 01:04:28 | 46.04637 | 13.95569 | 70° | 31km/h | 19317m | -9.0m/s | -55.8°C | 4.4% | 0hPa | 2.6V | 00:00:00 | 00:00:00 | 00:00:00 | |
| OE5DRO-10 | 2026-09-02 01:04:27 | 46.04631 | 13.95551 | 62° | 33km/h | 19326m | -8.8m/s | -55.7°C | 4.5% | 0hPa | 2.6V | 00:00:00 | 00:00:00 | 00:00:00 | |
| 9A1FER-3 | 2026-09-02 01:04:26 | 46.04624 | 13.95536 | 53° | 29km/h | 19334m | -8.3m/s | -55.7°C | 4.4% | 0hPa | 2.6V | 00:00:00 | 02:39:56 | 00:00:00 | |
| SOBLACK | 2026-09-02 01:04:23 | 46.04609 | 13.95515 | 34° | 37km/h | 19352m | -8.7m/s | -55.7°C | 1.3% | 0hPa | 2.6V | 08:14:00 | 00:00:00 | 00:00:00 | |
| IN3HCDX1 | 2026-09-02 01:04:21 | 46.04596 | 13.95506 | 18° | 20km/h | 19369m | -8.8m/s | -55.7°C | 1.3% | 0hPa | 2.6V | 08:14:00 | 00:00:00 | 00:00:00 | |
| IN3HCDX | 2026-09-02 01:04:20 | 46.04592 | 13.95504 | 10° | 11km/h | 19378m | -8.9m/s | -55.8°C | 1.3% | 0hPa | 2.6V | 08:14:00 | 00:00:00 | 00:00:00 | |
| OE8JPQ-2 | 2026-09-02 01:04:17 | 46.04599 | 13.95503 | 169° | 38km/h | 19414m | -8.9m/s | -55.7°C | 4.3% | 0hPa | 2.6V | 00:00:00 | 02:39:47 | 00:00:00 | |
| 9A1FER-10 | 2026-09-02 01:04:14 | 46.04621 | 13.95489 | 145° | 44km/h | 19441m | -9.1m/s | -55.5°C | 4.3% | 0hPa | 2.6V | 00:00:00 | 02:39:44 | 00:00:00 | |
| 9A1FER-3 | 2026-09-02 01:04:11 | 46.04643 | 13.95451 | 119° | 38km/h | 19468m | -8.2m/s | -55.4°C | 4.4% | 0hPa | 2.6V | 00:00:00 | 02:39:41 | 00:00:00 | |
| OE5DRO-10 | 2026-09-02 01:04:08 | 46.04652 | 13.95398 | 89° | 33km/h | 19492m | -8.6m/s | -55.5°C | 4.5% | 0hPa | 2.5V | 00:00:00 | 00:00:00 | 00:00:00 | |
| OE3JTB-15 | 2026-09-02 01:04:06 | 46.04648 | 13.95362 | 75° | 31km/h | 19510m | -9.2m/s | -55.4°C | 4.4% | 0hPa | 2.5V | 00:00:00 | 02:39:36 | 00:00:00 | |
| SOBLACK | 2026-09-02 01:04:02 | 46.04632 | 13.95322 | 47° | 38km/h | 19538m | -9.5m/s | -55.2°C | 1.3% | 0hPa | 2.5V | 08:15:00 | 00:00:00 | 00:00:00 | |
| PG1ADW-2 | 2026-09-02 01:04:00 | 46.04612 | 13.95307 | 2° | 26km/h | 19565m | -8.8m/s | -55.1°C | 4.2% | 0hPa | 2.5V | 00:00:00 | 02:39:30 | 00:00:00 | |
| 9A1FER-10 | 2026-09-02 01:03:59 | 46.04607 | 13.95308 | 339° | 31km/h | 19574m | -9.4m/s | -55.1°C | 4.2% | 0hPa | 2.6V | 00:00:00 | 02:39:29 | 00:00:00 | |
| OE8JPQ-2 | 2026-09-02 01:03:57 | 46.04601 | 13.95316 | 274° | 33km/h | 19592m | -8.8m/s | -55.2°C | 4.2% | 0hPa | 2.5V | 08:15:00 | 00:00:00 | 00:00:00 | |
| 9A1FER-3 | 2026-09-02 01:03:56 | 46.04603 | 13.95322 | 240° | 35km/h | 19601m | -9.1m/s | -55.2°C | 4.2% | 0hPa | 2.5V | 00:00:00 | 02:39:26 | 00:00:00 | |
| IV3AMH | 2026-09-02 01:03:55 | 46.04603 | 13.95322 | 240° | 18km/h | 19601m | -9.1m/s | -55.3°C | 1.3% | 0hPa | 2.5V | 08:15:00 | 00:00:00 | 00:00:00 | |
| OE5WHR-10 | 2026-09-02 01:03:54 | 46.04612 | 13.95330 | 196° | 29km/h | 19620m | -9.3m/s | -55.2°C | 4.2% | 0hPa | 2.5V | 00:00:00 | 00:00:00 | 00:00:00 | |
| NBG1-10 | 2026-09-02 01:03:51 | 46.04635 | 13.95325 | 151° | 29km/h | 19647m | -8.9m/s | -55.2°C | 4.2% | 0hPa | 2.5V | 00:00:00 | 02:39:21 | 00:00:00 | |
| OE5DXL-15 | 2026-09-02 01:03:49 | 46.04650 | 13.95305 | 125° | 35km/h | 19665m | -8.9m/s | -55.3°C | 4.3% | 0hPa | 2.5V | 00:00:00 | 00:00:00 | 00:00:00 | |
| 9A1FER-10 | 2026-09-02 01:03:44 | 46.04651 | 13.95236 | 54° | 29km/h | 19710m | -8.8m/s | -55.3°C | 4.2% | 0hPa | 2.5V | 00:00:00 | 02:39:14 | 00:00:00 | |
| 9A1FER-3 | 2026-09-02 01:03:41 | 46.04630 | 13.95218 | 5° | 29km/h | 19737m | -8.8m/s | -55.4°C | 4.2% | 0hPa | 2.5V | 00:00:00 | 02:39:11 | 00:00:00 | |
| IN3HCDX1 | 2026-09-02 01:03:39 | 46.04622 | 13.95218 | 346° | 31km/h | 19746m | -9.3m/s | -55.5°C | 1.3% | 0hPa | 2.5V | 08:15:00 | 00:00:00 | 00:00:00 | |
| PG1ADW-2 | 2026-09-02 01:03:38 | 46.04609 | 13.95230 | 311° | 26km/h | 19764m | -9.2m/s | -55.6°C | 4.3% | 0hPa | 2.5V | 00:00:00 | 00:00:00 | 00:00:00 | |
| OE3JTB-15 | 2026-09-02 01:03:37 | 46.04605 | 13.95238 | 294° | 33km/h | 19774m | -9.4m/s | -55.7°C | 4.4% | 0hPa | 2.5V | 00:00:00 | 00:00:00 | 00:00:00 | |
| OE5WHR-10 | 2026-09-02 01:03:31 | 46.04622 | 13.95272 | 160° | 31km/h | 19828m | -8.8m/s | -55.6°C | 4.4% | 0hPa | 2.5V | 00:00:00 | 00:00:00 | 00:00:00 | |
| OE5DRO-10 | 2026-09-02 01:03:30 | 46.04628 | 13.95267 | 139° | 33km/h | 19837m | -9.0m/s | -55.7°C | 4.4% | 0hPa | 2.5V | 00:00:00 | 00:00:00 | 00:00:00 | |
| 9A1FER-10 | 2026-09-02 01:03:29 | 46.04633 | 13.95259 | 121° | 35km/h | 19846m | -9.3m/s | -55.7°C | 4.4% | 0hPa | 2.5V | 00:00:00 | 02:38:59 | 00:00:00 | |
| 9A1FER-3 | 2026-09-02 01:03:26 | 46.04636 | 13.95220 | 79° | 33km/h | 19874m | -9.0m/s | -55.9°C | 4.5% | 0hPa | 2.5V | 00:00:00 | 02:38:56 | 00:00:00 | |
| SOBLACK | 2026-09-02 01:03:20 | 46.04597 | 13.95164 | 18° | 44km/h | 19920m | -10.0m/s | -55.7°C | 1.3% | 0hPa | 2.5V | 08:16:00 | 00:00:00 | 00:00:00 | |
| IN3HCDX1 | 2026-09-02 01:03:19 | 46.04578 | 13.95161 | 356° | 33km/h | 19939m | -9.4m/s | -55.4°C | 1.3% | 0hPa | 2.5V | 08:16:00 | 00:00:00 | 00:00:00 | |
| IV3AMH | 2026-09-02 01:03:18 | 46.04578 | 13.95161 | 356° | 33km/h | 19939m | -9.4m/s | -55.4°C | 1.3% | 0hPa | 2.5V | 00:00:00 | 00:00:00 | 00:00:00 | |
| OE8JPQ-2 | 2026-09-02 01:03:17 | 46.04566 | 13.95167 | 318° | 35km/h | 19958m | -8.8m/s | -55.3°C | 4.4% | 0hPa | 2.5V | 00:00:00 | 02:38:47 | 00:00:00 | |
| IN3HCDX | 2026-09-02 01:03:16 | 46.04566 | 13.95167 | 319° | 16km/h | 19958m | -8.8m/s | -55.3°C | 1.3% | 0hPa | 2.5V | 08:16:00 | 00:00:00 | 00:00:00 | |
| 9A1FER-10 | 2026-09-02 01:03:14 | 46.04569 | 13.95175 | 177° | 42km/h | 19984m | -8.6m/s | -55.3°C | 4.3% | 0hPa | 2.5V | 00:00:00 | 02:38:44 | 00:00:00 | |
| 9A1FER-3 | 2026-09-02 01:03:11 | 46.04588 | 13.95159 | 136° | 40km/h | 20011m | -9.5m/s | -55.4°C | 4.4% | 0hPa | 2.5V | 00:00:00 | 02:38:41 | 00:00:00 | |
| OE5WHR-10 | 2026-09-02 01:03:10 | 46.04595 | 13.95148 | 127° | 35km/h | 20021m | -10.2m/s | -55.4°C | 4.4% | 0hPa | 2.5V | 00:00:00 | 02:38:40 | 00:00:00 | |
| SOBLACK | 2026-09-02 01:03:00 | 46.04578 | 13.95010 | 32° | 37km/h | 20104m | -9.8m/s | -55.3°C | 1.3% | 0hPa | 2.5V | 08:16:00 | 00:00:00 | 00:00:00 | |
| 9A1FER-10 | 2026-09-02 01:02:59 | 46.04564 | 13.95002 | 6° | 33km/h | 20124m | -10.0m/s | -54.9°C | 4.3% | 0hPa | 2.5V | 00:00:00 | 02:38:29 | 00:00:00 | |
| OE8JPQ-2 | 2026-09-02 01:02:57 | 46.04556 | 13.95005 | 312° | 37km/h | 20143m | -9.1m/s | -54.8°C | 4.2% | 0hPa | 2.5V | 00:00:00 | 00:00:00 | 00:00:00 | |
| 9A1FER-3 | 2026-09-02 01:02:56 | 46.04555 | 13.95009 | 266° | 37km/h | 20152m | -8.9m/s | -54.8°C | 4.3% | 0hPa | 2.6V | 00:00:00 | 02:38:26 | 00:00:00 | |
| IN3HCDX | 2026-09-02 01:02:55 | 46.04555 | 13.95009 | 267° | 13km/h | 20152m | -9.0m/s | -54.8°C | 1.2% | 0hPa | 2.6V | 08:16:00 | 00:00:00 | 00:00:00 | |
| NBG1-10 | 2026-09-02 01:02:53 | 46.04566 | 13.95023 | 197° | 38km/h | 20179m | -8.7m/s | -54.7°C | 4.3% | 0hPa | 2.6V | 00:00:00 | 02:38:23 | 00:00:00 | |
| OE5DRO-10 | 2026-09-02 01:02:52 | 46.04574 | 13.95025 | 184° | 38km/h | 20188m | -9.1m/s | -54.7°C | 4.2% | 0hPa | 2.6V | 00:00:00 | 00:00:00 | 00:00:00 | |
| OE5DXL-15 | 2026-09-02 01:02:49 | 46.04603 | 13.95014 | 151° | 38km/h | 20217m | -9.5m/s | -54.6°C | 4.2% | 0hPa | 2.6V | 00:00:00 | 00:00:00 | 00:00:00 | |
| 9A1FER-10 | 2026-09-02 01:02:44 | 46.04633 | 13.94947 | 96° | 33km/h | 20261m | -8.7m/s | -54.5°C | 4.2% | 0hPa | 2.6V | 00:00:00 | 02:38:14 | 00:00:00 | |
| OE5WHR-10 | 2026-09-02 01:02:43 | 46.04633 | 13.94931 | 85° | 33km/h | 20270m | -9.1m/s | -54.4°C | 4.1% | 0hPa | 2.6V | 00:00:00 | 00:00:00 | 00:00:00 | |
| 9A1FER-3 | 2026-09-02 01:02:41 | 46.04628 | 13.94902 | 66° | 31km/h | 20289m | -9.9m/s | -54.2°C | 4.1% | 0hPa | 2.5V | 08:16:00 | 02:38:11 | 00:00:00 | |
| IV3AMH | 2026-09-02 01:02:40 | 46.04627 | 13.94902 | 66° | 40km/h | 20289m | -9.9m/s | -54.3°C | 1.2% | 0hPa | 2.5V | 00:00:00 | 00:00:00 | 00:00:00 | |
| SOBLACK | 2026-09-02 01:02:39 | 46.04623 | 13.94889 | 55° | 38km/h | 20299m | -10.2m/s | -54.3°C | 1.1% | 0hPa | 2.5V | 08:16:00 | 00:00:00 | 00:00:00 | |
| OE8JPQ-2 | 2026-09-02 01:02:37 | 46.04602 | 13.94871 | 2° | 37km/h | 20328m | -9.5m/s | -54.1°C | 4.0% | 0hPa | 2.5V | 00:00:00 | 00:00:00 | 00:00:00 | |
| IN3HCDX1 | 2026-09-02 01:02:36 | 46.04602 | 13.94871 | 3° | 29km/h | 20328m | -9.6m/s | -54.1°C | 1.2% | 0hPa | 2.5V | 08:16:00 | 00:00:00 | 00:00:00 | |
| IN3HCDX | 2026-09-02 01:02:34 | 46.04589 | 13.94877 | 317° | 26km/h | 20347m | -9.4m/s | -54.1°C | 1.2% | 0hPa | 2.5V | 08:17:00 | 00:00:00 | 00:00:00 | |
| OE5DRO-10 | 2026-09-02 01:02:33 | 46.04586 | 13.94892 | 262° | 38km/h | 20366m | -9.5m/s | -54.1°C | 4.1% | 0hPa | 2.5V | 00:00:00 | 00:00:00 | 00:00:00 | |
| 9A1FER-10 | 2026-09-02 01:02:29 | 46.04608 | 13.94905 | 164° | 42km/h | 20404m | -8.9m/s | -54.2°C | 4.2% | 0hPa | 2.5V | 08:16:00 | 02:37:59 | 00:00:00 | |
| 9A1FER-3 | 2026-09-02 01:02:26 | 46.04628 | 13.94877 | 115° | 40km/h | 20433m | -9.9m/s | -54.2°C | 4.1% | 0hPa | 2.6V | 00:00:00 | 02:37:56 | 00:00:00 | |
| NBG1-10 | 2026-09-02 01:02:21 | 46.04609 | 13.94790 | 28° | 35km/h | 20490m | -9.2m/s | -54.4°C | 4.2% | 0hPa | 2.6V | 00:00:00 | 02:37:50 | 00:00:00 | |
| OE5DXL-15 | 2026-09-02 01:02:19 | 46.04598 | 13.94785 | 12° | 33km/h | 20500m | -9.4m/s | -54.3°C | 4.2% | 0hPa | 2.6V | 00:00:00 | 00:00:00 | 00:00:00 | |
| SOBLACK | 2026-09-02 01:02:18 | 46.04598 | 13.94785 | 12° | 44km/h | 20500m | -9.4m/s | -54.3°C | 1.2% | 0hPa | 2.6V | 00:00:00 | 00:00:00 | 00:00:00 | |
| OE8JPQ-2 | 2026-09-02 01:02:17 | 46.04578 | 13.94787 | 341° | 37km/h | 20519m | -10.3m/s | -54.3°C | 4.2% | 0hPa | 2.6V | 00:00:00 | 02:37:47 | 00:00:00 | |
| IN3HCDX | 2026-09-02 01:02:15 | 46.04562 | 13.94802 | 310° | 35km/h | 20540m | -10.3m/s | -54.4°C | 1.2% | 0hPa | 2.6V | 08:17:00 | 00:00:00 | 00:00:00 | |
| 9A1FER-10 | 2026-09-02 01:02:14 | 46.04558 | 13.94812 | 292° | 35km/h | 20550m | -9.9m/s | -54.3°C | 4.2% | 0hPa | 2.6V | 00:00:00 | 02:37:44 | 00:00:00 | |
| PG1ADW-2 | 2026-09-02 01:02:13 | 46.04556 | 13.94823 | 273° | 27km/h | 20560m | -10.0m/s | -54.2°C | 4.2% | 0hPa | 2.6V | 00:00:00 | 00:00:00 | 00:00:00 | |
| 9A1FER-3 | 2026-09-02 01:02:11 | 46.04560 | 13.94840 | 224° | 37km/h | 20579m | -9.6m/s | -54.1°C | 4.1% | 0hPa | 2.6V | 00:00:00 | 02:37:41 | 00:00:00 | |
| IV3AMH | 2026-09-02 01:02:03 | 46.04590 | 13.94798 | 86° | 40km/h | 20648m | -9.6m/s | -53.9°C | 1.1% | 0hPa | 2.6V | 00:00:00 | 00:00:00 | 00:00:00 | |
| OE5WHR-10 | 2026-09-02 01:02:00 | 46.04566 | 13.94745 | 32° | 35km/h | 20687m | -9.5m/s | -53.8°C | 3.9% | 0hPa | 2.6V | 00:00:00 | 02:37:30 | 00:00:00 | |
| 9A1FER-10 | 2026-09-02 01:01:59 | 46.04555 | 13.94738 | 19° | 35km/h | 20697m | -10.1m/s | -53.8°C | 4.0% | 0hPa | 2.6V | 00:00:00 | 02:37:29 | 00:00:00 | |
| OE8JPQ-2 | 2026-09-02 01:01:57 | 46.04534 | 13.94734 | 354° | 38km/h | 20717m | -10.1m/s | -53.9°C | 4.0% | 0hPa | 2.6V | 00:00:00 | 00:00:00 | 00:00:00 | |
| 9A1FER-3 | 2026-09-02 01:01:56 | 46.04525 | 13.94737 | 340° | 37km/h | 20727m | -9.8m/s | -53.9°C | 4.1% | 0hPa | 2.6V | 00:00:00 | 02:37:26 | 00:00:00 | |
| OE5DRO-10 | 2026-09-02 01:01:55 | 46.04518 | 13.94742 | 323° | 38km/h | 20736m | -9.3m/s | -54.0°C | 4.1% | 0hPa | 2.5V | 00:00:00 | 00:00:00 | 00:00:00 | |
| IN3HCDX1 | 2026-09-02 01:01:54 | 46.04518 | 13.94742 | 323° | 27km/h | 20736m | -9.3m/s | -54.0°C | 1.2% | 0hPa | 2.5V | 08:17:00 | 00:00:00 | 00:00:00 | |
| IN3HCDX | 2026-09-02 01:01:53 | 46.04514 | 13.94749 | 296° | 20km/h | 20746m | -9.2m/s | -54.1°C | 1.2% | 0hPa | 2.5V | 08:17:00 | 00:00:00 | 00:00:00 | |
| OE5DXL-15 | 2026-09-02 01:01:49 | 46.04532 | 13.94756 | 145° | 40km/h | 20793m | -10.0m/s | -54.2°C | 4.1% | 0hPa | 2.5V | 00:00:00 | 00:00:00 | 00:00:00 | |
| DO3MHA-11 | 2026-09-02 01:01:47 | 46.04544 | 13.94735 | 121° | 46km/h | 20814m | -10.3m/s | -54.3°C | 4.1% | 0hPa | 2.5V | 00:00:00 | 02:37:17 | 00:00:00 | |
| 9A1FER-10 | 2026-09-02 01:01:44 | 46.04553 | 13.94682 | 89° | 38km/h | 20844m | -9.7m/s | -54.4°C | 4.2% | 0hPa | 2.6V | 00:00:00 | 02:37:14 | 00:00:00 | |
| 9A1FER-3 | 2026-09-02 01:01:41 | 46.04540 | 13.94626 | 56° | 37km/h | 20874m | -9.7m/s | -54.2°C | 4.1% | 0hPa | 2.5V | 00:00:00 | 02:37:11 | 00:00:00 | |
| OE5WHR-10 | 2026-09-02 01:01:38 | 46.04513 | 13.94597 | 13° | 35km/h | 20904m | -10.2m/s | -54.0°C | 4.0% | 0hPa | 2.5V | 08:17:00 | 00:00:00 | 00:00:00 | |
| OE8JPQ-2 | 2026-09-02 01:01:37 | 46.04504 | 13.94597 | 356° | 35km/h | 20914m | -10.7m/s | -54.0°C | 4.0% | 0hPa | 2.5V | 00:00:00 | 00:00:00 | 00:00:00 | |
| PETON7-10 | 2026-09-02 01:01:36 | 46.04497 | 13.94599 | 335° | 35km/h | 20925m | -10.4m/s | -53.9°C | 4.0% | 0hPa | 2.5V | 00:00:00 | 02:37:06 | 00:00:00 | |
| IN3HCDX1 | 2026-09-02 01:01:33 | 46.04488 | 13.94613 | 283° | 26km/h | 20946m | -10.4m/s | -53.9°C | 1.1% | 0hPa | 2.5V | 08:18:00 | 00:00:00 | 00:00:00 | |
| IN3HCDX | 2026-09-02 01:01:32 | 46.04489 | 13.94623 | 258° | 27km/h | 20956m | -10.1m/s | -53.9°C | 1.1% | 0hPa | 2.5V | 00:00:00 | 00:00:00 | 00:00:00 | |
| OE3JTB-15 | 2026-09-02 01:01:31 | 46.04497 | 13.94640 | 212° | 40km/h | 20976m | -10.2m/s | -54.0°C | 4.0% | 0hPa | 2.5V | 00:00:00 | 00:00:00 | 00:00:00 | |
| 9A1FER-10 | 2026-09-02 01:01:29 | 46.04514 | 13.94645 | 176° | 38km/h | 20996m | -9.5m/s | -54.1°C | 4.1% | 0hPa | 2.5V | 00:00:00 | 02:36:59 | 00:00:00 | |
| 9A1FER-3 | 2026-09-02 01:01:26 | 46.04538 | 13.94624 | 124° | 38km/h | 21025m | -9.9m/s | -54.1°C | 4.1% | 0hPa | 2.5V | 00:00:00 | 02:36:56 | 00:00:00 | |
| OE5DXL-15 | 2026-09-02 01:01:19 | 46.04514 | 13.94555 | 3° | 37km/h | 21097m | -11.0m/s | -54.5°C | 4.2% | 0hPa | 2.5V | 00:00:00 | 00:00:00 | 00:00:00 | |
| OE5WHR-10 | 2026-09-02 01:01:17 | 46.04496 | 13.94562 | 328° | 42km/h | 21119m | -10.2m/s | -54.5°C | 4.3% | 0hPa | 2.5V | 00:00:00 | 00:00:00 | 00:00:00 | |
| SOBLACK | 2026-09-02 01:01:16 | 46.04496 | 13.94562 | 329° | 38km/h | 21119m | -10.3m/s | -54.6°C | 1.2% | 0hPa | 2.5V | 08:18:00 | 00:00:00 | 00:00:00 | |
| PETON7-10 | 2026-09-02 01:01:14 | 46.04482 | 13.94596 | 272° | 37km/h | 21147m | -9.6m/s | -54.5°C | 4.3% | 0hPa | 2.5V | 00:00:00 | 00:00:00 | 00:00:00 | |
| IN3HCDX1 | 2026-09-02 01:01:13 | 46.04482 | 13.94596 | 273° | 38km/h | 21147m | -9.6m/s | -54.6°C | 1.2% | 0hPa | 2.6V | 08:18:00 | 00:00:00 | 00:00:00 | |
| IN3HCDX | 2026-09-02 01:01:12 | 46.04483 | 13.94610 | 256° | 40km/h | 21157m | -9.8m/s | -54.6°C | 1.2% | 0hPa | 2.6V | 00:00:00 | 00:00:00 | 00:00:00 | |
| 9A1FER-3 | 2026-09-02 01:01:11 | 46.04493 | 13.94634 | 228° | 38km/h | 21178m | -11.2m/s | -54.4°C | 4.2% | 0hPa | 2.6V | 00:00:00 | 02:36:41 | 00:00:00 | |
| NBG1-10 | 2026-09-02 01:01:08 | 46.04514 | 13.94649 | 178° | 33km/h | 21212m | -9.9m/s | -54.5°C | 4.2% | 0hPa | 2.6V | 00:00:00 | 02:36:38 | 00:00:00 | |
| DO3MHA-11 | 2026-09-02 01:01:05 | 46.04527 | 13.94630 | 91° | 46km/h | 21241m | -10.0m/s | -54.5°C | 4.1% | 0hPa | 2.6V | 00:00:00 | 02:36:35 | 00:00:00 | |
| 9A1FER-10 | 2026-09-02 01:00:59 | 46.04478 | 13.94586 | 356° | 35km/h | 21304m | -10.1m/s | -54.3°C | 4.2% | 0hPa | 2.6V | 00:00:00 | 02:36:29 | 00:00:00 | |
| OE5DRO-10 | 2026-09-02 01:00:58 | 46.04465 | 13.94589 | 343° | 40km/h | 21314m | -10.1m/s | -54.2°C | 4.1% | 0hPa | 2.6V | 00:00:00 | 00:00:00 | 00:00:00 | |
| 9A1FER-3 | 2026-09-02 01:00:57 | 46.04444 | 13.94606 | 317° | 37km/h | 21335m | -10.3m/s | -54.0°C | 4.1% | 0hPa | 2.6V | 00:00:00 | 02:36:26 | 00:00:00 | |
| DO3MHA-11 | 2026-09-02 01:00:55 | 46.04437 | 13.94618 | 304° | 29km/h | 21345m | -10.2m/s | -54.0°C | 4.0% | 0hPa | 2.6V | 00:00:00 | 02:36:25 | 00:00:00 | |
| OE3JTB-15 | 2026-09-02 01:00:53 | 46.04431 | 13.94642 | 270° | 27km/h | 21365m | -10.3m/s | -54.0°C | 4.1% | 0hPa | 2.6V | 00:00:00 | 02:36:23 | 00:00:00 | |
| OE5WHR-10 | 2026-09-02 01:00:52 | 46.04432 | 13.94650 | 247° | 33km/h | 21376m | -10.4m/s | -54.0°C | 4.1% | 0hPa | 2.6V | 00:00:00 | 02:36:22 | 00:00:00 | |
| IN3HCDX | 2026-09-02 01:00:51 | 46.04433 | 13.94650 | 247° | 22km/h | 21376m | -10.5m/s | -54.1°C | 1.1% | 0hPa | 2.6V | 08:18:00 | 00:00:00 | 00:00:00 | |
| OE5DXL-15 | 2026-09-02 01:00:49 | 46.04444 | 13.94654 | 144° | 46km/h | 21408m | -10.5m/s | -54.1°C | 4.1% | 0hPa | 2.6V | 08:18:00 | 00:00:00 | 00:00:00 | |
| DO3MHA-11 | 2026-09-02 01:00:45 | 46.04450 | 13.94607 | 76° | 55km/h | 21451m | -10.8m/s | -54.2°C | 4.2% | 0hPa | 2.5V | 08:18:00 | 02:36:15 | 00:00:00 | |
| 9A1FER-10 | 2026-09-02 01:00:44 | 46.04446 | 13.94590 | 65° | 42km/h | 21462m | -10.5m/s | -54.2°C | 4.2% | 0hPa | 2.6V | 00:00:00 | 02:36:14 | 00:00:00 | |
| 9A1FER-3 | 2026-09-02 01:00:41 | 46.04417 | 13.94543 | 33° | 38km/h | 21493m | -10.5m/s | -54.2°C | 4.2% | 0hPa | 2.6V | 00:00:00 | 02:36:11 | 00:00:00 | |
| OE5DRO-10 | 2026-09-02 01:00:39 | 46.04388 | 13.94526 | 13° | 44km/h | 21514m | -11.2m/s | -54.2°C | 4.2% | 0hPa | 2.6V | 00:00:00 | 00:00:00 | 00:00:00 | |
| OE8JPQ-2 | 2026-09-02 01:00:37 | 46.04360 | 13.94523 | 354° | 42km/h | 21536m | -10.6m/s | -54.1°C | 4.2% | 0hPa | 2.6V | 00:00:00 | 00:00:00 | 00:00:00 | |
| DO3MHA-11 | 2026-09-02 01:00:35 | 46.04339 | 13.94532 | 332° | 29km/h | 21557m | -10.3m/s | -54.0°C | 4.2% | 0hPa | 2.6V | 00:00:00 | 02:36:05 | 00:00:00 | |
| SOBLACK | 2026-09-02 01:00:34 | 46.04339 | 13.94532 | 333° | 35km/h | 21557m | -10.3m/s | -54.1°C | 1.2% | 0hPa | 2.6V | 00:00:00 | 00:00:00 | 00:00:00 | |
| IN3HCDX1 | 2026-09-02 01:00:33 | 46.04333 | 13.94538 | 319° | 26km/h | 21567m | -10.4m/s | -54.1°C | 1.1% | 0hPa | 2.6V | 08:18:00 | 00:00:00 | 00:00:00 | |
| OE5WHR-10 | 2026-09-02 01:00:31 | 46.04331 | 13.94548 | 174° | 31km/h | 21600m | -11.4m/s | -54.1°C | 4.1% | 0hPa | 2.6V | 00:00:00 | 00:00:00 | 00:00:00 | |
| IN3HCDX | 2026-09-02 01:00:30 | 46.04332 | 13.94548 | 174° | 11km/h | 21600m | -11.4m/s | -54.2°C | 1.1% | 0hPa | 2.6V | 08:18:00 | 00:00:00 | 00:00:00 | |
| 9A1FER-10 | 2026-09-02 01:00:29 | 46.04340 | 13.94539 | 132° | 47km/h | 21623m | -11.6m/s | -54.1°C | 4.2% | 0hPa | 2.6V | 00:00:00 | 02:35:59 | 00:00:00 | |
| NBG1-10 | 2026-09-02 01:00:27 | 46.04351 | 13.94513 | 111° | 42km/h | 21645m | -10.8m/s | -54.0°C | 4.2% | 0hPa | 2.6V | 00:00:00 | 02:35:57 | 00:00:00 | |
| 9A1FER-3 | 2026-09-02 01:00:26 | 46.04354 | 13.94493 | 101° | 44km/h | 21656m | -10.8m/s | -53.9°C | 4.1% | 0hPa | 2.6V | 08:18:00 | 02:35:56 | 00:00:00 | |
| OE5DRO-10 | 2026-09-02 01:00:20 | 46.04325 | 13.94375 | 37° | 38km/h | 21720m | -10.8m/s | -53.5°C | 4.0% | 0hPa | 2.6V | 08:18:00 | 00:00:00 | 00:00:00 | |
| OE5DXL-15 | 2026-09-02 01:00:19 | 46.04314 | 13.94366 | 25° | 35km/h | 21731m | -11.3m/s | -53.6°C | 3.9% | 0hPa | 2.6V | 00:00:00 | 00:00:00 | 00:00:00 | |
| OE8JPQ-2 | 2026-09-02 01:00:17 | 46.04297 | 13.94361 | 356° | 37km/h | 21753m | -10.8m/s | -53.6°C | 3.9% | 0hPa | 2.6V | 00:00:00 | 02:35:47 | 00:00:00 | |
| DO3MHA-11 | 2026-09-02 01:00:15 | 46.04286 | 13.94368 | 302° | 37km/h | 21775m | -11.0m/s | -53.6°C | 3.9% | 0hPa | 2.6V | 00:00:00 | 02:35:45 | 00:00:00 | |
| 9A1FER-10 | 2026-09-02 01:00:14 | 46.04285 | 13.94375 | 272° | 40km/h | 21786m | -11.3m/s | -53.6°C | 3.9% | 0hPa | 2.6V | 08:18:00 | 02:35:44 | 00:00:00 | |
| SOBLACK | 2026-09-02 01:00:13 | 46.04285 | 13.94375 | 272° | 22km/h | 21786m | -11.3m/s | -53.7°C | 1.1% | 0hPa | 2.5V | 00:00:00 | 00:00:00 | 00:00:00 | |
| IV3AMH | 2026-09-02 01:00:12 | 46.04286 | 13.94383 | 245° | 26km/h | 21797m | -11.2m/s | -53.7°C | 1.1% | 0hPa | 2.5V | 00:00:00 | 00:00:00 | 00:00:00 | |
| DO3MHA-12 | 2026-09-02 01:00:11 | 46.04297 | 13.94397 | 205° | 35km/h | 21820m | -11.7m/s | -53.7°C | 4.0% | 0hPa | 2.5V | 08:18:00 | 02:35:41 | 00:00:00 | |
| OE5WHR-10 | 2026-09-02 01:00:10 | 46.04306 | 13.94401 | 190° | 38km/h | 21832m | -10.8m/s | -53.7°C | 4.0% | 0hPa | 2.6V | 00:00:00 | 00:00:00 | 00:00:00 | |
| IN3HCDX | 2026-09-02 01:00:08 | 46.04317 | 13.94401 | 175° | 46km/h | 21842m | -10.9m/s | -53.8°C | 1.1% | 0hPa | 2.6V | 08:18:00 | 00:00:00 | 00:00:00 | |
| DO3MHA-11 | 2026-09-02 01:00:05 | 46.04357 | 13.94363 | 121° | 37km/h | 21886m | -11.1m/s | -53.7°C | 4.0% | 0hPa | 2.6V | 00:00:00 | 02:35:35 | 00:00:00 | |
| OE5DRO-10 | 2026-09-02 01:00:01 | 46.04360 | 13.94302 | 65° | 38km/h | 21931m | -11.1m/s | -53.8°C | 4.1% | 0hPa | 2.6V | 00:00:00 | 00:00:00 | 00:00:00 | |
| 9A1FER-10 | 2026-09-02 00:59:59 | 46.04349 | 13.94286 | 25° | 37km/h | 21953m | -11.0m/s | -53.9°C | 4.0% | 0hPa | 2.6V | 00:00:00 | 02:35:29 | 00:00:00 | |
| OE8JPQ-2 | 2026-09-02 00:59:57 | 46.04336 | 13.94285 | 339° | 42km/h | 21975m | -11.4m/s | -54.0°C | 4.1% | 0hPa | 2.6V | 00:00:00 | 00:00:00 | 00:00:00 | |
| 9A1FER-3 | 2026-09-02 00:59:56 | 46.04330 | 13.94290 | 318° | 40km/h | 21986m | -11.4m/s | -54.1°C | 4.1% | 0hPa | 2.5V | 00:00:00 | 02:35:26 | 00:00:00 | |
| DO3MHA-11 | 2026-09-02 00:59:55 | 46.04326 | 13.94298 | 296° | 37km/h | 21998m | -11.5m/s | -54.1°C | 4.1% | 0hPa | 2.5V | 00:00:00 | 02:35:25 | 00:00:00 | |
| NBG1-10 | 2026-09-02 00:59:54 | 46.04324 | 13.94308 | 276° | 38km/h | 22010m | -11.8m/s | -54.1°C | 4.1% | 0hPa | 2.5V | 08:19:00 | 02:35:24 | 00:00:00 | |
| SOBLACK | 2026-09-02 00:59:53 | 46.04324 | 13.94308 | 276° | 29km/h | 22010m | -11.9m/s | -54.2°C | 1.1% | 0hPa | 2.5V | 08:19:00 | 00:00:00 | 00:00:00 | |
| IN3HCDX1 | 2026-09-02 00:59:51 | 46.04328 | 13.94330 | 236° | 33km/h | 22033m | -11.9m/s | -54.3°C | 1.2% | 0hPa | 2.5V | 08:19:00 | 00:00:00 | 00:00:00 | |
| OE5DXL-15 | 2026-09-02 00:59:49 | 46.04352 | 13.94344 | 175° | 44km/h | 22068m | -11.3m/s | -54.2°C | 4.2% | 0hPa | 2.5V | 00:00:00 | 00:00:00 | 00:00:00 | |
| IN3HCDX | 2026-09-02 00:59:48 | 46.04352 | 13.94345 | 175° | 40km/h | 22068m | -11.4m/s | -54.3°C | 1.2% | 0hPa | 2.5V | 08:19:00 | 00:00:00 | 00:00:00 | |
| DO3MHA-11 | 2026-09-02 00:59:45 | 46.04385 | 13.94303 | 111° | 49km/h | 22112m | -10.7m/s | -54.2°C | 4.1% | 0hPa | 2.5V | 00:00:00 | 02:35:15 | 00:00:00 | |
| 9A1FER-10 | 2026-09-02 00:59:44 | 46.04388 | 13.94285 | 98° | 40km/h | 22123m | -11.1m/s | -54.2°C | 4.1% | 0hPa | 2.6V | 00:00:00 | 02:35:14 | 00:00:00 | |
| OE5DRO-10 | 2026-09-02 00:59:42 | 46.04386 | 13.94245 | 75° | 42km/h | 22146m | -11.7m/s | -54.1°C | 4.2% | 0hPa | 2.6V | 00:00:00 | 00:00:00 | 00:00:00 | |
| 9A1FER-3 | 2026-09-02 00:59:41 | 46.04382 | 13.94227 | 65° | 40km/h | 22157m | -11.5m/s | -54.1°C | 4.2% | 0hPa | 2.6V | 00:00:00 | 02:35:11 | 00:00:00 | |
| OE5WHR-10 | 2026-09-02 00:59:40 | 46.04375 | 13.94210 | 54° | 37km/h | 22169m | -11.3m/s | -54.1°C | 4.2% | 0hPa | 2.5V | 00:00:00 | 02:35:10 | 00:00:00 | |
| DO3MHA-12 | 2026-09-02 00:59:39 | 46.04366 | 13.94197 | 42° | 35km/h | 22180m | -12.1m/s | -54.1°C | 4.2% | 0hPa | 2.5V | 00:00:00 | 02:35:09 | 00:00:00 | |
| OE8JPQ-2 | 2026-09-02 00:59:37 | 46.04347 | 13.94181 | 16° | 38km/h | 22204m | -11.9m/s | -54.0°C | 4.1% | 0hPa | 2.5V | 00:00:00 | 00:00:00 | 00:00:00 | |
| DO3MHA-11 | 2026-09-02 00:59:35 | 46.04331 | 13.94182 | 335° | 38km/h | 22229m | -12.4m/s | -53.8°C | 4.0% | 0hPa | 2.5V | 00:00:00 | 02:35:05 | 00:00:00 | |
| IV3AMH | 2026-09-02 00:59:34 | 46.04331 | 13.94182 | 336° | 27km/h | 22229m | -12.4m/s | -53.9°C | 1.1% | 0hPa | 2.5V | 00:00:00 | 00:00:00 | 00:00:00 | |
| SOBLACK | 2026-09-02 00:59:32 | 46.04324 | 13.94195 | 274° | 24km/h | 22253m | -11.8m/s | -53.8°C | 1.1% | 0hPa | 2.5V | 08:19:00 | 00:00:00 | 00:00:00 | |
| OE3JTB-15 | 2026-09-02 00:59:30 | 46.04338 | 13.94221 | 205° | 42km/h | 22287m | -11.0m/s | -53.8°C | 3.9% | 0hPa | 2.5V | 00:00:00 | 00:00:00 | 00:00:00 | |
| DO3MHA-12 | 2026-09-02 00:59:29 | 46.04349 | 13.94225 | 190° | 44km/h | 22299m | -11.2m/s | -53.8°C | 4.0% | 0hPa | 2.5V | 00:00:00 | 02:34:59 | 00:00:00 | |
| IN3HCDX | 2026-09-02 00:59:27 | 46.04360 | 13.94226 | 178° | 49km/h | 22310m | -11.3m/s | -53.9°C | 1.1% | 0hPa | 2.5V | 08:19:00 | 00:00:00 | 00:00:00 | |
| 9A1FER-3 | 2026-09-02 00:59:26 | 46.04386 | 13.94216 | 154° | 37km/h | 22333m | -11.6m/s | -53.9°C | 4.0% | 0hPa | 2.5V | 00:00:00 | 02:34:56 | 00:00:00 | |
| DO3MHA-11 | 2026-09-02 00:59:25 | 46.04397 | 13.94206 | 143° | 37km/h | 22345m | -11.7m/s | -53.9°C | 4.0% | 0hPa | 2.5V | 00:00:00 | 02:34:55 | 00:00:00 | |
| OE5DRO-10 | 2026-09-02 00:59:23 | 46.04412 | 13.94180 | 117° | 37km/h | 22368m | -11.6m/s | -53.9°C | 4.1% | 0hPa | 2.5V | 00:00:00 | 00:00:00 | 00:00:00 | |
| NBG1-10 | 2026-09-02 00:59:21 | 46.04415 | 13.94153 | 82° | 38km/h | 22391m | -10.9m/s | -53.9°C | 4.1% | 0hPa | 2.5V | 00:00:00 | 02:34:51 | 00:00:00 | |
| DO3MHA-12 | 2026-09-02 00:59:19 | 46.04408 | 13.94134 | 39° | 33km/h | 22413m | -11.2m/s | -54.0°C | 4.1% | 0hPa | 2.5V | 00:00:00 | 02:34:49 | 00:00:00 | |
| PETON7-10 | 2026-09-02 00:59:17 | 46.04394 | 13.94127 | 360° | 37km/h | 22437m | -12.8m/s | -53.9°C | 4.0% | 0hPa | 2.5V | 08:19:00 | 00:00:00 | 00:00:00 | |
| DO3MHA-11 | 2026-09-02 00:59:15 | 46.04382 | 13.94134 | 319° | 40km/h | 22462m | -12.1m/s | -54.0°C | 4.1% | 0hPa | 2.5V | 08:19:00 | 02:34:45 | 00:00:00 | |
| 9A1FER-10 | 2026-09-02 00:59:14 | 46.04377 | 13.94142 | 297° | 40km/h | 22474m | -11.3m/s | -54.1°C | 4.1% | 0hPa | 2.5V | 00:00:00 | 02:34:44 | 00:00:00 | |
| 9A1FER-3 | 2026-09-02 00:59:11 | 46.04381 | 13.94180 | 239° | 42km/h | 22507m | -11.6m/s | -54.3°C | 4.1% | 0hPa | 2.5V | 00:00:00 | 02:34:41 | 00:00:00 | |
| IN3HCDX1 | 2026-09-02 00:59:10 | 46.04381 | 13.94180 | 239° | 42km/h | 22507m | -11.6m/s | -54.3°C | 1.1% | 0hPa | 2.5V | 08:20:00 | 00:00:00 | 00:00:00 | |
| DO3MHA-12 | 2026-09-02 00:59:09 | 46.04397 | 13.94201 | 211° | 42km/h | 22532m | -13.0m/s | -54.4°C | 4.2% | 0hPa | 2.5V | 00:00:00 | 02:34:39 | 00:00:00 | |
| IN3HCDX | 2026-09-02 00:59:06 | 46.04418 | 13.94211 | 182° | 44km/h | 22558m | -12.5m/s | -54.5°C | 1.2% | 0hPa | 2.5V | 08:20:00 | 00:00:00 | 00:00:00 | |
| DO3MHA-11 | 2026-09-02 00:59:05 | 46.04438 | 13.94202 | 145° | 42km/h | 22581m | -10.9m/s | -54.4°C | 4.3% | 0hPa | 2.5V | 00:00:00 | 02:34:35 | 00:00:00 | |
| OE5DRO-10 | 2026-09-02 00:59:04 | 46.04445 | 13.94192 | 125° | 40km/h | 22592m | -11.3m/s | -54.4°C | 4.2% | 0hPa | 2.5V | 00:00:00 | 00:00:00 | 00:00:00 | |
| PETON7-10 | 2026-09-02 00:59:02 | 46.04450 | 13.94164 | 87° | 40km/h | 22616m | -12.3m/s | -54.3°C | 4.2% | 0hPa | 2.5V | 00:00:00 | 00:00:00 | 00:00:00 | |
| DO3MHA-12 | 2026-09-02 00:58:59 | 46.04436 | 13.94124 | 42° | 38km/h | 22653m | -12.7m/s | -54.5°C | 4.2% | 0hPa | 2.5V | 00:00:00 | 02:34:29 | 00:00:00 | |
| OE5WHR-10 | 2026-09-02 00:58:58 | 46.04427 | 13.94115 | 27° | 40km/h | 22666m | -12.9m/s | -54.5°C | 4.3% | 0hPa | 2.6V | 00:00:00 | 00:00:00 | 00:00:00 | |
| OE8JPQ-2 | 2026-09-02 00:58:57 | 46.04417 | 13.94110 | 13° | 40km/h | 22678m | -12.4m/s | -54.5°C | 4.3% | 0hPa | 2.6V | 00:00:00 | 00:00:00 | 00:00:00 | |
| 9A1FER-3 | 2026-09-02 00:58:56 | 46.04407 | 13.94109 | 356° | 40km/h | 22691m | -11.9m/s | -54.5°C | 4.3% | 0hPa | 2.5V | 00:00:00 | 02:34:26 | 00:00:00 | |
| DO3MHA-11 | 2026-09-02 00:58:55 | 46.04397 | 13.94112 | 339° | 38km/h | 22702m | -11.2m/s | -54.4°C | 4.3% | 0hPa | 2.5V | 00:00:00 | 02:34:25 | 00:00:00 | |
| OE3JTB-15 | 2026-09-02 00:58:54 | 46.04390 | 13.94119 | 318° | 40km/h | 22713m | -11.1m/s | -54.3°C | 4.3% | 0hPa | 2.5V | 00:00:00 | 02:34:24 | 00:00:00 | |
| OE5DXL-15 | 2026-09-02 00:58:49 | 46.04391 | 13.94177 | 230° | 42km/h | 22773m | -12.7m/s | -54.0°C | 4.1% | 0hPa | 2.5V | 00:00:00 | 00:00:00 | 00:00:00 | |
| NBG1-10 | 2026-09-02 00:58:48 | 46.04399 | 13.94187 | 216° | 42km/h | 22785m | -12.8m/s | -53.9°C | 4.1% | 0hPa | 2.5V | 00:00:00 | 02:34:18 | 00:00:00 | |
| PETON7-10 | 2026-09-02 00:58:47 | 46.04408 | 13.94194 | 204° | 42km/h | 22798m | -12.7m/s | -53.8°C | 4.0% | 0hPa | 2.5V | 00:00:00 | 02:34:17 | 00:00:00 | |
| DO3MHA-11 | 2026-09-02 00:58:45 | 46.04430 | 13.94199 | 175° | 42km/h | 22823m | -11.9m/s | -53.7°C | 4.0% | 0hPa | 2.5V | 00:00:00 | 02:34:15 | 00:00:00 | |
| 9A1FER-10 | 2026-09-02 00:58:44 | 46.04441 | 13.94195 | 160° | 40km/h | 22835m | -11.8m/s | -53.7°C | 4.0% | 0hPa | 2.5V | 00:00:00 | 02:34:14 | 00:00:00 | |
| 9A1FER-3 | 2026-09-02 00:58:41 | 46.04465 | 13.94162 | 114° | 40km/h | 22872m | -12.7m/s | -53.7°C | 4.0% | 0hPa | 2.5V | 00:00:00 | 02:34:11 | 00:00:00 | |
| DO3MHA-12 | 2026-09-02 00:58:39 | 46.04468 | 13.94132 | 82° | 37km/h | 22896m | -12.1m/s | -53.7°C | 4.1% | 0hPa | 2.5V | 00:00:00 | 02:34:09 | 00:00:00 | |
| OE5WHR-10 | 2026-09-02 00:58:37 | 46.04460 | 13.94106 | 48° | 42km/h | 22921m | -12.6m/s | -53.7°C | 4.0% | 0hPa | 2.5V | 00:00:00 | 02:34:07 | 00:00:00 | |
| DO3MHA-11 | 2026-09-02 00:58:35 | 46.04444 | 13.94093 | 12° | 40km/h | 22946m | -11.9m/s | -53.8°C | 4.0% | 0hPa | 2.5V | 00:00:00 | 02:34:05 | 00:00:00 | |
| PETON7-10 | 2026-09-02 00:58:32 | 46.04421 | 13.94105 | 308° | 42km/h | 22982m | -12.1m/s | -53.9°C | 4.1% | 0hPa | 2.5V | 00:00:00 | 00:00:00 | 00:00:00 | |
| PG1ADW-2 | 2026-09-02 00:58:30 | 46.04416 | 13.94130 | 271° | 40km/h | 23006m | -11.8m/s | -54.0°C | 4.1% | 0hPa | 2.6V | 00:00:00 | 02:34:00 | 00:00:00 | |
| DO3MHA-12 | 2026-09-02 00:58:29 | 46.04417 | 13.94145 | 255° | 46km/h | 23018m | -11.8m/s | -54.0°C | 4.1% | 0hPa | 2.6V | 08:20:00 | 02:33:59 | 00:00:00 | |
| 9A1FER-3 | 2026-09-02 00:58:26 | 46.04437 | 13.94184 | 217° | 42km/h | 23054m | -12.5m/s | -54.1°C | 4.2% | 0hPa | 2.6V | 00:00:00 | 02:33:56 | 00:00:00 | |
| DO3MHA-11 | 2026-09-02 00:58:25 | 46.04447 | 13.94193 | 205° | 42km/h | 23067m | -12.9m/s | -54.1°C | 4.1% | 0hPa | 2.6V | 00:00:00 | 02:33:55 | 00:00:00 | |
| OE3JTB-15 | 2026-09-02 00:58:24 | 46.04459 | 13.94199 | 192° | 40km/h | 23080m | -13.1m/s | -54.1°C | 4.2% | 0hPa | 2.6V | 08:20:00 | 00:00:00 | 00:00:00 | |
| OE5DXL-15 | 2026-09-02 00:58:20 | 46.04503 | 13.94165 | 107° | 42km/h | 23144m | -12.2m/s | -54.0°C | 4.2% | 0hPa | 2.5V | 00:00:00 | 00:00:00 | 00:00:00 | |
| OE5WHR-10 | 2026-09-02 00:58:16 | 46.04497 | 13.94126 | 47° | 38km/h | 23180m | -12.2m/s | -53.9°C | 4.1% | 0hPa | 2.5V | 08:20:00 | 00:00:00 | 00:00:00 | |
| NBG1-10 | 2026-09-02 00:58:15 | 46.04489 | 13.94118 | 29° | 42km/h | 23193m | -12.5m/s | -53.9°C | 4.1% | 0hPa | 2.5V | 00:00:00 | 02:33:45 | 00:00:00 | |
| 9A1FER-10 | 2026-09-02 00:58:14 | 46.04480 | 13.94113 | 11° | 42km/h | 23205m | -12.4m/s | -53.9°C | 4.1% | 0hPa | 2.5V | 00:00:00 | 02:33:44 | 00:00:00 | |
| 9A1FER-3 | 2026-09-02 00:58:11 | 46.04451 | 13.94124 | 319° | 44km/h | 23243m | -12.9m/s | -53.8°C | 4.1% | 0hPa | 2.5V | 08:20:00 | 02:33:41 | 00:00:00 | |
| DO3MHA-12 | 2026-09-02 00:58:09 | 46.04442 | 13.94147 | 280° | 42km/h | 23269m | -13.3m/s | -53.7°C | 4.2% | 0hPa | 2.5V | 00:00:00 | 02:33:39 | 00:00:00 | |
| OE5DRO-10 | 2026-09-02 00:58:07 | 46.04445 | 13.94172 | 238° | 42km/h | 23295m | -12.0m/s | -53.6°C | 4.2% | 0hPa | 2.5V | 00:00:00 | 00:00:00 | 00:00:00 | |
| SOBLACK | 2026-09-02 00:58:06 | 46.04445 | 13.94172 | 239° | 35km/h | 23295m | -12.0m/s | -53.6°C | 1.1% | 0hPa | 2.5V | 00:00:00 | 00:00:00 | 00:00:00 | |
| DO3MHA-11 | 2026-09-02 00:58:05 | 46.04459 | 13.94186 | 191° | 49km/h | 23320m | -12.1m/s | -53.4°C | 4.1% | 0hPa | 2.5V | 00:00:00 | 02:33:35 | 00:00:00 | |
| PG1ADW-2 | 2026-09-02 00:58:04 | 46.04469 | 13.94185 | 170° | 42km/h | 23332m | -12.4m/s | -53.3°C | 4.1% | 0hPa | 2.5V | 00:00:00 | 00:00:00 | 00:00:00 | |
| PETON7-10 | 2026-09-02 00:58:01 | 46.04497 | 13.94156 | 123° | 46km/h | 23370m | -13.0m/s | -53.4°C | 4.1% | 0hPa | 2.5V | 00:00:00 | 02:33:31 | 00:00:00 | |
| DO3MHA-12 | 2026-09-02 00:57:59 | 46.04506 | 13.94120 | 98° | 44km/h | 23396m | -12.9m/s | -53.4°C | 4.2% | 0hPa | 2.5V | 00:00:00 | 02:33:29 | 00:00:00 | |
| OE8JPQ-2 | 2026-09-02 00:57:57 | 46.04503 | 13.94082 | 72° | 42km/h | 23421m | -12.2m/s | -53.2°C | 4.1% | 0hPa | 2.6V | 08:21:00 | 00:00:00 | 00:00:00 | |
| 9A1FER-3 | 2026-09-02 00:57:56 | 46.04498 | 13.94065 | 58° | 42km/h | 23433m | -11.7m/s | -53.1°C | 4.1% | 0hPa | 2.5V | 00:00:00 | 02:33:26 | 00:00:00 | |
| DO3MHA-11 | 2026-09-02 00:57:55 | 46.04490 | 13.94053 | 42° | 38km/h | 23445m | -12.0m/s | -53.1°C | 4.1% | 0hPa | 2.5V | 00:00:00 | 02:33:25 | 00:00:00 | |
| OE5WHR-10 | 2026-09-02 00:57:53 | 46.04472 | 13.94040 | 7° | 42km/h | 23470m | -13.1m/s | -53.0°C | 4.0% | 0hPa | 2.5V | 00:00:00 | 00:00:00 | 00:00:00 | |
| OE3JTB-15 | 2026-09-02 00:57:51 | 46.04456 | 13.94045 | 327° | 44km/h | 23497m | -13.8m/s | -52.9°C | 4.0% | 0hPa | 2.5V | 00:00:00 | 00:00:00 | 00:00:00 | |
| OE5DXL-15 | 2026-09-02 00:57:49 | 46.04447 | 13.94064 | 281° | 44km/h | 23524m | -13.0m/s | -52.6°C | 3.8% | 0hPa | 2.5V | 00:00:00 | 00:00:00 | 00:00:00 | |
| OE5DRO-10 | 2026-09-02 00:57:48 | 46.04447 | 13.94077 | 260° | 42km/h | 23537m | -12.3m/s | -52.5°C | 3.8% | 0hPa | 2.6V | 00:00:00 | 00:00:00 | 00:00:00 | |
| PETON7-10 | 2026-09-02 00:57:46 | 46.04458 | 13.94103 | 222° | 38km/h | 23561m | -11.7m/s | -52.4°C | 3.8% | 0hPa | 2.6V | 00:00:00 | 00:00:00 | 00:00:00 | |
| DO3MHA-11 | 2026-09-02 00:57:45 | 46.04468 | 13.94112 | 207° | 42km/h | 23573m | -11.9m/s | -52.4°C | 3.8% | 0hPa | 2.5V | 08:21:00 | 02:33:15 | 00:00:00 | |
| 9A1FER-10 | 2026-09-02 00:57:44 | 46.04480 | 13.94119 | 193° | 40km/h | 23585m | -12.4m/s | -52.4°C | 3.8% | 0hPa | 2.6V | 00:00:00 | 02:33:14 | 00:00:00 | |
| IN3HCDX | 2026-09-02 00:57:43 | 46.04480 | 13.94119 | 194° | 53km/h | 23585m | -12.5m/s | -52.4°C | 1.0% | 0hPa | 2.6V | 00:00:00 | 00:00:00 | 00:00:00 | |
| PG1ADW-2 | 2026-09-02 00:57:42 | 46.04506 | 13.94119 | 169° | 47km/h | 23611m | -13.4m/s | -52.4°C | 3.8% | 0hPa | 2.6V | 08:21:00 | 00:00:00 | 00:00:00 | |
| 9A1FER-3 | 2026-09-02 00:57:41 | 46.04517 | 13.94114 | 156° | 42km/h | 23625m | -13.7m/s | -52.4°C | 3.8% | 0hPa | 2.5V | 00:00:00 | 02:33:11 | 00:00:00 | |
| DO3MHA-12 | 2026-09-02 00:57:39 | 46.04534 | 13.94095 | 125° | 35km/h | 23652m | -13.0m/s | -52.4°C | 3.8% | 0hPa | 2.5V | 00:00:00 | 02:33:09 | 00:00:00 | |
| OE8JPQ-2 | 2026-09-02 00:57:37 | 46.04538 | 13.94073 | 79° | 44km/h | 23677m | -12.6m/s | -52.4°C | 3.9% | 0hPa | 2.5V | 00:00:00 | 00:00:00 | 00:00:00 | |
| DO3MHA-11 | 2026-09-02 00:57:35 | 46.04529 | 13.94061 | 16° | 47km/h | 23703m | -13.1m/s | -52.4°C | 3.9% | 0hPa | 2.5V | 00:00:00 | 02:33:05 | 00:00:00 | |
| OE5WHR-10 | 2026-09-02 00:57:32 | 46.04506 | 13.94073 | 316° | 49km/h | 23742m | -12.9m/s | -52.3°C | 3.8% | 0hPa | 2.5V | 00:00:00 | 02:33:02 | 00:00:00 | |
| PETON7-10 | 2026-09-02 00:57:31 | 46.04499 | 13.94087 | 301° | 47km/h | 23755m | -12.9m/s | -52.3°C | 3.8% | 0hPa | 2.5V | 00:00:00 | 00:00:00 | 00:00:00 | |
| DO3MHA-12 | 2026-09-02 00:57:29 | 46.04490 | 13.94125 | 277° | 49km/h | 23781m | -13.4m/s | -52.5°C | 3.9% | 0hPa | 2.5V | 00:00:00 | 02:32:59 | 00:00:00 | |
| IN3HCDX1 | 2026-09-02 00:57:27 | 46.04490 | 13.94146 | 266° | 60km/h | 23795m | -13.8m/s | -52.5°C | 1.0% | 0hPa | 2.6V | 08:22:00 | 00:00:00 | 00:00:00 | |
| 9A1FER-3 | 2026-09-02 00:57:26 | 46.04498 | 13.94186 | 242° | 42km/h | 23822m | -13.1m/s | -52.4°C | 3.9% | 0hPa | 2.6V | 00:00:00 | 02:32:56 | 00:00:00 | |
| DO3MHA-11 | 2026-09-02 00:57:25 | 46.04506 | 13.94202 | 230° | 42km/h | 23835m | -12.7m/s | -52.4°C | 3.9% | 0hPa | 2.6V | 00:00:00 | 02:32:55 | 00:00:00 | |
| IN3HCDX | 2026-09-02 00:57:23 | 46.04515 | 13.94213 | 215° | 46km/h | 23847m | -12.4m/s | -52.4°C | 1.0% | 0hPa | 2.6V | 08:22:00 | 00:00:00 | 00:00:00 | |
| PG1ADW-2 | 2026-09-02 00:57:22 | 46.04535 | 13.94223 | 181° | 42km/h | 23872m | -12.0m/s | -52.3°C | 3.9% | 0hPa | 2.6V | 00:00:00 | 00:00:00 | 00:00:00 | |
| SOBLACK | 2026-09-02 00:57:21 | 46.04535 | 13.94223 | 182° | 40km/h | 23872m | -12.0m/s | -52.3°C | 1.0% | 0hPa | 2.6V | 00:00:00 | 00:00:00 | 00:00:00 | |
| DO3MHA-12 | 2026-09-02 00:57:19 | 46.04561 | 13.94206 | 135° | 40km/h | 23909m | -13.1m/s | -52.2°C | 3.8% | 0hPa | 2.6V | 00:00:00 | 02:32:49 | 00:00:00 | |
| OE8JPQ-2 | 2026-09-02 00:57:17 | 46.04571 | 13.94182 | 110° | 44km/h | 23937m | -13.3m/s | -52.2°C | 3.8% | 0hPa | 2.6V | 00:00:00 | 02:32:47 | 00:00:00 | |
| PETON7-10 | 2026-09-02 00:57:15 | 46.04573 | 13.94155 | 79° | 44km/h | 23963m | -12.5m/s | -52.1°C | 3.9% | 0hPa | 2.6V | 00:00:00 | 02:32:45 | 00:00:00 | |
| 9A1FER-10 | 2026-09-02 00:57:14 | 46.04569 | 13.94142 | 61° | 44km/h | 23975m | -12.3m/s | -52.0°C | 3.8% | 0hPa | 2.6V | 00:00:00 | 02:32:44 | 00:00:00 | |
| 9A1FER-3 | 2026-09-02 00:57:11 | 46.04545 | 13.94117 | 14° | 44km/h | 24013m | -13.0m/s | -51.8°C | 3.7% | 0hPa | 2.5V | 00:00:00 | 02:32:41 | 00:00:00 | |
| OE5DRO-10 | 2026-09-02 00:57:10 | 46.04534 | 13.94115 | 1° | 44km/h | 24026m | -13.6m/s | -51.7°C | 3.7% | 0hPa | 2.5V | 00:00:00 | 00:00:00 | 00:00:00 | |
| DO3MHA-12 | 2026-09-02 00:57:09 | 46.04523 | 13.94117 | 348° | 46km/h | 24040m | -13.9m/s | -51.7°C | 3.6% | 0hPa | 2.5V | 00:00:00 | 02:32:39 | 00:00:00 | |
| IN3HCDX1 | 2026-09-02 00:57:07 | 46.04512 | 13.94123 | 335° | 47km/h | 24055m | -14.3m/s | -51.7°C | 1.0% | 0hPa | 2.5V | 08:22:00 | 00:00:00 | 00:00:00 | |
| DO3MHA-11 | 2026-09-02 00:57:05 | 46.04488 | 13.94160 | 290° | 44km/h | 24097m | -13.6m/s | -51.7°C | 3.7% | 0hPa | 2.5V | 00:00:00 | 02:32:35 | 00:00:00 | |
| IV3AMH | 2026-09-02 00:57:04 | 46.04488 | 13.94160 | 290° | 47km/h | 24097m | -13.6m/s | -51.7°C | 1.0% | 0hPa | 2.5V | 00:00:00 | 00:00:00 | 00:00:00 | |
| PG1ADW-2 | 2026-09-02 00:57:02 | 46.04492 | 13.94206 | 237° | 44km/h | 24137m | -12.9m/s | -51.7°C | 3.7% | 0hPa | 2.5V | 00:00:00 | 02:32:32 | 00:00:00 | |
| OE5WHR-10 | 2026-09-02 00:57:01 | 46.04499 | 13.94217 | 218° | 47km/h | 24150m | -13.1m/s | -51.7°C | 3.6% | 0hPa | 2.5V | 00:00:00 | 00:00:00 | 00:00:00 | |
| PETON7-10 | 2026-09-02 00:57:00 | 46.04508 | 13.94224 | 200° | 42km/h | 24163m | -12.9m/s | -51.7°C | 3.7% | 0hPa | 2.5V | 08:22:00 | 00:00:00 | 00:00:00 | |
| DO3MHA-12 | 2026-09-02 00:56:59 | 46.04518 | 13.94227 | 181° | 44km/h | 24176m | -13.1m/s | -51.7°C | 3.7% | 0hPa | 2.6V | 08:22:00 | 02:32:29 | 00:00:00 | |
| OE8JPQ-2 | 2026-09-02 00:56:57 | 46.04538 | 13.94218 | 148° | 49km/h | 24203m | -14.2m/s | -51.6°C | 3.6% | 0hPa | 2.5V | 00:00:00 | 00:00:00 | 00:00:00 | |
| 9A1FER-3 | 2026-09-02 00:56:56 | 46.04547 | 13.94208 | 133° | 46km/h | 24218m | -14.5m/s | -51.5°C | 3.6% | 0hPa | 2.5V | 00:00:00 | 02:32:26 | 00:00:00 | |
| DO3MHA-11 | 2026-09-02 00:56:55 | 46.04553 | 13.94195 | 118° | 42km/h | 24232m | -14.6m/s | -51.5°C | 3.7% | 0hPa | 2.5V | 00:00:00 | 02:32:25 | 00:00:00 | |
| OE5DRO-10 | 2026-09-02 00:56:51 | 46.04548 | 13.94137 | 40° | 49km/h | 24288m | -14.0m/s | -51.5°C | 3.6% | 0hPa | 2.5V | 00:00:00 | 00:00:00 | 00:00:00 | |
| OE3JTB-15 | 2026-09-02 00:56:50 | 46.04539 | 13.94130 | 19° | 44km/h | 24302m | -13.9m/s | -51.5°C | 3.6% | 0hPa | 2.5V | 00:00:00 | 00:00:00 | 00:00:00 | |
| DO3MHA-12 | 2026-09-02 00:56:49 | 46.04529 | 13.94129 | 355° | 51km/h | 24316m | -14.5m/s | -51.4°C | 3.6% | 0hPa | 2.5V | 00:00:00 | 02:32:19 | 00:00:00 | |
| IN3HCDX1 | 2026-09-02 00:56:47 | 46.04519 | 13.94133 | 335° | 40km/h | 24330m | -14.0m/s | -51.5°C | 0.9% | 0hPa | 2.5V | 08:22:00 | 00:00:00 | 00:00:00 | |
| DO3MHA-11 | 2026-09-02 00:56:45 | 46.04504 | 13.94171 | 272° | 57km/h | 24371m | -13.2m/s | -51.6°C | 3.6% | 0hPa | 2.5V | 00:00:00 | 02:32:15 | 00:00:00 | |
| 9A1FER-10 | 2026-09-02 00:56:44 | 46.04505 | 13.94188 | 255° | 51km/h | 24384m | -13.2m/s | -51.6°C | 3.6% | 0hPa | 2.6V | 00:00:00 | 02:32:14 | 00:00:00 | |
| SOBLACK | 2026-09-02 00:56:43 | 46.04505 | 13.94188 | 255° | 51km/h | 24384m | -13.3m/s | -51.6°C | 0.9% | 0hPa | 2.6V | 00:00:00 | 00:00:00 | 00:00:00 | |
| PG1ADW-2 | 2026-09-02 00:56:42 | 46.04520 | 13.94222 | 224° | 55km/h | 24412m | -14.0m/s | -51.6°C | 3.7% | 0hPa | 2.6V | 00:00:00 | 00:00:00 | 00:00:00 | |
| 9A1FER-3 | 2026-09-02 00:56:41 | 46.04532 | 13.94235 | 211° | 47km/h | 24426m | -14.1m/s | -51.7°C | 3.7% | 0hPa | 2.6V | 00:00:00 | 02:32:11 | 00:00:00 | |
| OE5WHR-10 | 2026-09-02 00:56:40 | 46.04546 | 13.94244 | 199° | 58km/h | 24440m | -14.3m/s | -51.7°C | 3.7% | 0hPa | 2.5V | 00:00:00 | 00:00:00 | 00:00:00 | |
| DO3MHA-12 | 2026-09-02 00:56:39 | 46.04561 | 13.94248 | 186° | 47km/h | 24455m | -14.8m/s | -51.7°C | 3.7% | 0hPa | 2.5V | 00:00:00 | 02:32:09 | 00:00:00 | |
| OE8JPQ-2 | 2026-09-02 00:56:37 | 46.04591 | 13.94243 | 161° | 51km/h | 24484m | -14.4m/s | -51.7°C | 3.7% | 0hPa | 2.5V | 00:00:00 | 00:00:00 | 00:00:00 | |
| NBG1-10 | 2026-09-02 00:56:36 | 46.04604 | 13.94234 | 146° | 51km/h | 24498m | -14.1m/s | -51.6°C | 3.7% | 0hPa | 2.5V | 00:00:00 | 02:32:06 | 00:00:00 | |
| DO3MHA-11 | 2026-09-02 00:56:35 | 46.04613 | 13.94222 | 130° | 42km/h | 24512m | -13.7m/s | -51.6°C | 3.7% | 0hPa | 2.5V | 00:00:00 | 02:32:05 | 00:00:00 | |
| OE5DRO-10 | 2026-09-02 00:56:32 | 46.04618 | 13.94182 | 62° | 49km/h | 24553m | -13.9m/s | -51.4°C | 3.6% | 0hPa | 2.5V | 00:00:00 | 00:00:00 | 00:00:00 | |
| PETON7-10 | 2026-09-02 00:56:30 | 46.04604 | 13.94167 | 15° | 53km/h | 24582m | -14.8m/s | -51.4°C | 3.6% | 0hPa | 2.6V | 00:00:00 | 02:32:00 | 00:00:00 | |
| 9A1FER-10 | 2026-09-02 00:56:29 | 46.04595 | 13.94166 | 355° | 53km/h | 24597m | -14.7m/s | -51.4°C | 3.6% | 0hPa | 2.6V | 00:00:00 | 02:31:59 | 00:00:00 | |
| 9A1FER-3 | 2026-09-02 00:56:26 | 46.04568 | 13.94194 | 299° | 51km/h | 24639m | -13.7m/s | -51.4°C | 3.6% | 0hPa | 2.5V | 00:00:00 | 02:31:56 | 00:00:00 | |
| DO3MHA-11 | 2026-09-02 00:56:25 | 46.04564 | 13.94212 | 282° | 57km/h | 24653m | -14.0m/s | -51.4°C | 3.6% | 0hPa | 2.5V | 00:00:00 | 02:31:55 | 00:00:00 | |
| PG1ADW-2 | 2026-09-02 00:56:22 | 46.04571 | 13.94276 | 240° | 64km/h | 24696m | -14.4m/s | -51.4°C | 3.6% | 0hPa | 2.5V | 00:00:00 | 00:00:00 | 00:00:00 | |
| OE3JTB-15 | 2026-09-02 00:56:21 | 46.04581 | 13.94294 | 226° | 51km/h | 24710m | -14.6m/s | -51.5°C | 3.6% | 0hPa | 2.5V | 00:00:00 | 00:00:00 | 00:00:00 | |
| OE5DXL-15 | 2026-09-02 00:56:19 | 46.04607 | 13.94318 | 199° | 51km/h | 24739m | -14.1m/s | -51.6°C | 3.7% | 0hPa | 2.5V | 08:22:00 | 00:00:00 | 00:00:00 | |
| OE5WHR-10 | 2026-09-02 00:56:18 | 46.04621 | 13.94322 | 184° | 53km/h | 24753m | -14.4m/s | -51.7°C | 3.7% | 0hPa | 2.5V | 00:00:00 | 02:31:48 | 00:00:00 | |
| OE8JPQ-2 | 2026-09-02 00:56:17 | 46.04634 | 13.94321 | 168° | 51km/h | 24768m | -14.4m/s | -51.7°C | 3.7% | 0hPa | 2.5V | 00:00:00 | 02:31:47 | 00:00:00 | |
| DO3MHA-11 | 2026-09-02 00:56:15 | 46.04652 | 13.94306 | 125° | 60km/h | 24797m | -14.9m/s | -51.8°C | 3.7% | 0hPa | 2.5V | 08:22:00 | 02:31:45 | 00:00:00 | |
| 9A1FER-10 | 2026-09-02 00:56:14 | 46.04655 | 13.94295 | 97° | 55km/h | 24812m | -15.0m/s | -51.8°C | 3.7% | 0hPa | 2.5V | 00:00:00 | 02:31:44 | 00:00:00 | |
| OE5DRO-10 | 2026-09-02 00:56:13 | 46.04653 | 13.94284 | 65° | 51km/h | 24827m | -14.5m/s | -51.7°C | 3.8% | 0hPa | 2.5V | 00:00:00 | 00:00:00 | 00:00:00 | |
| 9A1FER-3 | 2026-09-02 00:56:11 | 46.04638 | 13.94268 | 15° | 60km/h | 24856m | -14.1m/s | -51.7°C | 3.8% | 0hPa | 2.5V | 00:00:00 | 02:31:41 | 00:00:00 | |
| DO3MHA-12 | 2026-09-02 00:56:09 | 46.04611 | 13.94271 | 343° | 62km/h | 24884m | -14.3m/s | -51.8°C | 3.9% | 0hPa | 2.5V | 00:00:00 | 02:31:39 | 00:00:00 | |
| IN3HCDX1 | 2026-09-02 00:56:05 | 46.04569 | 13.94318 | 305° | 77km/h | 24929m | -15.3m/s | -51.9°C | 1.0% | 0hPa | 2.5V | 08:23:00 | 00:00:00 | 00:00:00 | |
| PG1ADW-2 | 2026-09-02 00:56:02 | 46.04558 | 13.94411 | 248° | 44km/h | 24989m | -14.5m/s | -51.5°C | 3.8% | 0hPa | 2.5V | 00:00:00 | 00:00:00 | 00:00:00 | |
| IN3HCDX | 2026-09-02 00:56:01 | 46.04558 | 13.94411 | 249° | 53km/h | 24989m | -14.5m/s | -51.6°C | 0.9% | 0hPa | 2.5V | 08:23:00 | 00:00:00 | 00:00:00 | |
| DO3MHA-11 | 2026-09-02 00:56:00 | 46.04572 | 13.94434 | 203° | 46km/h | 25018m | -14.4m/s | -51.1°C | 3.7% | 0hPa | 2.5V | 00:00:00 | 02:31:30 | 00:00:00 | |
| DO3MHA-12 | 2026-09-02 00:55:59 | 46.04580 | 13.94435 | 169° | 37km/h | 25032m | -14.6m/s | -51.0°C | 3.6% | 0hPa | 2.5V | 00:00:00 | 02:31:29 | 00:00:00 | |
| 9A1FER-3 | 2026-09-02 00:55:57 | 46.04591 | 13.94406 | 85° | 53km/h | 25076m | -14.1m/s | -50.9°C | 3.6% | 0hPa | 2.6V | 08:23:00 | 02:31:26 | 00:00:00 | |
| OE5DRO-10 | 2026-09-02 00:55:54 | 46.04581 | 13.94375 | 49° | 53km/h | 25104m | -14.4m/s | -50.8°C | 3.6% | 0hPa | 2.6V | 00:00:00 | 00:00:00 | 00:00:00 | |
| DO3MHA-11 | 2026-09-02 00:55:50 | 46.04526 | 13.94347 | 353° | 51km/h | 25164m | -14.5m/s | -50.6°C | 3.5% | 0hPa | 2.6V | 00:00:00 | 02:31:20 | 00:00:00 | |
| OE5DXL-15 | 2026-09-02 00:55:49 | 46.04511 | 13.94353 | 338° | 47km/h | 25178m | -14.6m/s | -50.5°C | 3.5% | 0hPa | 2.6V | 00:00:00 | 00:00:00 | 00:00:00 | |
| NBG1-10 | 2026-09-02 00:55:47 | 46.04490 | 13.94377 | 306° | 44km/h | 25207m | -14.3m/s | -50.6°C | 3.5% | 0hPa | 2.6V | 00:00:00 | 02:31:17 | 00:00:00 | |
| OE5WHR-10 | 2026-09-02 00:55:45 | 46.04482 | 13.94409 | 270° | 46km/h | 25237m | -15.0m/s | -50.5°C | 3.5% | 0hPa | 2.6V | 00:00:00 | 00:00:00 | 00:00:00 | |
| 9A1FER-10 | 2026-09-02 00:55:44 | 46.04484 | 13.94425 | 251° | 46km/h | 25252m | -15.1m/s | -50.4°C | 3.4% | 0hPa | 2.6V | 08:23:00 | 02:31:14 | 00:00:00 | |
| OE3JTB-15 | 2026-09-02 00:55:43 | 46.04490 | 13.94439 | 232° | 46km/h | 25267m | -15.2m/s | -50.3°C | 3.4% | 0hPa | 2.5V | 00:00:00 | 02:31:13 | 00:00:00 | |
| PG1ADW-2 | 2026-09-02 00:55:42 | 46.04498 | 13.94450 | 214° | 44km/h | 25282m | -15.2m/s | -50.2°C | 3.4% | 0hPa | 2.5V | 00:00:00 | 02:31:12 | 00:00:00 | |
| OE5MMP-10 | 2026-09-02 00:55:41 | 46.04509 | 13.94457 | 197° | 49km/h | 25297m | -15.2m/s | -50.2°C | 3.4% | 0hPa | 2.6V | 00:00:00 | 02:31:11 | 00:00:00 | |
| DO3MHA-11 | 2026-09-02 00:55:40 | 46.04521 | 13.94460 | 180° | 49km/h | 25313m | -14.9m/s | -50.2°C | 3.4% | 0hPa | 2.6V | 00:00:00 | 02:31:10 | 00:00:00 | |
| OE8JPQ-2 | 2026-09-02 00:55:37 | 46.04555 | 13.94436 | 130° | 44km/h | 25357m | -14.4m/s | -50.3°C | 3.4% | 0hPa | 2.5V | 00:00:00 | 00:00:00 | 00:00:00 | |
| OE5DRO-10 | 2026-09-02 00:55:35 | 46.04565 | 13.94404 | 97° | 42km/h | 25386m | -14.6m/s | -50.5°C | 3.5% | 0hPa | 2.5V | 00:00:00 | 00:00:00 | 00:00:00 | |
| PETON7-10 | 2026-09-02 00:55:30 | 46.04540 | 13.94355 | 353° | 44km/h | 25462m | -14.8m/s | -50.6°C | 3.6% | 0hPa | 2.5V | 00:00:00 | 00:00:00 | 00:00:00 | |
| 9A1FER-10 | 2026-09-02 00:55:29 | 46.04532 | 13.94359 | 329° | 42km/h | 25476m | -13.8m/s | -50.6°C | 3.6% | 0hPa | 2.5V | 00:00:00 | 02:30:59 | 00:00:00 | |
| 9A1FER-3 | 2026-09-02 00:55:26 | 46.04518 | 13.94399 | 278° | 44km/h | 25518m | -13.8m/s | -50.7°C | 3.6% | 0hPa | 2.5V | 00:00:00 | 02:30:56 | 00:00:00 | |
| OE5MMP-10 | 2026-09-02 00:55:25 | 46.04517 | 13.94418 | 267° | 46km/h | 25532m | -14.3m/s | -50.7°C | 3.7% | 0hPa | 2.5V | 00:00:00 | 02:30:55 | 00:00:00 | |
| OE5WHR-10 | 2026-09-02 00:55:24 | 46.04519 | 13.94438 | 258° | 38km/h | 25547m | -14.9m/s | -50.7°C | 3.7% | 0hPa | 2.5V | 00:00:00 | 00:00:00 | 00:00:00 | |
| IN3HCDX | 2026-09-02 00:55:20 | 46.04536 | 13.94491 | 234° | 49km/h | 25593m | -15.3m/s | -50.7°C | 0.9% | 0hPa | 2.5V | 08:24:00 | 00:00:00 | 00:00:00 | |
| OE5DXL-15 | 2026-09-02 00:55:19 | 46.04552 | 13.94512 | 209° | 47km/h | 25622m | -14.6m/s | -50.5°C | 3.7% | 0hPa | 2.5V | 00:00:00 | 00:00:00 | 00:00:00 | |
| OE8JPQ-2 | 2026-09-02 00:55:17 | 46.04568 | 13.94516 | 170° | 47km/h | 25651m | -14.4m/s | -50.5°C | 3.7% | 0hPa | 2.5V | 00:00:00 | 02:30:47 | 00:00:00 | |
| OE5MMP-10 | 2026-09-02 00:55:15 | 46.04579 | 13.94505 | 125° | 42km/h | 25681m | -14.8m/s | -50.4°C | 3.7% | 0hPa | 2.5V | 00:00:00 | 02:30:45 | 00:00:00 | |
| 9A1FER-10 | 2026-09-02 00:55:14 | 46.04583 | 13.94494 | 106° | 51km/h | 25696m | -15.2m/s | -50.4°C | 3.8% | 0hPa | 2.5V | 00:00:00 | 02:30:44 | 00:00:00 | |
| NBG1-10 | 2026-09-02 00:55:13 | 46.04584 | 13.94480 | 91° | 51km/h | 25711m | -15.4m/s | -50.3°C | 3.7% | 0hPa | 2.5V | 00:00:00 | 02:30:43 | 00:00:00 | |
| 9A1FER-3 | 2026-09-02 00:55:11 | 46.04578 | 13.94446 | 66° | 53km/h | 25742m | -15.8m/s | -49.9°C | 3.6% | 0hPa | 2.5V | 00:00:00 | 02:30:41 | 00:00:00 | |
| IV3AMH | 2026-09-02 00:55:10 | 46.04578 | 13.94446 | 66° | 55km/h | 25742m | -15.8m/s | -50.0°C | 0.9% | 0hPa | 2.5V | 00:00:00 | 00:00:00 | 00:00:00 | |
| IN3HCDX1 | 2026-09-02 00:55:04 | 46.04492 | 13.94382 | 340° | 51km/h | 25857m | -16.4m/s | -49.0°C | 0.8% | 0hPa | 2.5V | 08:24:00 | 00:00:00 | 00:00:00 | |
| OE5MMP-10 | 2026-09-02 00:55:03 | 46.04482 | 13.94391 | 320° | 49km/h | 25873m | -16.1m/s | -48.7°C | 3.3% | 0hPa | 2.5V | 00:00:00 | 02:30:33 | 00:00:00 | |
| PETON7-10 | 2026-09-02 00:55:00 | 46.04472 | 13.94433 | 255° | 47km/h | 25918m | -14.9m/s | -48.5°C | 3.2% | 0hPa | 2.5V | 00:00:00 | 02:30:30 | 00:00:00 | |
| 9A1FER-10 | 2026-09-02 00:54:59 | 46.04477 | 13.94449 | 237° | 47km/h | 25933m | -14.7m/s | -48.5°C | 3.2% | 0hPa | 2.5V | 00:00:00 | 02:30:29 | 00:00:00 | |
| OE8JPQ-2 | 2026-09-02 00:54:57 | 46.04497 | 13.94472 | 207° | 51km/h | 25964m | -15.9m/s | -48.4°C | 3.2% | 0hPa | 2.6V | 08:24:00 | 00:00:00 | 00:00:00 | |
| 9A1FER-3 | 2026-09-02 00:54:56 | 46.04510 | 13.94479 | 194° | 49km/h | 25981m | -16.5m/s | -48.5°C | 3.2% | 0hPa | 2.5V | 00:00:00 | 02:30:26 | 00:00:00 | |
| DO3MHA-11 | 2026-09-02 00:54:55 | 46.04523 | 13.94482 | 182° | 53km/h | 25997m | -16.8m/s | -48.5°C | 3.2% | 0hPa | 2.5V | 00:00:00 | 02:30:25 | 00:00:00 | |
| OE5MMP-10 | 2026-09-02 00:54:53 | 46.04548 | 13.94474 | 153° | 51km/h | 26031m | -17.1m/s | -48.5°C | 3.2% | 0hPa | 2.5V | 08:24:00 | 02:30:23 | 00:00:00 | |
| PG1ADW-2 | 2026-09-02 00:54:52 | 46.04557 | 13.94464 | 135° | 47km/h | 26048m | -16.4m/s | -48.5°C | 3.2% | 0hPa | 2.5V | 00:00:00 | 00:00:00 | 00:00:00 | |
| OE5DXL-15 | 2026-09-02 00:54:49 | 46.04561 | 13.94427 | 60° | 49km/h | 26095m | -14.9m/s | -48.3°C | 3.1% | 0hPa | 2.5V | 00:00:00 | 00:00:00 | 00:00:00 | |
| PETON7-10 | 2026-09-02 00:54:45 | 46.04519 | 13.94404 | 356° | 47km/h | 26156m | -15.8m/s | -48.3°C | 3.1% | 0hPa | 2.6V | 08:24:00 | 00:00:00 | 00:00:00 | |
| 9A1FER-10 | 2026-09-02 00:54:44 | 46.04505 | 13.94408 | 345° | 47km/h | 26172m | -16.4m/s | -48.3°C | 3.1% | 0hPa | 2.6V | 00:00:00 | 02:30:14 | 00:00:00 | |
| 9A1FER-3 | 2026-09-02 00:54:41 | 46.04467 | 13.94442 | 312° | 47km/h | 26222m | -16.8m/s | -48.4°C | 3.2% | 0hPa | 2.6V | 00:00:00 | 02:30:11 | 00:00:00 | |
| OE5WHR-10 | 2026-09-02 00:54:40 | 46.04459 | 13.94458 | 300° | 42km/h | 26239m | -16.3m/s | -48.3°C | 3.2% | 0hPa | 2.6V | 08:24:00 | 00:00:00 | 00:00:00 | |
| OE5MMP-10 | 2026-09-02 00:54:39 | 46.04453 | 13.94476 | 287° | 42km/h | 26255m | -15.7m/s | -48.2°C | 3.2% | 0hPa | 2.6V | 00:00:00 | 02:30:09 | 00:00:00 | |
| OE8JPQ-2 | 2026-09-02 00:54:37 | 46.04453 | 13.94508 | 255° | 47km/h | 26286m | -15.8m/s | -48.3°C | 3.2% | 0hPa | 2.6V | 00:00:00 | 00:00:00 | 00:00:00 | |
| SOBLACK | 2026-09-02 00:54:34 | 46.04471 | 13.94536 | 196° | 35km/h | 26335m | -16.2m/s | -48.5°C | 0.8% | 0hPa | 2.6V | 00:00:00 | 00:00:00 | 00:00:00 | |
| OE3JTB-15 | 2026-09-02 00:54:33 | 46.04480 | 13.94537 | 176° | 53km/h | 26351m | -16.0m/s | -48.5°C | 3.3% | 0hPa | 2.6V | 00:00:00 | 00:00:00 | 00:00:00 | |
| PG1ADW-2 | 2026-09-02 00:54:32 | 46.04489 | 13.94533 | 157° | 49km/h | 26367m | -16.0m/s | -48.6°C | 3.3% | 0hPa | 2.5V | 08:24:00 | 00:00:00 | 00:00:00 | |
| DB0UT-7 | 2026-09-02 00:54:30 | 46.04506 | 13.94512 | 126° | 51km/h | 26399m | -16.3m/s | -48.6°C | 3.4% | 0hPa | 2.5V | 00:00:00 | 00:00:00 | 00:00:00 | |
| OE5MMP-10 | 2026-09-02 00:54:29 | 46.04512 | 13.94495 | 114° | 47km/h | 26415m | -16.3m/s | -48.7°C | 3.4% | 0hPa | 2.5V | 00:00:00 | 02:29:59 | 00:00:00 | |
| 9A1FER-3 | 2026-09-02 00:54:26 | 46.04517 | 13.94429 | 79° | 51km/h | 26466m | -17.3m/s | -48.5°C | 3.3% | 0hPa | 2.5V | 00:00:00 | 02:29:56 | 00:00:00 | |
| IN3HCDX1 | 2026-09-02 00:54:22 | 46.04484 | 13.94361 | 26° | 47km/h | 26537m | -17.5m/s | -47.8°C | 0.8% | 0hPa | 2.5V | 08:24:00 | 00:00:00 | 00:00:00 | |
| OE5DXL-15 | 2026-09-02 00:54:19 | 46.04457 | 13.94365 | 312° | 51km/h | 26586m | -16.0m/s | -47.4°C | 3.1% | 0hPa | 2.5V | 00:00:00 | 00:00:00 | 00:00:00 | |
| OE5WHR-10 | 2026-09-02 00:54:18 | 46.04453 | 13.94375 | 285° | 53km/h | 26603m | -15.9m/s | -47.2°C | 3.0% | 0hPa | 2.5V | 00:00:00 | 00:00:00 | 00:00:00 | |
| OE8JPQ-2 | 2026-09-02 00:54:17 | 46.04453 | 13.94389 | 261° | 53km/h | 26619m | -16.6m/s | -47.1°C | 3.0% | 0hPa | 2.5V | 00:00:00 | 02:29:47 | 00:00:00 | |
| PETON7-10 | 2026-09-02 00:54:15 | 46.04464 | 13.94418 | 228° | 53km/h | 26653m | -17.3m/s | -47.0°C | 2.9% | 0hPa | 2.5V | 00:00:00 | 02:29:45 | 00:00:00 | |
| 9A1FER-10 | 2026-09-02 00:54:14 | 46.04474 | 13.94431 | 214° | 53km/h | 26670m | -18.2m/s | -46.9°C | 3.0% | 0hPa | 2.5V | 00:00:00 | 02:29:44 | 00:00:00 | |
| PG1ADW-2 | 2026-09-02 00:54:12 | 46.04502 | 13.94446 | 189° | 53km/h | 26707m | -18.0m/s | -46.8°C | 2.9% | 0hPa | 2.5V | 00:00:00 | 02:29:42 | 00:00:00 | |
| 9A1FER-3 | 2026-09-02 00:54:11 | 46.04518 | 13.94447 | 174° | 51km/h | 26725m | -17.5m/s | -46.9°C | 2.9% | 0hPa | 2.5V | 00:00:00 | 02:29:41 | 00:00:00 | |
| SOBLACK | 2026-09-02 00:54:10 | 46.04517 | 13.94447 | 175° | 60km/h | 26725m | -17.5m/s | -46.9°C | 0.7% | 0hPa | 2.5V | 00:00:00 | 00:00:00 | 00:00:00 | |
| DO3MHA-11 | 2026-09-02 00:54:09 | 46.04544 | 13.94431 | 140° | 49km/h | 26758m | -16.5m/s | -47.0°C | 2.9% | 0hPa | 2.5V | 00:00:00 | 02:29:39 | 00:00:00 | |
| OE5MMP-10 | 2026-09-02 00:54:07 | 46.04557 | 13.94400 | 101° | 53km/h | 26792m | -16.9m/s | -47.0°C | 2.9% | 0hPa | 2.5V | 00:00:00 | 02:29:37 | 00:00:00 | |
| DB0UT-7 | 2026-09-02 00:54:00 | 46.04501 | 13.94350 | 327° | 49km/h | 26917m | -17.3m/s | -47.3°C | 3.0% | 0hPa | 2.5V | 00:00:00 | 02:29:30 | 00:00:00 | |
| DO3MHA-11 | 2026-09-02 00:53:59 | 46.04491 | 13.94363 | 308° | 53km/h | 26935m | -16.7m/s | -47.4°C | 3.1% | 0hPa | 2.5V | 00:00:00 | 02:29:29 | 00:00:00 | |
| OE8JPQ-2 | 2026-09-02 00:53:57 | 46.04482 | 13.94400 | 271° | 49km/h | 26968m | -17.2m/s | -47.4°C | 3.1% | 0hPa | 2.5V | 00:00:00 | 00:00:00 | 00:00:00 | |
| 9A1FER-3 | 2026-09-02 00:53:56 | 46.04484 | 13.94421 | 254° | 47km/h | 26985m | -17.6m/s | -47.5°C | 3.1% | 0hPa | 2.5V | 00:00:00 | 02:29:26 | 00:00:00 | |
| OE5MMP-10 | 2026-09-02 00:53:54 | 46.04499 | 13.94455 | 223° | 46km/h | 27022m | -18.5m/s | -47.4°C | 3.1% | 0hPa | 2.5V | 00:00:00 | 02:29:24 | 00:00:00 | |
| PG1ADW-2 | 2026-09-02 00:53:52 | 46.04523 | 13.94471 | 189° | 49km/h | 27058m | -17.8m/s | -47.3°C | 3.1% | 0hPa | 2.5V | 00:00:00 | 00:00:00 | 00:00:00 | |
| OE5DXL-15 | 2026-09-02 00:53:49 | 46.04550 | 13.94456 | 123° | 46km/h | 27109m | -16.5m/s | -47.4°C | 3.1% | 0hPa | 2.5V | 00:00:00 | 00:00:00 | 00:00:00 | |
| PETON7-10 | 2026-09-02 00:53:45 | 46.04543 | 13.94402 | 47° | 51km/h | 27177m | -18.0m/s | -47.1°C | 3.0% | 0hPa | 2.5V | 00:00:00 | 00:00:00 | 00:00:00 | |
| 9A1FER-10 | 2026-09-02 00:53:44 | 46.04533 | 13.94390 | 33° | 51km/h | 27195m | -18.3m/s | -47.0°C | 3.0% | 0hPa | 2.5V | 00:00:00 | 02:29:14 | 00:00:00 | |
| 9A1FER-3 | 2026-09-02 00:53:41 | 46.04494 | 13.94377 | 355° | 49km/h | 27250m | -18.3m/s | -46.7°C | 3.0% | 0hPa | 2.5V | 08:25:00 | 02:29:11 | 00:00:00 | |
| DO3MHA-11 | 2026-09-02 00:53:39 | 46.04468 | 13.94390 | 329° | 51km/h | 27286m | -17.7m/s | -46.7°C | 3.0% | 0hPa | 2.5V | 08:25:00 | 02:29:09 | 00:00:00 | |
| IN3HCDX1 | 2026-09-02 00:53:38 | 46.04468 | 13.94390 | 329° | 55km/h | 27286m | -17.7m/s | -46.7°C | 0.7% | 0hPa | 2.5V | 08:25:00 | 00:00:00 | 00:00:00 | |
| OE8JPQ-2 | 2026-09-02 00:53:37 | 46.04449 | 13.94417 | 300° | 46km/h | 27320m | -16.9m/s | -46.7°C | 3.0% | 0hPa | 2.5V | 00:00:00 | 00:00:00 | 00:00:00 | |
| OE5WHR-10 | 2026-09-02 00:53:35 | 46.04443 | 13.94451 | 273° | 44km/h | 27354m | -17.1m/s | -46.8°C | 3.0% | 0hPa | 2.5V | 00:00:00 | 00:00:00 | 00:00:00 | |
| OE5MMP-10 | 2026-09-02 00:53:34 | 46.04443 | 13.94469 | 260° | 44km/h | 27371m | -17.3m/s | -46.8°C | 3.0% | 0hPa | 2.6V | 00:00:00 | 02:29:04 | 00:00:00 | |
| PG1ADW-2 | 2026-09-02 00:53:32 | 46.04453 | 13.94500 | 236° | 47km/h | 27406m | -17.9m/s | -46.8°C | 3.0% | 0hPa | 2.6V | 00:00:00 | 00:00:00 | 00:00:00 | |
| PETON7-10 | 2026-09-02 00:53:30 | 46.04470 | 13.94523 | 212° | 47km/h | 27443m | -18.3m/s | -46.6°C | 3.0% | 0hPa | 2.5V | 00:00:00 | 02:29:00 | 00:00:00 | |
| 9A1FER-10 | 2026-09-02 00:53:29 | 46.04480 | 13.94530 | 199° | 47km/h | 27461m | -18.3m/s | -46.6°C | 2.9% | 0hPa | 2.5V | 08:25:00 | 02:28:59 | 00:00:00 | |
| SOBLACK | 2026-09-02 00:53:28 | 46.04480 | 13.94530 | 199° | 44km/h | 27461m | -18.4m/s | -46.6°C | 0.7% | 0hPa | 2.5V | 00:00:00 | 00:00:00 | 00:00:00 | |
| 9A1FER-3 | 2026-09-02 00:53:26 | 46.04509 | 13.94527 | 150° | 51km/h | 27516m | -17.8m/s | -46.5°C | 2.9% | 0hPa | 2.5V | 00:00:00 | 02:28:56 | 00:00:00 | |
| OE5MMP-10 | 2026-09-02 00:53:24 | 46.04521 | 13.94507 | 113° | 51km/h | 27551m | -17.7m/s | -46.5°C | 3.0% | 0hPa | 2.5V | 00:00:00 | 02:28:54 | 00:00:00 | |
| OE3JTB-15 | 2026-09-02 00:53:22 | 46.04523 | 13.94479 | 79° | 49km/h | 27587m | -17.4m/s | -46.4°C | 2.9% | 0hPa | 2.5V | 00:00:00 | 02:28:52 | 00:00:00 | |
| OE5DXL-15 | 2026-09-02 00:53:19 | 46.04504 | 13.94436 | 42° | 53km/h | 27638m | -17.0m/s | -46.1°C | 2.8% | 0hPa | 2.5V | 00:00:00 | 00:00:00 | 00:00:00 | |
| OE8JPQ-2 | 2026-09-02 00:53:17 | 46.04480 | 13.94414 | 26° | 51km/h | 27672m | -17.5m/s | -46.0°C | 2.8% | 0hPa | 2.6V | 00:00:00 | 02:28:47 | 00:00:00 | |
| PETON7-10 | 2026-09-02 00:53:15 | 46.04450 | 13.94399 | 13° | 49km/h | 27708m | -18.2m/s | -46.0°C | 2.8% | 0hPa | 2.6V | 00:00:00 | 00:00:00 | 00:00:00 | |
| OE5WHR-10 | 2026-09-02 00:53:14 | 46.04435 | 13.94396 | 6° | 49km/h | 27726m | -18.5m/s | -46.0°C | 2.8% | 0hPa | 2.5V | 00:00:00 | 00:00:00 | 00:00:00 | |
| PG1ADW-2 | 2026-09-02 00:53:12 | 46.04405 | 13.94397 | 350° | 49km/h | 27764m | -18.8m/s | -46.0°C | 2.8% | 0hPa | 2.5V | 00:00:00 | 00:00:00 | 00:00:00 | |
| 9A1FER-3 | 2026-09-02 00:53:11 | 46.04392 | 13.94403 | 340° | 46km/h | 27782m | -18.4m/s | -46.1°C | 2.8% | 0hPa | 2.5V | 00:00:00 | 02:28:41 | 00:00:00 | |
| DO3MHA-11 | 2026-09-02 00:53:06 | 46.04364 | 13.94464 | 260° | 47km/h | 27872m | -18.0m/s | -46.1°C | 2.8% | 0hPa | 2.5V | 00:00:00 | 02:28:36 | 00:00:00 | |
| OE5MMP-10 | 2026-09-02 00:53:04 | 46.04374 | 13.94492 | 230° | 49km/h | 27909m | -19.1m/s | -46.2°C | 2.9% | 0hPa | 2.5V | 00:00:00 | 02:28:34 | 00:00:00 | |
| NBG1-10 | 2026-09-02 00:53:01 | 46.04406 | 13.94518 | 189° | 49km/h | 27968m | -19.8m/s | -46.3°C | 2.9% | 0hPa | 2.5V | 00:00:00 | 02:28:31 | 00:00:00 | |
| PETON7-10 | 2026-09-02 00:53:00 | 46.04418 | 13.94518 | 173° | 55km/h | 27987m | -19.1m/s | -46.4°C | 3.0% | 0hPa | 2.5V | 00:00:00 | 00:00:00 | 00:00:00 | |
| 9A1FER-10 | 2026-09-02 00:52:59 | 46.04429 | 13.94513 | 154° | 53km/h | 28006m | -18.6m/s | -46.4°C | 3.0% | 0hPa | 2.5V | 00:00:00 | 02:28:29 | 00:00:00 | |
| OE8JPQ-2 | 2026-09-02 00:52:57 | 46.04445 | 13.94490 | 115° | 51km/h | 28043m | -18.0m/s | -46.5°C | 3.0% | 0hPa | 2.5V | 00:00:00 | 00:00:00 | 00:00:00 | |
| DO3MHA-11 | 2026-09-02 00:52:56 | 46.04448 | 13.94472 | 98° | 57km/h | 28061m | -18.1m/s | -46.4°C | 3.0% | 0hPa | 2.5V | 00:00:00 | 02:28:26 | 00:00:00 | |
| OE5MMP-10 | 2026-09-02 00:52:54 | 46.04444 | 13.94430 | 70° | 53km/h | 28098m | -19.5m/s | -46.4°C | 3.0% | 0hPa | 2.5V | 00:00:00 | 02:28:24 | 00:00:00 | |
| OE5WHR-10 | 2026-09-02 00:52:53 | 46.04436 | 13.94409 | 58° | 49km/h | 28118m | -20.7m/s | -46.4°C | 3.0% | 0hPa | 2.5V | 00:00:00 | 02:28:23 | 00:00:00 | |
| PG1ADW-2 | 2026-09-02 00:52:52 | 46.04426 | 13.94390 | 46° | 49km/h | 28139m | -21.2m/s | -46.4°C | 3.0% | 0hPa | 2.5V | 00:00:00 | 02:28:22 | 00:00:00 | |
| OE5DXL-15 | 2026-09-02 00:52:49 | 46.04386 | 13.94362 | 4° | 47km/h | 28202m | -19.6m/s | -46.1°C | 3.0% | 0hPa | 2.5V | 00:00:00 | 00:00:00 | 00:00:00 | |
| DO3MHA-11 | 2026-09-02 00:52:46 | 46.04361 | 13.94381 | 285° | 47km/h | 28256m | -17.2m/s | -46.0°C | 2.9% | 0hPa | 2.5V | 00:00:00 | 02:28:16 | 00:00:00 | |
| DO3MHA-12 | 2026-09-02 00:52:44 | 46.04365 | 13.94409 | 239° | 49km/h | 28292m | -18.5m/s | -45.9°C | 2.9% | 0hPa | 2.5V | 00:00:00 | 02:28:14 | 00:00:00 | |
| 9A1FER-3 | 2026-09-02 00:52:41 | 46.04395 | 13.94441 | 198° | 51km/h | 28350m | -19.9m/s | -45.8°C | 2.9% | 0hPa | 2.5V | 00:00:00 | 02:28:11 | 00:00:00 | |
| OE8JPQ-2 | 2026-09-02 00:52:37 | 46.04442 | 13.94430 | 140° | 47km/h | 28427m | -18.7m/s | -45.6°C | 2.9% | 0hPa | 2.5V | 00:00:00 | 00:00:00 | 00:00:00 | |
| DO3MHA-11 | 2026-09-02 00:52:36 | 46.04450 | 13.94417 | 125° | 53km/h | 28446m | -18.2m/s | -45.6°C | 2.8% | 0hPa | 2.5V | 00:00:00 | 02:28:06 | 00:00:00 | |
| OE5DRO-10 | 2026-09-02 00:52:35 | 46.04458 | 13.94385 | 96° | 47km/h | 28482m | -18.5m/s | -45.6°C | 2.8% | 0hPa | 2.5V | 00:00:00 | 00:00:00 | 00:00:00 | |
| DO3MHA-12 | 2026-09-02 00:52:34 | 46.04458 | 13.94385 | 96° | 53km/h | 28482m | -18.5m/s | -45.6°C | 2.8% | 0hPa | 2.5V | 00:00:00 | 02:28:04 | 00:00:00 | |
| IN3HCDX1 | 2026-09-02 00:52:33 | 46.04458 | 13.94385 | 96° | 47km/h | 28482m | -18.5m/s | -45.6°C | 0.7% | 0hPa | 2.5V | 08:26:00 | 00:00:00 | 00:00:00 | |
| PG1ADW-2 | 2026-09-02 00:52:32 | 46.04455 | 13.94349 | 73° | 47km/h | 28519m | -18.1m/s | -45.6°C | 2.8% | 0hPa | 2.5V | 00:00:00 | 00:00:00 | 00:00:00 | |
| DB0UT-7 | 2026-09-02 00:52:30 | 46.04443 | 13.94314 | 55° | 42km/h | 28555m | -19.0m/s | -45.5°C | 2.9% | 0hPa | 2.6V | 00:00:00 | 00:00:00 | 00:00:00 | |
| 9A1FER-10 | 2026-09-02 00:52:29 | 46.04434 | 13.94297 | 48° | 46km/h | 28574m | -18.5m/s | -45.5°C | 2.9% | 0hPa | 2.6V | 00:00:00 | 02:27:59 | 00:00:00 | |
| DO3MHA-11 | 2026-09-02 00:52:26 | 46.04401 | 13.94262 | 26° | 40km/h | 28630m | -18.7m/s | -45.3°C | 2.8% | 0hPa | 2.6V | 00:00:00 | 02:27:56 | 00:00:00 | |
| OE5MMP-10 | 2026-09-02 00:52:24 | 46.04379 | 13.94252 | 8° | 42km/h | 28666m | -18.2m/s | -45.1°C | 2.8% | 0hPa | 2.6V | 00:00:00 | 02:27:54 | 00:00:00 | |
| OE5DXL-15 | 2026-09-02 00:52:19 | 46.04334 | 13.94269 | 327° | 44km/h | 28753m | -17.1m/s | -44.7°C | 2.7% | 0hPa | 2.6V | 00:00:00 | 00:00:00 | 00:00:00 | |
| OE5DRO-10 | 2026-09-02 00:52:17 | 46.04308 | 13.94296 | 323° | 42km/h | 28805m | -17.6m/s | -44.6°C | 2.7% | 0hPa | 2.6V | 00:00:00 | 00:00:00 | 00:00:00 | |
| OE5WHR-10 | 2026-09-02 00:52:16 | 46.04308 | 13.94296 | 323° | 42km/h | 28805m | -17.6m/s | -44.6°C | 2.7% | 0hPa | 2.6V | 00:00:00 | 00:00:00 | 00:00:00 | |
| IN3HCDX | 2026-09-02 00:52:15 | 46.04308 | 13.94296 | 323° | 47km/h | 28805m | -17.7m/s | -44.6°C | 0.6% | 0hPa | 2.5V | 08:27:00 | 00:00:00 | 00:00:00 | |
| OE5MMP-10 | 2026-09-02 00:52:14 | 46.04288 | 13.94318 | 321° | 47km/h | 28841m | -18.3m/s | -44.5°C | 2.7% | 0hPa | 2.5V | 00:00:00 | 02:27:44 | 00:00:00 | |
| IN3HCDX1 | 2026-09-02 00:52:13 | 46.04279 | 13.94330 | 320° | 51km/h | 28859m | -18.6m/s | -44.5°C | 0.6% | 0hPa | 2.6V | 08:27:00 | 00:00:00 | 00:00:00 | |
| PG1ADW-2 | 2026-09-02 00:52:12 | 46.04269 | 13.94343 | 317° | 40km/h | 28878m | -18.7m/s | -44.5°C | 2.7% | 0hPa | 2.6V | 00:00:00 | 00:00:00 | 00:00:00 | |
| 9A1FER-3 | 2026-09-02 00:52:11 | 46.04260 | 13.94356 | 314° | 38km/h | 28896m | -18.7m/s | -44.6°C | 2.7% | 0hPa | 2.6V | 00:00:00 | 02:27:41 | 00:00:00 | |
| DO3MHA-11 | 2026-09-02 00:52:06 | 46.04234 | 13.94428 | 277° | 35km/h | 28991m | -20.0m/s | -44.8°C | 2.8% | 0hPa | 2.5V | 00:00:00 | 02:27:36 | 00:00:00 | |
| OE5MMP-10 | 2026-09-02 00:52:04 | 46.04236 | 13.94456 | 256° | 37km/h | 29031m | -19.9m/s | -44.7°C | 2.8% | 0hPa | 2.5V | 00:00:00 | 02:27:34 | 00:00:00 | |
| DB0UT-7 | 2026-09-02 00:52:00 | 46.04258 | 13.94486 | 191° | 55km/h | 29110m | -19.7m/s | -44.4°C | 2.8% | 0hPa | 2.5V | 00:00:00 | 02:27:30 | 00:00:00 | |
| PETON7-10 | 2026-09-02 00:51:59 | 46.04266 | 13.94486 | 171° | 49km/h | 29130m | -19.3m/s | -44.4°C | 2.7% | 0hPa | 2.5V | 00:00:00 | 02:27:29 | 00:00:00 | |
| OE8JPQ-2 | 2026-09-02 00:51:57 | 46.04282 | 13.94475 | 146° | 57km/h | 29167m | -18.2m/s | -44.2°C | 2.7% | 0hPa | 2.5V | 08:27:00 | 00:00:00 | 00:00:00 | |
| DO3MHA-11 | 2026-09-02 00:51:56 | 46.04290 | 13.94466 | 135° | 53km/h | 29185m | -18.0m/s | -44.1°C | 2.7% | 0hPa | 2.5V | 08:27:00 | 02:27:26 | 00:00:00 | |
| SOBLACK | 2026-09-02 00:51:55 | 46.04290 | 13.94466 | 135° | 40km/h | 29185m | -18.1m/s | -44.1°C | 0.6% | 0hPa | 2.5V | 00:00:00 | 00:00:00 | 00:00:00 | |
| OE5WHR-10 | 2026-09-02 00:51:54 | 46.04303 | 13.94440 | 118° | 57km/h | 29220m | -17.7m/s | -43.9°C | 2.7% | 0hPa | 2.5V | 00:00:00 | 00:00:00 | 00:00:00 | |
| PG1ADW-2 | 2026-09-02 00:51:52 | 46.04313 | 13.94407 | 111° | 60km/h | 29255m | -17.8m/s | -43.8°C | 2.6% | 0hPa | 2.5V | 00:00:00 | 00:00:00 | 00:00:00 | |
| IN3HCDX1 | 2026-09-02 00:51:51 | 46.04313 | 13.94407 | 111° | 53km/h | 29255m | -17.9m/s | -43.8°C | 0.6% | 0hPa | 2.5V | 08:27:00 | 00:00:00 | 00:00:00 | |
| OE5DXL-15 | 2026-09-02 00:51:49 | 46.04327 | 13.94350 | 111° | 58km/h | 29310m | -19.1m/s | -43.7°C | 2.6% | 0hPa | 2.5V | 08:27:00 | 00:00:00 | 00:00:00 | |
| OE3JTB-15 | 2026-09-02 00:51:48 | 46.04333 | 13.94331 | 115° | 60km/h | 29328m | -19.0m/s | -43.7°C | 2.6% | 0hPa | 2.5V | 00:00:00 | 02:27:18 | 00:00:00 | |
| DO3MHA-11 | 2026-09-02 00:51:46 | 46.04349 | 13.94294 | 127° | 64km/h | 29367m | -19.5m/s | -43.5°C | 2.6% | 0hPa | 2.5V | 00:00:00 | 02:27:16 | 00:00:00 | |
| OE5MMP-10 | 2026-09-02 00:51:44 | 46.04371 | 13.94264 | 147° | 64km/h | 29405m | -19.0m/s | -43.2°C | 2.5% | 0hPa | 2.5V | 08:27:00 | 02:27:14 | 00:00:00 | |
| 9A1FER-3 | 2026-09-02 00:51:41 | 46.04417 | 13.94240 | 171° | 58km/h | 29463m | -20.1m/s | -43.5°C | 2.6% | 0hPa | 2.6V | 00:00:00 | 02:27:11 | 00:00:00 | |
| OE5DRO-10 | 2026-09-02 00:51:38 | 46.04482 | 13.94253 | 204° | 55km/h | 29543m | -20.4m/s | -43.4°C | 2.6% | 0hPa | 2.6V | 00:00:00 | 00:00:00 | 00:00:00 | |
| OE8JPQ-2 | 2026-09-02 00:51:37 | 46.04482 | 13.94253 | 204° | 53km/h | 29543m | -20.4m/s | -43.4°C | 2.6% | 0hPa | 2.6V | 00:00:00 | 00:00:00 | 00:00:00 | |
| DO3MHA-11 | 2026-09-02 00:51:36 | 46.04495 | 13.94263 | 216° | 51km/h | 29563m | -20.0m/s | -43.3°C | 2.6% | 0hPa | 2.6V | 00:00:00 | 02:27:06 | 00:00:00 | |
| OE5MMP-10 | 2026-09-02 00:51:34 | 46.04516 | 13.94293 | 238° | 55km/h | 29602m | -19.9m/s | -43.2°C | 2.5% | 0hPa | 2.6V | 00:00:00 | 02:27:04 | 00:00:00 | |
| PG1ADW-2 | 2026-09-02 00:51:32 | 46.04526 | 13.94330 | 260° | 49km/h | 29641m | -20.7m/s | -43.0°C | 2.5% | 0hPa | 2.6V | 08:27:00 | 02:27:02 | 00:00:00 | |
| IN3HCDX1 | 2026-09-02 00:51:31 | 46.04526 | 13.94330 | 260° | 55km/h | 29641m | -20.8m/s | -43.0°C | 0.6% | 0hPa | 2.5V | 08:28:00 | 00:00:00 | 00:00:00 | |
| DB0UT-7 | 2026-09-02 00:51:30 | 46.04524 | 13.94368 | 288° | 53km/h | 29681m | -20.4m/s | -42.9°C | 2.5% | 0hPa | 2.5V | 08:27:00 | 00:00:00 | 00:00:00 | |
| PETON7-10 | 2026-09-02 00:51:29 | 46.04519 | 13.94384 | 300° | 49km/h | 29702m | -20.6m/s | -42.9°C | 2.5% | 0hPa | 2.6V | 00:00:00 | 00:00:00 | 00:00:00 | |
| 9A1FER-3 | 2026-09-02 00:51:26 | 46.04487 | 13.94416 | 345° | 47km/h | 29764m | -21.4m/s | -42.7°C | 2.4% | 0hPa | 2.6V | 08:27:00 | 02:26:56 | 00:00:00 | |
| OE5MMP-10 | 2026-09-02 00:51:24 | 46.04461 | 13.94416 | 17° | 49km/h | 29806m | -21.8m/s | -42.5°C | 2.4% | 0hPa | 2.6V | 00:00:00 | 02:26:54 | 00:00:00 | |
| OE5DRO-10 | 2026-09-02 00:51:20 | 46.04424 | 13.94351 | 88° | 53km/h | 29913m | -21.5m/s | -42.6°C | 2.4% | 0hPa | 2.6V | 08:27:00 | 00:00:00 | 00:00:00 | |
| OE3JTB-15 | 2026-09-02 00:51:19 | 46.04424 | 13.94351 | 88° | 68km/h | 29913m | -21.5m/s | -42.6°C | 2.4% | 0hPa | 2.6V | 00:00:00 | 00:00:00 | 00:00:00 | |
| OE8JPQ-2 | 2026-09-02 00:51:17 | 46.04430 | 13.94319 | 118° | 58km/h | 29956m | -21.7m/s | -42.5°C | 2.3% | 0hPa | 2.6V | 00:00:00 | 02:26:47 | 00:00:00 | |
| DO3MHA-11 | 2026-09-02 00:51:14 | 46.04456 | 13.94291 | 168° | 49km/h | 30021m | -22.0m/s | -42.3°C | 2.3% | 0hPa | 2.6V | 00:00:00 | 02:26:44 | 00:00:00 | |
| PETON7-10 | 2026-09-02 00:51:13 | 46.04467 | 13.94290 | 183° | 58km/h | 30043m | -22.0m/s | -42.4°C | 2.3% | 0hPa | 2.5V | 00:00:00 | 02:26:43 | 00:00:00 | |
| PG1ADW-2 | 2026-09-02 00:51:12 | 46.04478 | 13.94294 | 207° | 68km/h | 30064m | -21.5m/s | -42.6°C | 2.3% | 0hPa | 2.5V | 00:00:00 | 00:00:00 | 00:00:00 | |
| 9A1FER-3 | 2026-09-02 00:51:11 | 46.04486 | 13.94303 | 225° | 66km/h | 30086m | -22.0m/s | -42.7°C | 2.4% | 0hPa | 2.5V | 00:00:00 | 02:26:41 | 00:00:00 | |
| IN3HCDX1 | 2026-09-02 00:51:10 | 46.04486 | 13.94303 | 226° | 42km/h | 30086m | -22.0m/s | -42.8°C | 0.5% | 0hPa | 2.5V | 08:28:00 | 00:00:00 | 00:00:00 | |
| OE5MMP-10 | 2026-09-02 00:51:04 | 46.04461 | 13.94412 | 337° | 78km/h | 30241m | -21.8m/s | -43.6°C | 2.6% | 0hPa | 2.5V | 00:00:00 | 02:26:34 | 00:00:00 | |
| IV3AMH | 2026-09-02 00:51:03 | 46.04461 | 13.94412 | 337° | 66km/h | 30241m | -21.9m/s | -43.6°C | 0.6% | 0hPa | 2.5V | 00:00:00 | 00:00:00 | 00:00:00 | |
| DB0UT-7 | 2026-09-02 00:51:00 | 46.04390 | 13.94415 | 18° | 62km/h | 30327m | -21.6m/s | -43.5°C | 2.6% | 0hPa | 2.5V | 00:00:00 | 02:26:30 | 00:00:00 | |
| 9A1FER-10 | 2026-09-02 00:50:59 | 46.04371 | 13.94403 | 29° | 75km/h | 30347m | -21.2m/s | -43.5°C | 2.6% | 0hPa | 2.5V | 00:00:00 | 02:26:29 | 00:00:00 | |
| PETON7-10 | 2026-09-02 00:50:58 | 46.04353 | 13.94387 | 37° | 73km/h | 30368m | -21.4m/s | -43.4°C | 2.6% | 0hPa | 2.5V | 00:00:00 | 00:00:00 | 00:00:00 | |
| OE8JPQ-2 | 2026-09-02 00:50:57 | 46.04337 | 13.94367 | 44° | 64km/h | 30390m | -22.0m/s | -43.4°C | 2.6% | 0hPa | 2.5V | 00:00:00 | 00:00:00 | 00:00:00 | |
| 9A1FER-3 | 2026-09-02 00:50:56 | 46.04323 | 13.94343 | 53° | 68km/h | 30411m | -21.3m/s | -43.5°C | 2.6% | 0hPa | 2.6V | 00:00:00 | 02:26:26 | 00:00:00 | |
| OE5MMP-10 | 2026-09-02 00:50:54 | 46.04301 | 13.94290 | 67° | 69km/h | 30454m | -22.0m/s | -43.6°C | 2.6% | 0hPa | 2.6V | 00:00:00 | 02:26:24 | 00:00:00 | |
| PG1ADW-2 | 2026-09-02 00:50:52 | 46.04291 | 13.94233 | 83° | 53km/h | 30498m | -22.3m/s | -43.5°C | 2.6% | 0hPa | 2.6V | 00:00:00 | 00:00:00 | 00:00:00 | |
| OE3JTB-15 | 2026-09-02 00:50:50 | 46.04293 | 13.94179 | 102° | 62km/h | 30542m | -21.3m/s | -43.2°C | 2.6% | 0hPa | 2.6V | 00:00:00 | 00:00:00 | 00:00:00 | |
| IN3HCDX1 | 2026-09-02 00:50:49 | 46.04293 | 13.94179 | 103° | 71km/h | 30542m | -21.3m/s | -43.2°C | 0.6% | 0hPa | 2.6V | 08:28:00 | 00:00:00 | 00:00:00 | |
| OE5WHR-10 | 2026-09-02 00:50:47 | 46.04314 | 13.94116 | 134° | 57km/h | 30606m | -21.6m/s | -43.2°C | 2.6% | 0hPa | 2.6V | 00:00:00 | 00:00:00 | 08:30:00 | |
| SOBLACK | 2026-09-02 00:50:45 | 46.04325 | 13.94103 | 144° | 57km/h | 30628m | -21.3m/s | -43.2°C | 0.6% | 0hPa | 2.5V | 00:00:00 | 00:00:00 | 00:00:00 | |
| OE5MMP-10 | 2026-09-02 00:50:44 | 46.04349 | 13.94088 | 171° | 46km/h | 30670m | -21.5m/s | -43.2°C | 2.6% | 0hPa | 2.5V | 00:00:00 | 02:26:14 | 00:00:00 | |
| PETON7-10 | 2026-09-02 00:50:43 | 46.04362 | 13.94087 | 181° | 46km/h | 30692m | -21.7m/s | -43.3°C | 2.6% | 0hPa | 2.6V | 00:00:00 | 00:00:00 | 00:00:00 | |
| 9A1FER-3 | 2026-09-02 00:50:41 | 46.04385 | 13.94096 | 209° | 47km/h | 30736m | -22.2m/s | -43.3°C | 2.7% | 0hPa | 2.6V | 00:00:00 | 02:26:11 | 00:00:00 | |
| OE8JPQ-2 | 2026-09-02 00:50:37 | 46.04410 | 13.94145 | 263° | 53km/h | 30824m | -22.1m/s | -43.0°C | 2.7% | 0hPa | 2.6V | 00:00:00 | 00:00:00 | 00:00:00 | |
| OE5MMP-10 | 2026-09-02 00:50:34 | 46.04400 | 13.94186 | 314° | 51km/h | 30888m | -20.9m/s | -42.8°C | 2.7% | 0hPa | 2.6V | 00:00:00 | 02:26:04 | 00:00:00 | |
| PG1ADW-2 | 2026-09-02 00:50:32 | 46.04382 | 13.94204 | 340° | 58km/h | 30929m | -20.8m/s | -42.4°C | 2.6% | 0hPa | 2.6V | 00:00:00 | 00:00:00 | 00:00:00 | |
| DB0UT-7 | 2026-09-02 00:50:30 | 46.04359 | 13.94210 | 359° | 62km/h | 30970m | -20.8m/s | -41.9°C | 2.5% | 0hPa | 2.5V | 00:00:00 | 00:00:00 | 00:00:00 | |
| 9A1FER-10 | 2026-09-02 00:50:29 | 46.04346 | 13.94209 | 9° | 60km/h | 30991m | -20.8m/s | -41.7°C | 2.5% | 0hPa | 2.5V | 00:00:00 | 02:25:59 | 00:00:00 | |
| PETON7-10 | 2026-09-02 00:50:28 | 46.04332 | 13.94205 | 12° | 62km/h | 31012m | -21.1m/s | -41.6°C | 2.4% | 0hPa | 2.5V | 00:00:00 | 02:25:58 | 00:00:00 | |
| 9A1FER-3 | 2026-09-02 00:50:26 | 46.04305 | 13.94192 | 23° | 62km/h | 31054m | -21.0m/s | -41.4°C | 2.4% | 0hPa | 2.5V | 00:00:00 | 02:25:56 | 00:00:00 | |
| SOBLACK | 2026-09-02 00:50:25 | 46.04305 | 13.94192 | 23° | 58km/h | 31054m | -21.1m/s | -41.5°C | 0.5% | 0hPa | 2.5V | 08:29:00 | 00:00:00 | 00:00:00 | |
| OE5MMP-10 | 2026-09-02 00:50:24 | 46.04279 | 13.94171 | 32° | 62km/h | 31096m | -21.3m/s | -41.1°C | 2.4% | 0hPa | 2.5V | 00:00:00 | 02:25:54 | 00:00:00 | |
| OE5WHR-10 | 2026-09-02 00:50:22 | 46.04254 | 13.94143 | 40° | 66km/h | 31139m | -21.3m/s | -40.9°C | 2.3% | 0hPa | 2.5V | 00:00:00 | 00:00:00 | 00:00:00 | |
| OE5DXL-15 | 2026-09-02 00:50:19 | 46.04220 | 13.94095 | 50° | 64km/h | 31202m | -21.2m/s | -41.0°C | 2.4% | 0hPa | 2.5V | 00:00:00 | 00:00:00 | 00:00:00 | |
| OE8JPQ-2 | 2026-09-02 00:50:17 | 46.04200 | 13.94060 | 51° | 64km/h | 31245m | -21.5m/s | -41.1°C | 2.4% | 0hPa | 2.6V | 00:00:00 | 02:25:47 | 00:00:00 | |
| OE5MMP-10 | 2026-09-02 00:50:14 | 46.04172 | 13.94006 | 55° | 62km/h | 31309m | -21.3m/s | -40.8°C | 2.4% | 0hPa | 2.6V | 08:28:00 | 02:25:44 | 00:00:00 | |
| PETON7-10 | 2026-09-02 00:50:13 | 46.04162 | 13.93987 | 56° | 64km/h | 31330m | -21.4m/s | -40.6°C | 2.4% | 0hPa | 2.5V | 08:28:00 | 00:00:00 | 00:00:00 | |
| IN3HCDX | 2026-09-02 00:50:12 | 46.04154 | 13.93968 | 59° | 64km/h | 31351m | -21.5m/s | -40.5°C | 0.5% | 0hPa | 2.5V | 00:00:00 | 00:00:00 | 00:00:00 | |
| 9A1FER-3 | 2026-09-02 00:50:11 | 46.04145 | 13.93949 | 59° | 66km/h | 31373m | -21.6m/s | -40.4°C | 2.3% | 0hPa | 2.5V | 00:00:00 | 02:25:41 | 00:00:00 | |
| NBG1-10 | 2026-09-02 00:50:09 | 46.04130 | 13.93910 | 62° | 60km/h | 31415m | -21.7m/s | -40.2°C | 2.3% | 0hPa | 2.5V | 00:00:00 | 02:25:39 | 00:00:00 | |
| DO3MHA-11 | 2026-09-02 00:50:07 | 46.04117 | 13.93868 | 66° | 68km/h | 31459m | -21.7m/s | -40.1°C | 2.3% | 0hPa | 2.5V | 00:00:00 | 02:25:37 | 00:00:00 | |
| IN3HCDX1 | 2026-09-02 00:50:06 | 46.04117 | 13.93868 | 66° | 62km/h | 31459m | -21.8m/s | -40.2°C | 0.5% | 0hPa | 2.5V | 00:00:00 | 00:00:00 | 00:00:00 | |
| OE3JTB-15 | 2026-09-02 00:50:05 | 46.04104 | 13.93825 | 68° | 60km/h | 31501m | -22.0m/s | -39.9°C | 2.2% | 0hPa | 2.5V | 00:00:00 | 02:25:35 | 00:00:00 | |
| OE5MMP-10 | 2026-09-02 00:50:04 | 46.04098 | 13.93803 | 69° | 69km/h | 31523m | -21.8m/s | -39.7°C | 2.2% | 0hPa | 2.5V | 00:00:00 | 02:25:34 | 00:00:00 | |
| OE5DRO-10 | 2026-09-02 00:50:03 | 46.04092 | 13.93781 | 68° | 60km/h | 31545m | -21.9m/s | -39.5°C | 2.2% | 0hPa | 2.5V | 00:00:00 | 00:00:00 | 00:00:00 | |
| DB0UT-7 | 2026-09-02 00:50:00 | 46.04073 | 13.93712 | 70° | 55km/h | 31610m | -22.2m/s | -39.3°C | 2.1% | 0hPa | 2.5V | 00:00:00 | 02:25:30 | 00:00:00 | |
| 9A1FER-10 | 2026-09-02 00:49:59 | 46.04067 | 13.93689 | 70° | 58km/h | 31632m | -22.5m/s | -39.3°C | 2.1% | 0hPa | 2.5V | 00:00:00 | 02:25:29 | 00:00:00 | |
| PETON7-10 | 2026-09-02 00:49:58 | 46.04061 | 13.93665 | 72° | 55km/h | 31655m | -22.8m/s | -39.3°C | 2.2% | 0hPa | 2.5V | 00:00:00 | 00:00:00 | 00:00:00 | |
| DO3MHA-11 | 2026-09-02 00:49:57 | 46.04055 | 13.93640 | 72° | 62km/h | 31678m | -23.3m/s | -39.4°C | 2.2% | 0hPa | 2.5V | 00:00:00 | 02:25:27 | 00:00:00 | |
| 9A1FER-3 | 2026-09-02 00:49:56 | 46.04050 | 13.93616 | 72° | 55km/h | 31701m | -23.7m/s | -39.4°C | 2.2% | 0hPa | 2.5V | 00:00:00 | 02:25:26 | 00:00:00 | |
| OE5WHR-10 | 2026-09-02 00:49:55 | 46.04044 | 13.93592 | 73° | 55km/h | 31725m | -23.8m/s | -39.5°C | 2.2% | 0hPa | 2.6V | 00:00:00 | 02:25:25 | 00:00:00 | |
| OE5MMP-10 | 2026-09-02 00:49:54 | 46.04038 | 13.93568 | 70° | 53km/h | 31749m | -24.0m/s | -39.6°C | 2.2% | 0hPa | 2.6V | 00:00:00 | 02:25:24 | 00:00:00 | |
| PG1ADW-2 | 2026-09-02 00:49:52 | 46.04025 | 13.93525 | 63° | 49km/h | 31796m | -24.3m/s | -39.6°C | 2.3% | 0hPa | 2.6V | 00:00:00 | 00:00:00 | 00:00:00 | |
| IN3HCDX | 2026-09-02 00:49:51 | 46.04025 | 13.93525 | 63° | 64km/h | 31796m | -24.3m/s | -39.7°C | 0.5% | 0hPa | 2.6V | 00:00:00 | 00:00:00 | 00:00:00 | |
| OE5DXL-15 | 2026-09-02 00:49:49 | 46.04001 | 13.93476 | 46° | 57km/h | 31869m | -24.4m/s | -39.4°C | 2.2% | 0hPa | 2.6V | 00:00:00 | 00:00:00 | 00:00:00 | |
| DO3MHA-11 | 2026-09-02 00:49:47 | 46.03982 | 13.93459 | 22° | 49km/h | 31917m | -23.9m/s | -39.1°C | 2.1% | 0hPa | 2.6V | 00:00:00 | 02:25:17 | 08:30:00 | |
| IN3HCDX1 | 2026-09-02 00:49:46 | 46.03982 | 13.93459 | 23° | 46km/h | 31917m | -23.9m/s | -39.1°C | 0.4% | 0hPa | 2.5V | 00:00:00 | 00:00:00 | 00:00:00 | |
| OE5MMP-10 | 2026-09-02 00:49:44 | 46.03950 | 13.93459 | 342° | 51km/h | 31988m | -24.0m/s | -38.7°C | 2.1% | 0hPa | 2.5V | 00:00:00 | 02:25:14 | 00:00:00 | |
| SOBLACK | 2026-09-02 00:49:43 | 46.03950 | 13.93459 | 343° | 44km/h | 31988m | -24.0m/s | -38.8°C | 0.4% | 0hPa | 2.6V | 00:00:00 | 00:00:00 | 00:00:00 | |
| PETON7-10 | 2026-09-02 00:49:41 | 46.03914 | 13.93510 | 295° | 55km/h | 32084m | -24.6m/s | -38.4°C | 2.1% | 0hPa | 2.6V | 00:00:00 | 02:25:10 | 00:00:00 | |
| DO3MHA-12 | 2026-09-02 00:49:39 | 46.03909 | 13.93528 | 289° | 49km/h | 32109m | -25.3m/s | -38.3°C | 2.0% | 0hPa | 2.6V | 00:00:00 | 02:25:09 | 00:00:00 | |
| DO3MHA-11 | 2026-09-02 00:49:37 | 46.03906 | 13.93566 | 270° | 49km/h | 32159m | -25.4m/s | -38.3°C | 2.0% | 0hPa | 2.6V | 00:00:00 | 02:25:07 | 00:00:00 | |
| NBG1-10 | 2026-09-02 00:49:36 | 46.03907 | 13.93584 | 260° | 57km/h | 32184m | -24.5m/s | -38.4°C | 2.0% | 0hPa | 2.6V | 00:00:00 | 02:25:06 | 08:30:00 | |
| OE5MMP-10 | 2026-09-02 00:49:34 | 46.03915 | 13.93614 | 237° | 53km/h | 32232m | -23.6m/s | -38.5°C | 2.1% | 0hPa | 2.5V | 00:00:00 | 02:25:04 | 00:00:00 | |
| PG1ADW-2 | 2026-09-02 00:49:32 | 46.03929 | 13.93636 | 215° | 62km/h | 32279m | -23.3m/s | -38.6°C | 2.1% | 0hPa | 2.5V | 00:00:00 | 00:00:00 | 00:00:00 | |
| DB0UT-7 | 2026-09-02 00:49:30 | 46.03951 | 13.93651 | 201° | 49km/h | 32325m | -23.8m/s | -38.7°C | 2.1% | 0hPa | 2.6V | 00:00:00 | 00:00:00 | 00:00:00 | |
| DO3MHA-12 | 2026-09-02 00:49:29 | 46.03965 | 13.93656 | 192° | 71km/h | 32349m | -23.9m/s | -38.6°C | 2.1% | 0hPa | 2.6V | 00:00:00 | 02:24:59 | 00:00:00 | |
| DO3MHA-11 | 2026-09-02 00:49:27 | 46.03999 | 13.93664 | 187° | 69km/h | 32398m | -25.7m/s | -38.4°C | 2.1% | 0hPa | 2.6V | 00:00:00 | 02:24:57 | 00:00:00 | |
| 9A1FER-3 | 2026-09-02 00:49:26 | 46.04018 | 13.93665 | 180° | 64km/h | 32424m | -25.9m/s | -38.4°C | 2.1% | 0hPa | 2.6V | 00:00:00 | 02:24:56 | 00:00:00 | |
| OE5WHR-10 | 2026-09-02 00:49:25 | 46.04038 | 13.93664 | 177° | 44km/h | 32450m | -26.6m/s | -38.3°C | 2.0% | 0hPa | 2.6V | 00:00:00 | 00:00:00 | 00:00:00 | |
| OE5MMP-10 | 2026-09-02 00:49:24 | 46.04057 | 13.93660 | 172° | 58km/h | 32476m | -26.5m/s | -38.2°C | 2.0% | 0hPa | 2.5V | 00:00:00 | 02:24:54 | 00:00:00 | |
| SOBLACK | 2026-09-02 00:49:23 | 46.04057 | 13.93660 | 173° | 77km/h | 32476m | -26.5m/s | -38.2°C | 0.4% | 0hPa | 2.5V | 00:00:00 | 00:00:00 | 00:00:00 | |
| DO3MHA-12 | 2026-09-02 00:49:19 | 46.04138 | 13.93613 | 138° | 53km/h | 32600m | -23.8m/s | -37.4°C | 1.9% | 0hPa | 2.5V | 00:00:00 | 02:24:49 | 00:00:00 | |
| DO3MHA-11 | 2026-09-02 00:49:17 | 46.04156 | 13.93584 | 127° | 49km/h | 32648m | -24.5m/s | -37.3°C | 1.9% | 0hPa | 2.6V | 00:00:00 | 02:24:47 | 00:00:00 | |
| 9A1FER-10 | 2026-09-02 00:49:14 | 46.04176 | 13.93534 | 115° | 29km/h | 32724m | -26.3m/s | -37.4°C | 1.9% | 0hPa | 2.6V | 00:00:00 | 02:24:44 | 00:00:00 | |
| OE5MMP-10 | 2026-09-02 00:49:12 | 46.04188 | 13.93497 | 114° | 29km/h | 32778m | -27.8m/s | -37.6°C | 1.9% | 0hPa | 2.6V | 00:00:00 | 02:24:42 | 00:00:00 | |
| 9A1FER-3 | 2026-09-02 00:49:11 | 46.04193 | 13.93479 | 115° | 18km/h | 32805m | -28.1m/s | -37.6°C | 2.0% | 0hPa | 2.5V | 00:00:00 | 02:24:41 | 08:30:00 | |
| PETON7-10 | 2026-09-02 00:49:10 | 46.04199 | 13.93463 | 118° | 16km/h | 32833m | -27.6m/s | -37.7°C | 1.9% | 0hPa | 2.5V | 00:00:00 | 00:00:00 | 00:00:00 | |
| IN3HCDX | 2026-09-02 00:49:09 | 46.04199 | 13.93463 | 118° | 47km/h | 32833m | -27.6m/s | -37.8°C | 0.4% | 0hPa | 2.5V | 00:00:00 | 00:00:00 | 00:00:00 | |
| DO3MHA-12 | 2026-09-02 00:49:08 | 46.04208 | 13.93438 | 123° | 16km/h | 32888m | -28.8m/s | -37.8°C | 1.9% | 0hPa | 2.5V | 00:00:00 | 02:24:38 | 00:00:00 | |
| DO3MHA-11 | 2026-09-02 00:49:07 | 46.04212 | 13.93432 | 142° | 11km/h | 32919m | -33.9m/s | -37.8°C | 1.9% | 0hPa | 2.5V | 00:00:00 | 02:24:37 | 00:00:00 | |
| IN3HCDX1 | 2026-09-02 00:49:06 | 46.04216 | 13.93430 | 186° | 18km/h | 32957m | -42.4m/s | -37.7°C | 0.4% | 0hPa | 2.5V | 00:00:00 | 00:00:00 | 00:00:00 | |
| NBG1-10 | 2026-09-02 00:49:03 | 46.04222 | 13.93436 | 273° | 20km/h | 33127m | -59.6m/s | -38.1°C | 2.0% | 0hPa | 2.5V | 00:00:00 | 02:24:33 | 00:00:00 | |
| OE5MMP-10 | 2026-09-02 00:49:02 | 46.04221 | 13.93439 | 301° | 9km/h | 33186m | -57.7m/s | -38.3°C | 2.0% | 0hPa | 2.5V | 00:00:00 | 02:24:32 | 00:00:00 | |
| DB0UT-7 | 2026-09-02 00:49:00 | 46.04219 | 13.93445 | 315° | 20km/h | 33296m | -52.1m/s | -38.6°C | 2.0% | 0hPa | 2.5V | 00:00:00 | 02:24:30 | 00:00:00 | |
| 9A1FER-10 | 2026-09-02 00:48:59 | 46.04218 | 13.93447 | 307° | 15km/h | 33347m | -51.2m/s | -38.5°C | 2.1% | 0hPa | 2.5V | 00:00:00 | 02:24:29 | 08:30:00 | |
| OE8JPQ-2 | 2026-09-02 00:48:57 | 46.04215 | 13.93454 | 287° | 18km/h | 33447m | -47.9m/s | -38.4°C | 2.0% | 0hPa | 2.5V | 00:00:00 | 00:00:00 | 08:30:00 | |
| 9A1FER-3 | 2026-09-02 00:48:56 | 46.04215 | 13.93456 | 261° | 15km/h | 33495m | -48.5m/s | -38.4°C | 2.0% | 0hPa | 2.6V | 00:00:00 | 02:24:26 | 00:00:00 | |
| PETON7-10 | 2026-09-02 00:48:55 | 46.04216 | 13.93458 | 217° | 15km/h | 33544m | -48.8m/s | -38.6°C | 2.1% | 0hPa | 2.6V | 00:00:00 | 02:24:25 | 00:00:00 | |
| DO3MHA-12 | 2026-09-02 00:48:52 | 46.04223 | 13.93463 | 209° | 18km/h | 33684m | -43.5m/s | -38.9°C | 2.2% | 0hPa | 2.6V | 00:00:00 | 02:24:22 | 00:00:00 | |
| OE5DXL-15 | 2026-09-02 00:48:49 | 46.04226 | 13.93472 | 300° | 18km/h | 33807m | -39.7m/s | -38.8°C | 2.1% | 0hPa | 2.6V | 00:00:00 | 00:00:00 | 00:00:00 | |
| IN3HCDX | 2026-09-02 00:48:48 | 46.04226 | 13.93472 | 301° | 15km/h | 33807m | -39.8m/s | -38.8°C | 0.4% | 0hPa | 2.5V | 00:00:00 | 00:00:00 | 00:00:00 | |
| DO3MHA-11 | 2026-09-02 00:48:47 | 46.04218 | 13.93482 | 331° | 27km/h | 33885m | -39.3m/s | -38.6°C | 2.1% | 0hPa | 2.5V | 00:00:00 | 02:24:17 | 00:00:00 | |
| 9A1FER-10 | 2026-09-02 00:48:44 | 46.04199 | 13.93493 | 339° | 26km/h | 34007m | -41.8m/s | -38.0°C | 2.0% | 0hPa | 2.6V | 00:00:00 | 02:24:14 | 00:00:00 | |
| DO3MHA-12 | 2026-09-02 00:48:42 | 46.04195 | 13.93498 | 238° | 26km/h | 34085m | -37.2m/s | -37.7°C | 1.9% | 0hPa | 2.6V | 00:00:00 | 02:24:12 | 00:00:00 | |
| 9A1FER-3 | 2026-09-02 00:48:41 | 46.04197 | 13.93499 | 187° | 24km/h | 34121m | -34.6m/s | -37.6°C | 1.9% | 0hPa | 2.5V | 00:00:00 | 02:24:11 | 00:00:00 | |
| PETON7-10 | 2026-09-02 00:48:40 | 46.04203 | 13.93499 | 182° | 26km/h | 34154m | -31.0m/s | -37.5°C | 1.9% | 0hPa | 2.5V | 00:00:00 | 00:00:00 | 00:00:00 | |
| DO3MHA-11 | 2026-09-02 00:48:37 | 46.04238 | 13.93499 | 180° | 35km/h | 34244m | -29.9m/s | -37.5°C | 1.9% | 0hPa | 2.5V | 00:00:00 | 02:24:07 | 00:00:00 | |
| OE5DRO-10 | 2026-09-02 00:48:36 | 46.04251 | 13.93499 | 183° | 13km/h | 34276m | -33.7m/s | -37.6°C | 1.9% | 0hPa | 2.5V | 00:00:00 | 00:00:00 | 00:00:00 | |
| SOBLACK | 2026-09-02 00:48:35 | 46.04251 | 13.93499 | 183° | 44km/h | 34276m | -33.8m/s | -37.7°C | 0.4% | 0hPa | 2.5V | 00:00:00 | 00:00:00 | 00:00:00 | |
| OE5MMP-10 | 2026-09-02 00:48:32 | 46.04258 | 13.93508 | 329° | 11km/h | 34400m | -20.5m/s | -37.9°C | 2.0% | 0hPa | 2.5V | 00:00:00 | 02:24:02 | 00:00:00 | |
| DB0UT-7 | 2026-09-02 00:48:30 | 46.04251 | 13.93514 | 329° | 11km/h | 34423m | -1.7m/s | -37.9°C | 2.0% | 0hPa | 2.5V | 00:00:00 | 00:00:00 | 00:00:00 | |
| 9A1FER-10 | 2026-09-02 00:48:29 | 46.04247 | 13.93517 | 327° | 9km/h | 34420m | 8.4m/s | -37.9°C | 2.0% | 0hPa | 2.5V | 00:00:00 | 02:23:59 | 00:00:00 | |
| PG1ADW-2 | 2026-09-02 00:48:28 | 46.04244 | 13.93519 | 341° | 9km/h | 34413m | 4.9m/s | -37.9°C | 2.0% | 0hPa | 2.5V | 00:00:00 | 00:00:00 | 08:30:00 | |
| IN3HCDX | 2026-09-02 00:48:27 | 46.04244 | 13.93519 | 342° | 13km/h | 34413m | 4.9m/s | -37.9°C | 0.4% | 0hPa | 2.6V | 00:00:00 | 00:00:00 | 00:00:00 | |
| IN3HCDX1 | 2026-09-02 00:48:24 | 46.04238 | 13.93523 | 288° | 4km/h | 34397m | 6.3m/s | -37.9°C | 0.4% | 0hPa | 2.6V | 00:00:00 | 00:00:00 | 00:00:00 | |
| DO3MHA-11 | 2026-09-02 00:48:23 | 46.04240 | 13.93526 | 232° | 11km/h | 34385m | 5.0m/s | -37.8°C | 2.0% | 0hPa | 2.6V | 00:00:00 | 02:23:53 | 00:00:00 | |
| OE5MMP-10 | 2026-09-02 00:48:22 | 46.04240 | 13.93527 | 234° | 9km/h | 34381m | 4.7m/s | -37.8°C | 2.0% | 0hPa | 2.6V | 00:00:00 | 02:23:52 | 00:00:00 | |
| OE5DXL-15 | 2026-09-02 00:48:19 | 46.04239 | 13.93528 | 17° | 11km/h | 34363m | 5.9m/s | -37.9°C | 2.0% | 0hPa | 2.6V | 00:00:00 | 00:00:00 | 00:00:00 | |
| OE8JPQ-2 | 2026-09-02 00:48:17 | 46.04233 | 13.93527 | 357° | 13km/h | 34353m | 4.4m/s | -37.9°C | 2.0% | 0hPa | 2.6V | 00:00:00 | 02:23:47 | 00:00:00 | |
| OE5WHR-10 | 2026-09-02 00:48:15 | 46.04229 | 13.93531 | 297° | 13km/h | 34343m | 6.0m/s | -37.9°C | 2.0% | 0hPa | 2.6V | 00:00:00 | 00:00:00 | 00:00:00 | |
| 9A1FER-10 | 2026-09-02 00:48:14 | 46.04228 | 13.93536 | 270° | 13km/h | 34337m | 6.3m/s | -37.9°C | 2.0% | 0hPa | 2.6V | 00:00:00 | 02:23:44 | 00:00:00 | |
| DO3MHA-11 | 2026-09-02 00:48:13 | 46.04229 | 13.93542 | 254° | 13km/h | 34331m | 5.6m/s | -37.9°C | 2.0% | 0hPa | 2.6V | 00:00:00 | 02:23:43 | 08:30:00 | |
| SOBLACK | 2026-09-02 00:48:12 | 46.04231 | 13.93548 | 245° | 18km/h | 34326m | 4.6m/s | -37.9°C | 0.4% | 0hPa | 2.5V | 00:00:00 | 00:00:00 | 00:00:00 | |
| PETON7-10 | 2026-09-02 00:48:10 | 46.04234 | 13.93556 | 221° | 11km/h | 34317m | 5.1m/s | -37.9°C | 2.0% | 0hPa | 2.5V | 00:00:00 | 02:23:40 | 00:00:00 | |
| OM5KV | 2026-09-02 00:48:09 | 46.04234 | 13.93556 | 222° | 7km/h | 34317m | 5.2m/s | -37.9°C | 0.4% | 0hPa | 2.5V | 00:00:00 | 00:00:00 | 00:00:00 | |
| PG1ADW-2 | 2026-09-02 00:48:08 | 46.04235 | 13.93554 | 76° | 11km/h | 34304m | 6.3m/s | -37.9°C | 2.0% | 0hPa | 2.5V | 00:00:00 | 00:00:00 | 00:00:00 | |
| IN3HCDX | 2026-09-02 00:48:07 | 46.04235 | 13.93553 | 77° | 11km/h | 34304m | 6.4m/s | -37.9°C | 0.4% | 0hPa | 2.5V | 00:00:00 | 00:00:00 | 00:00:00 | |
| OM5KV | 2026-09-02 00:48:05 | 46.04232 | 13.93543 | 63° | 16km/h | 34294m | 4.5m/s | -37.9°C | 0.4% | 0hPa | 2.5V | 00:00:00 | 00:00:00 | 00:00:00 | |
| DO3MHA-11 | 2026-09-02 00:48:03 | 46.04228 | 13.93537 | 277° | 11km/h | 34278m | 5.8m/s | -37.8°C | 2.0% | 0hPa | 2.5V | 00:00:00 | 02:23:33 | 00:00:00 | |
| OE5MMP-10 | 2026-09-02 00:48:02 | 46.04228 | 13.93541 | 262° | 11km/h | 34272m | 5.7m/s | -37.8°C | 1.9% | 0hPa | 2.5V | 00:00:00 | 02:23:32 | 00:00:00 | |
| DB0UT-7 | 2026-09-02 00:48:00 | 46.04230 | 13.93554 | 259° | 11km/h | 34262m | 4.7m/s | -37.8°C | 2.0% | 0hPa | 2.5V | 00:00:00 | 02:23:30 | 00:00:00 | |
| 9A1FER-10 | 2026-09-02 00:47:59 | 46.04231 | 13.93561 | 263° | 9km/h | 34257m | 5.1m/s | -37.8°C | 2.0% | 0hPa | 2.5V | 00:00:00 | 02:23:29 | 00:00:00 | |
| OE5DRO-10 | 2026-09-02 00:47:58 | 46.04231 | 13.93566 | 266° | 11km/h | 34252m | 5.8m/s | -37.8°C | 2.0% | 0hPa | 2.5V | 00:00:00 | 00:00:00 | 00:00:00 | |
| OE8JPQ-2 | 2026-09-02 00:47:57 | 46.04231 | 13.93569 | 278° | 9km/h | 34246m | 5.5m/s | -37.8°C | 1.9% | 0hPa | 2.5V | 00:00:00 | 00:00:00 | 00:00:00 | |
| NBG1-10 | 2026-09-02 00:47:55 | 46.04231 | 13.93568 | 98° | 13km/h | 34235m | 4.9m/s | -37.8°C | 1.9% | 0hPa | 2.6V | 00:00:00 | 02:23:25 | 00:00:00 | |
| DO3MHA-11 | 2026-09-02 00:47:53 | 46.04233 | 13.93564 | 142° | 9km/h | 34224m | 6.0m/s | -37.8°C | 1.9% | 0hPa | 2.6V | 00:00:00 | 02:23:23 | 00:00:00 | |
| OE5MMP-10 | 2026-09-02 00:47:52 | 46.04235 | 13.93562 | 169° | 11km/h | 34218m | 5.6m/s | -37.8°C | 2.0% | 0hPa | 2.6V | 00:00:00 | 02:23:22 | 00:00:00 | |
| OM5KV | 2026-09-02 00:47:51 | 46.04235 | 13.93562 | 170° | 9km/h | 34218m | 5.7m/s | -37.9°C | 0.4% | 0hPa | 2.6V | 00:00:00 | 00:00:00 | 00:00:00 | |
| SOBLACK | 2026-09-02 00:47:50 | 46.04238 | 13.93562 | 189° | 11km/h | 34213m | 5.2m/s | -37.9°C | 0.4% | 0hPa | 2.6V | 00:00:00 | 00:00:00 | 00:00:00 | |
| OE5DXL-15 | 2026-09-02 00:47:49 | 46.04242 | 13.93565 | 220° | 13km/h | 34203m | 5.2m/s | -37.9°C | 2.0% | 0hPa | 2.6V | 00:00:00 | 00:00:00 | 00:00:00 | |
| PG1ADW-2 | 2026-09-02 00:47:48 | 46.04243 | 13.93567 | 242° | 15km/h | 34197m | 5.9m/s | -38.0°C | 1.9% | 0hPa | 2.6V | 00:00:00 | 00:00:00 | 00:00:00 | |
| IN3HCDX | 2026-09-02 00:47:47 | 46.04243 | 13.93567 | 243° | 7km/h | 34197m | 6.0m/s | -38.0°C | 0.4% | 0hPa | 2.6V | 00:00:00 | 00:00:00 | 00:00:00 | |
| IV3AMH | 2026-09-02 00:47:46 | 46.04244 | 13.93569 | 272° | 7km/h | 34192m | 5.5m/s | -38.0°C | 0.4% | 0hPa | 2.6V | 00:00:00 | 00:00:00 | 00:00:00 | |
| 9A1FER-10 | 2026-09-02 00:47:44 | 46.04243 | 13.93581 | 269° | 15km/h | 34176m | 5.8m/s | -38.0°C | 1.9% | 0hPa | 2.6V | 00:00:00 | 02:23:14 | 00:00:00 | |
| DO3MHA-11 | 2026-09-02 00:47:43 | 46.04244 | 13.93587 | 260° | 9km/h | 34170m | 5.9m/s | -38.0°C | 2.0% | 0hPa | 2.6V | 00:00:00 | 02:23:13 | 00:00:00 | |
| OE5MMP-10 | 2026-09-02 00:47:42 | 46.04245 | 13.93593 | 251° | 9km/h | 34164m | 5.1m/s | -38.0°C | 2.0% | 0hPa | 2.6V | 00:00:00 | 02:23:12 | 00:00:00 | |
| 9A1FER-3 | 2026-09-02 00:47:40 | 46.04248 | 13.93603 | 232° | 15km/h | 34155m | 4.5m/s | -38.1°C | 1.9% | 0hPa | 2.5V | 00:00:00 | 02:23:10 | 00:00:00 | |
| PETON7-10 | 2026-09-02 00:47:39 | 46.04250 | 13.93605 | 210° | 13km/h | 34150m | 5.2m/s | -38.1°C | 2.0% | 0hPa | 2.5V | 00:00:00 | 00:00:00 | 00:00:00 | |
| OE8JPQ-2 | 2026-09-02 00:47:37 | 46.04251 | 13.93603 | 73° | 16km/h | 34138m | 5.9m/s | -38.2°C | 2.0% | 0hPa | 2.5V | 00:00:00 | 00:00:00 | 00:00:00 | |
| OM5KV | 2026-09-02 00:47:36 | 46.04250 | 13.93601 | 54° | 7km/h | 34133m | 4.4m/s | -38.3°C | 0.4% | 0hPa | 2.5V | 00:00:00 | 00:00:00 | 00:00:00 | |
| OM5KV | 2026-09-02 00:47:34 | 46.04249 | 13.93600 | 10° | 4km/h | 34128m | 3.9m/s | -38.3°C | 0.4% | 0hPa | 2.5V | 00:00:00 | 00:00:00 | 00:00:00 | |
| DO3MHA-11 | 2026-09-02 00:47:33 | 46.04248 | 13.93605 | 263° | 20km/h | 34119m | 6.5m/s | -38.3°C | 2.0% | 0hPa | 2.5V | 00:00:00 | 02:23:03 | 00:00:00 | |
| OE5MMP-10 | 2026-09-02 00:47:32 | 46.04249 | 13.93612 | 256° | 20km/h | 34112m | 6.8m/s | -38.4°C | 2.0% | 0hPa | 2.5V | 00:00:00 | 02:23:02 | 00:00:00 | |
| DB0UT-7 | 2026-09-02 00:47:30 | 46.04254 | 13.93634 | 248° | 15km/h | 34101m | 4.0m/s | -38.4°C | 2.0% | 0hPa | 2.5V | 00:00:00 | 00:00:00 | 00:00:00 | |
| OE5WHR-10 | 2026-09-02 00:47:29 | 46.04258 | 13.93644 | 245° | 20km/h | 34097m | 3.3m/s | -38.4°C | 2.0% | 0hPa | 2.5V | 00:00:00 | 00:00:00 | 00:00:00 | |
| PG1ADW-2 | 2026-09-02 00:47:28 | 46.04260 | 13.93652 | 241° | 13km/h | 34093m | 4.6m/s | -38.5°C | 2.0% | 0hPa | 2.5V | 00:00:00 | 02:22:58 | 00:00:00 | |
| IN3HCDX | 2026-09-02 00:47:27 | 46.04260 | 13.93652 | 242° | 20km/h | 34093m | 4.6m/s | -38.5°C | 0.4% | 0hPa | 2.6V | 00:00:00 | 00:00:00 | 00:00:00 | |
| 9A1FER-3 | 2026-09-02 00:47:25 | 46.04263 | 13.93654 | 86° | 13km/h | 34075m | 6.0m/s | -38.6°C | 2.0% | 0hPa | 2.6V | 00:00:00 | 02:22:55 | 00:00:00 | |
| PETON7-10 | 2026-09-02 00:47:24 | 46.04263 | 13.93649 | 84° | 13km/h | 34069m | 4.7m/s | -38.6°C | 2.0% | 0hPa | 2.6V | 00:00:00 | 02:22:54 | 00:00:00 | |
| DO3MHA-11 | 2026-09-02 00:47:23 | 46.04263 | 13.93643 | 90° | 16km/h | 34064m | 4.2m/s | -38.7°C | 2.0% | 0hPa | 2.6V | 00:00:00 | 02:22:53 | 00:00:00 | |
| NBG1-10 | 2026-09-02 00:47:22 | 46.04263 | 13.93640 | 114° | 15km/h | 34060m | 5.1m/s | -38.7°C | 2.0% | 0hPa | 2.6V | 00:00:00 | 02:22:52 | 00:00:00 | |
| OE8JPQ-2 | 2026-09-02 00:47:17 | 46.04274 | 13.93665 | 248° | 13km/h | 34033m | 5.2m/s | -38.9°C | 2.1% | 0hPa | 2.6V | 00:00:00 | 02:22:47 | 00:00:00 | |
| OM5KV | 2026-09-02 00:47:16 | 46.04274 | 13.93665 | 249° | 26km/h | 34033m | 5.2m/s | -39.0°C | 0.4% | 0hPa | 2.6V | 00:00:00 | 00:00:00 | 00:00:00 | |
| 9A1FER-10 | 2026-09-02 00:47:14 | 46.04278 | 13.93682 | 255° | 9km/h | 34018m | 5.0m/s | -39.0°C | 2.1% | 0hPa | 2.6V | 00:00:00 | 02:22:44 | 00:00:00 | |
| DO3MHA-11 | 2026-09-02 00:47:13 | 46.04279 | 13.93683 | 259° | 9km/h | 34012m | 5.0m/s | -39.1°C | 2.1% | 0hPa | 2.6V | 00:00:00 | 02:22:43 | 00:00:00 | |
| OE5MMP-10 | 2026-09-02 00:47:12 | 46.04279 | 13.93684 | 266° | 11km/h | 34007m | 5.4m/s | -39.1°C | 2.1% | 0hPa | 2.6V | 00:00:00 | 02:22:42 | 08:30:00 | |
| DO3MHA-12 | 2026-09-02 00:47:11 | 46.04279 | 13.93685 | 279° | 13km/h | 34002m | 5.5m/s | -39.1°C | 2.1% | 0hPa | 2.5V | 00:00:00 | 02:22:41 | 00:00:00 | |
| 9A1FER-3 | 2026-09-02 00:47:10 | 46.04278 | 13.93686 | 289° | 13km/h | 33996m | 5.2m/s | -39.1°C | 2.1% | 0hPa | 2.5V | 00:00:00 | 02:22:40 | 00:00:00 | |
| PETON7-10 | 2026-09-02 00:47:09 | 46.04278 | 13.93689 | 296° | 13km/h | 33991m | 5.0m/s | -39.2°C | 2.1% | 0hPa | 2.5V | 00:00:00 | 00:00:00 | 00:00:00 | |
| PG1ADW-2 | 2026-09-02 00:47:08 | 46.04276 | 13.93692 | 305° | 16km/h | 33986m | 4.9m/s | -39.2°C | 2.1% | 0hPa | 2.5V | 00:00:00 | 00:00:00 | 00:00:00 | |
| IN3HCDX | 2026-09-02 00:47:07 | 46.04274 | 13.93696 | 315° | 15km/h | 33981m | 4.9m/s | -39.3°C | 0.4% | 0hPa | 2.5V | 00:00:00 | 00:00:00 | 00:00:00 | |
| OM5KV | 2026-09-02 00:47:06 | 46.04274 | 13.93696 | 315° | 15km/h | 33981m | 4.9m/s | -39.3°C | 0.4% | 0hPa | 2.5V | 00:00:00 | 00:00:00 | 00:00:00 | |
| DO3MHA-11 | 2026-09-02 00:47:03 | 46.04261 | 13.93706 | 340° | 13km/h | 33960m | 4.3m/s | -39.2°C | 2.1% | 0hPa | 2.5V | 00:00:00 | 02:22:33 | 00:00:00 | |
| OE5MMP-10 | 2026-09-02 00:47:02 | 46.04260 | 13.93708 | 293° | 15km/h | 33955m | 4.6m/s | -39.2°C | 2.1% | 0hPa | 2.5V | 00:00:00 | 02:22:32 | 00:00:00 | |
| OE5DRO-10 | 2026-09-02 00:47:01 | 46.04260 | 13.93710 | 227° | 18km/h | 33950m | 5.6m/s | -39.3°C | 2.1% | 0hPa | 2.5V | 00:00:00 | 00:00:00 | 00:00:00 | |
| DB0UT-7 | 2026-09-02 00:47:00 | 46.04262 | 13.93712 | 214° | 18km/h | 33944m | 6.9m/s | -39.3°C | 2.1% | 0hPa | 2.5V | 00:00:00 | 02:22:30 | 08:30:00 | |
| 9A1FER-10 | 2026-09-02 00:46:59 | 46.04267 | 13.93716 | 210° | 18km/h | 33937m | 5.8m/s | -39.3°C | 2.1% | 0hPa | 2.5V | 00:00:00 | 02:22:29 | 00:00:00 | |
| OE8JPQ-2 | 2026-09-02 00:46:57 | 46.04277 | 13.93723 | 206° | 16km/h | 33929m | 3.0m/s | -39.4°C | 2.1% | 0hPa | 2.5V | 00:00:00 | 00:00:00 | 00:00:00 | |
| DO3MHA-12 | 2026-09-02 00:46:55 | 46.04281 | 13.93725 | 77° | 18km/h | 33920m | 6.2m/s | -39.6°C | 2.2% | 0hPa | 2.6V | 00:00:00 | 02:22:25 | 00:00:00 | |
| PETON7-10 | 2026-09-02 00:46:54 | 46.04280 | 13.93724 | 32° | 18km/h | 33913m | 6.8m/s | -39.6°C | 2.2% | 0hPa | 2.6V | 00:00:00 | 00:00:00 | 00:00:00 | |
| DO3MHA-11 | 2026-09-02 00:46:53 | 46.04275 | 13.93721 | 25° | 20km/h | 33907m | 6.1m/s | -39.5°C | 2.2% | 0hPa | 2.6V | 00:00:00 | 02:22:23 | 00:00:00 | |
| OE5MMP-10 | 2026-09-02 00:46:52 | 46.04269 | 13.93718 | 19° | 20km/h | 33901m | 4.4m/s | -39.6°C | 2.1% | 0hPa | 2.6V | 00:00:00 | 02:22:22 | 00:00:00 | |
| OE5DXL-15 | 2026-09-02 00:46:49 | 46.04253 | 13.93718 | 322° | 18km/h | 33888m | 5.9m/s | -39.6°C | 2.2% | 0hPa | 2.6V | 00:00:00 | 00:00:00 | 00:00:00 | |
| PG1ADW-2 | 2026-09-02 00:46:47 | 46.04251 | 13.93729 | 251° | 16km/h | 33875m | 5.7m/s | -39.6°C | 2.1% | 0hPa | 2.6V | 00:00:00 | 00:00:00 | 00:00:00 | |
| IN3HCDX | 2026-09-02 00:46:45 | 46.04254 | 13.93735 | 233° | 22km/h | 33870m | 5.0m/s | -39.6°C | 0.4% | 0hPa | 2.6V | 00:00:00 | 00:00:00 | 00:00:00 | |
| 9A1FER-10 | 2026-09-02 00:46:44 | 46.04261 | 13.93744 | 203° | 16km/h | 33860m | 5.3m/s | -39.5°C | 2.1% | 0hPa | 2.6V | 00:00:00 | 02:22:14 | 08:30:00 | |
| DO3MHA-11 | 2026-09-02 00:46:43 | 46.04263 | 13.93745 | 170° | 20km/h | 33854m | 5.1m/s | -39.5°C | 2.1% | 0hPa | 2.6V | 00:00:00 | 02:22:13 | 08:30:00 | |
| OE5MMP-10 | 2026-09-02 00:46:42 | 46.04264 | 13.93743 | 86° | 20km/h | 33849m | 4.9m/s | -39.5°C | 2.1% | 0hPa | 2.5V | 00:00:00 | 02:22:12 | 00:00:00 | |
| IN3HCDX1 | 2026-09-02 00:46:40 | 46.04260 | 13.93739 | 20° | 16km/h | 33839m | 5.9m/s | -39.5°C | 0.4% | 0hPa | 2.5V | 00:00:00 | 00:00:00 | 00:00:00 | |
| PETON7-10 | 2026-09-02 00:46:39 | 46.04256 | 13.93738 | 3° | 16km/h | 33832m | 6.3m/s | -39.5°C | 2.1% | 0hPa | 2.5V | 00:00:00 | 02:22:09 | 00:00:00 | |
| IV3AMH | 2026-09-02 00:46:38 | 46.04256 | 13.93738 | 4° | 20km/h | 33832m | 6.4m/s | -39.5°C | 0.5% | 0hPa | 2.5V | 00:00:00 | 00:00:00 | 00:00:00 | |
| OE8JPQ-2 | 2026-09-02 00:46:37 | 46.04243 | 13.93741 | 341° | 18km/h | 33821m | 4.9m/s | -39.5°C | 2.1% | 0hPa | 2.5V | 00:00:00 | 00:00:00 | 00:00:00 | |
| OM5KV | 2026-09-02 00:46:34 | 46.04230 | 13.93749 | 336° | 27km/h | 33812m | 4.8m/s | -39.6°C | 0% | 0hPa | 2.5V | 00:00:00 | 00:00:00 | 00:00:00 | |
| OM5KV | 2026-09-02 00:46:33 | 46.04220 | 13.93755 | 337° | 15km/h | 33801m | 5.7m/s | -39.6°C | 0.5% | 0hPa | 2.5V | 00:00:00 | 00:00:00 | 00:00:00 | |
| OE5MMP-10 | 2026-09-02 00:46:32 | 46.04218 | 13.93757 | 322° | 13km/h | 33795m | 5.6m/s | -39.6°C | 2.1% | 0hPa | 2.5V | 00:00:00 | 02:22:02 | 00:00:00 | |
| DB0UT-7 | 2026-09-02 00:46:30 | 46.04219 | 13.93760 | 208° | 18km/h | 33783m | 6.2m/s | -39.6°C | 2.1% | 0hPa | 2.5V | 00:00:00 | 00:00:00 | 00:00:00 | |
| 9A1FER-10 | 2026-09-02 00:46:29 | 46.04222 | 13.93762 | 209° | 20km/h | 33777m | 6.6m/s | -39.7°C | 2.1% | 0hPa | 2.5V | 00:00:00 | 02:21:59 | 00:00:00 | |
| OE3JTB-15 | 2026-09-02 00:46:28 | 46.04226 | 13.93766 | 212° | 16km/h | 33771m | 5.4m/s | -39.7°C | 2.2% | 0hPa | 2.5V | 00:00:00 | 02:21:58 | 00:00:00 | |
| PG1ADW-2 | 2026-09-02 00:46:27 | 46.04230 | 13.93769 | 219° | 16km/h | 33766m | 4.0m/s | -39.7°C | 2.2% | 0hPa | 2.5V | 00:00:00 | 00:00:00 | 00:00:00 | |
| 9A1FER-3 | 2026-09-02 00:46:25 | 46.04232 | 13.93775 | 312° | 18km/h | 33757m | 5.4m/s | -39.8°C | 2.2% | 0hPa | 2.5V | 00:00:00 | 02:21:55 | 00:00:00 | |
| PETON7-10 | 2026-09-02 00:46:24 | 46.04230 | 13.93775 | 3° | 18km/h | 33751m | 7.1m/s | -39.8°C | 2.2% | 0hPa | 2.5V | 00:00:00 | 00:00:00 | 00:00:00 | |
| DO3MHA-12 | 2026-09-02 00:46:23 | 46.04226 | 13.93774 | 10° | 24km/h | 33744m | 6.7m/s | -39.8°C | 2.2% | 0hPa | 2.6V | 00:00:00 | 02:21:53 | 00:00:00 | |
| OE5MMP-10 | 2026-09-02 00:46:22 | 46.04220 | 13.93773 | 7° | 24km/h | 33738m | 5.3m/s | -39.8°C | 2.2% | 0hPa | 2.6V | 00:00:00 | 02:21:52 | 00:00:00 | |
| OE5DXL-15 | 2026-09-02 00:46:19 | 46.04199 | 13.93779 | 326° | 16km/h | 33722m | 5.8m/s | -39.8°C | 2.2% | 0hPa | 2.6V | 00:00:00 | 00:00:00 | 00:00:00 | |
| OM5KV | 2026-09-02 00:46:18 | 46.04199 | 13.93779 | 326° | 27km/h | 33722m | 5.9m/s | 0°C | 0% | 0hPa | 2.6V | 00:00:00 | 00:00:00 | 00:00:00 | |
| OE8JPQ-2 | 2026-09-02 00:46:17 | 46.04192 | 13.93793 | 279° | 16km/h | 33711m | 5.6m/s | -39.8°C | 2.2% | 0hPa | 2.6V | 00:00:00 | 02:21:47 | 00:00:00 | |
| NBG1-10 | 2026-09-02 00:46:16 | 46.04192 | 13.93802 | 261° | 16km/h | 33705m | 5.8m/s | -39.8°C | 2.2% | 0hPa | 2.6V | 00:00:00 | 02:21:46 | 00:00:00 | |
| 9A1FER-10 | 2026-09-02 00:46:14 | 46.04196 | 13.93814 | 228° | 15km/h | 33693m | 5.7m/s | -39.7°C | 2.2% | 0hPa | 2.5V | 00:00:00 | 02:21:44 | 00:00:00 | |
| DO3MHA-11 | 2026-09-02 00:46:13 | 46.04199 | 13.93818 | 216° | 20km/h | 33687m | 4.9m/s | -39.7°C | 2.2% | 0hPa | 2.5V | 00:00:00 | 02:21:43 | 00:00:00 | |
| OE5MMP-10 | 2026-09-02 00:46:12 | 46.04200 | 13.93819 | 220° | 16km/h | 33683m | 4.8m/s | -39.7°C | 2.2% | 0hPa | 2.5V | 00:00:00 | 02:21:42 | 00:00:00 | |
| 9A1FER-3 | 2026-09-02 00:46:10 | 46.04200 | 13.93822 | 312° | 18km/h | 33672m | 6.2m/s | -39.7°C | 2.2% | 0hPa | 2.6V | 00:00:00 | 02:21:40 | 00:00:00 | |
| PETON7-10 | 2026-09-02 00:46:09 | 46.04198 | 13.93825 | 316° | 20km/h | 33665m | 6.3m/s | -39.7°C | 2.2% | 0hPa | 2.5V | 00:00:00 | 00:00:00 | 00:00:00 | |
| PG1ADW-2 | 2026-09-02 00:46:07 | 46.04191 | 13.93835 | 320° | 16km/h | 33654m | 5.4m/s | -39.7°C | 2.2% | 0hPa | 2.5V | 00:00:00 | 02:21:37 | 00:00:00 | |
| SOBLACK | 2026-09-02 00:46:06 | 46.04191 | 13.93835 | 320° | 24km/h | 33654m | 5.4m/s | -39.7°C | 0.5% | 0hPa | 2.5V | 00:00:00 | 00:00:00 | 00:00:00 | |
| IN3HCDX | 2026-09-02 00:46:04 | 46.04181 | 13.93846 | 327° | 24km/h | 33643m | 5.0m/s | -39.7°C | 0.5% | 0hPa | 2.5V | 00:00:00 | 00:00:00 | 00:00:00 | |
| OE5WHR-10 | 2026-09-02 00:46:03 | 46.04171 | 13.93853 | 338° | 16km/h | 33632m | 5.8m/s | -39.5°C | 2.2% | 0hPa | 2.5V | 00:00:00 | 00:00:00 | 00:00:00 | |
| OE5MMP-10 | 2026-09-02 00:46:02 | 46.04168 | 13.93855 | 338° | 16km/h | 33627m | 5.3m/s | -39.5°C | 2.1% | 0hPa | 2.5V | 00:00:00 | 02:21:32 | 00:00:00 | |
| DO3MHA-11 | 2026-09-02 00:46:01 | 46.04166 | 13.93857 | 310° | 16km/h | 33622m | 5.0m/s | -39.5°C | 2.1% | 0hPa | 2.5V | 00:00:00 | 02:21:31 | 00:00:00 | |
| DB0UT-7 | 2026-09-02 00:46:00 | 46.04166 | 13.93860 | 264° | 15km/h | 33616m | 5.2m/s | -39.5°C | 2.2% | 0hPa | 2.5V | 00:00:00 | 02:21:30 | 00:00:00 | |
| DO3MHA-12 | 2026-09-02 00:45:59 | 46.04167 | 13.93864 | 249° | 16km/h | 33610m | 6.7m/s | -39.5°C | 2.2% | 0hPa | 2.5V | 00:00:00 | 02:21:29 | 00:00:00 | |
| IN3HCDX1 | 2026-09-02 00:45:58 | 46.04167 | 13.93864 | 249° | 16km/h | 33610m | 6.8m/s | -39.5°C | 0.5% | 0hPa | 2.5V | 00:00:00 | 00:00:00 | 00:00:00 | |
| OE8JPQ-2 | 2026-09-02 00:45:57 | 46.04171 | 13.93879 | 248° | 15km/h | 33597m | 5.6m/s | -39.5°C | 2.1% | 0hPa | 2.5V | 00:00:00 | 00:00:00 | 08:30:00 | |
| 9A1FER-3 | 2026-09-02 00:45:55 | 46.04176 | 13.93897 | 254° | 15km/h | 33588m | 4.4m/s | -39.5°C | 2.2% | 0hPa | 2.6V | 00:00:00 | 02:21:25 | 00:00:00 | |
| PETON7-10 | 2026-09-02 00:45:54 | 46.04177 | 13.93903 | 262° | 15km/h | 33582m | 6.1m/s | -39.4°C | 2.2% | 0hPa | 2.6V | 00:00:00 | 02:21:24 | 00:00:00 | |
| IV3AMH | 2026-09-02 00:45:53 | 46.04177 | 13.93903 | 263° | 15km/h | 33582m | 6.1m/s | -39.5°C | 0.5% | 0hPa | 2.6V | 00:00:00 | 00:00:00 | 00:00:00 | |
| OE5MMP-10 | 2026-09-02 00:45:52 | 46.04175 | 13.93908 | 360° | 16km/h | 33570m | 5.7m/s | -39.4°C | 2.1% | 0hPa | 2.6V | 00:00:00 | 02:21:22 | 00:00:00 | |
| DO3MHA-11 | 2026-09-02 00:45:51 | 46.04173 | 13.93908 | 10° | 16km/h | 33564m | 5.3m/s | -39.4°C | 2.2% | 0hPa | 2.6V | 00:00:00 | 02:21:21 | 00:00:00 | |
| OE5DXL-15 | 2026-09-02 00:45:49 | 46.04166 | 13.93908 | 341° | 13km/h | 33553m | 5.9m/s | -39.4°C | 2.2% | 0hPa | 2.6V | 00:00:00 | 00:00:00 | 00:00:00 | |
| PG1ADW-2 | 2026-09-02 00:45:47 | 46.04160 | 13.93917 | 296° | 13km/h | 33541m | 5.8m/s | -39.4°C | 2.1% | 0hPa | 2.5V | 00:00:00 | 00:00:00 | 00:00:00 | |
| 9A1FER-10 | 2026-09-02 00:45:44 | 46.04158 | 13.93940 | 259° | 9km/h | 33525m | 5.5m/s | -39.3°C | 2.1% | 0hPa | 2.5V | 00:00:00 | 02:21:14 | 00:00:00 | |
| NBG1-10 | 2026-09-02 00:45:43 | 46.04160 | 13.93946 | 247° | 13km/h | 33519m | 6.0m/s | -39.3°C | 2.1% | 0hPa | 2.5V | 00:00:00 | 02:21:13 | 00:00:00 | |
| OE5MMP-10 | 2026-09-02 00:45:42 | 46.04162 | 13.93951 | 230° | 9km/h | 33513m | 6.2m/s | -39.3°C | 2.1% | 0hPa | 2.5V | 00:00:00 | 02:21:12 | 08:30:00 | |
| DO3MHA-11 | 2026-09-02 00:45:41 | 46.04163 | 13.93953 | 206° | 7km/h | 33507m | 5.7m/s | -39.3°C | 2.1% | 0hPa | 2.5V | 00:00:00 | 02:21:11 | 00:00:00 | |
| 9A1FER-3 | 2026-09-02 00:45:40 | 46.04165 | 13.93953 | 192° | 11km/h | 33501m | 5.1m/s | -39.3°C | 2.1% | 0hPa | 2.5V | 00:00:00 | 02:21:10 | 00:00:00 | |
| DO3MHA-12 | 2026-09-02 00:45:39 | 46.04167 | 13.93954 | 198° | 7km/h | 33496m | 5.5m/s | -39.2°C | 2.1% | 0hPa | 2.5V | 00:00:00 | 02:21:09 | 00:00:00 | |
| OE8JPQ-2 | 2026-09-02 00:45:37 | 46.04169 | 13.93958 | 250° | 11km/h | 33484m | 6.2m/s | -39.3°C | 2.1% | 0hPa | 2.6V | 00:00:00 | 00:00:00 | 00:00:00 | |
| OE5MMP-10 | 2026-09-02 00:45:32 | 46.04169 | 13.93974 | 225° | 15km/h | 33456m | 6.4m/s | -39.5°C | 2.1% | 0hPa | 2.6V | 00:00:00 | 02:21:02 | 00:00:00 | |
| OE3JTB-15 | 2026-09-02 00:45:31 | 46.04172 | 13.93973 | 167° | 16km/h | 33444m | 5.1m/s | -39.5°C | 2.1% | 0hPa | 2.6V | 00:00:00 | 00:00:00 | 00:00:00 | |
| DB0UT-7 | 2026-09-02 00:45:30 | 46.04172 | 13.93973 | 167° | 16km/h | 33444m | 5.1m/s | -39.5°C | 2.1% | 0hPa | 2.6V | 00:00:00 | 00:00:00 | 00:00:00 | |
| DO3MHA-12 | 2026-09-02 00:45:29 | 46.04175 | 13.93973 | 183° | 16km/h | 33439m | 5.2m/s | -39.5°C | 2.1% | 0hPa | 2.5V | 00:00:00 | 02:20:59 | 00:00:00 | |
| PG1ADW-2 | 2026-09-02 00:45:27 | 46.04184 | 13.93976 | 206° | 18km/h | 33426m | 6.5m/s | -39.5°C | 2.1% | 0hPa | 2.5V | 00:00:00 | 00:00:00 | 08:30:00 | |
| OM5KV | 2026-09-02 00:45:26 | 46.04184 | 13.93976 | 206° | 22km/h | 33426m | 6.6m/s | 0°C | 0% | 0hPa | 2.6V | 00:00:00 | 00:00:00 | 00:00:00 | |
| OE5DRO-10 | 2026-09-02 00:45:25 | 46.04194 | 13.93984 | 209° | 15km/h | 33415m | 4.7m/s | -39.6°C | 2.1% | 0hPa | 2.6V | 00:00:00 | 00:00:00 | 08:30:00 | |
| PETON7-10 | 2026-09-02 00:45:24 | 46.04199 | 13.93988 | 203° | 15km/h | 33410m | 5.6m/s | -39.6°C | 2.2% | 0hPa | 2.5V | 00:00:00 | 00:00:00 | 00:00:00 | |
| SOBLACK | 2026-09-02 00:45:23 | 46.04199 | 13.93988 | 203° | 18km/h | 33410m | 5.7m/s | -39.7°C | 0.5% | 0hPa | 2.5V | 00:00:00 | 00:00:00 | 00:00:00 | |
| OE5MMP-10 | 2026-09-02 00:45:22 | 46.04205 | 13.93988 | 151° | 11km/h | 33398m | 5.8m/s | -39.6°C | 2.2% | 0hPa | 2.5V | 00:00:00 | 02:20:52 | 00:00:00 | |
| DO3MHA-11 | 2026-09-02 00:45:21 | 46.04206 | 13.93986 | 112° | 13km/h | 33392m | 5.0m/s | -39.7°C | 2.2% | 0hPa | 2.5V | 00:00:00 | 02:20:51 | 00:00:00 | |
| DO3MHA-12 | 2026-09-02 00:45:19 | 46.04207 | 13.93983 | 95° | 18km/h | 33381m | 6.0m/s | -39.7°C | 2.2% | 0hPa | 2.5V | 00:00:00 | 02:20:49 | 00:00:00 | |
| OE8JPQ-2 | 2026-09-02 00:45:17 | 46.04208 | 13.93984 | 223° | 18km/h | 33369m | 5.6m/s | -39.7°C | 2.2% | 0hPa | 2.5V | 00:00:00 | 02:20:47 | 00:00:00 | |
| 9A1FER-10 | 2026-09-02 00:45:14 | 46.04219 | 13.93990 | 183° | 20km/h | 33353m | 6.0m/s | -39.7°C | 2.2% | 0hPa | 2.5V | 00:00:00 | 02:20:44 | 00:00:00 | |
| OE5MMP-10 | 2026-09-02 00:45:12 | 46.04232 | 13.93986 | 159° | 18km/h | 33340m | 6.6m/s | -39.7°C | 2.2% | 0hPa | 2.6V | 00:00:00 | 02:20:42 | 00:00:00 | |
| DO3MHA-11 | 2026-09-02 00:45:11 | 46.04238 | 13.93981 | 153° | 18km/h | 33334m | 5.7m/s | -39.7°C | 2.2% | 0hPa | 2.6V | 00:00:00 | 02:20:41 | 08:30:00 | |
| 9A1FER-3 | 2026-09-02 00:45:10 | 46.04245 | 13.93976 | 153° | 18km/h | 33328m | 4.9m/s | -39.7°C | 2.2% | 0hPa | 2.5V | 00:00:00 | 02:20:40 | 00:00:00 | |
| DO3MHA-12 | 2026-09-02 00:45:09 | 46.04252 | 13.93971 | 156° | 16km/h | 33323m | 5.7m/s | -39.6°C | 2.2% | 0hPa | 2.5V | 00:00:00 | 02:20:39 | 08:30:00 | |
| PG1ADW-2 | 2026-09-02 00:45:07 | 46.04262 | 13.93967 | 170° | 15km/h | 33311m | 5.7m/s | -39.6°C | 2.2% | 0hPa | 2.6V | 00:00:00 | 00:00:00 | 00:00:00 | |
| DO3MHA-11 | 2026-09-02 00:45:01 | 46.04275 | 13.93953 | 140° | 20km/h | 33276m | 5.2m/s | -39.5°C | 2.2% | 0hPa | 2.6V | 00:00:00 | 02:20:31 | 00:00:00 | |
| DB0UT-7 | 2026-09-02 00:45:00 | 46.04279 | 13.93949 | 154° | 13km/h | 33271m | 6.1m/s | -39.5°C | 2.2% | 0hPa | 2.6V | 00:00:00 | 02:20:30 | 00:00:00 | |
| 9A1FER-10 | 2026-09-02 00:44:59 | 46.04284 | 13.93946 | 167° | 15km/h | 33264m | 6.9m/s | -39.5°C | 2.2% | 0hPa | 2.6V | 00:00:00 | 02:20:29 | 00:00:00 | |
| OE8JPQ-2 | 2026-09-02 00:44:57 | 46.04297 | 13.93945 | 180° | 13km/h | 33252m | 4.7m/s | -39.6°C | 2.2% | 0hPa | 2.6V | 00:00:00 | 00:00:00 | 00:00:00 | |
| 9A1FER-3 | 2026-09-02 00:44:55 | 46.04309 | 13.93943 | 164° | 13km/h | 33242m | 5.7m/s | -39.6°C | 2.2% | 0hPa | 2.5V | 00:00:00 | 02:20:25 | 00:00:00 | |
| PETON7-10 | 2026-09-02 00:44:54 | 46.04312 | 13.93940 | 142° | 11km/h | 33236m | 6.7m/s | -39.6°C | 2.2% | 0hPa | 2.5V | 00:00:00 | 00:00:00 | 00:00:00 | |
| IV3AMH | 2026-09-02 00:44:53 | 46.04312 | 13.93940 | 142° | 15km/h | 33236m | 6.8m/s | -39.6°C | 0.5% | 0hPa | 2.5V | 00:00:00 | 00:00:00 | 00:00:00 | |
| OE5MMP-10 | 2026-09-02 00:44:52 | 46.04315 | 13.93932 | 93° | 11km/h | 33223m | 5.7m/s | -39.5°C | 2.2% | 0hPa | 2.5V | 00:00:00 | 02:20:22 | 00:00:00 | |
| DO3MHA-11 | 2026-09-02 00:44:51 | 46.04315 | 13.93927 | 88° | 11km/h | 33217m | 5.8m/s | -39.5°C | 2.2% | 0hPa | 2.5V | 00:00:00 | 02:20:21 | 00:00:00 | |
| IN3HCDX1 | 2026-09-02 00:44:50 | 46.04315 | 13.93927 | 88° | 11km/h | 33217m | 5.9m/s | -39.6°C | 0.5% | 0hPa | 2.5V | 00:00:00 | 00:00:00 | 00:00:00 | |
| DO3MHA-12 | 2026-09-02 00:44:49 | 46.04316 | 13.93923 | 158° | 11km/h | 33205m | 6.0m/s | -39.4°C | 2.2% | 0hPa | 2.5V | 00:00:00 | 02:20:19 | 00:00:00 | |
| PG1ADW-2 | 2026-09-02 00:44:47 | 46.04320 | 13.93924 | 193° | 9km/h | 33194m | 5.0m/s | -39.4°C | 2.2% | 0hPa | 2.5V | 00:00:00 | 02:20:17 | 00:00:00 | |
| OE5WHR-10 | 2026-09-02 00:44:44 | 46.04330 | 13.93922 | 150° | 9km/h | 33177m | 6.3m/s | -39.3°C | 2.2% | 0hPa | 2.5V | 00:00:00 | 00:00:00 | 00:00:00 | |
| OE5MMP-10 | 2026-09-02 00:44:42 | 46.04335 | 13.93915 | 134° | 7km/h | 33166m | 4.8m/s | -39.3°C | 2.2% | 0hPa | 2.5V | 00:00:00 | 02:20:12 | 00:00:00 | |
| DO3MHA-11 | 2026-09-02 00:44:41 | 46.04337 | 13.93912 | 139° | 7km/h | 33161m | 5.0m/s | -39.2°C | 2.2% | 0hPa | 2.5V | 00:00:00 | 02:20:11 | 00:00:00 | |
| 9A1FER-3 | 2026-09-02 00:44:40 | 46.04338 | 13.93911 | 171° | 9km/h | 33155m | 6.2m/s | -39.2°C | 2.2% | 0hPa | 2.5V | 00:00:00 | 02:20:10 | 08:30:00 | |
| DO3MHA-12 | 2026-09-02 00:44:39 | 46.04340 | 13.93912 | 232° | 7km/h | 33148m | 6.9m/s | -39.1°C | 2.2% | 0hPa | 2.6V | 00:00:00 | 02:20:09 | 00:00:00 | |
| OE8JPQ-2 | 2026-09-02 00:44:37 | 46.04341 | 13.93918 | 262° | 7km/h | 33136m | 5.5m/s | -39.1°C | 2.1% | 0hPa | 2.5V | 00:00:00 | 00:00:00 | 00:00:00 | |
| OE5MMP-10 | 2026-09-02 00:44:32 | 46.04340 | 13.93916 | 92° | 9km/h | 33107m | 5.1m/s | -38.9°C | 2.2% | 0hPa | 2.5V | 00:00:00 | 02:20:02 | 00:00:00 | |
| DO3MHA-11 | 2026-09-02 00:44:31 | 46.04341 | 13.93912 | 106° | 7km/h | 33102m | 5.2m/s | -38.9°C | 2.1% | 0hPa | 2.5V | 00:00:00 | 02:20:01 | 00:00:00 | |
| DB0UT-7 | 2026-09-02 00:44:30 | 46.04342 | 13.93908 | 130° | 7km/h | 33096m | 6.6m/s | -38.9°C | 2.2% | 0hPa | 2.5V | 00:00:00 | 00:00:00 | 00:00:00 | |
| DO3MHA-12 | 2026-09-02 00:44:29 | 46.04344 | 13.93906 | 169° | 7km/h | 33089m | 6.3m/s | -38.9°C | 2.1% | 0hPa | 2.5V | 00:00:00 | 02:19:59 | 00:00:00 | |
| PG1ADW-2 | 2026-09-02 00:44:27 | 46.04348 | 13.93908 | 212° | 7km/h | 33078m | 5.1m/s | -38.8°C | 2.1% | 0hPa | 2.5V | 00:00:00 | 00:00:00 | 00:00:00 | |
| 9A1FER-3 | 2026-09-02 00:44:25 | 46.04352 | 13.93912 | 218° | 5km/h | 33067m | 6.1m/s | -38.8°C | 2.1% | 0hPa | 2.6V | 00:00:00 | 02:19:55 | 00:00:00 | |
| PETON7-10 | 2026-09-02 00:44:24 | 46.04352 | 13.93913 | 95° | 5km/h | 33060m | 6.2m/s | -38.8°C | 2.1% | 0hPa | 2.6V | 00:00:00 | 02:19:54 | 00:00:00 | |
| OE5MMP-10 | 2026-09-02 00:44:22 | 46.04351 | 13.93910 | 39° | 5km/h | 33049m | 5.1m/s | -38.7°C | 2.1% | 0hPa | 2.6V | 00:00:00 | 02:19:52 | 00:00:00 | |
| DO3MHA-11 | 2026-09-02 00:44:21 | 46.04349 | 13.93909 | 21° | 5km/h | 33044m | 5.0m/s | -38.7°C | 2.1% | 0hPa | 2.6V | 00:00:00 | 02:19:51 | 00:00:00 | |
| DO3MHA-12 | 2026-09-02 00:44:19 | 46.04347 | 13.93910 | 298° | 5km/h | 33032m | 6.7m/s | -38.6°C | 2.1% | 0hPa | 2.6V | 00:00:00 | 02:19:49 | 00:00:00 | |
| SOBLACK | 2026-09-02 00:44:18 | 46.04347 | 13.93910 | 298° | 7km/h | 33032m | 6.8m/s | -38.7°C | 0.5% | 0hPa | 2.6V | 00:00:00 | 00:00:00 | 00:00:00 | |
| OE8JPQ-2 | 2026-09-02 00:44:17 | 46.04346 | 13.93917 | 269° | 9km/h | 33019m | 5.5m/s | -38.6°C | 2.1% | 0hPa | 2.6V | 00:00:00 | 02:19:47 | 00:00:00 | |
| IV3AMH | 2026-09-02 00:44:16 | 46.04346 | 13.93917 | 270° | 9km/h | 33019m | 5.6m/s | -38.6°C | 0.5% | 0hPa | 2.6V | 00:00:00 | 00:00:00 | 00:00:00 | |
| OE5WHR-10 | 2026-09-02 00:44:14 | 46.04346 | 13.93924 | 272° | 15km/h | 33001m | 5.5m/s | -38.5°C | 2.1% | 0hPa | 2.6V | 00:00:00 | 02:19:44 | 00:00:00 | |
| OE5MMP-10 | 2026-09-02 00:44:12 | 46.04347 | 13.93924 | 236° | 9km/h | 32991m | 4.8m/s | -38.5°C | 2.1% | 0hPa | 2.6V | 00:00:00 | 02:19:42 | 08:30:00 | |
| DO3MHA-11 | 2026-09-02 00:44:11 | 46.04347 | 13.93925 | 240° | 9km/h | 32986m | 6.1m/s | -38.5°C | 2.1% | 0hPa | 2.5V | 00:00:00 | 02:19:41 | 00:00:00 | |
| 9A1FER-3 | 2026-09-02 00:44:10 | 46.04348 | 13.93928 | 245° | 13km/h | 32979m | 6.6m/s | -38.4°C | 2.1% | 0hPa | 2.5V | 00:00:00 | 02:19:40 | 00:00:00 | |
| PETON7-10 | 2026-09-02 00:44:09 | 46.04349 | 13.93931 | 254° | 15km/h | 32973m | 5.7m/s | -38.4°C | 2.1% | 0hPa | 2.5V | 00:00:00 | 00:00:00 | 00:00:00 | |
| DO3MHA-12 | 2026-09-02 00:44:08 | 46.04349 | 13.93936 | 266° | 11km/h | 32968m | 4.9m/s | -38.4°C | 2.1% | 0hPa | 2.5V | 00:00:00 | 02:19:38 | 00:00:00 | |
| PG1ADW-2 | 2026-09-02 00:44:07 | 46.04349 | 13.93940 | 283° | 16km/h | 32963m | 5.2m/s | -38.4°C | 2.1% | 0hPa | 2.5V | 00:00:00 | 00:00:00 | 00:00:00 | |
| NBG1-10 | 2026-09-02 00:44:04 | 46.04344 | 13.93947 | 337° | 16km/h | 32945m | 4.9m/s | -38.4°C | 2.1% | 0hPa | 2.5V | 00:00:00 | 02:19:34 | 00:00:00 | |
| OE5MMP-10 | 2026-09-02 00:44:02 | 46.04342 | 13.93951 | 276° | 16km/h | 32935m | 5.8m/s | -38.3°C | 2.1% | 0hPa | 2.5V | 00:00:00 | 02:19:32 | 00:00:00 | |
| DB0UT-7 | 2026-09-02 00:44:00 | 46.04344 | 13.93960 | 242° | 16km/h | 32922m | 6.3m/s | -38.2°C | 2.1% | 0hPa | 2.5V | 00:00:00 | 02:19:30 | 00:00:00 | |
| 9A1FER-10 | 2026-09-02 00:43:59 | 46.04346 | 13.93966 | 241° | 18km/h | 32917m | 5.3m/s | -38.2°C | 2.1% | 0hPa | 2.6V | 00:00:00 | 02:19:29 | 00:00:00 | |
| DO3MHA-12 | 2026-09-02 00:43:58 | 46.04349 | 13.93973 | 246° | 16km/h | 32911m | 4.7m/s | -38.2°C | 2.1% | 0hPa | 2.6V | 00:00:00 | 02:19:28 | 00:00:00 | |
| OE8JPQ-2 | 2026-09-02 00:43:57 | 46.04350 | 13.93980 | 254° | 16km/h | 32906m | 5.9m/s | -38.1°C | 2.1% | 0hPa | 2.6V | 00:00:00 | 00:00:00 | 00:00:00 | |
| 9A1FER-3 | 2026-09-02 00:43:55 | 46.04350 | 13.93992 | 293° | 16km/h | 32894m | 5.4m/s | -38.1°C | 2.1% | 0hPa | 2.5V | 00:00:00 | 02:19:25 | 00:00:00 | |
| PETON7-10 | 2026-09-02 00:43:54 | 46.04348 | 13.93997 | 301° | 16km/h | 32889m | 4.7m/s | -38.1°C | 2.0% | 0hPa | 2.5V | 00:00:00 | 00:00:00 | 00:00:00 | |
| OE5MMP-10 | 2026-09-02 00:43:52 | 46.04345 | 13.94008 | 286° | 15km/h | 32879m | 5.8m/s | -38.0°C | 2.0% | 0hPa | 2.5V | 00:00:00 | 02:19:22 | 00:00:00 | |
| DO3MHA-11 | 2026-09-02 00:43:51 | 46.04344 | 13.94015 | 270° | 15km/h | 32873m | 6.3m/s | -38.0°C | 2.0% | 0hPa | 2.5V | 00:00:00 | 02:19:21 | 00:00:00 | |
| OE5DXL-15 | 2026-09-02 00:43:49 | 46.04347 | 13.94030 | 242° | 15km/h | 32861m | 5.4m/s | -38.0°C | 2.0% | 0hPa | 2.5V | 00:00:00 | 00:00:00 | 00:00:00 | |
| PG1ADW-2 | 2026-09-02 00:43:47 | 46.04353 | 13.94041 | 225° | 15km/h | 32850m | 5.8m/s | -37.9°C | 2.0% | 0hPa | 2.5V | 00:00:00 | 00:00:00 | 00:00:00 | |
| 9A1FER-10 | 2026-09-02 00:43:44 | 46.04359 | 13.94047 | 205° | 16km/h | 32832m | 5.1m/s | -37.8°C | 2.0% | 0hPa | 2.5V | 00:00:00 | 02:19:14 | 00:00:00 | |
| IV3AMH | 2026-09-02 00:43:43 | 46.04359 | 13.94047 | 205° | 7km/h | 32832m | 5.2m/s | -37.9°C | 0.5% | 0hPa | 2.6V | 00:00:00 | 00:00:00 | 00:00:00 | |
| OE5MMP-10 | 2026-09-02 00:43:42 | 46.04363 | 13.94051 | 228° | 16km/h | 32821m | 6.6m/s | -37.8°C | 2.0% | 0hPa | 2.6V | 00:00:00 | 02:19:12 | 00:00:00 | |
| DO3MHA-11 | 2026-09-02 00:43:41 | 46.04365 | 13.94056 | 236° | 16km/h | 32815m | 6.3m/s | -37.8°C | 2.0% | 0hPa | 2.6V | 00:00:00 | 02:19:11 | 08:30:00 | |
| 9A1FER-3 | 2026-09-02 00:43:40 | 46.04368 | 13.94062 | 241° | 15km/h | 32809m | 5.3m/s | -37.8°C | 2.0% | 0hPa | 2.5V | 00:00:00 | 02:19:10 | 00:00:00 | |
| IN3HCDX | 2026-09-02 00:43:39 | 46.04370 | 13.94068 | 248° | 20km/h | 32804m | 5.0m/s | -37.8°C | 0.4% | 0hPa | 2.5V | 00:00:00 | 00:00:00 | 00:00:00 | |
| OE8JPQ-2 | 2026-09-02 00:43:37 | 46.04373 | 13.94081 | 261° | 15km/h | 32792m | 6.1m/s | -37.7°C | 2.0% | 0hPa | 2.5V | 00:00:00 | 00:00:00 | 00:00:00 | |
| SOBLACK | 2026-09-02 00:43:33 | 46.04375 | 13.94095 | 243° | 13km/h | 32776m | 5.2m/s | -37.7°C | 0.4% | 0hPa | 2.5V | 00:00:00 | 00:00:00 | 00:00:00 | |
| OE5MMP-10 | 2026-09-02 00:43:32 | 46.04380 | 13.94103 | 221° | 13km/h | 32764m | 6.3m/s | -37.6°C | 2.0% | 0hPa | 2.5V | 00:00:00 | 02:19:02 | 00:00:00 | |
| DO3MHA-11 | 2026-09-02 00:43:30 | 46.04389 | 13.94112 | 213° | 13km/h | 32753m | 4.7m/s | -37.6°C | 2.0% | 0hPa | 2.5V | 00:00:00 | 02:19:00 | 00:00:00 | |
| 9A1FER-10 | 2026-09-02 00:43:29 | 46.04393 | 13.94116 | 211° | 16km/h | 32749m | 4.5m/s | -37.6°C | 2.0% | 0hPa | 2.5V | 00:00:00 | 02:18:59 | 00:00:00 | |
| PG1ADW-2 | 2026-09-02 00:43:27 | 46.04399 | 13.94121 | 205° | 15km/h | 32737m | 6.8m/s | -37.6°C | 2.0% | 0hPa | 2.5V | 00:00:00 | 02:18:57 | 00:00:00 | |
| 9A1FER-3 | 2026-09-02 00:43:25 | 46.04400 | 13.94122 | 310° | 18km/h | 32725m | 4.8m/s | -37.6°C | 1.9% | 0hPa | 2.5V | 00:00:00 | 02:18:55 | 00:00:00 | |
| PETON7-10 | 2026-09-02 00:43:24 | 46.04399 | 13.94123 | 265° | 18km/h | 32720m | 4.9m/s | -37.6°C | 2.0% | 0hPa | 2.5V | 00:00:00 | 00:00:00 | 08:30:00 | |
| IV3AMH | 2026-09-02 00:43:23 | 46.04399 | 13.94123 | 265° | 5km/h | 32720m | 4.9m/s | -37.7°C | 0.5% | 0hPa | 2.5V | 00:00:00 | 00:00:00 | 00:00:00 | |
| OE5MMP-10 | 2026-09-02 00:43:22 | 46.04402 | 13.94130 | 231° | 22km/h | 32708m | 6.3m/s | -37.6°C | 1.9% | 0hPa | 2.5V | 00:00:00 | 02:18:52 | 00:00:00 | |
| DO3MHA-11 | 2026-09-02 00:43:20 | 46.04411 | 13.94140 | 216° | 22km/h | 32697m | 5.2m/s | -37.7°C | 1.9% | 0hPa | 2.5V | 00:00:00 | 02:18:50 | 00:00:00 | |
| OE5DXL-15 | 2026-09-02 00:43:19 | 46.04417 | 13.94146 | 210° | 18km/h | 32691m | 6.2m/s | -37.7°C | 1.9% | 0hPa | 2.5V | 00:00:00 | 00:00:00 | 00:00:00 | |
| OE5WHR-10 | 2026-09-02 00:43:18 | 46.04422 | 13.94150 | 201° | 20km/h | 32685m | 6.3m/s | -37.7°C | 1.9% | 0hPa | 2.5V | 00:00:00 | 00:00:00 | 00:00:00 | |
| OE8JPQ-2 | 2026-09-02 00:43:17 | 46.04428 | 13.94152 | 192° | 20km/h | 32679m | 5.5m/s | -37.7°C | 1.9% | 0hPa | 2.5V | 00:00:00 | 02:18:47 | 00:00:00 | |
| 9A1FER-10 | 2026-09-02 00:43:14 | 46.04444 | 13.94155 | 191° | 18km/h | 32662m | 6.5m/s | -37.8°C | 1.9% | 0hPa | 2.5V | 00:00:00 | 02:18:44 | 00:00:00 | |
| SOBLACK | 2026-09-02 00:43:13 | 46.04449 | 13.94157 | 198° | 20km/h | 32656m | 6.0m/s | -37.9°C | 0.4% | 0hPa | 2.5V | 00:00:00 | 00:00:00 | 00:00:00 | |
| OE5MMP-10 | 2026-09-02 00:43:12 | 46.04454 | 13.94159 | 204° | 16km/h | 32650m | 5.2m/s | -37.9°C | 1.9% | 0hPa | 2.5V | 00:00:00 | 02:18:42 | 00:00:00 | |
| 9A1FER-3 | 2026-09-02 00:43:10 | 46.04460 | 13.94164 | 207° | 18km/h | 32638m | 6.9m/s | -38.0°C | 1.9% | 0hPa | 2.6V | 00:00:00 | 02:18:40 | 00:00:00 | |
| PETON7-10 | 2026-09-02 00:43:09 | 46.04462 | 13.94165 | 208° | 18km/h | 32632m | 6.1m/s | -38.0°C | 2.0% | 0hPa | 2.6V | 00:00:00 | 00:00:00 | 00:00:00 | |
| PG1ADW-2 | 2026-09-02 00:43:07 | 46.04465 | 13.94168 | 204° | 18km/h | 32622m | 4.7m/s | -38.2°C | 2.0% | 0hPa | 2.6V | 00:00:00 | 00:00:00 | 00:00:00 | |
| IN3HCDX1 | 2026-09-02 00:43:03 | 46.04480 | 13.94176 | 199° | 29km/h | 32604m | 5.7m/s | -38.7°C | 0.4% | 0hPa | 2.6V | 00:00:00 | 00:00:00 | 00:00:00 | |
| OE5MMP-10 | 2026-09-02 00:43:02 | 46.04494 | 13.94180 | 181° | 18km/h | 32593m | 4.7m/s | -38.7°C | 2.1% | 0hPa | 2.6V | 00:00:00 | 02:18:32 | 00:00:00 | |
| DO3MHA-11 | 2026-09-02 00:43:00 | 46.04506 | 13.94175 | 143° | 15km/h | 32581m | 6.9m/s | -38.7°C | 2.0% | 0hPa | 2.6V | 00:00:00 | 02:18:30 | 00:00:00 | |
| 9A1FER-10 | 2026-09-02 00:42:59 | 46.04509 | 13.94169 | 122° | 20km/h | 32575m | 6.2m/s | -38.7°C | 2.1% | 0hPa | 2.6V | 00:00:00 | 02:18:29 | 00:00:00 | |
| IN3HCDX | 2026-09-02 00:42:58 | 46.04509 | 13.94169 | 123° | 22km/h | 32575m | 6.2m/s | -38.8°C | 0.4% | 0hPa | 2.5V | 00:00:00 | 00:00:00 | 00:00:00 | |
| OE8JPQ-2 | 2026-09-02 00:42:57 | 46.04514 | 13.94156 | 111° | 18km/h | 32563m | 5.5m/s | -38.8°C | 2.1% | 0hPa | 2.5V | 00:00:00 | 00:00:00 | 08:30:00 | |
| OE5WHR-10 | 2026-09-02 00:42:56 | 46.04515 | 13.94151 | 123° | 20km/h | 32558m | 6.4m/s | -38.9°C | 2.1% | 0hPa | 2.5V | 00:00:00 | 00:00:00 | 00:00:00 | |
| 9A1FER-3 | 2026-09-02 00:42:55 | 46.04517 | 13.94148 | 151° | 20km/h | 32551m | 6.0m/s | -38.9°C | 2.1% | 0hPa | 2.5V | 00:00:00 | 02:18:25 | 00:00:00 | |
| PETON7-10 | 2026-09-02 00:42:54 | 46.04519 | 13.94147 | 177° | 22km/h | 32545m | 5.4m/s | -38.9°C | 2.1% | 0hPa | 2.5V | 00:00:00 | 02:18:24 | 00:00:00 | |
| OE5MMP-10 | 2026-09-02 00:42:52 | 46.04525 | 13.94147 | 168° | 24km/h | 32535m | 5.9m/s | -39.0°C | 2.1% | 0hPa | 2.5V | 00:00:00 | 02:18:22 | 00:00:00 | |
| SOBLACK | 2026-09-02 00:42:51 | 46.04525 | 13.94147 | 168° | 9km/h | 32535m | 5.9m/s | -39.1°C | 0.5% | 0hPa | 2.5V | 00:00:00 | 00:00:00 | 00:00:00 | |
| DO3MHA-11 | 2026-09-02 00:42:50 | 46.04529 | 13.94141 | 124° | 26km/h | 32522m | 5.9m/s | -39.1°C | 2.1% | 0hPa | 2.5V | 00:00:00 | 02:18:20 | 00:00:00 | |
| OE5DXL-15 | 2026-09-02 00:42:49 | 46.04532 | 13.94134 | 119° | 18km/h | 32517m | 5.5m/s | -39.1°C | 2.1% | 0hPa | 2.5V | 00:00:00 | 00:00:00 | 08:30:00 | |
| PG1ADW-2 | 2026-09-02 00:42:47 | 46.04539 | 13.94117 | 124° | 20km/h | 32506m | 5.7m/s | -39.2°C | 2.1% | 0hPa | 2.6V | 00:00:00 | 00:00:00 | 00:00:00 | |
| 9A1FER-10 | 2026-09-02 00:42:44 | 46.04555 | 13.94092 | 139° | 16km/h | 32488m | 5.0m/s | -39.2°C | 2.1% | 0hPa | 2.6V | 00:00:00 | 02:18:14 | 00:00:00 | |
| OE5MMP-10 | 2026-09-02 00:42:42 | 46.04563 | 13.94080 | 123° | 13km/h | 32478m | 5.4m/s | -39.2°C | 2.1% | 0hPa | 2.6V | 00:00:00 | 02:18:12 | 08:30:00 | |
| DO3MHA-11 | 2026-09-02 00:42:40 | 46.04564 | 13.94070 | 65° | 15km/h | 32464m | 6.9m/s | -39.2°C | 2.1% | 0hPa | 2.5V | 00:00:00 | 02:18:10 | 00:00:00 | |
| DG1MFX-10 | 2026-09-02 00:42:39 | 46.04564 | 13.94070 | 65° | 15km/h | 32464m | 6.9m/s | -39.2°C | 0.5% | 0hPa | 2.6V | 00:00:00 | 00:00:00 | 00:00:00 | |
| PETON7-10 | 2026-09-02 00:42:38 | 46.04559 | 13.94062 | 33° | 15km/h | 32452m | 5.2m/s | -39.2°C | 2.1% | 0hPa | 2.6V | 00:00:00 | 00:00:00 | 00:00:00 | |
| OE8JPQ-2 | 2026-09-02 00:42:37 | 46.04556 | 13.94059 | 29° | 16km/h | 32447m | 5.7m/s | -39.3°C | 2.1% | 0hPa | 2.6V | 00:00:00 | 00:00:00 | 00:00:00 | |
| OE5DRO-10 | 2026-09-02 00:42:35 | 46.04555 | 13.94057 | 139° | 18km/h | 32435m | 5.4m/s | -39.3°C | 2.1% | 0hPa | 2.6V | 00:00:00 | 00:00:00 | 00:00:00 | |
| OE5MMP-10 | 2026-09-02 00:42:32 | 46.04562 | 13.94045 | 121° | 20km/h | 32419m | 6.8m/s | -39.4°C | 2.1% | 0hPa | 2.6V | 00:00:00 | 02:18:02 | 00:00:00 | |
| OE3JTB-15 | 2026-09-02 00:42:31 | 46.04565 | 13.94037 | 109° | 11km/h | 32412m | 6.7m/s | -39.4°C | 2.1% | 0hPa | 2.6V | 00:00:00 | 00:00:00 | 00:00:00 | |
| DO3MHA-11 | 2026-09-02 00:42:30 | 46.04566 | 13.94027 | 100° | 16km/h | 32406m | 5.6m/s | -39.4°C | 2.2% | 0hPa | 2.6V | 00:00:00 | 02:18:00 | 00:00:00 | |
| 9A1FER-10 | 2026-09-02 00:42:29 | 46.04567 | 13.94016 | 92° | 15km/h | 32401m | 4.9m/s | -39.4°C | 2.2% | 0hPa | 2.6V | 00:00:00 | 02:17:59 | 00:00:00 | |
| PG1ADW-2 | 2026-09-02 00:42:27 | 46.04566 | 13.93999 | 77° | 11km/h | 32390m | 5.9m/s | -39.3°C | 2.2% | 0hPa | 2.6V | 00:00:00 | 00:00:00 | 08:30:00 | |
| 9A1FER-3 | 2026-09-02 00:42:25 | 46.04563 | 13.93992 | 16° | 11km/h | 32378m | 5.6m/s | -39.3°C | 2.2% | 0hPa | 2.5V | 00:00:00 | 02:17:55 | 08:30:00 | |
| PETON7-10 | 2026-09-02 00:42:23 | 46.04559 | 13.93993 | 341° | 11km/h | 32367m | 5.5m/s | -39.3°C | 2.2% | 0hPa | 2.6V | 00:00:00 | 00:00:00 | 00:00:00 | |
| OE5MMP-10 | 2026-09-02 00:42:22 | 46.04556 | 13.93994 | 351° | 13km/h | 32362m | 6.1m/s | -39.3°C | 2.1% | 0hPa | 2.6V | 00:00:00 | 02:17:52 | 00:00:00 | |
| NBG1-10 | 2026-09-02 00:42:21 | 46.04552 | 13.93994 | 4° | 11km/h | 32355m | 6.2m/s | -39.3°C | 2.2% | 0hPa | 2.6V | 00:00:00 | 02:17:51 | 00:00:00 | |
| DO3MHA-11 | 2026-09-02 00:42:20 | 46.04547 | 13.93993 | 18° | 11km/h | 32349m | 5.9m/s | -39.2°C | 2.2% | 0hPa | 2.6V | 00:00:00 | 02:17:50 | 00:00:00 | |
| OE5DXL-15 | 2026-09-02 00:42:19 | 46.04543 | 13.93990 | 32° | 11km/h | 32343m | 5.6m/s | -39.2°C | 2.2% | 0hPa | 2.6V | 00:00:00 | 00:00:00 | 00:00:00 | |
| DG1MFX-10 | 2026-09-02 00:42:18 | 46.04544 | 13.93990 | 33° | 18km/h | 32343m | 5.6m/s | -39.2°C | 0.5% | 0hPa | 2.6V | 00:00:00 | 00:00:00 | 00:00:00 | |
| OE8JPQ-2 | 2026-09-02 00:42:17 | 46.04538 | 13.93983 | 68° | 9km/h | 32332m | 6.6m/s | -39.2°C | 2.2% | 0hPa | 2.6V | 00:00:00 | 02:17:47 | 00:00:00 | |
| OE5DRO-10 | 2026-09-02 00:42:16 | 46.04538 | 13.93980 | 107° | 9km/h | 32325m | 6.8m/s | -39.1°C | 2.2% | 0hPa | 2.6V | 00:00:00 | 00:00:00 | 00:00:00 | |
| 9A1FER-10 | 2026-09-02 00:42:14 | 46.04541 | 13.93976 | 153° | 9km/h | 32313m | 4.9m/s | -39.1°C | 2.1% | 0hPa | 2.5V | 00:00:00 | 02:17:44 | 08:30:00 | |
| OE5MMP-10 | 2026-09-02 00:42:12 | 46.04543 | 13.93973 | 83° | 11km/h | 32302m | 6.8m/s | -39.1°C | 2.1% | 0hPa | 2.5V | 00:00:00 | 02:17:42 | 00:00:00 | |
| SOBLACK | 2026-09-02 00:42:11 | 46.04543 | 13.93973 | 83° | 4km/h | 32302m | 6.9m/s | -39.1°C | 0.5% | 0hPa | 2.6V | 00:00:00 | 00:00:00 | 00:00:00 | |
| DO3MHA-11 | 2026-09-02 00:42:10 | 46.04540 | 13.93970 | 13° | 11km/h | 32289m | 5.7m/s | -39.1°C | 2.2% | 0hPa | 2.6V | 00:00:00 | 02:17:40 | 08:30:00 | |
| PETON7-10 | 2026-09-02 00:42:08 | 46.04534 | 13.93971 | 342° | 11km/h | 32278m | 5.9m/s | -39.1°C | 2.1% | 0hPa | 2.5V | 00:00:00 | 02:17:38 | 00:00:00 | |
| PG1ADW-2 | 2026-09-02 00:42:07 | 46.04531 | 13.93973 | 315° | 11km/h | 32272m | 6.6m/s | -39.1°C | 2.1% | 0hPa | 2.5V | 00:00:00 | 02:17:37 | 00:00:00 | |
| OE5MMP-10 | 2026-09-02 00:42:02 | 46.04536 | 13.93982 | 144° | 11km/h | 32242m | 7.1m/s | -39.0°C | 2.1% | 0hPa | 2.5V | 00:00:00 | 02:17:32 | 00:00:00 | |
| DB0UT-7 | 2026-09-02 00:42:00 | 46.04539 | 13.93975 | 102° | 11km/h | 32229m | 5.3m/s | -39.0°C | 2.1% | 0hPa | 2.5V | 00:00:00 | 02:17:30 | 00:00:00 | |
| OE8JPQ-2 | 2026-09-02 00:41:57 | 46.04540 | 13.93969 | 242° | 11km/h | 32212m | 6.7m/s | -39.0°C | 2.1% | 0hPa | 2.5V | 00:00:00 | 00:00:00 | 00:00:00 | |
| IV3AMH | 2026-09-02 00:41:56 | 46.04540 | 13.93969 | 242° | 4km/h | 32212m | 6.7m/s | -39.1°C | 0.5% | 0hPa | 2.6V | 00:00:00 | 00:00:00 | 00:00:00 | |
| 9A1FER-3 | 2026-09-02 00:41:55 | 46.04542 | 13.93976 | 255° | 13km/h | 32199m | 5.5m/s | -39.1°C | 2.1% | 0hPa | 2.6V | 00:00:00 | 02:17:25 | 00:00:00 | |
| DG1MFX-10 | 2026-09-02 00:41:54 | 46.04542 | 13.93976 | 256° | 16km/h | 32199m | 5.5m/s | -39.1°C | 0.5% | 0hPa | 2.6V | 00:00:00 | 00:00:00 | 00:00:00 | |
| OE5MMP-10 | 2026-09-02 00:41:52 | 46.04543 | 13.93992 | 292° | 11km/h | 32184m | 6.4m/s | -39.1°C | 2.1% | 0hPa | 2.6V | 00:00:00 | 02:17:22 | 00:00:00 | |
| DO3MHA-11 | 2026-09-02 00:41:50 | 46.04540 | 13.93991 | 40° | 13km/h | 32171m | 6.4m/s | -39.2°C | 2.1% | 0hPa | 2.6V | 00:00:00 | 02:17:20 | 00:00:00 | |
| OE5DXL-15 | 2026-09-02 00:41:49 | 46.04537 | 13.93987 | 51° | 13km/h | 32165m | 5.6m/s | -39.2°C | 2.1% | 0hPa | 2.6V | 00:00:00 | 00:00:00 | 00:00:00 | |
| SOBLACK | 2026-09-02 00:41:48 | 46.04537 | 13.93987 | 52° | 16km/h | 32165m | 5.6m/s | -39.2°C | 0.5% | 0hPa | 2.6V | 00:00:00 | 00:00:00 | 00:00:00 | |
| OE5WHR-10 | 2026-09-02 00:41:47 | 46.04533 | 13.93978 | 69° | 11km/h | 32154m | 5.7m/s | -39.2°C | 2.2% | 0hPa | 2.6V | 00:00:00 | 00:00:00 | 00:00:00 | |
| NBG1-10 | 2026-09-02 00:41:45 | 46.04533 | 13.93975 | 205° | 13km/h | 32141m | 6.4m/s | -39.2°C | 2.1% | 0hPa | 2.6V | 00:00:00 | 02:17:15 | 00:00:00 | |
| 9A1FER-10 | 2026-09-02 00:41:44 | 46.04535 | 13.93977 | 225° | 11km/h | 32135m | 5.7m/s | -39.3°C | 2.1% | 0hPa | 2.6V | 00:00:00 | 02:17:14 | 00:00:00 | |
| OE5MMP-10 | 2026-09-02 00:41:42 | 46.04540 | 13.93985 | 238° | 11km/h | 32124m | 6.3m/s | -39.3°C | 2.1% | 0hPa | 2.6V | 00:00:00 | 02:17:12 | 00:00:00 | |
| 9A1FER-3 | 2026-09-02 00:41:40 | 46.04542 | 13.93991 | 258° | 11km/h | 32111m | 5.5m/s | -39.3°C | 2.1% | 0hPa | 2.5V | 00:00:00 | 02:17:10 | 00:00:00 | |
| OE5DRO-10 | 2026-09-02 00:41:38 | 46.04542 | 13.93991 | 118° | 15km/h | 32101m | 5.3m/s | -39.4°C | 2.1% | 0hPa | 2.5V | 00:00:00 | 00:00:00 | 00:00:00 | |
| PETON7-10 | 2026-09-02 00:41:37 | 46.04542 | 13.93990 | 134° | 15km/h | 32095m | 6.3m/s | -39.5°C | 2.1% | 0hPa | 2.5V | 00:00:00 | 00:00:00 | 00:00:00 | |
| OE3JTB-15 | 2026-09-02 00:41:33 | 46.04553 | 13.93981 | 146° | 16km/h | 32070m | 5.6m/s | -39.5°C | 2.1% | 0hPa | 2.5V | 00:00:00 | 00:00:00 | 00:00:00 | |
| OE5MMP-10 | 2026-09-02 00:41:32 | 46.04556 | 13.93977 | 136° | 15km/h | 32064m | 6.6m/s | -39.5°C | 2.1% | 0hPa | 2.5V | 00:00:00 | 02:17:02 | 00:00:00 | |
| DG1MFX-10 | 2026-09-02 00:41:31 | 46.04556 | 13.93977 | 137° | 16km/h | 32064m | 6.6m/s | -39.6°C | 0.5% | 0hPa | 2.5V | 00:00:00 | 00:00:00 | 00:00:00 | |
| DB0UT-7 | 2026-09-02 00:41:30 | 46.04561 | 13.93969 | 124° | 18km/h | 32051m | 5.8m/s | -39.5°C | 2.1% | 0hPa | 2.5V | 00:00:00 | 00:00:00 | 00:00:00 | |
| 9A1FER-10 | 2026-09-02 00:41:29 | 46.04563 | 13.93966 | 139° | 16km/h | 32045m | 5.4m/s | -39.5°C | 2.1% | 0hPa | 2.5V | 00:00:00 | 02:16:59 | 00:00:00 | |
| PG1ADW-2 | 2026-09-02 00:41:27 | 46.04569 | 13.93963 | 174° | 15km/h | 32033m | 6.9m/s | -39.6°C | 2.1% | 0hPa | 2.5V | 00:00:00 | 00:00:00 | 00:00:00 | |
| OE5WHR-10 | 2026-09-02 00:41:26 | 46.04573 | 13.93962 | 179° | 18km/h | 32027m | 5.5m/s | -39.7°C | 2.1% | 0hPa | 2.6V | 00:00:00 | 02:16:56 | 00:00:00 | |
| 9A1FER-3 | 2026-09-02 00:41:25 | 46.04578 | 13.93962 | 174° | 15km/h | 32021m | 4.8m/s | -39.7°C | 2.1% | 0hPa | 2.6V | 00:00:00 | 02:16:55 | 00:00:00 | |
| DO3MHA-11 | 2026-09-02 00:41:24 | 46.04582 | 13.93960 | 163° | 16km/h | 32016m | 5.3m/s | -39.8°C | 2.2% | 0hPa | 2.6V | 00:00:00 | 02:16:54 | 00:00:00 | |
| PETON7-10 | 2026-09-02 00:41:22 | 46.04588 | 13.93953 | 117° | 15km/h | 32004m | 6.4m/s | -40.0°C | 2.2% | 0hPa | 2.6V | 00:00:00 | 02:16:52 | 00:00:00 | |
| OE5DXL-15 | 2026-09-02 00:41:19 | 46.04592 | 13.93932 | 108° | 16km/h | 31986m | 6.2m/s | -40.2°C | 2.2% | 0hPa | 2.6V | 00:00:00 | 00:00:00 | 00:00:00 | |
| OE8JPQ-2 | 2026-09-02 00:41:17 | 46.04597 | 13.93921 | 129° | 16km/h | 31974m | 5.3m/s | -40.3°C | 2.2% | 0hPa | 2.5V | 00:00:00 | 02:16:47 | 00:00:00 | |
| DO3MHA-11 | 2026-09-02 00:41:14 | 46.04601 | 13.93913 | 104° | 16km/h | 31957m | 7.0m/s | -40.4°C | 2.3% | 0hPa | 2.5V | 00:00:00 | 02:16:44 | 00:00:00 | |
| OE5MMP-10 | 2026-09-02 00:41:12 | 46.04601 | 13.93910 | 67° | 22km/h | 31945m | 5.2m/s | -40.4°C | 2.3% | 0hPa | 2.5V | 00:00:00 | 02:16:42 | 08:30:00 | |
| 9A1FER-3 | 2026-09-02 00:41:10 | 46.04601 | 13.93903 | 113° | 18km/h | 31933m | 6.6m/s | -40.4°C | 2.3% | 0hPa | 2.5V | 00:00:00 | 02:16:40 | 00:00:00 | |
| PETON7-10 | 2026-09-02 00:41:07 | 46.04609 | 13.93883 | 115° | 20km/h | 31916m | 4.8m/s | -40.5°C | 2.3% | 0hPa | 2.5V | 00:00:00 | 00:00:00 | 08:30:00 | |
| SOBLACK | 2026-09-02 00:41:06 | 46.04609 | 13.93883 | 115° | 29km/h | 31916m | 4.9m/s | -40.5°C | 0.5% | 0hPa | 2.5V | 00:00:00 | 00:00:00 | 00:00:00 | |
| OE5WHR-10 | 2026-09-02 00:41:05 | 46.04613 | 13.93861 | 94° | 18km/h | 31904m | 6.7m/s | -40.5°C | 2.3% | 0hPa | 2.5V | 00:00:00 | 00:00:00 | 08:30:00 | |
| DO3MHA-11 | 2026-09-02 00:41:04 | 46.04612 | 13.93849 | 82° | 15km/h | 31898m | 6.3m/s | -40.5°C | 2.3% | 0hPa | 2.6V | 00:00:00 | 02:16:34 | 00:00:00 | |
| OE5MMP-10 | 2026-09-02 00:41:02 | 46.04608 | 13.93829 | 66° | 11km/h | 31886m | 4.8m/s | -40.5°C | 2.3% | 0hPa | 2.5V | 00:00:00 | 02:16:32 | 00:00:00 | |
| DB0UT-7 | 2026-09-02 00:41:00 | 46.04604 | 13.93816 | 69° | 20km/h | 31874m | 6.7m/s | -40.5°C | 2.3% | 0hPa | 2.5V | 00:00:00 | 02:16:30 | 00:00:00 | |
| 9A1FER-10 | 2026-09-02 00:40:59 | 46.04603 | 13.93814 | 83° | 18km/h | 31868m | 5.9m/s | -40.5°C | 2.3% | 0hPa | 2.5V | 00:00:00 | 02:16:29 | 00:00:00 | |
| OE3JTB-15 | 2026-09-02 00:40:58 | 46.04603 | 13.93813 | 139° | 18km/h | 31862m | 5.2m/s | -40.4°C | 2.3% | 0hPa | 2.5V | 00:00:00 | 00:00:00 | 00:00:00 | |
| OE8JPQ-2 | 2026-09-02 00:40:57 | 46.04603 | 13.93813 | 353° | 18km/h | 31856m | 5.8m/s | -40.4°C | 2.3% | 0hPa | 2.5V | 00:00:00 | 00:00:00 | 00:00:00 | |
| IN3HCDX | 2026-09-02 00:40:56 | 46.04603 | 13.93813 | 0° | 0km/h | 31856m | 5.8m/s | -40.4°C | 0.5% | 0hPa | 2.5V | 00:00:00 | 00:00:00 | 00:00:00 | |
| 9A1FER-3 | 2026-09-02 00:40:55 | 46.04602 | 13.93810 | 57° | 22km/h | 31845m | 5.2m/s | -40.4°C | 2.3% | 0hPa | 2.5V | 00:00:00 | 02:16:25 | 00:00:00 | |
| DO3MHA-11 | 2026-09-02 00:40:54 | 46.04600 | 13.93806 | 69° | 27km/h | 31839m | 5.6m/s | -40.4°C | 2.3% | 0hPa | 2.5V | 00:00:00 | 02:16:24 | 00:00:00 | |
| OE5MMP-10 | 2026-09-02 00:40:52 | 46.04598 | 13.93792 | 84° | 27km/h | 31827m | 7.1m/s | -40.4°C | 2.3% | 0hPa | 2.5V | 00:00:00 | 02:16:22 | 00:00:00 | |
| OE5DXL-15 | 2026-09-02 00:40:49 | 46.04596 | 13.93760 | 77° | 22km/h | 31811m | 4.6m/s | -40.4°C | 2.3% | 0hPa | 2.5V | 00:00:00 | 00:00:00 | 00:00:00 | |
| DG1MFX-10 | 2026-09-02 00:40:48 | 46.04596 | 13.93761 | 77° | 31km/h | 31811m | 4.6m/s | -40.4°C | 0.5% | 0hPa | 2.5V | 00:00:00 | 00:00:00 | 00:00:00 | |
| PG1ADW-2 | 2026-09-02 00:40:47 | 46.04589 | 13.93741 | 53° | 22km/h | 31799m | 6.6m/s | -40.3°C | 2.3% | 0hPa | 2.5V | 00:00:00 | 02:16:17 | 00:00:00 | |
| 9A1FER-10 | 2026-09-02 00:40:44 | 46.04573 | 13.93723 | 31° | 22km/h | 31782m | 4.8m/s | -40.2°C | 2.2% | 0hPa | 2.5V | 00:00:00 | 02:16:14 | 00:00:00 | |
| DO3MHA-11 | 2026-09-02 00:40:43 | 46.04569 | 13.93719 | 37° | 20km/h | 31777m | 6.2m/s | -40.2°C | 2.2% | 0hPa | 2.6V | 00:00:00 | 02:16:13 | 00:00:00 | |
| OE5MMP-10 | 2026-09-02 00:40:42 | 46.04567 | 13.93716 | 63° | 18km/h | 31770m | 6.7m/s | -40.2°C | 2.2% | 0hPa | 2.6V | 00:00:00 | 02:16:12 | 00:00:00 | |
| OE5DRO-10 | 2026-09-02 00:40:41 | 46.04567 | 13.93713 | 102° | 22km/h | 31764m | 5.7m/s | -40.2°C | 2.2% | 0hPa | 2.5V | 00:00:00 | 00:00:00 | 00:00:00 | |
| OE5WHR-10 | 2026-09-02 00:40:40 | 46.04568 | 13.93709 | 109° | 22km/h | 31759m | 4.9m/s | -40.1°C | 2.2% | 0hPa | 2.5V | 00:00:00 | 00:00:00 | 00:00:00 | |
| PETON7-10 | 2026-09-02 00:40:37 | 46.04566 | 13.93693 | 58° | 24km/h | 31742m | 5.6m/s | -40.1°C | 2.2% | 0hPa | 2.5V | 00:00:00 | 02:16:07 | 00:00:00 | |
| IV3AMH | 2026-09-02 00:40:35 | 46.04562 | 13.93686 | 50° | 27km/h | 31736m | 5.2m/s | -40.2°C | 0.5% | 0hPa | 2.5V | 00:00:00 | 00:00:00 | 00:00:00 | |
| OE5MMP-10 | 2026-09-02 00:40:32 | 46.04542 | 13.93653 | 51° | 20km/h | 31713m | 5.8m/s | -40.1°C | 2.2% | 0hPa | 2.5V | 00:00:00 | 02:16:02 | 00:00:00 | |
| DB0UT-7 | 2026-09-02 00:40:30 | 46.04533 | 13.93640 | 44° | 24km/h | 31703m | 5.1m/s | -40.2°C | 2.2% | 0hPa | 2.5V | 00:00:00 | 00:00:00 | 00:00:00 | |
| 9A1FER-10 | 2026-09-02 00:40:29 | 46.04528 | 13.93634 | 36° | 24km/h | 31696m | 6.6m/s | -40.2°C | 2.2% | 0hPa | 2.5V | 00:00:00 | 02:15:59 | 00:00:00 | |
| PG1ADW-2 | 2026-09-02 00:40:27 | 46.04518 | 13.93627 | 17° | 24km/h | 31684m | 5.5m/s | -40.3°C | 2.2% | 0hPa | 2.5V | 00:00:00 | 00:00:00 | 00:00:00 | |
| DG1MFX-10 | 2026-09-02 00:40:26 | 46.04518 | 13.93627 | 18° | 22km/h | 31684m | 5.5m/s | -40.3°C | 0.5% | 0hPa | 2.6V | 00:00:00 | 00:00:00 | 00:00:00 | |
| 9A1FER-3 | 2026-09-02 00:40:25 | 46.04508 | 13.93624 | 8° | 24km/h | 31672m | 6.9m/s | -40.3°C | 2.2% | 0hPa | 2.6V | 00:00:00 | 02:15:55 | 00:00:00 | |
| SOBLACK | 2026-09-02 00:40:23 | 46.04505 | 13.93623 | 9° | 13km/h | 31666m | 6.1m/s | -40.4°C | 0.5% | 0hPa | 2.6V | 00:00:00 | 00:00:00 | 00:00:00 | |
| DO3MHA-11 | 2026-09-02 00:40:22 | 46.04498 | 13.93620 | 22° | 26km/h | 31655m | 5.3m/s | -40.4°C | 2.2% | 0hPa | 2.6V | 00:00:00 | 02:15:52 | 00:00:00 | |
| OE5DXL-15 | 2026-09-02 00:40:19 | 46.04481 | 13.93608 | 31° | 26km/h | 31637m | 5.3m/s | -40.4°C | 2.3% | 0hPa | 2.6V | 00:00:00 | 00:00:00 | 00:00:00 | |
| OE8JPQ-2 | 2026-09-02 00:40:17 | 46.04467 | 13.93595 | 36° | 24km/h | 31626m | 6.3m/s | -40.5°C | 2.2% | 0hPa | 2.6V | 00:00:00 | 02:15:47 | 00:00:00 | |
| 9A1FER-10 | 2026-09-02 00:40:14 | 46.04452 | 13.93582 | 18° | 26km/h | 31609m | 4.9m/s | -40.7°C | 2.3% | 0hPa | 2.6V | 00:00:00 | 02:15:44 | 00:00:00 | |
| DO3MHA-11 | 2026-09-02 00:40:12 | 46.04440 | 13.93580 | 358° | 26km/h | 31597m | 6.8m/s | -40.8°C | 2.3% | 0hPa | 2.6V | 00:00:00 | 02:15:42 | 00:00:00 | |
| 9A1FER-3 | 2026-09-02 00:40:10 | 46.04425 | 13.93583 | 349° | 24km/h | 31585m | 5.2m/s | -40.9°C | 2.3% | 0hPa | 2.6V | 00:00:00 | 02:15:40 | 08:30:00 | |
| PG1ADW-2 | 2026-09-02 00:40:07 | 46.04403 | 13.93591 | 349° | 22km/h | 31568m | 6.1m/s | -41.0°C | 2.3% | 0hPa | 2.5V | 00:00:00 | 00:00:00 | 00:00:00 | |
| PETON7-10 | 2026-09-02 00:40:06 | 46.04398 | 13.93592 | 1° | 22km/h | 31562m | 5.4m/s | -41.0°C | 2.3% | 0hPa | 2.5V | 00:00:00 | 00:00:00 | 00:00:00 | |
| DG1MFX-10 | 2026-09-02 00:40:05 | 46.04398 | 13.93591 | 2° | 18km/h | 31562m | 5.4m/s | -41.0°C | 0.6% | 0hPa | 2.5V | 00:00:00 | 00:00:00 | 00:00:00 | |
| NBG1-10 | 2026-09-02 00:40:04 | 46.04389 | 13.93587 | 31° | 27km/h | 31550m | 6.8m/s | -41.0°C | 2.3% | 0hPa | 2.5V | 00:00:00 | 02:15:34 | 00:00:00 | |
| OE5DRO-10 | 2026-09-02 00:40:03 | 46.04384 | 13.93582 | 37° | 24km/h | 31544m | 6.3m/s | -41.0°C | 2.3% | 0hPa | 2.5V | 00:00:00 | 00:00:00 | 00:00:00 | |
| DO3MHA-11 | 2026-09-02 00:40:02 | 46.04378 | 13.93576 | 40° | 22km/h | 31538m | 4.9m/s | -41.0°C | 2.3% | 0hPa | 2.5V | 00:00:00 | 02:15:32 | 00:00:00 | |
| DB0UT-7 | 2026-09-02 00:40:00 | 46.04368 | 13.93565 | 36° | 27km/h | 31528m | 6.0m/s | -41.0°C | 2.3% | 0hPa | 2.6V | 00:00:00 | 02:15:30 | 00:00:00 | |
| 9A1FER-10 | 2026-09-02 00:39:59 | 46.04364 | 13.93561 | 24° | 24km/h | 31522m | 6.4m/s | -41.0°C | 2.3% | 0hPa | 2.6V | 00:00:00 | 02:15:29 | 08:30:00 | |
| OE8JPQ-2 | 2026-09-02 00:39:57 | 46.04357 | 13.93562 | 336° | 27km/h | 31510m | 5.1m/s | -40.9°C | 2.3% | 0hPa | 2.5V | 00:00:00 | 00:00:00 | 08:30:00 | |
| OE5WHR-10 | 2026-09-02 00:39:56 | 46.04353 | 13.93564 | 334° | 31km/h | 31505m | 5.4m/s | -40.9°C | 2.3% | 0hPa | 2.5V | 00:00:00 | 00:00:00 | 00:00:00 | |
| 9A1FER-3 | 2026-09-02 00:39:55 | 46.04348 | 13.93568 | 339° | 27km/h | 31499m | 6.4m/s | -40.9°C | 2.3% | 0hPa | 2.5V | 00:00:00 | 02:15:25 | 00:00:00 | |
| IN3HCDX | 2026-09-02 00:39:54 | 46.04347 | 13.93568 | 339° | 26km/h | 31499m | 6.5m/s | -41.0°C | 0.5% | 0hPa | 2.5V | 00:00:00 | 00:00:00 | 00:00:00 | |
| OE5MMP-10 | 2026-09-02 00:39:52 | 46.04326 | 13.93573 | 2° | 26km/h | 31482m | 4.6m/s | -41.0°C | 2.3% | 0hPa | 2.5V | 00:00:00 | 02:15:22 | 00:00:00 | |
| PETON7-10 | 2026-09-02 00:39:51 | 46.04319 | 13.93572 | 9° | 29km/h | 31477m | 5.9m/s | -41.0°C | 2.2% | 0hPa | 2.5V | 00:00:00 | 02:15:21 | 00:00:00 | |
| OE5DXL-15 | 2026-09-02 00:39:49 | 46.04308 | 13.93566 | 39° | 27km/h | 31465m | 5.9m/s | -41.2°C | 2.3% | 0hPa | 2.5V | 00:00:00 | 00:00:00 | 00:00:00 | |
| PG1ADW-2 | 2026-09-02 00:39:47 | 46.04301 | 13.93555 | 52° | 29km/h | 31454m | 5.2m/s | -41.5°C | 2.3% | 0hPa | 2.6V | 00:00:00 | 00:00:00 | 00:00:00 | |
| 9A1FER-10 | 2026-09-02 00:39:44 | 46.04285 | 13.93539 | 14° | 31km/h | 31437m | 5.0m/s | -41.6°C | 2.3% | 0hPa | 2.6V | 00:00:00 | 02:15:14 | 00:00:00 | |
| OE5MMP-10 | 2026-09-02 00:39:42 | 46.04271 | 13.93540 | 341° | 35km/h | 31425m | 7.1m/s | -41.7°C | 2.3% | 0hPa | 2.6V | 00:00:00 | 02:15:12 | 08:30:00 | |
| 9A1FER-3 | 2026-09-02 00:39:40 | 46.04256 | 13.93553 | 323° | 29km/h | 31412m | 5.0m/s | -41.7°C | 2.4% | 0hPa | 2.6V | 00:00:00 | 02:15:10 | 00:00:00 | |
| IV3AMH | 2026-09-02 00:39:39 | 46.04256 | 13.93553 | 324° | 38km/h | 31412m | 5.0m/s | -41.8°C | 0.6% | 0hPa | 2.6V | 00:00:00 | 00:00:00 | 00:00:00 | |
| OE8JPQ-2 | 2026-09-02 00:39:37 | 46.04231 | 13.93573 | 347° | 27km/h | 31397m | 6.0m/s | -41.8°C | 2.4% | 0hPa | 2.6V | 00:00:00 | 00:00:00 | 00:00:00 | |
| PETON7-10 | 2026-09-02 00:39:36 | 46.04221 | 13.93574 | 1° | 26km/h | 31392m | 5.7m/s | -41.8°C | 2.4% | 0hPa | 2.6V | 00:00:00 | 00:00:00 | 00:00:00 | |
| OE5WHR-10 | 2026-09-02 00:39:35 | 46.04213 | 13.93573 | 13° | 20km/h | 31386m | 5.3m/s | -41.9°C | 2.4% | 0hPa | 2.6V | 00:00:00 | 00:00:00 | 00:00:00 | |
| IN3HCDX1 | 2026-09-02 00:39:34 | 46.04213 | 13.93573 | 14° | 35km/h | 31386m | 5.4m/s | -41.9°C | 0.6% | 0hPa | 2.6V | 00:00:00 | 00:00:00 | 00:00:00 | |
| OE5MMP-10 | 2026-09-02 00:39:32 | 46.04193 | 13.93560 | 31° | 22km/h | 31368m | 5.3m/s | -41.9°C | 2.4% | 0hPa | 2.6V | 00:00:00 | 02:15:02 | 00:00:00 | |
| NBG1-10 | 2026-09-02 00:39:31 | 46.04188 | 13.93557 | 23° | 20km/h | 31363m | 4.7m/s | -41.9°C | 2.4% | 0hPa | 2.6V | 00:00:00 | 02:15:01 | 08:30:00 | |
| DB0UT-7 | 2026-09-02 00:39:30 | 46.04184 | 13.93555 | 14° | 24km/h | 31358m | 5.2m/s | -41.9°C | 2.5% | 0hPa | 2.5V | 00:00:00 | 00:00:00 | 00:00:00 | |
| 9A1FER-10 | 2026-09-02 00:39:29 | 46.04179 | 13.93554 | 6° | 26km/h | 31353m | 5.7m/s | -41.9°C | 2.4% | 0hPa | 2.5V | 00:00:00 | 02:14:59 | 00:00:00 | |
| PG1ADW-2 | 2026-09-02 00:39:27 | 46.04166 | 13.93553 | 360° | 24km/h | 31341m | 5.3m/s | -41.9°C | 2.5% | 0hPa | 2.5V | 00:00:00 | 02:14:57 | 08:30:00 | |
| 9A1FER-3 | 2026-09-02 00:39:25 | 46.04154 | 13.93554 | 353° | 22km/h | 31331m | 5.3m/s | -41.9°C | 2.4% | 0hPa | 2.6V | 00:00:00 | 02:14:55 | 00:00:00 | |
| OE5MMP-10 | 2026-09-02 00:39:22 | 46.04138 | 13.93562 | 337° | 24km/h | 31315m | 5.3m/s | -41.9°C | 2.5% | 0hPa | 2.6V | 00:00:00 | 02:14:52 | 00:00:00 | |
| PETON7-10 | 2026-09-02 00:39:21 | 46.04132 | 13.93565 | 342° | 26km/h | 31310m | 4.5m/s | -41.9°C | 2.4% | 0hPa | 2.6V | 00:00:00 | 00:00:00 | 00:00:00 | |
| OE5DXL-15 | 2026-09-02 00:39:19 | 46.04117 | 13.93567 | 7° | 20km/h | 31301m | 4.7m/s | -41.9°C | 2.4% | 0hPa | 2.6V | 00:00:00 | 00:00:00 | 00:00:00 | |
| OE8JPQ-2 | 2026-09-02 00:39:17 | 46.04103 | 13.93559 | 38° | 20km/h | 31290m | 5.8m/s | -41.8°C | 2.4% | 0hPa | 2.6V | 00:00:00 | 02:14:47 | 00:00:00 | |
| DO3MHA-11 | 2026-09-02 00:39:14 | 46.04092 | 13.93538 | 68° | 22km/h | 31275m | 4.4m/s | -41.7°C | 2.4% | 0hPa | 2.6V | 00:00:00 | 02:14:44 | 00:00:00 | |
| IN3HCDX1 | 2026-09-02 00:39:13 | 46.04092 | 13.93538 | 68° | 13km/h | 31275m | 4.4m/s | -41.8°C | 0.5% | 0hPa | 2.6V | 00:00:00 | 00:00:00 | 00:00:00 | |
| 9A1FER-3 | 2026-09-02 00:39:10 | 46.04084 | 13.93551 | 311° | 20km/h | 31253m | 5.5m/s | -41.6°C | 2.3% | 0hPa | 2.6V | 00:00:00 | 02:14:40 | 00:00:00 | |
| PG1ADW-2 | 2026-09-02 00:39:07 | 46.04063 | 13.93570 | 350° | 16km/h | 31239m | 4.9m/s | -41.7°C | 2.3% | 0hPa | 2.6V | 00:00:00 | 00:00:00 | 00:00:00 | |
| PETON7-10 | 2026-09-02 00:39:06 | 46.04056 | 13.93570 | 8° | 18km/h | 31234m | 5.6m/s | -41.8°C | 2.4% | 0hPa | 2.6V | 00:00:00 | 02:14:36 | 00:00:00 | |
| DO3MHA-11 | 2026-09-02 00:39:04 | 46.04047 | 13.93563 | 57° | 15km/h | 31221m | 6.6m/s | -41.9°C | 2.4% | 0hPa | 2.6V | 00:00:00 | 02:14:34 | 00:00:00 | |
| OE3JTB-15 | 2026-09-02 00:39:03 | 46.04045 | 13.93553 | 95° | 13km/h | 31209m | 5.1m/s | -41.9°C | 2.4% | 0hPa | 2.5V | 00:00:00 | 00:00:00 | 00:00:00 | |
| OE5MMP-10 | 2026-09-02 00:39:02 | 46.04045 | 13.93553 | 95° | 16km/h | 31209m | 5.1m/s | -41.9°C | 2.4% | 0hPa | 2.5V | 00:00:00 | 02:14:32 | 00:00:00 | |
| DB0UT-7 | 2026-09-02 00:39:00 | 46.04045 | 13.93547 | 54° | 15km/h | 31200m | 4.8m/s | -42.0°C | 2.4% | 0hPa | 2.5V | 00:00:00 | 02:14:30 | 00:00:00 | |
| 9A1FER-10 | 2026-09-02 00:38:59 | 46.04044 | 13.93546 | 360° | 15km/h | 31194m | 5.6m/s | -42.1°C | 2.4% | 0hPa | 2.5V | 00:00:00 | 02:14:29 | 00:00:00 | |
| OE8JPQ-2 | 2026-09-02 00:38:57 | 46.04037 | 13.93549 | 336° | 15km/h | 31183m | 5.5m/s | -42.3°C | 2.4% | 0hPa | 2.5V | 00:00:00 | 00:00:00 | 00:00:00 | |
| 9A1FER-3 | 2026-09-02 00:38:55 | 46.04027 | 13.93559 | 319° | 13km/h | 31172m | 5.2m/s | -42.4°C | 2.4% | 0hPa | 2.5V | 00:00:00 | 02:14:25 | 00:00:00 | |
| DO3MHA-11 | 2026-09-02 00:38:54 | 46.04023 | 13.93566 | 310° | 11km/h | 31166m | 6.3m/s | -42.4°C | 2.4% | 0hPa | 2.5V | 00:00:00 | 02:14:24 | 00:00:00 | |
| OE5MMP-10 | 2026-09-02 00:38:52 | 46.04017 | 13.93579 | 293° | 9km/h | 31155m | 4.9m/s | -42.4°C | 2.4% | 0hPa | 2.5V | 00:00:00 | 02:14:22 | 00:00:00 | |
| PETON7-10 | 2026-09-02 00:38:51 | 46.04016 | 13.93584 | 296° | 11km/h | 31150m | 5.0m/s | -42.5°C | 2.5% | 0hPa | 2.5V | 00:00:00 | 00:00:00 | 08:30:00 | |
| OE5DXL-15 | 2026-09-02 00:38:49 | 46.04013 | 13.93585 | 49° | 13km/h | 31137m | 6.7m/s | -42.5°C | 2.4% | 0hPa | 2.6V | 00:00:00 | 00:00:00 | 00:00:00 | |
| DG1MFX-10 | 2026-09-02 00:38:48 | 46.04013 | 13.93585 | 49° | 7km/h | 31137m | 6.8m/s | -42.5°C | 0.6% | 0hPa | 2.6V | 00:00:00 | 00:00:00 | 00:00:00 | |
| PG1ADW-2 | 2026-09-02 00:38:47 | 46.04011 | 13.93577 | 75° | 13km/h | 31126m | 4.7m/s | -42.5°C | 2.4% | 0hPa | 2.6V | 00:00:00 | 00:00:00 | 00:00:00 | |
| DO3MHA-11 | 2026-09-02 00:38:44 | 46.04010 | 13.93570 | 272° | 16km/h | 31110m | 4.6m/s | -42.5°C | 2.4% | 0hPa | 2.6V | 00:00:00 | 02:14:14 | 00:00:00 | |
| OE5MMP-10 | 2026-09-02 00:38:42 | 46.04009 | 13.93576 | 297° | 16km/h | 31099m | 6.5m/s | -42.6°C | 2.4% | 0hPa | 2.6V | 00:00:00 | 02:14:12 | 00:00:00 | |
| 9A1FER-3 | 2026-09-02 00:38:40 | 46.04004 | 13.93587 | 306° | 13km/h | 31087m | 5.3m/s | -42.7°C | 2.4% | 0hPa | 2.5V | 00:00:00 | 02:14:10 | 00:00:00 | |
| SOBLACK | 2026-09-02 00:38:39 | 46.04004 | 13.93587 | 306° | 20km/h | 31087m | 5.3m/s | -42.7°C | 0.6% | 0hPa | 2.5V | 00:00:00 | 00:00:00 | 00:00:00 | |
| OE8JPQ-2 | 2026-09-02 00:38:37 | 46.04000 | 13.93602 | 252° | 13km/h | 31073m | 5.4m/s | -42.9°C | 2.5% | 0hPa | 2.5V | 00:00:00 | 00:00:00 | 00:00:00 | |
| PETON7-10 | 2026-09-02 00:38:36 | 46.04002 | 13.93606 | 218° | 13km/h | 31066m | 6.8m/s | -43.0°C | 2.4% | 0hPa | 2.5V | 00:00:00 | 00:00:00 | 00:00:00 | |
| IV3AMH | 2026-09-02 00:38:35 | 46.04002 | 13.93606 | 218° | 15km/h | 31066m | 6.8m/s | -43.0°C | 0.6% | 0hPa | 2.5V | 00:00:00 | 00:00:00 | 00:00:00 | |
| OE3JTB-15 | 2026-09-02 00:38:33 | 46.04021 | 13.93607 | 155° | 15km/h | 31044m | 6.1m/s | -43.2°C | 2.5% | 0hPa | 2.5V | 00:00:00 | 02:14:02 | 00:00:00 | |
| OE5MMP-10 | 2026-09-02 00:38:32 | 46.04021 | 13.93607 | 155° | 9km/h | 31044m | 6.1m/s | -43.2°C | 2.5% | 0hPa | 2.5V | 00:00:00 | 02:14:02 | 00:00:00 | |
| DB0UT-7 | 2026-09-02 00:38:30 | 46.04024 | 13.93601 | 84° | 11km/h | 31031m | 5.1m/s | -43.3°C | 2.6% | 0hPa | 2.5V | 00:00:00 | 00:00:00 | 00:00:00 | |
| 9A1FER-10 | 2026-09-02 00:38:29 | 46.04023 | 13.93598 | 55° | 11km/h | 31027m | 4.6m/s | -43.4°C | 2.6% | 0hPa | 2.5V | 00:00:00 | 02:13:59 | 00:00:00 | |
| OE5DRO-10 | 2026-09-02 00:38:28 | 46.04022 | 13.93597 | 28° | 9km/h | 31022m | 5.5m/s | -43.4°C | 2.6% | 0hPa | 2.5V | 00:00:00 | 00:00:00 | 00:00:00 | |
| PG1ADW-2 | 2026-09-02 00:38:27 | 46.04022 | 13.93597 | 272° | 9km/h | 31016m | 6.4m/s | -43.5°C | 2.6% | 0hPa | 2.5V | 00:00:00 | 00:00:00 | 00:00:00 | |
| 9A1FER-3 | 2026-09-02 00:38:25 | 46.04024 | 13.93602 | 221° | 11km/h | 31004m | 5.0m/s | -43.7°C | 2.6% | 0hPa | 2.6V | 00:00:00 | 02:13:55 | 00:00:00 | |
| NBG1-10 | 2026-09-02 00:38:23 | 46.04032 | 13.93606 | 164° | 13km/h | 30988m | 5.9m/s | -43.8°C | 2.6% | 0hPa | 2.6V | 00:00:00 | 02:13:52 | 00:00:00 | |
| OE5MMP-10 | 2026-09-02 00:38:22 | 46.04032 | 13.93606 | 164° | 11km/h | 30988m | 5.9m/s | -43.8°C | 2.6% | 0hPa | 2.6V | 00:00:00 | 02:13:52 | 00:00:00 | |
| DO3MHA-11 | 2026-09-02 00:38:21 | 46.04035 | 13.93604 | 129° | 11km/h | 30982m | 6.1m/s | -43.7°C | 2.6% | 0hPa | 2.6V | 00:00:00 | 02:13:51 | 00:00:00 | |
| OE5DXL-15 | 2026-09-02 00:38:19 | 46.04037 | 13.93595 | 107° | 13km/h | 30970m | 5.3m/s | -43.7°C | 2.6% | 0hPa | 2.6V | 00:00:00 | 00:00:00 | 08:30:00 | |
| SOBLACK | 2026-09-02 00:38:18 | 46.04037 | 13.93595 | 107° | 15km/h | 30970m | 5.4m/s | -43.8°C | 0.6% | 0hPa | 2.5V | 00:00:00 | 00:00:00 | 00:00:00 | |
| OE8JPQ-2 | 2026-09-02 00:38:17 | 46.04040 | 13.93586 | 128° | 11km/h | 30959m | 6.5m/s | -43.7°C | 2.6% | 0hPa | 2.5V | 00:00:00 | 02:13:47 | 00:00:00 | |
| OE5WHR-10 | 2026-09-02 00:38:15 | 46.04045 | 13.93581 | 167° | 13km/h | 30947m | 5.3m/s | -43.7°C | 2.6% | 0hPa | 2.5V | 00:00:00 | 00:00:00 | 00:00:00 | |
| 9A1FER-10 | 2026-09-02 00:38:14 | 46.04047 | 13.93581 | 180° | 13km/h | 30942m | 5.4m/s | -43.7°C | 2.6% | 0hPa | 2.5V | 00:00:00 | 02:13:44 | 00:00:00 | |
| OE5MMP-10 | 2026-09-02 00:38:12 | 46.04049 | 13.93581 | 218° | 13km/h | 30929m | 6.1m/s | -43.8°C | 2.6% | 0hPa | 2.5V | 00:00:00 | 02:13:42 | 08:30:00 | |
| DO3MHA-11 | 2026-09-02 00:38:11 | 46.04050 | 13.93581 | 206° | 15km/h | 30924m | 5.2m/s | -43.8°C | 2.6% | 0hPa | 2.5V | 00:00:00 | 02:13:41 | 00:00:00 | |
| 9A1FER-3 | 2026-09-02 00:38:10 | 46.04050 | 13.93581 | 166° | 13km/h | 30919m | 4.9m/s | -43.8°C | 2.6% | 0hPa | 2.5V | 00:00:00 | 02:13:40 | 00:00:00 | |
| OE5DRO-10 | 2026-09-02 00:38:09 | 46.04051 | 13.93580 | 165° | 15km/h | 30913m | 6.5m/s | -43.9°C | 2.6% | 0hPa | 2.5V | 00:00:00 | 00:00:00 | 00:00:00 | |
| PG1ADW-2 | 2026-09-02 00:38:07 | 46.04058 | 13.93577 | 151° | 16km/h | 30900m | 5.4m/s | -44.0°C | 2.7% | 0hPa | 2.5V | 00:00:00 | 02:13:37 | 00:00:00 | |
| PETON7-10 | 2026-09-02 00:38:06 | 46.04062 | 13.93573 | 139° | 13km/h | 30895m | 4.9m/s | -44.0°C | 2.7% | 0hPa | 2.5V | 00:00:00 | 00:00:00 | 00:00:00 | |
| DG1MFX-10 | 2026-09-02 00:38:03 | 46.04068 | 13.93560 | 109° | 22km/h | 30883m | 6.8m/s | -44.1°C | 0.7% | 0hPa | 2.5V | 00:00:00 | 00:00:00 | 00:00:00 | |
| OE5MMP-10 | 2026-09-02 00:38:02 | 46.04069 | 13.93545 | 88° | 9km/h | 30871m | 5.1m/s | -44.1°C | 2.7% | 0hPa | 2.5V | 00:00:00 | 02:13:32 | 00:00:00 | |
| DO3MHA-11 | 2026-09-02 00:38:01 | 46.04069 | 13.93538 | 87° | 9km/h | 30866m | 6.0m/s | -44.1°C | 2.7% | 0hPa | 2.5V | 00:00:00 | 02:13:31 | 00:00:00 | |
| DB0UT-7 | 2026-09-02 00:38:00 | 46.04069 | 13.93534 | 95° | 16km/h | 30859m | 6.8m/s | -44.1°C | 2.7% | 0hPa | 2.5V | 00:00:00 | 02:13:30 | 08:30:00 | |
| 9A1FER-10 | 2026-09-02 00:37:59 | 46.04069 | 13.93531 | 121° | 16km/h | 30853m | 6.0m/s | -44.1°C | 2.7% | 0hPa | 2.6V | 00:00:00 | 02:13:29 | 00:00:00 | |
| SOBLACK | 2026-09-02 00:37:58 | 46.04069 | 13.93531 | 122° | 5km/h | 30853m | 6.0m/s | -44.1°C | 0.6% | 0hPa | 2.6V | 00:00:00 | 00:00:00 | 00:00:00 | |
| OE8JPQ-2 | 2026-09-02 00:37:57 | 46.04071 | 13.93529 | 151° | 16km/h | 30841m | 5.4m/s | -44.1°C | 2.7% | 0hPa | 2.6V | 00:00:00 | 00:00:00 | 00:00:00 | |
| 9A1FER-3 | 2026-09-02 00:37:55 | 46.04071 | 13.93527 | 72° | 18km/h | 30829m | 6.0m/s | -44.1°C | 2.7% | 0hPa | 2.5V | 00:00:00 | 02:13:25 | 08:30:00 | |
| OE5MMP-10 | 2026-09-02 00:37:52 | 46.04071 | 13.93512 | 112° | 22km/h | 30812m | 6.6m/s | -44.1°C | 2.7% | 0hPa | 2.5V | 00:00:00 | 02:13:22 | 00:00:00 | |
| DO3MHA-11 | 2026-09-02 00:37:51 | 46.04074 | 13.93506 | 121° | 20km/h | 30806m | 6.5m/s | -44.1°C | 2.7% | 0hPa | 2.5V | 00:00:00 | 02:13:21 | 00:00:00 | |
| OE5DRO-10 | 2026-09-02 00:37:50 | 46.04077 | 13.93498 | 123° | 20km/h | 30799m | 5.4m/s | -44.1°C | 2.7% | 0hPa | 2.5V | 00:00:00 | 00:00:00 | 00:00:00 | |
| OE5DXL-15 | 2026-09-02 00:37:49 | 46.04080 | 13.93490 | 118° | 22km/h | 30794m | 5.1m/s | -44.1°C | 2.7% | 0hPa | 2.5V | 00:00:00 | 00:00:00 | 00:00:00 | |
| PG1ADW-2 | 2026-09-02 00:37:47 | 46.04084 | 13.93472 | 93° | 18km/h | 30782m | 6.4m/s | -44.0°C | 2.7% | 0hPa | 2.5V | 00:00:00 | 00:00:00 | 00:00:00 | |
| 9A1FER-10 | 2026-09-02 00:37:44 | 46.04080 | 13.93451 | 63° | 18km/h | 30765m | 5.6m/s | -44.0°C | 2.7% | 0hPa | 2.5V | 00:00:00 | 02:13:14 | 08:30:00 | |
| OE5MMP-10 | 2026-09-02 00:37:42 | 46.04077 | 13.93442 | 82° | 20km/h | 30753m | 6.0m/s | -43.9°C | 2.7% | 0hPa | 2.6V | 00:00:00 | 02:13:12 | 00:00:00 | |
| DO3MHA-11 | 2026-09-02 00:37:41 | 46.04077 | 13.93438 | 95° | 16km/h | 30747m | 5.0m/s | -43.9°C | 2.7% | 0hPa | 2.6V | 00:00:00 | 02:13:11 | 00:00:00 | |
| 9A1FER-3 | 2026-09-02 00:37:40 | 46.04077 | 13.93433 | 92° | 20km/h | 30742m | 4.6m/s | -43.9°C | 2.7% | 0hPa | 2.6V | 00:00:00 | 02:13:10 | 00:00:00 | |
| OE8JPQ-2 | 2026-09-02 00:37:37 | 46.04073 | 13.93414 | 60° | 26km/h | 30724m | 6.6m/s | -43.9°C | 2.7% | 0hPa | 2.6V | 00:00:00 | 00:00:00 | 00:00:00 | |
| PETON7-10 | 2026-09-02 00:37:36 | 46.04069 | 13.93406 | 53° | 24km/h | 30718m | 6.0m/s | -43.9°C | 2.7% | 0hPa | 2.6V | 00:00:00 | 02:13:06 | 00:00:00 | |
| OE5MMP-10 | 2026-09-02 00:37:32 | 46.04056 | 13.93380 | 69° | 22km/h | 30694m | 5.5m/s | -43.9°C | 2.6% | 0hPa | 2.6V | 00:00:00 | 02:13:02 | 00:00:00 | |
| OE5DRO-10 | 2026-09-02 00:37:31 | 46.04055 | 13.93376 | 77° | 24km/h | 30689m | 4.8m/s | -43.9°C | 2.7% | 0hPa | 2.6V | 00:00:00 | 00:00:00 | 08:30:00 | |
| OE5WHR-10 | 2026-09-02 00:37:30 | 46.04055 | 13.93371 | 75° | 26km/h | 30684m | 5.7m/s | -43.9°C | 2.6% | 0hPa | 2.6V | 00:00:00 | 00:00:00 | 08:30:00 | |
| 9A1FER-10 | 2026-09-02 00:37:29 | 46.04053 | 13.93365 | 71° | 27km/h | 30677m | 6.8m/s | -43.9°C | 2.6% | 0hPa | 2.5V | 00:00:00 | 02:12:59 | 00:00:00 | |
| IN3HCDX | 2026-09-02 00:37:28 | 46.04053 | 13.93365 | 71° | 18km/h | 30677m | 6.9m/s | -43.9°C | 0.6% | 0hPa | 2.5V | 00:00:00 | 00:00:00 | 00:00:00 | |
| DO3MHA-11 | 2026-09-02 00:37:27 | 46.04049 | 13.93349 | 66° | 29km/h | 30664m | 6.0m/s | -43.9°C | 2.6% | 0hPa | 2.5V | 00:00:00 | 02:12:57 | 00:00:00 | |
| 9A1FER-3 | 2026-09-02 00:37:25 | 46.04043 | 13.93330 | 70° | 26km/h | 30652m | 6.8m/s | -43.8°C | 2.6% | 0hPa | 2.5V | 00:00:00 | 02:12:55 | 00:00:00 | |
| OE5MMP-10 | 2026-09-02 00:37:22 | 46.04035 | 13.93303 | 57° | 26km/h | 30635m | 5.3m/s | -43.8°C | 2.6% | 0hPa | 2.5V | 00:00:00 | 02:12:52 | 00:00:00 | |
| PETON7-10 | 2026-09-02 00:37:21 | 46.04030 | 13.93295 | 49° | 27km/h | 30629m | 6.7m/s | -43.8°C | 2.6% | 0hPa | 2.5V | 00:00:00 | 00:00:00 | 00:00:00 | |
| OE5DXL-15 | 2026-09-02 00:37:19 | 46.04018 | 13.93280 | 37° | 29km/h | 30616m | 5.3m/s | -43.8°C | 2.6% | 0hPa | 2.5V | 00:00:00 | 02:12:49 | 00:00:00 | |
| DO3MHA-11 | 2026-09-02 00:37:17 | 46.04005 | 13.93266 | 37° | 26km/h | 30606m | 5.8m/s | -43.8°C | 2.6% | 0hPa | 2.5V | 00:00:00 | 02:12:47 | 00:00:00 | |
| NBG1-10 | 2026-09-02 00:37:16 | 46.04000 | 13.93261 | 43° | 18km/h | 30599m | 6.8m/s | -43.8°C | 2.6% | 0hPa | 2.5V | 00:00:00 | 02:12:46 | 00:00:00 | |
| SOBLACK | 2026-09-02 00:37:15 | 46.04000 | 13.93261 | 43° | 22km/h | 30599m | 6.8m/s | -43.8°C | 0.6% | 0hPa | 2.5V | 00:00:00 | 00:00:00 | 00:00:00 | |
| 9A1FER-10 | 2026-09-02 00:37:14 | 46.03995 | 13.93251 | 60° | 31km/h | 30588m | 4.5m/s | -43.8°C | 2.6% | 0hPa | 2.5V | 00:00:00 | 02:12:44 | 00:00:00 | |
| OE5MMP-10 | 2026-09-02 00:37:12 | 46.03989 | 13.93239 | 50° | 31km/h | 30578m | 6.2m/s | -43.9°C | 2.6% | 0hPa | 2.5V | 00:00:00 | 02:12:42 | 00:00:00 | |
| DG1MFX-10 | 2026-09-02 00:37:11 | 46.03989 | 13.93239 | 50° | 24km/h | 30578m | 6.2m/s | -44.0°C | 0.7% | 0hPa | 2.5V | 00:00:00 | 00:00:00 | 00:00:00 | |
| 9A1FER-3 | 2026-09-02 00:37:10 | 46.03978 | 13.93226 | 32° | 31km/h | 30564m | 6.4m/s | -44.1°C | 2.7% | 0hPa | 2.5V | 00:00:00 | 02:12:40 | 00:00:00 | |
| OE5WHR-10 | 2026-09-02 00:37:09 | 46.03970 | 13.93219 | 27° | 31km/h | 30559m | 5.6m/s | -44.2°C | 2.7% | 0hPa | 2.5V | 00:00:00 | 00:00:00 | 00:00:00 | |
| IN3HCDX | 2026-09-02 00:37:08 | 46.03962 | 13.93214 | 24° | 37km/h | 30553m | 5.9m/s | -44.3°C | 0.6% | 0hPa | 2.5V | 00:00:00 | 00:00:00 | 00:00:00 | |
| DO3MHA-11 | 2026-09-02 00:37:07 | 46.03953 | 13.93209 | 22° | 33km/h | 30546m | 6.6m/s | -44.3°C | 2.7% | 0hPa | 2.5V | 00:00:00 | 02:12:37 | 00:00:00 | |
| OE5MMP-10 | 2026-09-02 00:37:02 | 46.03917 | 13.93185 | 35° | 27km/h | 30517m | 6.1m/s | -44.3°C | 2.8% | 0hPa | 2.5V | 00:00:00 | 02:12:32 | 00:00:00 | |
| DB0UT-7 | 2026-09-02 00:37:00 | 46.03904 | 13.93169 | 46° | 26km/h | 30506m | 5.0m/s | -44.2°C | 2.7% | 0hPa | 2.5V | 00:00:00 | 02:12:30 | 00:00:00 | |
| 9A1FER-10 | 2026-09-02 00:36:59 | 46.03898 | 13.93160 | 54° | 27km/h | 30501m | 5.1m/s | -44.2°C | 2.7% | 0hPa | 2.5V | 00:00:00 | 02:12:29 | 00:00:00 | |
| DO3MHA-11 | 2026-09-02 00:36:57 | 46.03892 | 13.93142 | 68° | 20km/h | 30488m | 6.6m/s | -44.2°C | 2.7% | 0hPa | 2.6V | 00:00:00 | 02:12:27 | 08:30:00 | |
| 9A1FER-3 | 2026-09-02 00:36:55 | 46.03887 | 13.93129 | 53° | 26km/h | 30477m | 4.8m/s | -44.1°C | 2.7% | 0hPa | 2.5V | 00:00:00 | 02:12:25 | 00:00:00 | |
| OE5DRO-10 | 2026-09-02 00:36:53 | 46.03877 | 13.93119 | 24° | 27km/h | 30465m | 6.6m/s | -44.0°C | 2.7% | 0hPa | 2.5V | 00:00:00 | 00:00:00 | 00:00:00 | |
| OE5MMP-10 | 2026-09-02 00:36:52 | 46.03870 | 13.93116 | 15° | 27km/h | 30459m | 5.7m/s | -44.0°C | 2.7% | 0hPa | 2.5V | 00:00:00 | 02:12:22 | 00:00:00 | |
| PETON7-10 | 2026-09-02 00:36:51 | 46.03861 | 13.93113 | 9° | 24km/h | 30453m | 5.1m/s | -44.0°C | 2.7% | 0hPa | 2.5V | 00:00:00 | 02:12:21 | 00:00:00 | |
| OE5DXL-15 | 2026-09-02 00:36:49 | 46.03843 | 13.93111 | 3° | 22km/h | 30441m | 6.4m/s | -44.0°C | 2.7% | 0hPa | 2.5V | 00:00:00 | 00:00:00 | 00:00:00 | |
| PG1ADW-2 | 2026-09-02 00:36:47 | 46.03830 | 13.93108 | 16° | 20km/h | 30429m | 5.6m/s | -44.0°C | 2.7% | 0hPa | 2.5V | 00:00:00 | 02:12:17 | 00:00:00 | |
| DG1MFX-10 | 2026-09-02 00:36:46 | 46.03830 | 13.93108 | 16° | 22km/h | 30429m | 5.7m/s | -44.1°C | 0.7% | 0hPa | 2.5V | 00:00:00 | 00:00:00 | 00:00:00 | |
| 9A1FER-10 | 2026-09-02 00:36:44 | 46.03817 | 13.93094 | 60° | 22km/h | 30410m | 5.5m/s | -44.0°C | 2.7% | 0hPa | 2.5V | 00:00:00 | 02:12:14 | 00:00:00 | |
| IV3AMH | 2026-09-02 00:36:43 | 46.03817 | 13.93094 | 60° | 22km/h | 30410m | 5.5m/s | -44.1°C | 0.7% | 0hPa | 2.5V | 00:00:00 | 00:00:00 | 00:00:00 | |
| OE5MMP-10 | 2026-09-02 00:36:42 | 46.03813 | 13.93081 | 73° | 26km/h | 30399m | 6.4m/s | -44.0°C | 2.7% | 0hPa | 2.5V | 00:00:00 | 02:12:12 | 08:30:00 | |
| OE8JPQ-2 | 2026-09-02 00:36:37 | 46.03792 | 13.93064 | 12° | 24km/h | 30369m | 6.7m/s | -43.9°C | 2.7% | 0hPa | 2.6V | 00:00:00 | 00:00:00 | 00:00:00 | |
| PETON7-10 | 2026-09-02 00:36:36 | 46.03784 | 13.93062 | 11° | 20km/h | 30363m | 5.0m/s | -43.9°C | 2.7% | 0hPa | 2.6V | 00:00:00 | 00:00:00 | 08:30:00 | |
| OE5DRO-10 | 2026-09-02 00:36:34 | 46.03767 | 13.93057 | 10° | 20km/h | 30354m | 5.5m/s | -43.9°C | 2.7% | 0hPa | 2.5V | 00:00:00 | 00:00:00 | 00:00:00 | |
| SOBLACK | 2026-09-02 00:36:33 | 46.03760 | 13.93056 | 11° | 22km/h | 30348m | 6.8m/s | -44.0°C | 0.6% | 0hPa | 2.6V | 00:00:00 | 00:00:00 | 00:00:00 | |
| OE5MMP-10 | 2026-09-02 00:36:32 | 46.03756 | 13.93055 | 14° | 15km/h | 30341m | 6.6m/s | -43.9°C | 2.7% | 0hPa | 2.6V | 00:00:00 | 02:12:02 | 00:00:00 | |
| DB0UT-7 | 2026-09-02 00:36:30 | 46.03753 | 13.93052 | 74° | 20km/h | 30329m | 6.0m/s | -44.0°C | 2.7% | 0hPa | 2.6V | 00:00:00 | 00:00:00 | 00:00:00 | |
| 9A1FER-10 | 2026-09-02 00:36:29 | 46.03753 | 13.93049 | 73° | 22km/h | 30322m | 6.4m/s | -44.0°C | 2.7% | 0hPa | 2.5V | 00:00:00 | 02:11:59 | 00:00:00 | |
| PG1ADW-2 | 2026-09-02 00:36:27 | 46.03749 | 13.93042 | 38° | 22km/h | 30311m | 5.0m/s | -44.0°C | 2.7% | 0hPa | 2.5V | 00:00:00 | 00:00:00 | 08:30:00 | |
| OE5WHR-10 | 2026-09-02 00:36:26 | 46.03746 | 13.93039 | 20° | 24km/h | 30306m | 5.7m/s | -44.0°C | 2.7% | 0hPa | 2.5V | 00:00:00 | 00:00:00 | 00:00:00 | |
| DG1MFX-10 | 2026-09-02 00:36:25 | 46.03745 | 13.93039 | 20° | 16km/h | 30306m | 5.7m/s | -44.0°C | 0.7% | 0hPa | 2.6V | 00:00:00 | 00:00:00 | 00:00:00 | |
| DO3MHA-11 | 2026-09-02 00:36:24 | 46.03736 | 13.93038 | 353° | 20km/h | 30293m | 6.2m/s | -43.9°C | 2.8% | 0hPa | 2.6V | 00:00:00 | 02:11:54 | 00:00:00 | |
| OE5MMP-10 | 2026-09-02 00:36:22 | 46.03722 | 13.93042 | 351° | 22km/h | 30281m | 6.0m/s | -43.9°C | 2.7% | 0hPa | 2.6V | 00:00:00 | 02:11:52 | 00:00:00 | |
| PETON7-10 | 2026-09-02 00:36:21 | 46.03713 | 13.93044 | 355° | 22km/h | 30275m | 6.8m/s | -43.8°C | 2.7% | 0hPa | 2.6V | 00:00:00 | 00:00:00 | 00:00:00 | |
| OE5DXL-15 | 2026-09-02 00:36:19 | 46.03696 | 13.93044 | 1° | 18km/h | 30264m | 4.3m/s | -43.8°C | 2.7% | 0hPa | 2.6V | 00:00:00 | 00:00:00 | 00:00:00 | |
| NBG1-10 | 2026-09-02 00:36:17 | 46.03685 | 13.93045 | 351° | 15km/h | 30253m | 7.3m/s | -43.7°C | 2.7% | 0hPa | 2.6V | 00:00:00 | 02:11:47 | 00:00:00 | |
| OE5DRO-10 | 2026-09-02 00:36:15 | 46.03680 | 13.93049 | 291° | 18km/h | 30239m | 5.7m/s | -43.7°C | 2.7% | 0hPa | 2.6V | 00:00:00 | 00:00:00 | 00:00:00 | |
| 9A1FER-10 | 2026-09-02 00:36:14 | 46.03680 | 13.93052 | 295° | 18km/h | 30234m | 4.6m/s | -43.6°C | 2.7% | 0hPa | 2.6V | 00:00:00 | 02:11:44 | 00:00:00 | |
| DO3MHA-11 | 2026-09-02 00:36:13 | 46.03678 | 13.93055 | 316° | 18km/h | 30228m | 6.0m/s | -43.6°C | 2.7% | 0hPa | 2.5V | 00:00:00 | 02:11:43 | 00:00:00 | |
| OE5MMP-10 | 2026-09-02 00:36:12 | 46.03675 | 13.93058 | 339° | 24km/h | 30222m | 6.1m/s | -43.5°C | 2.7% | 0hPa | 2.5V | 00:00:00 | 02:11:42 | 00:00:00 | |
| 9A1FER-3 | 2026-09-02 00:36:10 | 46.03663 | 13.93062 | 348° | 18km/h | 30211m | 5.4m/s | -43.4°C | 2.7% | 0hPa | 2.6V | 00:00:00 | 02:11:40 | 00:00:00 | |
| IN3HCDX1 | 2026-09-02 00:36:08 | 46.03656 | 13.93065 | 347° | 33km/h | 30205m | 6.0m/s | -43.5°C | 0.6% | 0hPa | 2.6V | 00:00:00 | 00:00:00 | 00:00:00 | |
| OE5WHR-10 | 2026-09-02 00:36:05 | 46.03629 | 13.93076 | 348° | 18km/h | 30182m | 5.6m/s | -43.3°C | 2.7% | 0hPa | 2.6V | 00:00:00 | 00:00:00 | 00:00:00 | |
| PETON7-10 | 2026-09-02 00:36:04 | 46.03625 | 13.93077 | 360° | 15km/h | 30176m | 6.7m/s | -43.2°C | 2.7% | 0hPa | 2.6V | 00:00:00 | 02:11:34 | 00:00:00 | |
| DG1MFX-10 | 2026-09-02 00:36:03 | 46.03625 | 13.93077 | 360° | 16km/h | 30176m | 6.7m/s | -43.3°C | 0.7% | 0hPa | 2.6V | 00:00:00 | 00:00:00 | 00:00:00 | |
| DO3MHA-11 | 2026-09-02 00:36:02 | 46.03618 | 13.93076 | 15° | 15km/h | 30164m | 5.1m/s | -43.2°C | 2.7% | 0hPa | 2.6V | 00:00:00 | 02:11:32 | 00:00:00 | |
| DB0UT-7 | 2026-09-02 00:36:00 | 46.03615 | 13.93077 | 300° | 15km/h | 30153m | 6.8m/s | -43.1°C | 2.6% | 0hPa | 2.6V | 00:00:00 | 02:11:30 | 00:00:00 | |
| 9A1FER-10 | 2026-09-02 00:35:59 | 46.03614 | 13.93080 | 281° | 15km/h | 30146m | 6.7m/s | -43.0°C | 2.6% | 0hPa | 2.6V | 00:00:00 | 02:11:29 | 00:00:00 | |
| OE8JPQ-2 | 2026-09-02 00:35:57 | 46.03612 | 13.93092 | 290° | 16km/h | 30135m | 5.2m/s | -42.9°C | 2.6% | 0hPa | 2.6V | 00:00:00 | 00:00:00 | 00:00:00 | |
| OE5DRO-10 | 2026-09-02 00:35:56 | 46.03610 | 13.93097 | 305° | 16km/h | 30129m | 6.5m/s | -42.8°C | 2.6% | 0hPa | 2.5V | 00:00:00 | 00:00:00 | 00:00:00 | |
| 9A1FER-3 | 2026-09-02 00:35:55 | 46.03608 | 13.93101 | 327° | 16km/h | 30122m | 6.5m/s | -42.8°C | 2.6% | 0hPa | 2.5V | 00:00:00 | 02:11:25 | 00:00:00 | |
| IV3AMH | 2026-09-02 00:35:54 | 46.03608 | 13.93101 | 327° | 16km/h | 30122m | 6.5m/s | -42.8°C | 0.7% | 0hPa | 2.5V | 00:00:00 | 00:00:00 | 00:00:00 | |
| OE5MMP-10 | 2026-09-02 00:35:52 | 46.03596 | 13.93105 | 351° | 15km/h | 30104m | 6.3m/s | -42.7°C | 2.6% | 0hPa | 2.5V | 00:00:00 | 02:11:22 | 00:00:00 | |
| SOBLACK | 2026-09-02 00:35:51 | 46.03596 | 13.93106 | 351° | 16km/h | 30104m | 6.3m/s | -42.7°C | 0.6% | 0hPa | 2.5V | 00:00:00 | 00:00:00 | 00:00:00 | |
| OE5DXL-15 | 2026-09-02 00:35:49 | 46.03586 | 13.93111 | 327° | 16km/h | 30087m | 5.0m/s | -42.5°C | 2.6% | 0hPa | 2.5V | 00:00:00 | 00:00:00 | 00:00:00 | |
| IN3HCDX1 | 2026-09-02 00:35:48 | 46.03586 | 13.93111 | 327° | 13km/h | 30087m | 5.0m/s | -42.6°C | 0.6% | 0hPa | 2.5V | 00:00:00 | 00:00:00 | 00:00:00 | |
| PG1ADW-2 | 2026-09-02 00:35:47 | 46.03580 | 13.93116 | 334° | 16km/h | 30075m | 6.5m/s | -42.4°C | 2.6% | 0hPa | 2.5V | 00:00:00 | 00:00:00 | 00:00:00 | |
| 9A1FER-10 | 2026-09-02 00:35:44 | 46.03573 | 13.93126 | 302° | 16km/h | 30058m | 6.3m/s | -42.3°C | 2.5% | 0hPa | 2.5V | 00:00:00 | 02:11:14 | 00:00:00 | |
| OE5MMP-10 | 2026-09-02 00:35:42 | 46.03569 | 13.93140 | 286° | 15km/h | 30045m | 5.6m/s | -42.2°C | 2.5% | 0hPa | 2.5V | 00:00:00 | 02:11:12 | 00:00:00 | |
| 9A1FER-3 | 2026-09-02 00:35:40 | 46.03566 | 13.93154 | 293° | 16km/h | 30034m | 6.4m/s | -42.1°C | 2.5% | 0hPa | 2.6V | 00:00:00 | 02:11:10 | 08:30:00 | |
| OE8JPQ-2 | 2026-09-02 00:35:37 | 46.03559 | 13.93164 | 342° | 18km/h | 30015m | 5.2m/s | -42.1°C | 2.5% | 0hPa | 2.6V | 00:00:00 | 00:00:00 | 00:00:00 | |
| OE3JTB-15 | 2026-09-02 00:35:36 | 46.03556 | 13.93165 | 336° | 18km/h | 30010m | 6.5m/s | -42.1°C | 2.4% | 0hPa | 2.6V | 00:00:00 | 00:00:00 | 00:00:00 | |
| PETON7-10 | 2026-09-02 00:35:34 | 46.03551 | 13.93171 | 308° | 20km/h | 29997m | 5.8m/s | -42.2°C | 2.5% | 0hPa | 2.6V | 00:00:00 | 00:00:00 | 00:00:00 | |
| OE5MMP-10 | 2026-09-02 00:35:32 | 46.03547 | 13.93180 | 307° | 22km/h | 29985m | 6.2m/s | -42.3°C | 2.5% | 0hPa | 2.6V | 00:00:00 | 02:11:02 | 00:00:00 | |
| DB0UT-7 | 2026-09-02 00:35:30 | 46.03542 | 13.93188 | 310° | 16km/h | 29973m | 5.5m/s | -42.3°C | 2.5% | 0hPa | 2.6V | 00:00:00 | 00:00:00 | 00:00:00 | |
| 9A1FER-10 | 2026-09-02 00:35:29 | 46.03540 | 13.93194 | 300° | 22km/h | 29967m | 4.9m/s | -42.4°C | 2.5% | 0hPa | 2.6V | 00:00:00 | 02:10:59 | 08:30:00 | |
| PG1ADW-2 | 2026-09-02 00:35:27 | 46.03536 | 13.93209 | 284° | 18km/h | 29955m | 7.0m/s | -42.4°C | 2.5% | 0hPa | 2.5V | 00:00:00 | 02:10:57 | 00:00:00 | |
| IN3HCDX | 2026-09-02 00:35:25 | 46.03533 | 13.93228 | 284° | 27km/h | 29944m | 4.9m/s | -42.5°C | 0.6% | 0hPa | 2.5V | 00:00:00 | 00:00:00 | 00:00:00 | |
| OE5MMP-10 | 2026-09-02 00:35:22 | 46.03526 | 13.93248 | 323° | 18km/h | 29925m | 6.0m/s | -42.5°C | 2.5% | 0hPa | 2.5V | 00:00:00 | 02:10:52 | 00:00:00 | |
| DO3MHA-11 | 2026-09-02 00:35:20 | 46.03519 | 13.93254 | 332° | 18km/h | 29914m | 4.8m/s | -42.6°C | 2.5% | 0hPa | 2.5V | 00:00:00 | 02:10:50 | 00:00:00 | |
| OE5DXL-15 | 2026-09-02 00:35:19 | 46.03515 | 13.93258 | 320° | 13km/h | 29909m | 5.8m/s | -42.6°C | 2.5% | 0hPa | 2.5V | 00:00:00 | 00:00:00 | 00:00:00 | |
| OE5DRO-10 | 2026-09-02 00:35:18 | 46.03512 | 13.93263 | 306° | 13km/h | 29903m | 6.1m/s | -42.6°C | 2.5% | 0hPa | 2.6V | 00:00:00 | 00:00:00 | 00:00:00 | |
| OE8JPQ-2 | 2026-09-02 00:35:17 | 46.03509 | 13.93270 | 297° | 13km/h | 29897m | 5.6m/s | -42.7°C | 2.5% | 0hPa | 2.6V | 00:00:00 | 02:10:47 | 00:00:00 | |
| IV3AMH | 2026-09-02 00:35:15 | 46.03506 | 13.93278 | 291° | 24km/h | 29891m | 5.4m/s | -42.8°C | 0.6% | 0hPa | 2.6V | 00:00:00 | 00:00:00 | 00:00:00 | |
| 9A1FER-10 | 2026-09-02 00:35:14 | 46.03503 | 13.93292 | 281° | 11km/h | 29879m | 6.1m/s | -42.8°C | 2.5% | 0hPa | 2.6V | 00:00:00 | 02:10:44 | 00:00:00 | |
| OE5MMP-10 | 2026-09-02 00:35:12 | 46.03504 | 13.93302 | 249° | 9km/h | 29868m | 5.1m/s | -42.8°C | 2.5% | 0hPa | 2.6V | 00:00:00 | 02:10:42 | 08:30:00 | |
| 9A1FER-3 | 2026-09-02 00:35:10 | 46.03507 | 13.93311 | 235° | 11km/h | 29855m | 6.4m/s | -42.8°C | 2.5% | 0hPa | 2.5V | 00:00:00 | 02:10:40 | 00:00:00 | |
| SOBLACK | 2026-09-02 00:35:09 | 46.03507 | 13.93311 | 236° | 15km/h | 29855m | 6.5m/s | -42.9°C | 0.6% | 0hPa | 2.5V | 00:00:00 | 00:00:00 | 00:00:00 | |
| PG1ADW-2 | 2026-09-02 00:35:07 | 46.03512 | 13.93320 | 216° | 9km/h | 29839m | 6.0m/s | -42.9°C | 2.6% | 0hPa | 2.5V | 00:00:00 | 00:00:00 | 00:00:00 | |
| IN3HCDX1 | 2026-09-02 00:35:06 | 46.03512 | 13.93320 | 216° | 4km/h | 29839m | 6.0m/s | -42.9°C | 0.6% | 0hPa | 2.5V | 00:00:00 | 00:00:00 | 00:00:00 | |
| IN3HCDX | 2026-09-02 00:35:04 | 46.03512 | 13.93318 | 60° | 9km/h | 29826m | 5.9m/s | -43.0°C | 0.6% | 0hPa | 2.5V | 00:00:00 | 00:00:00 | 00:00:00 | |
| PETON7-10 | 2026-09-02 00:35:03 | 46.03510 | 13.93314 | 31° | 11km/h | 29816m | 4.9m/s | -42.9°C | 2.5% | 0hPa | 2.5V | 00:00:00 | 00:00:00 | 00:00:00 | |
| OE5MMP-10 | 2026-09-02 00:35:02 | 46.03509 | 13.93314 | 298° | 11km/h | 29810m | 6.6m/s | -42.9°C | 2.5% | 0hPa | 2.5V | 00:00:00 | 02:10:32 | 00:00:00 | |
| DG1MFX-10 | 2026-09-02 00:35:01 | 46.03509 | 13.93314 | 299° | 4km/h | 29810m | 6.7m/s | -43.0°C | 0.6% | 0hPa | 2.5V | 00:00:00 | 00:00:00 | 00:00:00 | |
| DB0UT-7 | 2026-09-02 00:35:00 | 46.03510 | 13.93321 | 243° | 15km/h | 29798m | 5.1m/s | -42.9°C | 2.6% | 0hPa | 2.5V | 00:00:00 | 02:10:30 | 00:00:00 | |
| DO3MHA-11 | 2026-09-02 00:34:59 | 46.03513 | 13.93326 | 232° | 16km/h | 29793m | 4.8m/s | -42.9°C | 2.5% | 0hPa | 2.5V | 00:00:00 | 02:10:29 | 00:00:00 | |
| OE8JPQ-2 | 2026-09-02 00:34:57 | 46.03519 | 13.93334 | 202° | 13km/h | 29781m | 6.4m/s | -42.9°C | 2.6% | 0hPa | 2.5V | 00:00:00 | 00:00:00 | 00:00:00 | |
| 9A1FER-3 | 2026-09-02 00:34:55 | 46.03525 | 13.93333 | 144° | 11km/h | 29770m | 4.9m/s | -43.0°C | 2.5% | 0hPa | 2.6V | 00:00:00 | 02:10:25 | 00:00:00 | |
| OE5MMP-10 | 2026-09-02 00:34:52 | 46.03527 | 13.93329 | 223° | 11km/h | 29754m | 5.9m/s | -43.1°C | 2.5% | 0hPa | 2.5V | 00:00:00 | 02:10:22 | 00:00:00 | |
| OE5WHR-10 | 2026-09-02 00:34:51 | 46.03528 | 13.93331 | 235° | 18km/h | 29748m | 5.8m/s | -43.1°C | 2.6% | 0hPa | 2.5V | 00:00:00 | 00:00:00 | 00:00:00 | |
| OE5DXL-15 | 2026-09-02 00:34:49 | 46.03532 | 13.93336 | 214° | 16km/h | 29736m | 5.6m/s | -43.2°C | 2.6% | 0hPa | 2.6V | 00:00:00 | 00:00:00 | 00:00:00 | |
| PG1ADW-2 | 2026-09-02 00:34:48 | 46.03540 | 13.93340 | 188° | 18km/h | 29725m | 5.7m/s | -43.2°C | 2.6% | 0hPa | 2.6V | 00:00:00 | 00:00:00 | 00:00:00 | |
| IN3HCDX1 | 2026-09-02 00:34:47 | 46.03540 | 13.93340 | 189° | 16km/h | 29725m | 5.7m/s | -43.2°C | 0.6% | 0hPa | 2.6V | 00:00:00 | 00:00:00 | 00:00:00 | |
| 9A1FER-10 | 2026-09-02 00:34:44 | 46.03550 | 13.93340 | 187° | 18km/h | 29708m | 5.6m/s | -43.2°C | 2.6% | 0hPa | 2.6V | 00:00:00 | 02:10:14 | 00:00:00 | |
| IN3HCDX | 2026-09-02 00:34:43 | 46.03550 | 13.93340 | 188° | 11km/h | 29708m | 5.7m/s | -43.3°C | 0.6% | 0hPa | 2.5V | 00:00:00 | 00:00:00 | 00:00:00 | |
| OE5MMP-10 | 2026-09-02 00:34:42 | 46.03555 | 13.93343 | 207° | 18km/h | 29697m | 5.3m/s | -43.3°C | 2.6% | 0hPa | 2.5V | 00:00:00 | 02:10:12 | 00:00:00 | |
| OE5DRO-10 | 2026-09-02 00:34:40 | 46.03564 | 13.93347 | 191° | 20km/h | 29687m | 5.3m/s | -43.4°C | 2.6% | 0hPa | 2.5V | 00:00:00 | 00:00:00 | 08:30:00 | |
| OE8JPQ-2 | 2026-09-02 00:34:37 | 46.03581 | 13.93342 | 148° | 18km/h | 29669m | 5.3m/s | -43.4°C | 2.6% | 0hPa | 2.5V | 00:00:00 | 00:00:00 | 00:00:00 | |
| OE3JTB-15 | 2026-09-02 00:34:35 | 46.03589 | 13.93332 | 132° | 20km/h | 29659m | 5.2m/s | -43.5°C | 2.6% | 0hPa | 2.5V | 00:00:00 | 00:00:00 | 00:00:00 | |
| PETON7-10 | 2026-09-02 00:34:33 | 46.03593 | 13.93327 | 187° | 18km/h | 29648m | 5.7m/s | -43.6°C | 2.6% | 0hPa | 2.6V | 00:00:00 | 02:10:03 | 00:00:00 | |
| OE5MMP-10 | 2026-09-02 00:34:32 | 46.03595 | 13.93329 | 220° | 22km/h | 29642m | 5.4m/s | -43.6°C | 2.6% | 0hPa | 2.6V | 00:00:00 | 02:10:02 | 00:00:00 | |
| 9A1FER-10 | 2026-09-02 00:34:29 | 46.03610 | 13.93342 | 202° | 20km/h | 29625m | 5.6m/s | -43.6°C | 2.6% | 0hPa | 2.6V | 00:00:00 | 02:09:59 | 00:00:00 | |
| PG1ADW-2 | 2026-09-02 00:34:27 | 46.03625 | 13.93346 | 176° | 20km/h | 29614m | 5.3m/s | -43.6°C | 2.6% | 0hPa | 2.6V | 00:00:00 | 00:00:00 | 00:00:00 | |
| IN3HCDX1 | 2026-09-02 00:34:26 | 46.03631 | 13.93344 | 162° | 24km/h | 29609m | 5.6m/s | -43.7°C | 0.7% | 0hPa | 2.5V | 00:00:00 | 00:00:00 | 00:00:00 | |
| 9A1FER-3 | 2026-09-02 00:34:25 | 46.03636 | 13.93340 | 143° | 18km/h | 29603m | 5.6m/s | -43.6°C | 2.7% | 0hPa | 2.5V | 00:00:00 | 02:09:55 | 00:00:00 | |
| IV3AMH | 2026-09-02 00:34:24 | 46.03636 | 13.93340 | 144° | 18km/h | 29603m | 5.7m/s | -43.7°C | 0.7% | 0hPa | 2.5V | 00:00:00 | 00:00:00 | 00:00:00 | |
| DO3MHA-11 | 2026-09-02 00:34:22 | 46.03641 | 13.93331 | 147° | 18km/h | 29586m | 5.9m/s | -43.6°C | 2.6% | 0hPa | 2.5V | 00:00:00 | 02:09:52 | 00:00:00 | |
| OE5DRO-10 | 2026-09-02 00:34:21 | 46.03642 | 13.93331 | 193° | 18km/h | 29581m | 5.9m/s | -43.6°C | 2.7% | 0hPa | 2.5V | 00:00:00 | 00:00:00 | 00:00:00 | |
| OE5DXL-15 | 2026-09-02 00:34:19 | 46.03649 | 13.93334 | 191° | 18km/h | 29569m | 5.2m/s | -43.6°C | 2.6% | 0hPa | 2.5V | 00:00:00 | 00:00:00 | 00:00:00 | |
| PETON7-10 | 2026-09-02 00:34:18 | 46.03654 | 13.93334 | 181° | 22km/h | 29564m | 5.4m/s | -43.6°C | 2.6% | 0hPa | 2.5V | 00:00:00 | 00:00:00 | 08:30:00 | |
| OE8JPQ-2 | 2026-09-02 00:34:17 | 46.03660 | 13.93334 | 170° | 18km/h | 29558m | 5.9m/s | -43.6°C | 2.7% | 0hPa | 2.5V | 00:00:00 | 02:09:47 | 00:00:00 | |
| 9A1FER-10 | 2026-09-02 00:34:15 | 46.03678 | 13.93323 | 155° | 16km/h | 29542m | 5.5m/s | -43.6°C | 2.7% | 0hPa | 2.5V | 00:00:00 | 02:09:44 | 00:00:00 | |
| OE5MMP-10 | 2026-09-02 00:34:12 | 46.03690 | 13.93317 | 165° | 16km/h | 29530m | 5.5m/s | -43.6°C | 2.7% | 0hPa | 2.5V | 00:00:00 | 02:09:42 | 00:00:00 | |
| 9A1FER-3 | 2026-09-02 00:34:10 | 46.03701 | 13.93314 | 168° | 16km/h | 29520m | 5.0m/s | -43.6°C | 2.7% | 0hPa | 2.6V | 00:00:00 | 02:09:40 | 00:00:00 | |
| OE5WHR-10 | 2026-09-02 00:34:09 | 46.03706 | 13.93312 | 164° | 15km/h | 29514m | 5.8m/s | -43.6°C | 2.7% | 0hPa | 2.5V | 00:00:00 | 02:09:39 | 00:00:00 | |
| PG1ADW-2 | 2026-09-02 00:34:07 | 46.03717 | 13.93305 | 151° | 15km/h | 29503m | 5.7m/s | -43.5°C | 2.7% | 0hPa | 2.5V | 00:00:00 | 02:09:37 | 00:00:00 | |
| SOBLACK | 2026-09-02 00:34:06 | 46.03717 | 13.93305 | 152° | 20km/h | 29503m | 5.7m/s | -43.6°C | 0.7% | 0hPa | 2.5V | 00:00:00 | 00:00:00 | 00:00:00 | |
| IN3HCDX1 | 2026-09-02 00:34:04 | 46.03723 | 13.93299 | 145° | 11km/h | 29491m | 6.7m/s | -43.5°C | 0.7% | 0hPa | 2.5V | 00:00:00 | 00:00:00 | 00:00:00 | |
| PETON7-10 | 2026-09-02 00:34:03 | 46.03725 | 13.93297 | 155° | 15km/h | 29478m | 4.6m/s | -43.4°C | 2.6% | 0hPa | 2.5V | 00:00:00 | 00:00:00 | 00:00:00 | |
| DO3MHA-11 | 2026-09-02 00:34:02 | 46.03727 | 13.93296 | 149° | 16km/h | 29474m | 4.5m/s | -43.4°C | 2.6% | 0hPa | 2.5V | 00:00:00 | 02:09:32 | 08:30:00 | |
| IN3HCDX | 2026-09-02 00:34:01 | 46.03727 | 13.93296 | 149° | 5km/h | 29474m | 4.5m/s | -43.4°C | 0.6% | 0hPa | 2.6V | 00:00:00 | 00:00:00 | 00:00:00 | |
| DB0UT-7 | 2026-09-02 00:34:00 | 46.03731 | 13.93291 | 136° | 16km/h | 29462m | 6.6m/s | -43.3°C | 2.6% | 0hPa | 2.6V | 00:00:00 | 02:09:30 | 00:00:00 | |
| 9A1FER-10 | 2026-09-02 00:33:59 | 46.03734 | 13.93286 | 135° | 16km/h | 29456m | 5.8m/s | -43.3°C | 2.6% | 0hPa | 2.6V | 00:00:00 | 02:09:29 | 00:00:00 | |
| DG1MFX-10 | 2026-09-02 00:33:58 | 46.03734 | 13.93286 | 135° | 24km/h | 29456m | 5.8m/s | -43.3°C | 0.6% | 0hPa | 2.5V | 00:00:00 | 00:00:00 | 00:00:00 | |
| OE8JPQ-2 | 2026-09-02 00:33:57 | 46.03743 | 13.93273 | 137° | 15km/h | 29445m | 5.3m/s | -43.2°C | 2.6% | 0hPa | 2.5V | 00:00:00 | 00:00:00 | 08:30:00 | |
| 9A1FER-3 | 2026-09-02 00:33:55 | 46.03751 | 13.93265 | 158° | 15km/h | 29433m | 5.7m/s | -43.2°C | 2.5% | 0hPa | 2.6V | 00:00:00 | 02:09:25 | 00:00:00 | |
| OE5MMP-10 | 2026-09-02 00:33:52 | 46.03761 | 13.93264 | 182° | 15km/h | 29418m | 5.8m/s | -43.2°C | 2.5% | 0hPa | 2.6V | 00:00:00 | 02:09:22 | 00:00:00 | |
| OE5DXL-15 | 2026-09-02 00:33:49 | 46.03769 | 13.93257 | 122° | 15km/h | 29400m | 5.5m/s | -43.3°C | 2.6% | 0hPa | 2.6V | 00:00:00 | 00:00:00 | 08:30:00 | |
| PETON7-10 | 2026-09-02 00:33:48 | 46.03771 | 13.93251 | 106° | 15km/h | 29395m | 5.2m/s | -43.3°C | 2.6% | 0hPa | 2.6V | 00:00:00 | 02:09:18 | 00:00:00 | |
| PG1ADW-2 | 2026-09-02 00:33:47 | 46.03772 | 13.93245 | 92° | 16km/h | 29389m | 5.6m/s | -43.4°C | 2.6% | 0hPa | 2.6V | 00:00:00 | 00:00:00 | 00:00:00 | |
| 9A1FER-10 | 2026-09-02 00:33:44 | 46.03768 | 13.93229 | 58° | 16km/h | 29371m | 5.3m/s | -43.7°C | 2.6% | 0hPa | 2.6V | 00:00:00 | 02:09:14 | 00:00:00 | |
| OE5DRO-10 | 2026-09-02 00:33:43 | 46.03767 | 13.93225 | 76° | 15km/h | 29366m | 4.9m/s | -43.8°C | 2.6% | 0hPa | 2.6V | 00:00:00 | 00:00:00 | 00:00:00 | |
| OE5MMP-10 | 2026-09-02 00:33:42 | 46.03767 | 13.93222 | 112° | 15km/h | 29360m | 6.8m/s | -43.8°C | 2.7% | 0hPa | 2.6V | 00:00:00 | 02:09:12 | 08:30:00 | |
| 9A1FER-3 | 2026-09-02 00:33:40 | 46.03772 | 13.93216 | 147° | 16km/h | 29347m | 5.1m/s | -43.8°C | 2.7% | 0hPa | 2.5V | 00:00:00 | 02:09:10 | 00:00:00 | |
| OE8JPQ-2 | 2026-09-02 00:33:37 | 46.03780 | 13.93206 | 114° | 16km/h | 29331m | 5.7m/s | -43.8°C | 2.7% | 0hPa | 2.5V | 00:00:00 | 00:00:00 | 00:00:00 | |
| PETON7-10 | 2026-09-02 00:33:33 | 46.03776 | 13.93183 | 74° | 16km/h | 29308m | 6.0m/s | -43.8°C | 2.6% | 0hPa | 2.5V | 00:00:00 | 00:00:00 | 00:00:00 | |
| OE5MMP-10 | 2026-09-02 00:33:32 | 46.03775 | 13.93175 | 77° | 15km/h | 29302m | 5.6m/s | -43.7°C | 2.6% | 0hPa | 2.5V | 00:00:00 | 02:09:02 | 00:00:00 | |
| DB0UT-7 | 2026-09-02 00:33:30 | 46.03771 | 13.93158 | 69° | 18km/h | 29292m | 4.8m/s | -43.7°C | 2.6% | 0hPa | 2.5V | 00:00:00 | 00:00:00 | 08:30:00 | |
| 9A1FER-10 | 2026-09-02 00:33:29 | 46.03769 | 13.93153 | 55° | 15km/h | 29286m | 6.8m/s | -43.7°C | 2.6% | 0hPa | 2.5V | 00:00:00 | 02:08:59 | 00:00:00 | |
| PG1ADW-2 | 2026-09-02 00:33:27 | 46.03764 | 13.93147 | 13° | 16km/h | 29273m | 5.6m/s | -43.7°C | 2.6% | 0hPa | 2.5V | 00:00:00 | 00:00:00 | 08:30:00 | |
| 9A1FER-3 | 2026-09-02 00:33:25 | 46.03758 | 13.93146 | 18° | 15km/h | 29262m | 6.6m/s | -43.7°C | 2.6% | 0hPa | 2.6V | 00:00:00 | 02:08:55 | 08:30:00 | |
| OE5DRO-10 | 2026-09-02 00:33:24 | 46.03757 | 13.93145 | 50° | 18km/h | 29256m | 5.4m/s | -43.8°C | 2.6% | 0hPa | 2.6V | 00:00:00 | 00:00:00 | 00:00:00 | |
| IN3HCDX1 | 2026-09-02 00:33:23 | 46.03757 | 13.93145 | 51° | 7km/h | 29256m | 5.5m/s | -43.8°C | 0.7% | 0hPa | 2.6V | 00:00:00 | 00:00:00 | 00:00:00 | |
| DO3MHA-11 | 2026-09-02 00:33:22 | 46.03754 | 13.93139 | 58° | 18km/h | 29246m | 5.1m/s | -43.8°C | 2.6% | 0hPa | 2.6V | 00:00:00 | 02:08:52 | 00:00:00 | |
| OE5DXL-15 | 2026-09-02 00:33:19 | 46.03745 | 13.93126 | 33° | 20km/h | 29228m | 5.4m/s | -43.9°C | 2.6% | 0hPa | 2.6V | 00:00:00 | 00:00:00 | 00:00:00 | |
| PETON7-10 | 2026-09-02 00:33:18 | 46.03740 | 13.93122 | 34° | 20km/h | 29222m | 5.1m/s | -43.9°C | 2.6% | 0hPa | 2.6V | 00:00:00 | 00:00:00 | 00:00:00 | |
| OE8JPQ-2 | 2026-09-02 00:33:17 | 46.03735 | 13.93117 | 39° | 20km/h | 29217m | 5.5m/s | -43.9°C | 2.6% | 0hPa | 2.6V | 00:00:00 | 02:08:47 | 00:00:00 | |
| DG1MFX-10 | 2026-09-02 00:33:16 | 46.03735 | 13.93117 | 39° | 22km/h | 29217m | 5.5m/s | -43.9°C | 0.7% | 0hPa | 2.6V | 00:00:00 | 00:00:00 | 00:00:00 | |
| 9A1FER-10 | 2026-09-02 00:33:14 | 46.03727 | 13.93103 | 60° | 20km/h | 29199m | 5.2m/s | -44.0°C | 2.6% | 0hPa | 2.6V | 00:00:00 | 02:08:44 | 08:30:00 | |
| OE5MMP-10 | 2026-09-02 00:33:12 | 46.03722 | 13.93097 | 26° | 22km/h | 29187m | 6.5m/s | -44.1°C | 2.7% | 0hPa | 2.5V | 00:00:00 | 02:08:42 | 00:00:00 | |
| 9A1FER-3 | 2026-09-02 00:33:10 | 46.03715 | 13.93093 | 24° | 22km/h | 29176m | 4.6m/s | -44.2°C | 2.7% | 0hPa | 2.6V | 00:00:00 | 02:08:40 | 00:00:00 | |
| SOBLACK | 2026-09-02 00:33:09 | 46.03715 | 13.93093 | 24° | 18km/h | 29176m | 4.6m/s | -44.3°C | 0.7% | 0hPa | 2.6V | 00:00:00 | 00:00:00 | 00:00:00 | |
| PG1ADW-2 | 2026-09-02 00:33:07 | 46.03703 | 13.93077 | 57° | 22km/h | 29158m | 5.6m/s | -44.3°C | 2.7% | 0hPa | 2.6V | 00:00:00 | 00:00:00 | 00:00:00 | |
| OE5DRO-10 | 2026-09-02 00:33:05 | 46.03695 | 13.93060 | 57° | 22km/h | 29147m | 6.2m/s | -44.4°C | 2.7% | 0hPa | 2.6V | 00:00:00 | 00:00:00 | 00:00:00 | |
| PETON7-10 | 2026-09-02 00:33:03 | 46.03687 | 13.93045 | 49° | 20km/h | 29135m | 5.0m/s | -44.4°C | 2.7% | 0hPa | 2.6V | 00:00:00 | 02:08:33 | 00:00:00 | |
| OE5MMP-10 | 2026-09-02 00:33:02 | 46.03683 | 13.93038 | 51° | 20km/h | 29130m | 4.8m/s | -44.4°C | 2.7% | 0hPa | 2.6V | 00:00:00 | 02:08:32 | 00:00:00 | |
| DB0UT-7 | 2026-09-02 00:33:00 | 46.03679 | 13.93026 | 73° | 20km/h | 29118m | 6.7m/s | -44.4°C | 2.7% | 0hPa | 2.6V | 00:00:00 | 02:08:30 | 00:00:00 | |
| 9A1FER-10 | 2026-09-02 00:32:59 | 46.03677 | 13.93020 | 83° | 20km/h | 29112m | 5.5m/s | -44.4°C | 2.7% | 0hPa | 2.6V | 00:00:00 | 02:08:29 | 00:00:00 | |
| OE8JPQ-2 | 2026-09-02 00:32:57 | 46.03675 | 13.93008 | 66° | 22km/h | 29101m | 6.1m/s | -44.5°C | 2.7% | 0hPa | 2.6V | 00:00:00 | 00:00:00 | 00:00:00 | |
| OE5WHR-10 | 2026-09-02 00:32:56 | 46.03673 | 13.93003 | 50° | 22km/h | 29095m | 6.6m/s | -44.5°C | 2.7% | 0hPa | 2.5V | 00:00:00 | 00:00:00 | 00:00:00 | |
| 9A1FER-3 | 2026-09-02 00:32:55 | 46.03669 | 13.92997 | 40° | 20km/h | 29089m | 5.5m/s | -44.6°C | 2.8% | 0hPa | 2.5V | 00:00:00 | 02:08:25 | 00:00:00 | |
| IV3AMH | 2026-09-02 00:32:54 | 46.03669 | 13.92997 | 40° | 22km/h | 29089m | 5.6m/s | -44.6°C | 0.7% | 0hPa | 2.5V | 00:00:00 | 00:00:00 | 00:00:00 | |
| OE5MMP-10 | 2026-09-02 00:32:52 | 46.03657 | 13.92982 | 45° | 20km/h | 29071m | 5.8m/s | -44.6°C | 2.8% | 0hPa | 2.5V | 00:00:00 | 02:08:22 | 00:00:00 | |
| OE5DXL-15 | 2026-09-02 00:32:49 | 46.03644 | 13.92966 | 34° | 18km/h | 29054m | 6.7m/s | -44.6°C | 2.8% | 0hPa | 2.5V | 00:00:00 | 00:00:00 | 00:00:00 | |
| PETON7-10 | 2026-09-02 00:32:48 | 46.03639 | 13.92962 | 29° | 20km/h | 29048m | 5.5m/s | -44.6°C | 2.8% | 0hPa | 2.5V | 00:00:00 | 00:00:00 | 00:00:00 | |
| PG1ADW-2 | 2026-09-02 00:32:47 | 46.03634 | 13.92958 | 31° | 18km/h | 29043m | 4.7m/s | -44.6°C | 2.7% | 0hPa | 2.6V | 00:00:00 | 02:08:17 | 00:00:00 | |
| OE5DRO-10 | 2026-09-02 00:32:46 | 46.03630 | 13.92954 | 38° | 18km/h | 29037m | 6.4m/s | -44.6°C | 2.8% | 0hPa | 2.6V | 00:00:00 | 00:00:00 | 00:00:00 | |
| 9A1FER-10 | 2026-09-02 00:32:44 | 46.03624 | 13.92945 | 53° | 20km/h | 29025m | 4.9m/s | -44.6°C | 2.7% | 0hPa | 2.6V | 00:00:00 | 02:08:14 | 00:00:00 | |
| DO3MHA-11 | 2026-09-02 00:32:42 | 46.03618 | 13.92936 | 32° | 20km/h | 29015m | 6.2m/s | -44.7°C | 2.8% | 0hPa | 2.6V | 00:00:00 | 02:08:12 | 00:00:00 | |
| 9A1FER-3 | 2026-09-02 00:32:40 | 46.03607 | 13.92931 | 12° | 18km/h | 29003m | 5.3m/s | -44.7°C | 2.8% | 0hPa | 2.6V | 00:00:00 | 02:08:10 | 00:00:00 | |
| IN3HCDX | 2026-09-02 00:32:38 | 46.03601 | 13.92930 | 11° | 26km/h | 28998m | 4.5m/s | -44.8°C | 0.7% | 0hPa | 2.6V | 00:00:00 | 00:00:00 | 00:00:00 | |
| OE8JPQ-2 | 2026-09-02 00:32:37 | 46.03590 | 13.92925 | 24° | 15km/h | 28987m | 6.1m/s | -44.8°C | 2.8% | 0hPa | 2.6V | 00:00:00 | 00:00:00 | 00:00:00 | |
| OE5WHR-10 | 2026-09-02 00:32:35 | 46.03583 | 13.92918 | 55° | 13km/h | 28975m | 5.8m/s | -44.8°C | 2.8% | 0hPa | 2.6V | 00:00:00 | 02:08:05 | 00:00:00 | |
| OE3JTB-15 | 2026-09-02 00:32:34 | 46.03581 | 13.92913 | 57° | 13km/h | 28970m | 5.1m/s | -44.8°C | 2.8% | 0hPa | 2.6V | 00:00:00 | 00:00:00 | 00:00:00 | |
| PETON7-10 | 2026-09-02 00:32:33 | 46.03578 | 13.92909 | 47° | 15km/h | 28964m | 5.4m/s | -44.8°C | 2.8% | 0hPa | 2.6V | 00:00:00 | 00:00:00 | 00:00:00 | |
| OE5MMP-10 | 2026-09-02 00:32:32 | 46.03575 | 13.92905 | 30° | 16km/h | 28958m | 6.4m/s | -44.8°C | 2.8% | 0hPa | 2.6V | 00:00:00 | 02:08:02 | 00:00:00 | |
| DB0UT-7 | 2026-09-02 00:32:30 | 46.03566 | 13.92901 | 7° | 11km/h | 28947m | 5.0m/s | -44.8°C | 2.8% | 0hPa | 2.6V | 00:00:00 | 00:00:00 | 00:00:00 | |
| 9A1FER-10 | 2026-09-02 00:32:29 | 46.03561 | 13.92901 | 3° | 13km/h | 28941m | 5.9m/s | -44.8°C | 2.8% | 0hPa | 2.6V | 00:00:00 | 02:07:59 | 00:00:00 | |
| PG1ADW-2 | 2026-09-02 00:32:27 | 46.03553 | 13.92901 | 3° | 11km/h | 28929m | 6.0m/s | -44.7°C | 2.8% | 0hPa | 2.5V | 00:00:00 | 00:00:00 | 00:00:00 | |
| 9A1FER-3 | 2026-09-02 00:32:25 | 46.03547 | 13.92900 | 4° | 11km/h | 28918m | 5.5m/s | -44.6°C | 2.8% | 0hPa | 2.5V | 00:00:00 | 02:07:55 | 00:00:00 | |
| OE5MMP-10 | 2026-09-02 00:32:22 | 46.03536 | 13.92897 | 30° | 11km/h | 28901m | 4.3m/s | -44.5°C | 2.7% | 0hPa | 2.5V | 00:00:00 | 02:07:52 | 00:00:00 | |
| IN3HCDX1 | 2026-09-02 00:32:21 | 46.03536 | 13.92897 | 30° | 15km/h | 28901m | 4.3m/s | -44.6°C | 0.7% | 0hPa | 2.5V | 00:00:00 | 00:00:00 | 00:00:00 | |
| OE5DXL-15 | 2026-09-02 00:32:19 | 46.03532 | 13.92885 | 87° | 9km/h | 28883m | 5.5m/s | -44.5°C | 2.7% | 0hPa | 2.5V | 00:00:00 | 00:00:00 | 00:00:00 | |
| PETON7-10 | 2026-09-02 00:32:18 | 46.03532 | 13.92880 | 84° | 9km/h | 28878m | 4.4m/s | -44.5°C | 2.7% | 0hPa | 2.5V | 00:00:00 | 02:07:48 | 00:00:00 | |
| OE8JPQ-2 | 2026-09-02 00:32:17 | 46.03531 | 13.92877 | 68° | 9km/h | 28873m | 5.9m/s | -44.5°C | 2.7% | 0hPa | 2.5V | 00:00:00 | 02:07:47 | 00:00:00 | |
| OE5WHR-10 | 2026-09-02 00:32:14 | 46.03524 | 13.92872 | 353° | 9km/h | 28855m | 5.5m/s | -44.6°C | 2.8% | 0hPa | 2.5V | 00:00:00 | 00:00:00 | 00:00:00 | |
| DO3MHA-11 | 2026-09-02 00:32:12 | 46.03520 | 13.92874 | 310° | 9km/h | 28843m | 6.5m/s | -44.7°C | 2.8% | 0hPa | 2.5V | 00:00:00 | 02:07:42 | 00:00:00 | |
| 9A1FER-3 | 2026-09-02 00:32:10 | 46.03520 | 13.92876 | 164° | 11km/h | 28832m | 4.6m/s | -44.8°C | 2.8% | 0hPa | 2.5V | 00:00:00 | 02:07:40 | 00:00:00 | |
| OE5DRO-10 | 2026-09-02 00:32:08 | 46.03520 | 13.92873 | 79° | 11km/h | 28821m | 6.7m/s | -44.7°C | 2.8% | 0hPa | 2.5V | 00:00:00 | 00:00:00 | 00:00:00 | |
| PG1ADW-2 | 2026-09-02 00:32:07 | 46.03519 | 13.92869 | 71° | 11km/h | 28815m | 5.7m/s | -44.8°C | 2.8% | 0hPa | 2.5V | 00:00:00 | 00:00:00 | 00:00:00 | |
| OE3JTB-15 | 2026-09-02 00:32:05 | 46.03518 | 13.92860 | 85° | 13km/h | 28805m | 5.0m/s | -44.7°C | 2.8% | 0hPa | 2.5V | 00:00:00 | 02:07:35 | 00:00:00 | |
| PETON7-10 | 2026-09-02 00:32:02 | 46.03522 | 13.92849 | 155° | 9km/h | 28787m | 5.3m/s | -44.8°C | 2.8% | 0hPa | 2.5V | 00:00:00 | 00:00:00 | 08:30:00 | |
| IN3HCDX1 | 2026-09-02 00:32:01 | 46.03522 | 13.92849 | 155° | 15km/h | 28787m | 5.3m/s | -44.8°C | 0.7% | 0hPa | 2.6V | 00:00:00 | 00:00:00 | 00:00:00 | |
| DB0UT-7 | 2026-09-02 00:32:00 | 46.03528 | 13.92845 | 152° | 11km/h | 28776m | 5.2m/s | -44.8°C | 2.8% | 0hPa | 2.6V | 00:00:00 | 02:07:30 | 00:00:00 | |
| 9A1FER-10 | 2026-09-02 00:31:59 | 46.03529 | 13.92843 | 122° | 9km/h | 28770m | 6.6m/s | -44.8°C | 2.8% | 0hPa | 2.5V | 00:00:00 | 02:07:29 | 00:00:00 | |
| OE8JPQ-2 | 2026-09-02 00:31:57 | 46.03529 | 13.92838 | 65° | 13km/h | 28758m | 5.7m/s | -44.8°C | 2.8% | 0hPa | 2.5V | 00:00:00 | 00:00:00 | 00:00:00 | |
| IV3AMH | 2026-09-02 00:31:56 | 46.03529 | 13.92838 | 66° | 11km/h | 28758m | 5.7m/s | -44.9°C | 0.7% | 0hPa | 2.6V | 00:00:00 | 00:00:00 | 00:00:00 | |
| 9A1FER-3 | 2026-09-02 00:31:55 | 46.03526 | 13.92830 | 68° | 11km/h | 28746m | 5.9m/s | -44.9°C | 2.8% | 0hPa | 2.6V | 00:00:00 | 02:07:25 | 00:00:00 | |
| OE5WHR-10 | 2026-09-02 00:31:53 | 46.03523 | 13.92823 | 54° | 11km/h | 28735m | 5.5m/s | -44.9°C | 2.8% | 0hPa | 2.6V | 00:00:00 | 00:00:00 | 00:00:00 | |
| DO3MHA-11 | 2026-09-02 00:31:52 | 46.03522 | 13.92820 | 43° | 9km/h | 28729m | 6.4m/s | -45.0°C | 2.8% | 0hPa | 2.6V | 00:00:00 | 02:07:22 | 00:00:00 | |
| OE5DXL-15 | 2026-09-02 00:31:49 | 46.03519 | 13.92816 | 173° | 15km/h | 28712m | 7.0m/s | -45.1°C | 2.8% | 0hPa | 2.6V | 00:00:00 | 00:00:00 | 00:00:00 | |
| PETON7-10 | 2026-09-02 00:31:47 | 46.03524 | 13.92816 | 178° | 13km/h | 28700m | 4.7m/s | -45.1°C | 2.8% | 0hPa | 2.6V | 00:00:00 | 00:00:00 | 00:00:00 | |
| 9A1FER-10 | 2026-09-02 00:31:44 | 46.03528 | 13.92810 | 69° | 15km/h | 28684m | 5.5m/s | -45.2°C | 2.8% | 0hPa | 2.6V | 00:00:00 | 02:07:14 | 00:00:00 | |
| OE5MMP-10 | 2026-09-02 00:31:42 | 46.03523 | 13.92800 | 53° | 13km/h | 28673m | 5.7m/s | -45.2°C | 2.8% | 0hPa | 2.5V | 00:00:00 | 02:07:12 | 00:00:00 | |
| DO3MHA-11 | 2026-09-02 00:31:41 | 46.03520 | 13.92794 | 54° | 13km/h | 28666m | 6.5m/s | -45.2°C | 2.8% | 0hPa | 2.5V | 00:00:00 | 02:07:11 | 00:00:00 | |
| 9A1FER-3 | 2026-09-02 00:31:40 | 46.03517 | 13.92788 | 54° | 15km/h | 28660m | 5.7m/s | -45.3°C | 2.8% | 0hPa | 2.5V | 00:00:00 | 02:07:10 | 00:00:00 | |
| OE8JPQ-2 | 2026-09-02 00:31:37 | 46.03508 | 13.92776 | 16° | 15km/h | 28643m | 6.6m/s | -45.3°C | 2.8% | 0hPa | 2.5V | 00:00:00 | 00:00:00 | 00:00:00 | |
| OE3JTB-15 | 2026-09-02 00:31:35 | 46.03502 | 13.92776 | 350° | 13km/h | 28632m | 4.6m/s | -45.2°C | 2.8% | 0hPa | 2.5V | 00:00:00 | 00:00:00 | 00:00:00 | |
| NBG1-10 | 2026-09-02 00:31:33 | 46.03501 | 13.92776 | 155° | 13km/h | 28620m | 7.1m/s | -45.2°C | 2.8% | 0hPa | 2.6V | 00:00:00 | 02:07:03 | 00:00:00 | |
| PETON7-10 | 2026-09-02 00:31:32 | 46.03503 | 13.92775 | 144° | 18km/h | 28614m | 5.4m/s | -45.2°C | 2.8% | 0hPa | 2.6V | 00:00:00 | 02:07:02 | 00:00:00 | |
| OE5DRO-10 | 2026-09-02 00:31:30 | 46.03507 | 13.92767 | 115° | 15km/h | 28603m | 6.2m/s | -45.3°C | 2.8% | 0hPa | 2.6V | 00:00:00 | 00:00:00 | 00:00:00 | |
| 9A1FER-10 | 2026-09-02 00:31:29 | 46.03508 | 13.92762 | 92° | 16km/h | 28597m | 5.7m/s | -45.4°C | 2.8% | 0hPa | 2.6V | 00:00:00 | 02:06:59 | 00:00:00 | |
| PG1ADW-2 | 2026-09-02 00:31:27 | 46.03506 | 13.92749 | 65° | 15km/h | 28587m | 5.1m/s | -45.5°C | 2.9% | 0hPa | 2.6V | 00:00:00 | 02:06:57 | 00:00:00 | |
| 9A1FER-3 | 2026-09-02 00:31:25 | 46.03501 | 13.92736 | 58° | 15km/h | 28575m | 5.7m/s | -45.5°C | 2.9% | 0hPa | 2.5V | 00:00:00 | 02:06:55 | 00:00:00 | |
| OE5MMP-10 | 2026-09-02 00:31:22 | 46.03490 | 13.92722 | 24° | 13km/h | 28559m | 6.5m/s | -45.6°C | 2.9% | 0hPa | 2.5V | 00:00:00 | 02:06:52 | 00:00:00 | |
| IN3HCDX1 | 2026-09-02 00:31:21 | 46.03484 | 13.92720 | 14° | 22km/h | 28552m | 6.3m/s | -45.7°C | 0.7% | 0hPa | 2.5V | 00:00:00 | 00:00:00 | 00:00:00 | |
| OE5DXL-15 | 2026-09-02 00:31:19 | 46.03474 | 13.92719 | 354° | 13km/h | 28542m | 4.9m/s | -45.6°C | 2.9% | 0hPa | 2.5V | 00:00:00 | 00:00:00 | 00:00:00 | |
| OE8JPQ-2 | 2026-09-02 00:31:17 | 46.03469 | 13.92721 | 326° | 11km/h | 28530m | 6.0m/s | -45.6°C | 2.9% | 0hPa | 2.5V | 00:00:00 | 02:06:47 | 00:00:00 | |
| IN3HCDX | 2026-09-02 00:31:15 | 46.03468 | 13.92722 | 0° | 0km/h | 28525m | 4.6m/s | -45.6°C | 0.7% | 0hPa | 2.5V | 00:00:00 | 00:00:00 | 00:00:00 | |
| 9A1FER-10 | 2026-09-02 00:31:14 | 46.03467 | 13.92721 | 50° | 13km/h | 28515m | 5.9m/s | -45.6°C | 2.9% | 0hPa | 2.5V | 00:00:00 | 02:06:44 | 00:00:00 | |
| DG1MFX-10 | 2026-09-02 00:31:13 | 46.03468 | 13.92721 | 51° | 5km/h | 28515m | 6.0m/s | -45.6°C | 0.8% | 0hPa | 2.5V | 00:00:00 | 00:00:00 | 00:00:00 | |
| OE5MMP-10 | 2026-09-02 00:31:12 | 46.03463 | 13.92715 | 44° | 13km/h | 28502m | 5.7m/s | -45.5°C | 2.9% | 0hPa | 2.5V | 00:00:00 | 02:06:42 | 00:00:00 | |
| OE5WHR-10 | 2026-09-02 00:31:11 | 46.03460 | 13.92710 | 47° | 13km/h | 28497m | 4.7m/s | -45.5°C | 2.9% | 0hPa | 2.5V | 00:00:00 | 00:00:00 | 00:00:00 | |
| 9A1FER-3 | 2026-09-02 00:31:10 | 46.03456 | 13.92704 | 54° | 13km/h | 28492m | 4.8m/s | -45.5°C | 2.9% | 0hPa | 2.6V | 00:00:00 | 02:06:40 | 08:30:00 | |
| OE3JTB-15 | 2026-09-02 00:31:07 | 46.03455 | 13.92683 | 123° | 15km/h | 28462m | 6.4m/s | -45.4°C | 2.9% | 0hPa | 2.5V | 00:00:00 | 00:00:00 | 00:00:00 | |
| OE5MMP-10 | 2026-09-02 00:31:02 | 46.03458 | 13.92676 | 139° | 15km/h | 28446m | 5.5m/s | -45.4°C | 2.9% | 0hPa | 2.5V | 00:00:00 | 02:06:32 | 00:00:00 | |
| DO3MHA-11 | 2026-09-02 00:31:01 | 46.03460 | 13.92674 | 142° | 15km/h | 28440m | 6.5m/s | -45.4°C | 2.8% | 0hPa | 2.5V | 00:00:00 | 02:06:31 | 08:30:00 | |
| DB0UT-7 | 2026-09-02 00:31:00 | 46.03462 | 13.92672 | 133° | 20km/h | 28434m | 5.2m/s | -45.4°C | 2.9% | 0hPa | 2.6V | 00:00:00 | 02:06:30 | 00:00:00 | |
| 9A1FER-10 | 2026-09-02 00:30:59 | 46.03463 | 13.92668 | 112° | 16km/h | 28429m | 4.6m/s | -45.4°C | 2.8% | 0hPa | 2.6V | 00:00:00 | 02:06:29 | 08:30:00 | |
| DO3MHA-12 | 2026-09-02 00:30:57 | 46.03463 | 13.92658 | 70° | 16km/h | 28417m | 6.9m/s | -45.4°C | 2.9% | 0hPa | 2.5V | 00:00:00 | 02:06:27 | 08:30:00 | |
| IN3HCDX | 2026-09-02 00:30:56 | 46.03461 | 13.92652 | 60° | 20km/h | 28411m | 5.4m/s | -45.5°C | 0.7% | 0hPa | 2.5V | 00:00:00 | 00:00:00 | 00:00:00 | |
| 9A1FER-3 | 2026-09-02 00:30:55 | 46.03458 | 13.92646 | 62° | 18km/h | 28406m | 4.3m/s | -45.4°C | 2.9% | 0hPa | 2.5V | 00:00:00 | 02:06:25 | 00:00:00 | |
| OE5MMP-10 | 2026-09-02 00:30:52 | 46.03457 | 13.92629 | 130° | 18km/h | 28388m | 6.1m/s | -45.5°C | 2.8% | 0hPa | 2.5V | 00:00:00 | 02:06:22 | 00:00:00 | |
| OE5WHR-10 | 2026-09-02 00:30:50 | 46.03464 | 13.92623 | 156° | 22km/h | 28377m | 6.2m/s | -45.5°C | 2.9% | 0hPa | 2.5V | 00:00:00 | 00:00:00 | 00:00:00 | |
| OE5DXL-15 | 2026-09-02 00:30:49 | 46.03468 | 13.92620 | 156° | 24km/h | 28371m | 5.9m/s | -45.6°C | 2.8% | 0hPa | 2.5V | 00:00:00 | 00:00:00 | 00:00:00 | |
| DO3MHA-11 | 2026-09-02 00:30:48 | 46.03472 | 13.92617 | 151° | 18km/h | 28366m | 4.9m/s | -45.6°C | 2.9% | 0hPa | 2.5V | 00:00:00 | 02:06:18 | 00:00:00 | |
| DO3MHA-12 | 2026-09-02 00:30:47 | 46.03476 | 13.92614 | 145° | 20km/h | 28360m | 5.1m/s | -45.6°C | 2.9% | 0hPa | 2.5V | 00:00:00 | 02:06:17 | 00:00:00 | |
| PETON7-10 | 2026-09-02 00:30:46 | 46.03480 | 13.92610 | 142° | 24km/h | 28355m | 6.0m/s | -45.6°C | 2.9% | 0hPa | 2.5V | 00:00:00 | 02:06:16 | 00:00:00 | |
| 9A1FER-10 | 2026-09-02 00:30:44 | 46.03486 | 13.92600 | 119° | 24km/h | 28344m | 4.4m/s | -45.6°C | 2.9% | 0hPa | 2.5V | 00:00:00 | 02:06:14 | 00:00:00 | |
| 9A1FER-3 | 2026-09-02 00:30:40 | 46.03483 | 13.92575 | 67° | 26km/h | 28321m | 4.6m/s | -45.7°C | 2.9% | 0hPa | 2.5V | 00:00:00 | 02:06:10 | 00:00:00 | |
| DO3MHA-11 | 2026-09-02 00:30:38 | 46.03482 | 13.92559 | 98° | 27km/h | 28310m | 6.4m/s | -45.7°C | 2.9% | 0hPa | 2.5V | 00:00:00 | 02:06:08 | 00:00:00 | |
| DO3MHA-12 | 2026-09-02 00:30:37 | 46.03483 | 13.92550 | 115° | 22km/h | 28304m | 5.8m/s | -45.7°C | 2.9% | 0hPa | 2.5V | 00:00:00 | 02:06:07 | 00:00:00 | |
| OE3JTB-15 | 2026-09-02 00:30:36 | 46.03487 | 13.92540 | 123° | 24km/h | 28299m | 4.9m/s | -45.8°C | 2.9% | 0hPa | 2.5V | 00:00:00 | 02:06:06 | 00:00:00 | |
| IN3HCDX | 2026-09-02 00:30:35 | 46.03492 | 13.92530 | 126° | 33km/h | 28293m | 5.4m/s | -45.9°C | 0.7% | 0hPa | 2.5V | 00:00:00 | 00:00:00 | 00:00:00 | |
| OE5DRO-10 | 2026-09-02 00:30:33 | 46.03503 | 13.92503 | 113° | 22km/h | 28276m | 5.5m/s | -45.9°C | 3.0% | 0hPa | 2.5V | 00:00:00 | 00:00:00 | 00:00:00 | |
| OE5MMP-10 | 2026-09-02 00:30:32 | 46.03503 | 13.92503 | 113° | 26km/h | 28276m | 5.5m/s | -45.9°C | 3.0% | 0hPa | 2.5V | 00:00:00 | 02:06:02 | 00:00:00 | |
| PETON7-10 | 2026-09-02 00:30:31 | 46.03505 | 13.92495 | 106° | 24km/h | 28271m | 5.2m/s | -45.9°C | 2.9% | 0hPa | 2.5V | 00:00:00 | 00:00:00 | 00:00:00 | |
| OE5WHR-10 | 2026-09-02 00:30:29 | 46.03508 | 13.92481 | 108° | 22km/h | 28259m | 6.0m/s | -45.8°C | 2.9% | 0hPa | 2.5V | 00:00:00 | 02:05:59 | 00:00:00 | |
| DO3MHA-11 | 2026-09-02 00:30:28 | 46.03509 | 13.92473 | 111° | 26km/h | 28253m | 5.9m/s | -45.8°C | 2.9% | 0hPa | 2.5V | 00:00:00 | 02:05:58 | 00:00:00 | |
| PG1ADW-2 | 2026-09-02 00:30:27 | 46.03512 | 13.92464 | 109° | 22km/h | 28247m | 5.3m/s | -45.8°C | 2.9% | 0hPa | 2.5V | 00:00:00 | 00:00:00 | 08:30:00 | |
| 9A1FER-3 | 2026-09-02 00:30:25 | 46.03515 | 13.92443 | 97° | 20km/h | 28236m | 6.4m/s | -45.9°C | 2.9% | 0hPa | 2.5V | 00:00:00 | 02:05:55 | 00:00:00 | |
| OE5MMP-10 | 2026-09-02 00:30:22 | 46.03516 | 13.92410 | 94° | 16km/h | 28220m | 4.6m/s | -45.9°C | 2.9% | 0hPa | 2.5V | 00:00:00 | 02:05:52 | 00:00:00 | |
| OE5DXL-15 | 2026-09-02 00:30:19 | 46.03521 | 13.92387 | 132° | 11km/h | 28202m | 5.0m/s | -46.0°C | 2.9% | 0hPa | 2.5V | 00:00:00 | 00:00:00 | 00:00:00 | |
| IN3HCDX1 | 2026-09-02 00:30:18 | 46.03523 | 13.92383 | 136° | 13km/h | 28198m | 4.6m/s | -46.1°C | 0.7% | 0hPa | 2.5V | 00:00:00 | 00:00:00 | 00:00:00 | |
| OE8JPQ-2 | 2026-09-02 00:30:17 | 46.03525 | 13.92380 | 124° | 13km/h | 28192m | 6.0m/s | -46.0°C | 3.0% | 0hPa | 2.5V | 00:00:00 | 02:05:47 | 00:00:00 | |
| PETON7-10 | 2026-09-02 00:30:16 | 46.03526 | 13.92378 | 85° | 13km/h | 28186m | 6.4m/s | -46.0°C | 2.9% | 0hPa | 2.5V | 00:00:00 | 00:00:00 | 00:00:00 | |
| 9A1FER-10 | 2026-09-02 00:30:14 | 46.03523 | 13.92370 | 62° | 13km/h | 28175m | 4.9m/s | -46.1°C | 3.0% | 0hPa | 2.5V | 00:00:00 | 02:05:44 | 00:00:00 | |
| OE5MMP-10 | 2026-09-02 00:30:12 | 46.03521 | 13.92357 | 83° | 15km/h | 28163m | 6.7m/s | -46.2°C | 3.0% | 0hPa | 2.6V | 00:00:00 | 02:05:42 | 00:00:00 | |
| DG1MFX-10 | 2026-09-02 00:30:11 | 46.03521 | 13.92357 | 84° | 20km/h | 28163m | 6.7m/s | -46.2°C | 0.8% | 0hPa | 2.5V | 00:00:00 | 00:00:00 | 00:00:00 | |
| 9A1FER-3 | 2026-09-02 00:30:10 | 46.03521 | 13.92341 | 93° | 11km/h | 28151m | 5.0m/s | -46.3°C | 3.0% | 0hPa | 2.5V | 00:00:00 | 02:05:40 | 00:00:00 | |
| OE5WHR-10 | 2026-09-02 00:30:08 | 46.03520 | 13.92325 | 77° | 7km/h | 28140m | 6.0m/s | -46.4°C | 3.0% | 0hPa | 2.5V | 00:00:00 | 00:00:00 | 08:30:00 | |
| PG1ADW-2 | 2026-09-02 00:30:07 | 46.03519 | 13.92320 | 62° | 7km/h | 28135m | 5.2m/s | -46.4°C | 3.0% | 0hPa | 2.5V | 00:00:00 | 02:05:37 | 00:00:00 | |
| OE5MMP-10 | 2026-09-02 00:30:02 | 46.03516 | 13.92319 | 269° | 9km/h | 28106m | 4.9m/s | -46.5°C | 3.1% | 0hPa | 2.5V | 00:00:00 | 02:05:32 | 00:00:00 | |
| PETON7-10 | 2026-09-02 00:30:01 | 46.03515 | 13.92320 | 320° | 7km/h | 28101m | 6.0m/s | -46.4°C | 3.1% | 0hPa | 2.5V | 00:00:00 | 02:05:31 | 00:00:00 | |
| DB0UT-7 | 2026-09-02 00:30:00 | 46.03514 | 13.92321 | 360° | 9km/h | 28094m | 6.6m/s | -46.4°C | 3.1% | 0hPa | 2.5V | 00:00:00 | 02:05:30 | 00:00:00 | |
| 9A1FER-10 | 2026-09-02 00:29:59 | 46.03511 | 13.92320 | 18° | 7km/h | 28088m | 5.4m/s | -46.4°C | 3.0% | 0hPa | 2.5V | 00:00:00 | 02:05:29 | 00:00:00 | |
| DO3MHA-11 | 2026-09-02 00:29:58 | 46.03508 | 13.92318 | 31° | 9km/h | 28083m | 4.9m/s | -46.3°C | 3.0% | 0hPa | 2.5V | 00:00:00 | 02:05:28 | 00:00:00 | |
| OE8JPQ-2 | 2026-09-02 00:29:57 | 46.03506 | 13.92315 | 44° | 9km/h | 28078m | 5.6m/s | -46.3°C | 3.0% | 0hPa | 2.5V | 00:00:00 | 00:00:00 | 00:00:00 | |
| IN3HCDX1 | 2026-09-02 00:29:56 | 46.03506 | 13.92315 | 45° | 13km/h | 28078m | 5.6m/s | -46.4°C | 0.8% | 0hPa | 2.5V | 00:00:00 | 00:00:00 | 00:00:00 | |
| 9A1FER-3 | 2026-09-02 00:29:55 | 46.03503 | 13.92309 | 102° | 9km/h | 28065m | 5.9m/s | -46.3°C | 3.0% | 0hPa | 2.5V | 00:00:00 | 02:05:25 | 00:00:00 | |
| OE5MMP-10 | 2026-09-02 00:29:52 | 46.03506 | 13.92305 | 225° | 7km/h | 28048m | 6.6m/s | -46.2°C | 3.0% | 0hPa | 2.5V | 00:00:00 | 02:05:22 | 00:00:00 | |
| IN3HCDX | 2026-09-02 00:29:51 | 46.03506 | 13.92305 | 0° | 0km/h | 28048m | 6.7m/s | -46.3°C | 0.8% | 0hPa | 2.5V | 00:00:00 | 00:00:00 | 00:00:00 | |
| DG1MFX-10 | 2026-09-02 00:29:50 | 46.03506 | 13.92306 | 311° | 5km/h | 28042m | 6.2m/s | -46.3°C | 0.8% | 0hPa | 2.5V | 00:00:00 | 00:00:00 | 00:00:00 | |
| OE5DXL-15 | 2026-09-02 00:29:49 | 46.03503 | 13.92309 | 325° | 11km/h | 28030m | 5.8m/s | -46.3°C | 3.0% | 0hPa | 2.5V | 00:00:00 | 00:00:00 | 00:00:00 | |
| OE5WHR-10 | 2026-09-02 00:29:47 | 46.03501 | 13.92310 | 50° | 11km/h | 28018m | 5.7m/s | -46.3°C | 3.1% | 0hPa | 2.5V | 00:00:00 | 00:00:00 | 00:00:00 | |
| PETON7-10 | 2026-09-02 00:29:46 | 46.03501 | 13.92309 | 78° | 13km/h | 28012m | 5.1m/s | -46.3°C | 3.0% | 0hPa | 2.5V | 00:00:00 | 00:00:00 | 08:30:00 | |
| 9A1FER-10 | 2026-09-02 00:29:44 | 46.03500 | 13.92301 | 75° | 13km/h | 28000m | 6.5m/s | -46.3°C | 3.0% | 0hPa | 2.5V | 00:00:00 | 02:05:14 | 00:00:00 | |
| NBG1-10 | 2026-09-02 00:29:43 | 46.03499 | 13.92295 | 78° | 11km/h | 27994m | 5.2m/s | -46.3°C | 3.1% | 0hPa | 2.5V | 00:00:00 | 02:05:13 | 00:00:00 | |
| OE5MMP-10 | 2026-09-02 00:29:42 | 46.03498 | 13.92289 | 89° | 11km/h | 27989m | 4.9m/s | -46.3°C | 3.1% | 0hPa | 2.5V | 00:00:00 | 02:05:12 | 00:00:00 | |
| 9A1FER-3 | 2026-09-02 00:29:40 | 46.03500 | 13.92279 | 130° | 9km/h | 27976m | 6.1m/s | -46.2°C | 3.0% | 0hPa | 2.5V | 00:00:00 | 02:05:10 | 00:00:00 | |
| OE3JTB-15 | 2026-09-02 00:29:38 | 46.03505 | 13.92275 | 162° | 13km/h | 27965m | 5.5m/s | -46.2°C | 3.0% | 0hPa | 2.5V | 00:00:00 | 00:00:00 | 00:00:00 | |
| OE8JPQ-2 | 2026-09-02 00:29:37 | 46.03506 | 13.92274 | 150° | 13km/h | 27959m | 5.8m/s | -46.2°C | 3.0% | 0hPa | 2.5V | 00:00:00 | 00:00:00 | 00:00:00 | |
| OE5DRO-10 | 2026-09-02 00:29:36 | 46.03506 | 13.92273 | 79° | 13km/h | 27954m | 5.4m/s | -46.2°C | 3.0% | 0hPa | 2.5V | 00:00:00 | 00:00:00 | 00:00:00 | |
| OE5MMP-10 | 2026-09-02 00:29:32 | 46.03504 | 13.92256 | 91° | 9km/h | 27930m | 6.2m/s | -46.1°C | 3.0% | 0hPa | 2.5V | 00:00:00 | 02:05:02 | 00:00:00 | |
| PETON7-10 | 2026-09-02 00:29:31 | 46.03504 | 13.92249 | 96° | 13km/h | 27925m | 5.0m/s | -46.1°C | 3.0% | 0hPa | 2.5V | 00:00:00 | 00:00:00 | 00:00:00 | |
| DB0UT-7 | 2026-09-02 00:29:30 | 46.03504 | 13.92244 | 93° | 15km/h | 27920m | 5.0m/s | -46.1°C | 3.0% | 0hPa | 2.5V | 00:00:00 | 00:00:00 | 00:00:00 | |
| 9A1FER-10 | 2026-09-02 00:29:29 | 46.03504 | 13.92240 | 86° | 13km/h | 27914m | 6.8m/s | -46.1°C | 3.0% | 0hPa | 2.5V | 00:00:00 | 02:04:59 | 00:00:00 | |
| PG1ADW-2 | 2026-09-02 00:29:27 | 46.03503 | 13.92236 | 32° | 13km/h | 27902m | 5.1m/s | -46.1°C | 3.0% | 0hPa | 2.6V | 00:00:00 | 00:00:00 | 00:00:00 | |
| OE5WHR-10 | 2026-09-02 00:29:26 | 46.03504 | 13.92237 | 201° | 15km/h | 27897m | 5.5m/s | -46.1°C | 3.0% | 0hPa | 2.5V | 00:00:00 | 02:04:56 | 00:00:00 | |
| 9A1FER-3 | 2026-09-02 00:29:25 | 46.03505 | 13.92237 | 178° | 15km/h | 27891m | 6.4m/s | -46.1°C | 3.0% | 0hPa | 2.5V | 00:00:00 | 02:04:55 | 00:00:00 | |
| OE5MMP-10 | 2026-09-02 00:29:22 | 46.03511 | 13.92228 | 108° | 16km/h | 27875m | 4.8m/s | -46.1°C | 3.0% | 0hPa | 2.5V | 00:00:00 | 02:04:52 | 00:00:00 | |
| DO3MHA-11 | 2026-09-02 00:29:21 | 46.03512 | 13.92222 | 88° | 20km/h | 27870m | 6.4m/s | -46.1°C | 3.0% | 0hPa | 2.5V | 00:00:00 | 02:04:51 | 00:00:00 | |
| OE5DXL-15 | 2026-09-02 00:29:19 | 46.03508 | 13.92206 | 60° | 15km/h | 27857m | 5.9m/s | -46.2°C | 3.0% | 0hPa | 2.5V | 00:00:00 | 00:00:00 | 08:30:00 | |
| OE8JPQ-2 | 2026-09-02 00:29:17 | 46.03502 | 13.92193 | 60° | 15km/h | 27846m | 6.0m/s | -46.2°C | 3.0% | 0hPa | 2.5V | 00:00:00 | 02:04:47 | 00:00:00 | |
| PETON7-10 | 2026-09-02 00:29:16 | 46.03501 | 13.92188 | 68° | 18km/h | 27840m | 6.1m/s | -46.2°C | 3.0% | 0hPa | 2.5V | 00:00:00 | 02:04:46 | 00:00:00 | |
| 9A1FER-10 | 2026-09-02 00:29:14 | 46.03500 | 13.92182 | 101° | 16km/h | 27828m | 5.6m/s | -46.3°C | 3.0% | 0hPa | 2.5V | 00:00:00 | 02:04:44 | 00:00:00 | |
| OE5MMP-10 | 2026-09-02 00:29:12 | 46.03500 | 13.92178 | 73° | 18km/h | 27816m | 5.8m/s | -46.2°C | 3.0% | 0hPa | 2.5V | 00:00:00 | 02:04:42 | 08:30:00 | |
| 9A1FER-3 | 2026-09-02 00:29:10 | 46.03498 | 13.92171 | 75° | 16km/h | 27804m | 5.2m/s | -46.2°C | 3.0% | 0hPa | 2.5V | 00:00:00 | 02:04:40 | 00:00:00 | |
| NBG1-10 | 2026-09-02 00:29:09 | 46.03497 | 13.92165 | 83° | 15km/h | 27799m | 6.2m/s | -46.2°C | 3.0% | 0hPa | 2.5V | 00:00:00 | 02:04:39 | 00:00:00 | |
| DO3MHA-11 | 2026-09-02 00:29:07 | 46.03496 | 13.92150 | 84° | 15km/h | 27786m | 5.0m/s | -46.1°C | 3.0% | 0hPa | 2.5V | 00:00:00 | 02:04:37 | 00:00:00 | |
| OE5WHR-10 | 2026-09-02 00:29:05 | 46.03493 | 13.92133 | 63° | 16km/h | 27776m | 6.5m/s | -46.1°C | 3.0% | 0hPa | 2.5V | 00:00:00 | 00:00:00 | 00:00:00 | |
| OE5MMP-10 | 2026-09-02 00:29:02 | 46.03480 | 13.92116 | 26° | 11km/h | 27759m | 5.9m/s | -46.1°C | 3.0% | 0hPa | 2.5V | 00:00:00 | 02:04:32 | 00:00:00 | |
| PETON7-10 | 2026-09-02 00:29:01 | 46.03477 | 13.92114 | 18° | 13km/h | 27753m | 6.6m/s | -46.1°C | 3.0% | 0hPa | 2.5V | 00:00:00 | 00:00:00 | 00:00:00 | |
| DB0UT-7 | 2026-09-02 00:29:00 | 46.03475 | 13.92113 | 5° | 13km/h | 27746m | 6.2m/s | -46.1°C | 3.0% | 0hPa | 2.5V | 00:00:00 | 02:04:30 | 08:30:00 | |
| 9A1FER-10 | 2026-09-02 00:28:59 | 46.03473 | 13.92113 | 351° | 15km/h | 27740m | 5.4m/s | -46.1°C | 2.9% | 0hPa | 2.6V | 00:00:00 | 02:04:29 | 00:00:00 | |
| OE5DRO-10 | 2026-09-02 00:28:58 | 46.03472 | 13.92113 | 356° | 9km/h | 27735m | 5.6m/s | -46.1°C | 3.0% | 0hPa | 2.6V | 00:00:00 | 00:00:00 | 08:30:00 | |
| OE8JPQ-2 | 2026-09-02 00:28:57 | 46.03470 | 13.92113 | 19° | 13km/h | 27729m | 6.3m/s | -46.1°C | 2.9% | 0hPa | 2.6V | 00:00:00 | 00:00:00 | 00:00:00 | |
| 9A1FER-3 | 2026-09-02 00:28:55 | 46.03467 | 13.92108 | 56° | 15km/h | 27718m | 4.7m/s | -46.1°C | 2.9% | 0hPa | 2.5V | 00:00:00 | 02:04:25 | 08:30:00 | |
| OE5MMP-10 | 2026-09-02 00:28:52 | 46.03463 | 13.92092 | 82° | 16km/h | 27700m | 5.4m/s | -46.1°C | 2.9% | 0hPa | 2.5V | 00:00:00 | 02:04:22 | 00:00:00 | |
| OE5DXL-15 | 2026-09-02 00:28:49 | 46.03457 | 13.92076 | 34° | 11km/h | 27685m | 6.5m/s | -46.2°C | 2.9% | 0hPa | 2.5V | 00:00:00 | 00:00:00 | 00:00:00 | |
| DG1MFX-10 | 2026-09-02 00:28:48 | 46.03457 | 13.92076 | 34° | 18km/h | 27685m | 6.6m/s | -46.3°C | 0.8% | 0hPa | 2.5V | 00:00:00 | 00:00:00 | 00:00:00 | |
| PG1ADW-2 | 2026-09-02 00:28:47 | 46.03447 | 13.92072 | 4° | 11km/h | 27673m | 4.6m/s | -46.4°C | 3.0% | 0hPa | 2.5V | 00:00:00 | 02:04:17 | 00:00:00 | |
| PETON7-10 | 2026-09-02 00:28:46 | 46.03442 | 13.92071 | 358° | 11km/h | 27668m | 4.9m/s | -46.4°C | 3.0% | 0hPa | 2.5V | 00:00:00 | 00:00:00 | 00:00:00 | |
| OE5WHR-10 | 2026-09-02 00:28:44 | 46.03434 | 13.92073 | 344° | 9km/h | 27657m | 5.7m/s | -46.4°C | 3.0% | 0hPa | 2.5V | 00:00:00 | 00:00:00 | 00:00:00 | |
| DO3MHA-11 | 2026-09-02 00:28:42 | 46.03432 | 13.92074 | 336° | 9km/h | 27647m | 4.8m/s | -46.5°C | 3.0% | 0hPa | 2.5V | 00:00:00 | 02:04:12 | 00:00:00 | |
| 9A1FER-3 | 2026-09-02 00:28:40 | 46.03430 | 13.92075 | 2° | 11km/h | 27635m | 6.1m/s | -46.6°C | 3.0% | 0hPa | 2.5V | 00:00:00 | 02:04:10 | 00:00:00 | |
| OE3JTB-15 | 2026-09-02 00:28:38 | 46.03423 | 13.92074 | 2° | 13km/h | 27624m | 4.8m/s | -46.7°C | 3.0% | 0hPa | 2.5V | 00:00:00 | 00:00:00 | 08:30:00 | |
| OE8JPQ-2 | 2026-09-02 00:28:37 | 46.03419 | 13.92074 | 359° | 9km/h | 27619m | 4.9m/s | -46.7°C | 3.0% | 0hPa | 2.5V | 00:00:00 | 00:00:00 | 00:00:00 | |
| NBG1-10 | 2026-09-02 00:28:36 | 46.03416 | 13.92075 | 356° | 11km/h | 27613m | 6.4m/s | -46.8°C | 3.0% | 0hPa | 2.5V | 00:00:00 | 02:04:06 | 00:00:00 | |
| IN3HCDX1 | 2026-09-02 00:28:35 | 46.03416 | 13.92075 | 357° | 13km/h | 27613m | 6.4m/s | -46.8°C | 0.8% | 0hPa | 2.5V | 00:00:00 | 00:00:00 | 00:00:00 | |
| OE5MMP-10 | 2026-09-02 00:28:32 | 46.03406 | 13.92076 | 357° | 9km/h | 27589m | 6.5m/s | -46.9°C | 3.1% | 0hPa | 2.5V | 00:00:00 | 02:04:02 | 00:00:00 | |
| PETON7-10 | 2026-09-02 00:28:31 | 46.03403 | 13.92077 | 2° | 9km/h | 27583m | 5.6m/s | -46.9°C | 3.1% | 0hPa | 2.5V | 00:00:00 | 02:04:01 | 00:00:00 | |
| DB0UT-7 | 2026-09-02 00:28:30 | 46.03399 | 13.92076 | 4° | 11km/h | 27578m | 4.9m/s | -46.9°C | 3.1% | 0hPa | 2.5V | 00:00:00 | 00:00:00 | 00:00:00 | |
| 9A1FER-10 | 2026-09-02 00:28:29 | 46.03396 | 13.92076 | 4° | 7km/h | 27573m | 5.4m/s | -46.9°C | 3.1% | 0hPa | 2.5V | 00:00:00 | 02:03:59 | 00:00:00 | |
| IV3AMH | 2026-09-02 00:28:28 | 46.03396 | 13.92076 | 4° | 11km/h | 27573m | 5.4m/s | -46.9°C | 0.8% | 0hPa | 2.5V | 00:00:00 | 00:00:00 | 00:00:00 | |
| PG1ADW-2 | 2026-09-02 00:28:27 | 46.03392 | 13.92076 | 335° | 11km/h | 27561m | 5.3m/s | -46.9°C | 3.1% | 0hPa | 2.5V | 00:00:00 | 00:00:00 | 00:00:00 | |
| 9A1FER-3 | 2026-09-02 00:28:25 | 46.03390 | 13.92078 | 329° | 11km/h | 27551m | 6.1m/s | -46.9°C | 3.1% | 0hPa | 2.6V | 00:00:00 | 02:03:55 | 00:00:00 | |
| OE5WHR-10 | 2026-09-02 00:28:23 | 46.03386 | 13.92081 | 338° | 11km/h | 27539m | 4.9m/s | -46.8°C | 3.1% | 0hPa | 2.6V | 00:00:00 | 02:03:53 | 00:00:00 | |
| OE5MMP-10 | 2026-09-02 00:28:22 | 46.03383 | 13.92083 | 336° | 7km/h | 27534m | 4.1m/s | -46.8°C | 3.0% | 0hPa | 2.6V | 00:00:00 | 02:03:52 | 00:00:00 | |
| OE5DXL-15 | 2026-09-02 00:28:19 | 46.03380 | 13.92086 | 177° | 13km/h | 27518m | 5.9m/s | -46.9°C | 3.1% | 0hPa | 2.6V | 00:00:00 | 00:00:00 | 00:00:00 | |
| OE8JPQ-2 | 2026-09-02 00:28:17 | 46.03383 | 13.92083 | 120° | 13km/h | 27508m | 4.6m/s | -47.0°C | 3.1% | 0hPa | 2.6V | 00:00:00 | 02:03:47 | 00:00:00 | |
| PETON7-10 | 2026-09-02 00:28:16 | 46.03383 | 13.92080 | 90° | 15km/h | 27502m | 5.7m/s | -47.0°C | 3.1% | 0hPa | 2.6V | 00:00:00 | 00:00:00 | 00:00:00 | |
| 9A1FER-10 | 2026-09-02 00:28:14 | 46.03380 | 13.92072 | 40° | 13km/h | 27490m | 5.4m/s | -47.0°C | 3.1% | 0hPa | 2.5V | 00:00:00 | 02:03:44 | 00:00:00 | |
| OE5MMP-10 | 2026-09-02 00:28:12 | 46.03372 | 13.92068 | 360° | 11km/h | 27480m | 6.2m/s | -47.0°C | 3.0% | 0hPa | 2.5V | 00:00:00 | 02:03:42 | 00:00:00 | |
| 9A1FER-3 | 2026-09-02 00:28:10 | 46.03364 | 13.92073 | 315° | 13km/h | 27468m | 4.9m/s | -47.0°C | 3.1% | 0hPa | 2.6V | 00:00:00 | 02:03:40 | 00:00:00 | |
| OE3JTB-15 | 2026-09-02 00:28:09 | 46.03361 | 13.92078 | 308° | 9km/h | 27463m | 4.5m/s | -47.1°C | 3.1% | 0hPa | 2.5V | 00:00:00 | 00:00:00 | 00:00:00 | |
| DG1MFX-10 | 2026-09-02 00:28:08 | 46.03361 | 13.92078 | 308° | 20km/h | 27463m | 4.6m/s | -47.1°C | 0.8% | 0hPa | 2.5V | 00:00:00 | 00:00:00 | 00:00:00 | |
| NBG1-10 | 2026-09-02 00:28:03 | 46.03347 | 13.92092 | 87° | 9km/h | 27431m | 6.7m/s | -47.2°C | 3.1% | 0hPa | 2.5V | 00:00:00 | 02:03:33 | 00:00:00 | |
| OE5WHR-10 | 2026-09-02 00:28:02 | 46.03347 | 13.92090 | 130° | 9km/h | 27425m | 6.0m/s | -47.3°C | 3.1% | 0hPa | 2.5V | 00:00:00 | 00:00:00 | 00:00:00 | |
| OE5MMP-10 | 2026-09-02 00:28:00 | 46.03350 | 13.92085 | 115° | 11km/h | 27415m | 4.5m/s | -47.3°C | 3.1% | 0hPa | 2.6V | 00:00:00 | 02:03:30 | 00:00:00 | |
| 9A1FER-10 | 2026-09-02 00:27:59 | 46.03351 | 13.92082 | 80° | 9km/h | 27409m | 5.4m/s | -47.3°C | 3.1% | 0hPa | 2.6V | 00:00:00 | 02:03:29 | 00:00:00 | |
| OE8JPQ-2 | 2026-09-02 00:27:57 | 46.03346 | 13.92077 | 19° | 9km/h | 27398m | 5.1m/s | -47.3°C | 3.1% | 0hPa | 2.5V | 00:00:00 | 00:00:00 | 08:30:00 | |
| 9A1FER-3 | 2026-09-02 00:27:55 | 46.03338 | 13.92076 | 347° | 9km/h | 27388m | 5.8m/s | -47.2°C | 3.1% | 0hPa | 2.5V | 00:00:00 | 02:03:25 | 00:00:00 | |
| IN3HCDX1 | 2026-09-02 00:27:53 | 46.03335 | 13.92078 | 326° | 15km/h | 27382m | 6.2m/s | -47.3°C | 0.8% | 0hPa | 2.5V | 00:00:00 | 00:00:00 | 00:00:00 | |
| DO3MHA-11 | 2026-09-02 00:27:52 | 46.03331 | 13.92086 | 287° | 5km/h | 27371m | 4.7m/s | -47.2°C | 3.1% | 0hPa | 2.5V | 00:00:00 | 02:03:22 | 00:00:00 | |
| OE5DXL-15 | 2026-09-02 00:27:49 | 46.03329 | 13.92091 | 23° | 13km/h | 27354m | 5.3m/s | -47.2°C | 3.1% | 0hPa | 2.5V | 00:00:00 | 00:00:00 | 00:00:00 | |
| OE5MMP-10 | 2026-09-02 00:27:48 | 46.03329 | 13.92090 | 57° | 7km/h | 27349m | 5.1m/s | -47.2°C | 3.1% | 0hPa | 2.5V | 00:00:00 | 02:03:18 | 00:00:00 | |
| DG1MFX-10 | 2026-09-02 00:27:47 | 46.03329 | 13.92090 | 57° | 4km/h | 27349m | 5.2m/s | -47.3°C | 0.8% | 0hPa | 2.5V | 00:00:00 | 00:00:00 | 00:00:00 | |
| PETON7-10 | 2026-09-02 00:27:46 | 46.03328 | 13.92087 | 92° | 11km/h | 27337m | 5.8m/s | -47.3°C | 3.1% | 0hPa | 2.5V | 00:00:00 | 02:03:16 | 00:00:00 | |
| 9A1FER-10 | 2026-09-02 00:27:44 | 46.03327 | 13.92085 | 24° | 13km/h | 27327m | 4.7m/s | -47.3°C | 3.1% | 0hPa | 2.5V | 00:00:00 | 02:03:14 | 00:00:00 | |
| DO3MHA-11 | 2026-09-02 00:27:42 | 46.03323 | 13.92084 | 359° | 15km/h | 27316m | 5.4m/s | -47.4°C | 3.1% | 0hPa | 2.5V | 00:00:00 | 02:03:12 | 00:00:00 | |
| OE5WHR-10 | 2026-09-02 00:27:41 | 46.03320 | 13.92085 | 344° | 15km/h | 27311m | 4.8m/s | -47.4°C | 3.1% | 0hPa | 2.5V | 00:00:00 | 00:00:00 | 00:00:00 | |
| 9A1FER-3 | 2026-09-02 00:27:40 | 46.03317 | 13.92087 | 324° | 13km/h | 27306m | 5.6m/s | -47.5°C | 3.1% | 0hPa | 2.5V | 00:00:00 | 02:03:10 | 00:00:00 | |
| OE5MMP-10 | 2026-09-02 00:27:38 | 46.03313 | 13.92096 | 287° | 13km/h | 27294m | 5.0m/s | -47.6°C | 3.2% | 0hPa | 2.5V | 00:00:00 | 02:03:08 | 08:30:00 | |
| OE8JPQ-2 | 2026-09-02 00:27:37 | 46.03312 | 13.92101 | 286° | 15km/h | 27289m | 4.5m/s | -47.6°C | 3.1% | 0hPa | 2.5V | 00:00:00 | 00:00:00 | 00:00:00 | |
| DO3MHA-11 | 2026-09-02 00:27:33 | 46.03302 | 13.92122 | 317° | 13km/h | 27263m | 6.2m/s | -47.7°C | 3.2% | 0hPa | 2.5V | 00:00:00 | 02:03:02 | 00:00:00 | |
| DO3MHA-12 | 2026-09-02 00:27:32 | 46.03302 | 13.92122 | 317° | 15km/h | 27263m | 6.2m/s | -47.7°C | 3.2% | 0hPa | 2.5V | 00:00:00 | 02:03:02 | 00:00:00 | |
| PETON7-10 | 2026-09-02 00:27:31 | 46.03300 | 13.92124 | 310° | 13km/h | 27257m | 6.0m/s | -47.8°C | 3.2% | 0hPa | 2.5V | 00:00:00 | 00:00:00 | 08:30:00 | |
| NBG1-10 | 2026-09-02 00:27:30 | 46.03299 | 13.92127 | 312° | 11km/h | 27251m | 5.2m/s | -47.8°C | 3.1% | 0hPa | 2.5V | 00:00:00 | 02:03:00 | 00:00:00 | |
| 9A1FER-10 | 2026-09-02 00:27:29 | 46.03297 | 13.92128 | 329° | 13km/h | 27246m | 5.0m/s | -47.8°C | 3.2% | 0hPa | 2.5V | 00:00:00 | 02:02:59 | 00:00:00 | |
| OE5MMP-10 | 2026-09-02 00:27:28 | 46.03295 | 13.92130 | 341° | 16km/h | 27240m | 6.2m/s | -47.8°C | 3.2% | 0hPa | 2.5V | 00:00:00 | 02:02:58 | 00:00:00 | |
| PG1ADW-2 | 2026-09-02 00:27:26 | 46.03289 | 13.92133 | 330° | 13km/h | 27230m | 3.9m/s | -47.8°C | 3.2% | 0hPa | 2.5V | 00:00:00 | 02:02:56 | 08:30:00 | |
| 9A1FER-3 | 2026-09-02 00:27:25 | 46.03286 | 13.92137 | 314° | 11km/h | 27225m | 4.7m/s | -47.9°C | 3.2% | 0hPa | 2.6V | 00:00:00 | 02:02:55 | 00:00:00 | |
| DG1MFX-10 | 2026-09-02 00:27:24 | 46.03286 | 13.92137 | 315° | 18km/h | 27225m | 4.7m/s | -47.9°C | 0.9% | 0hPa | 2.5V | 00:00:00 | 00:00:00 | 00:00:00 | |
| DO3MHA-11 | 2026-09-02 00:27:22 | 46.03281 | 13.92157 | 274° | 9km/h | 27209m | 4.2m/s | -47.9°C | 3.3% | 0hPa | 2.5V | 00:00:00 | 02:02:52 | 08:30:00 | |
| OE5WHR-10 | 2026-09-02 00:27:20 | 46.03280 | 13.92171 | 280° | 9km/h | 27198m | 5.6m/s | -47.9°C | 3.2% | 0hPa | 2.5V | 00:00:00 | 02:02:50 | 00:00:00 | |
| OE5DXL-15 | 2026-09-02 00:27:19 | 46.03280 | 13.92175 | 291° | 7km/h | 27192m | 5.4m/s | -47.9°C | 3.2% | 0hPa | 2.5V | 00:00:00 | 00:00:00 | 00:00:00 | |
| OE5MMP-10 | 2026-09-02 00:27:18 | 46.03279 | 13.92177 | 302° | 5km/h | 27187m | 5.4m/s | -47.9°C | 3.2% | 0hPa | 2.5V | 00:00:00 | 02:02:48 | 00:00:00 | |
| OE8JPQ-2 | 2026-09-02 00:27:17 | 46.03278 | 13.92178 | 304° | 9km/h | 27181m | 6.5m/s | -47.9°C | 3.2% | 0hPa | 2.5V | 00:00:00 | 02:02:47 | 00:00:00 | |
| PETON7-10 | 2026-09-02 00:27:16 | 46.03278 | 13.92179 | 126° | 9km/h | 27174m | 6.0m/s | -47.9°C | 3.2% | 0hPa | 2.5V | 00:00:00 | 00:00:00 | 00:00:00 | |
| 9A1FER-10 | 2026-09-02 00:27:14 | 46.03278 | 13.92177 | 39° | 9km/h | 27164m | 5.4m/s | -47.9°C | 3.2% | 0hPa | 2.5V | 00:00:00 | 02:02:44 | 00:00:00 | |
| DO3MHA-11 | 2026-09-02 00:27:12 | 46.03274 | 13.92175 | 5° | 13km/h | 27152m | 4.7m/s | -47.9°C | 3.2% | 0hPa | 2.5V | 00:00:00 | 02:02:42 | 00:00:00 | |
| 9A1FER-3 | 2026-09-02 00:27:10 | 46.03270 | 13.92177 | 317° | 9km/h | 27142m | 6.5m/s | -47.8°C | 3.2% | 0hPa | 2.5V | 00:00:00 | 02:02:40 | 00:00:00 | |
| OE3JTB-15 | 2026-09-02 00:27:09 | 46.03269 | 13.92180 | 285° | 7km/h | 27136m | 6.0m/s | -47.8°C | 3.2% | 0hPa | 2.5V | 00:00:00 | 00:00:00 | 00:00:00 | |
| OE5MMP-10 | 2026-09-02 00:27:08 | 46.03268 | 13.92184 | 277° | 11km/h | 27131m | 4.8m/s | -47.8°C | 3.2% | 0hPa | 2.5V | 00:00:00 | 02:02:38 | 00:00:00 | |
| PG1ADW-2 | 2026-09-02 00:27:06 | 46.03267 | 13.92195 | 287° | 7km/h | 27119m | 5.8m/s | -47.8°C | 3.2% | 0hPa | 2.5V | 00:00:00 | 00:00:00 | 00:00:00 | |
| DG1MFX-10 | 2026-09-02 00:27:04 | 46.03265 | 13.92200 | 290° | 15km/h | 27114m | 5.2m/s | -47.9°C | 0.9% | 0hPa | 2.5V | 00:00:00 | 00:00:00 | 00:00:00 | |
| IV3AMH | 2026-09-02 00:27:03 | 46.03264 | 13.92205 | 286° | 13km/h | 27108m | 5.6m/s | -47.9°C | 0.9% | 0hPa | 2.5V | 00:00:00 | 00:00:00 | 00:00:00 | |
| DO3MHA-11 | 2026-09-02 00:27:02 | 46.03264 | 13.92211 | 260° | 7km/h | 27096m | 5.2m/s | -47.8°C | 3.3% | 0hPa | 2.5V | 00:00:00 | 02:02:32 | 00:00:00 | |
| PETON7-10 | 2026-09-02 00:27:01 | 46.03264 | 13.92212 | 42° | 5km/h | 27091m | 5.0m/s | -47.8°C | 3.3% | 0hPa | 2.5V | 00:00:00 | 02:02:31 | 00:00:00 | |
| DB0UT-7 | 2026-09-02 00:27:00 | 46.03263 | 13.92211 | 43° | 5km/h | 27085m | 6.3m/s | -47.8°C | 3.3% | 0hPa | 2.5V | 00:00:00 | 02:02:30 | 00:00:00 | |
| OE5WHR-10 | 2026-09-02 00:26:59 | 46.03262 | 13.92209 | 36° | 5km/h | 27079m | 6.0m/s | -47.8°C | 3.2% | 0hPa | 2.5V | 00:00:00 | 00:00:00 | 08:30:00 | |
| OE5MMP-10 | 2026-09-02 00:26:58 | 46.03259 | 13.92206 | 32° | 7km/h | 27074m | 4.5m/s | -47.8°C | 3.3% | 0hPa | 2.5V | 00:00:00 | 02:02:28 | 00:00:00 | |
| DO3MHA-12 | 2026-09-02 00:26:55 | 46.03254 | 13.92203 | 281° | 5km/h | 27058m | 5.3m/s | -47.7°C | 3.2% | 0hPa | 2.5V | 00:00:00 | 02:02:25 | 00:00:00 | |
| DO3MHA-11 | 2026-09-02 00:26:52 | 46.03255 | 13.92209 | 276° | 4km/h | 27042m | 6.1m/s | -47.7°C | 3.2% | 0hPa | 2.5V | 00:00:00 | 02:02:22 | 00:00:00 | |
| OE5DXL-15 | 2026-09-02 00:26:49 | 46.03253 | 13.92215 | 304° | 5km/h | 27025m | 5.1m/s | -47.9°C | 3.3% | 0hPa | 2.5V | 00:00:00 | 00:00:00 | 00:00:00 | |
| OE5MMP-10 | 2026-09-02 00:26:48 | 46.03253 | 13.92216 | 272° | 4km/h | 27020m | 6.6m/s | -47.9°C | 3.3% | 0hPa | 2.5V | 00:00:00 | 02:02:18 | 00:00:00 | |
| PG1ADW-2 | 2026-09-02 00:26:46 | 46.03253 | 13.92218 | 222° | 4km/h | 27008m | 4.6m/s | -47.9°C | 3.3% | 0hPa | 2.5V | 00:00:00 | 00:00:00 | 00:00:00 | |
| DO3MHA-12 | 2026-09-02 00:26:45 | 46.03253 | 13.92219 | 16° | 4km/h | 27003m | 5.7m/s | -47.9°C | 3.3% | 0hPa | 2.5V | 00:00:00 | 02:02:15 | 08:30:00 | |
| 9A1FER-10 | 2026-09-02 00:26:44 | 46.03253 | 13.92218 | 25° | 5km/h | 26997m | 6.3m/s | -47.9°C | 3.3% | 0hPa | 2.5V | 00:00:00 | 02:02:14 | 00:00:00 | |
| DG1MFX-10 | 2026-09-02 00:26:43 | 46.03253 | 13.92218 | 26° | 4km/h | 26997m | 6.4m/s | -47.9°C | 0.9% | 0hPa | 2.5V | 00:00:00 | 00:00:00 | 00:00:00 | |
| DO3MHA-11 | 2026-09-02 00:26:42 | 46.03251 | 13.92217 | 7° | 4km/h | 26987m | 4.5m/s | -47.8°C | 3.3% | 0hPa | 2.5V | 00:00:00 | 02:02:12 | 00:00:00 | |
| 9A1FER-3 | 2026-09-02 00:26:40 | 46.03250 | 13.92218 | 244° | 4km/h | 26975m | 6.0m/s | -47.7°C | 3.2% | 0hPa | 2.5V | 00:00:00 | 02:02:10 | 08:30:00 | |
| OE3JTB-15 | 2026-09-02 00:26:39 | 46.03250 | 13.92220 | 233° | 9km/h | 26969m | 5.2m/s | -47.7°C | 3.3% | 0hPa | 2.6V | 00:00:00 | 00:00:00 | 00:00:00 | |
| OE5MMP-10 | 2026-09-02 00:26:38 | 46.03251 | 13.92222 | 235° | 5km/h | 26964m | 5.5m/s | -47.7°C | 3.3% | 0hPa | 2.6V | 00:00:00 | 02:02:08 | 00:00:00 | |
| OE8JPQ-2 | 2026-09-02 00:26:37 | 46.03252 | 13.92223 | 247° | 7km/h | 26958m | 6.2m/s | -47.6°C | 3.3% | 0hPa | 2.5V | 00:00:00 | 00:00:00 | 00:00:00 | |
| DO3MHA-12 | 2026-09-02 00:26:35 | 46.03253 | 13.92225 | 235° | 5km/h | 26947m | 4.7m/s | -47.6°C | 3.2% | 0hPa | 2.5V | 00:00:00 | 02:02:05 | 00:00:00 | |
| DO3MHA-11 | 2026-09-02 00:26:32 | 46.03256 | 13.92228 | 202° | 7km/h | 26929m | 5.2m/s | -47.5°C | 3.2% | 0hPa | 2.5V | 00:00:00 | 02:02:02 | 00:00:00 | |
| PETON7-10 | 2026-09-02 00:26:31 | 46.03258 | 13.92229 | 196° | 9km/h | 26924m | 4.8m/s | -47.5°C | 3.2% | 0hPa | 2.5V | 00:00:00 | 00:00:00 | 00:00:00 | |
| DB0UT-7 | 2026-09-02 00:26:30 | 46.03260 | 13.92230 | 180° | 9km/h | 26919m | 6.4m/s | -47.5°C | 3.2% | 0hPa | 2.5V | 00:00:00 | 00:00:00 | 00:00:00 | |
| 9A1FER-10 | 2026-09-02 00:26:29 | 46.03260 | 13.92229 | 91° | 9km/h | 26912m | 5.9m/s | -47.5°C | 3.2% | 0hPa | 2.5V | 00:00:00 | 02:01:59 | 08:30:00 | |
| OE5MMP-10 | 2026-09-02 00:26:28 | 46.03260 | 13.92228 | 68° | 9km/h | 26907m | 4.8m/s | -47.5°C | 3.2% | 0hPa | 2.6V | 00:00:00 | 02:01:58 | 00:00:00 | |
| PG1ADW-2 | 2026-09-02 00:26:26 | 46.03260 | 13.92228 | 215° | 11km/h | 26896m | 6.3m/s | -47.5°C | 3.2% | 0hPa | 2.6V | 00:00:00 | 00:00:00 | 00:00:00 | |
| 9A1FER-3 | 2026-09-02 00:26:25 | 46.03262 | 13.92230 | 226° | 11km/h | 26890m | 5.7m/s | -47.5°C | 3.2% | 0hPa | 2.5V | 00:00:00 | 02:01:55 | 00:00:00 | |
| NBG1-10 | 2026-09-02 00:26:24 | 46.03264 | 13.92233 | 234° | 11km/h | 26885m | 4.7m/s | -47.4°C | 3.2% | 0hPa | 2.5V | 00:00:00 | 02:01:54 | 00:00:00 | |
| DO3MHA-11 | 2026-09-02 00:26:22 | 46.03267 | 13.92242 | 253° | 9km/h | 26874m | 6.1m/s | -47.4°C | 3.2% | 0hPa | 2.5V | 00:00:00 | 02:01:52 | 00:00:00 | |
| OE5DXL-15 | 2026-09-02 00:26:19 | 46.03270 | 13.92254 | 230° | 9km/h | 26858m | 6.1m/s | -47.4°C | 3.1% | 0hPa | 2.6V | 00:00:00 | 00:00:00 | 00:00:00 | |
| OE5MMP-10 | 2026-09-02 00:26:18 | 46.03272 | 13.92256 | 212° | 9km/h | 26852m | 6.3m/s | -47.3°C | 3.2% | 0hPa | 2.6V | 00:00:00 | 02:01:48 | 00:00:00 | |
| OE5WHR-10 | 2026-09-02 00:26:17 | 46.03275 | 13.92258 | 198° | 9km/h | 26846m | 5.5m/s | -47.3°C | 3.1% | 0hPa | 2.6V | 00:00:00 | 02:01:47 | 00:00:00 | |
| PETON7-10 | 2026-09-02 00:26:16 | 46.03278 | 13.92260 | 189° | 9km/h | 26841m | 4.9m/s | -47.3°C | 3.1% | 0hPa | 2.6V | 00:00:00 | 02:01:46 | 00:00:00 | |
| 9A1FER-10 | 2026-09-02 00:26:14 | 46.03281 | 13.92260 | 241° | 9km/h | 26830m | 6.0m/s | -47.4°C | 3.1% | 0hPa | 2.6V | 00:00:00 | 02:01:44 | 00:00:00 | |
| DO3MHA-11 | 2026-09-02 00:26:12 | 46.03279 | 13.92263 | 312° | 11km/h | 26819m | 4.9m/s | -47.4°C | 3.2% | 0hPa | 2.6V | 00:00:00 | 02:01:42 | 00:00:00 | |
| OE5DRO-10 | 2026-09-02 00:26:11 | 46.03278 | 13.92267 | 294° | 11km/h | 26814m | 4.7m/s | -47.4°C | 3.1% | 0hPa | 2.6V | 00:00:00 | 00:00:00 | 00:00:00 | |
| 9A1FER-3 | 2026-09-02 00:26:10 | 46.03277 | 13.92270 | 267° | 9km/h | 26809m | 5.3m/s | -47.5°C | 3.1% | 0hPa | 2.6V | 00:00:00 | 02:01:40 | 00:00:00 | |
| OE5MMP-10 | 2026-09-02 00:26:08 | 46.03280 | 13.92275 | 188° | 9km/h | 26798m | 5.6m/s | -47.5°C | 3.1% | 0hPa | 2.6V | 00:00:00 | 02:01:38 | 08:30:00 | |
| PG1ADW-2 | 2026-09-02 00:26:06 | 46.03287 | 13.92272 | 147° | 9km/h | 26787m | 5.5m/s | -47.5°C | 3.2% | 0hPa | 2.5V | 00:00:00 | 02:01:36 | 00:00:00 | |
| IN3HCDX | 2026-09-02 00:26:03 | 46.03291 | 13.92265 | 110° | 11km/h | 26776m | 5.4m/s | -47.6°C | 0.8% | 0hPa | 2.5V | 00:00:00 | 00:00:00 | 00:00:00 | |
| DO3MHA-11 | 2026-09-02 00:26:01 | 46.03291 | 13.92260 | 303° | 9km/h | 26761m | 5.4m/s | -47.6°C | 3.2% | 0hPa | 2.5V | 00:00:00 | 02:01:31 | 00:00:00 | |
| DB0UT-7 | 2026-09-02 00:26:00 | 46.03291 | 13.92260 | 222° | 11km/h | 26755m | 5.9m/s | -47.6°C | 3.2% | 0hPa | 2.5V | 00:00:00 | 02:01:30 | 00:00:00 | |
| 9A1FER-10 | 2026-09-02 00:25:59 | 46.03292 | 13.92261 | 198° | 11km/h | 26750m | 4.9m/s | -47.6°C | 3.2% | 0hPa | 2.6V | 00:00:00 | 02:01:29 | 00:00:00 | |
| OE5MMP-10 | 2026-09-02 00:25:58 | 46.03294 | 13.92261 | 170° | 11km/h | 26745m | 4.6m/s | -47.6°C | 3.2% | 0hPa | 2.6V | 00:00:00 | 02:01:28 | 00:00:00 | |
| OE8JPQ-2 | 2026-09-02 00:25:57 | 46.03296 | 13.92260 | 135° | 13km/h | 26739m | 5.5m/s | -47.6°C | 3.1% | 0hPa | 2.6V | 00:00:00 | 00:00:00 | 00:00:00 | |
| OE5WHR-10 | 2026-09-02 00:25:56 | 46.03297 | 13.92257 | 104° | 13km/h | 26734m | 6.0m/s | -47.6°C | 3.2% | 0hPa | 2.6V | 00:00:00 | 00:00:00 | 00:00:00 | |
| 9A1FER-3 | 2026-09-02 00:25:55 | 46.03297 | 13.92252 | 88° | 13km/h | 26728m | 5.8m/s | -47.6°C | 3.2% | 0hPa | 2.5V | 00:00:00 | 02:01:25 | 00:00:00 | |
| OE5DRO-10 | 2026-09-02 00:25:52 | 46.03296 | 13.92236 | 91° | 11km/h | 26711m | 6.3m/s | -47.6°C | 3.1% | 0hPa | 2.6V | 00:00:00 | 00:00:00 | 00:00:00 | |
| NBG1-10 | 2026-09-02 00:25:51 | 46.03296 | 13.92232 | 112° | 11km/h | 26706m | 5.3m/s | -47.6°C | 3.1% | 0hPa | 2.6V | 00:00:00 | 02:01:21 | 00:00:00 | |
| IN3HCDX1 | 2026-09-02 00:25:50 | 46.03296 | 13.92232 | 112° | 9km/h | 26706m | 5.3m/s | -47.7°C | 0.8% | 0hPa | 2.6V | 00:00:00 | 00:00:00 | 00:00:00 | |
| OE5DXL-15 | 2026-09-02 00:25:49 | 46.03299 | 13.92227 | 125° | 13km/h | 26696m | 5.1m/s | -47.6°C | 3.1% | 0hPa | 2.6V | 00:00:00 | 00:00:00 | 00:00:00 | |
| OE5MMP-10 | 2026-09-02 00:25:48 | 46.03300 | 13.92224 | 114° | 13km/h | 26690m | 6.3m/s | -47.7°C | 3.1% | 0hPa | 2.6V | 00:00:00 | 02:01:18 | 00:00:00 | |
| PETON7-10 | 2026-09-02 00:25:46 | 46.03301 | 13.92216 | 108° | 11km/h | 26679m | 5.0m/s | -47.7°C | 3.1% | 0hPa | 2.6V | 00:00:00 | 00:00:00 | 00:00:00 | |
| 9A1FER-10 | 2026-09-02 00:25:44 | 46.03305 | 13.92208 | 134° | 11km/h | 26668m | 6.5m/s | -47.8°C | 3.1% | 0hPa | 2.6V | 00:00:00 | 02:01:14 | 00:00:00 | |
| IN3HCDX | 2026-09-02 00:25:43 | 46.03305 | 13.92208 | 134° | 13km/h | 26668m | 6.5m/s | -47.9°C | 0.8% | 0hPa | 2.5V | 00:00:00 | 00:00:00 | 00:00:00 | |
| OE3JTB-15 | 2026-09-02 00:25:41 | 46.03314 | 13.92200 | 147° | 11km/h | 26651m | 4.8m/s | -47.9°C | 3.1% | 0hPa | 2.5V | 00:00:00 | 00:00:00 | 00:00:00 | |
| 9A1FER-3 | 2026-09-02 00:25:40 | 46.03317 | 13.92196 | 133° | 11km/h | 26645m | 6.3m/s | -48.0°C | 3.2% | 0hPa | 2.6V | 00:00:00 | 02:01:10 | 00:00:00 | |
| OE5MMP-10 | 2026-09-02 00:25:38 | 46.03320 | 13.92186 | 97° | 11km/h | 26633m | 5.1m/s | -48.1°C | 3.2% | 0hPa | 2.6V | 00:00:00 | 02:01:08 | 00:00:00 | |
| OE8JPQ-2 | 2026-09-02 00:25:37 | 46.03320 | 13.92181 | 88° | 13km/h | 26628m | 5.2m/s | -48.2°C | 3.2% | 0hPa | 2.6V | 00:00:00 | 00:00:00 | 00:00:00 | |
| OE5WHR-10 | 2026-09-02 00:25:34 | 46.03319 | 13.92174 | 51° | 11km/h | 26611m | 5.0m/s | -48.2°C | 3.2% | 0hPa | 2.6V | 00:00:00 | 00:00:00 | 00:00:00 | |
| OE5DRO-10 | 2026-09-02 00:25:33 | 46.03319 | 13.92173 | 60° | 13km/h | 26606m | 5.9m/s | -48.3°C | 3.1% | 0hPa | 2.6V | 00:00:00 | 00:00:00 | 00:00:00 | |
| PETON7-10 | 2026-09-02 00:25:31 | 46.03319 | 13.92169 | 97° | 15km/h | 26594m | 5.0m/s | -48.4°C | 3.2% | 0hPa | 2.6V | 00:00:00 | 02:01:01 | 00:00:00 | |
| DB0UT-7 | 2026-09-02 00:25:30 | 46.03319 | 13.92166 | 114° | 15km/h | 26589m | 5.1m/s | -48.5°C | 3.2% | 0hPa | 2.6V | 00:00:00 | 00:00:00 | 00:00:00 | |
| 9A1FER-10 | 2026-09-02 00:25:29 | 46.03321 | 13.92162 | 129° | 15km/h | 26583m | 6.5m/s | -48.5°C | 3.2% | 0hPa | 2.6V | 00:00:00 | 02:00:59 | 00:00:00 | |
| DO3MHA-11 | 2026-09-02 00:25:26 | 46.03328 | 13.92149 | 116° | 15km/h | 26568m | 4.7m/s | -48.8°C | 3.3% | 0hPa | 2.6V | 00:00:00 | 02:00:56 | 08:30:00 | |
| OE5MMP-10 | 2026-09-02 00:25:25 | 46.03329 | 13.92144 | 98° | 13km/h | 26562m | 6.5m/s | -48.8°C | 3.3% | 0hPa | 2.5V | 00:00:00 | 02:00:55 | 00:00:00 | |
| IV3AMH | 2026-09-02 00:25:24 | 46.03329 | 13.92144 | 99° | 18km/h | 26562m | 6.6m/s | -48.9°C | 0.9% | 0hPa | 2.5V | 00:00:00 | 00:00:00 | 00:00:00 | |
| IN3HCDX | 2026-09-02 00:25:22 | 46.03327 | 13.92130 | 59° | 20km/h | 26550m | 5.4m/s | -49.1°C | 0.9% | 0hPa | 2.5V | 00:00:00 | 00:00:00 | 00:00:00 | |
| DG1MFX-10 | 2026-09-02 00:25:20 | 46.03320 | 13.92121 | 34° | 16km/h | 26538m | 6.2m/s | -49.3°C | 0.9% | 0hPa | 2.5V | 00:00:00 | 00:00:00 | 00:00:00 | |
| OE5DXL-15 | 2026-09-02 00:25:19 | 46.03314 | 13.92118 | 8° | 13km/h | 26527m | 5.0m/s | -49.3°C | 3.5% | 0hPa | 2.5V | 00:00:00 | 00:00:00 | 00:00:00 | |
| OE8JPQ-2 | 2026-09-02 00:25:17 | 46.03310 | 13.92116 | 26° | 13km/h | 26515m | 6.1m/s | -49.4°C | 3.5% | 0hPa | 2.5V | 00:00:00 | 02:00:47 | 00:00:00 | |
| PETON7-10 | 2026-09-02 00:25:16 | 46.03308 | 13.92114 | 46° | 13km/h | 26510m | 5.0m/s | -49.4°C | 3.5% | 0hPa | 2.5V | 00:00:00 | 00:00:00 | 08:30:00 | |
| DO3MHA-11 | 2026-09-02 00:25:15 | 46.03307 | 13.92112 | 62° | 15km/h | 26505m | 5.2m/s | -49.3°C | 3.5% | 0hPa | 2.5V | 00:00:00 | 02:00:45 | 00:00:00 | |
| 9A1FER-10 | 2026-09-02 00:25:14 | 46.03306 | 13.92111 | 87° | 13km/h | 26499m | 6.6m/s | -49.3°C | 3.5% | 0hPa | 2.5V | 00:00:00 | 02:00:44 | 00:00:00 | |
| OE5WHR-10 | 2026-09-02 00:25:13 | 46.03307 | 13.92109 | 103° | 13km/h | 26493m | 5.7m/s | -49.3°C | 3.5% | 0hPa | 2.5V | 00:00:00 | 02:00:43 | 00:00:00 | |
| OE5MMP-10 | 2026-09-02 00:25:12 | 46.03307 | 13.92106 | 89° | 7km/h | 26487m | 5.2m/s | -49.3°C | 3.5% | 0hPa | 2.5V | 00:00:00 | 02:00:42 | 00:00:00 | |
| 9A1FER-3 | 2026-09-02 00:25:10 | 46.03304 | 13.92099 | 52° | 15km/h | 26475m | 6.1m/s | -49.3°C | 3.5% | 0hPa | 2.5V | 00:00:00 | 02:00:40 | 00:00:00 | |
| IN3HCDX1 | 2026-09-02 00:25:09 | 46.03304 | 13.92099 | 52° | 16km/h | 26475m | 6.2m/s | -49.3°C | 0.9% | 0hPa | 2.5V | 00:00:00 | 00:00:00 | 00:00:00 | |
| NBG1-10 | 2026-09-02 00:25:06 | 46.03286 | 13.92086 | 1° | 13km/h | 26455m | 6.0m/s | -49.2°C | 3.5% | 0hPa | 2.5V | 00:00:00 | 02:00:36 | 08:30:00 | |
| PG1ADW-2 | 2026-09-02 00:25:03 | 46.03274 | 13.92090 | 341° | 15km/h | 26438m | 5.9m/s | -49.2°C | 3.4% | 0hPa | 2.6V | 00:00:00 | 00:00:00 | 00:00:00 | |
| OE5MMP-10 | 2026-09-02 00:25:02 | 46.03272 | 13.92091 | 355° | 11km/h | 26432m | 6.1m/s | -49.2°C | 3.5% | 0hPa | 2.6V | 00:00:00 | 02:00:32 | 00:00:00 | |
| PETON7-10 | 2026-09-02 00:25:01 | 46.03269 | 13.92091 | 13° | 15km/h | 26426m | 5.2m/s | -49.2°C | 3.4% | 0hPa | 2.5V | 00:00:00 | 00:00:00 | 00:00:00 | |
| DB0UT-7 | 2026-09-02 00:25:00 | 46.03268 | 13.92090 | 15° | 15km/h | 26421m | 4.8m/s | -49.1°C | 3.4% | 0hPa | 2.5V | 00:00:00 | 02:00:30 | 00:00:00 | |
| 9A1FER-10 | 2026-09-02 00:24:59 | 46.03265 | 13.92090 | 2° | 15km/h | 26416m | 6.1m/s | -49.1°C | 3.5% | 0hPa | 2.5V | 00:00:00 | 02:00:29 | 00:00:00 | |
| OE8JPQ-2 | 2026-09-02 00:24:57 | 46.03260 | 13.92091 | 346° | 15km/h | 26404m | 4.8m/s | -49.1°C | 3.4% | 0hPa | 2.6V | 00:00:00 | 00:00:00 | 08:30:00 | |
| 9A1FER-3 | 2026-09-02 00:24:55 | 46.03253 | 13.92092 | 4° | 15km/h | 26393m | 6.8m/s | -49.1°C | 3.4% | 0hPa | 2.6V | 00:00:00 | 02:00:25 | 00:00:00 | |
| IV3AMH | 2026-09-02 00:24:52 | 46.03243 | 13.92090 | 8° | 20km/h | 26381m | 5.3m/s | -49.1°C | 0.9% | 0hPa | 2.6V | 00:00:00 | 00:00:00 | 00:00:00 | |
| OE5WHR-10 | 2026-09-02 00:24:51 | 46.03233 | 13.92091 | 343° | 15km/h | 26369m | 6.3m/s | -49.0°C | 3.4% | 0hPa | 2.6V | 00:00:00 | 00:00:00 | 00:00:00 | |
| OE5MMP-10 | 2026-09-02 00:24:50 | 46.03229 | 13.92093 | 328° | 18km/h | 26364m | 5.1m/s | -49.0°C | 3.4% | 0hPa | 2.5V | 00:00:00 | 02:00:20 | 00:00:00 | |
| OE5DXL-15 | 2026-09-02 00:24:49 | 46.03226 | 13.92097 | 319° | 16km/h | 26359m | 4.8m/s | -49.0°C | 3.4% | 0hPa | 2.5V | 00:00:00 | 00:00:00 | 08:30:00 | |
| IN3HCDX1 | 2026-09-02 00:24:48 | 46.03226 | 13.92097 | 320° | 15km/h | 26359m | 4.8m/s | -49.1°C | 0.9% | 0hPa | 2.5V | 00:00:00 | 00:00:00 | 00:00:00 | |
| PETON7-10 | 2026-09-02 00:24:45 | 46.03217 | 13.92108 | 318° | 15km/h | 26336m | 5.9m/s | -49.0°C | 3.4% | 0hPa | 2.5V | 00:00:00 | 02:00:15 | 00:00:00 | |
| OE3JTB-15 | 2026-09-02 00:24:44 | 46.03212 | 13.92115 | 316° | 16km/h | 26325m | 4.9m/s | -48.9°C | 3.4% | 0hPa | 2.5V | 00:00:00 | 02:00:13 | 00:00:00 | |
| PG1ADW-2 | 2026-09-02 00:24:43 | 46.03212 | 13.92115 | 316° | 16km/h | 26325m | 4.9m/s | -48.9°C | 3.4% | 0hPa | 2.5V | 00:00:00 | 02:00:13 | 00:00:00 | |
| IN3HCDX | 2026-09-02 00:24:41 | 46.03210 | 13.92118 | 323° | 13km/h | 26319m | 5.3m/s | -49.0°C | 0.9% | 0hPa | 2.5V | 00:00:00 | 00:00:00 | 00:00:00 | |
| 9A1FER-3 | 2026-09-02 00:24:40 | 46.03205 | 13.92122 | 343° | 18km/h | 26307m | 5.4m/s | -49.0°C | 3.4% | 0hPa | 2.5V | 00:00:00 | 02:00:10 | 00:00:00 | |
| DG1MFX-10 | 2026-09-02 00:24:38 | 46.03202 | 13.92123 | 336° | 11km/h | 26302m | 5.1m/s | -49.1°C | 0.9% | 0hPa | 2.5V | 00:00:00 | 00:00:00 | 00:00:00 | |
| OE8JPQ-2 | 2026-09-02 00:24:37 | 46.03198 | 13.92129 | 305° | 18km/h | 26290m | 6.3m/s | -49.1°C | 3.4% | 0hPa | 2.5V | 00:00:00 | 00:00:00 | 00:00:00 | |
| OE5DRO-10 | 2026-09-02 00:24:36 | 46.03195 | 13.92135 | 297° | 18km/h | 26284m | 5.2m/s | -49.1°C | 3.4% | 0hPa | 2.5V | 00:00:00 | 00:00:00 | 08:30:00 | |
| NBG1-10 | 2026-09-02 00:24:33 | 46.03190 | 13.92153 | 295° | 18km/h | 26267m | 5.2m/s | -49.1°C | 3.4% | 0hPa | 2.5V | 00:00:00 | 02:00:03 | 00:00:00 | |
| OE5WHR-10 | 2026-09-02 00:24:30 | 46.03183 | 13.92173 | 297° | 16km/h | 26251m | 6.2m/s | -49.1°C | 3.4% | 0hPa | 2.5V | 00:00:00 | 00:00:00 | 00:00:00 | |
| 9A1FER-10 | 2026-09-02 00:24:29 | 46.03180 | 13.92180 | 298° | 18km/h | 26245m | 5.3m/s | -49.1°C | 3.4% | 0hPa | 2.5V | 00:00:00 | 01:59:59 | 00:00:00 | |
| IN3HCDX1 | 2026-09-02 00:24:28 | 46.03181 | 13.92180 | 299° | 24km/h | 26245m | 5.3m/s | -49.1°C | 0.9% | 0hPa | 2.5V | 00:00:00 | 00:00:00 | 00:00:00 | |
| OE5MMP-10 | 2026-09-02 00:24:26 | 46.03172 | 13.92200 | 306° | 16km/h | 26228m | 5.9m/s | -49.0°C | 3.4% | 0hPa | 2.5V | 00:00:00 | 01:59:56 | 00:00:00 | |
| PG1ADW-2 | 2026-09-02 00:24:23 | 46.03166 | 13.92214 | 296° | 15km/h | 26212m | 5.9m/s | -49.1°C | 3.4% | 0hPa | 2.5V | 00:00:00 | 00:00:00 | 08:30:00 | |
| IV3AMH | 2026-09-02 00:24:20 | 46.03164 | 13.92226 | 280° | 16km/h | 26202m | 4.8m/s | -49.2°C | 1.0% | 0hPa | 2.6V | 00:00:00 | 00:00:00 | 00:00:00 | |
| OE5DXL-15 | 2026-09-02 00:24:19 | 46.03163 | 13.92237 | 261° | 13km/h | 26190m | 5.6m/s | -49.1°C | 3.4% | 0hPa | 2.6V | 00:00:00 | 00:00:00 | 00:00:00 | |
| OE8JPQ-2 | 2026-09-02 00:24:17 | 46.03164 | 13.92248 | 272° | 16km/h | 26179m | 5.9m/s | -49.1°C | 3.4% | 0hPa | 2.6V | 00:00:00 | 01:59:47 | 00:00:00 | |
| PETON7-10 | 2026-09-02 00:24:15 | 46.03162 | 13.92262 | 288° | 16km/h | 26168m | 4.0m/s | -49.2°C | 3.4% | 0hPa | 2.6V | 00:00:00 | 00:00:00 | 00:00:00 | |
| 9A1FER-10 | 2026-09-02 00:24:14 | 46.03161 | 13.92269 | 294° | 16km/h | 26164m | 4.4m/s | -49.2°C | 3.4% | 0hPa | 2.6V | 00:00:00 | 01:59:44 | 08:30:00 | |
| 9A1FER-3 | 2026-09-02 00:24:10 | 46.03154 | 13.92283 | 318° | 15km/h | 26141m | 5.0m/s | -49.3°C | 3.4% | 0hPa | 2.6V | 00:00:00 | 01:59:40 | 00:00:00 | |
| OE5WHR-10 | 2026-09-02 00:24:09 | 46.03153 | 13.92285 | 306° | 13km/h | 26136m | 6.0m/s | -49.3°C | 3.4% | 0hPa | 2.6V | 00:00:00 | 01:59:39 | 00:00:00 | |
| IN3HCDX1 | 2026-09-02 00:24:08 | 46.03153 | 13.92285 | 307° | 9km/h | 26136m | 6.1m/s | -49.3°C | 0.9% | 0hPa | 2.6V | 00:00:00 | 00:00:00 | 00:00:00 | |
| OE5MMP-10 | 2026-09-02 00:24:05 | 46.03155 | 13.92303 | 231° | 16km/h | 26115m | 6.5m/s | -49.4°C | 3.4% | 0hPa | 2.6V | 00:00:00 | 01:59:35 | 00:00:00 | |
| PG1ADW-2 | 2026-09-02 00:24:03 | 46.03163 | 13.92315 | 225° | 13km/h | 26104m | 4.6m/s | -49.4°C | 3.4% | 0hPa | 2.6V | 00:00:00 | 00:00:00 | 00:00:00 | |
| SOBLACK | 2026-09-02 00:24:01 | 46.03167 | 13.92322 | 232° | 27km/h | 26099m | 5.2m/s | -49.5°C | 0.9% | 0hPa | 2.6V | 00:00:00 | 00:00:00 | 00:00:00 | |
| PETON7-10 | 2026-09-02 00:24:00 | 46.03173 | 13.92337 | 251° | 11km/h | 26088m | 4.5m/s | -49.4°C | 3.5% | 0hPa | 2.6V | 00:00:00 | 01:59:30 | 00:00:00 | |
| 9A1FER-10 | 2026-09-02 00:23:59 | 46.03175 | 13.92343 | 261° | 9km/h | 26084m | 4.2m/s | -49.4°C | 3.4% | 0hPa | 2.6V | 00:00:00 | 01:59:29 | 00:00:00 | |
| OE5DRO-10 | 2026-09-02 00:23:58 | 46.03175 | 13.92348 | 268° | 9km/h | 26078m | 6.1m/s | -49.4°C | 3.5% | 0hPa | 2.6V | 00:00:00 | 00:00:00 | 00:00:00 | |
| OE8JPQ-2 | 2026-09-02 00:23:57 | 46.03175 | 13.92350 | 305° | 9km/h | 26072m | 6.1m/s | -49.4°C | 3.5% | 0hPa | 2.6V | 00:00:00 | 00:00:00 | 00:00:00 | |
| 9A1FER-3 | 2026-09-02 00:23:55 | 46.03174 | 13.92348 | 64° | 9km/h | 26062m | 4.4m/s | -49.4°C | 3.4% | 0hPa | 2.5V | 00:00:00 | 01:59:25 | 00:00:00 | |
| OE5MMP-10 | 2026-09-02 00:23:54 | 46.03173 | 13.92346 | 52° | 5km/h | 26057m | 5.7m/s | -49.4°C | 3.4% | 0hPa | 2.5V | 00:00:00 | 01:59:24 | 00:00:00 | |
| IV3AMH | 2026-09-02 00:23:50 | 46.03174 | 13.92349 | 224° | 11km/h | 26042m | 4.9m/s | -49.4°C | 1.0% | 0hPa | 2.5V | 00:00:00 | 00:00:00 | 00:00:00 | |
| OE5DXL-15 | 2026-09-02 00:23:49 | 46.03180 | 13.92354 | 207° | 11km/h | 26031m | 5.4m/s | -49.4°C | 3.4% | 0hPa | 2.5V | 00:00:00 | 00:00:00 | 00:00:00 | |
| OE5WHR-10 | 2026-09-02 00:23:48 | 46.03184 | 13.92357 | 208° | 7km/h | 26025m | 4.5m/s | -49.5°C | 3.4% | 0hPa | 2.5V | 00:00:00 | 00:00:00 | 08:30:00 | |
| PETON7-10 | 2026-09-02 00:23:45 | 46.03190 | 13.92367 | 274° | 5km/h | 26010m | 4.9m/s | -49.6°C | 3.4% | 0hPa | 2.6V | 00:00:00 | 00:00:00 | 00:00:00 | |
| 9A1FER-10 | 2026-09-02 00:23:44 | 46.03190 | 13.92371 | 305° | 7km/h | 26006m | 4.6m/s | -49.6°C | 3.4% | 0hPa | 2.5V | 00:00:00 | 01:59:14 | 00:00:00 | |
| PG1ADW-2 | 2026-09-02 00:23:43 | 46.03188 | 13.92373 | 333° | 7km/h | 26000m | 5.8m/s | -49.6°C | 3.4% | 0hPa | 2.5V | 00:00:00 | 00:00:00 | 00:00:00 | |
| OE5MMP-10 | 2026-09-02 00:23:42 | 46.03186 | 13.92373 | 1° | 5km/h | 25995m | 5.9m/s | -49.7°C | 3.4% | 0hPa | 2.5V | 00:00:00 | 01:59:12 | 00:00:00 | |
| 9A1FER-3 | 2026-09-02 00:23:40 | 46.03182 | 13.92372 | 17° | 7km/h | 25984m | 5.1m/s | -49.7°C | 3.4% | 0hPa | 2.5V | 00:00:00 | 01:59:10 | 00:00:00 | |
| IN3HCDX | 2026-09-02 00:23:38 | 46.03180 | 13.92371 | 8° | 7km/h | 25978m | 6.0m/s | -49.8°C | 0.9% | 0hPa | 2.5V | 00:00:00 | 00:00:00 | 00:00:00 | |
| DG1MFX-10 | 2026-09-02 00:23:35 | 46.03177 | 13.92371 | 100° | 2km/h | 25962m | 6.4m/s | -50.0°C | 1.0% | 0hPa | 2.5V | 00:00:00 | 00:00:00 | 00:00:00 | |
| OE5MMP-10 | 2026-09-02 00:23:32 | 46.03180 | 13.92369 | 266° | 11km/h | 25942m | 5.9m/s | -50.1°C | 3.5% | 0hPa | 2.5V | 00:00:00 | 01:59:02 | 00:00:00 | |
| PETON7-10 | 2026-09-02 00:23:30 | 46.03179 | 13.92375 | 304° | 15km/h | 25932m | 4.4m/s | -50.2°C | 3.6% | 0hPa | 2.5V | 00:00:00 | 00:00:00 | 00:00:00 | |
| 9A1FER-10 | 2026-09-02 00:23:29 | 46.03177 | 13.92378 | 317° | 16km/h | 25928m | 4.2m/s | -50.2°C | 3.5% | 0hPa | 2.5V | 00:00:00 | 01:58:59 | 00:00:00 | |
| OE5WHR-10 | 2026-09-02 00:23:27 | 46.03173 | 13.92379 | 27° | 18km/h | 25917m | 5.3m/s | -50.2°C | 3.5% | 0hPa | 2.5V | 00:00:00 | 00:00:00 | 00:00:00 | |
| 9A1FER-3 | 2026-09-02 00:23:25 | 46.03169 | 13.92373 | 46° | 18km/h | 25908m | 3.9m/s | -50.2°C | 3.5% | 0hPa | 2.5V | 00:00:00 | 01:58:55 | 00:00:00 | |
| PG1ADW-2 | 2026-09-02 00:23:23 | 46.03162 | 13.92367 | 22° | 20km/h | 25897m | 5.6m/s | -50.3°C | 3.5% | 0hPa | 2.5V | 00:00:00 | 01:58:53 | 00:00:00 | |
| OE5MMP-10 | 2026-09-02 00:23:22 | 46.03157 | 13.92365 | 10° | 18km/h | 25892m | 5.2m/s | -50.3°C | 3.5% | 0hPa | 2.5V | 00:00:00 | 01:58:52 | 00:00:00 | |
| OE5DXL-15 | 2026-09-02 00:23:19 | 46.03141 | 13.92364 | 360° | 22km/h | 25875m | 6.0m/s | -50.3°C | 3.5% | 0hPa | 2.5V | 00:00:00 | 00:00:00 | 00:00:00 | |
| OE8JPQ-2 | 2026-09-02 00:23:17 | 46.03133 | 13.92365 | 347° | 24km/h | 25865m | 4.6m/s | -50.4°C | 3.5% | 0hPa | 2.5V | 00:00:00 | 01:58:47 | 00:00:00 | |
| IV3AMH | 2026-09-02 00:23:16 | 46.03132 | 13.92365 | 347° | 15km/h | 25865m | 4.6m/s | -50.5°C | 1.0% | 0hPa | 2.5V | 00:00:00 | 00:00:00 | 00:00:00 | |
| PETON7-10 | 2026-09-02 00:23:15 | 46.03125 | 13.92370 | 325° | 24km/h | 25854m | 5.8m/s | -50.6°C | 3.5% | 0hPa | 2.5V | 00:00:00 | 01:58:45 | 00:00:00 | |
| 9A1FER-10 | 2026-09-02 00:23:14 | 46.03121 | 13.92374 | 324° | 24km/h | 25849m | 4.4m/s | -50.7°C | 3.6% | 0hPa | 2.5V | 00:00:00 | 01:58:44 | 00:00:00 | |
| OE5MMP-10 | 2026-09-02 00:23:12 | 46.03114 | 13.92382 | 335° | 22km/h | 25839m | 6.0m/s | -50.9°C | 3.6% | 0hPa | 2.5V | 00:00:00 | 01:58:42 | 00:00:00 | |
| 9A1FER-3 | 2026-09-02 00:23:10 | 46.03105 | 13.92385 | 352° | 26km/h | 25829m | 4.7m/s | -51.1°C | 3.6% | 0hPa | 2.5V | 00:00:00 | 01:58:40 | 00:00:00 | |
| DO3MHA-11 | 2026-09-02 00:23:09 | 46.03100 | 13.92386 | 350° | 24km/h | 25824m | 5.9m/s | -51.1°C | 3.7% | 0hPa | 2.5V | 00:00:00 | 01:58:39 | 00:00:00 | |
| OE5WHR-10 | 2026-09-02 00:23:06 | 46.03080 | 13.92393 | 344° | 22km/h | 25809m | 4.8m/s | -51.2°C | 3.7% | 0hPa | 2.5V | 00:00:00 | 01:58:36 | 00:00:00 | |
| PG1ADW-2 | 2026-09-02 00:23:03 | 46.03062 | 13.92402 | 337° | 24km/h | 25793m | 4.6m/s | -51.3°C | 3.7% | 0hPa | 2.5V | 00:00:00 | 00:00:00 | 00:00:00 | |
| OE5MMP-10 | 2026-09-02 00:23:02 | 46.03056 | 13.92406 | 331° | 22km/h | 25788m | 5.2m/s | -51.3°C | 3.7% | 0hPa | 2.5V | 00:00:00 | 01:58:32 | 00:00:00 | |
| PETON7-10 | 2026-09-02 00:23:00 | 46.03044 | 13.92418 | 319° | 22km/h | 25777m | 4.6m/s | -51.2°C | 3.8% | 0hPa | 2.5V | 00:00:00 | 00:00:00 | 08:30:00 | |
| 9A1FER-10 | 2026-09-02 00:22:59 | 46.03038 | 13.92425 | 313° | 22km/h | 25773m | 4.3m/s | -51.2°C | 3.7% | 0hPa | 2.6V | 00:00:00 | 01:58:29 | 00:00:00 | |
| OE8JPQ-2 | 2026-09-02 00:22:57 | 46.03031 | 13.92440 | 298° | 20km/h | 25762m | 5.6m/s | -51.2°C | 3.7% | 0hPa | 2.6V | 00:00:00 | 00:00:00 | 00:00:00 | |
| IN3HCDX | 2026-09-02 00:22:56 | 46.03031 | 13.92440 | 299° | 22km/h | 25762m | 5.7m/s | -51.2°C | 1.0% | 0hPa | 2.5V | 00:00:00 | 00:00:00 | 00:00:00 | |
| DO3MHA-11 | 2026-09-02 00:22:55 | 46.03027 | 13.92453 | 295° | 16km/h | 25752m | 4.5m/s | -51.1°C | 3.7% | 0hPa | 2.5V | 00:00:00 | 01:58:25 | 00:00:00 | |
| OE5MMP-10 | 2026-09-02 00:22:52 | 46.03019 | 13.92469 | 319° | 24km/h | 25736m | 4.9m/s | -51.1°C | 3.6% | 0hPa | 2.6V | 00:00:00 | 01:58:22 | 00:00:00 | |
| DG1MFX-10 | 2026-09-02 00:22:51 | 46.03019 | 13.92469 | 320° | 18km/h | 25736m | 4.9m/s | -51.2°C | 1.0% | 0hPa | 2.6V | 00:00:00 | 00:00:00 | 00:00:00 | |
| NBG1-10 | 2026-09-02 00:22:50 | 46.03012 | 13.92477 | 314° | 20km/h | 25725m | 5.5m/s | -51.1°C | 3.7% | 0hPa | 2.6V | 00:00:00 | 01:58:20 | 00:00:00 | |
| OE5DXL-15 | 2026-09-02 00:22:49 | 46.03010 | 13.92481 | 300° | 20km/h | 25720m | 4.0m/s | -51.1°C | 3.7% | 0hPa | 2.6V | 00:00:00 | 00:00:00 | 00:00:00 | |
| SOBLACK | 2026-09-02 00:22:48 | 46.03008 | 13.92487 | 292° | 20km/h | 25716m | 4.1m/s | -51.2°C | 1.0% | 0hPa | 2.6V | 00:00:00 | 00:00:00 | 00:00:00 | |
| IN3HCDX1 | 2026-09-02 00:22:46 | 46.03006 | 13.92495 | 288° | 26km/h | 25711m | 6.1m/s | -51.2°C | 1.0% | 0hPa | 2.6V | 00:00:00 | 00:00:00 | 00:00:00 | |
| OE5WHR-10 | 2026-09-02 00:22:45 | 46.03003 | 13.92516 | 279° | 20km/h | 25700m | 4.6m/s | -51.3°C | 3.7% | 0hPa | 2.6V | 00:00:00 | 00:00:00 | 00:00:00 | |
| 9A1FER-10 | 2026-09-02 00:22:44 | 46.03002 | 13.92528 | 272° | 18km/h | 25695m | 4.6m/s | -51.3°C | 3.7% | 0hPa | 2.6V | 00:00:00 | 01:58:14 | 00:00:00 | |
| PG1ADW-2 | 2026-09-02 00:22:43 | 46.03003 | 13.92539 | 264° | 18km/h | 25690m | 5.6m/s | -51.3°C | 3.7% | 0hPa | 2.5V | 00:00:00 | 00:00:00 | 00:00:00 | |
| OE5MMP-10 | 2026-09-02 00:22:42 | 46.03004 | 13.92549 | 255° | 15km/h | 25685m | 4.7m/s | -51.3°C | 3.7% | 0hPa | 2.5V | 00:00:00 | 01:58:12 | 08:30:00 | |
| 9A1FER-3 | 2026-09-02 00:22:40 | 46.03006 | 13.92562 | 257° | 16km/h | 25676m | 5.1m/s | -51.4°C | 3.7% | 0hPa | 2.5V | 00:00:00 | 01:58:10 | 00:00:00 | |
| OE8JPQ-2 | 2026-09-02 00:22:37 | 46.03005 | 13.92574 | 298° | 18km/h | 25661m | 3.8m/s | -51.4°C | 3.8% | 0hPa | 2.5V | 00:00:00 | 00:00:00 | 00:00:00 | |
| DO3MHA-11 | 2026-09-02 00:22:36 | 46.03003 | 13.92579 | 290° | 16km/h | 25656m | 5.0m/s | -51.5°C | 3.8% | 0hPa | 2.5V | 00:00:00 | 01:58:06 | 00:00:00 | |
| DG1MFX-10 | 2026-09-02 00:22:32 | 46.03008 | 13.92599 | 240° | 20km/h | 25635m | 4.4m/s | -51.6°C | 1.1% | 0hPa | 2.5V | 00:00:00 | 00:00:00 | 00:00:00 | |
| PETON7-10 | 2026-09-02 00:22:30 | 46.03012 | 13.92611 | 246° | 16km/h | 25625m | 5.6m/s | -51.6°C | 3.9% | 0hPa | 2.5V | 00:00:00 | 01:58:00 | 00:00:00 | |
| 9A1FER-10 | 2026-09-02 00:22:29 | 46.03014 | 13.92617 | 242° | 16km/h | 25619m | 4.9m/s | -51.6°C | 3.8% | 0hPa | 2.5V | 00:00:00 | 01:57:59 | 00:00:00 | |
| DO3MHA-11 | 2026-09-02 00:22:26 | 46.03023 | 13.92631 | 214° | 20km/h | 25602m | 5.8m/s | -51.6°C | 3.8% | 0hPa | 2.5V | 00:00:00 | 01:57:56 | 00:00:00 | |
| 9A1FER-3 | 2026-09-02 00:22:25 | 46.03029 | 13.92635 | 212° | 16km/h | 25597m | 4.9m/s | -51.6°C | 3.8% | 0hPa | 2.5V | 00:00:00 | 01:57:55 | 00:00:00 | |
| OE5WHR-10 | 2026-09-02 00:22:24 | 46.03034 | 13.92640 | 214° | 16km/h | 25592m | 4.6m/s | -51.5°C | 3.8% | 0hPa | 2.5V | 00:00:00 | 00:00:00 | 00:00:00 | |
| PG1ADW-2 | 2026-09-02 00:22:23 | 46.03038 | 13.92645 | 221° | 15km/h | 25587m | 6.1m/s | -51.5°C | 3.8% | 0hPa | 2.5V | 00:00:00 | 00:00:00 | 00:00:00 | |
| OE5MMP-10 | 2026-09-02 00:22:22 | 46.03042 | 13.92650 | 231° | 15km/h | 25581m | 5.4m/s | -51.5°C | 3.8% | 0hPa | 2.5V | 00:00:00 | 01:57:52 | 00:00:00 | |
| SOBLACK | 2026-09-02 00:22:21 | 46.03042 | 13.92650 | 231° | 18km/h | 25581m | 5.5m/s | -51.6°C | 1.0% | 0hPa | 2.5V | 00:00:00 | 00:00:00 | 00:00:00 | |
| OE5DXL-15 | 2026-09-02 00:22:19 | 46.03049 | 13.92662 | 215° | 13km/h | 25565m | 6.1m/s | -51.5°C | 3.8% | 0hPa | 2.5V | 00:00:00 | 00:00:00 | 00:00:00 | |
| OE8JPQ-2 | 2026-09-02 00:22:17 | 46.03056 | 13.92667 | 198° | 13km/h | 25554m | 4.6m/s | -51.5°C | 3.8% | 0hPa | 2.5V | 00:00:00 | 01:57:47 | 00:00:00 | |
| DO3MHA-11 | 2026-09-02 00:22:16 | 46.03059 | 13.92668 | 202° | 16km/h | 25549m | 5.7m/s | -51.5°C | 3.8% | 0hPa | 2.5V | 00:00:00 | 01:57:46 | 00:00:00 | |
| 9A1FER-10 | 2026-09-02 00:22:14 | 46.03064 | 13.92672 | 214° | 15km/h | 25539m | 4.7m/s | -51.5°C | 3.8% | 0hPa | 2.5V | 00:00:00 | 01:57:44 | 00:00:00 | |
| OE5MMP-10 | 2026-09-02 00:22:12 | 46.03070 | 13.92677 | 207° | 20km/h | 25528m | 6.0m/s | -51.5°C | 3.8% | 0hPa | 2.5V | 00:00:00 | 01:57:42 | 00:00:00 | |
| 9A1FER-3 | 2026-09-02 00:22:10 | 46.03079 | 13.92684 | 209° | 13km/h | 25517m | 5.0m/s | -51.5°C | 3.8% | 0hPa | 2.5V | 00:00:00 | 01:57:40 | 08:30:00 | |
| DO3MHA-11 | 2026-09-02 00:22:06 | 46.03093 | 13.92698 | 209° | 11km/h | 25496m | 5.4m/s | -51.5°C | 3.8% | 0hPa | 2.6V | 00:00:00 | 01:57:36 | 00:00:00 | |
| IN3HCDX1 | 2026-09-02 00:22:05 | 46.03093 | 13.92698 | 210° | 13km/h | 25496m | 5.4m/s | -51.5°C | 1.0% | 0hPa | 2.6V | 00:00:00 | 00:00:00 | 00:00:00 | |
| OE5WHR-10 | 2026-09-02 00:22:03 | 46.03102 | 13.92701 | 182° | 7km/h | 25480m | 5.1m/s | -51.4°C | 3.8% | 0hPa | 2.6V | 00:00:00 | 01:57:33 | 00:00:00 | |
| OE5MMP-10 | 2026-09-02 00:22:02 | 46.03105 | 13.92701 | 188° | 9km/h | 25475m | 5.8m/s | -51.3°C | 3.8% | 0hPa | 2.6V | 00:00:00 | 01:57:32 | 00:00:00 | |
| DB0UT-7 | 2026-09-02 00:22:00 | 46.03108 | 13.92702 | 200° | 5km/h | 25465m | 4.0m/s | -51.3°C | 3.8% | 0hPa | 2.6V | 00:00:00 | 01:57:30 | 00:00:00 | |
| PETON7-10 | 2026-09-02 00:21:59 | 46.03110 | 13.92703 | 189° | 7km/h | 25460m | 5.2m/s | -51.2°C | 3.7% | 0hPa | 2.6V | 00:00:00 | 00:00:00 | 00:00:00 | |
| OE8JPQ-2 | 2026-09-02 00:21:57 | 46.03115 | 13.92703 | 185° | 5km/h | 25449m | 4.7m/s | -51.2°C | 3.8% | 0hPa | 2.6V | 00:00:00 | 00:00:00 | 08:30:00 | |
| DO3MHA-11 | 2026-09-02 00:21:56 | 46.03118 | 13.92704 | 196° | 5km/h | 25444m | 5.1m/s | -51.2°C | 3.7% | 0hPa | 2.6V | 00:00:00 | 01:57:26 | 00:00:00 | |
| 9A1FER-3 | 2026-09-02 00:21:55 | 46.03121 | 13.92706 | 213° | 5km/h | 25439m | 6.1m/s | -51.1°C | 3.8% | 0hPa | 2.6V | 00:00:00 | 01:57:25 | 00:00:00 | |
| OE5MMP-10 | 2026-09-02 00:21:52 | 46.03126 | 13.92714 | 235° | 5km/h | 25424m | 4.7m/s | -51.1°C | 3.7% | 0hPa | 2.6V | 00:00:00 | 01:57:22 | 00:00:00 | |
| OE3JTB-15 | 2026-09-02 00:21:51 | 46.03127 | 13.92716 | 211° | 5km/h | 25419m | 5.9m/s | -51.1°C | 3.7% | 0hPa | 2.6V | 00:00:00 | 00:00:00 | 00:00:00 | |
| DG1MFX-10 | 2026-09-02 00:21:50 | 46.03127 | 13.92716 | 211° | 7km/h | 25419m | 5.9m/s | -51.1°C | 1.0% | 0hPa | 2.5V | 00:00:00 | 00:00:00 | 00:00:00 | |
| OE5DXL-15 | 2026-09-02 00:21:49 | 46.03130 | 13.92716 | 167° | 7km/h | 25409m | 4.3m/s | -51.0°C | 3.7% | 0hPa | 2.5V | 00:00:00 | 00:00:00 | 00:00:00 | |
| IV3AMH | 2026-09-02 00:21:45 | 46.03131 | 13.92717 | 308° | 4km/h | 25393m | 5.2m/s | -51.1°C | 1.0% | 0hPa | 2.5V | 00:00:00 | 00:00:00 | 00:00:00 | |
| 9A1FER-10 | 2026-09-02 00:21:44 | 46.03130 | 13.92719 | 268° | 5km/h | 25383m | 5.3m/s | -51.0°C | 3.7% | 0hPa | 2.5V | 00:00:00 | 01:57:14 | 00:00:00 | |
| PETON7-10 | 2026-09-02 00:21:43 | 46.03131 | 13.92720 | 210° | 5km/h | 25378m | 5.8m/s | -51.0°C | 3.7% | 0hPa | 2.5V | 00:00:00 | 01:57:13 | 00:00:00 | |
| OE5WHR-10 | 2026-09-02 00:21:42 | 46.03132 | 13.92721 | 186° | 7km/h | 25372m | 4.8m/s | -51.0°C | 3.6% | 0hPa | 2.5V | 00:00:00 | 00:00:00 | 00:00:00 | |
| OE5MMP-10 | 2026-09-02 00:21:41 | 46.03133 | 13.92721 | 192° | 4km/h | 25368m | 4.7m/s | -51.0°C | 3.7% | 0hPa | 2.5V | 00:00:00 | 01:57:11 | 00:00:00 | |
| SOBLACK | 2026-09-02 00:21:40 | 46.03133 | 13.92721 | 192° | 5km/h | 25368m | 4.8m/s | -51.1°C | 1.0% | 0hPa | 2.6V | 00:00:00 | 00:00:00 | 00:00:00 | |
| DO3MHA-11 | 2026-09-02 00:21:38 | 46.03135 | 13.92724 | 292° | 7km/h | 25352m | 4.1m/s | -51.1°C | 3.7% | 0hPa | 2.6V | 00:00:00 | 01:57:08 | 08:30:00 | |
| OE8JPQ-2 | 2026-09-02 00:21:37 | 46.03134 | 13.92725 | 296° | 9km/h | 25347m | 4.7m/s | -51.1°C | 3.7% | 0hPa | 2.5V | 00:00:00 | 00:00:00 | 00:00:00 | |
| IN3HCDX | 2026-09-02 00:21:34 | 46.03134 | 13.92726 | 0° | 0km/h | 25337m | 5.0m/s | -51.2°C | 1.0% | 0hPa | 2.5V | 00:00:00 | 00:00:00 | 00:00:00 | |
| OE5MMP-10 | 2026-09-02 00:21:31 | 46.03129 | 13.92727 | 340° | 11km/h | 25316m | 5.2m/s | -51.2°C | 3.7% | 0hPa | 2.5V | 00:00:00 | 01:57:01 | 00:00:00 | |
| DB0UT-7 | 2026-09-02 00:21:30 | 46.03127 | 13.92729 | 336° | 15km/h | 25311m | 5.0m/s | -51.2°C | 3.7% | 0hPa | 2.5V | 00:00:00 | 00:00:00 | 00:00:00 | |
| 9A1FER-10 | 2026-09-02 00:21:29 | 46.03124 | 13.92730 | 334° | 15km/h | 25305m | 6.1m/s | -51.3°C | 3.7% | 0hPa | 2.5V | 00:00:00 | 01:56:59 | 00:00:00 | |
| DO3MHA-11 | 2026-09-02 00:21:28 | 46.03122 | 13.92732 | 332° | 13km/h | 25300m | 5.0m/s | -51.3°C | 3.7% | 0hPa | 2.5V | 00:00:00 | 01:56:58 | 00:00:00 | |
| DO3MHA-12 | 2026-09-02 00:21:26 | 46.03118 | 13.92735 | 335° | 15km/h | 25290m | 5.1m/s | -51.3°C | 3.7% | 0hPa | 2.5V | 00:00:00 | 01:56:56 | 00:00:00 | |
| 9A1FER-3 | 2026-09-02 00:21:25 | 46.03116 | 13.92736 | 337° | 16km/h | 25285m | 5.7m/s | -51.3°C | 3.8% | 0hPa | 2.5V | 00:00:00 | 01:56:55 | 00:00:00 | |
| IN3HCDX1 | 2026-09-02 00:21:24 | 46.03115 | 13.92736 | 338° | 13km/h | 25285m | 5.8m/s | -51.4°C | 1.1% | 0hPa | 2.5V | 00:00:00 | 00:00:00 | 00:00:00 | |
| PG1ADW-2 | 2026-09-02 00:21:22 | 46.03106 | 13.92741 | 354° | 15km/h | 25269m | 5.7m/s | -51.3°C | 3.7% | 0hPa | 2.5V | 00:00:00 | 00:00:00 | 08:30:00 | |
| OE5WHR-10 | 2026-09-02 00:21:21 | 46.03102 | 13.92741 | 1° | 15km/h | 25264m | 4.4m/s | -51.3°C | 3.7% | 0hPa | 2.6V | 00:00:00 | 00:00:00 | 00:00:00 | |
| OE5DXL-15 | 2026-09-02 00:21:19 | 46.03096 | 13.92742 | 353° | 16km/h | 25255m | 5.5m/s | -51.2°C | 3.7% | 0hPa | 2.6V | 00:00:00 | 00:00:00 | 00:00:00 | |
| DO3MHA-11 | 2026-09-02 00:21:18 | 46.03092 | 13.92743 | 346° | 16km/h | 25250m | 5.5m/s | -51.3°C | 3.7% | 0hPa | 2.6V | 00:00:00 | 01:56:48 | 00:00:00 | |
| OE8JPQ-2 | 2026-09-02 00:21:17 | 46.03086 | 13.92745 | 342° | 15km/h | 25244m | 4.4m/s | -51.3°C | 3.7% | 0hPa | 2.6V | 00:00:00 | 01:56:47 | 00:00:00 | |
| DO3MHA-12 | 2026-09-02 00:21:15 | 46.03077 | 13.92751 | 336° | 15km/h | 25235m | 5.9m/s | -51.4°C | 3.7% | 0hPa | 2.6V | 00:00:00 | 01:56:45 | 00:00:00 | |
| 9A1FER-10 | 2026-09-02 00:21:14 | 46.03073 | 13.92753 | 331° | 15km/h | 25229m | 5.6m/s | -51.4°C | 3.7% | 0hPa | 2.6V | 00:00:00 | 01:56:44 | 00:00:00 | |
| PETON7-10 | 2026-09-02 00:21:13 | 46.03070 | 13.92756 | 323° | 15km/h | 25224m | 4.7m/s | -51.4°C | 3.7% | 0hPa | 2.5V | 00:00:00 | 00:00:00 | 00:00:00 | |
| OE5MMP-10 | 2026-09-02 00:21:11 | 46.03065 | 13.92763 | 316° | 13km/h | 25214m | 5.8m/s | -51.4°C | 3.7% | 0hPa | 2.5V | 00:00:00 | 01:56:41 | 08:30:00 | |
| 9A1FER-3 | 2026-09-02 00:21:10 | 46.03062 | 13.92768 | 316° | 16km/h | 25208m | 5.1m/s | -51.5°C | 3.7% | 0hPa | 2.6V | 00:00:00 | 01:56:40 | 00:00:00 | |
| DG1MFX-10 | 2026-09-02 00:21:09 | 46.03062 | 13.92768 | 317° | 18km/h | 25208m | 5.2m/s | -51.5°C | 1.0% | 0hPa | 2.6V | 00:00:00 | 00:00:00 | 00:00:00 | |
| DO3MHA-11 | 2026-09-02 00:21:08 | 46.03055 | 13.92775 | 324° | 13km/h | 25199m | 4.9m/s | -51.6°C | 3.7% | 0hPa | 2.6V | 00:00:00 | 01:56:38 | 00:00:00 | |
| SOBLACK | 2026-09-02 00:21:07 | 46.03056 | 13.92775 | 324° | 15km/h | 25199m | 4.9m/s | -51.6°C | 1.0% | 0hPa | 2.6V | 00:00:00 | 00:00:00 | 00:00:00 | |
| OE5DRO-10 | 2026-09-02 00:21:06 | 46.03050 | 13.92780 | 340° | 16km/h | 25188m | 4.7m/s | -51.6°C | 3.7% | 0hPa | 2.6V | 00:00:00 | 00:00:00 | 00:00:00 | |
| DO3MHA-12 | 2026-09-02 00:21:04 | 46.03045 | 13.92782 | 336° | 18km/h | 25179m | 5.8m/s | -51.7°C | 3.8% | 0hPa | 2.6V | 00:00:00 | 01:56:34 | 00:00:00 | |
| IN3HCDX1 | 2026-09-02 00:21:03 | 46.03045 | 13.92782 | 337° | 13km/h | 25179m | 5.8m/s | -51.7°C | 1.1% | 0hPa | 2.6V | 00:00:00 | 00:00:00 | 00:00:00 | |
| PG1ADW-2 | 2026-09-02 00:21:02 | 46.03039 | 13.92788 | 324° | 18km/h | 25168m | 4.7m/s | -51.7°C | 3.7% | 0hPa | 2.6V | 00:00:00 | 00:00:00 | 00:00:00 | |
| OE5MMP-10 | 2026-09-02 00:21:01 | 46.03036 | 13.92791 | 319° | 18km/h | 25162m | 6.1m/s | 0°C | 0% | 0hPa | 2.6V | 00:00:00 | 01:56:31 | 00:00:00 | |
| OE5WHR-10 | 2026-09-02 00:21:00 | 46.03034 | 13.92795 | 313° | 20km/h | 25156m | 5.2m/s | -51.7°C | 3.7% | 0hPa | 2.6V | 00:00:00 | 01:56:30 | 00:00:00 | |
| 9A1FER-10 | 2026-09-02 00:20:59 | 46.03031 | 13.92799 | 307° | 18km/h | 25152m | 3.9m/s | -51.7°C | 3.7% | 0hPa | 2.6V | 00:00:00 | 01:56:29 | 00:00:00 | |
| OE8JPQ-2 | 2026-09-02 00:20:57 | 46.03025 | 13.92811 | 303° | 22km/h | 25141m | 5.7m/s | -51.7°C | 3.7% | 0hPa | 2.6V | 00:00:00 | 00:00:00 | 00:00:00 | |
| 9A1FER-3 | 2026-09-02 00:20:55 | 46.03020 | 13.92825 | 302° | 20km/h | 25130m | 5.9m/s | -51.8°C | 3.7% | 0hPa | 2.6V | 00:00:00 | 01:56:25 | 00:00:00 | |
| DO3MHA-12 | 2026-09-02 00:20:54 | 46.03017 | 13.92830 | 302° | 18km/h | 25125m | 5.7m/s | -51.8°C | 3.7% | 0hPa | 2.6V | 00:00:00 | 01:56:24 | 00:00:00 | |
| IN3HCDX | 2026-09-02 00:20:53 | 46.03017 | 13.92830 | 303° | 16km/h | 25125m | 5.7m/s | -51.8°C | 1.0% | 0hPa | 2.6V | 00:00:00 | 00:00:00 | 00:00:00 | |
| OE3JTB-15 | 2026-09-02 00:20:52 | 46.03010 | 13.92843 | 315° | 24km/h | 25109m | 5.9m/s | -51.9°C | 3.7% | 0hPa | 2.6V | 00:00:00 | 01:56:21 | 00:00:00 | |
| OE5MMP-10 | 2026-09-02 00:20:51 | 46.03010 | 13.92843 | 315° | 22km/h | 25109m | 5.9m/s | 0°C | 0% | 0hPa | 2.6V | 00:00:00 | 01:56:21 | 00:00:00 | |
| OE5DXL-15 | 2026-09-02 00:20:49 | 46.03003 | 13.92853 | 318° | 22km/h | 25099m | 4.6m/s | -51.9°C | 3.7% | 0hPa | 2.6V | 00:00:00 | 00:00:00 | 00:00:00 | |
| DO3MHA-11 | 2026-09-02 00:20:48 | 46.02999 | 13.92858 | 316° | 24km/h | 25094m | 5.2m/s | -52.0°C | 3.7% | 0hPa | 2.6V | 00:00:00 | 01:56:18 | 00:00:00 | |
| DG1MFX-10 | 2026-09-02 00:20:47 | 46.02999 | 13.92858 | 317° | 20km/h | 25094m | 5.3m/s | -52.1°C | 1.1% | 0hPa | 2.6V | 00:00:00 | 00:00:00 | 00:00:00 | |
| SOBLACK | 2026-09-02 00:20:45 | 46.02993 | 13.92868 | 312° | 18km/h | 25083m | 4.9m/s | -52.4°C | 1.1% | 0hPa | 2.6V | 00:00:00 | 00:00:00 | 00:00:00 | |
| DO3MHA-12 | 2026-09-02 00:20:44 | 46.02986 | 13.92880 | 307° | 26km/h | 25073m | 6.0m/s | -52.7°C | 4.0% | 0hPa | 2.6V | 00:00:00 | 01:56:14 | 00:00:00 | |
| PETON7-10 | 2026-09-02 00:20:43 | 46.02983 | 13.92887 | 305° | 24km/h | 25067m | 5.0m/s | -52.8°C | 4.0% | 0hPa | 2.5V | 00:00:00 | 00:00:00 | 08:30:00 | |
| PG1ADW-2 | 2026-09-02 00:20:42 | 46.02979 | 13.92896 | 301° | 22km/h | 25062m | 4.3m/s | -52.8°C | 4.0% | 0hPa | 2.5V | 00:00:00 | 01:56:12 | 00:00:00 | |
| 9A1FER-3 | 2026-09-02 00:20:40 | 46.02973 | 13.92913 | 294° | 22km/h | 25051m | 5.4m/s | -53.0°C | 4.1% | 0hPa | 2.5V | 00:00:00 | 01:56:10 | 00:00:00 | |
| OE5WHR-10 | 2026-09-02 00:20:39 | 46.02970 | 13.92922 | 296° | 20km/h | 25046m | 4.3m/s | -53.0°C | 4.1% | 0hPa | 2.6V | 00:00:00 | 00:00:00 | 08:30:00 | |
| DO3MHA-11 | 2026-09-02 00:20:38 | 46.02967 | 13.92930 | 300° | 24km/h | 25041m | 5.7m/s | -53.0°C | 4.1% | 0hPa | 2.6V | 00:00:00 | 01:56:08 | 00:00:00 | |
| OE8JPQ-2 | 2026-09-02 00:20:37 | 46.02964 | 13.92938 | 306° | 22km/h | 25036m | 5.4m/s | -53.0°C | 4.1% | 0hPa | 2.5V | 00:00:00 | 00:00:00 | 00:00:00 | |
| NBG1-10 | 2026-09-02 00:20:35 | 46.02956 | 13.92953 | 306° | 22km/h | 25026m | 4.6m/s | -53.0°C | 4.1% | 0hPa | 2.5V | 00:00:00 | 01:56:05 | 00:00:00 | |
| DO3MHA-12 | 2026-09-02 00:20:34 | 46.02953 | 13.92960 | 300° | 20km/h | 25021m | 6.1m/s | -53.0°C | 4.2% | 0hPa | 2.5V | 00:00:00 | 01:56:04 | 00:00:00 | |
| IN3HCDX | 2026-09-02 00:20:33 | 46.02953 | 13.92960 | 301° | 22km/h | 25021m | 6.2m/s | -53.0°C | 1.2% | 0hPa | 2.5V | 00:00:00 | 00:00:00 | 00:00:00 | |
| OE5MMP-10 | 2026-09-02 00:20:31 | 46.02948 | 13.92981 | 283° | 20km/h | 25005m | 5.6m/s | 0°C | 0% | 0hPa | 2.5V | 00:00:00 | 01:56:01 | 00:00:00 | |
| DB0UT-7 | 2026-09-02 00:20:30 | 46.02947 | 13.92989 | 285° | 22km/h | 24999m | 5.7m/s | 0°C | 0% | 0hPa | 2.5V | 00:00:00 | 00:00:00 | 00:00:00 | |
| 9A1FER-10 | 2026-09-02 00:20:29 | 46.02945 | 13.92997 | 284° | 20km/h | 24994m | 4.6m/s | -52.8°C | 4.0% | 0hPa | 2.5V | 00:00:00 | 01:55:59 | 00:00:00 | |
| DO3MHA-11 | 2026-09-02 00:20:28 | 46.02944 | 13.93004 | 280° | 20km/h | 24989m | 5.1m/s | -52.8°C | 4.1% | 0hPa | 2.5V | 00:00:00 | 01:55:58 | 00:00:00 | |
| 9A1FER-3 | 2026-09-02 00:20:25 | 46.02944 | 13.93024 | 263° | 20km/h | 24972m | 5.3m/s | -52.8°C | 4.1% | 0hPa | 2.5V | 00:00:00 | 01:55:55 | 00:00:00 | |
| DO3MHA-12 | 2026-09-02 00:20:24 | 46.02945 | 13.93031 | 267° | 22km/h | 24966m | 6.1m/s | -52.7°C | 4.1% | 0hPa | 2.5V | 00:00:00 | 01:55:54 | 00:00:00 | |
| PG1ADW-2 | 2026-09-02 00:20:22 | 46.02945 | 13.93045 | 263° | 22km/h | 24956m | 4.7m/s | -52.7°C | 4.1% | 0hPa | 2.5V | 00:00:00 | 00:00:00 | 00:00:00 | |
| OE5MMP-10 | 2026-09-02 00:20:21 | 46.02946 | 13.93052 | 257° | 22km/h | 24951m | 6.5m/s | 0°C | 0% | 0hPa | 2.5V | 00:00:00 | 01:55:51 | 00:00:00 | |
| OE5DXL-15 | 2026-09-02 00:20:19 | 46.02949 | 13.93066 | 251° | 22km/h | 24939m | 5.1m/s | -52.7°C | 4.1% | 0hPa | 2.5V | 00:00:00 | 00:00:00 | 08:30:00 | |
| OE5WHR-10 | 2026-09-02 00:20:18 | 46.02951 | 13.93073 | 257° | 22km/h | 24934m | 5.4m/s | -52.7°C | 4.1% | 0hPa | 2.6V | 00:00:00 | 00:00:00 | 00:00:00 | |
| OE8JPQ-2 | 2026-09-02 00:20:17 | 46.02952 | 13.93082 | 264° | 22km/h | 24928m | 6.0m/s | -52.7°C | 4.0% | 0hPa | 2.6V | 00:00:00 | 01:55:47 | 00:00:00 | |
| 9A1FER-10 | 2026-09-02 00:20:14 | 46.02953 | 13.93107 | 264° | 22km/h | 24913m | 5.7m/s | -52.6°C | 4.0% | 0hPa | 2.6V | 00:00:00 | 01:55:44 | 00:00:00 | |
| PETON7-10 | 2026-09-02 00:20:13 | 46.02954 | 13.93114 | 251° | 22km/h | 24907m | 6.1m/s | -52.6°C | 4.0% | 0hPa | 2.6V | 00:00:00 | 01:55:43 | 00:00:00 | |
| IN3HCDX | 2026-09-02 00:20:12 | 46.02954 | 13.93114 | 251° | 20km/h | 24907m | 6.2m/s | -52.6°C | 1.1% | 0hPa | 2.6V | 00:00:00 | 00:00:00 | 00:00:00 | |
| OE5MMP-10 | 2026-09-02 00:20:11 | 46.02959 | 13.93127 | 237° | 24km/h | 24896m | 4.9m/s | 0°C | 0% | 0hPa | 2.6V | 00:00:00 | 01:55:41 | 00:00:00 | |
| 9A1FER-3 | 2026-09-02 00:20:10 | 46.02962 | 13.93134 | 239° | 22km/h | 24891m | 6.5m/s | -52.5°C | 4.0% | 0hPa | 2.6V | 00:00:00 | 01:55:40 | 00:00:00 | |
| OE5DRO-10 | 2026-09-02 00:20:09 | 46.02965 | 13.93142 | 242° | 22km/h | 24884m | 5.7m/s | -52.5°C | 4.0% | 0hPa | 2.6V | 00:00:00 | 00:00:00 | 00:00:00 | |
| DO3MHA-11 | 2026-09-02 00:20:08 | 46.02969 | 13.93151 | 242° | 22km/h | 24879m | 5.2m/s | -52.4°C | 4.0% | 0hPa | 2.6V | 00:00:00 | 01:55:38 | 08:30:00 | |
| DG1MFX-10 | 2026-09-02 00:20:05 | 46.02975 | 13.93167 | 237° | 24km/h | 24867m | 5.6m/s | -52.4°C | 1.1% | 0hPa | 2.6V | 00:00:00 | 00:00:00 | 00:00:00 | |
| DO3MHA-12 | 2026-09-02 00:20:04 | 46.02982 | 13.93181 | 238° | 18km/h | 24857m | 5.6m/s | -52.3°C | 3.9% | 0hPa | 2.6V | 00:00:00 | 01:55:34 | 00:00:00 | |
| SOBLACK | 2026-09-02 00:20:03 | 46.02982 | 13.93181 | 239° | 24km/h | 24857m | 5.7m/s | -52.4°C | 1.1% | 0hPa | 2.6V | 00:00:00 | 00:00:00 | 00:00:00 | |
| NBG1-10 | 2026-09-02 00:20:02 | 46.02988 | 13.93196 | 240° | 18km/h | 24846m | 4.9m/s | -52.3°C | 4.0% | 0hPa | 2.6V | 00:00:00 | 01:55:32 | 08:30:00 | |
| OE5MMP-10 | 2026-09-02 00:20:01 | 46.02991 | 13.93202 | 234° | 20km/h | 24842m | 4.7m/s | 0°C | 0% | 0hPa | 2.5V | 00:00:00 | 01:55:31 | 00:00:00 | |
| DB0UT-7 | 2026-09-02 00:20:00 | 46.02994 | 13.93207 | 222° | 16km/h | 24836m | 6.6m/s | 0°C | 0% | 0hPa | 2.5V | 00:00:00 | 01:55:30 | 00:00:00 | |
| 9A1FER-10 | 2026-09-02 00:19:59 | 46.02997 | 13.93211 | 209° | 20km/h | 24829m | 6.0m/s | -52.2°C | 3.9% | 0hPa | 2.5V | 00:00:00 | 01:55:29 | 00:00:00 | |
| DO3MHA-11 | 2026-09-02 00:19:58 | 46.03001 | 13.93213 | 205° | 20km/h | 24824m | 5.0m/s | -52.2°C | 3.9% | 0hPa | 2.5V | 00:00:00 | 01:55:28 | 00:00:00 | |
| OE5WHR-10 | 2026-09-02 00:19:57 | 46.03004 | 13.93216 | 213° | 20km/h | 24818m | 5.9m/s | -52.2°C | 3.9% | 0hPa | 2.5V | 00:00:00 | 01:55:27 | 00:00:00 | |
| 9A1FER-3 | 2026-09-02 00:19:55 | 46.03010 | 13.93224 | 231° | 22km/h | 24807m | 5.0m/s | -52.2°C | 3.9% | 0hPa | 2.5V | 00:00:00 | 01:55:25 | 08:30:00 | |
| DO3MHA-12 | 2026-09-02 00:19:54 | 46.03013 | 13.93229 | 231° | 24km/h | 24802m | 5.5m/s | -52.2°C | 4.0% | 0hPa | 2.6V | 00:00:00 | 01:55:24 | 00:00:00 | |
| IN3HCDX | 2026-09-02 00:19:52 | 46.03017 | 13.93235 | 227° | 22km/h | 24795m | 6.6m/s | -52.3°C | 1.1% | 0hPa | 2.6V | 00:00:00 | 00:00:00 | 00:00:00 | |
| IV3AMH | 2026-09-02 00:19:51 | 46.03021 | 13.93240 | 222° | 22km/h | 24789m | 5.5m/s | -52.3°C | 1.1% | 0hPa | 2.6V | 00:00:00 | 00:00:00 | 00:00:00 | |
| OE5MMP-10 | 2026-09-02 00:19:50 | 46.03029 | 13.93252 | 228° | 22km/h | 24779m | 5.5m/s | 0°C | 0% | 0hPa | 2.6V | 00:00:00 | 01:55:20 | 00:00:00 | |
| OE5DXL-15 | 2026-09-02 00:19:49 | 46.03033 | 13.93259 | 233° | 18km/h | 24774m | 5.7m/s | -52.2°C | 3.9% | 0hPa | 2.6V | 00:00:00 | 00:00:00 | 00:00:00 | |
| DO3MHA-11 | 2026-09-02 00:19:48 | 46.03037 | 13.93266 | 231° | 20km/h | 24768m | 4.2m/s | -52.2°C | 3.9% | 0hPa | 2.6V | 00:00:00 | 01:55:18 | 00:00:00 | |
| DG1MFX-10 | 2026-09-02 00:19:46 | 46.03046 | 13.93277 | 212° | 24km/h | 24759m | 6.2m/s | -52.3°C | 1.1% | 0hPa | 2.6V | 00:00:00 | 00:00:00 | 00:00:00 | |
| 9A1FER-10 | 2026-09-02 00:19:44 | 46.03058 | 13.93283 | 188° | 16km/h | 24748m | 4.9m/s | -52.2°C | 3.9% | 0hPa | 2.6V | 00:00:00 | 01:55:14 | 08:30:00 | |
| PETON7-10 | 2026-09-02 00:19:43 | 46.03063 | 13.93284 | 185° | 16km/h | 24743m | 4.8m/s | -52.2°C | 4.0% | 0hPa | 2.6V | 00:00:00 | 00:00:00 | 00:00:00 | |
| PG1ADW-2 | 2026-09-02 00:19:42 | 46.03068 | 13.93284 | 189° | 18km/h | 24737m | 6.1m/s | -52.2°C | 3.9% | 0hPa | 2.6V | 00:00:00 | 00:00:00 | 00:00:00 | |
| SOBLACK | 2026-09-02 00:19:41 | 46.03068 | 13.93284 | 189° | 16km/h | 24737m | 6.2m/s | -52.2°C | 1.1% | 0hPa | 2.6V | 00:00:00 | 00:00:00 | 00:00:00 | |
| 9A1FER-3 | 2026-09-02 00:19:40 | 46.03074 | 13.93288 | 217° | 16km/h | 24726m | 4.5m/s | -52.1°C | 3.9% | 0hPa | 2.6V | 00:00:00 | 01:55:10 | 00:00:00 | |
| DO3MHA-11 | 2026-09-02 00:19:38 | 46.03080 | 13.93294 | 218° | 16km/h | 24716m | 6.0m/s | -52.0°C | 4.0% | 0hPa | 2.6V | 00:00:00 | 01:55:08 | 00:00:00 | |
| OE8JPQ-2 | 2026-09-02 00:19:37 | 46.03083 | 13.93297 | 216° | 16km/h | 24710m | 5.2m/s | -52.0°C | 3.9% | 0hPa | 2.5V | 00:00:00 | 00:00:00 | 00:00:00 | |
| OE5WHR-10 | 2026-09-02 00:19:36 | 46.03086 | 13.93301 | 220° | 16km/h | 24705m | 4.7m/s | -52.0°C | 3.9% | 0hPa | 2.5V | 00:00:00 | 00:00:00 | 00:00:00 | |
| DO3MHA-12 | 2026-09-02 00:19:34 | 46.03091 | 13.93310 | 238° | 18km/h | 24694m | 6.0m/s | -52.0°C | 3.9% | 0hPa | 2.6V | 00:00:00 | 01:55:04 | 00:00:00 | |
| OE5DRO-10 | 2026-09-02 00:19:31 | 46.03099 | 13.93323 | 217° | 16km/h | 24678m | 6.3m/s | -52.0°C | 3.9% | 0hPa | 2.6V | 00:00:00 | 00:00:00 | 00:00:00 | |
| 9A1FER-10 | 2026-09-02 00:19:29 | 46.03108 | 13.93330 | 205° | 16km/h | 24668m | 4.4m/s | -52.0°C | 3.8% | 0hPa | 2.6V | 00:00:00 | 01:54:59 | 00:00:00 | |
| PETON7-10 | 2026-09-02 00:19:28 | 46.03112 | 13.93333 | 211° | 16km/h | 24663m | 5.2m/s | -52.0°C | 3.9% | 0hPa | 2.6V | 00:00:00 | 01:54:58 | 00:00:00 | |
| 9A1FER-3 | 2026-09-02 00:19:25 | 46.03121 | 13.93346 | 239° | 15km/h | 24647m | 4.5m/s | -51.9°C | 3.8% | 0hPa | 2.6V | 00:00:00 | 01:54:55 | 00:00:00 | |
| DO3MHA-12 | 2026-09-02 00:19:24 | 46.03123 | 13.93351 | 237° | 16km/h | 24642m | 5.4m/s | -51.9°C | 3.8% | 0hPa | 2.6V | 00:00:00 | 01:54:54 | 00:00:00 | |
| PG1ADW-2 | 2026-09-02 00:19:20 | 46.03136 | 13.93369 | 223° | 16km/h | 24621m | 5.5m/s | -51.9°C | 3.8% | 0hPa | 2.6V | 00:00:00 | 01:54:50 | 00:00:00 | |
| OE5DXL-15 | 2026-09-02 00:19:19 | 46.03139 | 13.93374 | 228° | 16km/h | 24615m | 5.8m/s | -51.9°C | 3.8% | 0hPa | 2.6V | 00:00:00 | 00:00:00 | 00:00:00 | |
| DO3MHA-11 | 2026-09-02 00:19:18 | 46.03142 | 13.93378 | 229° | 13km/h | 24610m | 4.9m/s | -52.0°C | 3.8% | 0hPa | 2.6V | 00:00:00 | 01:54:48 | 00:00:00 | |
| OE8JPQ-2 | 2026-09-02 00:19:17 | 46.03145 | 13.93382 | 220° | 16km/h | 24605m | 4.4m/s | -52.0°C | 3.9% | 0hPa | 2.6V | 00:00:00 | 01:54:47 | 00:00:00 | |
| OE5WHR-10 | 2026-09-02 00:19:15 | 46.03151 | 13.93387 | 193° | 16km/h | 24594m | 5.9m/s | -52.1°C | 3.8% | 0hPa | 2.6V | 00:00:00 | 00:00:00 | 00:00:00 | |
| DO3MHA-12 | 2026-09-02 00:19:14 | 46.03155 | 13.93388 | 187° | 15km/h | 24589m | 4.9m/s | -52.1°C | 3.9% | 0hPa | 2.6V | 00:00:00 | 01:54:44 | 00:00:00 | |
| PETON7-10 | 2026-09-02 00:19:13 | 46.03159 | 13.93388 | 189° | 16km/h | 24583m | 5.7m/s | -52.2°C | 3.9% | 0hPa | 2.5V | 00:00:00 | 00:00:00 | 00:00:00 | |
| OE5DRO-10 | 2026-09-02 00:19:12 | 46.03162 | 13.93389 | 197° | 16km/h | 24578m | 5.7m/s | -52.2°C | 3.9% | 0hPa | 2.5V | 00:00:00 | 00:00:00 | 00:00:00 | |
| IV3AMH | 2026-09-02 00:19:11 | 46.03162 | 13.93389 | 197° | 11km/h | 24578m | 5.8m/s | -52.3°C | 1.1% | 0hPa | 2.5V | 00:00:00 | 00:00:00 | 00:00:00 | |
| 9A1FER-3 | 2026-09-02 00:19:10 | 46.03167 | 13.93392 | 199° | 18km/h | 24568m | 5.2m/s | -52.3°C | 3.9% | 0hPa | 2.5V | 00:00:00 | 01:54:40 | 00:00:00 | |
| IN3HCDX | 2026-09-02 00:19:09 | 46.03167 | 13.93392 | 200° | 11km/h | 24568m | 5.3m/s | -52.3°C | 1.1% | 0hPa | 2.6V | 00:00:00 | 00:00:00 | 00:00:00 | |
| DO3MHA-11 | 2026-09-02 00:19:08 | 46.03173 | 13.93394 | 196° | 18km/h | 24556m | 5.1m/s | -52.3°C | 4.0% | 0hPa | 2.6V | 00:00:00 | 01:54:38 | 00:00:00 | |
| DO3MHA-12 | 2026-09-02 00:19:04 | 46.03188 | 13.93404 | 205° | 18km/h | 24535m | 4.5m/s | -52.5°C | 4.0% | 0hPa | 2.6V | 00:00:00 | 01:54:34 | 00:00:00 | |
| PG1ADW-2 | 2026-09-02 00:19:00 | 46.03209 | 13.93406 | 170° | 15km/h | 24514m | 5.4m/s | -52.5°C | 4.1% | 0hPa | 2.6V | 00:00:00 | 00:00:00 | 00:00:00 | |
| DO3MHA-11 | 2026-09-02 00:18:58 | 46.03218 | 13.93403 | 162° | 15km/h | 24503m | 4.9m/s | -52.4°C | 4.1% | 0hPa | 2.6V | 00:00:00 | 01:54:28 | 00:00:00 | |
| OE8JPQ-2 | 2026-09-02 00:18:57 | 46.03222 | 13.93401 | 158° | 13km/h | 24498m | 5.0m/s | -52.4°C | 4.0% | 0hPa | 2.6V | 00:00:00 | 00:00:00 | 08:30:00 | |
| NBG1-10 | 2026-09-02 00:18:56 | 46.03226 | 13.93399 | 155° | 13km/h | 24492m | 6.1m/s | -52.4°C | 4.1% | 0hPa | 2.5V | 00:00:00 | 01:54:26 | 00:00:00 | |
| 9A1FER-3 | 2026-09-02 00:18:55 | 46.03230 | 13.93396 | 156° | 15km/h | 24487m | 4.8m/s | -52.4°C | 4.0% | 0hPa | 2.5V | 00:00:00 | 01:54:25 | 00:00:00 | |
| DO3MHA-12 | 2026-09-02 00:18:54 | 46.03234 | 13.93393 | 160° | 15km/h | 24482m | 4.7m/s | -52.3°C | 4.0% | 0hPa | 2.5V | 00:00:00 | 01:54:24 | 00:00:00 | |
| OE5DRO-10 | 2026-09-02 00:18:53 | 46.03237 | 13.93392 | 167° | 13km/h | 24476m | 6.3m/s | -52.3°C | 4.0% | 0hPa | 2.5V | 00:00:00 | 00:00:00 | 08:30:00 | |
| OE5DXL-15 | 2026-09-02 00:18:49 | 46.03250 | 13.93394 | 190° | 13km/h | 24455m | 5.8m/s | -52.2°C | 4.0% | 0hPa | 2.5V | 00:00:00 | 00:00:00 | 00:00:00 | |
| DO3MHA-11 | 2026-09-02 00:18:48 | 46.03254 | 13.93395 | 190° | 13km/h | 24450m | 4.8m/s | -52.2°C | 4.0% | 0hPa | 2.6V | 00:00:00 | 01:54:18 | 00:00:00 | |
| DO3MHA-12 | 2026-09-02 00:18:44 | 46.03270 | 13.93400 | 187° | 11km/h | 24428m | 5.3m/s | -52.1°C | 3.9% | 0hPa | 2.6V | 00:00:00 | 01:54:14 | 08:30:00 | |
| PETON7-10 | 2026-09-02 00:18:43 | 46.03273 | 13.93400 | 178° | 11km/h | 24422m | 6.3m/s | -52.1°C | 3.9% | 0hPa | 2.6V | 00:00:00 | 01:54:13 | 00:00:00 | |
| PG1ADW-2 | 2026-09-02 00:18:40 | 46.03282 | 13.93398 | 162° | 11km/h | 24406m | 6.0m/s | -52.1°C | 3.9% | 0hPa | 2.6V | 00:00:00 | 00:00:00 | 00:00:00 | |
| DO3MHA-11 | 2026-09-02 00:18:38 | 46.03285 | 13.93396 | 169° | 13km/h | 24396m | 4.2m/s | -52.0°C | 3.9% | 0hPa | 2.6V | 00:00:00 | 01:54:08 | 08:30:00 | |
| OE8JPQ-2 | 2026-09-02 00:18:37 | 46.03287 | 13.93396 | 175° | 11km/h | 24391m | 5.2m/s | -52.0°C | 3.9% | 0hPa | 2.6V | 00:00:00 | 00:00:00 | 00:00:00 | |
| DO3MHA-12 | 2026-09-02 00:18:34 | 46.03298 | 13.93396 | 187° | 13km/h | 24375m | 4.6m/s | -52.0°C | 3.9% | 0hPa | 2.6V | 00:00:00 | 01:54:04 | 00:00:00 | |
| OE5WHR-10 | 2026-09-02 00:18:33 | 46.03302 | 13.93397 | 194° | 9km/h | 24369m | 6.0m/s | -52.0°C | 3.8% | 0hPa | 2.6V | 00:00:00 | 00:00:00 | 00:00:00 | |
| SOBLACK | 2026-09-02 00:18:32 | 46.03306 | 13.93399 | 204° | 15km/h | 24363m | 5.4m/s | -52.0°C | 1.1% | 0hPa | 2.5V | 00:00:00 | 00:00:00 | 00:00:00 | |
| 9A1FER-10 | 2026-09-02 00:18:29 | 46.03316 | 13.93406 | 203° | 9km/h | 24347m | 5.6m/s | -52.0°C | 3.9% | 0hPa | 2.5V | 00:00:00 | 01:53:59 | 00:00:00 | |
| PETON7-10 | 2026-09-02 00:18:28 | 46.03319 | 13.93407 | 205° | 7km/h | 24342m | 4.2m/s | -52.0°C | 3.9% | 0hPa | 2.5V | 00:00:00 | 00:00:00 | 08:30:00 | |
| 9A1FER-3 | 2026-09-02 00:18:25 | 46.03323 | 13.93414 | 268° | 7km/h | 24327m | 4.7m/s | -52.0°C | 3.9% | 0hPa | 2.5V | 00:00:00 | 01:53:55 | 00:00:00 | |
| DO3MHA-12 | 2026-09-02 00:18:24 | 46.03323 | 13.93416 | 266° | 7km/h | 24322m | 4.0m/s | -52.0°C | 3.9% | 0hPa | 2.5V | 00:00:00 | 01:53:54 | 00:00:00 | |
| NBG1-10 | 2026-09-02 00:18:23 | 46.03323 | 13.93418 | 234° | 7km/h | 24318m | 5.2m/s | -52.1°C | 3.9% | 0hPa | 2.5V | 00:00:00 | 01:53:53 | 00:00:00 | |
| PG1ADW-2 | 2026-09-02 00:18:20 | 46.03330 | 13.93422 | 205° | 7km/h | 24303m | 4.3m/s | -52.1°C | 0% | 0hPa | 2.6V | 00:00:00 | 00:00:00 | 08:30:00 | |
| OE5DXL-15 | 2026-09-02 00:18:19 | 46.03332 | 13.93424 | 216° | 7km/h | 24298m | 5.8m/s | -52.1°C | 3.9% | 0hPa | 2.6V | 00:00:00 | 00:00:00 | 00:00:00 | |
| DO3MHA-11 | 2026-09-02 00:18:18 | 46.03335 | 13.93427 | 232° | 5km/h | 24292m | 4.9m/s | -52.1°C | 3.9% | 0hPa | 2.6V | 00:00:00 | 01:53:48 | 00:00:00 | |
| OE8JPQ-2 | 2026-09-02 00:18:17 | 46.03336 | 13.93430 | 246° | 7km/h | 24288m | 4.1m/s | -52.1°C | 3.9% | 0hPa | 2.6V | 00:00:00 | 01:53:47 | 00:00:00 | |
| IN3HCDX1 | 2026-09-02 00:18:16 | 46.03336 | 13.93430 | 246° | 7km/h | 24288m | 4.1m/s | -52.2°C | 1.1% | 0hPa | 2.6V | 00:00:00 | 00:00:00 | 00:00:00 | |
| OE5DRO-10 | 2026-09-02 00:18:15 | 46.03336 | 13.93432 | 44° | 7km/h | 24278m | 6.1m/s | -52.1°C | 3.9% | 0hPa | 2.6V | 00:00:00 | 00:00:00 | 00:00:00 | |
| DO3MHA-12 | 2026-09-02 00:18:14 | 46.03336 | 13.93431 | 60° | 5km/h | 24272m | 5.0m/s | -52.1°C | 3.9% | 0hPa | 2.6V | 00:00:00 | 01:53:44 | 00:00:00 | |
| PETON7-10 | 2026-09-02 00:18:13 | 46.03334 | 13.93429 | 51° | 7km/h | 24268m | 4.5m/s | -52.1°C | 3.9% | 0hPa | 2.6V | 00:00:00 | 00:00:00 | 00:00:00 | |
| SOBLACK | 2026-09-02 00:18:10 | 46.03330 | 13.93424 | 29° | 5km/h | 24252m | 4.5m/s | -52.3°C | 1.1% | 0hPa | 2.6V | 00:00:00 | 00:00:00 | 00:00:00 | |
| OE5WHR-10 | 2026-09-02 00:18:08 | 46.03330 | 13.93423 | 160° | 7km/h | 24241m | 4.8m/s | -52.3°C | 3.9% | 0hPa | 2.6V | 00:00:00 | 00:00:00 | 00:00:00 | |
| IN3HCDX | 2026-09-02 00:18:07 | 46.03330 | 13.93423 | 161° | 4km/h | 24241m | 4.8m/s | -52.3°C | 1.1% | 0hPa | 2.6V | 00:00:00 | 00:00:00 | 00:00:00 | |
| DO3MHA-12 | 2026-09-02 00:18:04 | 46.03334 | 13.93431 | 269° | 9km/h | 24222m | 5.0m/s | -52.3°C | 3.9% | 0hPa | 2.6V | 00:00:00 | 01:53:34 | 00:00:00 | |
| DG1MFX-10 | 2026-09-02 00:18:02 | 46.03333 | 13.93435 | 284° | 11km/h | 24217m | 4.2m/s | -52.4°C | 1.1% | 0hPa | 2.6V | 00:00:00 | 00:00:00 | 00:00:00 | |
| PG1ADW-2 | 2026-09-02 00:18:00 | 46.03331 | 13.93440 | 48° | 5km/h | 24203m | 4.9m/s | -52.3°C | 3.9% | 0hPa | 2.6V | 00:00:00 | 01:53:30 | 00:00:00 | |
| 9A1FER-10 | 2026-09-02 00:17:59 | 46.03329 | 13.93437 | 53° | 7km/h | 24198m | 4.2m/s | -52.3°C | 3.9% | 0hPa | 2.6V | 00:00:00 | 01:53:29 | 00:00:00 | |
| PETON7-10 | 2026-09-02 00:17:58 | 46.03327 | 13.93434 | 46° | 7km/h | 24193m | 5.3m/s | -52.3°C | 3.9% | 0hPa | 2.6V | 00:00:00 | 01:53:28 | 00:00:00 | |
| OE8JPQ-2 | 2026-09-02 00:17:57 | 46.03325 | 13.93432 | 30° | 5km/h | 24188m | 5.0m/s | -52.3°C | 3.9% | 0hPa | 2.6V | 00:00:00 | 00:00:00 | 00:00:00 | |
| OE5DRO-10 | 2026-09-02 00:17:56 | 46.03323 | 13.93430 | 6° | 5km/h | 24183m | 4.4m/s | -52.3°C | 3.9% | 0hPa | 2.6V | 00:00:00 | 00:00:00 | 00:00:00 | |
| 9A1FER-3 | 2026-09-02 00:17:55 | 46.03321 | 13.93431 | 334° | 5km/h | 24179m | 4.4m/s | -52.3°C | 3.9% | 0hPa | 2.6V | 00:00:00 | 01:53:25 | 00:00:00 | |
| DO3MHA-12 | 2026-09-02 00:17:54 | 46.03320 | 13.93432 | 291° | 7km/h | 24174m | 5.1m/s | -52.3°C | 4.0% | 0hPa | 2.6V | 00:00:00 | 01:53:24 | 00:00:00 | |
| NBG1-10 | 2026-09-02 00:17:50 | 46.03323 | 13.93442 | 254° | 5km/h | 24155m | 5.2m/s | -52.4°C | 3.9% | 0hPa | 2.6V | 00:00:00 | 01:53:20 | 00:00:00 | |
| IN3HCDX | 2026-09-02 00:17:49 | 46.03322 | 13.93447 | 321° | 7km/h | 24144m | 4.7m/s | -52.4°C | 1.1% | 0hPa | 2.6V | 00:00:00 | 00:00:00 | 00:00:00 | |
| OE5WHR-10 | 2026-09-02 00:17:46 | 46.03320 | 13.93447 | 28° | 5km/h | 24134m | 5.8m/s | -52.3°C | 3.9% | 0hPa | 2.6V | 00:00:00 | 01:53:16 | 00:00:00 | |
| DO3MHA-12 | 2026-09-02 00:17:44 | 46.03319 | 13.93445 | 84° | 4km/h | 24124m | 4.7m/s | -52.3°C | 3.9% | 0hPa | 2.6V | 00:00:00 | 01:53:14 | 00:00:00 | |
| PETON7-10 | 2026-09-02 00:17:43 | 46.03319 | 13.93443 | 69° | 4km/h | 24119m | 5.5m/s | -52.3°C | 3.9% | 0hPa | 2.5V | 00:00:00 | 00:00:00 | 00:00:00 | |
| DG1MFX-10 | 2026-09-02 00:17:42 | 46.03319 | 13.93443 | 69° | 4km/h | 24119m | 5.5m/s | -52.4°C | 1.1% | 0hPa | 2.5V | 00:00:00 | 00:00:00 | 00:00:00 | |
| 9A1FER-3 | 2026-09-02 00:17:40 | 46.03317 | 13.93442 | 275° | 5km/h | 24104m | 4.7m/s | -52.3°C | 3.9% | 0hPa | 2.5V | 00:00:00 | 01:53:10 | 08:30:00 | |
| PG1ADW-2 | 2026-09-02 00:17:39 | 46.03318 | 13.93442 | 190° | 7km/h | 24099m | 6.1m/s | -52.3°C | 3.9% | 0hPa | 2.6V | 00:00:00 | 00:00:00 | 00:00:00 | |
| DO3MHA-11 | 2026-09-02 00:17:38 | 46.03319 | 13.93442 | 185° | 5km/h | 24093m | 4.9m/s | -52.4°C | 3.9% | 0hPa | 2.6V | 00:00:00 | 01:53:08 | 00:00:00 | |
| OE8JPQ-2 | 2026-09-02 00:17:37 | 46.03320 | 13.93443 | 190° | 7km/h | 24089m | 3.9m/s | -52.4°C | 3.9% | 0hPa | 2.5V | 00:00:00 | 00:00:00 | 00:00:00 | |
| IN3HCDX1 | 2026-09-02 00:17:35 | 46.03321 | 13.93443 | 213° | 4km/h | 24084m | 5.2m/s | -52.5°C | 1.1% | 0hPa | 2.5V | 00:00:00 | 00:00:00 | 00:00:00 | |
| DO3MHA-12 | 2026-09-02 00:17:34 | 46.03321 | 13.93446 | 308° | 7km/h | 24074m | 4.3m/s | -52.6°C | 3.9% | 0hPa | 2.5V | 00:00:00 | 01:53:04 | 00:00:00 | |
| 9A1FER-10 | 2026-09-02 00:17:29 | 46.03320 | 13.93442 | 86° | 9km/h | 24049m | 5.6m/s | -52.8°C | 4.0% | 0hPa | 2.5V | 00:00:00 | 01:52:59 | 08:30:00 | |
| DO3MHA-11 | 2026-09-02 00:17:28 | 46.03319 | 13.93439 | 76° | 9km/h | 24043m | 5.3m/s | -52.8°C | 4.0% | 0hPa | 2.5V | 00:00:00 | 01:52:58 | 00:00:00 | |
| PETON7-10 | 2026-09-02 00:17:27 | 46.03319 | 13.93436 | 78° | 7km/h | 24039m | 3.7m/s | -52.8°C | 4.0% | 0hPa | 2.5V | 00:00:00 | 00:00:00 | 00:00:00 | |
| SOBLACK | 2026-09-02 00:17:26 | 46.03319 | 13.93433 | 93° | 9km/h | 24035m | 4.4m/s | -52.9°C | 1.1% | 0hPa | 2.5V | 00:00:00 | 00:00:00 | 00:00:00 | |
| 9A1FER-3 | 2026-09-02 00:17:25 | 46.03319 | 13.93430 | 113° | 7km/h | 24030m | 6.0m/s | -52.8°C | 4.0% | 0hPa | 2.5V | 00:00:00 | 01:52:55 | 00:00:00 | |
| DO3MHA-12 | 2026-09-02 00:17:24 | 46.03320 | 13.93426 | 128° | 9km/h | 24024m | 5.3m/s | -52.8°C | 4.0% | 0hPa | 2.5V | 00:00:00 | 01:52:54 | 00:00:00 | |
| DG1MFX-10 | 2026-09-02 00:17:21 | 46.03324 | 13.93421 | 128° | 9km/h | 24014m | 5.7m/s | -52.9°C | 1.2% | 0hPa | 2.5V | 00:00:00 | 00:00:00 | 00:00:00 | |
| OE3JTB-15 | 2026-09-02 00:17:20 | 46.03325 | 13.93416 | 113° | 9km/h | 24004m | 3.8m/s | -52.9°C | 4.0% | 0hPa | 2.5V | 00:00:00 | 01:52:50 | 00:00:00 | |
| PG1ADW-2 | 2026-09-02 00:17:19 | 46.03326 | 13.93415 | 134° | 9km/h | 24000m | 4.4m/s | -52.9°C | 4.0% | 0hPa | 2.5V | 00:00:00 | 00:00:00 | 00:00:00 | |
| DO3MHA-12 | 2026-09-02 00:17:14 | 46.03336 | 13.93409 | 154° | 5km/h | 23974m | 5.6m/s | -53.1°C | 4.1% | 0hPa | 2.6V | 00:00:00 | 01:52:44 | 08:30:00 | |
| PETON7-10 | 2026-09-02 00:17:12 | 46.03336 | 13.93408 | 137° | 7km/h | 23965m | 4.3m/s | -53.1°C | 4.1% | 0hPa | 2.6V | 00:00:00 | 01:52:42 | 00:00:00 | |
| IV3AMH | 2026-09-02 00:17:11 | 46.03337 | 13.93408 | 138° | 2km/h | 23965m | 4.3m/s | -53.1°C | 1.2% | 0hPa | 2.6V | 00:00:00 | 00:00:00 | 00:00:00 | |
| 9A1FER-3 | 2026-09-02 00:17:10 | 46.03338 | 13.93407 | 178° | 9km/h | 23954m | 4.7m/s | -53.1°C | 4.1% | 0hPa | 2.6V | 00:00:00 | 01:52:40 | 00:00:00 | |
| DO3MHA-11 | 2026-09-02 00:17:08 | 46.03341 | 13.93408 | 219° | 9km/h | 23944m | 5.5m/s | -53.1°C | 4.1% | 0hPa | 2.6V | 00:00:00 | 01:52:38 | 08:30:00 | |
| SOBLACK | 2026-09-02 00:17:05 | 46.03343 | 13.93414 | 239° | 9km/h | 23930m | 4.1m/s | -53.2°C | 1.2% | 0hPa | 2.6V | 00:00:00 | 00:00:00 | 00:00:00 | |
| DO3MHA-12 | 2026-09-02 00:17:04 | 46.03345 | 13.93417 | 222° | 13km/h | 23926m | 5.7m/s | -53.2°C | 4.1% | 0hPa | 2.6V | 00:00:00 | 01:52:34 | 00:00:00 | |
| OE5WHR-10 | 2026-09-02 00:17:03 | 46.03347 | 13.93419 | 206° | 16km/h | 23920m | 4.9m/s | -53.2°C | 4.1% | 0hPa | 2.6V | 00:00:00 | 00:00:00 | 00:00:00 | |
| DG1MFX-10 | 2026-09-02 00:17:00 | 46.03353 | 13.93422 | 192° | 11km/h | 23911m | 5.6m/s | -53.3°C | 1.2% | 0hPa | 2.6V | 00:00:00 | 00:00:00 | 00:00:00 | |
| 9A1FER-10 | 2026-09-02 00:16:59 | 46.03358 | 13.93423 | 192° | 16km/h | 23902m | 3.9m/s | -53.3°C | 4.2% | 0hPa | 2.6V | 00:00:00 | 01:52:29 | 00:00:00 | |
| DO3MHA-11 | 2026-09-02 00:16:58 | 46.03360 | 13.93424 | 198° | 16km/h | 23897m | 5.7m/s | -53.3°C | 4.2% | 0hPa | 2.6V | 00:00:00 | 01:52:28 | 00:00:00 | |
| OE8JPQ-2 | 2026-09-02 00:16:57 | 46.03364 | 13.93426 | 206° | 16km/h | 23891m | 5.3m/s | -53.3°C | 4.1% | 0hPa | 2.6V | 00:00:00 | 00:00:00 | 00:00:00 | |
| 9A1FER-3 | 2026-09-02 00:16:55 | 46.03370 | 13.93433 | 229° | 16km/h | 23881m | 5.4m/s | -53.3°C | 4.1% | 0hPa | 2.5V | 00:00:00 | 01:52:25 | 00:00:00 | |
| DO3MHA-12 | 2026-09-02 00:16:54 | 46.03373 | 13.93438 | 240° | 18km/h | 23876m | 5.3m/s | -53.3°C | 4.1% | 0hPa | 2.6V | 00:00:00 | 01:52:24 | 00:00:00 | |
| IN3HCDX1 | 2026-09-02 00:16:53 | 46.03373 | 13.93438 | 240° | 16km/h | 23876m | 5.3m/s | -53.3°C | 1.2% | 0hPa | 2.6V | 00:00:00 | 00:00:00 | 00:00:00 | |
| OE3JTB-15 | 2026-09-02 00:16:52 | 46.03382 | 13.93458 | 223° | 18km/h | 23856m | 4.8m/s | -53.3°C | 4.2% | 0hPa | 2.6V | 00:00:00 | 00:00:00 | 00:00:00 | |
| OE5DXL-15 | 2026-09-02 00:16:49 | 46.03386 | 13.93463 | 218° | 16km/h | 23852m | 4.4m/s | -53.3°C | 4.2% | 0hPa | 2.6V | 00:00:00 | 00:00:00 | 00:00:00 | |
| DO3MHA-11 | 2026-09-02 00:16:48 | 46.03390 | 13.93468 | 216° | 16km/h | 23847m | 5.7m/s | -53.3°C | 4.1% | 0hPa | 2.6V | 00:00:00 | 01:52:18 | 00:00:00 | |
| DO3MHA-12 | 2026-09-02 00:16:44 | 46.03406 | 13.93479 | 199° | 18km/h | 23825m | 5.1m/s | -53.3°C | 4.2% | 0hPa | 2.6V | 00:00:00 | 01:52:14 | 00:00:00 | |
| OE5WHR-10 | 2026-09-02 00:16:42 | 46.03414 | 13.93484 | 206° | 18km/h | 23816m | 5.4m/s | -53.3°C | 4.2% | 0hPa | 2.5V | 00:00:00 | 01:52:12 | 00:00:00 | |
| 9A1FER-3 | 2026-09-02 00:16:40 | 46.03419 | 13.93490 | 228° | 18km/h | 23806m | 3.9m/s | -53.3°C | 4.1% | 0hPa | 2.5V | 00:00:00 | 01:52:10 | 00:00:00 | |
| PG1ADW-2 | 2026-09-02 00:16:38 | 46.03425 | 13.93498 | 226° | 16km/h | 23797m | 5.8m/s | -53.3°C | 4.1% | 0hPa | 2.5V | 00:00:00 | 01:52:08 | 00:00:00 | |
| OE8JPQ-2 | 2026-09-02 00:16:37 | 46.03429 | 13.93503 | 220° | 15km/h | 23791m | 5.1m/s | -53.3°C | 4.1% | 0hPa | 2.5V | 00:00:00 | 00:00:00 | 00:00:00 | |
| DO3MHA-12 | 2026-09-02 00:16:34 | 46.03443 | 13.93517 | 211° | 16km/h | 23776m | 5.2m/s | -53.3°C | 4.1% | 0hPa | 2.5V | 00:00:00 | 01:52:04 | 00:00:00 | |
| IV3AMH | 2026-09-02 00:16:33 | 46.03443 | 13.93517 | 211° | 20km/h | 23776m | 5.3m/s | -53.4°C | 1.2% | 0hPa | 2.5V | 00:00:00 | 00:00:00 | 00:00:00 | |
| IN3HCDX1 | 2026-09-02 00:16:32 | 46.03447 | 13.93520 | 207° | 18km/h | 23771m | 4.0m/s | -53.3°C | 1.2% | 0hPa | 2.5V | 00:00:00 | 00:00:00 | 00:00:00 | |
| 9A1FER-10 | 2026-09-02 00:16:29 | 46.03466 | 13.93532 | 203° | 13km/h | 23751m | 4.7m/s | -53.3°C | 4.1% | 0hPa | 2.5V | 00:00:00 | 01:51:59 | 00:00:00 | |
| DO3MHA-11 | 2026-09-02 00:16:28 | 46.03469 | 13.93534 | 203° | 11km/h | 23745m | 6.1m/s | -53.3°C | 4.1% | 0hPa | 2.5V | 00:00:00 | 01:51:58 | 00:00:00 | |
| PETON7-10 | 2026-09-02 00:16:26 | 46.03474 | 13.93537 | 212° | 11km/h | 23735m | 4.1m/s | -53.3°C | 4.2% | 0hPa | 2.5V | 00:00:00 | 01:51:56 | 00:00:00 | |
| 9A1FER-3 | 2026-09-02 00:16:25 | 46.03476 | 13.93539 | 218° | 11km/h | 23730m | 5.3m/s | -53.3°C | 4.1% | 0hPa | 2.5V | 00:00:00 | 01:51:55 | 00:00:00 | |
| DO3MHA-12 | 2026-09-02 00:16:24 | 46.03478 | 13.93542 | 222° | 13km/h | 23725m | 5.2m/s | -53.3°C | 4.1% | 0hPa | 2.5V | 00:00:00 | 01:51:54 | 00:00:00 | |
| IN3HCDX | 2026-09-02 00:16:23 | 46.03478 | 13.93542 | 223° | 13km/h | 23725m | 5.3m/s | -53.3°C | 1.2% | 0hPa | 2.5V | 00:00:00 | 00:00:00 | 00:00:00 | |
| SOBLACK | 2026-09-02 00:16:21 | 46.03485 | 13.93551 | 226° | 11km/h | 23711m | 5.6m/s | -53.3°C | 1.2% | 0hPa | 2.5V | 00:00:00 | 00:00:00 | 00:00:00 | |
| DG1MFX-10 | 2026-09-02 00:16:20 | 46.03485 | 13.93551 | 226° | 11km/h | 23711m | 5.6m/s | -53.3°C | 1.2% | 0hPa | 2.5V | 00:00:00 | 00:00:00 | 00:00:00 | |
| OE5DXL-15 | 2026-09-02 00:16:19 | 46.03488 | 13.93555 | 209° | 13km/h | 23701m | 4.4m/s | -53.2°C | 4.1% | 0hPa | 2.5V | 00:00:00 | 00:00:00 | 00:00:00 | |
| DO3MHA-11 | 2026-09-02 00:16:18 | 46.03490 | 13.93556 | 193° | 11km/h | 23696m | 4.4m/s | -53.1°C | 4.1% | 0hPa | 2.5V | 00:00:00 | 01:51:48 | 00:00:00 | |
| OE8JPQ-2 | 2026-09-02 00:16:17 | 46.03493 | 13.93556 | 185° | 11km/h | 23691m | 6.0m/s | -53.1°C | 4.1% | 0hPa | 2.5V | 00:00:00 | 01:51:47 | 00:00:00 | |
| OE3JTB-15 | 2026-09-02 00:16:13 | 46.03508 | 13.93553 | 151° | 15km/h | 23671m | 5.3m/s | -53.1°C | 4.0% | 0hPa | 2.5V | 00:00:00 | 00:00:00 | 00:00:00 | |
| NBG1-10 | 2026-09-02 00:16:11 | 46.03510 | 13.93549 | 129° | 13km/h | 23662m | 4.4m/s | -53.1°C | 4.0% | 0hPa | 2.5V | 00:00:00 | 01:51:41 | 00:00:00 | |
| 9A1FER-3 | 2026-09-02 00:16:10 | 46.03512 | 13.93548 | 143° | 11km/h | 23657m | 4.8m/s | -53.0°C | 4.0% | 0hPa | 2.5V | 00:00:00 | 01:51:40 | 00:00:00 | |
| DO3MHA-11 | 2026-09-02 00:16:08 | 46.03515 | 13.93546 | 164° | 13km/h | 23647m | 4.4m/s | -53.0°C | 4.0% | 0hPa | 2.6V | 00:00:00 | 01:51:38 | 00:00:00 | |
| OE5DRO-10 | 2026-09-02 00:16:02 | 46.03530 | 13.93533 | 159° | 16km/h | 23618m | 5.8m/s | -53.3°C | 4.0% | 0hPa | 2.6V | 00:00:00 | 00:00:00 | 08:30:00 | |
| OE5WHR-10 | 2026-09-02 00:16:00 | 46.03538 | 13.93530 | 159° | 16km/h | 23609m | 4.1m/s | -53.4°C | 4.1% | 0hPa | 2.5V | 00:00:00 | 00:00:00 | 00:00:00 | |
| 9A1FER-10 | 2026-09-02 00:15:59 | 46.03540 | 13.93527 | 148° | 16km/h | 23604m | 5.4m/s | -53.5°C | 4.1% | 0hPa | 2.5V | 00:00:00 | 01:51:29 | 00:00:00 | |
| PG1ADW-2 | 2026-09-02 00:15:58 | 46.03542 | 13.93525 | 125° | 15km/h | 23599m | 4.7m/s | -53.6°C | 4.1% | 0hPa | 2.6V | 00:00:00 | 00:00:00 | 00:00:00 | |
| OE8JPQ-2 | 2026-09-02 00:15:57 | 46.03543 | 13.93522 | 114° | 15km/h | 23595m | 4.1m/s | -53.7°C | 4.1% | 0hPa | 2.6V | 00:00:00 | 00:00:00 | 08:30:00 | |
| PETON7-10 | 2026-09-02 00:15:56 | 46.03545 | 13.93519 | 116° | 15km/h | 23590m | 4.6m/s | -53.7°C | 4.2% | 0hPa | 2.5V | 00:00:00 | 00:00:00 | 00:00:00 | |
| 9A1FER-3 | 2026-09-02 00:15:55 | 46.03546 | 13.93515 | 128° | 16km/h | 23585m | 5.4m/s | -53.8°C | 4.2% | 0hPa | 2.5V | 00:00:00 | 01:51:25 | 00:00:00 | |
| DO3MHA-12 | 2026-09-02 00:15:54 | 46.03548 | 13.93512 | 135° | 18km/h | 23580m | 4.7m/s | -53.9°C | 4.2% | 0hPa | 2.5V | 00:00:00 | 01:51:24 | 00:00:00 | |
| IN3HCDX1 | 2026-09-02 00:15:51 | 46.03553 | 13.93503 | 123° | 16km/h | 23570m | 5.8m/s | -54.0°C | 1.2% | 0hPa | 2.5V | 00:00:00 | 00:00:00 | 00:00:00 | |
| OE5DXL-15 | 2026-09-02 00:15:49 | 46.03559 | 13.93483 | 113° | 16km/h | 23555m | 5.5m/s | -54.0°C | 4.2% | 0hPa | 2.5V | 00:00:00 | 00:00:00 | 08:30:00 | |
| DO3MHA-11 | 2026-09-02 00:15:48 | 46.03561 | 13.93475 | 115° | 15km/h | 23549m | 5.3m/s | -54.0°C | 4.3% | 0hPa | 2.6V | 00:00:00 | 01:51:18 | 00:00:00 | |
| 9A1FER-10 | 2026-09-02 00:15:44 | 46.03565 | 13.93449 | 76° | 16km/h | 23529m | 4.5m/s | -54.0°C | 4.2% | 0hPa | 2.6V | 00:00:00 | 01:51:14 | 00:00:00 | |
| OE5DRO-10 | 2026-09-02 00:15:43 | 46.03564 | 13.93444 | 70° | 15km/h | 23524m | 4.6m/s | -54.0°C | 4.2% | 0hPa | 2.6V | 00:00:00 | 00:00:00 | 00:00:00 | |
| IN3HCDX | 2026-09-02 00:15:42 | 46.03564 | 13.93444 | 71° | 13km/h | 23524m | 4.6m/s | -54.0°C | 1.2% | 0hPa | 2.6V | 00:00:00 | 00:00:00 | 00:00:00 | |
| OE3JTB-15 | 2026-09-02 00:15:41 | 46.03563 | 13.93438 | 80° | 16km/h | 23513m | 4.7m/s | -54.0°C | 4.2% | 0hPa | 2.6V | 00:00:00 | 01:51:11 | 00:00:00 | |
| 9A1FER-3 | 2026-09-02 00:15:40 | 46.03562 | 13.93435 | 80° | 16km/h | 23509m | 4.3m/s | -54.1°C | 4.2% | 0hPa | 2.6V | 00:00:00 | 01:51:10 | 00:00:00 | |
| PETON7-10 | 2026-09-02 00:15:39 | 46.03562 | 13.93432 | 78° | 16km/h | 23504m | 5.5m/s | -54.1°C | 4.3% | 0hPa | 2.6V | 00:00:00 | 01:51:09 | 00:00:00 | |
| DO3MHA-11 | 2026-09-02 00:15:38 | 46.03561 | 13.93427 | 85° | 20km/h | 23499m | 4.5m/s | -54.2°C | 4.3% | 0hPa | 2.6V | 00:00:00 | 01:51:08 | 08:30:00 | |
| PG1ADW-2 | 2026-09-02 00:15:37 | 46.03561 | 13.93422 | 92° | 18km/h | 23495m | 3.9m/s | -54.2°C | 4.3% | 0hPa | 2.5V | 00:00:00 | 00:00:00 | 00:00:00 | |
| SOBLACK | 2026-09-02 00:15:35 | 46.03562 | 13.93415 | 102° | 20km/h | 23490m | 5.3m/s | -54.3°C | 1.2% | 0hPa | 2.5V | 00:00:00 | 00:00:00 | 00:00:00 | |
| DO3MHA-12 | 2026-09-02 00:15:34 | 46.03565 | 13.93417 | 112° | 16km/h | 23480m | 4.8m/s | -54.2°C | 4.3% | 0hPa | 2.5V | 00:00:00 | 01:51:04 | 00:00:00 | |
| OE5WHR-10 | 2026-09-02 00:15:31 | 46.03568 | 13.93377 | 79° | 13km/h | 23465m | 5.3m/s | -54.2°C | 4.3% | 0hPa | 2.5V | 00:00:00 | 01:51:01 | 00:00:00 | |
| 9A1FER-10 | 2026-09-02 00:15:29 | 46.03564 | 13.93365 | 57° | 16km/h | 23455m | 5.0m/s | -54.2°C | 4.3% | 0hPa | 2.5V | 00:00:00 | 01:50:59 | 00:00:00 | |
| DO3MHA-11 | 2026-09-02 00:15:28 | 46.03562 | 13.93360 | 54° | 16km/h | 23450m | 5.5m/s | -54.1°C | 4.3% | 0hPa | 2.5V | 00:00:00 | 01:50:58 | 00:00:00 | |
| 9A1FER-3 | 2026-09-02 00:15:25 | 46.03558 | 13.93351 | 72° | 15km/h | 23435m | 4.7m/s | -54.1°C | 4.3% | 0hPa | 2.5V | 00:00:00 | 01:50:55 | 08:30:00 | |
| DO3MHA-12 | 2026-09-02 00:15:24 | 46.03557 | 13.93347 | 75° | 18km/h | 23430m | 5.7m/s | -54.1°C | 4.3% | 0hPa | 2.6V | 00:00:00 | 01:50:54 | 00:00:00 | |
| IN3HCDX | 2026-09-02 00:15:20 | 46.03556 | 13.93325 | 91° | 22km/h | 23415m | 6.0m/s | -54.1°C | 1.2% | 0hPa | 2.6V | 00:00:00 | 00:00:00 | 00:00:00 | |
| OE5DXL-15 | 2026-09-02 00:15:19 | 46.03555 | 13.93311 | 84° | 13km/h | 23405m | 4.0m/s | -54.1°C | 4.3% | 0hPa | 2.6V | 00:00:00 | 01:50:49 | 00:00:00 | |
| OE8JPQ-2 | 2026-09-02 00:15:18 | 46.03552 | 13.93299 | 48° | 13km/h | 23394m | 5.1m/s | -54.0°C | 4.2% | 0hPa | 2.6V | 00:00:00 | 01:50:47 | 00:00:00 | |
| DO3MHA-12 | 2026-09-02 00:15:14 | 46.03542 | 13.93293 | 4° | 15km/h | 23379m | 5.5m/s | -54.0°C | 4.2% | 0hPa | 2.6V | 00:00:00 | 01:50:44 | 00:00:00 | |
| OE3JTB-15 | 2026-09-02 00:15:12 | 46.03538 | 13.93292 | 19° | 11km/h | 23369m | 5.0m/s | -54.1°C | 4.2% | 0hPa | 2.5V | 00:00:00 | 00:00:00 | 00:00:00 | |
| SOBLACK | 2026-09-02 00:15:11 | 46.03538 | 13.93292 | 20° | 7km/h | 23369m | 5.0m/s | -54.1°C | 1.2% | 0hPa | 2.6V | 00:00:00 | 00:00:00 | 00:00:00 | |
| 9A1FER-3 | 2026-09-02 00:15:10 | 46.03535 | 13.93287 | 79° | 13km/h | 23359m | 4.5m/s | -54.1°C | 4.3% | 0hPa | 2.6V | 00:00:00 | 01:50:40 | 00:00:00 | |
| OE5WHR-10 | 2026-09-02 00:15:09 | 46.03535 | 13.93282 | 98° | 13km/h | 23354m | 4.2m/s | -54.2°C | 4.2% | 0hPa | 2.6V | 00:00:00 | 00:00:00 | 00:00:00 | |
| PETON7-10 | 2026-09-02 00:15:08 | 46.03536 | 13.93277 | 111° | 11km/h | 23349m | 6.1m/s | -54.2°C | 4.3% | 0hPa | 2.5V | 00:00:00 | 00:00:00 | 00:00:00 | |
| NBG1-10 | 2026-09-02 00:15:05 | 46.03542 | 13.93257 | 109° | 9km/h | 23335m | 4.3m/s | -54.2°C | 4.3% | 0hPa | 2.5V | 00:00:00 | 01:50:35 | 08:30:00 | |
| DO3MHA-12 | 2026-09-02 00:15:04 | 46.03543 | 13.93251 | 94° | 9km/h | 23329m | 5.6m/s | -54.2°C | 4.3% | 0hPa | 2.6V | 00:00:00 | 01:50:34 | 00:00:00 | |
| 9A1FER-10 | 2026-09-02 00:14:59 | 46.03536 | 13.93236 | 12° | 7km/h | 23305m | 5.0m/s | -54.3°C | 4.3% | 0hPa | 2.6V | 00:00:00 | 01:50:29 | 00:00:00 | |
| DO3MHA-11 | 2026-09-02 00:14:58 | 46.03535 | 13.93235 | 22° | 9km/h | 23300m | 4.4m/s | -54.3°C | 4.3% | 0hPa | 2.6V | 00:00:00 | 01:50:28 | 00:00:00 | |
| OE8JPQ-2 | 2026-09-02 00:14:57 | 46.03534 | 13.93234 | 55° | 7km/h | 23295m | 5.5m/s | -54.4°C | 4.4% | 0hPa | 2.6V | 00:00:00 | 00:00:00 | 00:00:00 | |
| 9A1FER-3 | 2026-09-02 00:14:55 | 46.03534 | 13.93230 | 106° | 7km/h | 23285m | 4.8m/s | -54.4°C | 4.4% | 0hPa | 2.6V | 00:00:00 | 01:50:25 | 00:00:00 | |
| DO3MHA-12 | 2026-09-02 00:14:54 | 46.03535 | 13.93227 | 122° | 9km/h | 23279m | 6.2m/s | -54.4°C | 4.4% | 0hPa | 2.6V | 00:00:00 | 01:50:24 | 00:00:00 | |
| PETON7-10 | 2026-09-02 00:14:52 | 46.03539 | 13.93219 | 130° | 7km/h | 23268m | 4.3m/s | -54.4°C | 4.4% | 0hPa | 2.6V | 00:00:00 | 01:50:22 | 00:00:00 | |
| SOBLACK | 2026-09-02 00:14:51 | 46.03539 | 13.93219 | 130° | 15km/h | 23268m | 4.3m/s | -54.4°C | 1.3% | 0hPa | 2.6V | 00:00:00 | 00:00:00 | 00:00:00 | |
| IN3HCDX1 | 2026-09-02 00:14:50 | 46.03541 | 13.93215 | 119° | 15km/h | 23264m | 5.2m/s | -54.4°C | 1.2% | 0hPa | 2.6V | 00:00:00 | 00:00:00 | 00:00:00 | |
| OE5DXL-15 | 2026-09-02 00:14:49 | 46.03543 | 13.93206 | 87° | 9km/h | 23254m | 4.0m/s | -54.3°C | 4.3% | 0hPa | 2.6V | 00:00:00 | 00:00:00 | 00:00:00 | |
| DO3MHA-11 | 2026-09-02 00:14:48 | 46.03542 | 13.93202 | 78° | 4km/h | 23250m | 4.2m/s | -54.3°C | 4.4% | 0hPa | 2.6V | 00:00:00 | 01:50:18 | 00:00:00 | |
| OE5WHR-10 | 2026-09-02 00:14:47 | 46.03542 | 13.93201 | 68° | 7km/h | 23245m | 5.9m/s | -54.4°C | 4.4% | 0hPa | 2.6V | 00:00:00 | 00:00:00 | 00:00:00 | |
| OE5DRO-10 | 2026-09-02 00:14:46 | 46.03542 | 13.93200 | 253° | 7km/h | 23239m | 5.7m/s | -54.4°C | 4.4% | 0hPa | 2.6V | 00:00:00 | 00:00:00 | 00:00:00 | |
| DO3MHA-12 | 2026-09-02 00:14:44 | 46.03542 | 13.93203 | 255° | 7km/h | 23229m | 4.8m/s | -54.4°C | 4.4% | 0hPa | 2.6V | 00:00:00 | 01:50:14 | 00:00:00 | |
| IV3AMH | 2026-09-02 00:14:41 | 46.03543 | 13.93203 | 0° | 0km/h | 23218m | 4.7m/s | -54.4°C | 1.3% | 0hPa | 2.5V | 00:00:00 | 00:00:00 | 00:00:00 | |
| 9A1FER-3 | 2026-09-02 00:14:40 | 46.03544 | 13.93202 | 154° | 11km/h | 23208m | 5.9m/s | -54.4°C | 4.4% | 0hPa | 2.5V | 00:00:00 | 01:50:10 | 00:00:00 | |
| IN3HCDX | 2026-09-02 00:14:39 | 46.03544 | 13.93202 | 154° | 5km/h | 23208m | 5.9m/s | -54.4°C | 1.3% | 0hPa | 2.6V | 00:00:00 | 00:00:00 | 00:00:00 | |
| DO3MHA-11 | 2026-09-02 00:14:38 | 46.03547 | 13.93199 | 142° | 11km/h | 23198m | 4.1m/s | -54.4°C | 4.4% | 0hPa | 2.6V | 00:00:00 | 01:50:08 | 00:00:00 | |
| PETON7-10 | 2026-09-02 00:14:37 | 46.03549 | 13.93197 | 123° | 11km/h | 23193m | 5.4m/s | -54.4°C | 4.3% | 0hPa | 2.5V | 00:00:00 | 00:00:00 | 00:00:00 | |
| DG1MFX-10 | 2026-09-02 00:14:36 | 46.03549 | 13.93197 | 123° | 11km/h | 23193m | 5.5m/s | -54.4°C | 1.3% | 0hPa | 2.5V | 00:00:00 | 00:00:00 | 00:00:00 | |
| DO3MHA-12 | 2026-09-02 00:14:34 | 46.03553 | 13.93183 | 115° | 11km/h | 23178m | 5.2m/s | -54.4°C | 4.4% | 0hPa | 2.5V | 00:00:00 | 01:50:04 | 00:00:00 | |
| PG1ADW-2 | 2026-09-02 00:14:32 | 46.03556 | 13.93177 | 160° | 11km/h | 23168m | 4.3m/s | -54.3°C | 4.4% | 0hPa | 2.5V | 00:00:00 | 00:00:00 | 00:00:00 | |
| 9A1FER-10 | 2026-09-02 00:14:29 | 46.03560 | 13.93180 | 269° | 11km/h | 23152m | 5.3m/s | -54.3°C | 4.4% | 0hPa | 2.5V | 00:00:00 | 01:49:59 | 00:00:00 | |
| DO3MHA-11 | 2026-09-02 00:14:28 | 46.03560 | 13.93184 | 273° | 13km/h | 23147m | 4.1m/s | -54.3°C | 4.3% | 0hPa | 2.5V | 00:00:00 | 01:49:58 | 00:00:00 | |
| OE5WHR-10 | 2026-09-02 00:14:26 | 46.03561 | 13.93193 | 249° | 11km/h | 23138m | 6.1m/s | -54.3°C | 4.3% | 0hPa | 2.5V | 00:00:00 | 01:49:56 | 00:00:00 | |
| 9A1FER-3 | 2026-09-02 00:14:25 | 46.03562 | 13.93197 | 236° | 11km/h | 23132m | 5.3m/s | -54.3°C | 4.3% | 0hPa | 2.5V | 00:00:00 | 01:49:55 | 00:00:00 | |
| DO3MHA-12 | 2026-09-02 00:14:24 | 46.03565 | 13.93201 | 225° | 9km/h | 23127m | 4.9m/s | -54.3°C | 4.4% | 0hPa | 2.5V | 00:00:00 | 01:49:54 | 00:00:00 | |
| PETON7-10 | 2026-09-02 00:14:21 | 46.03571 | 13.93204 | 162° | 11km/h | 23111m | 4.7m/s | -54.3°C | 4.3% | 0hPa | 2.5V | 00:00:00 | 00:00:00 | 00:00:00 | |
| OE5DXL-15 | 2026-09-02 00:14:19 | 46.03577 | 13.93200 | 156° | 11km/h | 23100m | 5.2m/s | -54.3°C | 4.3% | 0hPa | 2.5V | 00:00:00 | 00:00:00 | 00:00:00 | |
| DO3MHA-11 | 2026-09-02 00:14:18 | 46.03580 | 13.93198 | 157° | 9km/h | 23095m | 4.2m/s | -54.2°C | 4.4% | 0hPa | 2.6V | 00:00:00 | 01:49:48 | 00:00:00 | |
| OE8JPQ-2 | 2026-09-02 00:14:17 | 46.03583 | 13.93197 | 160° | 11km/h | 23090m | 5.9m/s | -54.2°C | 4.3% | 0hPa | 2.6V | 00:00:00 | 01:49:47 | 00:00:00 | |
| DG1MFX-10 | 2026-09-02 00:14:15 | 46.03584 | 13.93196 | 194° | 4km/h | 23085m | 5.0m/s | -54.2°C | 1.3% | 0hPa | 2.6V | 00:00:00 | 00:00:00 | 00:00:00 | |
| 9A1FER-10 | 2026-09-02 00:14:14 | 46.03585 | 13.93199 | 246° | 11km/h | 23075m | 5.7m/s | -54.2°C | 4.3% | 0hPa | 2.6V | 00:00:00 | 01:49:44 | 00:00:00 | |
| 9A1FER-3 | 2026-09-02 00:14:10 | 46.03592 | 13.93214 | 228° | 11km/h | 23052m | 5.2m/s | -54.0°C | 4.3% | 0hPa | 2.6V | 00:00:00 | 01:49:40 | 00:00:00 | |
| DO3MHA-11 | 2026-09-02 00:14:08 | 46.03598 | 13.93218 | 189° | 11km/h | 23043m | 4.9m/s | -53.9°C | 4.3% | 0hPa | 2.6V | 00:00:00 | 01:49:38 | 08:30:00 | |
| PETON7-10 | 2026-09-02 00:14:06 | 46.03606 | 13.93217 | 168° | 11km/h | 23031m | 5.2m/s | -53.9°C | 4.3% | 0hPa | 2.6V | 00:00:00 | 01:49:36 | 00:00:00 | |
| IV3AMH | 2026-09-02 00:14:05 | 46.03611 | 13.93215 | 164° | 18km/h | 23027m | 4.1m/s | -54.0°C | 1.3% | 0hPa | 2.6V | 00:00:00 | 00:00:00 | 00:00:00 | |
| DO3MHA-12 | 2026-09-02 00:14:04 | 46.03615 | 13.93214 | 160° | 9km/h | 23022m | 5.5m/s | -54.0°C | 4.3% | 0hPa | 2.6V | 00:00:00 | 01:49:34 | 00:00:00 | |
| NBG1-10 | 2026-09-02 00:13:59 | 46.03620 | 13.93213 | 218° | 11km/h | 22995m | 5.5m/s | -54.0°C | 4.4% | 0hPa | 2.6V | 00:00:00 | 01:49:29 | 00:00:00 | |
| DO3MHA-11 | 2026-09-02 00:13:58 | 46.03621 | 13.93214 | 189° | 15km/h | 22990m | 4.8m/s | -54.0°C | 4.3% | 0hPa | 2.6V | 00:00:00 | 01:49:28 | 00:00:00 | |
| OE8JPQ-2 | 2026-09-02 00:13:57 | 46.03624 | 13.93214 | 168° | 13km/h | 22986m | 4.5m/s | -53.9°C | 4.3% | 0hPa | 2.6V | 00:00:00 | 00:00:00 | 00:00:00 | |
| IN3HCDX | 2026-09-02 00:13:56 | 46.03624 | 13.93214 | 169° | 11km/h | 22986m | 4.5m/s | -54.0°C | 1.2% | 0hPa | 2.5V | 00:00:00 | 00:00:00 | 00:00:00 | |
| 9A1FER-3 | 2026-09-02 00:13:55 | 46.03630 | 13.93209 | 137° | 13km/h | 22975m | 5.5m/s | -53.9°C | 4.3% | 0hPa | 2.5V | 00:00:00 | 01:49:25 | 00:00:00 | |
| DO3MHA-12 | 2026-09-02 00:13:54 | 46.03632 | 13.93205 | 130° | 15km/h | 22970m | 4.3m/s | -53.9°C | 4.3% | 0hPa | 2.6V | 00:00:00 | 01:49:24 | 00:00:00 | |
| PETON7-10 | 2026-09-02 00:13:51 | 46.03641 | 13.93195 | 157° | 11km/h | 22955m | 5.6m/s | -53.8°C | 4.2% | 0hPa | 2.6V | 00:00:00 | 00:00:00 | 08:30:00 | |
| DO3MHA-11 | 2026-09-02 00:13:49 | 46.03651 | 13.93188 | 142° | 11km/h | 22940m | 5.7m/s | -53.7°C | 4.2% | 0hPa | 2.6V | 00:00:00 | 01:49:18 | 00:00:00 | |
| IN3HCDX1 | 2026-09-02 00:13:47 | 46.03651 | 13.93188 | 143° | 13km/h | 22940m | 5.8m/s | -53.7°C | 1.2% | 0hPa | 2.6V | 00:00:00 | 00:00:00 | 00:00:00 | |
| OE5WHR-10 | 2026-09-02 00:13:44 | 46.03655 | 13.93171 | 85° | 9km/h | 22918m | 6.2m/s | -53.6°C | 4.2% | 0hPa | 2.6V | 00:00:00 | 00:00:00 | 00:00:00 | |
| 9A1FER-3 | 2026-09-02 00:13:40 | 46.03650 | 13.93156 | 61° | 9km/h | 22897m | 4.0m/s | -53.5°C | 4.2% | 0hPa | 2.6V | 00:00:00 | 01:49:10 | 00:00:00 | |
| DO3MHA-11 | 2026-09-02 00:13:38 | 46.03649 | 13.93153 | 137° | 9km/h | 22886m | 6.0m/s | -53.4°C | 4.1% | 0hPa | 2.6V | 00:00:00 | 01:49:08 | 00:00:00 | |
| OE8JPQ-2 | 2026-09-02 00:13:37 | 46.03650 | 13.93152 | 167° | 9km/h | 22880m | 5.1m/s | -53.4°C | 4.1% | 0hPa | 2.5V | 00:00:00 | 00:00:00 | 00:00:00 | |
| PETON7-10 | 2026-09-02 00:13:36 | 46.03652 | 13.93151 | 153° | 9km/h | 22874m | 5.8m/s | -53.4°C | 4.1% | 0hPa | 2.5V | 00:00:00 | 00:00:00 | 00:00:00 | |
| OE3JTB-15 | 2026-09-02 00:13:35 | 46.03655 | 13.93147 | 123° | 9km/h | 22864m | 4.8m/s | -53.3°C | 4.1% | 0hPa | 2.5V | 00:00:00 | 00:00:00 | 08:30:00 | |
| DO3MHA-12 | 2026-09-02 00:13:34 | 46.03655 | 13.93147 | 123° | 11km/h | 22864m | 4.8m/s | -53.3°C | 4.1% | 0hPa | 2.6V | 00:00:00 | 01:49:04 | 00:00:00 | |
| OE5DRO-10 | 2026-09-02 00:13:30 | 46.03660 | 13.93135 | 118° | 11km/h | 22843m | 4.5m/s | -53.3°C | 4.1% | 0hPa | 2.6V | 00:00:00 | 00:00:00 | 00:00:00 | |
| 9A1FER-10 | 2026-09-02 00:13:29 | 46.03661 | 13.93131 | 107° | 9km/h | 22837m | 6.2m/s | -53.4°C | 4.1% | 0hPa | 2.6V | 00:00:00 | 01:48:59 | 00:00:00 | |
| IN3HCDX1 | 2026-09-02 00:13:28 | 46.03662 | 13.93127 | 98° | 13km/h | 22831m | 5.4m/s | -53.4°C | 1.2% | 0hPa | 2.6V | 00:00:00 | 00:00:00 | 00:00:00 | |
| NBG1-10 | 2026-09-02 00:13:26 | 46.03662 | 13.93118 | 91° | 9km/h | 22821m | 5.3m/s | -53.4°C | 4.1% | 0hPa | 2.6V | 00:00:00 | 01:48:56 | 00:00:00 | |
| PG1ADW-2 | 2026-09-02 00:13:25 | 46.03662 | 13.93116 | 95° | 7km/h | 22816m | 5.8m/s | -53.4°C | 4.1% | 0hPa | 2.6V | 00:00:00 | 00:00:00 | 00:00:00 | |
| DO3MHA-12 | 2026-09-02 00:13:24 | 46.03662 | 13.93115 | 140° | 9km/h | 22811m | 4.6m/s | -53.4°C | 4.2% | 0hPa | 2.6V | 00:00:00 | 01:48:54 | 00:00:00 | |
| OE5WHR-10 | 2026-09-02 00:13:23 | 46.03663 | 13.93115 | 169° | 7km/h | 22806m | 4.1m/s | -53.4°C | 4.1% | 0hPa | 2.6V | 00:00:00 | 01:48:53 | 00:00:00 | |
| PETON7-10 | 2026-09-02 00:13:21 | 46.03664 | 13.93113 | 128° | 11km/h | 22795m | 5.3m/s | -53.4°C | 4.1% | 0hPa | 2.6V | 00:00:00 | 01:48:51 | 00:00:00 | |
| OE5DXL-15 | 2026-09-02 00:13:19 | 46.03667 | 13.93108 | 141° | 9km/h | 22785m | 5.5m/s | -53.4°C | 4.1% | 0hPa | 2.6V | 00:00:00 | 00:00:00 | 00:00:00 | |
| DO3MHA-11 | 2026-09-02 00:13:18 | 46.03669 | 13.93106 | 153° | 13km/h | 22779m | 5.9m/s | -53.4°C | 4.1% | 0hPa | 2.6V | 00:00:00 | 01:48:48 | 00:00:00 | |
| IN3HCDX | 2026-09-02 00:13:15 | 46.03675 | 13.93103 | 156° | 15km/h | 22769m | 4.1m/s | -53.5°C | 1.2% | 0hPa | 2.6V | 00:00:00 | 00:00:00 | 00:00:00 | |
| DO3MHA-12 | 2026-09-02 00:13:14 | 46.03682 | 13.93097 | 142° | 9km/h | 22759m | 5.2m/s | -53.4°C | 4.1% | 0hPa | 2.6V | 00:00:00 | 01:48:44 | 00:00:00 | |
| SOBLACK | 2026-09-02 00:13:13 | 46.03682 | 13.93097 | 142° | 16km/h | 22759m | 5.3m/s | -53.5°C | 1.2% | 0hPa | 2.5V | 00:00:00 | 00:00:00 | 00:00:00 | |
| 9A1FER-3 | 2026-09-02 00:13:10 | 46.03692 | 13.93087 | 169° | 7km/h | 22739m | 4.6m/s | -53.5°C | 4.1% | 0hPa | 2.5V | 00:00:00 | 01:48:40 | 08:30:00 | |
| DO3MHA-11 | 2026-09-02 00:13:08 | 46.03695 | 13.93085 | 139° | 7km/h | 22729m | 5.6m/s | -53.5°C | 4.1% | 0hPa | 2.6V | 00:00:00 | 01:48:38 | 00:00:00 | |
| PETON7-10 | 2026-09-02 00:13:06 | 46.03697 | 13.93081 | 121° | 9km/h | 22718m | 5.1m/s | -53.6°C | 4.0% | 0hPa | 2.5V | 00:00:00 | 00:00:00 | 00:00:00 | |
| DO3MHA-12 | 2026-09-02 00:13:04 | 46.03699 | 13.93076 | 137° | 9km/h | 22708m | 5.9m/s | -53.7°C | 4.0% | 0hPa | 2.6V | 00:00:00 | 01:48:34 | 00:00:00 | |
| OE5WHR-10 | 2026-09-02 00:13:02 | 46.03701 | 13.93074 | 127° | 7km/h | 22698m | 4.7m/s | -53.8°C | 4.1% | 0hPa | 2.6V | 00:00:00 | 00:00:00 | 00:00:00 | |
| 9A1FER-10 | 2026-09-02 00:12:59 | 46.03703 | 13.93064 | 94° | 9km/h | 22681m | 4.7m/s | -53.9°C | 4.2% | 0hPa | 2.5V | 00:00:00 | 01:48:29 | 08:30:00 | |
| DO3MHA-11 | 2026-09-02 00:12:58 | 46.03703 | 13.93060 | 83° | 9km/h | 22676m | 5.9m/s | -53.9°C | 4.2% | 0hPa | 2.6V | 00:00:00 | 01:48:28 | 00:00:00 | |
| OE8JPQ-2 | 2026-09-02 00:12:57 | 46.03702 | 13.93057 | 65° | 7km/h | 22670m | 5.6m/s | -54.0°C | 4.2% | 0hPa | 2.6V | 00:00:00 | 00:00:00 | 08:30:00 | |
| 9A1FER-3 | 2026-09-02 00:12:55 | 46.03700 | 13.93053 | 46° | 7km/h | 22660m | 5.1m/s | -54.1°C | 4.2% | 0hPa | 2.5V | 00:00:00 | 01:48:25 | 00:00:00 | |
| DO3MHA-12 | 2026-09-02 00:12:54 | 46.03698 | 13.93050 | 48° | 9km/h | 22655m | 5.7m/s | -54.2°C | 4.3% | 0hPa | 2.5V | 00:00:00 | 01:48:24 | 00:00:00 | |
| NBG1-10 | 2026-09-02 00:12:53 | 46.03696 | 13.93047 | 46° | 5km/h | 22649m | 4.6m/s | -54.3°C | 4.3% | 0hPa | 2.5V | 00:00:00 | 01:48:23 | 00:00:00 | |
| OE5DRO-10 | 2026-09-02 00:12:52 | 46.03694 | 13.93045 | 32° | 7km/h | 22645m | 4.6m/s | -54.3°C | 4.4% | 0hPa | 2.5V | 00:00:00 | 00:00:00 | 00:00:00 | |
| PETON7-10 | 2026-09-02 00:12:51 | 46.03692 | 13.93043 | 15° | 7km/h | 22639m | 6.3m/s | -54.3°C | 4.3% | 0hPa | 2.5V | 00:00:00 | 00:00:00 | 00:00:00 | |
| OE5DXL-15 | 2026-09-02 00:12:49 | 46.03687 | 13.93043 | 349° | 5km/h | 22628m | 4.7m/s | -54.3°C | 4.4% | 0hPa | 2.5V | 00:00:00 | 00:00:00 | 00:00:00 | |
| DO3MHA-11 | 2026-09-02 00:12:48 | 46.03685 | 13.93044 | 360° | 5km/h | 22623m | 5.5m/s | -54.3°C | 4.4% | 0hPa | 2.6V | 00:00:00 | 01:48:18 | 00:00:00 | |
| IN3HCDX1 | 2026-09-02 00:12:46 | 46.03683 | 13.93043 | 24° | 5km/h | 22618m | 5.1m/s | -54.3°C | 1.3% | 0hPa | 2.6V | 00:00:00 | 00:00:00 | 00:00:00 | |
| DO3MHA-12 | 2026-09-02 00:12:44 | 46.03680 | 13.93041 | 6° | 5km/h | 22603m | 5.8m/s | -54.2°C | 4.3% | 0hPa | 2.6V | 00:00:00 | 01:48:14 | 08:30:00 | |
| OE5WHR-10 | 2026-09-02 00:12:41 | 46.03677 | 13.93041 | 23° | 4km/h | 22587m | 5.8m/s | 0°C | 0% | 0hPa | 2.5V | 00:00:00 | 00:00:00 | 00:00:00 | |
| 9A1FER-3 | 2026-09-02 00:12:40 | 46.03676 | 13.93040 | 44° | 5km/h | 22581m | 5.6m/s | -54.1°C | 4.3% | 0hPa | 2.5V | 00:00:00 | 01:48:10 | 00:00:00 | |
| PG1ADW-2 | 2026-09-02 00:12:38 | 46.03673 | 13.93036 | 35° | 5km/h | 22572m | 4.4m/s | -54.1°C | 4.3% | 0hPa | 2.5V | 00:00:00 | 00:00:00 | 00:00:00 | |
| OE8JPQ-2 | 2026-09-02 00:12:37 | 46.03671 | 13.93034 | 14° | 5km/h | 22567m | 6.0m/s | -54.1°C | 4.3% | 0hPa | 2.5V | 00:00:00 | 00:00:00 | 00:00:00 | |
| PETON7-10 | 2026-09-02 00:12:36 | 46.03669 | 13.93034 | 347° | 4km/h | 22562m | 5.0m/s | -54.2°C | 4.4% | 0hPa | 2.5V | 00:00:00 | 01:48:06 | 00:00:00 | |
| DO3MHA-12 | 2026-09-02 00:12:34 | 46.03667 | 13.93036 | 332° | 4km/h | 22551m | 6.1m/s | -54.2°C | 4.4% | 0hPa | 2.5V | 00:00:00 | 01:48:04 | 00:00:00 | |
| OE5DRO-10 | 2026-09-02 00:12:33 | 46.03667 | 13.93036 | 150° | 5km/h | 22545m | 5.4m/s | -54.2°C | 4.3% | 0hPa | 2.5V | 00:00:00 | 00:00:00 | 00:00:00 | |
| DG1MFX-10 | 2026-09-02 00:12:32 | 46.03667 | 13.93036 | 0° | 0km/h | 22545m | 5.4m/s | -54.2°C | 1.3% | 0hPa | 2.5V | 00:00:00 | 00:00:00 | 00:00:00 | |
| SOBLACK | 2026-09-02 00:12:30 | 46.03669 | 13.93035 | 181° | 4km/h | 22535m | 5.9m/s | -54.2°C | 1.3% | 0hPa | 2.5V | 00:00:00 | 00:00:00 | 00:00:00 | |
| 9A1FER-10 | 2026-09-02 00:12:29 | 46.03670 | 13.93036 | 169° | 7km/h | 22524m | 4.5m/s | -54.1°C | 4.3% | 0hPa | 2.5V | 00:00:00 | 01:47:59 | 00:00:00 | |
| DO3MHA-11 | 2026-09-02 00:12:28 | 46.03671 | 13.93035 | 127° | 5km/h | 22519m | 5.8m/s | -54.1°C | 4.3% | 0hPa | 2.5V | 00:00:00 | 01:47:58 | 00:00:00 | |
| IN3HCDX1 | 2026-09-02 00:12:27 | 46.03671 | 13.93033 | 108° | 7km/h | 22513m | 5.5m/s | -54.1°C | 1.3% | 0hPa | 2.5V | 00:00:00 | 00:00:00 | 00:00:00 | |
| 9A1FER-3 | 2026-09-02 00:12:25 | 46.03672 | 13.93028 | 90° | 9km/h | 22503m | 5.4m/s | -54.1°C | 4.3% | 0hPa | 2.5V | 00:00:00 | 01:47:55 | 00:00:00 | |
| DO3MHA-12 | 2026-09-02 00:12:24 | 46.03672 | 13.93027 | 78° | 7km/h | 22498m | 5.3m/s | -54.1°C | 4.3% | 0hPa | 2.6V | 00:00:00 | 01:47:54 | 00:00:00 | |
| PETON7-10 | 2026-09-02 00:12:20 | 46.03676 | 13.93025 | 172° | 11km/h | 22478m | 4.0m/s | -54.1°C | 4.3% | 0hPa | 2.6V | 00:00:00 | 00:00:00 | 00:00:00 | |
| OE5DXL-15 | 2026-09-02 00:12:19 | 46.03679 | 13.93025 | 179° | 9km/h | 22473m | 5.0m/s | -54.0°C | 4.3% | 0hPa | 2.6V | 00:00:00 | 00:00:00 | 00:00:00 | |
| DO3MHA-11 | 2026-09-02 00:12:18 | 46.03681 | 13.93025 | 187° | 9km/h | 22468m | 5.7m/s | -54.0°C | 4.3% | 0hPa | 2.6V | 00:00:00 | 01:47:48 | 00:00:00 | |
| OE8JPQ-2 | 2026-09-02 00:12:17 | 46.03683 | 13.93025 | 182° | 9km/h | 22463m | 4.8m/s | -54.0°C | 4.3% | 0hPa | 2.6V | 00:00:00 | 01:47:47 | 00:00:00 | |
| DO3MHA-12 | 2026-09-02 00:12:14 | 46.03690 | 13.93020 | 132° | 11km/h | 22447m | 4.6m/s | -53.9°C | 4.3% | 0hPa | 2.6V | 00:00:00 | 01:47:44 | 00:00:00 | |
| IN3HCDX | 2026-09-02 00:12:13 | 46.03691 | 13.93020 | 133° | 15km/h | 22447m | 4.7m/s | -53.9°C | 1.3% | 0hPa | 2.6V | 00:00:00 | 00:00:00 | 00:00:00 | |
| IV3AMH | 2026-09-02 00:12:12 | 46.03692 | 13.93016 | 127° | 13km/h | 22442m | 4.2m/s | -53.9°C | 1.3% | 0hPa | 2.6V | 00:00:00 | 00:00:00 | 00:00:00 | |
| DG1MFX-10 | 2026-09-02 00:12:11 | 46.03695 | 13.93012 | 126° | 11km/h | 22437m | 6.0m/s | -53.9°C | 1.3% | 0hPa | 2.6V | 00:00:00 | 00:00:00 | 00:00:00 | |
| 9A1FER-3 | 2026-09-02 00:12:10 | 46.03697 | 13.93008 | 138° | 9km/h | 22427m | 4.1m/s | -53.7°C | 4.2% | 0hPa | 2.6V | 00:00:00 | 01:47:40 | 00:00:00 | |
| DO3MHA-11 | 2026-09-02 00:12:08 | 46.03700 | 13.93004 | 147° | 11km/h | 22416m | 4.8m/s | -53.6°C | 4.2% | 0hPa | 2.6V | 00:00:00 | 01:47:38 | 00:00:00 | |
| PETON7-10 | 2026-09-02 00:12:05 | 46.03708 | 13.93001 | 181° | 9km/h | 22401m | 5.2m/s | -53.6°C | 4.2% | 0hPa | 2.6V | 00:00:00 | 00:00:00 | 00:00:00 | |
| DO3MHA-12 | 2026-09-02 00:12:04 | 46.03711 | 13.93001 | 177° | 9km/h | 22397m | 4.2m/s | -53.6°C | 4.2% | 0hPa | 2.6V | 00:00:00 | 01:47:34 | 00:00:00 | |
| OE5WHR-10 | 2026-09-02 00:11:59 | 46.03719 | 13.92991 | 117° | 9km/h | 22372m | 5.6m/s | 0°C | 0% | 0hPa | 2.6V | 00:00:00 | 00:00:00 | 00:00:00 | |
| DO3MHA-11 | 2026-09-02 00:11:58 | 46.03720 | 13.92989 | 128° | 9km/h | 22367m | 4.8m/s | -53.7°C | 4.2% | 0hPa | 2.6V | 00:00:00 | 01:47:28 | 00:00:00 | |
| OE8JPQ-2 | 2026-09-02 00:11:57 | 46.03721 | 13.92988 | 137° | 11km/h | 22362m | 5.1m/s | -53.7°C | 4.2% | 0hPa | 2.6V | 00:00:00 | 00:00:00 | 00:00:00 | |
| 9A1FER-3 | 2026-09-02 00:11:55 | 46.03724 | 13.92985 | 159° | 11km/h | 22352m | 4.2m/s | -53.7°C | 4.2% | 0hPa | 2.5V | 00:00:00 | 01:47:25 | 00:00:00 | |
| DO3MHA-12 | 2026-09-02 00:11:54 | 46.03726 | 13.92984 | 179° | 11km/h | 22347m | 5.4m/s | -53.7°C | 4.2% | 0hPa | 2.5V | 00:00:00 | 01:47:24 | 00:00:00 | |
| PG1ADW-2 | 2026-09-02 00:11:52 | 46.03731 | 13.92986 | 197° | 15km/h | 22337m | 4.0m/s | -53.8°C | 4.2% | 0hPa | 2.5V | 00:00:00 | 00:00:00 | 08:30:00 | |
| DG1MFX-10 | 2026-09-02 00:11:51 | 46.03731 | 13.92986 | 198° | 11km/h | 22337m | 4.0m/s | -53.8°C | 1.3% | 0hPa | 2.5V | 00:00:00 | 00:00:00 | 00:00:00 | |
| PETON7-10 | 2026-09-02 00:11:50 | 46.03736 | 13.92986 | 158° | 11km/h | 22327m | 5.6m/s | -53.7°C | 4.2% | 0hPa | 2.5V | 00:00:00 | 01:47:20 | 00:00:00 | |
| OE5DXL-15 | 2026-09-02 00:11:49 | 46.03738 | 13.92984 | 132° | 15km/h | 22322m | 4.6m/s | -53.7°C | 4.2% | 0hPa | 2.5V | 00:00:00 | 00:00:00 | 00:00:00 | |
| DO3MHA-11 | 2026-09-02 00:11:48 | 46.03739 | 13.92980 | 114° | 13km/h | 22317m | 5.3m/s | -53.7°C | 4.2% | 0hPa | 2.5V | 00:00:00 | 01:47:18 | 00:00:00 | |
| NBG1-10 | 2026-09-02 00:11:47 | 46.03740 | 13.92977 | 96° | 20km/h | 22312m | 5.4m/s | -53.7°C | 4.2% | 0hPa | 2.5V | 00:00:00 | 01:47:17 | 00:00:00 | |
| DO3MHA-12 | 2026-09-02 00:11:44 | 46.03739 | 13.92962 | 88° | 11km/h | 22296m | 5.3m/s | -53.7°C | 4.2% | 0hPa | 2.6V | 00:00:00 | 01:47:14 | 00:00:00 | |
| 9A1FER-3 | 2026-09-02 00:11:40 | 46.03743 | 13.92947 | 162° | 15km/h | 22277m | 4.4m/s | -53.7°C | 4.1% | 0hPa | 2.5V | 00:00:00 | 01:47:10 | 00:00:00 | |
| OE3JTB-15 | 2026-09-02 00:11:39 | 46.03746 | 13.92946 | 166° | 18km/h | 22272m | 4.5m/s | -53.7°C | 4.1% | 0hPa | 2.5V | 00:00:00 | 00:00:00 | 00:00:00 | |
| OE5WHR-10 | 2026-09-02 00:11:38 | 46.03749 | 13.92945 | 155° | 20km/h | 22267m | 5.5m/s | 0°C | 0% | 0hPa | 2.5V | 00:00:00 | 00:00:00 | 00:00:00 | |
| OE8JPQ-2 | 2026-09-02 00:11:37 | 46.03750 | 13.92942 | 130° | 16km/h | 22262m | 4.6m/s | -53.8°C | 4.1% | 0hPa | 2.5V | 00:00:00 | 00:00:00 | 00:00:00 | |
| OE5DRO-10 | 2026-09-02 00:11:36 | 46.03751 | 13.92939 | 103° | 16km/h | 22257m | 4.3m/s | -53.8°C | 4.2% | 0hPa | 2.5V | 00:00:00 | 00:00:00 | 00:00:00 | |
| PETON7-10 | 2026-09-02 00:11:35 | 46.03752 | 13.92935 | 84° | 16km/h | 22253m | 5.3m/s | -53.9°C | 4.2% | 0hPa | 2.5V | 00:00:00 | 00:00:00 | 08:30:00 | |
| DO3MHA-12 | 2026-09-02 00:11:34 | 46.03751 | 13.92930 | 71° | 16km/h | 22247m | 5.2m/s | -54.0°C | 4.2% | 0hPa | 2.5V | 00:00:00 | 01:47:04 | 00:00:00 | |
| IN3HCDX | 2026-09-02 00:11:31 | 46.03748 | 13.92919 | 74° | 20km/h | 22238m | 5.0m/s | -54.1°C | 1.3% | 0hPa | 2.5V | 00:00:00 | 00:00:00 | 00:00:00 | |
| 9A1FER-10 | 2026-09-02 00:11:29 | 46.03746 | 13.92897 | 92° | 20km/h | 22223m | 4.8m/s | -54.1°C | 4.2% | 0hPa | 2.5V | 00:00:00 | 01:46:59 | 00:00:00 | |
| DO3MHA-11 | 2026-09-02 00:11:28 | 46.03746 | 13.92890 | 92° | 16km/h | 22218m | 5.8m/s | -54.1°C | 4.2% | 0hPa | 2.5V | 00:00:00 | 01:46:58 | 00:00:00 | |
| SOBLACK | 2026-09-02 00:11:26 | 46.03746 | 13.92881 | 85° | 9km/h | 22208m | 3.9m/s | -54.2°C | 1.3% | 0hPa | 2.5V | 00:00:00 | 00:00:00 | 00:00:00 | |
| 9A1FER-3 | 2026-09-02 00:11:25 | 46.03746 | 13.92877 | 85° | 22km/h | 22204m | 4.6m/s | -54.2°C | 4.3% | 0hPa | 2.5V | 00:00:00 | 01:46:55 | 00:00:00 | |
| DO3MHA-12 | 2026-09-02 00:11:24 | 46.03745 | 13.92873 | 84° | 22km/h | 22199m | 5.0m/s | -54.2°C | 4.3% | 0hPa | 2.5V | 00:00:00 | 01:46:54 | 00:00:00 | |
| IN3HCDX1 | 2026-09-02 00:11:23 | 46.03745 | 13.92873 | 85° | 13km/h | 22199m | 5.0m/s | -54.3°C | 1.3% | 0hPa | 2.5V | 00:00:00 | 00:00:00 | 00:00:00 | |
| PETON7-10 | 2026-09-02 00:11:20 | 46.03739 | 13.92850 | 54° | 24km/h | 22179m | 5.3m/s | -54.2°C | 4.3% | 0hPa | 2.5V | 00:00:00 | 00:00:00 | 00:00:00 | |
| OE5DXL-15 | 2026-09-02 00:11:19 | 46.03736 | 13.92843 | 53° | 16km/h | 22175m | 4.4m/s | -54.2°C | 4.3% | 0hPa | 2.5V | 00:00:00 | 00:00:00 | 08:30:00 | |
| DO3MHA-11 | 2026-09-02 00:11:18 | 46.03732 | 13.92836 | 56° | 24km/h | 22170m | 5.2m/s | -54.3°C | 4.3% | 0hPa | 2.6V | 00:00:00 | 01:46:48 | 00:00:00 | |
| OE8JPQ-2 | 2026-09-02 00:11:17 | 46.03728 | 13.92827 | 62° | 20km/h | 22164m | 5.0m/s | -54.3°C | 4.3% | 0hPa | 2.6V | 00:00:00 | 01:46:47 | 00:00:00 | |
| OE5WHR-10 | 2026-09-02 00:11:16 | 46.03725 | 13.92817 | 65° | 18km/h | 22160m | 3.7m/s | 0°C | 0% | 0hPa | 2.6V | 00:00:00 | 01:46:46 | 00:00:00 | |
| DO3MHA-12 | 2026-09-02 00:11:14 | 46.03719 | 13.92799 | 63° | 20km/h | 22151m | 5.5m/s | -54.3°C | 4.3% | 0hPa | 2.6V | 00:00:00 | 01:46:44 | 08:30:00 | |
| 9A1FER-3 | 2026-09-02 00:11:10 | 46.03708 | 13.92773 | 55° | 16km/h | 22131m | 4.4m/s | -54.4°C | 4.4% | 0hPa | 2.6V | 00:00:00 | 01:46:40 | 00:00:00 | |
| DG1MFX-10 | 2026-09-02 00:11:09 | 46.03708 | 13.92773 | 56° | 20km/h | 22131m | 4.5m/s | -54.4°C | 1.4% | 0hPa | 2.6V | 00:00:00 | 00:00:00 | 00:00:00 | |
| PG1ADW-2 | 2026-09-02 00:11:08 | 46.03701 | 13.92763 | 42° | 13km/h | 22120m | 5.8m/s | -54.4°C | 4.4% | 0hPa | 2.6V | 00:00:00 | 00:00:00 | 00:00:00 | |
| PETON7-10 | 2026-09-02 00:11:05 | 46.03691 | 13.92748 | 59° | 13km/h | 22105m | 5.2m/s | -54.4°C | 4.3% | 0hPa | 2.6V | 00:00:00 | 01:46:35 | 00:00:00 | |
| SOBLACK | 2026-09-02 00:11:04 | 46.03689 | 13.92742 | 67° | 20km/h | 22101m | 4.0m/s | -54.5°C | 1.3% | 0hPa | 2.6V | 00:00:00 | 00:00:00 | 00:00:00 | |
| IN3HCDX1 | 2026-09-02 00:11:03 | 46.03689 | 13.92742 | 67° | 20km/h | 22101m | 4.0m/s | -54.5°C | 1.3% | 0hPa | 2.6V | 00:00:00 | 00:00:00 | 00:00:00 | |
| IV3AMH | 2026-09-02 00:10:59 | 46.03680 | 13.92718 | 53° | 13km/h | 22076m | 5.1m/s | -54.5°C | 1.4% | 0hPa | 2.6V | 00:00:00 | 00:00:00 | 00:00:00 | |
| DO3MHA-11 | 2026-09-02 00:10:58 | 46.03678 | 13.92714 | 56° | 9km/h | 22071m | 5.4m/s | -54.5°C | 4.4% | 0hPa | 2.6V | 00:00:00 | 01:46:28 | 00:00:00 | |
| OE8JPQ-2 | 2026-09-02 00:10:57 | 46.03676 | 13.92710 | 57° | 9km/h | 22067m | 3.9m/s | -54.5°C | 4.4% | 0hPa | 2.6V | 00:00:00 | 00:00:00 | 00:00:00 | |
| OE5WHR-10 | 2026-09-02 00:10:55 | 46.03673 | 13.92705 | 34° | 11km/h | 22057m | 5.7m/s | 0°C | 0% | 0hPa | 2.6V | 00:00:00 | 00:00:00 | 08:30:00 | |
| DO3MHA-12 | 2026-09-02 00:10:54 | 46.03671 | 13.92704 | 29° | 9km/h | 22051m | 4.7m/s | -54.5°C | 4.5% | 0hPa | 2.6V | 00:00:00 | 01:46:24 | 00:00:00 | |
| PETON7-10 | 2026-09-02 00:10:50 | 46.03670 | 13.92694 | 106° | 11km/h | 22032m | 3.9m/s | 0°C | 0% | 0hPa | 2.6V | 00:00:00 | 00:00:00 | 00:00:00 | |
| OE5DXL-15 | 2026-09-02 00:10:49 | 46.03671 | 13.92690 | 111° | 11km/h | 22028m | 4.5m/s | -54.3°C | 4.5% | 0hPa | 2.6V | 00:00:00 | 00:00:00 | 00:00:00 | |
| DO3MHA-11 | 2026-09-02 00:10:48 | 46.03671 | 13.92687 | 115° | 11km/h | 22023m | 5.5m/s | -54.3°C | 4.5% | 0hPa | 2.6V | 00:00:00 | 01:46:18 | 00:00:00 | |
| 9A1FER-10 | 2026-09-02 00:10:45 | 46.03673 | 13.92674 | 88° | 13km/h | 22004m | 4.8m/s | -54.2°C | 4.4% | 0hPa | 2.6V | 00:00:00 | 01:46:14 | 08:30:00 | |
| DO3MHA-12 | 2026-09-02 00:10:44 | 46.03673 | 13.92674 | 88° | 13km/h | 22004m | 4.8m/s | -54.2°C | 4.4% | 0hPa | 2.6V | 00:00:00 | 01:46:14 | 00:00:00 | |
| SOBLACK | 2026-09-02 00:10:43 | 46.03673 | 13.92674 | 88° | 13km/h | 22004m | 4.8m/s | -54.2°C | 1.3% | 0hPa | 2.5V | 00:00:00 | 00:00:00 | 00:00:00 | |
| IN3HCDX1 | 2026-09-02 00:10:42 | 46.03673 | 13.92669 | 87° | 13km/h | 21999m | 3.9m/s | -54.2°C | 1.3% | 0hPa | 2.5V | 00:00:00 | 00:00:00 | 00:00:00 | |
| OE3JTB-15 | 2026-09-02 00:10:41 | 46.03673 | 13.92661 | 91° | 11km/h | 21989m | 5.4m/s | -54.1°C | 4.3% | 0hPa | 2.5V | 00:00:00 | 00:00:00 | 00:00:00 | |
| 9A1FER-3 | 2026-09-02 00:10:40 | 46.03673 | 13.92658 | 99° | 11km/h | 21984m | 4.4m/s | -54.0°C | 4.3% | 0hPa | 2.6V | 00:00:00 | 01:46:10 | 00:00:00 | |
| OE5DRO-10 | 2026-09-02 00:10:39 | 46.03673 | 13.92654 | 102° | 11km/h | 21979m | 5.3m/s | -54.0°C | 4.3% | 0hPa | 2.6V | 00:00:00 | 00:00:00 | 00:00:00 | |
| DO3MHA-11 | 2026-09-02 00:10:38 | 46.03674 | 13.92649 | 105° | 13km/h | 21974m | 5.1m/s | -54.0°C | 4.3% | 0hPa | 2.6V | 00:00:00 | 01:46:08 | 00:00:00 | |
| OE8JPQ-2 | 2026-09-02 00:10:37 | 46.03675 | 13.92645 | 108° | 11km/h | 21969m | 4.5m/s | -53.9°C | 4.3% | 0hPa | 2.6V | 00:00:00 | 00:00:00 | 00:00:00 | |
| PETON7-10 | 2026-09-02 00:10:35 | 46.03678 | 13.92636 | 122° | 9km/h | 21958m | 5.2m/s | 0°C | 0% | 0hPa | 2.6V | 00:00:00 | 00:00:00 | 00:00:00 | |
| OE5WHR-10 | 2026-09-02 00:10:34 | 46.03679 | 13.92633 | 125° | 11km/h | 21954m | 4.0m/s | 0°C | 0% | 0hPa | 2.6V | 00:00:00 | 00:00:00 | 00:00:00 | |
| 9A1FER-10 | 2026-09-02 00:10:29 | 46.03685 | 13.92614 | 117° | 9km/h | 21929m | 5.7m/s | -53.7°C | 4.2% | 0hPa | 2.6V | 00:00:00 | 01:45:59 | 00:00:00 | |
| PG1ADW-2 | 2026-09-02 00:10:28 | 46.03686 | 13.92611 | 122° | 11km/h | 21924m | 4.7m/s | 0°C | 0% | 0hPa | 2.6V | 00:00:00 | 00:00:00 | 00:00:00 | |
| NBG1-10 | 2026-09-02 00:10:27 | 46.03687 | 13.92609 | 119° | 13km/h | 21919m | 4.7m/s | -53.7°C | 4.2% | 0hPa | 2.6V | 00:00:00 | 01:45:57 | 00:00:00 | |
| 9A1FER-3 | 2026-09-02 00:10:25 | 46.03689 | 13.92602 | 104° | 9km/h | 21909m | 4.1m/s | -53.7°C | 4.3% | 0hPa | 2.6V | 00:00:00 | 01:45:55 | 00:00:00 | |
| DO3MHA-12 | 2026-09-02 00:10:24 | 46.03690 | 13.92598 | 103° | 11km/h | 21905m | 3.9m/s | -53.7°C | 4.3% | 0hPa | 2.6V | 00:00:00 | 01:45:54 | 00:00:00 | |
| SOBLACK | 2026-09-02 00:10:23 | 46.03690 | 13.92598 | 103° | 11km/h | 21905m | 4.0m/s | -53.7°C | 1.3% | 0hPa | 2.6V | 00:00:00 | 00:00:00 | 00:00:00 | |
| IN3HCDX1 | 2026-09-02 00:10:21 | 46.03690 | 13.92593 | 104° | 5km/h | 21895m | 5.2m/s | -53.7°C | 1.3% | 0hPa | 2.6V | 00:00:00 | 00:00:00 | 00:00:00 | |
| OE5DRO-10 | 2026-09-02 00:10:20 | 46.03691 | 13.92589 | 91° | 13km/h | 21886m | 4.2m/s | -53.7°C | 4.2% | 0hPa | 2.6V | 00:00:00 | 00:00:00 | 08:30:00 | |
| OE5DXL-15 | 2026-09-02 00:10:19 | 46.03691 | 13.92586 | 90° | 16km/h | 21881m | 5.7m/s | -53.7°C | 4.2% | 0hPa | 2.5V | 00:00:00 | 00:00:00 | 00:00:00 | |
| DO3MHA-11 | 2026-09-02 00:10:18 | 46.03691 | 13.92582 | 90° | 11km/h | 21875m | 4.8m/s | -53.7°C | 4.2% | 0hPa | 2.5V | 00:00:00 | 01:45:48 | 00:00:00 | |
| OE8JPQ-2 | 2026-09-02 00:10:17 | 46.03691 | 13.92576 | 91° | 15km/h | 21871m | 3.8m/s | -53.8°C | 4.3% | 0hPa | 2.5V | 00:00:00 | 01:45:47 | 00:00:00 | |
| 9A1FER-10 | 2026-09-02 00:10:14 | 46.03692 | 13.92562 | 119° | 13km/h | 21857m | 4.6m/s | -53.7°C | 4.2% | 0hPa | 2.5V | 00:00:00 | 01:45:44 | 00:00:00 | |
| OE5WHR-10 | 2026-09-02 00:10:13 | 46.03693 | 13.92559 | 131° | 15km/h | 21852m | 4.1m/s | 0°C | 0% | 0hPa | 2.5V | 00:00:00 | 01:45:43 | 00:00:00 | |
| OE3JTB-15 | 2026-09-02 00:10:12 | 46.03694 | 13.92557 | 126° | 18km/h | 21848m | 4.5m/s | -53.7°C | 4.2% | 0hPa | 2.5V | 00:00:00 | 00:00:00 | 00:00:00 | |
| 9A1FER-3 | 2026-09-02 00:10:10 | 46.03696 | 13.92551 | 100° | 16km/h | 21838m | 5.3m/s | -53.8°C | 4.2% | 0hPa | 2.5V | 00:00:00 | 01:45:40 | 00:00:00 | |
| DO3MHA-11 | 2026-09-02 00:10:08 | 46.03697 | 13.92542 | 97° | 16km/h | 21828m | 4.6m/s | -53.8°C | 4.2% | 0hPa | 2.6V | 00:00:00 | 01:45:38 | 00:00:00 | |
| DG1MFX-10 | 2026-09-02 00:10:07 | 46.03697 | 13.92542 | 97° | 15km/h | 21828m | 4.6m/s | -53.8°C | 1.3% | 0hPa | 2.5V | 00:00:00 | 00:00:00 | 00:00:00 | |
| PG1ADW-2 | 2026-09-02 00:10:06 | 46.03697 | 13.92532 | 93° | 18km/h | 21818m | 4.3m/s | 0°C | 0% | 0hPa | 2.5V | 00:00:00 | 00:00:00 | 00:00:00 | |
| DO3MHA-12 | 2026-09-02 00:10:04 | 46.03697 | 13.92521 | 77° | 18km/h | 21809m | 5.8m/s | -53.8°C | 4.2% | 0hPa | 2.5V | 00:00:00 | 01:45:34 | 00:00:00 | |
| SOBLACK | 2026-09-02 00:10:02 | 46.03695 | 13.92514 | 69° | 20km/h | 21803m | 5.0m/s | -53.8°C | 1.3% | 0hPa | 2.5V | 00:00:00 | 00:00:00 | 00:00:00 | |
| OE5DRO-10 | 2026-09-02 00:10:01 | 46.03691 | 13.92503 | 54° | 22km/h | 21794m | 6.0m/s | -53.7°C | 4.2% | 0hPa | 2.5V | 00:00:00 | 00:00:00 | 00:00:00 | |
| 9A1FER-10 | 2026-09-02 00:09:59 | 46.03686 | 13.92495 | 43° | 22km/h | 21784m | 4.5m/s | -53.8°C | 4.2% | 0hPa | 2.5V | 00:00:00 | 01:45:29 | 00:00:00 | |
| DO3MHA-11 | 2026-09-02 00:09:58 | 46.03682 | 13.92490 | 43° | 22km/h | 21779m | 5.7m/s | -53.7°C | 4.2% | 0hPa | 2.6V | 00:00:00 | 01:45:28 | 00:00:00 | |
| OE8JPQ-2 | 2026-09-02 00:09:57 | 46.03679 | 13.92486 | 48° | 26km/h | 21772m | 5.8m/s | -53.7°C | 4.2% | 0hPa | 2.6V | 00:00:00 | 00:00:00 | 08:30:00 | |
| 9A1FER-3 | 2026-09-02 00:09:55 | 46.03673 | 13.92473 | 60° | 24km/h | 21762m | 5.2m/s | -53.7°C | 4.2% | 0hPa | 2.5V | 00:00:00 | 01:45:25 | 00:00:00 | |
| DO3MHA-12 | 2026-09-02 00:09:54 | 46.03670 | 13.92466 | 66° | 22km/h | 21757m | 5.4m/s | -53.8°C | 4.2% | 0hPa | 2.5V | 00:00:00 | 01:45:24 | 00:00:00 | |
| OE5WHR-10 | 2026-09-02 00:09:52 | 46.03666 | 13.92451 | 69° | 16km/h | 21747m | 5.3m/s | 0°C | 0% | 0hPa | 2.5V | 00:00:00 | 00:00:00 | 00:00:00 | |
| OE5DXL-15 | 2026-09-02 00:09:49 | 46.03658 | 13.92427 | 58° | 31km/h | 21733m | 5.2m/s | -53.8°C | 4.2% | 0hPa | 2.5V | 00:00:00 | 00:00:00 | 00:00:00 | |
| PG1ADW-2 | 2026-09-02 00:09:46 | 46.03648 | 13.92412 | 40° | 31km/h | 21719m | 4.1m/s | 0°C | 0% | 0hPa | 2.6V | 00:00:00 | 00:00:00 | 00:00:00 | |
| 9A1FER-10 | 2026-09-02 00:09:44 | 46.03638 | 13.92400 | 45° | 29km/h | 21709m | 4.6m/s | -53.8°C | 4.2% | 0hPa | 2.6V | 00:00:00 | 01:45:14 | 00:00:00 | |
| OE3JTB-15 | 2026-09-02 00:09:43 | 46.03634 | 13.92392 | 50° | 33km/h | 21705m | 4.1m/s | -53.8°C | 4.2% | 0hPa | 2.6V | 00:00:00 | 01:45:13 | 00:00:00 | |
| OE5DRO-10 | 2026-09-02 00:09:42 | 46.03629 | 13.92383 | 55° | 31km/h | 21700m | 5.6m/s | -53.9°C | 4.2% | 0hPa | 2.6V | 00:00:00 | 00:00:00 | 00:00:00 | |
| 9A1FER-3 | 2026-09-02 00:09:40 | 46.03621 | 13.92364 | 62° | 31km/h | 21690m | 3.8m/s | -53.8°C | 4.2% | 0hPa | 2.6V | 00:00:00 | 01:45:10 | 00:00:00 | |
| DO3MHA-11 | 2026-09-02 00:09:38 | 46.03612 | 13.92345 | 54° | 29km/h | 21681m | 5.5m/s | -53.8°C | 4.2% | 0hPa | 2.6V | 00:00:00 | 01:45:08 | 08:30:00 | |
| OE8JPQ-2 | 2026-09-02 00:09:37 | 46.03607 | 13.92336 | 47° | 33km/h | 21676m | 5.2m/s | -53.8°C | 4.2% | 0hPa | 2.5V | 00:00:00 | 00:00:00 | 00:00:00 | |
| PETON7-10 | 2026-09-02 00:09:34 | 46.03588 | 13.92314 | 31° | 33km/h | 21661m | 6.2m/s | 0°C | 0% | 0hPa | 2.5V | 00:00:00 | 01:45:04 | 00:00:00 | |
| SOBLACK | 2026-09-02 00:09:33 | 46.03582 | 13.92309 | 27° | 26km/h | 21655m | 4.9m/s | -54.0°C | 1.3% | 0hPa | 2.5V | 00:00:00 | 00:00:00 | 00:00:00 | |
| DG1MFX-10 | 2026-09-02 00:09:29 | 46.03546 | 13.92276 | 43° | 31km/h | 21624m | 5.4m/s | -54.1°C | 1.3% | 0hPa | 2.5V | 00:00:00 | 00:00:00 | 00:00:00 | |
| 9A1FER-3 | 2026-09-02 00:09:28 | 46.03533 | 13.92259 | 42° | 35km/h | 21615m | 5.3m/s | -54.1°C | 4.3% | 0hPa | 2.5V | 00:00:00 | 01:44:55 | 00:00:00 | |
| IN3HCDX | 2026-09-02 00:09:25 | 46.03525 | 13.92250 | 41° | 40km/h | 21610m | 5.6m/s | -54.1°C | 1.3% | 0hPa | 2.5V | 00:00:00 | 00:00:00 | 00:00:00 | |
| OE5DRO-10 | 2026-09-02 00:09:23 | 46.03518 | 13.92240 | 39° | 35km/h | 21605m | 4.4m/s | -54.1°C | 4.3% | 0hPa | 2.5V | 00:00:00 | 00:00:00 | 00:00:00 | |
| PG1ADW-2 | 2026-09-02 00:09:21 | 46.03501 | 13.92224 | 33° | 33km/h | 21594m | 5.2m/s | 0°C | 0% | 0hPa | 2.6V | 00:00:00 | 01:44:51 | 00:00:00 | |
| IN3HCDX1 | 2026-09-02 00:09:20 | 46.03501 | 13.92224 | 34° | 37km/h | 21594m | 5.2m/s | -54.1°C | 1.3% | 0hPa | 2.6V | 00:00:00 | 00:00:00 | 00:00:00 | |
| OE5DXL-15 | 2026-09-02 00:09:19 | 46.03486 | 13.92212 | 25° | 29km/h | 21585m | 5.2m/s | -54.0°C | 4.3% | 0hPa | 2.6V | 00:00:00 | 00:00:00 | 00:00:00 | |
| PETON7-10 | 2026-09-02 00:09:18 | 46.03478 | 13.92207 | 22° | 35km/h | 21579m | 5.5m/s | 0°C | 0% | 0hPa | 2.6V | 00:00:00 | 00:00:00 | 00:00:00 | |
| OE8JPQ-2 | 2026-09-02 00:09:17 | 46.03469 | 13.92202 | 19° | 31km/h | 21574m | 4.5m/s | -54.0°C | 4.2% | 0hPa | 2.6V | 00:00:00 | 01:44:47 | 00:00:00 | |
| 9A1FER-10 | 2026-09-02 00:09:14 | 46.03445 | 13.92191 | 21° | 31km/h | 21559m | 4.4m/s | -53.9°C | 4.2% | 0hPa | 2.6V | 00:00:00 | 01:44:44 | 00:00:00 | |
| SOBLACK | 2026-09-02 00:09:12 | 46.03438 | 13.92187 | 28° | 31km/h | 21554m | 4.9m/s | -54.0°C | 1.2% | 0hPa | 2.6V | 00:00:00 | 00:00:00 | 00:00:00 | |
| 9A1FER-3 | 2026-09-02 00:09:10 | 46.03417 | 13.92166 | 41° | 29km/h | 21540m | 4.8m/s | -54.0°C | 4.2% | 0hPa | 2.6V | 00:00:00 | 01:44:40 | 00:00:00 | |
| DO3MHA-11 | 2026-09-02 00:09:08 | 46.03405 | 13.92151 | 37° | 29km/h | 21530m | 4.4m/s | -54.1°C | 4.2% | 0hPa | 2.6V | 00:00:00 | 01:44:38 | 00:00:00 | |
| IV3AMH | 2026-09-02 00:09:06 | 46.03399 | 13.92145 | 33° | 29km/h | 21525m | 4.2m/s | -54.2°C | 1.3% | 0hPa | 2.6V | 00:00:00 | 00:00:00 | 00:00:00 | |
| DG1MFX-10 | 2026-09-02 00:09:05 | 46.03392 | 13.92140 | 29° | 31km/h | 21521m | 5.4m/s | -54.4°C | 1.4% | 0hPa | 2.6V | 00:00:00 | 00:00:00 | 00:00:00 | |
| OE5DRO-10 | 2026-09-02 00:09:04 | 46.03378 | 13.92130 | 24° | 26km/h | 21511m | 4.2m/s | -54.4°C | 4.3% | 0hPa | 2.6V | 00:00:00 | 00:00:00 | 00:00:00 | |
| NBG1-10 | 2026-09-02 00:09:02 | 46.03364 | 13.92122 | 22° | 20km/h | 21501m | 5.1m/s | -54.4°C | 4.3% | 0hPa | 2.6V | 00:00:00 | 01:44:32 | 00:00:00 | |
| PG1ADW-2 | 2026-09-02 00:09:01 | 46.03358 | 13.92119 | 21° | 22km/h | 21496m | 4.2m/s | 0°C | 0% | 0hPa | 2.6V | 00:00:00 | 00:00:00 | 00:00:00 | |
| 9A1FER-10 | 2026-09-02 00:08:59 | 46.03345 | 13.92112 | 21° | 24km/h | 21486m | 5.1m/s | -54.4°C | 4.4% | 0hPa | 2.6V | 00:00:00 | 01:44:29 | 00:00:00 | |
| DO3MHA-11 | 2026-09-02 00:08:58 | 46.03338 | 13.92108 | 21° | 24km/h | 21481m | 4.2m/s | -54.4°C | 4.3% | 0hPa | 2.6V | 00:00:00 | 01:44:28 | 00:00:00 | |
| 9A1FER-3 | 2026-09-02 00:08:55 | 46.03319 | 13.92098 | 18° | 22km/h | 21466m | 4.0m/s | -54.4°C | 4.4% | 0hPa | 2.6V | 00:00:00 | 01:44:25 | 00:00:00 | |
| SOBLACK | 2026-09-02 00:08:50 | 46.03294 | 13.92091 | 9° | 22km/h | 21446m | 5.8m/s | -54.4°C | 1.3% | 0hPa | 2.6V | 00:00:00 | 00:00:00 | 00:00:00 | |
| OE5DXL-15 | 2026-09-02 00:08:49 | 46.03284 | 13.92088 | 11° | 15km/h | 21437m | 3.9m/s | -54.3°C | 4.3% | 0hPa | 2.6V | 00:00:00 | 00:00:00 | 00:00:00 | |
| DO3MHA-11 | 2026-09-02 00:08:48 | 46.03279 | 13.92087 | 13° | 20km/h | 21432m | 5.6m/s | -54.3°C | 4.3% | 0hPa | 2.6V | 00:00:00 | 01:44:18 | 00:00:00 | |
| OE3JTB-15 | 2026-09-02 00:08:45 | 46.03257 | 13.92078 | 21° | 13km/h | 21414m | 5.4m/s | -54.3°C | 4.3% | 0hPa | 2.6V | 00:00:00 | 00:00:00 | 00:00:00 | |
| 9A1FER-10 | 2026-09-02 00:08:44 | 46.03257 | 13.92078 | 21° | 16km/h | 21414m | 5.4m/s | -54.3°C | 4.3% | 0hPa | 2.6V | 00:00:00 | 01:44:14 | 00:00:00 | |
| IN3HCDX | 2026-09-02 00:08:42 | 46.03253 | 13.92076 | 21° | 16km/h | 21409m | 5.3m/s | -54.4°C | 1.3% | 0hPa | 2.6V | 00:00:00 | 00:00:00 | 00:00:00 | |
| PG1ADW-2 | 2026-09-02 00:08:41 | 46.03245 | 13.92072 | 15° | 22km/h | 21398m | 5.7m/s | 0°C | 0% | 0hPa | 2.6V | 00:00:00 | 00:00:00 | 00:00:00 | |
| IN3HCDX1 | 2026-09-02 00:08:40 | 46.03241 | 13.92071 | 10° | 18km/h | 21393m | 4.7m/s | -54.4°C | 1.3% | 0hPa | 2.6V | 00:00:00 | 00:00:00 | 00:00:00 | |
| DO3MHA-11 | 2026-09-02 00:08:38 | 46.03232 | 13.92070 | 356° | 15km/h | 21384m | 5.7m/s | -54.4°C | 4.3% | 0hPa | 2.6V | 00:00:00 | 01:44:08 | 00:00:00 | |
| SOBLACK | 2026-09-02 00:08:30 | 46.03203 | 13.92079 | 347° | 15km/h | 21349m | 5.8m/s | -54.3°C | 1.3% | 0hPa | 2.5V | 00:00:00 | 00:00:00 | 00:00:00 | |
| 9A1FER-10 | 2026-09-02 00:08:29 | 46.03198 | 13.92081 | 356° | 13km/h | 21339m | 4.3m/s | -54.3°C | 4.2% | 0hPa | 2.5V | 00:00:00 | 01:43:59 | 08:30:00 | |
| DO3MHA-11 | 2026-09-02 00:08:28 | 46.03195 | 13.92080 | 9° | 11km/h | 21334m | 5.8m/s | -54.4°C | 4.2% | 0hPa | 2.6V | 00:00:00 | 01:43:58 | 00:00:00 | |
| OE5DRO-10 | 2026-09-02 00:08:26 | 46.03191 | 13.92079 | 23° | 13km/h | 21325m | 4.2m/s | -54.6°C | 4.3% | 0hPa | 2.6V | 00:00:00 | 00:00:00 | 00:00:00 | |
| 9A1FER-3 | 2026-09-02 00:08:25 | 46.03189 | 13.92077 | 20° | 15km/h | 21320m | 5.5m/s | -54.8°C | 4.4% | 0hPa | 2.6V | 00:00:00 | 01:43:55 | 00:00:00 | |
| DG1MFX-10 | 2026-09-02 00:08:24 | 46.03189 | 13.92077 | 20° | 7km/h | 21320m | 5.5m/s | -54.8°C | 1.4% | 0hPa | 2.6V | 00:00:00 | 00:00:00 | 00:00:00 | |
| IN3HCDX | 2026-09-02 00:08:21 | 46.03184 | 13.92080 | 335° | 11km/h | 21306m | 5.1m/s | -55.0°C | 1.3% | 0hPa | 2.6V | 00:00:00 | 00:00:00 | 00:00:00 | |
| IN3HCDX1 | 2026-09-02 00:08:19 | 46.03173 | 13.92088 | 325° | 20km/h | 21291m | 5.1m/s | -55.0°C | 1.4% | 0hPa | 2.6V | 00:00:00 | 00:00:00 | 00:00:00 | |
| DO3MHA-11 | 2026-09-02 00:08:18 | 46.03169 | 13.92093 | 316° | 18km/h | 21286m | 5.3m/s | -54.9°C | 4.5% | 0hPa | 2.6V | 00:00:00 | 01:43:48 | 00:00:00 | |
| OE8JPQ-2 | 2026-09-02 00:08:17 | 46.03165 | 13.92098 | 311° | 13km/h | 21281m | 4.0m/s | -54.9°C | 4.5% | 0hPa | 2.6V | 00:00:00 | 01:43:47 | 00:00:00 | |
| OE3JTB-15 | 2026-09-02 00:08:15 | 46.03159 | 13.92107 | 319° | 9km/h | 21272m | 4.9m/s | -54.9°C | 4.5% | 0hPa | 2.6V | 00:00:00 | 01:43:45 | 00:00:00 | |
| 9A1FER-10 | 2026-09-02 00:08:14 | 46.03156 | 13.92111 | 317° | 11km/h | 21267m | 3.9m/s | -54.9°C | 4.5% | 0hPa | 2.6V | 00:00:00 | 01:43:44 | 00:00:00 | |
| 9A1FER-3 | 2026-09-02 00:08:10 | 46.03149 | 13.92127 | 303° | 9km/h | 21249m | 4.6m/s | -54.9°C | 4.5% | 0hPa | 2.6V | 00:00:00 | 01:43:40 | 00:00:00 | |
| SOBLACK | 2026-09-02 00:08:09 | 46.03149 | 13.92127 | 303° | 11km/h | 21249m | 4.7m/s | -55.0°C | 1.4% | 0hPa | 2.6V | 00:00:00 | 00:00:00 | 00:00:00 | |
| DO3MHA-11 | 2026-09-02 00:08:08 | 46.03145 | 13.92131 | 338° | 11km/h | 21239m | 4.6m/s | -55.0°C | 4.4% | 0hPa | 2.6V | 00:00:00 | 01:43:38 | 08:30:00 | |
| OE5DRO-10 | 2026-09-02 00:08:07 | 46.03142 | 13.92133 | 345° | 7km/h | 21235m | 3.9m/s | -55.0°C | 4.5% | 0hPa | 2.6V | 00:00:00 | 00:00:00 | 00:00:00 | |
| DG1MFX-10 | 2026-09-02 00:08:03 | 46.03136 | 13.92138 | 319° | 9km/h | 21221m | 4.3m/s | -55.1°C | 1.4% | 0hPa | 2.6V | 00:00:00 | 00:00:00 | 00:00:00 | |
| IN3HCDX | 2026-09-02 00:08:02 | 46.03132 | 13.92142 | 332° | 11km/h | 21210m | 5.7m/s | -55.2°C | 1.3% | 0hPa | 2.6V | 00:00:00 | 00:00:00 | 00:00:00 | |
| OE5WHR-10 | 2026-09-02 00:08:01 | 46.03129 | 13.92144 | 336° | 5km/h | 21205m | 4.6m/s | 0°C | 0% | 0hPa | 2.6V | 00:00:00 | 00:00:00 | 00:00:00 | |
| 9A1FER-10 | 2026-09-02 00:07:59 | 46.03124 | 13.92148 | 323° | 5km/h | 21195m | 5.6m/s | -55.1°C | 4.6% | 0hPa | 2.6V | 00:00:00 | 01:43:29 | 00:00:00 | |
| DO3MHA-11 | 2026-09-02 00:07:58 | 46.03123 | 13.92150 | 311° | 5km/h | 21191m | 4.3m/s | -55.1°C | 4.5% | 0hPa | 2.6V | 00:00:00 | 01:43:28 | 00:00:00 | |
| OE8JPQ-2 | 2026-09-02 00:07:57 | 46.03122 | 13.92151 | 314° | 5km/h | 21186m | 4.2m/s | -55.0°C | 4.6% | 0hPa | 2.6V | 00:00:00 | 00:00:00 | 00:00:00 | |
| 9A1FER-3 | 2026-09-02 00:07:55 | 46.03121 | 13.92151 | 120° | 5km/h | 21176m | 4.4m/s | -55.0°C | 4.5% | 0hPa | 2.5V | 00:00:00 | 01:43:25 | 00:00:00 | |
| IV3AMH | 2026-09-02 00:07:53 | 46.03124 | 13.92148 | 158° | 9km/h | 21167m | 5.7m/s | -55.0°C | 1.4% | 0hPa | 2.6V | 00:00:00 | 00:00:00 | 00:00:00 | |
| OE5DXL-15 | 2026-09-02 00:07:49 | 46.03129 | 13.92147 | 327° | 5km/h | 21148m | 4.7m/s | -54.8°C | 4.5% | 0hPa | 2.6V | 00:00:00 | 00:00:00 | 00:00:00 | |
| OE5DRO-10 | 2026-09-02 00:07:48 | 46.03128 | 13.92148 | 325° | 4km/h | 21143m | 4.4m/s | -54.8°C | 4.5% | 0hPa | 2.6V | 00:00:00 | 00:00:00 | 00:00:00 | |
| OE3JTB-15 | 2026-09-02 00:07:46 | 46.03126 | 13.92151 | 302° | 5km/h | 21133m | 5.0m/s | -54.8°C | 4.5% | 0hPa | 2.6V | 00:00:00 | 00:00:00 | 00:00:00 | |
| 9A1FER-10 | 2026-09-02 00:07:44 | 46.03125 | 13.92154 | 270° | 4km/h | 21125m | 3.6m/s | -54.7°C | 4.5% | 0hPa | 2.6V | 00:00:00 | 01:43:14 | 00:00:00 | |
| DG1MFX-10 | 2026-09-02 00:07:43 | 46.03125 | 13.92153 | 0° | 0km/h | 21125m | 3.7m/s | -54.7°C | 1.4% | 0hPa | 2.6V | 00:00:00 | 00:00:00 | 00:00:00 | |
| IN3HCDX | 2026-09-02 00:07:41 | 46.03125 | 13.92150 | 106° | 5km/h | 21111m | 4.5m/s | -54.6°C | 1.3% | 0hPa | 2.6V | 00:00:00 | 00:00:00 | 00:00:00 | |
| 9A1FER-3 | 2026-09-02 00:07:40 | 46.03126 | 13.92149 | 134° | 5km/h | 21106m | 5.8m/s | -54.5°C | 4.4% | 0hPa | 2.6V | 00:00:00 | 01:43:10 | 00:00:00 | |
| IN3HCDX1 | 2026-09-02 00:07:38 | 46.03127 | 13.92147 | 159° | 5km/h | 21100m | 4.8m/s | -54.6°C | 1.3% | 0hPa | 2.6V | 00:00:00 | 00:00:00 | 00:00:00 | |
| OE8JPQ-2 | 2026-09-02 00:07:37 | 46.03130 | 13.92146 | 145° | 5km/h | 21091m | 5.2m/s | -54.4°C | 4.4% | 0hPa | 2.6V | 00:00:00 | 00:00:00 | 00:00:00 | |
| 9A1FER-10 | 2026-09-02 00:07:29 | 46.03132 | 13.92146 | 117° | 7km/h | 21052m | 4.6m/s | -54.2°C | 4.3% | 0hPa | 2.6V | 00:00:00 | 01:42:59 | 00:00:00 | |
| SOBLACK | 2026-09-02 00:07:28 | 46.03132 | 13.92146 | 118° | 7km/h | 21052m | 4.6m/s | -54.3°C | 1.3% | 0hPa | 2.6V | 00:00:00 | 00:00:00 | 00:00:00 | |
| 9A1FER-3 | 2026-09-02 00:07:25 | 46.03139 | 13.92135 | 124° | 9km/h | 21032m | 4.8m/s | -54.2°C | 4.3% | 0hPa | 2.6V | 00:00:00 | 01:42:55 | 00:00:00 | |
| DG1MFX-10 | 2026-09-02 00:07:23 | 46.03140 | 13.92132 | 108° | 9km/h | 21027m | 5.7m/s | -54.2°C | 1.4% | 0hPa | 2.6V | 00:00:00 | 00:00:00 | 00:00:00 | |
| OE5DXL-15 | 2026-09-02 00:07:19 | 46.03140 | 13.92124 | 123° | 16km/h | 21002m | 3.9m/s | -54.2°C | 4.3% | 0hPa | 2.6V | 00:00:00 | 00:00:00 | 00:00:00 | |
| IN3HCDX1 | 2026-09-02 00:07:18 | 46.03140 | 13.92124 | 0° | 0km/h | 21002m | 3.9m/s | -54.2°C | 1.3% | 0hPa | 2.6V | 00:00:00 | 00:00:00 | 00:00:00 | |
| OE5WHR-10 | 2026-09-02 00:07:16 | 46.03140 | 13.92118 | 88° | 15km/h | 20987m | 4.1m/s | 0°C | 0% | 0hPa | 2.6V | 00:00:00 | 00:00:00 | 00:00:00 | |
| 9A1FER-10 | 2026-09-02 00:07:14 | 46.03140 | 13.92110 | 102° | 15km/h | 20977m | 5.6m/s | -54.1°C | 4.2% | 0hPa | 2.6V | 00:00:00 | 01:42:44 | 00:00:00 | |
| 9A1FER-3 | 2026-09-02 00:07:10 | 46.03140 | 13.92089 | 78° | 16km/h | 20956m | 4.1m/s | -54.1°C | 4.2% | 0hPa | 2.6V | 00:00:00 | 01:42:40 | 00:00:00 | |
| SOBLACK | 2026-09-02 00:07:07 | 46.03139 | 13.92080 | 71° | 9km/h | 20946m | 4.9m/s | -54.3°C | 1.3% | 0hPa | 2.5V | 00:00:00 | 00:00:00 | 00:00:00 | |
| DG1MFX-10 | 2026-09-02 00:07:02 | 46.03132 | 13.92056 | 78° | 20km/h | 20922m | 4.8m/s | -54.4°C | 1.3% | 0hPa | 2.5V | 00:00:00 | 00:00:00 | 00:00:00 | |
| DO3MHA-11 | 2026-09-02 00:07:00 | 46.03131 | 13.92036 | 86° | 24km/h | 20907m | 4.4m/s | -54.4°C | 4.3% | 0hPa | 2.5V | 00:00:00 | 01:42:30 | 00:00:00 | |
| 9A1FER-10 | 2026-09-02 00:06:59 | 46.03131 | 13.92030 | 82° | 22km/h | 20901m | 5.7m/s | -54.4°C | 4.3% | 0hPa | 2.5V | 00:00:00 | 01:42:29 | 00:00:00 | |
| OE8JPQ-2 | 2026-09-02 00:06:57 | 46.03128 | 13.92015 | 70° | 24km/h | 20891m | 3.7m/s | -54.4°C | 4.3% | 0hPa | 2.6V | 00:00:00 | 00:00:00 | 08:30:00 | |
| OE5WHR-10 | 2026-09-02 00:06:55 | 46.03124 | 13.92002 | 66° | 22km/h | 20882m | 5.5m/s | 0°C | 0% | 0hPa | 2.5V | 00:00:00 | 00:00:00 | 00:00:00 | |
| OE5DRO-10 | 2026-09-02 00:06:51 | 46.03115 | 13.91976 | 63° | 26km/h | 20861m | 4.2m/s | -54.6°C | 4.4% | 0hPa | 2.5V | 00:00:00 | 00:00:00 | 00:00:00 | |
| OE5DXL-15 | 2026-09-02 00:06:49 | 46.03109 | 13.91959 | 62° | 22km/h | 20853m | 5.4m/s | -54.5°C | 4.4% | 0hPa | 2.5V | 00:00:00 | 00:00:00 | 08:30:00 | |
| NBG1-10 | 2026-09-02 00:06:48 | 46.03106 | 13.91951 | 60° | 22km/h | 20847m | 4.6m/s | -54.5°C | 4.4% | 0hPa | 2.6V | 00:00:00 | 01:42:18 | 00:00:00 | |
| SOBLACK | 2026-09-02 00:06:47 | 46.03102 | 13.91944 | 58° | 22km/h | 20843m | 3.7m/s | -54.5°C | 1.4% | 0hPa | 2.6V | 00:00:00 | 00:00:00 | 00:00:00 | |
| DO3MHA-11 | 2026-09-02 00:06:45 | 46.03095 | 13.91930 | 51° | 29km/h | 20833m | 5.0m/s | -54.4°C | 4.4% | 0hPa | 2.6V | 00:00:00 | 01:42:15 | 00:00:00 | |
| 9A1FER-10 | 2026-09-02 00:06:44 | 46.03091 | 13.91922 | 48° | 26km/h | 20829m | 4.5m/s | -54.4°C | 4.4% | 0hPa | 2.6V | 00:00:00 | 01:42:14 | 00:00:00 | |
| DG1MFX-10 | 2026-09-02 00:06:41 | 46.03081 | 13.91908 | 41° | 26km/h | 20819m | 5.8m/s | -54.4°C | 1.4% | 0hPa | 2.6V | 00:00:00 | 00:00:00 | 00:00:00 | |
| 9A1FER-3 | 2026-09-02 00:06:40 | 46.03071 | 13.91898 | 35° | 22km/h | 20809m | 4.2m/s | -54.4°C | 4.4% | 0hPa | 2.6V | 00:00:00 | 01:42:10 | 00:00:00 | |
| IN3HCDX | 2026-09-02 00:06:39 | 46.03071 | 13.91898 | 35° | 22km/h | 20809m | 4.2m/s | -54.4°C | 1.3% | 0hPa | 2.6V | 00:00:00 | 00:00:00 | 00:00:00 | |
| IN3HCDX1 | 2026-09-02 00:06:37 | 46.03057 | 13.91882 | 41° | 26km/h | 20795m | 4.3m/s | -54.4°C | 1.3% | 0hPa | 2.6V | 00:00:00 | 00:00:00 | 00:00:00 | |
| IV3AMH | 2026-09-02 00:06:36 | 46.03057 | 13.91882 | 41° | 26km/h | 20795m | 4.3m/s | -54.4°C | 1.4% | 0hPa | 2.6V | 00:00:00 | 00:00:00 | 00:00:00 | |
| OE5DRO-10 | 2026-09-02 00:06:32 | 46.03035 | 13.91851 | 50° | 18km/h | 20770m | 3.9m/s | -54.2°C | 4.3% | 0hPa | 2.6V | 00:00:00 | 00:00:00 | 00:00:00 | |
| 9A1FER-10 | 2026-09-02 00:06:29 | 46.03023 | 13.91832 | 49° | 16km/h | 20756m | 4.7m/s | -54.1°C | 4.3% | 0hPa | 2.5V | 00:00:00 | 01:41:59 | 00:00:00 | |
| 9A1FER-3 | 2026-09-02 00:06:25 | 46.03010 | 13.91815 | 35° | 16km/h | 20737m | 5.3m/s | -54.0°C | 4.3% | 0hPa | 2.5V | 00:00:00 | 01:41:55 | 08:30:00 | |
| OE5WHR-10 | 2026-09-02 00:06:23 | 46.03005 | 13.91809 | 37° | 15km/h | 20727m | 3.9m/s | 0°C | 0% | 0hPa | 2.6V | 00:00:00 | 01:41:53 | 00:00:00 | |
| DG1MFX-10 | 2026-09-02 00:06:20 | 46.02999 | 13.91802 | 44° | 18km/h | 20718m | 5.0m/s | -53.9°C | 1.3% | 0hPa | 2.6V | 00:00:00 | 00:00:00 | 00:00:00 | |
| OE3JTB-15 | 2026-09-02 00:06:19 | 46.02988 | 13.91786 | 53° | 11km/h | 20705m | 4.9m/s | -53.8°C | 4.1% | 0hPa | 2.6V | 00:00:00 | 00:00:00 | 00:00:00 | |
| OE8JPQ-2 | 2026-09-02 00:06:17 | 46.02986 | 13.91781 | 53° | 13km/h | 20700m | 4.7m/s | -53.8°C | 4.2% | 0hPa | 2.6V | 00:00:00 | 01:41:47 | 00:00:00 | |
| IN3HCDX1 | 2026-09-02 00:06:16 | 46.02986 | 13.91781 | 53° | 15km/h | 20700m | 4.8m/s | -53.9°C | 1.3% | 0hPa | 2.6V | 00:00:00 | 00:00:00 | 00:00:00 | |
| NBG1-10 | 2026-09-02 00:06:15 | 46.02982 | 13.91774 | 46° | 9km/h | 20692m | 3.6m/s | -53.8°C | 4.1% | 0hPa | 2.6V | 00:00:00 | 01:41:45 | 00:00:00 | |
| 9A1FER-10 | 2026-09-02 00:06:14 | 46.02979 | 13.91770 | 44° | 13km/h | 20688m | 4.5m/s | -53.8°C | 4.1% | 0hPa | 2.6V | 00:00:00 | 01:41:44 | 08:30:00 | |
| OE5DRO-10 | 2026-09-02 00:06:13 | 46.02976 | 13.91766 | 47° | 11km/h | 20683m | 5.1m/s | -53.7°C | 4.1% | 0hPa | 2.6V | 00:00:00 | 00:00:00 | 00:00:00 | |
| 9A1FER-3 | 2026-09-02 00:06:10 | 46.02968 | 13.91751 | 61° | 11km/h | 20670m | 4.5m/s | -53.7°C | 4.1% | 0hPa | 2.6V | 00:00:00 | 01:41:40 | 00:00:00 | |
| SOBLACK | 2026-09-02 00:06:05 | 46.02963 | 13.91743 | 351° | 7km/h | 20652m | 5.0m/s | -53.9°C | 1.2% | 0hPa | 2.6V | 00:00:00 | 00:00:00 | 00:00:00 | |
| DG1MFX-10 | 2026-09-02 00:06:00 | 46.02950 | 13.91736 | 52° | 13km/h | 20629m | 4.3m/s | -54.3°C | 1.3% | 0hPa | 2.6V | 00:00:00 | 00:00:00 | 00:00:00 | |
| 9A1FER-10 | 2026-09-02 00:05:59 | 46.02946 | 13.91729 | 43° | 7km/h | 20621m | 5.0m/s | -54.3°C | 4.3% | 0hPa | 2.6V | 00:00:00 | 01:41:29 | 00:00:00 | |
| IN3HCDX | 2026-09-02 00:05:57 | 46.02941 | 13.91724 | 23° | 11km/h | 20611m | 4.5m/s | -54.3°C | 1.3% | 0hPa | 2.6V | 00:00:00 | 00:00:00 | 00:00:00 | |
| 9A1FER-3 | 2026-09-02 00:05:55 | 46.02936 | 13.91722 | 23° | 5km/h | 20601m | 5.1m/s | -54.3°C | 4.3% | 0hPa | 2.6V | 00:00:00 | 01:41:25 | 00:00:00 | |
| OE5DRO-10 | 2026-09-02 00:05:54 | 46.02935 | 13.91721 | 19° | 7km/h | 20596m | 4.3m/s | -54.3°C | 4.2% | 0hPa | 2.6V | 00:00:00 | 00:00:00 | 00:00:00 | |
| OE5DXL-15 | 2026-09-02 00:05:49 | 46.02931 | 13.91723 | 247° | 9km/h | 20573m | 5.0m/s | -54.5°C | 4.3% | 0hPa | 2.6V | 00:00:00 | 00:00:00 | 00:00:00 | |
| SOBLACK | 2026-09-02 00:05:47 | 46.02931 | 13.91725 | 11° | 5km/h | 20558m | 5.3m/s | -54.6°C | 1.3% | 0hPa | 2.6V | 00:00:00 | 00:00:00 | 00:00:00 | |
| 9A1FER-10 | 2026-09-02 00:05:44 | 46.02927 | 13.91723 | 23° | 9km/h | 20550m | 4.6m/s | -54.6°C | 4.3% | 0hPa | 2.6V | 00:00:00 | 01:41:14 | 00:00:00 | |
| NBG1-10 | 2026-09-02 00:05:42 | 46.02923 | 13.91720 | 33° | 9km/h | 20540m | 4.4m/s | -54.6°C | 4.3% | 0hPa | 2.6V | 00:00:00 | 01:41:12 | 00:00:00 | |
| 9A1FER-3 | 2026-09-02 00:05:40 | 46.02918 | 13.91716 | 30° | 11km/h | 20531m | 5.1m/s | -54.6°C | 4.3% | 0hPa | 2.6V | 00:00:00 | 01:41:10 | 00:00:00 | |
| OE8JPQ-2 | 2026-09-02 00:05:37 | 46.02912 | 13.91712 | 21° | 11km/h | 20517m | 5.1m/s | -54.8°C | 4.4% | 0hPa | 2.6V | 00:00:00 | 00:00:00 | 00:00:00 | |
| IN3HCDX | 2026-09-02 00:05:36 | 46.02912 | 13.91712 | 21° | 5km/h | 20517m | 5.2m/s | -54.8°C | 1.4% | 0hPa | 2.6V | 00:00:00 | 00:00:00 | 00:00:00 | |
| OE5DRO-10 | 2026-09-02 00:05:35 | 46.02910 | 13.91711 | 48° | 11km/h | 20507m | 4.1m/s | -54.9°C | 4.5% | 0hPa | 2.6V | 00:00:00 | 00:00:00 | 00:00:00 | |
| 9A1FER-10 | 2026-09-02 00:05:29 | 46.02901 | 13.91693 | 58° | 13km/h | 20478m | 4.7m/s | -54.7°C | 4.4% | 0hPa | 2.6V | 00:00:00 | 01:40:59 | 00:00:00 | |
| 9A1FER-3 | 2026-09-02 00:05:25 | 46.02890 | 13.91670 | 63° | 11km/h | 20458m | 5.6m/s | -54.7°C | 4.5% | 0hPa | 2.5V | 00:00:00 | 01:40:55 | 00:00:00 | |
| SOBLACK | 2026-09-02 00:05:24 | 46.02890 | 13.91670 | 63° | 16km/h | 20458m | 5.6m/s | -54.7°C | 1.4% | 0hPa | 2.5V | 00:00:00 | 00:00:00 | 00:00:00 | |
| IV3AMH | 2026-09-02 00:05:22 | 46.02888 | 13.91658 | 78° | 9km/h | 20444m | 5.2m/s | -54.7°C | 1.4% | 0hPa | 2.5V | 00:00:00 | 00:00:00 | 00:00:00 | |
| OE3JTB-15 | 2026-09-02 00:05:21 | 46.02886 | 13.91652 | 57° | 15km/h | 20434m | 4.5m/s | -54.6°C | 4.4% | 0hPa | 2.5V | 00:00:00 | 01:40:50 | 00:00:00 | |
| OE5DXL-15 | 2026-09-02 00:05:19 | 46.02884 | 13.91649 | 55° | 15km/h | 20430m | 3.5m/s | -54.6°C | 4.4% | 0hPa | 2.5V | 00:00:00 | 00:00:00 | 00:00:00 | |
| IN3HCDX | 2026-09-02 00:05:17 | 46.02882 | 13.91644 | 66° | 7km/h | 20421m | 4.9m/s | -54.6°C | 1.3% | 0hPa | 2.6V | 00:00:00 | 00:00:00 | 00:00:00 | |
| OE5DRO-10 | 2026-09-02 00:05:16 | 46.02882 | 13.91642 | 61° | 13km/h | 20416m | 3.9m/s | -54.5°C | 4.3% | 0hPa | 2.6V | 00:00:00 | 00:00:00 | 00:00:00 | |
| IN3HCDX1 | 2026-09-02 00:05:15 | 46.02880 | 13.91640 | 51° | 9km/h | 20412m | 5.5m/s | -54.6°C | 1.3% | 0hPa | 2.6V | 00:00:00 | 00:00:00 | 00:00:00 | |
| 9A1FER-10 | 2026-09-02 00:05:14 | 46.02879 | 13.91637 | 45° | 15km/h | 20406m | 4.8m/s | -54.5°C | 4.2% | 0hPa | 2.6V | 00:00:00 | 01:40:44 | 00:00:00 | |
| OE5WHR-10 | 2026-09-02 00:05:11 | 46.02874 | 13.91626 | 85° | 18km/h | 20391m | 4.9m/s | 0°C | 0% | 0hPa | 2.6V | 00:00:00 | 00:00:00 | 00:00:00 | |
| 9A1FER-3 | 2026-09-02 00:05:10 | 46.02874 | 13.91621 | 94° | 15km/h | 20387m | 4.0m/s | -54.4°C | 4.2% | 0hPa | 2.6V | 00:00:00 | 01:40:40 | 00:00:00 | |
| NBG1-10 | 2026-09-02 00:05:09 | 46.02875 | 13.91614 | 96° | 18km/h | 20382m | 5.0m/s | -54.4°C | 4.2% | 0hPa | 2.6V | 00:00:00 | 01:40:39 | 00:00:00 | |
| SOBLACK | 2026-09-02 00:05:04 | 46.02877 | 13.91589 | 111° | 15km/h | 20362m | 5.5m/s | -54.5°C | 1.3% | 0hPa | 2.6V | 00:00:00 | 00:00:00 | 00:00:00 | |
| 9A1FER-10 | 2026-09-02 00:04:59 | 46.02878 | 13.91565 | 95° | 16km/h | 20333m | 4.9m/s | -55.0°C | 4.4% | 0hPa | 2.6V | 00:00:00 | 01:40:29 | 00:00:00 | |
| OE8JPQ-2 | 2026-09-02 00:04:58 | 46.02880 | 13.91553 | 99° | 20km/h | 20324m | 4.7m/s | -55.1°C | 4.4% | 0hPa | 2.6V | 00:00:00 | 00:00:00 | 00:00:00 | |
| 9A1FER-3 | 2026-09-02 00:04:56 | 46.02881 | 13.91537 | 97° | 18km/h | 20314m | 4.2m/s | -55.2°C | 4.4% | 0hPa | 2.6V | 00:00:00 | 01:40:25 | 00:00:00 | |
| IN3HCDX1 | 2026-09-02 00:04:54 | 46.02881 | 13.91537 | 98° | 24km/h | 20314m | 4.2m/s | -55.2°C | 1.4% | 0hPa | 2.6V | 00:00:00 | 00:00:00 | 00:00:00 | |
| OE3JTB-15 | 2026-09-02 00:04:51 | 46.02888 | 13.91510 | 133° | 18km/h | 20295m | 4.6m/s | -55.3°C | 4.4% | 0hPa | 2.6V | 00:00:00 | 00:00:00 | 08:30:00 | |
| OE5DXL-15 | 2026-09-02 00:04:49 | 46.02892 | 13.91504 | 137° | 18km/h | 20285m | 5.0m/s | -55.3°C | 4.4% | 0hPa | 2.6V | 00:00:00 | 00:00:00 | 00:00:00 | |
| IV3AMH | 2026-09-02 00:04:44 | 46.02900 | 13.91486 | 101° | 20km/h | 20262m | 5.7m/s | -55.3°C | 1.4% | 0hPa | 2.6V | 00:00:00 | 00:00:00 | 00:00:00 | |
| 9A1FER-3 | 2026-09-02 00:04:40 | 46.02903 | 13.91445 | 102° | 20km/h | 20243m | 4.6m/s | -55.4°C | 4.4% | 0hPa | 2.6V | 00:00:00 | 01:40:10 | 00:00:00 | |
| DG1MFX-10 | 2026-09-02 00:04:39 | 46.02905 | 13.91435 | 107° | 27km/h | 20239m | 3.9m/s | -55.5°C | 1.4% | 0hPa | 2.6V | 00:00:00 | 00:00:00 | 00:00:00 | |
| OE5DRO-10 | 2026-09-02 00:04:38 | 46.02907 | 13.91426 | 108° | 18km/h | 20235m | 4.0m/s | -55.4°C | 4.5% | 0hPa | 2.6V | 00:00:00 | 00:00:00 | 08:30:00 | |
| OE8JPQ-2 | 2026-09-02 00:04:37 | 46.02908 | 13.91419 | 105° | 18km/h | 20230m | 4.8m/s | -55.4°C | 4.4% | 0hPa | 2.6V | 00:00:00 | 00:00:00 | 00:00:00 | |
| NBG1-10 | 2026-09-02 00:04:36 | 46.02909 | 13.91412 | 97° | 22km/h | 20226m | 5.1m/s | -55.4°C | 4.4% | 0hPa | 2.6V | 00:00:00 | 01:40:06 | 00:00:00 | |
| IN3HCDX | 2026-09-02 00:04:35 | 46.02909 | 13.91408 | 89° | 11km/h | 20221m | 4.6m/s | -55.4°C | 1.4% | 0hPa | 2.6V | 00:00:00 | 00:00:00 | 00:00:00 | |
| IN3HCDX1 | 2026-09-02 00:04:34 | 46.02909 | 13.91404 | 95° | 9km/h | 20216m | 4.1m/s | -55.4°C | 1.4% | 0hPa | 2.6V | 00:00:00 | 00:00:00 | 00:00:00 | |
| 9A1FER-10 | 2026-09-02 00:04:29 | 46.02917 | 13.91375 | 105° | 20km/h | 20194m | 5.3m/s | -55.4°C | 4.4% | 0hPa | 2.6V | 00:00:00 | 01:39:59 | 00:00:00 | |
| 9A1FER-3 | 2026-09-02 00:04:25 | 46.02921 | 13.91342 | 101° | 22km/h | 20174m | 4.2m/s | -55.5°C | 4.4% | 0hPa | 2.6V | 00:00:00 | 01:39:55 | 00:00:00 | |
| SOBLACK | 2026-09-02 00:04:23 | 46.02922 | 13.91334 | 98° | 18km/h | 20170m | 3.8m/s | -55.6°C | 1.4% | 0hPa | 2.6V | 00:00:00 | 00:00:00 | 00:00:00 | |
| OE3JTB-15 | 2026-09-02 00:04:21 | 46.02922 | 13.91316 | 87° | 24km/h | 20156m | 4.1m/s | -55.7°C | 4.4% | 0hPa | 2.6V | 00:00:00 | 00:00:00 | 00:00:00 | |
| OE5DXL-15 | 2026-09-02 00:04:19 | 46.02922 | 13.91305 | 103° | 26km/h | 20146m | 4.6m/s | -56.1°C | 4.5% | 0hPa | 2.6V | 00:00:00 | 00:00:00 | 00:00:00 | |
| OE8JPQ-2 | 2026-09-02 00:04:17 | 46.02924 | 13.91293 | 97° | 29km/h | 20138m | 4.7m/s | -56.2°C | 4.7% | 0hPa | 2.6V | 00:00:00 | 01:39:47 | 00:00:00 | |
| IN3HCDX | 2026-09-02 00:04:15 | 46.02924 | 13.91276 | 87° | 29km/h | 20129m | 4.0m/s | -56.4°C | 1.5% | 0hPa | 2.6V | 00:00:00 | 00:00:00 | 00:00:00 | |
| IN3HCDX1 | 2026-09-02 00:04:14 | 46.02923 | 13.91265 | 87° | 31km/h | 20124m | 5.5m/s | -56.4°C | 1.5% | 0hPa | 2.6V | 00:00:00 | 00:00:00 | 00:00:00 | |
| 9A1FER-3 | 2026-09-02 00:04:10 | 46.02918 | 13.91216 | 73° | 27km/h | 20106m | 5.2m/s | -56.3°C | 4.8% | 0hPa | 2.6V | 00:00:00 | 01:39:40 | 08:30:00 | |
| IV3AMH | 2026-09-02 00:04:07 | 46.02908 | 13.91173 | 80° | 24km/h | 20087m | 4.2m/s | -56.2°C | 1.5% | 0hPa | 2.6V | 00:00:00 | 00:00:00 | 00:00:00 | |
| SOBLACK | 2026-09-02 00:04:03 | 46.02906 | 13.91157 | 84° | 24km/h | 20079m | 4.7m/s | -56.2°C | 1.4% | 0hPa | 2.6V | 00:00:00 | 00:00:00 | 00:00:00 | |
| DG1MFX-10 | 2026-09-02 00:04:02 | 46.02895 | 13.91089 | 71° | 27km/h | 20045m | 5.5m/s | -56.0°C | 1.5% | 0hPa | 2.6V | 00:00:00 | 00:00:00 | 00:00:00 | |
| 9A1FER-3 | 2026-09-02 00:04:00 | 46.02890 | 13.91070 | 73° | 20km/h | 20036m | 3.5m/s | -55.9°C | 4.6% | 0hPa | 2.6V | 00:00:00 | 01:39:25 | 00:00:00 | |
| IN3HCDX | 2026-09-02 00:03:57 | 46.02888 | 13.91062 | 77° | 24km/h | 20032m | 5.0m/s | -55.9°C | 1.4% | 0hPa | 2.6V | 00:00:00 | 00:00:00 | 00:00:00 | |
| OE5DXL-15 | 2026-09-02 00:03:53 | 46.02884 | 13.91027 | 71° | 16km/h | 20009m | 4.6m/s | -55.7°C | 4.5% | 0hPa | 2.6V | 00:00:00 | 00:00:00 | 00:00:00 | |
| 9A1FER-10 | 2026-09-02 00:03:51 | 46.02875 | 13.90993 | 70° | 18km/h | 19985m | 5.1m/s | -55.5°C | 4.4% | 0hPa | 2.6V | 00:00:00 | 01:39:14 | 00:00:00 | |
| SOBLACK | 2026-09-02 00:03:49 | 46.02873 | 13.90985 | 70° | 22km/h | 19980m | 5.1m/s | -55.5°C | 1.4% | 0hPa | 2.6V | 00:00:00 | 00:00:00 | 00:00:00 | |
| OE5DRO-10 | 2026-09-02 00:03:46 | 46.02870 | 13.90971 | 76° | 16km/h | 19970m | 4.7m/s | -55.5°C | 4.5% | 0hPa | 2.6V | 00:00:00 | 00:00:00 | 00:00:00 | |
| 9A1FER-3 | 2026-09-02 00:03:45 | 46.02869 | 13.90964 | 84° | 16km/h | 19966m | 5.2m/s | -55.4°C | 4.5% | 0hPa | 2.6V | 00:00:00 | 01:39:10 | 00:00:00 | |
| OE8JPQ-2 | 2026-09-02 00:03:42 | 46.02869 | 13.90947 | 87° | 13km/h | 19952m | 5.0m/s | -55.5°C | 4.5% | 0hPa | 2.6V | 00:00:00 | 00:00:00 | 00:00:00 | |
| DG1MFX-10 | 2026-09-02 00:03:39 | 46.02869 | 13.90947 | 88° | 16km/h | 19952m | 5.0m/s | -55.5°C | 1.4% | 0hPa | 2.6V | 00:00:00 | 00:00:00 | 00:00:00 | |
| IN3HCDX | 2026-09-02 00:03:33 | 46.02867 | 13.90925 | 85° | 15km/h | 19935m | 4.7m/s | -55.7°C | 1.4% | 0hPa | 2.6V | 00:00:00 | 00:00:00 | 00:00:00 | |
| IN3HCDX1 | 2026-09-02 00:03:32 | 46.02867 | 13.90925 | 85° | 15km/h | 19935m | 4.7m/s | -55.7°C | 1.4% | 0hPa | 2.6V | 00:00:00 | 00:00:00 | 00:00:00 | |
| 9A1FER-10 | 2026-09-02 00:03:31 | 46.02864 | 13.90899 | 78° | 11km/h | 19916m | 3.8m/s | -56.1°C | 4.7% | 0hPa | 2.6V | 00:00:00 | 01:38:59 | 00:00:00 | |
| IV3AMH | 2026-09-02 00:03:30 | 46.02864 | 13.90899 | 78° | 22km/h | 19916m | 3.9m/s | -56.1°C | 1.5% | 0hPa | 2.6V | 00:00:00 | 00:00:00 | 00:00:00 | |
| 9A1FER-3 | 2026-09-02 00:03:28 | 46.02860 | 13.90876 | 66° | 9km/h | 19899m | 4.1m/s | -56.1°C | 4.8% | 0hPa | 2.6V | 00:00:00 | 01:38:55 | 00:00:00 | |
| OE5DRO-10 | 2026-09-02 00:03:26 | 46.02856 | 13.90869 | 49° | 7km/h | 19884m | 4.1m/s | -56.0°C | 4.7% | 0hPa | 2.6V | 00:00:00 | 00:00:00 | 00:00:00 | |
| SOBLACK | 2026-09-02 00:03:25 | 46.02855 | 13.90867 | 50° | 7km/h | 19880m | 4.5m/s | -56.0°C | 1.4% | 0hPa | 2.6V | 00:00:00 | 00:00:00 | 00:00:00 | |
| OE3JTB-15 | 2026-09-02 00:03:24 | 46.02852 | 13.90863 | 51° | 7km/h | 19870m | 4.7m/s | -55.9°C | 4.7% | 0hPa | 2.6V | 00:00:00 | 00:00:00 | 00:00:00 | |
| OE5DXL-15 | 2026-09-02 00:03:23 | 46.02852 | 13.90863 | 51° | 7km/h | 19870m | 4.7m/s | -55.9°C | 4.7% | 0hPa | 2.7V | 00:00:00 | 00:00:00 | 00:00:00 | |
| IN3HCDX | 2026-09-02 00:03:22 | 46.02842 | 13.90847 | 39° | 7km/h | 19842m | 3.9m/s | -55.7°C | 1.4% | 0hPa | 2.7V | 00:00:00 | 00:00:00 | 00:00:00 | |
| 9A1FER-3 | 2026-09-02 00:03:21 | 46.02840 | 13.90841 | 79° | 7km/h | 19828m | 4.0m/s | -55.5°C | 4.6% | 0hPa | 2.7V | 00:00:00 | 01:38:40 | 00:00:00 | |
| OE5DRO-10 | 2026-09-02 00:03:17 | 46.02838 | 13.90834 | 40° | 7km/h | 19796m | 3.7m/s | -55.3°C | 4.5% | 0hPa | 2.7V | 00:00:00 | 00:00:00 | 00:00:00 | |
| SOBLACK | 2026-09-02 00:03:14 | 46.02835 | 13.90830 | 40° | 7km/h | 19786m | 4.8m/s | -55.3°C | 1.4% | 0hPa | 2.7V | 00:00:00 | 00:00:00 | 00:00:00 | |
| 9A1FER-10 | 2026-09-02 00:03:13 | 46.02832 | 13.90826 | 63° | 7km/h | 19777m | 5.0m/s | -55.1°C | 4.5% | 0hPa | 2.7V | 00:00:00 | 01:38:29 | 00:00:00 | |
| OE8JPQ-2 | 2026-09-02 00:03:11 | 46.02830 | 13.90818 | 76° | 9km/h | 19767m | 4.1m/s | -55.1°C | 4.4% | 0hPa | 2.7V | 00:00:00 | 00:00:00 | 00:00:00 | |
| 9A1FER-3 | 2026-09-02 00:03:10 | 46.02829 | 13.90812 | 96° | 9km/h | 19758m | 5.9m/s | -55.1°C | 4.5% | 0hPa | 2.6V | 00:00:00 | 01:38:25 | 00:00:00 | |
| IN3HCDX | 2026-09-02 00:03:06 | 46.02832 | 13.90810 | 181° | 7km/h | 19743m | 5.5m/s | -55.1°C | 1.4% | 0hPa | 2.6V | 00:00:00 | 00:00:00 | 00:00:00 | |
| IV3AMH | 2026-09-02 00:03:04 | 46.02834 | 13.90810 | 166° | 7km/h | 19738m | 4.6m/s | -55.2°C | 1.4% | 0hPa | 2.6V | 00:00:00 | 00:00:00 | 00:00:00 | |
| NBG1-10 | 2026-09-02 00:03:03 | 46.02836 | 13.90809 | 154° | 15km/h | 19734m | 3.5m/s | -55.1°C | 4.5% | 0hPa | 2.6V | 00:00:00 | 01:38:20 | 08:30:00 | |
| OE5DRO-10 | 2026-09-02 00:02:55 | 46.02843 | 13.90797 | 110° | 15km/h | 19706m | 4.7m/s | -54.9°C | 4.3% | 0hPa | 2.7V | 00:00:00 | 00:00:00 | 00:00:00 | |
| 9A1FER-10 | 2026-09-02 00:02:54 | 46.02843 | 13.90797 | 110° | 15km/h | 19706m | 4.7m/s | -54.9°C | 4.3% | 0hPa | 2.6V | 00:00:00 | 01:38:14 | 00:00:00 | |
| 9A1FER-3 | 2026-09-02 00:02:49 | 46.02848 | 13.90778 | 114° | 15km/h | 19687m | 4.5m/s | -55.0°C | 4.3% | 0hPa | 2.6V | 00:00:00 | 01:38:10 | 00:00:00 | |
| OE8JPQ-2 | 2026-09-02 00:02:46 | 46.02853 | 13.90763 | 128° | 16km/h | 19673m | 4.8m/s | -55.0°C | 4.4% | 0hPa | 2.6V | 00:00:00 | 00:00:00 | 00:00:00 | |
| DG1MFX-10 | 2026-09-02 00:02:43 | 46.02859 | 13.90758 | 157° | 13km/h | 19663m | 4.1m/s | -55.2°C | 1.4% | 0hPa | 2.6V | 00:00:00 | 00:00:00 | 00:00:00 | |
| 9A1FER-10 | 2026-09-02 00:02:40 | 46.02877 | 13.90740 | 125° | 16km/h | 19636m | 4.8m/s | -55.4°C | 4.5% | 0hPa | 2.6V | 00:00:00 | 01:37:59 | 00:00:00 | |
| 9A1FER-3 | 2026-09-02 00:02:35 | 46.02881 | 13.90718 | 99° | 18km/h | 19617m | 4.1m/s | -55.4°C | 4.5% | 0hPa | 2.6V | 00:00:00 | 01:37:55 | 00:00:00 | |
| OE3JTB-15 | 2026-09-02 00:02:31 | 46.02884 | 13.90690 | 106° | 20km/h | 19599m | 4.8m/s | -55.4°C | 4.5% | 0hPa | 2.6V | 00:00:00 | 01:37:51 | 00:00:00 | |
| OE5DXL-15 | 2026-09-02 00:02:29 | 46.02887 | 13.90678 | 113° | 22km/h | 19589m | 4.4m/s | -55.3°C | 4.4% | 0hPa | 2.6V | 00:00:00 | 00:00:00 | 08:30:00 | |
| OE8JPQ-2 | 2026-09-02 00:02:26 | 46.02890 | 13.90668 | 109° | 22km/h | 19579m | 4.9m/s | -55.3°C | 4.5% | 0hPa | 2.7V | 00:00:00 | 01:37:47 | 00:00:00 | |
| DG1MFX-10 | 2026-09-02 00:02:22 | 46.02892 | 13.90659 | 109° | 15km/h | 19571m | 4.3m/s | -55.4°C | 1.4% | 0hPa | 2.7V | 00:00:00 | 00:00:00 | 00:00:00 | |
| IV3AMH | 2026-09-02 00:02:21 | 46.02893 | 13.90654 | 113° | 16km/h | 19566m | 5.3m/s | -55.4°C | 1.5% | 0hPa | 2.7V | 00:00:00 | 00:00:00 | 00:00:00 | |
| IN3HCDX1 | 2026-09-02 00:02:17 | 46.02899 | 13.90626 | 98° | 22km/h | 19547m | 5.1m/s | -55.4°C | 1.4% | 0hPa | 2.7V | 00:00:00 | 00:00:00 | 00:00:00 | |
| OE5DRO-10 | 2026-09-02 00:02:15 | 46.02901 | 13.90592 | 101° | 29km/h | 19529m | 4.7m/s | -55.4°C | 4.4% | 0hPa | 2.7V | 00:00:00 | 00:00:00 | 00:00:00 | |
| 9A1FER-10 | 2026-09-02 00:02:07 | 46.02916 | 13.90537 | 110° | 27km/h | 19495m | 5.5m/s | -55.6°C | 4.5% | 0hPa | 2.7V | 00:00:00 | 01:37:29 | 00:00:00 | |
| SOBLACK | 2026-09-02 00:02:06 | 46.02916 | 13.90537 | 110° | 22km/h | 19495m | 5.5m/s | -55.6°C | 1.4% | 0hPa | 2.7V | 00:00:00 | 00:00:00 | 00:00:00 | |
| OE8JPQ-2 | 2026-09-02 00:02:03 | 46.02918 | 13.90520 | 95° | 27km/h | 19486m | 4.2m/s | -55.6°C | 4.6% | 0hPa | 2.7V | 00:00:00 | 00:00:00 | 00:00:00 | |
| DG1MFX-10 | 2026-09-02 00:02:01 | 46.02919 | 13.90501 | 96° | 29km/h | 19476m | 4.1m/s | -55.7°C | 1.5% | 0hPa | 2.7V | 00:00:00 | 00:00:00 | 00:00:00 | |
| OE3JTB-15 | 2026-09-02 00:01:58 | 46.02923 | 13.90463 | 102° | 29km/h | 19459m | 4.0m/s | -55.6°C | 4.6% | 0hPa | 2.7V | 00:00:00 | 00:00:00 | 00:00:00 | |
| IN3HCDX | 2026-09-02 00:01:57 | 46.02925 | 13.90445 | 101° | 27km/h | 19450m | 5.1m/s | -55.7°C | 1.5% | 0hPa | 2.6V | 00:00:00 | 00:00:00 | 00:00:00 | |
| 9A1FER-10 | 2026-09-02 00:01:53 | 46.02929 | 13.90392 | 94° | 29km/h | 19426m | 5.0m/s | -55.6°C | 4.6% | 0hPa | 2.6V | 00:00:00 | 01:37:14 | 08:30:00 | |
| 9A1FER-3 | 2026-09-02 00:01:49 | 46.02931 | 13.90351 | 92° | 29km/h | 19408m | 3.9m/s | -55.6°C | 4.5% | 0hPa | 2.7V | 00:00:00 | 01:37:10 | 00:00:00 | |
| SOBLACK | 2026-09-02 00:01:45 | 46.02932 | 13.90324 | 94° | 29km/h | 19394m | 4.5m/s | -55.8°C | 1.4% | 0hPa | 2.7V | 00:00:00 | 00:00:00 | 00:00:00 | |
| OE8JPQ-2 | 2026-09-02 00:01:44 | 46.02932 | 13.90324 | 94° | 31km/h | 19394m | 4.4m/s | -55.7°C | 4.6% | 0hPa | 2.7V | 00:00:00 | 00:00:00 | 00:00:00 | |
| IV3AMH | 2026-09-02 00:01:43 | 46.02932 | 13.90313 | 93° | 29km/h | 19390m | 4.3m/s | -55.8°C | 1.5% | 0hPa | 2.7V | 00:00:00 | 00:00:00 | 00:00:00 | |
| DG1MFX-10 | 2026-09-02 00:01:42 | 46.02932 | 13.90293 | 92° | 27km/h | 19380m | 4.9m/s | -55.8°C | 1.5% | 0hPa | 2.7V | 00:00:00 | 00:00:00 | 00:00:00 | |
| IN3HCDX | 2026-09-02 00:01:36 | 46.02934 | 13.90235 | 93° | 35km/h | 19358m | 3.7m/s | -55.9°C | 1.5% | 0hPa | 2.7V | 00:00:00 | 00:00:00 | 00:00:00 | |
| IN3HCDX1 | 2026-09-02 00:01:35 | 46.02934 | 13.90235 | 93° | 35km/h | 19358m | 3.7m/s | -55.9°C | 1.5% | 0hPa | 2.7V | 00:00:00 | 00:00:00 | 00:00:00 | |
| 9A1FER-3 | 2026-09-02 00:01:31 | 46.02932 | 13.90191 | 81° | 31km/h | 19339m | 4.7m/s | -55.9°C | 4.6% | 0hPa | 2.7V | 00:00:00 | 01:36:55 | 00:00:00 | |
| OE3JTB-15 | 2026-09-02 00:01:26 | 46.02928 | 13.90157 | 78° | 27km/h | 19325m | 4.5m/s | -55.8°C | 4.6% | 0hPa | 2.7V | 00:00:00 | 00:00:00 | 00:00:00 | |
| OE5DXL-15 | 2026-09-02 00:01:23 | 46.02922 | 13.90125 | 77° | 27km/h | 19310m | 4.4m/s | -55.8°C | 4.6% | 0hPa | 2.7V | 00:00:00 | 00:00:00 | 00:00:00 | |
| OE8JPQ-2 | 2026-09-02 00:01:21 | 46.02919 | 13.90101 | 83° | 27km/h | 19301m | 3.9m/s | -55.7°C | 4.6% | 0hPa | 2.7V | 00:00:00 | 01:36:47 | 00:00:00 | |
| OE5DRO-10 | 2026-09-02 00:01:20 | 46.02919 | 13.90101 | 83° | 27km/h | 19301m | 3.9m/s | -55.7°C | 4.6% | 0hPa | 2.7V | 00:00:00 | 00:00:00 | 08:30:00 | |
| DG1MFX-10 | 2026-09-02 00:01:18 | 46.02916 | 13.90068 | 85° | 27km/h | 19286m | 4.2m/s | -55.7°C | 1.5% | 0hPa | 2.7V | 00:00:00 | 00:00:00 | 00:00:00 | |
| NBG1-10 | 2026-09-02 00:01:16 | 46.02914 | 13.90038 | 81° | 24km/h | 19272m | 4.6m/s | -55.5°C | 4.6% | 0hPa | 2.7V | 00:00:00 | 01:36:41 | 00:00:00 | |
| 9A1FER-3 | 2026-09-02 00:01:14 | 46.02912 | 13.90029 | 76° | 26km/h | 19267m | 5.6m/s | -55.5°C | 4.6% | 0hPa | 2.7V | 00:00:00 | 01:36:40 | 00:00:00 | |
| IN3HCDX | 2026-09-02 00:01:11 | 46.02909 | 13.90014 | 71° | 22km/h | 19258m | 3.4m/s | -55.5°C | 1.5% | 0hPa | 2.6V | 00:00:00 | 00:00:00 | 00:00:00 | |
| OE5DRO-10 | 2026-09-02 00:00:59 | 46.02886 | 13.89925 | 69° | 24km/h | 19213m | 3.4m/s | -55.4°C | 4.5% | 0hPa | 2.6V | 00:00:00 | 00:00:00 | 00:00:00 | |
| OE8JPQ-2 | 2026-09-02 00:00:58 | 46.02884 | 13.89917 | 68° | 22km/h | 19208m | 5.4m/s | -55.4°C | 4.5% | 0hPa | 2.6V | 00:00:00 | 00:00:00 | 08:30:00 | |
| 9A1FER-3 | 2026-09-02 00:00:56 | 46.02880 | 13.89901 | 68° | 24km/h | 19199m | 4.2m/s | -55.5°C | 4.6% | 0hPa | 2.6V | 00:00:00 | 01:36:25 | 00:00:00 | |
| DG1MFX-10 | 2026-09-02 00:00:54 | 46.02877 | 13.89893 | 69° | 24km/h | 19194m | 5.3m/s | -55.5°C | 1.5% | 0hPa | 2.6V | 00:00:00 | 00:00:00 | 00:00:00 | |
| OE3JTB-15 | 2026-09-02 00:00:53 | 46.02875 | 13.89885 | 71° | 22km/h | 19189m | 4.5m/s | -55.5°C | 4.6% | 0hPa | 2.6V | 00:00:00 | 01:36:23 | 00:00:00 | |
| IN3HCDX1 | 2026-09-02 00:00:50 | 46.02866 | 13.89851 | 68° | 26km/h | 19170m | 4.5m/s | -55.4°C | 1.4% | 0hPa | 2.6V | 00:00:00 | 00:00:00 | 00:00:00 | |
| 9A1FER-10 | 2026-09-02 00:00:48 | 46.02853 | 13.89812 | 59° | 20km/h | 19147m | 4.3m/s | -55.1°C | 4.5% | 0hPa | 2.6V | 00:00:00 | 01:36:14 | 00:00:00 | |
| 9A1FER-3 | 2026-09-02 00:00:44 | 46.02841 | 13.89790 | 49° | 20km/h | 19130m | 4.1m/s | -55.0°C | 4.5% | 0hPa | 2.6V | 00:00:00 | 01:36:10 | 00:00:00 | |
| NBG1-10 | 2026-09-02 00:00:40 | 46.02835 | 13.89779 | 52° | 18km/h | 19120m | 4.2m/s | -55.0°C | 4.5% | 0hPa | 2.6V | 00:00:00 | 01:36:08 | 00:00:00 | |
| OE8JPQ-2 | 2026-09-02 00:00:38 | 46.02832 | 13.89774 | 57° | 20km/h | 19116m | 4.1m/s | -55.0°C | 4.5% | 0hPa | 2.6V | 00:00:00 | 00:00:00 | 00:00:00 | |
| DG1MFX-10 | 2026-09-02 00:00:36 | 46.02822 | 13.89746 | 66° | 20km/h | 19098m | 5.1m/s | -55.0°C | 1.5% | 0hPa | 2.6V | 00:00:00 | 00:00:00 | 00:00:00 | |
| 9A1FER-10 | 2026-09-02 00:00:33 | 46.02814 | 13.89723 | 59° | 20km/h | 19079m | 4.9m/s | -54.9°C | 4.5% | 0hPa | 2.6V | 00:00:00 | 01:35:59 | 00:00:00 | |
| IN3HCDX1 | 2026-09-02 00:00:32 | 46.02811 | 13.89716 | 60° | 22km/h | 19075m | 4.2m/s | -54.9°C | 1.4% | 0hPa | 2.6V | 00:00:00 | 00:00:00 | 00:00:00 | |
| IN3HCDX | 2026-09-02 00:00:29 | 46.02805 | 13.89703 | 59° | 18km/h | 19065m | 5.4m/s | -54.8°C | 1.4% | 0hPa | 2.6V | 00:00:00 | 00:00:00 | 00:00:00 | |
| SOBLACK | 2026-09-02 00:00:28 | 46.02800 | 13.89692 | 60° | 18km/h | 19055m | 5.1m/s | -54.8°C | 1.4% | 0hPa | 2.6V | 00:00:00 | 00:00:00 | 00:00:00 | |
| IV3AMH | 2026-09-02 00:00:26 | 46.02793 | 13.89674 | 57° | 18km/h | 19041m | 5.3m/s | -54.7°C | 1.4% | 0hPa | 2.6V | 00:00:00 | 00:00:00 | 00:00:00 | |
| OE5DXL-15 | 2026-09-02 00:00:25 | 46.02788 | 13.89663 | 57° | 22km/h | 19032m | 3.8m/s | -54.5°C | 4.3% | 0hPa | 2.6V | 00:00:00 | 00:00:00 | 00:00:00 | |
| OE8JPQ-2 | 2026-09-02 00:00:22 | 46.02783 | 13.89651 | 63° | 20km/h | 19023m | 4.4m/s | -54.5°C | 4.3% | 0hPa | 2.6V | 00:00:00 | 01:35:47 | 00:00:00 | |
| 9A1FER-10 | 2026-09-02 00:00:20 | 46.02776 | 13.89632 | 67° | 18km/h | 19009m | 4.4m/s | -54.5°C | 4.3% | 0hPa | 2.6V | 00:00:00 | 01:35:44 | 00:00:00 | |
| DG1MFX-10 | 2026-09-02 00:00:19 | 46.02775 | 13.89627 | 71° | 18km/h | 19004m | 5.1m/s | -54.5°C | 1.4% | 0hPa | 2.6V | 00:00:00 | 00:00:00 | 00:00:00 | |
| 9A1FER-3 | 2026-09-02 00:00:13 | 46.02771 | 13.89607 | 72° | 22km/h | 18989m | 4.9m/s | -54.4°C | 4.2% | 0hPa | 2.6V | 00:00:00 | 01:35:40 | 00:00:00 | |
| IN3HCDX1 | 2026-09-02 00:00:09 | 46.02766 | 13.89590 | 69° | 18km/h | 18974m | 5.4m/s | -54.5°C | 1.3% | 0hPa | 2.6V | 00:00:00 | 00:00:00 | 00:00:00 | |
| NBG1-10 | 2026-09-02 00:00:06 | 46.02763 | 13.89577 | 74° | 26km/h | 18964m | 3.9m/s | -54.4°C | 4.1% | 0hPa | 2.6V | 00:00:00 | 01:35:35 | 00:00:00 | |
| 9A1FER-10 | 2026-09-01 23:59:59 | 46.02755 | 13.89532 | 90° | 27km/h | 18935m | 4.7m/s | -55.0°C | 4.4% | 0hPa | 2.6V | 00:00:00 | 01:35:29 | 00:00:00 | |
| OE8JPQ-2 | 2026-09-01 23:59:57 | 46.02756 | 13.89511 | 97° | 27km/h | 18925m | 5.1m/s | -55.2°C | 4.4% | 0hPa | 2.6V | 00:00:00 | 00:00:00 | 00:00:00 | |
| 9A1FER-3 | 2026-09-01 23:59:55 | 46.02758 | 13.89492 | 105° | 27km/h | 18916m | 4.9m/s | -55.2°C | 4.4% | 0hPa | 2.6V | 00:00:00 | 01:35:25 | 00:00:00 | |
| DG1MFX-10 | 2026-09-01 23:59:51 | 46.02764 | 13.89463 | 106° | 26km/h | 18902m | 5.1m/s | -55.3°C | 1.5% | 0hPa | 2.6V | 00:00:00 | 00:00:00 | 00:00:00 | |
| IN3HCDX1 | 2026-09-01 23:59:46 | 46.02770 | 13.89418 | 98° | 31km/h | 18880m | 3.6m/s | -55.3°C | 1.4% | 0hPa | 2.6V | 00:00:00 | 00:00:00 | 00:00:00 | |
| 9A1FER-10 | 2026-09-01 23:59:44 | 46.02772 | 13.89386 | 91° | 24km/h | 18867m | 4.9m/s | -55.2°C | 4.4% | 0hPa | 2.6V | 00:00:00 | 01:35:14 | 00:00:00 | |
| IV3AMH | 2026-09-01 23:59:43 | 46.02772 | 13.89386 | 91° | 26km/h | 18867m | 4.9m/s | -55.3°C | 1.5% | 0hPa | 2.6V | 00:00:00 | 00:00:00 | 00:00:00 | |
| IN3HCDX | 2026-09-01 23:59:41 | 46.02772 | 13.89368 | 91° | 24km/h | 18859m | 3.9m/s | -55.3°C | 1.4% | 0hPa | 2.6V | 00:00:00 | 00:00:00 | 00:00:00 | |
| 9A1FER-3 | 2026-09-01 23:59:40 | 46.02772 | 13.89350 | 91° | 22km/h | 18850m | 4.5m/s | -55.3°C | 4.4% | 0hPa | 2.6V | 00:00:00 | 01:35:10 | 08:30:00 | |
| NBG1-10 | 2026-09-01 23:59:30 | 46.02766 | 13.89265 | 89° | 27km/h | 18805m | 4.7m/s | -55.4°C | 4.5% | 0hPa | 2.7V | 00:00:00 | 01:35:00 | 00:00:00 | |
| 9A1FER-10 | 2026-09-01 23:59:29 | 46.02766 | 13.89258 | 92° | 18km/h | 18800m | 4.4m/s | -55.5°C | 4.5% | 0hPa | 2.6V | 00:00:00 | 01:34:59 | 08:30:00 | |
| 9A1FER-3 | 2026-09-01 23:59:25 | 46.02762 | 13.89231 | 68° | 18km/h | 18782m | 4.0m/s | -55.6°C | 4.6% | 0hPa | 2.6V | 00:00:00 | 01:34:55 | 00:00:00 | |
| OE5DRO-10 | 2026-09-01 23:59:23 | 46.02758 | 13.89214 | 75° | 22km/h | 18768m | 4.3m/s | -55.6°C | 4.6% | 0hPa | 2.6V | 00:00:00 | 00:00:00 | 00:00:00 | |
| OE3JTB-15 | 2026-09-01 23:59:22 | 46.02758 | 13.89214 | 75° | 24km/h | 18768m | 4.3m/s | -55.6°C | 4.6% | 0hPa | 2.7V | 00:00:00 | 01:34:52 | 00:00:00 | |
| IN3HCDX | 2026-09-01 23:59:21 | 46.02759 | 13.89214 | 75° | 15km/h | 18768m | 4.3m/s | -55.7°C | 1.5% | 0hPa | 2.7V | 00:00:00 | 00:00:00 | 00:00:00 | |
| SOBLACK | 2026-09-01 23:59:20 | 46.02758 | 13.89209 | 71° | 13km/h | 18763m | 5.4m/s | -55.6°C | 1.5% | 0hPa | 2.7V | 00:00:00 | 00:00:00 | 00:00:00 | |
| OE5DXL-15 | 2026-09-01 23:59:19 | 46.02755 | 13.89199 | 71° | 26km/h | 18754m | 4.4m/s | -55.5°C | 4.6% | 0hPa | 2.7V | 00:00:00 | 00:00:00 | 00:00:00 | |
| OE8JPQ-2 | 2026-09-01 23:59:17 | 46.02753 | 13.89187 | 83° | 24km/h | 18744m | 4.2m/s | -55.4°C | 4.6% | 0hPa | 2.6V | 00:00:00 | 01:34:47 | 00:00:00 | |
| 9A1FER-10 | 2026-09-01 23:59:14 | 46.02751 | 13.89166 | 85° | 24km/h | 18730m | 4.1m/s | -55.4°C | 4.6% | 0hPa | 2.6V | 00:00:00 | 01:34:44 | 00:00:00 | |
| 9A1FER-3 | 2026-09-01 23:59:10 | 46.02748 | 13.89127 | 78° | 26km/h | 18712m | 5.3m/s | -55.3°C | 4.6% | 0hPa | 2.6V | 00:00:00 | 01:34:40 | 00:00:00 | |
| DG1MFX-10 | 2026-09-01 23:59:09 | 46.02748 | 13.89127 | 79° | 27km/h | 18712m | 5.3m/s | -55.3°C | 1.5% | 0hPa | 2.6V | 00:00:00 | 00:00:00 | 00:00:00 | |
| IV3AMH | 2026-09-01 23:59:06 | 46.02743 | 13.89100 | 78° | 26km/h | 18698m | 5.5m/s | -55.4°C | 1.5% | 0hPa | 2.6V | 00:00:00 | 00:00:00 | 00:00:00 | |
| IN3HCDX1 | 2026-09-01 23:59:04 | 46.02740 | 13.89083 | 80° | 22km/h | 18688m | 4.2m/s | -55.3°C | 1.5% | 0hPa | 2.6V | 00:00:00 | 00:00:00 | 00:00:00 | |
| OE5DRO-10 | 2026-09-01 23:59:03 | 46.02738 | 13.89069 | 78° | 27km/h | 18678m | 4.4m/s | -55.3°C | 4.5% | 0hPa | 2.6V | 00:00:00 | 00:00:00 | 00:00:00 | |
| 9A1FER-10 | 2026-09-01 23:58:59 | 46.02738 | 13.89035 | 99° | 29km/h | 18661m | 4.4m/s | -55.2°C | 4.5% | 0hPa | 2.6V | 00:00:00 | 01:34:29 | 00:00:00 | |
| OE8JPQ-2 | 2026-09-01 23:58:57 | 46.02740 | 13.89013 | 94° | 33km/h | 18651m | 5.0m/s | -55.1°C | 4.4% | 0hPa | 2.6V | 00:00:00 | 00:00:00 | 00:00:00 | |
| 9A1FER-3 | 2026-09-01 23:58:55 | 46.02741 | 13.88991 | 88° | 31km/h | 18642m | 3.9m/s | -55.1°C | 4.4% | 0hPa | 2.7V | 00:00:00 | 01:34:25 | 00:00:00 | |
| OE3JTB-15 | 2026-09-01 23:58:53 | 46.02740 | 13.88969 | 89° | 33km/h | 18632m | 4.3m/s | -55.1°C | 4.3% | 0hPa | 2.6V | 00:00:00 | 00:00:00 | 00:00:00 | |
| OE5DXL-15 | 2026-09-01 23:58:49 | 46.02739 | 13.88930 | 92° | 35km/h | 18614m | 4.4m/s | -55.1°C | 4.4% | 0hPa | 2.7V | 00:00:00 | 00:00:00 | 00:00:00 | |
| 9A1FER-10 | 2026-09-01 23:58:44 | 46.02739 | 13.88873 | 82° | 37km/h | 18590m | 4.4m/s | -55.1°C | 4.4% | 0hPa | 2.7V | 00:00:00 | 01:34:14 | 00:00:00 | |
| 9A1FER-3 | 2026-09-01 23:58:40 | 46.02733 | 13.88818 | 83° | 35km/h | 18572m | 4.6m/s | -55.3°C | 4.4% | 0hPa | 2.6V | 00:00:00 | 01:34:10 | 00:00:00 | |
| IN3HCDX | 2026-09-01 23:58:39 | 46.02733 | 13.88818 | 83° | 38km/h | 18572m | 4.6m/s | -55.4°C | 1.5% | 0hPa | 2.6V | 00:00:00 | 00:00:00 | 00:00:00 | |
| OE8JPQ-2 | 2026-09-01 23:58:37 | 46.02730 | 13.88781 | 89° | 37km/h | 18558m | 4.0m/s | -55.6°C | 4.5% | 0hPa | 2.6V | 00:00:00 | 00:00:00 | 00:00:00 | |
| SOBLACK | 2026-09-01 23:58:33 | 46.02732 | 13.88745 | 93° | 37km/h | 18545m | 3.6m/s | -55.9°C | 1.5% | 0hPa | 2.6V | 00:00:00 | 00:00:00 | 00:00:00 | |
| 9A1FER-10 | 2026-09-01 23:58:29 | 46.02725 | 13.88680 | 78° | 38km/h | 18522m | 4.7m/s | -56.0°C | 4.6% | 0hPa | 2.6V | 00:00:00 | 01:33:59 | 00:00:00 | |
| DG1MFX-10 | 2026-09-01 23:58:28 | 46.02725 | 13.88680 | 79° | 37km/h | 18522m | 4.7m/s | -56.0°C | 1.5% | 0hPa | 2.6V | 00:00:00 | 00:00:00 | 00:00:00 | |
| 9A1FER-3 | 2026-09-01 23:58:25 | 46.02718 | 13.88633 | 83° | 38km/h | 18504m | 3.7m/s | -56.0°C | 4.7% | 0hPa | 2.6V | 00:00:00 | 01:33:55 | 00:00:00 | |
| DO3MHA-11 | 2026-09-01 23:58:21 | 46.02714 | 13.88581 | 77° | 40km/h | 18485m | 4.9m/s | -55.9°C | 4.7% | 0hPa | 2.6V | 00:00:00 | 01:33:51 | 00:00:00 | |
| OE5DXL-15 | 2026-09-01 23:58:19 | 46.02707 | 13.88552 | 70° | 33km/h | 18476m | 4.4m/s | -55.9°C | 4.7% | 0hPa | 2.6V | 00:00:00 | 00:00:00 | 00:00:00 | |
| OE8JPQ-2 | 2026-09-01 23:58:17 | 46.02699 | 13.88522 | 67° | 35km/h | 18467m | 3.7m/s | -56.0°C | 4.7% | 0hPa | 2.6V | 00:00:00 | 01:33:47 | 00:00:00 | |
| 9A1FER-10 | 2026-09-01 23:58:14 | 46.02685 | 13.88484 | 60° | 35km/h | 18453m | 3.9m/s | -56.1°C | 4.7% | 0hPa | 2.6V | 00:00:00 | 01:33:44 | 00:00:00 | |
| DO3MHA-11 | 2026-09-01 23:58:11 | 46.02675 | 13.88448 | 80° | 35km/h | 18439m | 4.1m/s | -56.1°C | 4.7% | 0hPa | 2.6V | 00:00:00 | 01:33:41 | 00:00:00 | |
| 9A1FER-3 | 2026-09-01 23:58:10 | 46.02674 | 13.88434 | 82° | 31km/h | 18435m | 4.6m/s | -56.1°C | 4.7% | 0hPa | 2.7V | 00:00:00 | 01:33:40 | 00:00:00 | |
| SOBLACK | 2026-09-01 23:58:09 | 46.02674 | 13.88434 | 82° | 42km/h | 18435m | 4.7m/s | -56.2°C | 1.5% | 0hPa | 2.6V | 00:00:00 | 00:00:00 | 00:00:00 | |
| DG1MFX-10 | 2026-09-01 23:58:08 | 46.02672 | 13.88419 | 82° | 44km/h | 18430m | 5.1m/s | -56.2°C | 1.6% | 0hPa | 2.6V | 00:00:00 | 00:00:00 | 00:00:00 | |
| NBG1-10 | 2026-09-01 23:58:07 | 46.02668 | 13.88387 | 80° | 26km/h | 18421m | 3.8m/s | 0°C | 0% | 0hPa | 2.6V | 00:00:00 | 01:33:37 | 00:00:00 | |
| OE5DRO-10 | 2026-09-01 23:58:06 | 46.02667 | 13.88373 | 81° | 27km/h | 18417m | 4.4m/s | -56.1°C | 4.7% | 0hPa | 2.6V | 00:00:00 | 00:00:00 | 00:00:00 | |
| IN3HCDX1 | 2026-09-01 23:58:03 | 46.02664 | 13.88349 | 85° | 29km/h | 18407m | 4.3m/s | -56.0°C | 1.6% | 0hPa | 2.6V | 00:00:00 | 00:00:00 | 00:00:00 | |
| DO3MHA-11 | 2026-09-01 23:58:01 | 46.02660 | 13.88320 | 72° | 27km/h | 18393m | 3.9m/s | -55.9°C | 4.7% | 0hPa | 2.6V | 00:00:00 | 01:33:31 | 00:00:00 | |
| 9A1FER-10 | 2026-09-01 23:57:59 | 46.02656 | 13.88304 | 70° | 26km/h | 18384m | 5.6m/s | -55.9°C | 4.7% | 0hPa | 2.6V | 00:00:00 | 01:33:29 | 00:00:00 | |
| IN3HCDX | 2026-09-01 23:57:58 | 46.02656 | 13.88303 | 71° | 24km/h | 18384m | 5.7m/s | -56.0°C | 1.6% | 0hPa | 2.7V | 00:00:00 | 00:00:00 | 00:00:00 | |
| OE8JPQ-2 | 2026-09-01 23:57:57 | 46.02653 | 13.88287 | 74° | 26km/h | 18375m | 4.4m/s | -55.9°C | 4.6% | 0hPa | 2.7V | 00:00:00 | 00:00:00 | 08:30:00 | |
| 9A1FER-3 | 2026-09-01 23:57:55 | 46.02649 | 13.88267 | 79° | 26km/h | 18365m | 4.4m/s | -55.8°C | 4.6% | 0hPa | 2.6V | 00:00:00 | 01:33:25 | 00:00:00 | |
| OE3JTB-15 | 2026-09-01 23:57:52 | 46.02647 | 13.88233 | 93° | 24km/h | 18350m | 4.6m/s | -55.8°C | 4.7% | 0hPa | 2.6V | 00:00:00 | 01:33:22 | 00:00:00 | |
| DO3MHA-11 | 2026-09-01 23:57:51 | 46.02647 | 13.88223 | 96° | 24km/h | 18346m | 3.6m/s | -55.9°C | 4.6% | 0hPa | 2.6V | 00:00:00 | 01:33:21 | 00:00:00 | |
| IV3AMH | 2026-09-01 23:57:50 | 46.02647 | 13.88223 | 96° | 27km/h | 18346m | 3.6m/s | -55.9°C | 1.6% | 0hPa | 2.6V | 00:00:00 | 00:00:00 | 00:00:00 | |
| OE5DXL-15 | 2026-09-01 23:57:49 | 46.02648 | 13.88203 | 94° | 24km/h | 18336m | 5.0m/s | -55.9°C | 4.6% | 0hPa | 2.6V | 00:00:00 | 00:00:00 | 08:30:00 | |
| OE5DRO-10 | 2026-09-01 23:57:47 | 46.02649 | 13.88185 | 96° | 24km/h | 18326m | 6.1m/s | -55.9°C | 4.6% | 0hPa | 2.6V | 00:00:00 | 00:00:00 | 00:00:00 | |
| SOBLACK | 2026-09-01 23:57:46 | 46.02649 | 13.88185 | 97° | 22km/h | 18326m | 6.1m/s | -55.9°C | 1.5% | 0hPa | 2.6V | 00:00:00 | 00:00:00 | 00:00:00 | |
| 9A1FER-10 | 2026-09-01 23:57:44 | 46.02651 | 13.88163 | 91° | 24km/h | 18312m | 5.2m/s | -55.9°C | 4.6% | 0hPa | 2.6V | 00:00:00 | 01:33:14 | 00:00:00 | |
| IN3HCDX1 | 2026-09-01 23:57:42 | 46.02650 | 13.88154 | 87° | 26km/h | 18307m | 4.7m/s | -55.9°C | 1.5% | 0hPa | 2.6V | 00:00:00 | 00:00:00 | 00:00:00 | |
| 9A1FER-3 | 2026-09-01 23:57:40 | 46.02649 | 13.88126 | 90° | 22km/h | 18294m | 5.2m/s | -55.9°C | 4.6% | 0hPa | 2.6V | 00:00:00 | 01:33:10 | 00:00:00 | |
| IN3HCDX | 2026-09-01 23:57:38 | 46.02649 | 13.88118 | 96° | 20km/h | 18289m | 4.7m/s | -55.9°C | 1.6% | 0hPa | 2.6V | 00:00:00 | 00:00:00 | 00:00:00 | |
| OE8JPQ-2 | 2026-09-01 23:57:37 | 46.02651 | 13.88104 | 108° | 24km/h | 18280m | 4.9m/s | -55.9°C | 4.7% | 0hPa | 2.6V | 00:00:00 | 00:00:00 | 00:00:00 | |
| NBG1-10 | 2026-09-01 23:57:34 | 46.02658 | 13.88080 | 117° | 26km/h | 18265m | 5.2m/s | 0°C | 0% | 0hPa | 2.6V | 00:00:00 | 01:33:04 | 00:00:00 | |
| DO3MHA-11 | 2026-09-01 23:57:30 | 46.02670 | 13.88049 | 116° | 22km/h | 18246m | 3.8m/s | -55.9°C | 4.7% | 0hPa | 2.6V | 00:00:00 | 01:33:00 | 00:00:00 | |
| 9A1FER-10 | 2026-09-01 23:57:29 | 46.02673 | 13.88040 | 117° | 26km/h | 18242m | 4.1m/s | -55.9°C | 4.6% | 0hPa | 2.6V | 00:00:00 | 01:32:59 | 00:00:00 | |
| OE5DRO-10 | 2026-09-01 23:57:28 | 46.02675 | 13.88033 | 118° | 26km/h | 18237m | 5.3m/s | -55.8°C | 4.6% | 0hPa | 2.6V | 00:00:00 | 00:00:00 | 08:30:00 | |
| SOBLACK | 2026-09-01 23:57:26 | 46.02677 | 13.88027 | 120° | 18km/h | 18232m | 4.3m/s | -55.8°C | 1.6% | 0hPa | 2.6V | 00:00:00 | 00:00:00 | 00:00:00 | |
| 9A1FER-3 | 2026-09-01 23:57:25 | 46.02682 | 13.88015 | 119° | 27km/h | 18223m | 4.9m/s | -55.8°C | 4.7% | 0hPa | 2.6V | 00:00:00 | 01:32:55 | 08:30:00 | |
| OE3JTB-15 | 2026-09-01 23:57:23 | 46.02688 | 13.88001 | 126° | 31km/h | 18214m | 4.9m/s | -55.7°C | 4.7% | 0hPa | 2.7V | 00:00:00 | 00:00:00 | 00:00:00 | |
| IN3HCDX1 | 2026-09-01 23:57:21 | 46.02692 | 13.87995 | 132° | 24km/h | 18209m | 5.2m/s | -55.7°C | 1.6% | 0hPa | 2.6V | 00:00:00 | 00:00:00 | 00:00:00 | |
| DO3MHA-11 | 2026-09-01 23:57:20 | 46.02700 | 13.87980 | 129° | 29km/h | 18200m | 5.2m/s | -55.7°C | 4.7% | 0hPa | 2.6V | 00:00:00 | 01:32:50 | 00:00:00 | |
| OE8JPQ-2 | 2026-09-01 23:57:17 | 46.02714 | 13.87951 | 122° | 31km/h | 18186m | 5.0m/s | -55.7°C | 4.6% | 0hPa | 2.6V | 00:00:00 | 01:32:47 | 00:00:00 | |
| 9A1FER-10 | 2026-09-01 23:57:14 | 46.02725 | 13.87925 | 119° | 31km/h | 18172m | 5.2m/s | -55.6°C | 4.5% | 0hPa | 2.6V | 00:00:00 | 01:32:44 | 08:30:00 | |
| IV3AMH | 2026-09-01 23:57:13 | 46.02725 | 13.87925 | 120° | 26km/h | 18172m | 5.2m/s | -55.7°C | 1.6% | 0hPa | 2.7V | 00:00:00 | 00:00:00 | 00:00:00 | |
| 9A1FER-3 | 2026-09-01 23:57:10 | 46.02740 | 13.87897 | 142° | 33km/h | 18153m | 5.2m/s | -55.5°C | 4.5% | 0hPa | 2.7V | 00:00:00 | 01:32:40 | 00:00:00 | |
| OE5DRO-10 | 2026-09-01 23:57:09 | 46.02745 | 13.87892 | 142° | 35km/h | 18149m | 3.4m/s | -55.5°C | 4.4% | 0hPa | 2.7V | 00:00:00 | 00:00:00 | 00:00:00 | |
| DO3MHA-12 | 2026-09-01 23:57:06 | 46.02758 | 13.87869 | 122° | 35km/h | 18136m | 4.5m/s | -55.5°C | 4.4% | 0hPa | 2.7V | 00:00:00 | 01:32:36 | 08:30:00 | |
| DG1MFX-10 | 2026-09-01 23:57:05 | 46.02758 | 13.87869 | 122° | 33km/h | 18136m | 4.5m/s | -55.5°C | 1.5% | 0hPa | 2.6V | 00:00:00 | 00:00:00 | 00:00:00 | |
| SOBLACK | 2026-09-01 23:57:04 | 46.02762 | 13.87858 | 121° | 37km/h | 18131m | 4.6m/s | -55.6°C | 1.5% | 0hPa | 2.6V | 00:00:00 | 00:00:00 | 00:00:00 | |
| IN3HCDX1 | 2026-09-01 23:57:01 | 46.02779 | 13.87824 | 130° | 38km/h | 18117m | 3.7m/s | -55.6°C | 1.5% | 0hPa | 2.6V | 00:00:00 | 00:00:00 | 00:00:00 | |
| DO3MHA-11 | 2026-09-01 23:57:00 | 46.02790 | 13.87803 | 127° | 35km/h | 18109m | 5.0m/s | -55.6°C | 4.5% | 0hPa | 2.6V | 00:00:00 | 01:32:30 | 00:00:00 | |
| 9A1FER-10 | 2026-09-01 23:56:59 | 46.02795 | 13.87794 | 123° | 40km/h | 18104m | 4.4m/s | -55.7°C | 4.5% | 0hPa | 2.6V | 00:00:00 | 01:32:29 | 00:00:00 | |
| OE8JPQ-2 | 2026-09-01 23:56:57 | 46.02804 | 13.87774 | 128° | 44km/h | 18097m | 4.1m/s | -55.8°C | 4.5% | 0hPa | 2.6V | 00:00:00 | 00:00:00 | 00:00:00 | |
| DO3MHA-12 | 2026-09-01 23:56:55 | 46.02815 | 13.87757 | 141° | 42km/h | 18086m | 4.8m/s | -56.3°C | 4.8% | 0hPa | 2.6V | 00:00:00 | 01:32:25 | 00:00:00 | |
| OE3JTB-15 | 2026-09-01 23:56:54 | 46.02822 | 13.87749 | 143° | 44km/h | 18081m | 4.5m/s | -56.5°C | 4.8% | 0hPa | 2.6V | 00:00:00 | 00:00:00 | 00:00:00 | |
| DO3MHA-11 | 2026-09-01 23:56:50 | 46.02851 | 13.87713 | 136° | 49km/h | 18062m | 5.3m/s | -56.6°C | 4.9% | 0hPa | 2.6V | 00:00:00 | 01:32:20 | 00:00:00 | |
| OE5DXL-15 | 2026-09-01 23:56:49 | 46.02859 | 13.87702 | 136° | 44km/h | 18056m | 5.9m/s | -56.6°C | 4.9% | 0hPa | 2.6V | 00:00:00 | 00:00:00 | 00:00:00 | |
| DO3MHA-12 | 2026-09-01 23:56:45 | 46.02890 | 13.87646 | 122° | 46km/h | 18035m | 3.9m/s | -56.5°C | 4.9% | 0hPa | 2.6V | 00:00:00 | 01:32:15 | 00:00:00 | |
| 9A1FER-10 | 2026-09-01 23:56:44 | 46.02897 | 13.87630 | 123° | 44km/h | 18031m | 4.5m/s | -56.5°C | 4.9% | 0hPa | 2.6V | 00:00:00 | 01:32:14 | 00:00:00 | |
| SOBLACK | 2026-09-01 23:56:43 | 46.02904 | 13.87615 | 126° | 51km/h | 18026m | 5.7m/s | -56.5°C | 1.7% | 0hPa | 2.6V | 00:00:00 | 00:00:00 | 00:00:00 | |
| 9A1FER-3 | 2026-09-01 23:56:41 | 46.02926 | 13.87571 | 124° | 40km/h | 18012m | 5.6m/s | -56.3°C | 4.9% | 0hPa | 2.6V | 00:00:00 | 01:32:10 | 00:00:00 | |
| DO3MHA-11 | 2026-09-01 23:56:40 | 46.02926 | 13.87571 | 124° | 42km/h | 18012m | 5.6m/s | -56.3°C | 4.9% | 0hPa | 2.6V | 00:00:00 | 01:32:10 | 00:00:00 | |
| OE8JPQ-2 | 2026-09-01 23:56:37 | 46.02943 | 13.87532 | 125° | 40km/h | 17998m | 5.3m/s | -56.2°C | 4.8% | 0hPa | 2.6V | 00:00:00 | 00:00:00 | 00:00:00 | |
| IN3HCDX | 2026-09-01 23:56:36 | 46.02943 | 13.87532 | 126° | 40km/h | 17998m | 5.4m/s | -56.2°C | 1.6% | 0hPa | 2.6V | 00:00:00 | 00:00:00 | 00:00:00 | |
| DO3MHA-12 | 2026-09-01 23:56:35 | 46.02956 | 13.87509 | 130° | 40km/h | 17988m | 3.7m/s | -56.1°C | 4.8% | 0hPa | 2.6V | 00:00:00 | 01:32:05 | 00:00:00 | |
| OE5DRO-10 | 2026-09-01 23:56:31 | 46.02979 | 13.87460 | 122° | 42km/h | 17970m | 5.1m/s | -55.9°C | 4.7% | 0hPa | 2.7V | 00:00:00 | 00:00:00 | 00:00:00 | |
| DO3MHA-11 | 2026-09-01 23:56:30 | 46.02984 | 13.87448 | 123° | 40km/h | 17966m | 4.8m/s | -55.9°C | 4.7% | 0hPa | 2.6V | 00:00:00 | 01:32:00 | 00:00:00 | |
| 9A1FER-10 | 2026-09-01 23:56:29 | 46.02990 | 13.87435 | 122° | 42km/h | 17961m | 4.2m/s | -55.8°C | 4.7% | 0hPa | 2.6V | 00:00:00 | 01:31:59 | 00:00:00 | |
| DO3MHA-12 | 2026-09-01 23:56:25 | 46.03009 | 13.87385 | 122° | 44km/h | 17943m | 5.1m/s | -55.6°C | 4.7% | 0hPa | 2.6V | 00:00:00 | 01:31:55 | 00:00:00 | |
| SOBLACK | 2026-09-01 23:56:22 | 46.03025 | 13.87350 | 124° | 42km/h | 17930m | 5.0m/s | -55.6°C | 1.5% | 0hPa | 2.6V | 00:00:00 | 00:00:00 | 00:00:00 | |
| DO3MHA-11 | 2026-09-01 23:56:20 | 46.03037 | 13.87323 | 124° | 44km/h | 17922m | 4.1m/s | -55.4°C | 4.7% | 0hPa | 2.6V | 00:00:00 | 01:31:50 | 00:00:00 | |
| OE5DXL-15 | 2026-09-01 23:56:19 | 46.03044 | 13.87309 | 126° | 44km/h | 17917m | 5.3m/s | -55.4°C | 4.7% | 0hPa | 2.6V | 00:00:00 | 00:00:00 | 00:00:00 | |
| OE8JPQ-2 | 2026-09-01 23:56:17 | 46.03058 | 13.87282 | 126° | 44km/h | 17909m | 2.9m/s | -55.3°C | 4.7% | 0hPa | 2.6V | 00:00:00 | 01:31:47 | 00:00:00 | |
| IN3HCDX | 2026-09-01 23:56:15 | 46.03064 | 13.87268 | 123° | 47km/h | 17905m | 4.7m/s | -55.3°C | 1.6% | 0hPa | 2.6V | 00:00:00 | 00:00:00 | 00:00:00 | |
| 9A1FER-10 | 2026-09-01 23:56:14 | 46.03075 | 13.87238 | 117° | 44km/h | 17896m | 3.7m/s | -55.3°C | 4.6% | 0hPa | 2.6V | 00:00:00 | 01:31:44 | 00:00:00 | |
| OE5DRO-10 | 2026-09-01 23:56:12 | 46.03085 | 13.87212 | 119° | 44km/h | 17887m | 5.3m/s | -55.2°C | 4.6% | 0hPa | 2.6V | 00:00:00 | 00:00:00 | 00:00:00 | |
| DO3MHA-11 | 2026-09-01 23:56:10 | 46.03094 | 13.87189 | 121° | 47km/h | 17877m | 4.1m/s | -55.2°C | 4.6% | 0hPa | 2.6V | 00:00:00 | 01:31:40 | 08:30:00 | |
| DG1MFX-10 | 2026-09-01 23:56:05 | 46.03115 | 13.87144 | 128° | 42km/h | 17859m | 4.8m/s | 0°C | 0% | 0hPa | 2.7V | 00:00:00 | 00:00:00 | 00:00:00 | |
| DO3MHA-12 | 2026-09-01 23:56:02 | 46.03143 | 13.87084 | 121° | 47km/h | 17840m | 3.2m/s | -55.0°C | 4.4% | 0hPa | 2.7V | 00:00:00 | 01:31:32 | 00:00:00 | |
| DO3MHA-11 | 2026-09-01 23:56:00 | 46.03156 | 13.87054 | 125° | 44km/h | 17830m | 6.0m/s | -54.9°C | 4.4% | 0hPa | 2.7V | 00:00:00 | 01:31:30 | 00:00:00 | |
| 9A1FER-10 | 2026-09-01 23:55:59 | 46.03163 | 13.87041 | 129° | 44km/h | 17825m | 5.0m/s | -54.9°C | 4.4% | 0hPa | 2.7V | 00:00:00 | 01:31:29 | 00:00:00 | |
| IV3AMH | 2026-09-01 23:55:58 | 46.03163 | 13.87041 | 129° | 42km/h | 17825m | 5.1m/s | -54.9°C | 1.5% | 0hPa | 2.7V | 00:00:00 | 00:00:00 | 00:00:00 | |
| OE8JPQ-2 | 2026-09-01 23:55:57 | 46.03175 | 13.87018 | 128° | 44km/h | 17815m | 5.7m/s | -54.8°C | 4.4% | 0hPa | 2.7V | 00:00:00 | 00:00:00 | 00:00:00 | |
| 9A1FER-3 | 2026-09-01 23:55:55 | 46.03188 | 13.86991 | 119° | 44km/h | 17806m | 3.8m/s | -54.7°C | 4.3% | 0hPa | 2.6V | 00:00:00 | 01:31:25 | 00:00:00 | |
| IN3HCDX | 2026-09-01 23:55:54 | 46.03188 | 13.86991 | 120° | 46km/h | 17806m | 3.9m/s | -54.8°C | 1.5% | 0hPa | 2.6V | 00:00:00 | 00:00:00 | 00:00:00 | |
| OE5DRO-10 | 2026-09-01 23:55:53 | 46.03198 | 13.86962 | 116° | 46km/h | 17795m | 6.4m/s | -54.7°C | 4.2% | 0hPa | 2.6V | 00:00:00 | 00:00:00 | 00:00:00 | |
| DO3MHA-11 | 2026-09-01 23:55:50 | 46.03210 | 13.86917 | 109° | 44km/h | 17781m | 5.2m/s | -54.9°C | 4.3% | 0hPa | 2.6V | 00:00:00 | 01:31:20 | 00:00:00 | |
| OE5DXL-15 | 2026-09-01 23:55:49 | 46.03214 | 13.86901 | 108° | 47km/h | 17775m | 6.3m/s | -55.0°C | 4.3% | 0hPa | 2.6V | 00:00:00 | 00:00:00 | 00:00:00 | |
| 9A1FER-10 | 2026-09-01 23:55:44 | 46.03231 | 13.86823 | 106° | 47km/h | 17749m | 4.3m/s | -55.1°C | 4.3% | 0hPa | 2.6V | 00:00:00 | 01:31:14 | 00:00:00 | |
| DO3MHA-12 | 2026-09-01 23:55:42 | 46.03235 | 13.86794 | 100° | 46km/h | 17739m | 4.7m/s | -55.3°C | 4.4% | 0hPa | 2.7V | 00:00:00 | 01:31:12 | 00:00:00 | |
| 9A1FER-3 | 2026-09-01 23:55:40 | 46.03239 | 13.86763 | 103° | 47km/h | 17731m | 4.8m/s | -55.6°C | 4.5% | 0hPa | 2.7V | 00:00:00 | 01:31:10 | 00:00:00 | |
| IN3HCDX1 | 2026-09-01 23:55:38 | 46.03242 | 13.86747 | 105° | 46km/h | 17727m | 4.1m/s | -55.8°C | 1.5% | 0hPa | 2.7V | 00:00:00 | 00:00:00 | 00:00:00 | |
| OE8JPQ-2 | 2026-09-01 23:55:37 | 46.03247 | 13.86713 | 101° | 51km/h | 17717m | 5.1m/s | -55.9°C | 4.7% | 0hPa | 2.7V | 00:00:00 | 00:00:00 | 00:00:00 | |
| OE5DRO-10 | 2026-09-01 23:55:34 | 46.03253 | 13.86660 | 100° | 51km/h | 17705m | 4.8m/s | -55.9°C | 4.7% | 0hPa | 2.7V | 00:00:00 | 00:00:00 | 00:00:00 | |
| DO3MHA-11 | 2026-09-01 23:55:30 | 46.03259 | 13.86589 | 93° | 51km/h | 17687m | 4.4m/s | -56.0°C | 4.7% | 0hPa | 2.6V | 00:00:00 | 01:31:00 | 00:00:00 | |
| OE3JTB-15 | 2026-09-01 23:55:27 | 46.03259 | 13.86537 | 91° | 51km/h | 17673m | 3.8m/s | -55.9°C | 4.7% | 0hPa | 2.6V | 00:00:00 | 00:00:00 | 00:00:00 | |
| 9A1FER-3 | 2026-09-01 23:55:25 | 46.03260 | 13.86502 | 93° | 51km/h | 17664m | 5.3m/s | -55.9°C | 4.7% | 0hPa | 2.6V | 00:00:00 | 01:30:55 | 00:00:00 | |
| IV3AMH | 2026-09-01 23:55:21 | 46.03263 | 13.86444 | 99° | 53km/h | 17650m | 5.7m/s | -56.0°C | 1.6% | 0hPa | 2.6V | 00:00:00 | 00:00:00 | 00:00:00 | |
| DO3MHA-11 | 2026-09-01 23:55:20 | 46.03267 | 13.86406 | 99° | 51km/h | 17640m | 4.6m/s | -56.0°C | 4.7% | 0hPa | 2.6V | 00:00:00 | 01:30:50 | 00:00:00 | |
| OE5DXL-15 | 2026-09-01 23:55:19 | 46.03269 | 13.86387 | 96° | 49km/h | 17635m | 5.3m/s | -55.9°C | 4.7% | 0hPa | 2.6V | 00:00:00 | 00:00:00 | 00:00:00 | |
| OE8JPQ-2 | 2026-09-01 23:55:17 | 46.03270 | 13.86349 | 93° | 49km/h | 17626m | 4.7m/s | -55.9°C | 4.7% | 0hPa | 2.6V | 00:00:00 | 01:30:47 | 00:00:00 | |
| OE5DRO-10 | 2026-09-01 23:55:15 | 46.03271 | 13.86313 | 89° | 49km/h | 17616m | 4.5m/s | -55.9°C | 4.7% | 0hPa | 2.6V | 00:00:00 | 00:00:00 | 00:00:00 | |
| 9A1FER-10 | 2026-09-01 23:55:14 | 46.03270 | 13.86295 | 87° | 47km/h | 17612m | 3.8m/s | -55.9°C | 4.8% | 0hPa | 2.6V | 00:00:00 | 01:30:44 | 00:00:00 | |
| IN3HCDX | 2026-09-01 23:55:13 | 46.03270 | 13.86295 | 87° | 47km/h | 17612m | 3.9m/s | -56.0°C | 1.6% | 0hPa | 2.6V | 00:00:00 | 00:00:00 | 00:00:00 | |
| 9A1FER-3 | 2026-09-01 23:55:10 | 46.03265 | 13.86224 | 87° | 49km/h | 17593m | 5.3m/s | -55.9°C | 4.8% | 0hPa | 2.6V | 00:00:00 | 01:30:40 | 08:30:00 | |
| DO3MHA-12 | 2026-09-01 23:55:02 | 46.03268 | 13.86090 | 89° | 51km/h | 17557m | 3.2m/s | -55.7°C | 4.7% | 0hPa | 2.6V | 00:00:00 | 01:30:32 | 00:00:00 | |
| DO3MHA-11 | 2026-09-01 23:55:00 | 46.03266 | 13.86054 | 82° | 53km/h | 17548m | 4.5m/s | -55.6°C | 4.6% | 0hPa | 2.6V | 00:00:00 | 01:30:30 | 00:00:00 | |
| 9A1FER-10 | 2026-09-01 23:54:59 | 46.03264 | 13.86035 | 81° | 53km/h | 17544m | 4.0m/s | -55.6°C | 4.7% | 0hPa | 2.6V | 00:00:00 | 01:30:29 | 08:30:00 | |
| OE3JTB-15 | 2026-09-01 23:54:58 | 46.03262 | 13.86016 | 82° | 58km/h | 17539m | 5.1m/s | -55.6°C | 4.7% | 0hPa | 2.6V | 00:00:00 | 01:30:28 | 00:00:00 | |
| OE8JPQ-2 | 2026-09-01 23:54:57 | 46.03260 | 13.85997 | 84° | 55km/h | 17535m | 4.1m/s | -55.6°C | 4.6% | 0hPa | 2.6V | 00:00:00 | 00:00:00 | 08:30:00 | |
| OE5DRO-10 | 2026-09-01 23:54:56 | 46.03258 | 13.85978 | 86° | 55km/h | 17530m | 3.8m/s | -55.6°C | 4.6% | 0hPa | 2.6V | 00:00:00 | 00:00:00 | 00:00:00 | |
| 9A1FER-3 | 2026-09-01 23:54:55 | 46.03258 | 13.85958 | 88° | 55km/h | 17526m | 5.1m/s | -55.6°C | 4.6% | 0hPa | 2.6V | 00:00:00 | 01:30:25 | 00:00:00 | |
| DO3MHA-12 | 2026-09-01 23:54:52 | 46.03258 | 13.85900 | 94° | 55km/h | 17511m | 5.7m/s | -55.6°C | 4.5% | 0hPa | 2.6V | 00:00:00 | 01:30:22 | 08:30:00 | |
| DO3MHA-11 | 2026-09-01 23:54:50 | 46.03260 | 13.85866 | 97° | 57km/h | 17502m | 4.1m/s | -55.6°C | 4.5% | 0hPa | 2.7V | 00:00:00 | 01:30:20 | 00:00:00 | |
| OE5DXL-15 | 2026-09-01 23:54:49 | 46.03261 | 13.85848 | 97° | 58km/h | 17497m | 5.2m/s | -55.6°C | 4.5% | 0hPa | 2.7V | 00:00:00 | 00:00:00 | 00:00:00 | |
| 9A1FER-10 | 2026-09-01 23:54:44 | 46.03264 | 13.85748 | 92° | 60km/h | 17474m | 5.0m/s | -55.8°C | 4.6% | 0hPa | 2.6V | 00:00:00 | 01:30:14 | 00:00:00 | |
| IV3AMH | 2026-09-01 23:54:43 | 46.03264 | 13.85748 | 93° | 62km/h | 17474m | 5.1m/s | -55.8°C | 1.6% | 0hPa | 2.6V | 00:00:00 | 00:00:00 | 00:00:00 | |
| DO3MHA-12 | 2026-09-01 23:54:42 | 46.03266 | 13.85702 | 95° | 60km/h | 17464m | 4.2m/s | -55.8°C | 4.6% | 0hPa | 2.6V | 00:00:00 | 01:30:12 | 00:00:00 | |
| DO3MHA-11 | 2026-09-01 23:54:40 | 46.03268 | 13.85656 | 95° | 58km/h | 17455m | 5.3m/s | -55.9°C | 4.7% | 0hPa | 2.6V | 00:00:00 | 01:30:10 | 08:30:00 | |
| OE8JPQ-2 | 2026-09-01 23:54:37 | 46.03271 | 13.85594 | 95° | 58km/h | 17440m | 5.2m/s | -56.1°C | 4.8% | 0hPa | 2.6V | 00:00:00 | 00:00:00 | 00:00:00 | |
| SOBLACK | 2026-09-01 23:54:35 | 46.03273 | 13.85573 | 95° | 57km/h | 17436m | 4.0m/s | -56.2°C | 1.7% | 0hPa | 2.6V | 00:00:00 | 00:00:00 | 00:00:00 | |
| DO3MHA-12 | 2026-09-01 23:54:32 | 46.03272 | 13.85488 | 87° | 60km/h | 17417m | 4.5m/s | -56.2°C | 4.9% | 0hPa | 2.6V | 00:00:00 | 01:30:02 | 00:00:00 | |
| DO3MHA-11 | 2026-09-01 23:54:30 | 46.03271 | 13.85442 | 90° | 60km/h | 17407m | 3.8m/s | -56.2°C | 4.9% | 0hPa | 2.6V | 00:00:00 | 01:30:00 | 00:00:00 | |
| 9A1FER-10 | 2026-09-01 23:54:29 | 46.03271 | 13.85418 | 89° | 57km/h | 17403m | 4.3m/s | -56.2°C | 4.8% | 0hPa | 2.6V | 00:00:00 | 01:29:59 | 00:00:00 | |
| OE3JTB-15 | 2026-09-01 23:54:28 | 46.03270 | 13.85395 | 87° | 55km/h | 17399m | 5.2m/s | -56.1°C | 4.8% | 0hPa | 2.6V | 00:00:00 | 00:00:00 | 00:00:00 | |
| 9A1FER-3 | 2026-09-01 23:54:25 | 46.03268 | 13.85328 | 89° | 53km/h | 17385m | 5.0m/s | -56.0°C | 4.8% | 0hPa | 2.6V | 00:00:00 | 01:29:55 | 00:00:00 | |
| DO3MHA-12 | 2026-09-01 23:54:21 | 46.03265 | 13.85246 | 84° | 53km/h | 17365m | 4.7m/s | -55.8°C | 4.7% | 0hPa | 2.7V | 00:00:00 | 01:29:51 | 00:00:00 | |
| DO3MHA-11 | 2026-09-01 23:54:20 | 46.03263 | 13.85226 | 83° | 51km/h | 17360m | 5.0m/s | -55.8°C | 4.7% | 0hPa | 2.7V | 00:00:00 | 01:29:50 | 00:00:00 | |
| OE5DXL-15 | 2026-09-01 23:54:19 | 46.03261 | 13.85206 | 83° | 51km/h | 17355m | 5.3m/s | -55.7°C | 4.7% | 0hPa | 2.7V | 00:00:00 | 00:00:00 | 00:00:00 | |
| OE5DRO-10 | 2026-09-01 23:54:18 | 46.03259 | 13.85187 | 82° | 51km/h | 17350m | 4.8m/s | -55.7°C | 4.7% | 0hPa | 2.7V | 00:00:00 | 00:00:00 | 00:00:00 | |
| OE8JPQ-2 | 2026-09-01 23:54:17 | 46.03257 | 13.85168 | 80° | 51km/h | 17344m | 5.8m/s | -55.6°C | 4.6% | 0hPa | 2.7V | 00:00:00 | 01:29:47 | 00:00:00 | |
| 9A1FER-10 | 2026-09-01 23:54:14 | 46.03251 | 13.85113 | 85° | 51km/h | 17330m | 5.5m/s | -55.5°C | 4.6% | 0hPa | 2.7V | 00:00:00 | 01:29:44 | 00:00:00 | |
| SOBLACK | 2026-09-01 23:54:12 | 46.03250 | 13.85095 | 90° | 49km/h | 17325m | 3.9m/s | -55.6°C | 1.7% | 0hPa | 2.7V | 00:00:00 | 00:00:00 | 00:00:00 | |
| DO3MHA-12 | 2026-09-01 23:54:11 | 46.03250 | 13.85059 | 88° | 51km/h | 17317m | 5.3m/s | -55.6°C | 4.6% | 0hPa | 2.7V | 00:00:00 | 01:29:41 | 00:00:00 | |
| DO3MHA-11 | 2026-09-01 23:54:10 | 46.03249 | 13.85041 | 85° | 53km/h | 17311m | 4.8m/s | -55.6°C | 4.6% | 0hPa | 2.7V | 00:00:00 | 01:29:40 | 00:00:00 | |
| IV3AMH | 2026-09-01 23:54:05 | 46.03244 | 13.84969 | 86° | 51km/h | 17293m | 3.9m/s | -55.7°C | 1.7% | 0hPa | 2.7V | 00:00:00 | 00:00:00 | 00:00:00 | |
| DO3MHA-12 | 2026-09-01 23:54:01 | 46.03234 | 13.84871 | 83° | 53km/h | 17270m | 5.2m/s | -55.7°C | 4.6% | 0hPa | 2.7V | 00:00:00 | 01:29:31 | 00:00:00 | |
| DO3MHA-11 | 2026-09-01 23:54:00 | 46.03232 | 13.84852 | 85° | 51km/h | 17265m | 3.9m/s | -55.7°C | 4.7% | 0hPa | 2.7V | 00:00:00 | 01:29:30 | 00:00:00 | |
| OE3JTB-15 | 2026-09-01 23:53:59 | 46.03231 | 13.84833 | 86° | 46km/h | 17261m | 4.4m/s | -55.7°C | 4.7% | 0hPa | 2.7V | 00:00:00 | 00:00:00 | 00:00:00 | |
| OE8JPQ-2 | 2026-09-01 23:53:57 | 46.03229 | 13.84797 | 87° | 47km/h | 17253m | 3.7m/s | -55.7°C | 4.6% | 0hPa | 2.7V | 00:00:00 | 00:00:00 | 00:00:00 | |
| IN3HCDX1 | 2026-09-01 23:53:56 | 46.03229 | 13.84797 | 87° | 51km/h | 17253m | 3.8m/s | -55.8°C | 1.6% | 0hPa | 2.7V | 00:00:00 | 00:00:00 | 00:00:00 | |
| 9A1FER-3 | 2026-09-01 23:53:55 | 46.03228 | 13.84759 | 88° | 49km/h | 17243m | 4.2m/s | -55.7°C | 4.6% | 0hPa | 2.7V | 00:00:00 | 01:29:25 | 00:00:00 | |
| IN3HCDX | 2026-09-01 23:53:51 | 46.03224 | 13.84701 | 80° | 51km/h | 17229m | 4.8m/s | -55.8°C | 1.6% | 0hPa | 2.7V | 00:00:00 | 00:00:00 | 00:00:00 | |
| DO3MHA-11 | 2026-09-01 23:53:50 | 46.03219 | 13.84666 | 79° | 47km/h | 17220m | 5.1m/s | -55.7°C | 4.6% | 0hPa | 2.7V | 00:00:00 | 01:29:20 | 00:00:00 | |
| OE5DXL-15 | 2026-09-01 23:53:49 | 46.03217 | 13.84648 | 81° | 42km/h | 17215m | 4.8m/s | -55.8°C | 4.6% | 0hPa | 2.7V | 00:00:00 | 00:00:00 | 00:00:00 | |
| 9A1FER-10 | 2026-09-01 23:53:44 | 46.03210 | 13.84565 | 88° | 40km/h | 17192m | 5.6m/s | -55.9°C | 4.7% | 0hPa | 2.7V | 00:00:00 | 01:29:14 | 00:00:00 | |
| DO3MHA-12 | 2026-09-01 23:53:41 | 46.03208 | 13.84513 | 86° | 40km/h | 17178m | 5.5m/s | -56.0°C | 4.7% | 0hPa | 2.7V | 00:00:00 | 01:29:11 | 00:00:00 | |
| 9A1FER-3 | 2026-09-01 23:53:40 | 46.03208 | 13.84497 | 85° | 40km/h | 17172m | 4.7m/s | -56.1°C | 4.8% | 0hPa | 2.7V | 00:00:00 | 01:29:10 | 00:00:00 | |
| OE8JPQ-2 | 2026-09-01 23:53:37 | 46.03204 | 13.84451 | 84° | 40km/h | 17158m | 4.4m/s | -56.2°C | 4.9% | 0hPa | 2.7V | 00:00:00 | 00:00:00 | 00:00:00 | |
| IN3HCDX1 | 2026-09-01 23:53:36 | 46.03204 | 13.84451 | 85° | 38km/h | 17158m | 4.5m/s | -56.3°C | 1.7% | 0hPa | 2.7V | 00:00:00 | 00:00:00 | 00:00:00 | |
| DO3MHA-12 | 2026-09-01 23:53:31 | 46.03203 | 13.84372 | 91° | 44km/h | 17130m | 4.8m/s | -56.3°C | 4.9% | 0hPa | 2.7V | 00:00:00 | 01:29:01 | 00:00:00 | |
| IN3HCDX | 2026-09-01 23:53:30 | 46.03202 | 13.84358 | 88° | 38km/h | 17125m | 4.2m/s | -56.3°C | 1.7% | 0hPa | 2.7V | 00:00:00 | 00:00:00 | 00:00:00 | |
| 9A1FER-10 | 2026-09-01 23:53:29 | 46.03202 | 13.84343 | 86° | 40km/h | 17121m | 4.5m/s | -56.2°C | 4.8% | 0hPa | 2.7V | 00:00:00 | 01:28:59 | 00:00:00 | |
| IV3AMH | 2026-09-01 23:53:28 | 46.03202 | 13.84343 | 87° | 42km/h | 17121m | 4.6m/s | -56.3°C | 1.8% | 0hPa | 2.6V | 00:00:00 | 00:00:00 | 00:00:00 | |
| 9A1FER-3 | 2026-09-01 23:53:25 | 46.03194 | 13.84277 | 75° | 38km/h | 17102m | 4.5m/s | -56.2°C | 4.7% | 0hPa | 2.6V | 00:00:00 | 01:28:55 | 00:00:00 | |
| DO3MHA-12 | 2026-09-01 23:53:21 | 46.03186 | 13.84216 | 88° | 37km/h | 17084m | 4.2m/s | -56.1°C | 4.7% | 0hPa | 2.6V | 00:00:00 | 01:28:51 | 08:30:00 | |
| DO3MHA-11 | 2026-09-01 23:53:20 | 46.03185 | 13.84203 | 91° | 37km/h | 17079m | 5.3m/s | -56.1°C | 4.7% | 0hPa | 2.7V | 00:00:00 | 01:28:50 | 00:00:00 | |
| OE5DXL-15 | 2026-09-01 23:53:19 | 46.03186 | 13.84190 | 93° | 42km/h | 17075m | 4.1m/s | -56.1°C | 4.7% | 0hPa | 2.7V | 00:00:00 | 01:28:49 | 08:30:00 | |
| OE8JPQ-2 | 2026-09-01 23:53:17 | 46.03187 | 13.84167 | 95° | 42km/h | 17066m | 5.3m/s | -56.1°C | 4.7% | 0hPa | 2.6V | 00:00:00 | 01:28:47 | 00:00:00 | |
| IN3HCDX1 | 2026-09-01 23:53:16 | 46.03187 | 13.84167 | 95° | 35km/h | 17066m | 5.4m/s | -56.2°C | 1.7% | 0hPa | 2.6V | 00:00:00 | 00:00:00 | 00:00:00 | |
| 9A1FER-10 | 2026-09-01 23:53:14 | 46.03187 | 13.84126 | 85° | 42km/h | 17052m | 5.0m/s | -56.3°C | 4.7% | 0hPa | 2.6V | 00:00:00 | 01:28:44 | 00:00:00 | |
| DO3MHA-12 | 2026-09-01 23:53:11 | 46.03182 | 13.84083 | 80° | 42km/h | 17038m | 5.2m/s | -56.6°C | 4.8% | 0hPa | 2.6V | 00:00:00 | 01:28:41 | 00:00:00 | |
| 9A1FER-3 | 2026-09-01 23:53:10 | 46.03180 | 13.84068 | 80° | 44km/h | 17034m | 4.3m/s | -56.8°C | 4.9% | 0hPa | 2.6V | 00:00:00 | 01:28:40 | 00:00:00 | |
| IN3HCDX | 2026-09-01 23:53:07 | 46.03176 | 13.84038 | 79° | 40km/h | 17025m | 4.8m/s | -57.2°C | 1.8% | 0hPa | 2.6V | 00:00:00 | 00:00:00 | 00:00:00 | |
| OE5DRO-10 | 2026-09-01 23:53:02 | 46.03174 | 13.83949 | 92° | 47km/h | 16998m | 5.2m/s | -57.1°C | 5.2% | 0hPa | 2.6V | 00:00:00 | 00:00:00 | 00:00:00 | |
| DO3MHA-12 | 2026-09-01 23:53:01 | 46.03174 | 13.83933 | 88° | 46km/h | 16994m | 4.2m/s | -57.1°C | 5.2% | 0hPa | 2.6V | 00:00:00 | 01:28:31 | 00:00:00 | |
| DO3MHA-11 | 2026-09-01 23:53:00 | 46.03174 | 13.83917 | 86° | 46km/h | 16990m | 3.6m/s | -57.1°C | 5.2% | 0hPa | 2.6V | 00:00:00 | 01:28:30 | 00:00:00 | |
| 9A1FER-10 | 2026-09-01 23:52:59 | 46.03173 | 13.83900 | 86° | 49km/h | 16985m | 4.9m/s | -57.1°C | 5.2% | 0hPa | 2.6V | 00:00:00 | 01:28:29 | 00:00:00 | |
| OE8JPQ-2 | 2026-09-01 23:52:57 | 46.03171 | 13.83867 | 88° | 49km/h | 16976m | 4.3m/s | -57.0°C | 5.1% | 0hPa | 2.6V | 00:00:00 | 00:00:00 | 00:00:00 | |
| 9A1FER-3 | 2026-09-01 23:52:55 | 46.03169 | 13.83835 | 83° | 49km/h | 16966m | 5.0m/s | -57.0°C | 5.1% | 0hPa | 2.7V | 00:00:00 | 01:28:25 | 08:30:00 | |
| DO3MHA-12 | 2026-09-01 23:52:51 | 46.03165 | 13.83769 | 89° | 51km/h | 16948m | 3.8m/s | -57.0°C | 5.1% | 0hPa | 2.7V | 00:00:00 | 01:28:21 | 00:00:00 | |
| DO3MHA-11 | 2026-09-01 23:52:50 | 46.03165 | 13.83751 | 89° | 51km/h | 16944m | 4.4m/s | -57.0°C | 5.1% | 0hPa | 2.7V | 00:00:00 | 01:28:20 | 00:00:00 | |
| OE5DXL-15 | 2026-09-01 23:52:49 | 46.03164 | 13.83732 | 87° | 57km/h | 16939m | 4.7m/s | -57.0°C | 5.1% | 0hPa | 2.7V | 00:00:00 | 00:00:00 | 00:00:00 | |
| IN3HCDX | 2026-09-01 23:52:46 | 46.03162 | 13.83694 | 86° | 53km/h | 16930m | 4.8m/s | -57.1°C | 1.9% | 0hPa | 2.7V | 00:00:00 | 00:00:00 | 00:00:00 | |
| 9A1FER-10 | 2026-09-01 23:52:44 | 46.03158 | 13.83636 | 82° | 53km/h | 16917m | 4.9m/s | -57.1°C | 5.0% | 0hPa | 2.7V | 00:00:00 | 01:28:14 | 08:30:00 | |
| OE5DRO-10 | 2026-09-01 23:52:43 | 46.03156 | 13.83618 | 79° | 57km/h | 16912m | 4.4m/s | -57.1°C | 5.0% | 0hPa | 2.6V | 00:00:00 | 00:00:00 | 00:00:00 | |
| DO3MHA-12 | 2026-09-01 23:52:41 | 46.03151 | 13.83582 | 80° | 53km/h | 16903m | 5.5m/s | -57.1°C | 5.0% | 0hPa | 2.7V | 00:00:00 | 01:28:11 | 00:00:00 | |
| DO3MHA-11 | 2026-09-01 23:52:40 | 46.03149 | 13.83564 | 83° | 55km/h | 16898m | 4.6m/s | -57.1°C | 5.1% | 0hPa | 2.7V | 00:00:00 | 01:28:10 | 00:00:00 | |
| OE8JPQ-2 | 2026-09-01 23:52:37 | 46.03145 | 13.83509 | 83° | 60km/h | 16886m | 4.6m/s | -57.0°C | 5.2% | 0hPa | 2.6V | 00:00:00 | 00:00:00 | 00:00:00 | |
| IN3HCDX1 | 2026-09-01 23:52:34 | 46.03142 | 13.83471 | 85° | 53km/h | 16877m | 5.3m/s | -57.0°C | 1.9% | 0hPa | 2.6V | 00:00:00 | 00:00:00 | 00:00:00 | |
| DO3MHA-12 | 2026-09-01 23:52:31 | 46.03134 | 13.83389 | 79° | 62km/h | 16859m | 3.9m/s | -56.9°C | 5.1% | 0hPa | 2.6V | 00:00:00 | 01:28:01 | 00:00:00 | |
| DO3MHA-11 | 2026-09-01 23:52:30 | 46.03130 | 13.83368 | 80° | 62km/h | 16855m | 4.9m/s | -56.9°C | 5.1% | 0hPa | 2.6V | 00:00:00 | 01:28:00 | 00:00:00 | |
| 9A1FER-10 | 2026-09-01 23:52:29 | 46.03128 | 13.83346 | 82° | 60km/h | 16850m | 5.1m/s | -57.0°C | 5.1% | 0hPa | 2.6V | 00:00:00 | 01:27:59 | 00:00:00 | |
| SOBLACK | 2026-09-01 23:52:28 | 46.03128 | 13.83346 | 83° | 60km/h | 16850m | 5.1m/s | -57.0°C | 1.9% | 0hPa | 2.6V | 00:00:00 | 00:00:00 | 00:00:00 | |
| IN3HCDX | 2026-09-01 23:52:26 | 46.03125 | 13.83303 | 86° | 60km/h | 16841m | 4.2m/s | -57.0°C | 1.9% | 0hPa | 2.6V | 00:00:00 | 00:00:00 | 00:00:00 | |
| 9A1FER-3 | 2026-09-01 23:52:25 | 46.03121 | 13.83258 | 83° | 58km/h | 16831m | 4.4m/s | -57.0°C | 5.1% | 0hPa | 2.6V | 00:00:00 | 01:27:55 | 00:00:00 | |
| OE5DRO-10 | 2026-09-01 23:52:24 | 46.03119 | 13.83234 | 82° | 57km/h | 16827m | 3.7m/s | -57.1°C | 5.1% | 0hPa | 2.6V | 00:00:00 | 00:00:00 | 00:00:00 | |
| DO3MHA-12 | 2026-09-01 23:52:20 | 46.03109 | 13.83145 | 80° | 57km/h | 16809m | 5.3m/s | -57.2°C | 5.2% | 0hPa | 2.6V | 00:00:00 | 01:27:50 | 00:00:00 | |
| OE5DXL-15 | 2026-09-01 23:52:19 | 46.03106 | 13.83123 | 79° | 49km/h | 16804m | 4.3m/s | -57.2°C | 5.2% | 0hPa | 2.6V | 00:00:00 | 00:00:00 | 00:00:00 | |
| OE8JPQ-2 | 2026-09-01 23:52:17 | 46.03101 | 13.83082 | 81° | 51km/h | 16795m | 5.7m/s | -57.2°C | 5.2% | 0hPa | 2.6V | 00:00:00 | 01:27:47 | 00:00:00 | |
| 9A1FER-10 | 2026-09-01 23:52:14 | 46.03093 | 13.83023 | 77° | 49km/h | 16781m | 5.1m/s | -57.1°C | 5.1% | 0hPa | 2.6V | 00:00:00 | 01:27:44 | 00:00:00 | |
| IV3AMH | 2026-09-01 23:52:13 | 46.03094 | 13.83023 | 78° | 55km/h | 16781m | 5.1m/s | -57.1°C | 2.0% | 0hPa | 2.6V | 00:00:00 | 00:00:00 | 00:00:00 | |
| DO3MHA-12 | 2026-09-01 23:52:10 | 46.03079 | 13.82948 | 76° | 49km/h | 16762m | 4.5m/s | -57.0°C | 5.1% | 0hPa | 2.6V | 00:00:00 | 01:27:40 | 00:00:00 | |
| SOBLACK | 2026-09-01 23:52:08 | 46.03076 | 13.82930 | 77° | 51km/h | 16757m | 4.3m/s | -57.1°C | 1.9% | 0hPa | 2.6V | 00:00:00 | 00:00:00 | 00:00:00 | |
| IN3HCDX | 2026-09-01 23:52:06 | 46.03069 | 13.82893 | 78° | 53km/h | 16748m | 4.2m/s | -57.1°C | 1.9% | 0hPa | 2.6V | 00:00:00 | 00:00:00 | 00:00:00 | |
| OE5DRO-10 | 2026-09-01 23:52:05 | 46.03064 | 13.82858 | 80° | 44km/h | 16738m | 4.6m/s | -57.0°C | 5.1% | 0hPa | 2.6V | 00:00:00 | 00:00:00 | 00:00:00 | |
| DO3MHA-11 | 2026-09-01 23:52:00 | 46.03053 | 13.82775 | 79° | 44km/h | 16714m | 4.5m/s | -57.2°C | 5.1% | 0hPa | 2.6V | 00:00:00 | 01:27:30 | 00:00:00 | |
| 9A1FER-10 | 2026-09-01 23:51:59 | 46.03051 | 13.82760 | 77° | 44km/h | 16709m | 4.8m/s | -57.3°C | 5.1% | 0hPa | 2.6V | 00:00:00 | 01:27:29 | 00:00:00 | |
| OE8JPQ-2 | 2026-09-01 23:51:57 | 46.03045 | 13.82728 | 73° | 46km/h | 16701m | 3.3m/s | -57.4°C | 5.2% | 0hPa | 2.6V | 00:00:00 | 00:00:00 | 08:30:00 | |
| 9A1FER-3 | 2026-09-01 23:51:55 | 46.03038 | 13.82696 | 73° | 44km/h | 16693m | 4.9m/s | -57.4°C | 5.2% | 0hPa | 2.7V | 00:00:00 | 01:27:25 | 00:00:00 | |
| IN3HCDX1 | 2026-09-01 23:51:53 | 46.03035 | 13.82681 | 77° | 42km/h | 16688m | 4.7m/s | -57.5°C | 2.0% | 0hPa | 2.7V | 00:00:00 | 00:00:00 | 00:00:00 | |
| OE5DXL-15 | 2026-09-01 23:51:49 | 46.03029 | 13.82606 | 90° | 51km/h | 16667m | 4.3m/s | -57.4°C | 5.3% | 0hPa | 2.7V | 00:00:00 | 00:00:00 | 00:00:00 | |
| OE3JTB-15 | 2026-09-01 23:51:46 | 46.03029 | 13.82559 | 88° | 53km/h | 16655m | 4.0m/s | 0°C | 0% | 0hPa | 2.6V | 00:00:00 | 00:00:00 | 00:00:00 | |
| IN3HCDX | 2026-09-01 23:51:45 | 46.03029 | 13.82559 | 88° | 44km/h | 16655m | 4.0m/s | -57.5°C | 2.0% | 0hPa | 2.6V | 00:00:00 | 00:00:00 | 00:00:00 | |
| 9A1FER-10 | 2026-09-01 23:51:44 | 46.03027 | 13.82525 | 83° | 51km/h | 16645m | 4.2m/s | -57.5°C | 5.4% | 0hPa | 2.6V | 00:00:00 | 01:27:14 | 00:00:00 | |
| OE8JPQ-2 | 2026-09-01 23:51:37 | 46.03019 | 13.82399 | 92° | 53km/h | 16613m | 4.4m/s | -57.4°C | 5.2% | 0hPa | 2.6V | 00:00:00 | 00:00:00 | 00:00:00 | |
| IV3AMH | 2026-09-01 23:51:36 | 46.03019 | 13.82399 | 93° | 49km/h | 16613m | 4.4m/s | -57.4°C | 2.0% | 0hPa | 2.6V | 00:00:00 | 00:00:00 | 00:00:00 | |
| IN3HCDX1 | 2026-09-01 23:51:32 | 46.03020 | 13.82326 | 87° | 53km/h | 16597m | 4.2m/s | -57.3°C | 2.0% | 0hPa | 2.6V | 00:00:00 | 00:00:00 | 00:00:00 | |
| DO3MHA-12 | 2026-09-01 23:51:30 | 46.03015 | 13.82270 | 81° | 55km/h | 16584m | 3.7m/s | -57.2°C | 5.2% | 0hPa | 2.6V | 00:00:00 | 01:27:00 | 00:00:00 | |
| 9A1FER-10 | 2026-09-01 23:51:29 | 46.03012 | 13.82251 | 80° | 55km/h | 16580m | 4.2m/s | -57.2°C | 5.2% | 0hPa | 2.6V | 00:00:00 | 01:26:59 | 00:00:00 | |
| OE5DRO-10 | 2026-09-01 23:51:27 | 46.03007 | 13.82212 | 80° | 57km/h | 16571m | 4.0m/s | -57.2°C | 5.2% | 0hPa | 2.6V | 00:00:00 | 00:00:00 | 00:00:00 | |
| 9A1FER-3 | 2026-09-01 23:51:25 | 46.03003 | 13.82173 | 82° | 55km/h | 16561m | 4.3m/s | -57.2°C | 5.2% | 0hPa | 2.6V | 00:00:00 | 01:26:55 | 00:00:00 | |
| IN3HCDX | 2026-09-01 23:51:24 | 46.03003 | 13.82173 | 82° | 53km/h | 16561m | 4.3m/s | -57.2°C | 2.0% | 0hPa | 2.6V | 00:00:00 | 00:00:00 | 00:00:00 | |
| DO3MHA-12 | 2026-09-01 23:51:20 | 46.02990 | 13.82075 | 77° | 57km/h | 16539m | 5.3m/s | -57.4°C | 5.4% | 0hPa | 2.6V | 00:00:00 | 01:26:50 | 00:00:00 | |
| OE5DXL-15 | 2026-09-01 23:51:19 | 46.02986 | 13.82057 | 76° | 58km/h | 16534m | 3.9m/s | -57.5°C | 5.4% | 0hPa | 2.6V | 00:00:00 | 00:00:00 | 00:00:00 | |
| OE8JPQ-2 | 2026-09-01 23:51:17 | 46.02980 | 13.82021 | 76° | 58km/h | 16526m | 4.3m/s | -57.4°C | 5.4% | 0hPa | 2.6V | 00:00:00 | 01:26:47 | 00:00:00 | |
| OE3JTB-15 | 2026-09-01 23:51:16 | 46.02976 | 13.82002 | 78° | 58km/h | 16522m | 3.5m/s | 0°C | 0% | 0hPa | 2.6V | 00:00:00 | 00:00:00 | 00:00:00 | |
| 9A1FER-10 | 2026-09-01 23:51:14 | 46.02971 | 13.81963 | 80° | 58km/h | 16513m | 4.2m/s | -57.4°C | 5.4% | 0hPa | 2.6V | 00:00:00 | 01:26:44 | 00:00:00 | |
| IN3HCDX1 | 2026-09-01 23:51:11 | 46.02964 | 13.81921 | 78° | 62km/h | 16506m | 4.9m/s | -57.4°C | 2.0% | 0hPa | 2.6V | 00:00:00 | 00:00:00 | 00:00:00 | |
| 9A1FER-3 | 2026-09-01 23:51:10 | 46.02956 | 13.81876 | 73° | 58km/h | 16497m | 3.2m/s | -57.3°C | 5.3% | 0hPa | 2.6V | 00:00:00 | 01:26:40 | 00:00:00 | |
| OE5DRO-10 | 2026-09-01 23:51:08 | 46.02946 | 13.81834 | 72° | 58km/h | 16489m | 4.5m/s | -57.3°C | 5.3% | 0hPa | 2.6V | 00:00:00 | 00:00:00 | 00:00:00 | |
| SOBLACK | 2026-09-01 23:51:04 | 46.02935 | 13.81775 | 81° | 55km/h | 16475m | 4.7m/s | -57.3°C | 2.0% | 0hPa | 2.6V | 00:00:00 | 00:00:00 | 00:00:00 | |
| IN3HCDX | 2026-09-01 23:51:03 | 46.02933 | 13.81755 | 82° | 57km/h | 16471m | 3.8m/s | -57.3°C | 2.0% | 0hPa | 2.6V | 00:00:00 | 00:00:00 | 00:00:00 | |
| DO3MHA-12 | 2026-09-01 23:51:00 | 46.02922 | 13.81671 | 80° | 58km/h | 16454m | 4.7m/s | -57.3°C | 5.2% | 0hPa | 2.6V | 00:00:00 | 01:26:30 | 00:00:00 | |
| 9A1FER-10 | 2026-09-01 23:50:59 | 46.02919 | 13.81650 | 80° | 57km/h | 16450m | 4.1m/s | -57.3°C | 5.2% | 0hPa | 2.6V | 00:00:00 | 01:26:29 | 00:00:00 | |
| IV3AMH | 2026-09-01 23:50:58 | 46.02919 | 13.81650 | 81° | 58km/h | 16450m | 4.2m/s | -57.3°C | 2.0% | 0hPa | 2.6V | 00:00:00 | 00:00:00 | 00:00:00 | |
| OE8JPQ-2 | 2026-09-01 23:50:57 | 46.02914 | 13.81609 | 78° | 57km/h | 16441m | 5.3m/s | -57.3°C | 5.3% | 0hPa | 2.6V | 00:00:00 | 00:00:00 | 00:00:00 | |
| 9A1FER-3 | 2026-09-01 23:50:55 | 46.02908 | 13.81567 | 81° | 57km/h | 16432m | 3.9m/s | -57.4°C | 5.4% | 0hPa | 2.6V | 00:00:00 | 01:26:25 | 00:00:00 | |
| IN3HCDX1 | 2026-09-01 23:50:51 | 46.02903 | 13.81503 | 89° | 60km/h | 16420m | 4.4m/s | -57.4°C | 2.1% | 0hPa | 2.6V | 00:00:00 | 00:00:00 | 00:00:00 | |
| DO3MHA-12 | 2026-09-01 23:50:50 | 46.02902 | 13.81459 | 87° | 55km/h | 16411m | 3.5m/s | -57.3°C | 5.5% | 0hPa | 2.6V | 00:00:00 | 01:26:20 | 00:00:00 | |
| OE5DXL-15 | 2026-09-01 23:50:49 | 46.02901 | 13.81438 | 87° | 58km/h | 16407m | 3.7m/s | -57.3°C | 5.4% | 0hPa | 2.6V | 00:00:00 | 00:00:00 | 00:00:00 | |
| OE3JTB-15 | 2026-09-01 23:50:47 | 46.02900 | 13.81400 | 87° | 84km/h | 16398m | 3.8m/s | 0°C | 0% | 0hPa | 2.6V | 00:00:00 | 01:26:17 | 00:00:00 | |
| 9A1FER-10 | 2026-09-01 23:50:45 | 46.02896 | 13.81345 | 83° | 58km/h | 16386m | 4.2m/s | -57.3°C | 5.4% | 0hPa | 2.6V | 00:00:00 | 01:26:14 | 00:00:00 | |
| IN3HCDX | 2026-09-01 23:50:43 | 46.02896 | 13.81345 | 83° | 53km/h | 16386m | 4.3m/s | -57.4°C | 2.0% | 0hPa | 2.6V | 00:00:00 | 00:00:00 | 00:00:00 | |
| DO3MHA-12 | 2026-09-01 23:50:40 | 46.02892 | 13.81264 | 88° | 60km/h | 16368m | 4.2m/s | -57.3°C | 5.4% | 0hPa | 2.6V | 00:00:00 | 01:26:10 | 00:00:00 | |
| OE8JPQ-2 | 2026-09-01 23:50:37 | 46.02889 | 13.81200 | 87° | 62km/h | 16355m | 4.0m/s | -57.2°C | 5.3% | 0hPa | 2.6V | 00:00:00 | 00:00:00 | 00:00:00 | |
| SOBLACK | 2026-09-01 23:50:33 | 46.02886 | 13.81134 | 86° | 62km/h | 16342m | 4.4m/s | -57.1°C | 2.0% | 0hPa | 2.6V | 00:00:00 | 00:00:00 | 00:00:00 | |
| IN3HCDX1 | 2026-09-01 23:50:31 | 46.02883 | 13.81090 | 82° | 60km/h | 16333m | 3.6m/s | -57.1°C | 2.1% | 0hPa | 2.6V | 00:00:00 | 00:00:00 | 00:00:00 | |
| DO3MHA-11 | 2026-09-01 23:50:30 | 46.02878 | 13.81048 | 82° | 62km/h | 16324m | 4.3m/s | -57.0°C | 5.3% | 0hPa | 2.6V | 00:00:00 | 01:26:00 | 00:00:00 | |
| 9A1FER-10 | 2026-09-01 23:50:29 | 46.02876 | 13.81027 | 81° | 64km/h | 16320m | 3.8m/s | -56.9°C | 5.3% | 0hPa | 2.6V | 00:00:00 | 01:25:59 | 08:30:00 | |
| 9A1FER-3 | 2026-09-01 23:50:25 | 46.02864 | 13.80940 | 81° | 64km/h | 16303m | 5.1m/s | -56.8°C | 5.3% | 0hPa | 2.6V | 00:00:00 | 01:25:55 | 00:00:00 | |
| IN3HCDX | 2026-09-01 23:50:22 | 46.02860 | 13.80896 | 85° | 62km/h | 16294m | 3.9m/s | -56.8°C | 2.0% | 0hPa | 2.6V | 00:00:00 | 00:00:00 | 00:00:00 | |
| IV3AMH | 2026-09-01 23:50:21 | 46.02859 | 13.80873 | 84° | 64km/h | 16290m | 4.8m/s | -56.7°C | 2.0% | 0hPa | 2.6V | 00:00:00 | 00:00:00 | 00:00:00 | |
| DO3MHA-12 | 2026-09-01 23:50:20 | 46.02854 | 13.80827 | 83° | 64km/h | 16282m | 3.9m/s | -56.7°C | 5.2% | 0hPa | 2.6V | 00:00:00 | 01:25:50 | 08:30:00 | |
| OE5DXL-15 | 2026-09-01 23:50:19 | 46.02852 | 13.80803 | 84° | 68km/h | 16277m | 4.8m/s | -56.7°C | 5.2% | 0hPa | 2.6V | 00:00:00 | 00:00:00 | 00:00:00 | |
| OE8JPQ-2 | 2026-09-01 23:50:17 | 46.02848 | 13.80756 | 82° | 68km/h | 16268m | 4.4m/s | -56.7°C | 5.2% | 0hPa | 2.6V | 00:00:00 | 01:25:47 | 00:00:00 | |
| 9A1FER-10 | 2026-09-01 23:50:14 | 46.02838 | 13.80687 | 77° | 68km/h | 16256m | 4.2m/s | -56.7°C | 5.2% | 0hPa | 2.6V | 00:00:00 | 01:25:44 | 00:00:00 | |
| SOBLACK | 2026-09-01 23:50:13 | 46.02838 | 13.80687 | 78° | 62km/h | 16256m | 4.3m/s | -56.8°C | 2.0% | 0hPa | 2.6V | 00:00:00 | 00:00:00 | 00:00:00 | |
| OE5DRO-10 | 2026-09-01 23:50:11 | 46.02830 | 13.80622 | 83° | 69km/h | 16242m | 3.2m/s | -56.7°C | 5.2% | 0hPa | 2.6V | 00:00:00 | 00:00:00 | 00:00:00 | |
| DO3MHA-12 | 2026-09-01 23:50:10 | 46.02828 | 13.80601 | 83° | 69km/h | 16238m | 4.3m/s | -56.7°C | 5.2% | 0hPa | 2.6V | 00:00:00 | 01:25:40 | 00:00:00 | |
| IN3HCDX | 2026-09-01 23:50:01 | 46.02805 | 13.80402 | 80° | 73km/h | 16203m | 4.3m/s | -56.6°C | 2.0% | 0hPa | 2.6V | 00:00:00 | 00:00:00 | 00:00:00 | |
| DO3MHA-11 | 2026-09-01 23:50:00 | 46.02798 | 13.80350 | 80° | 71km/h | 16195m | 3.5m/s | -56.6°C | 5.2% | 0hPa | 2.6V | 00:00:00 | 01:25:30 | 00:00:00 | |
| 9A1FER-10 | 2026-09-01 23:49:59 | 46.02795 | 13.80325 | 79° | 69km/h | 16190m | 4.8m/s | -56.6°C | 5.2% | 0hPa | 2.6V | 00:00:00 | 01:25:29 | 00:00:00 | |
| OE8JPQ-2 | 2026-09-01 23:49:57 | 46.02787 | 13.80275 | 78° | 66km/h | 16182m | 3.6m/s | -56.6°C | 5.2% | 0hPa | 2.6V | 00:00:00 | 00:00:00 | 00:00:00 | |
| 9A1FER-3 | 2026-09-01 23:49:55 | 46.02781 | 13.80225 | 82° | 66km/h | 16172m | 4.1m/s | -56.6°C | 5.2% | 0hPa | 2.7V | 00:00:00 | 01:25:25 | 00:00:00 | |
| OE5DRO-10 | 2026-09-01 23:49:52 | 46.02773 | 13.80148 | 82° | 64km/h | 16160m | 3.5m/s | -56.6°C | 5.2% | 0hPa | 2.6V | 00:00:00 | 00:00:00 | 00:00:00 | |
| DO3MHA-11 | 2026-09-01 23:49:50 | 46.02769 | 13.80097 | 85° | 64km/h | 16151m | 4.9m/s | -56.6°C | 5.1% | 0hPa | 2.6V | 00:00:00 | 01:25:20 | 00:00:00 | |
| OE5DXL-15 | 2026-09-01 23:49:49 | 46.02767 | 13.80071 | 84° | 60km/h | 16146m | 3.3m/s | -56.5°C | 5.2% | 0hPa | 2.6V | 00:00:00 | 00:00:00 | 00:00:00 | |
| IV3AMH | 2026-09-01 23:49:44 | 46.02755 | 13.79954 | 82° | 58km/h | 16124m | 4.3m/s | -56.6°C | 2.1% | 0hPa | 2.6V | 00:00:00 | 00:00:00 | 00:00:00 | |
| IN3HCDX | 2026-09-01 23:49:40 | 46.02747 | 13.79892 | 79° | 58km/h | 16111m | 3.3m/s | -56.6°C | 2.0% | 0hPa | 2.6V | 00:00:00 | 00:00:00 | 00:00:00 | |
| OE8JPQ-2 | 2026-09-01 23:49:37 | 46.02736 | 13.79804 | 82° | 58km/h | 16093m | 5.4m/s | -56.7°C | 5.1% | 0hPa | 2.6V | 00:00:00 | 00:00:00 | 00:00:00 | |
| OE5DRO-10 | 2026-09-01 23:49:33 | 46.02726 | 13.79710 | 80° | 57km/h | 16075m | 3.0m/s | -56.6°C | 5.1% | 0hPa | 2.6V | 00:00:00 | 00:00:00 | 00:00:00 | |
| DO3MHA-12 | 2026-09-01 23:49:30 | 46.02715 | 13.79650 | 71° | 55km/h | 16062m | 3.8m/s | -56.7°C | 5.0% | 0hPa | 2.6V | 00:00:00 | 01:25:00 | 00:00:00 | |
| 9A1FER-10 | 2026-09-01 23:49:29 | 46.02711 | 13.79632 | 72° | 53km/h | 16057m | 5.0m/s | -56.7°C | 5.0% | 0hPa | 2.6V | 00:00:00 | 01:24:59 | 00:00:00 | |
| SOBLACK | 2026-09-01 23:49:27 | 46.02707 | 13.79615 | 74° | 49km/h | 16053m | 4.1m/s | -56.7°C | 2.0% | 0hPa | 2.6V | 00:00:00 | 00:00:00 | 00:00:00 | |
| 9A1FER-3 | 2026-09-01 23:49:25 | 46.02696 | 13.79561 | 75° | 58km/h | 16040m | 3.5m/s | -56.8°C | 5.1% | 0hPa | 2.6V | 00:00:00 | 01:24:55 | 00:00:00 | |
| DO3MHA-12 | 2026-09-01 23:49:20 | 46.02678 | 13.79454 | 75° | 57km/h | 16020m | 3.6m/s | -57.3°C | 5.4% | 0hPa | 2.6V | 00:00:00 | 01:24:50 | 00:00:00 | |
| OE5DXL-15 | 2026-09-01 23:49:19 | 46.02674 | 13.79432 | 74° | 55km/h | 16016m | 4.0m/s | -57.3°C | 5.4% | 0hPa | 2.7V | 00:00:00 | 00:00:00 | 00:00:00 | |
| OE8JPQ-2 | 2026-09-01 23:49:17 | 46.02666 | 13.79391 | 74° | 53km/h | 16007m | 3.9m/s | -57.3°C | 5.4% | 0hPa | 2.7V | 00:00:00 | 01:24:47 | 00:00:00 | |
| OE5DRO-10 | 2026-09-01 23:49:14 | 46.02651 | 13.79337 | 66° | 55km/h | 15994m | 3.7m/s | -57.4°C | 5.5% | 0hPa | 2.7V | 00:00:00 | 00:00:00 | 00:00:00 | |
| 9A1FER-3 | 2026-09-01 23:49:10 | 46.02632 | 13.79262 | 74° | 53km/h | 15978m | 3.7m/s | -57.4°C | 5.5% | 0hPa | 2.7V | 00:00:00 | 01:24:40 | 00:00:00 | |
| IN3HCDX1 | 2026-09-01 23:49:08 | 46.02627 | 13.79241 | 73° | 60km/h | 15974m | 4.4m/s | -57.5°C | 2.1% | 0hPa | 2.6V | 00:00:00 | 00:00:00 | 00:00:00 | |
| SOBLACK | 2026-09-01 23:49:06 | 46.02618 | 13.79200 | 73° | 58km/h | 15966m | 3.6m/s | -57.4°C | 2.5% | 0hPa | 2.6V | 00:00:00 | 00:00:00 | 00:00:00 | |
| IV3AMH | 2026-09-01 23:49:05 | 46.02613 | 13.79180 | 75° | 57km/h | 15962m | 4.6m/s | -57.4°C | 2.2% | 0hPa | 2.6V | 00:00:00 | 00:00:00 | 00:00:00 | |
| DO3MHA-12 | 2026-09-01 23:49:00 | 46.02589 | 13.79077 | 69° | 57km/h | 15936m | 4.9m/s | -57.2°C | 5.4% | 0hPa | 2.6V | 00:00:00 | 01:24:30 | 00:00:00 | |
| IN3HCDX | 2026-09-01 23:48:59 | 46.02589 | 13.79077 | 69° | 47km/h | 15936m | 5.0m/s | -57.2°C | 2.1% | 0hPa | 2.6V | 00:00:00 | 00:00:00 | 00:00:00 | |
| OE8JPQ-2 | 2026-09-01 23:48:57 | 46.02576 | 13.79025 | 72° | 55km/h | 15923m | 4.8m/s | -57.1°C | 5.4% | 0hPa | 2.6V | 00:00:00 | 00:00:00 | 08:30:00 | |
| 9A1FER-3 | 2026-09-01 23:48:55 | 46.02568 | 13.78984 | 75° | 55km/h | 15915m | 3.8m/s | -57.0°C | 5.4% | 0hPa | 2.7V | 00:00:00 | 01:24:25 | 00:00:00 | |
| DO3MHA-12 | 2026-09-01 23:48:50 | 46.02550 | 13.78881 | 77° | 53km/h | 15895m | 3.2m/s | -56.9°C | 5.4% | 0hPa | 2.7V | 00:00:00 | 01:24:20 | 08:30:00 | |
| OE5DXL-15 | 2026-09-01 23:48:49 | 46.02547 | 13.78862 | 79° | 53km/h | 15891m | 4.6m/s | -56.8°C | 5.3% | 0hPa | 2.7V | 00:00:00 | 00:00:00 | 08:30:00 | |
| IN3HCDX1 | 2026-09-01 23:48:47 | 46.02544 | 13.78843 | 80° | 53km/h | 15886m | 4.7m/s | -56.8°C | 2.1% | 0hPa | 2.6V | 00:00:00 | 00:00:00 | 00:00:00 | |
| DO3MHA-12 | 2026-09-01 23:48:40 | 46.02520 | 13.78695 | 76° | 53km/h | 15852m | 4.1m/s | -56.6°C | 5.3% | 0hPa | 2.6V | 00:00:00 | 01:24:10 | 00:00:00 | |
| IN3HCDX | 2026-09-01 23:48:38 | 46.02516 | 13.78674 | 77° | 58km/h | 15848m | 3.1m/s | -56.7°C | 2.1% | 0hPa | 2.6V | 00:00:00 | 00:00:00 | 00:00:00 | |
| OE8JPQ-2 | 2026-09-01 23:48:37 | 46.02510 | 13.78633 | 81° | 53km/h | 15840m | 4.2m/s | -56.6°C | 5.3% | 0hPa | 2.6V | 00:00:00 | 00:00:00 | 00:00:00 | |
| OE5DRO-10 | 2026-09-01 23:48:36 | 46.02508 | 13.78614 | 81° | 53km/h | 15836m | 3.0m/s | -56.6°C | 5.2% | 0hPa | 2.6V | 00:00:00 | 00:00:00 | 00:00:00 | |
| 9A1FER-10 | 2026-09-01 23:48:33 | 46.02501 | 13.78559 | 78° | 53km/h | 15825m | 3.7m/s | -56.5°C | 5.2% | 0hPa | 2.6V | 00:00:00 | 01:24:03 | 00:00:00 | |
| DO3MHA-12 | 2026-09-01 23:48:31 | 46.02493 | 13.78504 | 81° | 53km/h | 15812m | 3.6m/s | -56.5°C | 5.2% | 0hPa | 2.6V | 00:00:00 | 01:24:00 | 00:00:00 | |
| DO3MHA-11 | 2026-09-01 23:48:30 | 46.02493 | 13.78504 | 81° | 53km/h | 15812m | 3.6m/s | -56.5°C | 5.2% | 0hPa | 2.6V | 00:00:00 | 01:24:00 | 00:00:00 | |
| IV3AMH | 2026-09-01 23:48:28 | 46.02491 | 13.78485 | 80° | 53km/h | 15808m | 4.8m/s | -56.5°C | 2.1% | 0hPa | 2.6V | 00:00:00 | 00:00:00 | 00:00:00 | |
| IN3HCDX1 | 2026-09-01 23:48:26 | 46.02485 | 13.78447 | 79° | 55km/h | 15800m | 3.7m/s | -56.6°C | 2.1% | 0hPa | 2.6V | 00:00:00 | 00:00:00 | 00:00:00 | |
| 9A1FER-3 | 2026-09-01 23:48:25 | 46.02480 | 13.78409 | 83° | 57km/h | 15791m | 3.8m/s | -56.6°C | 5.3% | 0hPa | 2.6V | 00:00:00 | 01:23:55 | 08:30:00 | |
| DO3MHA-12 | 2026-09-01 23:48:20 | 46.02473 | 13.78313 | 87° | 58km/h | 15770m | 4.0m/s | -56.6°C | 5.4% | 0hPa | 2.6V | 00:00:00 | 01:23:50 | 00:00:00 | |
| OE5DXL-15 | 2026-09-01 23:48:19 | 46.02472 | 13.78293 | 87° | 57km/h | 15767m | 3.4m/s | -56.6°C | 5.3% | 0hPa | 2.7V | 00:00:00 | 00:00:00 | 00:00:00 | |
| 9A1FER-10 | 2026-09-01 23:48:18 | 46.02471 | 13.78273 | 85° | 58km/h | 15762m | 5.2m/s | -56.5°C | 5.3% | 0hPa | 2.7V | 00:00:00 | 01:23:48 | 00:00:00 | |
| OE8JPQ-2 | 2026-09-01 23:48:17 | 46.02469 | 13.78252 | 83° | 58km/h | 15758m | 4.0m/s | -56.5°C | 5.3% | 0hPa | 2.6V | 00:00:00 | 01:23:47 | 00:00:00 | |
| DO3MHA-12 | 2026-09-01 23:48:10 | 46.02459 | 13.78100 | 89° | 57km/h | 15729m | 4.2m/s | -56.4°C | 5.3% | 0hPa | 2.6V | 00:00:00 | 01:23:40 | 00:00:00 | |
| IN3HCDX1 | 2026-09-01 23:48:06 | 46.02458 | 13.78034 | 89° | 60km/h | 15715m | 4.2m/s | -56.3°C | 2.1% | 0hPa | 2.6V | 00:00:00 | 00:00:00 | 00:00:00 | |
| 9A1FER-10 | 2026-09-01 23:48:03 | 46.02456 | 13.77953 | 88° | 55km/h | 15700m | 3.0m/s | -56.2°C | 5.2% | 0hPa | 2.6V | 00:00:00 | 01:23:33 | 00:00:00 | |
| DO3MHA-12 | 2026-09-01 23:48:00 | 46.02452 | 13.77894 | 82° | 55km/h | 15687m | 3.5m/s | -56.1°C | 5.2% | 0hPa | 2.6V | 00:00:00 | 01:23:30 | 00:00:00 | |
| OE5DRO-10 | 2026-09-01 23:47:58 | 46.02448 | 13.77853 | 86° | 53km/h | 15680m | 4.6m/s | -56.0°C | 5.2% | 0hPa | 2.6V | 00:00:00 | 00:00:00 | 00:00:00 | |
| OE8JPQ-2 | 2026-09-01 23:47:57 | 46.02447 | 13.77833 | 87° | 53km/h | 15675m | 3.9m/s | -56.0°C | 5.2% | 0hPa | 2.6V | 00:00:00 | 00:00:00 | 00:00:00 | |
| 9A1FER-3 | 2026-09-01 23:47:55 | 46.02446 | 13.77794 | 86° | 53km/h | 15668m | 3.7m/s | -56.0°C | 5.1% | 0hPa | 2.7V | 00:00:00 | 01:23:25 | 00:00:00 | |
| IV3AMH | 2026-09-01 23:47:51 | 46.02442 | 13.77735 | 86° | 55km/h | 15655m | 5.2m/s | -56.0°C | 2.0% | 0hPa | 2.7V | 00:00:00 | 00:00:00 | 00:00:00 | |
| DO3MHA-12 | 2026-09-01 23:47:50 | 46.02440 | 13.77696 | 85° | 51km/h | 15646m | 3.7m/s | -55.9°C | 5.1% | 0hPa | 2.7V | 00:00:00 | 01:23:20 | 00:00:00 | |
| OE5DXL-15 | 2026-09-01 23:47:49 | 46.02438 | 13.77676 | 83° | 53km/h | 15642m | 4.7m/s | -55.9°C | 5.1% | 0hPa | 2.6V | 00:00:00 | 00:00:00 | 00:00:00 | |
| 9A1FER-10 | 2026-09-01 23:47:48 | 46.02436 | 13.77657 | 82° | 51km/h | 15638m | 3.2m/s | -55.9°C | 5.1% | 0hPa | 2.6V | 00:00:00 | 01:23:18 | 00:00:00 | |
| DO3MHA-12 | 2026-09-01 23:47:40 | 46.02427 | 13.77509 | 92° | 51km/h | 15604m | 3.7m/s | -55.7°C | 5.1% | 0hPa | 2.6V | 00:00:00 | 01:23:10 | 00:00:00 | |
| OE5DRO-10 | 2026-09-01 23:47:39 | 46.02427 | 13.77489 | 93° | 53km/h | 15601m | 3.9m/s | -55.7°C | 5.1% | 0hPa | 2.6V | 00:00:00 | 00:00:00 | 00:00:00 | |
| OE8JPQ-2 | 2026-09-01 23:47:37 | 46.02428 | 13.77450 | 91° | 53km/h | 15591m | 4.2m/s | -55.7°C | 5.1% | 0hPa | 2.6V | 00:00:00 | 00:00:00 | 00:00:00 | |
| 9A1FER-10 | 2026-09-01 23:47:33 | 46.02431 | 13.77378 | 94° | 51km/h | 15575m | 3.9m/s | -55.7°C | 5.0% | 0hPa | 2.6V | 00:00:00 | 01:23:03 | 08:30:00 | |
| DO3MHA-12 | 2026-09-01 23:47:30 | 46.02431 | 13.77324 | 89° | 55km/h | 15562m | 4.0m/s | -55.7°C | 5.1% | 0hPa | 2.6V | 00:00:00 | 01:23:00 | 00:00:00 | |
| IN3HCDX1 | 2026-09-01 23:47:26 | 46.02430 | 13.77262 | 89° | 58km/h | 15550m | 3.8m/s | -55.8°C | 2.0% | 0hPa | 2.6V | 00:00:00 | 00:00:00 | 00:00:00 | |
| 9A1FER-3 | 2026-09-01 23:47:25 | 46.02428 | 13.77221 | 85° | 51km/h | 15541m | 4.0m/s | -55.7°C | 5.1% | 0hPa | 2.6V | 00:00:00 | 01:22:55 | 00:00:00 | |
| DO3MHA-12 | 2026-09-01 23:47:20 | 46.02423 | 13.77125 | 86° | 49km/h | 15520m | 4.5m/s | -55.6°C | 4.9% | 0hPa | 2.6V | 00:00:00 | 01:22:50 | 08:30:00 | |
| OE5DXL-15 | 2026-09-01 23:47:19 | 46.02422 | 13.77108 | 87° | 53km/h | 15515m | 4.9m/s | -55.6°C | 5.0% | 0hPa | 2.6V | 00:00:00 | 00:00:00 | 00:00:00 | |
| 9A1FER-10 | 2026-09-01 23:47:18 | 46.02421 | 13.77090 | 88° | 51km/h | 15510m | 4.4m/s | -55.6°C | 5.0% | 0hPa | 2.6V | 00:00:00 | 01:22:48 | 00:00:00 | |
| OE8JPQ-2 | 2026-09-01 23:47:17 | 46.02421 | 13.77073 | 88° | 53km/h | 15506m | 4.0m/s | -55.6°C | 5.0% | 0hPa | 2.6V | 00:00:00 | 01:22:47 | 00:00:00 | |
| IN3HCDX | 2026-09-01 23:47:16 | 46.02421 | 13.77073 | 89° | 49km/h | 15506m | 4.1m/s | -55.6°C | 2.0% | 0hPa | 2.6V | 00:00:00 | 00:00:00 | 00:00:00 | |
| 9A1FER-3 | 2026-09-01 23:47:14 | 46.02421 | 13.76945 | 89° | 53km/h | 15475m | 5.1m/s | -55.6°C | 5.1% | 0hPa | 2.6V | 00:00:00 | 01:22:40 | 00:00:00 | |
| IN3HCDX1 | 2026-09-01 23:47:05 | 46.02418 | 13.76869 | 89° | 55km/h | 15458m | 4.6m/s | -55.7°C | 2.0% | 0hPa | 2.6V | 00:00:00 | 00:00:00 | 00:00:00 | |
| OE5DRO-10 | 2026-09-01 23:47:01 | 46.02416 | 13.76771 | 92° | 58km/h | 15435m | 5.3m/s | -55.5°C | 5.0% | 0hPa | 2.6V | 00:00:00 | 00:00:00 | 00:00:00 | |
| DO3MHA-12 | 2026-09-01 23:47:00 | 46.02417 | 13.76751 | 93° | 55km/h | 15430m | 3.6m/s | -55.6°C | 5.0% | 0hPa | 2.6V | 00:00:00 | 01:22:30 | 00:00:00 | |
| OE8JPQ-2 | 2026-09-01 23:46:57 | 46.02418 | 13.76694 | 90° | 60km/h | 15417m | 4.4m/s | -55.5°C | 5.0% | 0hPa | 2.6V | 00:00:00 | 00:00:00 | 00:00:00 | |
| 9A1FER-3 | 2026-09-01 23:46:55 | 46.02418 | 13.76656 | 92° | 60km/h | 15408m | 5.2m/s | -55.5°C | 5.0% | 0hPa | 2.6V | 00:00:00 | 01:22:25 | 00:00:00 | |
| DO3MHA-12 | 2026-09-01 23:46:50 | 46.02417 | 13.76554 | 89° | 62km/h | 15385m | 5.4m/s | -55.4°C | 5.0% | 0hPa | 2.6V | 00:00:00 | 01:22:20 | 00:00:00 | |
| OE5DXL-15 | 2026-09-01 23:46:49 | 46.02417 | 13.76532 | 90° | 60km/h | 15380m | 4.5m/s | -55.4°C | 5.1% | 0hPa | 2.6V | 00:00:00 | 00:00:00 | 00:00:00 | |
| 9A1FER-10 | 2026-09-01 23:46:44 | 46.02413 | 13.76416 | 86° | 58km/h | 15358m | 5.2m/s | -55.2°C | 5.0% | 0hPa | 2.6V | 00:00:00 | 01:22:14 | 00:00:00 | |
| OE5DRO-10 | 2026-09-01 23:46:42 | 46.02411 | 13.76373 | 88° | 60km/h | 15349m | 4.5m/s | -55.1°C | 5.0% | 0hPa | 2.7V | 00:00:00 | 00:00:00 | 00:00:00 | |
| DO3MHA-11 | 2026-09-01 23:46:40 | 46.02410 | 13.76329 | 90° | 60km/h | 15339m | 4.1m/s | -55.1°C | 4.9% | 0hPa | 2.7V | 00:00:00 | 01:22:10 | 00:00:00 | |
| OE8JPQ-2 | 2026-09-01 23:46:37 | 46.02412 | 13.76261 | 93° | 58km/h | 15325m | 4.2m/s | -55.1°C | 4.9% | 0hPa | 2.6V | 00:00:00 | 00:00:00 | 00:00:00 | |
| IV3AMH | 2026-09-01 23:46:36 | 46.02412 | 13.76261 | 93° | 62km/h | 15325m | 4.3m/s | -55.1°C | 2.0% | 0hPa | 2.6V | 00:00:00 | 00:00:00 | 00:00:00 | |
| IN3HCDX | 2026-09-01 23:46:35 | 46.02412 | 13.76238 | 90° | 62km/h | 15320m | 5.3m/s | -55.1°C | 2.0% | 0hPa | 2.6V | 00:00:00 | 00:00:00 | 00:00:00 | |
| DO3MHA-11 | 2026-09-01 23:46:30 | 46.02408 | 13.76113 | 89° | 58km/h | 15293m | 5.2m/s | -54.8°C | 4.8% | 0hPa | 2.6V | 00:00:00 | 01:22:00 | 00:00:00 | |
| 9A1FER-10 | 2026-09-01 23:46:29 | 46.02407 | 13.76092 | 89° | 60km/h | 15288m | 5.1m/s | -54.8°C | 4.8% | 0hPa | 2.6V | 00:00:00 | 01:21:59 | 00:00:00 | |
| 9A1FER-3 | 2026-09-01 23:46:26 | 46.02408 | 13.76006 | 92° | 60km/h | 15269m | 5.2m/s | -54.6°C | 4.8% | 0hPa | 2.6V | 00:00:00 | 01:21:55 | 00:00:00 | |
| OE5DRO-10 | 2026-09-01 23:46:23 | 46.02408 | 13.75962 | 89° | 60km/h | 15260m | 3.7m/s | -54.6°C | 4.8% | 0hPa | 2.6V | 00:00:00 | 00:00:00 | 00:00:00 | |
| DO3MHA-12 | 2026-09-01 23:46:20 | 46.02408 | 13.75899 | 89° | 60km/h | 15246m | 3.8m/s | -54.5°C | 4.7% | 0hPa | 2.6V | 00:00:00 | 01:21:50 | 00:00:00 | |
| OE5DXL-15 | 2026-09-01 23:46:19 | 46.02407 | 13.75878 | 88° | 62km/h | 15241m | 5.6m/s | -54.4°C | 4.8% | 0hPa | 2.6V | 00:00:00 | 00:00:00 | 00:00:00 | |
| OE8JPQ-2 | 2026-09-01 23:46:17 | 46.02406 | 13.75835 | 89° | 62km/h | 15231m | 4.4m/s | -54.4°C | 4.7% | 0hPa | 2.6V | 00:00:00 | 01:21:47 | 00:00:00 | |
| IN3HCDX | 2026-09-01 23:46:14 | 46.02406 | 13.75791 | 91° | 60km/h | 15221m | 4.4m/s | -54.4°C | 1.9% | 0hPa | 2.6V | 00:00:00 | 00:00:00 | 00:00:00 | |
| DO3MHA-12 | 2026-09-01 23:46:10 | 46.02406 | 13.75679 | 93° | 64km/h | 15197m | 4.1m/s | -54.4°C | 4.8% | 0hPa | 2.6V | 00:00:00 | 01:21:40 | 00:00:00 | |
| 9A1FER-10 | 2026-09-01 23:46:04 | 46.02403 | 13.75546 | 90° | 64km/h | 15170m | 5.0m/s | -54.3°C | 4.8% | 0hPa | 2.6V | 00:00:00 | 01:21:34 | 00:00:00 | |
| IN3HCDX1 | 2026-09-01 23:46:03 | 46.02403 | 13.75546 | 90° | 64km/h | 15170m | 5.0m/s | -54.4°C | 1.9% | 0hPa | 2.6V | 00:00:00 | 00:00:00 | 00:00:00 | |
| DO3MHA-11 | 2026-09-01 23:46:00 | 46.02400 | 13.75452 | 84° | 66km/h | 15151m | 4.4m/s | -54.3°C | 4.8% | 0hPa | 2.6V | 00:00:00 | 01:21:30 | 00:00:00 | |
| DO3MHA-12 | 2026-09-01 23:45:59 | 46.02398 | 13.75427 | 84° | 64km/h | 15146m | 4.7m/s | -54.3°C | 4.7% | 0hPa | 2.6V | 00:00:00 | 01:21:29 | 00:00:00 | |
| OE8JPQ-2 | 2026-09-01 23:45:57 | 46.02395 | 13.75378 | 86° | 66km/h | 15136m | 4.7m/s | -54.3°C | 4.7% | 0hPa | 2.6V | 00:00:00 | 00:00:00 | 08:30:00 | |
| 9A1FER-3 | 2026-09-01 23:45:55 | 46.02392 | 13.75330 | 85° | 66km/h | 15127m | 5.0m/s | -54.3°C | 4.8% | 0hPa | 2.6V | 00:00:00 | 01:21:25 | 00:00:00 | |
| IN3HCDX | 2026-09-01 23:45:54 | 46.02392 | 13.75330 | 85° | 68km/h | 15127m | 5.1m/s | -54.3°C | 2.0% | 0hPa | 2.6V | 00:00:00 | 00:00:00 | 00:00:00 | |
| DO3MHA-11 | 2026-09-01 23:45:50 | 46.02386 | 13.75219 | 87° | 68km/h | 15103m | 4.9m/s | -54.3°C | 4.8% | 0hPa | 2.6V | 00:00:00 | 01:21:20 | 00:00:00 | |
| 9A1FER-10 | 2026-09-01 23:45:49 | 46.02385 | 13.75197 | 86° | 66km/h | 15098m | 4.4m/s | 0°C | 0% | 0hPa | 2.6V | 00:00:00 | 01:21:19 | 00:00:00 | |
| OE5DRO-10 | 2026-09-01 23:45:45 | 46.02384 | 13.75100 | 91° | 64km/h | 15078m | 4.1m/s | -54.1°C | 4.6% | 0hPa | 2.6V | 00:00:00 | 00:00:00 | 00:00:00 | |
| IN3HCDX1 | 2026-09-01 23:45:42 | 46.02383 | 13.75048 | 88° | 71km/h | 15069m | 5.2m/s | -54.2°C | 1.9% | 0hPa | 2.6V | 00:00:00 | 00:00:00 | 00:00:00 | |
| 9A1FER-3 | 2026-09-01 23:45:40 | 46.02380 | 13.74973 | 89° | 62km/h | 15054m | 4.7m/s | -54.4°C | 4.8% | 0hPa | 2.6V | 00:00:00 | 01:21:10 | 00:00:00 | |
| DO3MHA-12 | 2026-09-01 23:45:39 | 46.02380 | 13.74950 | 90° | 62km/h | 15049m | 4.4m/s | -54.4°C | 4.8% | 0hPa | 2.6V | 00:00:00 | 01:21:09 | 00:00:00 | |
| OE8JPQ-2 | 2026-09-01 23:45:37 | 46.02380 | 13.74904 | 90° | 66km/h | 15039m | 4.3m/s | -54.5°C | 4.8% | 0hPa | 2.6V | 00:00:00 | 00:00:00 | 00:00:00 | |
| 9A1FER-10 | 2026-09-01 23:45:33 | 46.02383 | 13.74817 | 96° | 66km/h | 15020m | 4.7m/s | 0°C | 0% | 0hPa | 2.6V | 00:00:00 | 01:21:03 | 00:00:00 | |
| DO3MHA-11 | 2026-09-01 23:45:30 | 46.02384 | 13.74751 | 90° | 68km/h | 15006m | 4.9m/s | -54.5°C | 4.8% | 0hPa | 2.6V | 00:00:00 | 01:21:00 | 00:00:00 | |
| DO3MHA-12 | 2026-09-01 23:45:29 | 46.02384 | 13.74728 | 90° | 68km/h | 15001m | 4.8m/s | -54.5°C | 4.8% | 0hPa | 2.6V | 00:00:00 | 01:20:59 | 00:00:00 | |
| OE5DRO-10 | 2026-09-01 23:45:26 | 46.02382 | 13.74657 | 86° | 69km/h | 14987m | 5.2m/s | -54.7°C | 4.9% | 0hPa | 2.6V | 00:00:00 | 00:00:00 | 00:00:00 | |
| 9A1FER-3 | 2026-09-01 23:45:25 | 46.02380 | 13.74632 | 85° | 69km/h | 14982m | 4.0m/s | -54.8°C | 5.0% | 0hPa | 2.6V | 00:00:00 | 01:20:55 | 00:00:00 | |
| IN3HCDX1 | 2026-09-01 23:45:21 | 46.02377 | 13.74558 | 91° | 68km/h | 14968m | 3.9m/s | -54.9°C | 2.1% | 0hPa | 2.6V | 00:00:00 | 00:00:00 | 00:00:00 | |
| DO3MHA-11 | 2026-09-01 23:45:20 | 46.02378 | 13.74508 | 93° | 71km/h | 14959m | 4.9m/s | -54.9°C | 5.0% | 0hPa | 2.6V | 00:00:00 | 01:20:50 | 00:00:00 | |
| DO3MHA-12 | 2026-09-01 23:45:19 | 46.02379 | 13.74483 | 93° | 71km/h | 14954m | 4.6m/s | -54.9°C | 5.0% | 0hPa | 2.6V | 00:00:00 | 01:20:49 | 00:00:00 | |
| 9A1FER-10 | 2026-09-01 23:45:18 | 46.02380 | 13.74458 | 94° | 71km/h | 14950m | 3.8m/s | 0°C | 0% | 0hPa | 2.6V | 00:00:00 | 01:20:48 | 00:00:00 | |
| OE8JPQ-2 | 2026-09-01 23:45:17 | 46.02382 | 13.74432 | 96° | 69km/h | 14945m | 5.5m/s | -54.9°C | 5.0% | 0hPa | 2.6V | 00:00:00 | 01:20:47 | 00:00:00 | |
| IN3HCDX | 2026-09-01 23:45:13 | 46.02387 | 13.74332 | 93° | 73km/h | 14925m | 4.8m/s | -55.1°C | 2.2% | 0hPa | 2.6V | 00:00:00 | 00:00:00 | 00:00:00 | |
| 9A1FER-3 | 2026-09-01 23:45:10 | 46.02387 | 13.74253 | 88° | 69km/h | 14910m | 4.0m/s | -55.0°C | 5.0% | 0hPa | 2.6V | 00:00:00 | 01:20:40 | 00:00:00 | |
| DO3MHA-12 | 2026-09-01 23:45:09 | 46.02386 | 13.74227 | 87° | 69km/h | 14905m | 5.3m/s | -55.0°C | 5.1% | 0hPa | 2.6V | 00:00:00 | 01:20:39 | 00:00:00 | |
| OE5DRO-10 | 2026-09-01 23:45:07 | 46.02384 | 13.74174 | 88° | 71km/h | 14896m | 4.9m/s | -54.9°C | 4.9% | 0hPa | 2.6V | 00:00:00 | 00:00:00 | 00:00:00 | |
| DO3MHA-11 | 2026-09-01 23:45:00 | 46.02387 | 13.73998 | 90° | 69km/h | 14864m | 5.1m/s | -54.7°C | 4.9% | 0hPa | 2.6V | 00:00:00 | 01:20:30 | 00:00:00 | |
| DO3MHA-12 | 2026-09-01 23:44:59 | 46.02386 | 13.73973 | 87° | 71km/h | 14859m | 3.6m/s | -54.6°C | 4.9% | 0hPa | 2.6V | 00:00:00 | 01:20:29 | 00:00:00 | |
| OE8JPQ-2 | 2026-09-01 23:44:57 | 46.02383 | 13.73924 | 84° | 73km/h | 14850m | 4.9m/s | -54.6°C | 4.9% | 0hPa | 2.6V | 00:00:00 | 00:00:00 | 00:00:00 | |
| 9A1FER-3 | 2026-09-01 23:44:55 | 46.02379 | 13.73872 | 82° | 73km/h | 14841m | 4.4m/s | -54.5°C | 4.8% | 0hPa | 2.6V | 00:00:00 | 01:20:25 | 00:00:00 | |
| IN3HCDX | 2026-09-01 23:44:52 | 46.02373 | 13.73821 | 82° | 69km/h | 14832m | 4.4m/s | -54.6°C | 2.1% | 0hPa | 2.6V | 00:00:00 | 00:00:00 | 00:00:00 | |
| DO3MHA-11 | 2026-09-01 23:44:50 | 46.02367 | 13.73744 | 86° | 73km/h | 14817m | 4.3m/s | -54.7°C | 5.0% | 0hPa | 2.6V | 00:00:00 | 01:20:20 | 00:00:00 | |
| DO3MHA-12 | 2026-09-01 23:44:49 | 46.02365 | 13.73717 | 86° | 73km/h | 14813m | 3.7m/s | -54.7°C | 5.0% | 0hPa | 2.6V | 00:00:00 | 01:20:19 | 00:00:00 | |
| 9A1FER-10 | 2026-09-01 23:44:48 | 46.02364 | 13.73690 | 85° | 75km/h | 14809m | 4.1m/s | 0°C | 0% | 0hPa | 2.7V | 00:00:00 | 01:20:18 | 00:00:00 | |
| DO3MHA-11 | 2026-09-01 23:44:40 | 46.02353 | 13.73479 | 88° | 77km/h | 14774m | 4.9m/s | -54.5°C | 4.9% | 0hPa | 2.7V | 00:00:00 | 01:20:10 | 00:00:00 | |
| DO3MHA-12 | 2026-09-01 23:44:39 | 46.02352 | 13.73452 | 87° | 77km/h | 14769m | 4.6m/s | -54.5°C | 4.9% | 0hPa | 2.6V | 00:00:00 | 01:20:09 | 00:00:00 | |
| OE8JPQ-2 | 2026-09-01 23:44:37 | 46.02349 | 13.73399 | 84° | 78km/h | 14761m | 5.0m/s | -54.4°C | 4.9% | 0hPa | 2.6V | 00:00:00 | 00:00:00 | 00:00:00 | |
| IN3HCDX | 2026-09-01 23:44:32 | 46.02336 | 13.73260 | 83° | 78km/h | 14738m | 4.8m/s | -54.4°C | 2.1% | 0hPa | 2.6V | 00:00:00 | 00:00:00 | 00:00:00 | |
| DO3MHA-11 | 2026-09-01 23:44:30 | 46.02330 | 13.73203 | 82° | 77km/h | 14729m | 4.1m/s | -54.3°C | 4.8% | 0hPa | 2.6V | 00:00:00 | 01:20:00 | 00:00:00 | |
| DO3MHA-12 | 2026-09-01 23:44:29 | 46.02327 | 13.73175 | 82° | 77km/h | 14724m | 5.3m/s | -54.3°C | 4.8% | 0hPa | 2.6V | 00:00:00 | 01:19:59 | 00:00:00 | |
| 9A1FER-3 | 2026-09-01 23:44:25 | 46.02317 | 13.73065 | 84° | 78km/h | 14706m | 4.6m/s | -54.8°C | 5.0% | 0hPa | 2.6V | 00:00:00 | 01:19:55 | 00:00:00 | |
| DO3MHA-11 | 2026-09-01 23:44:20 | 46.02305 | 13.72925 | 82° | 80km/h | 14683m | 3.9m/s | -54.7°C | 5.0% | 0hPa | 2.6V | 00:00:00 | 01:19:50 | 00:00:00 | |
| OE5DXL-15 | 2026-09-01 23:44:19 | 46.02301 | 13.72896 | 81° | 78km/h | 14679m | 5.5m/s | -54.7°C | 5.0% | 0hPa | 2.6V | 00:00:00 | 00:00:00 | 08:30:00 | |
| OE8JPQ-2 | 2026-09-01 23:44:18 | 46.02294 | 13.72836 | 81° | 78km/h | 14669m | 4.1m/s | -54.6°C | 5.0% | 0hPa | 2.6V | 00:00:00 | 01:19:47 | 00:00:00 | |
| DO3MHA-11 | 2026-09-01 23:44:10 | 46.02268 | 13.72641 | 81° | 80km/h | 14639m | 4.1m/s | -54.5°C | 5.0% | 0hPa | 2.6V | 00:00:00 | 01:19:40 | 08:30:00 | |
| DO3MHA-12 | 2026-09-01 23:44:09 | 46.02265 | 13.72612 | 81° | 80km/h | 14635m | 3.7m/s | -54.5°C | 5.0% | 0hPa | 2.6V | 00:00:00 | 01:19:39 | 00:00:00 | |
| Es werden nur die letzten 3500 von 3972 Frames angezeigt. GPX/KML und Diagramme bleiben verfügbar. | |||||||||||||||